<?xml version='1.0' encoding='UTF-8'?><gpx version="1.1" creator="JPX - https://github.com/jenetics/jpx" xmlns="http://www.topografix.com/GPX/1/1"><trk><trkseg><trkpt lat="39.439214754922546" lon="9.542089376252735"><ele>15.0</ele><time>2026-04-11T07:00:20.184Z</time></trkpt><trkpt lat="39.439215086146774" lon="9.541986804110744"><ele>15.0</ele><time>2026-04-11T07:00:20.8Z</time></trkpt><trkpt lat="39.439210718413904" lon="9.54187040870503"><ele>15.0</ele><time>2026-04-11T07:00:23.2Z</time></trkpt><trkpt lat="39.43921897299911" lon="9.541680427206375"><ele>15.0</ele><time>2026-04-11T07:00:25Z</time></trkpt><trkpt lat="39.439220831254715" lon="9.541591346762246"><ele>15.0</ele><time>2026-04-11T07:00:26Z</time></trkpt><trkpt lat="39.439219822573726" lon="9.541454392769904"><ele>15.0</ele><time>2026-04-11T07:00:27.5Z</time></trkpt><trkpt lat="39.43921976676301" lon="9.541365792161958"><ele>15.0</ele><time>2026-04-11T07:00:28.5Z</time></trkpt><trkpt lat="39.439221664068846" lon="9.541281831426748"><ele>15.0</ele><time>2026-04-11T07:00:29.5Z</time></trkpt><trkpt lat="39.43923087800943" lon="9.541163876223209"><ele>15.0</ele><time>2026-04-11T07:00:31Z</time></trkpt><trkpt lat="39.43924053518202" lon="9.541053691586992"><ele>15.0</ele><time>2026-04-11T07:00:32.5Z</time></trkpt><trkpt lat="39.439327202762044" lon="9.541013847639713"><ele>15.0</ele><time>2026-04-11T07:00:36.5Z</time></trkpt><trkpt lat="39.43944585425367" lon="9.541028344035857"><ele>15.0</ele><time>2026-04-11T07:00:38.5Z</time></trkpt><trkpt lat="39.439566803405214" lon="9.541030967912448"><ele>15.0</ele><time>2026-04-11T07:00:40Z</time></trkpt><trkpt lat="39.43970193075783" lon="9.541032539318715"><ele>15.0</ele><time>2026-04-11T07:00:41.5Z</time></trkpt><trkpt lat="39.439785865542866" lon="9.541033249953017"><ele>15.0</ele><time>2026-04-11T07:00:42.5Z</time></trkpt><trkpt lat="39.43986394843452" lon="9.541033318763757"><ele>15.0</ele><time>2026-04-11T07:00:43.5Z</time></trkpt><trkpt lat="39.439951183766155" lon="9.541046977528763"><ele>15.0</ele><time>2026-04-11T07:00:45.4Z</time></trkpt><trkpt lat="39.44006082729405" lon="9.541107209423709"><ele>15.0</ele><time>2026-04-11T07:00:47.3Z</time></trkpt><trkpt lat="39.44013113628613" lon="9.541140826537177"><ele>15.0</ele><time>2026-04-11T07:00:48.25Z</time></trkpt><trkpt lat="39.44020214397469" lon="9.541196617910051"><ele>15.0</ele><time>2026-04-11T07:00:49.2Z</time></trkpt><trkpt lat="39.44028903962328" lon="9.541237570954229"><ele>15.0</ele><time>2026-04-11T07:00:50.15Z</time></trkpt><trkpt lat="39.44038618666499" lon="9.54128490183801"><ele>15.166666666666666</ele><time>2026-04-11T07:00:51.1Z</time></trkpt><trkpt lat="39.440468655368775" lon="9.54132896062678"><ele>15.333333333333332</ele><time>2026-04-11T07:00:52.05Z</time></trkpt><trkpt lat="39.44055320968472" lon="9.541373679431095"><ele>15.5</ele><time>2026-04-11T07:00:53Z</time></trkpt><trkpt lat="39.44062052956316" lon="9.541408453638384"><ele>15.666666666666666</ele><time>2026-04-11T07:00:54Z</time></trkpt><trkpt lat="39.4406843155207" lon="9.541453264499276"><ele>15.833333333333332</ele><time>2026-04-11T07:00:56Z</time></trkpt><trkpt lat="39.440669745643746" lon="9.541570171337424"><ele>16.0</ele><time>2026-04-11T07:01:04Z</time></trkpt><trkpt lat="39.44060102323789" lon="9.541594267674713"><ele>15.999999999999998</ele><time>2026-04-11T07:01:05Z</time></trkpt><trkpt lat="39.44054212214327" lon="9.541645861912304"><ele>16.0</ele><time>2026-04-11T07:01:06Z</time></trkpt><trkpt lat="39.440477726469744" lon="9.541701829042253"><ele>16.0</ele><time>2026-04-11T07:01:07Z</time></trkpt><trkpt lat="39.44040824928615" lon="9.54176092667319"><ele>16.0</ele><time>2026-04-11T07:01:08Z</time></trkpt><trkpt lat="39.44033049784713" lon="9.54185775503336"><ele>15.999999999999998</ele><time>2026-04-11T07:01:09Z</time></trkpt><trkpt lat="39.44031050840886" lon="9.54196186844306"><ele>16.0</ele><time>2026-04-11T07:01:10Z</time></trkpt><trkpt lat="39.44029944579" lon="9.542055219360781"><ele>15.833333333333332</ele><time>2026-04-11T07:01:11Z</time></trkpt><trkpt lat="39.440293099364595" lon="9.542139974176921"><ele>15.666666666666666</ele><time>2026-04-11T07:01:12Z</time></trkpt><trkpt lat="39.44028144167124" lon="9.542241940728012"><ele>15.5</ele><time>2026-04-11T07:01:14Z</time></trkpt><trkpt lat="39.440358555771326" lon="9.542347568006935"><ele>15.333333333333332</ele><time>2026-04-11T07:01:18Z</time></trkpt><trkpt lat="39.44041900497683" lon="9.542382878927414"><ele>15.166666666666666</ele><time>2026-04-11T07:01:19Z</time></trkpt><trkpt lat="39.44048469880029" lon="9.54242079511535"><ele>15.0</ele><time>2026-04-11T07:01:20Z</time></trkpt><trkpt lat="39.44055514115979" lon="9.542456177005956"><ele>15.0</ele><time>2026-04-11T07:01:21Z</time></trkpt><trkpt lat="39.440626020770395" lon="9.542495736894306"><ele>15.0</ele><time>2026-04-11T07:01:22Z</time></trkpt><trkpt lat="39.44069970144286" lon="9.542540168794492"><ele>15.0</ele><time>2026-04-11T07:01:23Z</time></trkpt><trkpt lat="39.440772986105316" lon="9.542579245829586"><ele>15.0</ele><time>2026-04-11T07:01:24Z</time></trkpt><trkpt lat="39.440848415043114" lon="9.542614267361673"><ele>15.0</ele><time>2026-04-11T07:01:25Z</time></trkpt><trkpt lat="39.44092681315265" lon="9.54265384269724"><ele>15.0</ele><time>2026-04-11T07:01:26Z</time></trkpt><trkpt lat="39.44101038506165" lon="9.542698108690779"><ele>15.0</ele><time>2026-04-11T07:01:27Z</time></trkpt><trkpt lat="39.44109749591741" lon="9.542745688386919"><ele>15.0</ele><time>2026-04-11T07:01:28Z</time></trkpt><trkpt lat="39.441187970753624" lon="9.542796562405535"><ele>15.0</ele><time>2026-04-11T07:01:29Z</time></trkpt><trkpt lat="39.441280501806006" lon="9.542842579809362"><ele>15.0</ele><time>2026-04-11T07:01:30Z</time></trkpt><trkpt lat="39.441374446544934" lon="9.54289434921205"><ele>15.0</ele><time>2026-04-11T07:01:31Z</time></trkpt><trkpt lat="39.44146495977867" lon="9.542943040113597"><ele>14.8</ele><time>2026-04-11T07:01:32Z</time></trkpt><trkpt lat="39.441562732028736" lon="9.542975009254638"><ele>14.6</ele><time>2026-04-11T07:01:33Z</time></trkpt><trkpt lat="39.44164531227008" lon="9.54298516384864"><ele>14.399999999999999</ele><time>2026-04-11T07:01:34Z</time></trkpt><trkpt lat="39.44173170975033" lon="9.542981827608724"><ele>14.2</ele><time>2026-04-11T07:01:35Z</time></trkpt><trkpt lat="39.44182706348135" lon="9.54291368138318"><ele>14.0</ele><time>2026-04-11T07:01:36Z</time></trkpt><trkpt lat="39.441907664954215" lon="9.54282127989807"><ele>14.399999999999999</ele><time>2026-04-11T07:01:37Z</time></trkpt><trkpt lat="39.44199872484141" lon="9.542755972024617"><ele>14.799999999999999</ele><time>2026-04-11T07:01:38Z</time></trkpt><trkpt lat="39.442087164474685" lon="9.542697031336395"><ele>15.200000000000001</ele><time>2026-04-11T07:01:39Z</time></trkpt><trkpt lat="39.44216469479773" lon="9.542632058637773"><ele>15.600000000000001</ele><time>2026-04-11T07:01:40Z</time></trkpt><trkpt lat="39.4422354815023" lon="9.542541305129593"><ele>16.0</ele><time>2026-04-11T07:01:41Z</time></trkpt><trkpt lat="39.442290095298695" lon="9.542430938640427"><ele>16.166666666666664</ele><time>2026-04-11T07:01:42Z</time></trkpt><trkpt lat="39.44234905982322" lon="9.542360287664362"><ele>16.333333333333332</ele><time>2026-04-11T07:01:43Z</time></trkpt><trkpt lat="39.44242562454315" lon="9.542319862134512"><ele>16.5</ele><time>2026-04-11T07:01:44Z</time></trkpt><trkpt lat="39.442510047073" lon="9.542311461940345"><ele>16.666666666666668</ele><time>2026-04-11T07:01:45Z</time></trkpt><trkpt lat="39.44258623762751" lon="9.542256804429913"><ele>16.833333333333336</ele><time>2026-04-11T07:01:46Z</time></trkpt><trkpt lat="39.44266464250131" lon="9.542194618284702"><ele>17.0</ele><time>2026-04-11T07:01:47Z</time></trkpt><trkpt lat="39.442750588098995" lon="9.54213787862175"><ele>17.0</ele><time>2026-04-11T07:01:48Z</time></trkpt><trkpt lat="39.44283249459682" lon="9.542070843549098"><ele>17.0</ele><time>2026-04-11T07:01:49Z</time></trkpt><trkpt lat="39.44291768071584" lon="9.542011251265569"><ele>17.0</ele><time>2026-04-11T07:01:50Z</time></trkpt><trkpt lat="39.44300005534392" lon="9.541952731523729"><ele>17.0</ele><time>2026-04-11T07:01:51Z</time></trkpt><trkpt lat="39.443079223689324" lon="9.541890902989895"><ele>17.0</ele><time>2026-04-11T07:01:52Z</time></trkpt><trkpt lat="39.443157621439" lon="9.541833434616017"><ele>17.166666666666668</ele><time>2026-04-11T07:01:53Z</time></trkpt><trkpt lat="39.443242820968365" lon="9.541790070252532"><ele>17.333333333333336</ele><time>2026-04-11T07:01:54Z</time></trkpt><trkpt lat="39.44332758365021" lon="9.541755181769757"><ele>17.5</ele><time>2026-04-11T07:01:55Z</time></trkpt><trkpt lat="39.443400331130775" lon="9.541725028413888"><ele>17.666666666666668</ele><time>2026-04-11T07:01:56Z</time></trkpt><trkpt lat="39.443483501547526" lon="9.541683250406074"><ele>17.833333333333332</ele><time>2026-04-11T07:01:58Z</time></trkpt><trkpt lat="39.4435660105779" lon="9.541631544812747"><ele>18.0</ele><time>2026-04-11T07:02:02Z</time></trkpt><trkpt lat="39.443685369719105" lon="9.541585581503844"><ele>18.0</ele><time>2026-04-11T07:02:04Z</time></trkpt><trkpt lat="39.4437662701888" lon="9.541523114734858"><ele>18.0</ele><time>2026-04-11T07:02:05Z</time></trkpt><trkpt lat="39.443855924411814" lon="9.541487595821446"><ele>18.0</ele><time>2026-04-11T07:02:06Z</time></trkpt><trkpt lat="39.44393659328629" lon="9.541434835441917"><ele>18.0</ele><time>2026-04-11T07:02:07Z</time></trkpt><trkpt lat="39.44401894551418" lon="9.541380974102678"><ele>18.0</ele><time>2026-04-11T07:02:08Z</time></trkpt><trkpt lat="39.44411610386858" lon="9.541317321333796"><ele>17.4</ele><time>2026-04-11T07:02:09Z</time></trkpt><trkpt lat="39.44420998836135" lon="9.541254169142132"><ele>16.8</ele><time>2026-04-11T07:02:10Z</time></trkpt><trkpt lat="39.444297691235455" lon="9.54117551169375"><ele>16.2</ele><time>2026-04-11T07:02:11Z</time></trkpt><trkpt lat="39.4443695777072" lon="9.541073460717401"><ele>15.6</ele><time>2026-04-11T07:02:12Z</time></trkpt><trkpt lat="39.444409028396045" lon="9.54094118996328"><ele>15.0</ele><time>2026-04-11T07:02:13Z</time></trkpt><trkpt lat="39.44445185430912" lon="9.540834806518248"><ele>15.0</ele><time>2026-04-11T07:02:14Z</time></trkpt><trkpt lat="39.44448976846043" lon="9.540740624382188"><ele>15.0</ele><time>2026-04-11T07:02:15Z</time></trkpt><trkpt lat="39.44452986569802" lon="9.54066944390347"><ele>15.0</ele><time>2026-04-11T07:02:16Z</time></trkpt><trkpt lat="39.44457498638556" lon="9.540606447190775"><ele>15.0</ele><time>2026-04-11T07:02:17Z</time></trkpt><trkpt lat="39.44461772740259" lon="9.5405440001513"><ele>15.0</ele><time>2026-04-11T07:02:18Z</time></trkpt><trkpt lat="39.444703743813356" lon="9.540443182630323"><ele>15.0</ele><time>2026-04-11T07:02:20Z</time></trkpt><trkpt lat="39.44478454604215" lon="9.54034212890563"><ele>15.6</ele><time>2026-04-11T07:02:22Z</time></trkpt><trkpt lat="39.44486745489826" lon="9.540253394004868"><ele>16.2</ele><time>2026-04-11T07:02:24Z</time></trkpt><trkpt lat="39.444969042933714" lon="9.540196756832204"><ele>16.8</ele><time>2026-04-11T07:02:26Z</time></trkpt><trkpt lat="39.44503999999185" lon="9.540235517079045"><ele>17.4</ele><time>2026-04-11T07:02:27Z</time></trkpt><trkpt lat="39.44511406294553" lon="9.540246939864941"><ele>18.0</ele><time>2026-04-11T07:02:28Z</time></trkpt><trkpt lat="39.4451960659111" lon="9.540241779857462"><ele>18.0</ele><time>2026-04-11T07:02:29Z</time></trkpt><trkpt lat="39.4452821989779" lon="9.540259149248422"><ele>18.0</ele><time>2026-04-11T07:02:30Z</time></trkpt><trkpt lat="39.445371368049805" lon="9.540278755219981"><ele>18.0</ele><time>2026-04-11T07:02:31Z</time></trkpt><trkpt lat="39.44547380651571" lon="9.540290284721497"><ele>18.0</ele><time>2026-04-11T07:02:32Z</time></trkpt><trkpt lat="39.44557245843008" lon="9.54030399489375"><ele>18.0</ele><time>2026-04-11T07:02:33Z</time></trkpt><trkpt lat="39.44567168230455" lon="9.540319349198919"><ele>18.0</ele><time>2026-04-11T07:02:34Z</time></trkpt><trkpt lat="39.44576811398197" lon="9.540341592246365"><ele>18.0</ele><time>2026-04-11T07:02:35Z</time></trkpt><trkpt lat="39.44586359335499" lon="9.540363020591437"><ele>18.0</ele><time>2026-04-11T07:02:36Z</time></trkpt><trkpt lat="39.445958138241465" lon="9.54040366563556"><ele>18.0</ele><time>2026-04-11T07:02:37Z</time></trkpt><trkpt lat="39.44604660744653" lon="9.540437516426783"><ele>18.0</ele><time>2026-04-11T07:02:38Z</time></trkpt><trkpt lat="39.44614089641353" lon="9.540454243889283"><ele>17.6</ele><time>2026-04-11T07:02:39Z</time></trkpt><trkpt lat="39.446234623478844" lon="9.540491210871934"><ele>17.200000000000003</ele><time>2026-04-11T07:02:40Z</time></trkpt><trkpt lat="39.44633253534058" lon="9.540526504895707"><ele>16.8</ele><time>2026-04-11T07:02:41Z</time></trkpt><trkpt lat="39.44643050459223" lon="9.540563812472469"><ele>16.400000000000002</ele><time>2026-04-11T07:02:42Z</time></trkpt><trkpt lat="39.446527023336635" lon="9.540592315035902"><ele>16.0</ele><time>2026-04-11T07:02:43Z</time></trkpt><trkpt lat="39.44662246035061" lon="9.540631170018868"><ele>15.999999999999998</ele><time>2026-04-11T07:02:44Z</time></trkpt><trkpt lat="39.44671395328984" lon="9.540642855230486"><ele>16.0</ele><time>2026-04-11T07:02:45Z</time></trkpt><trkpt lat="39.44680915076108" lon="9.540643889839778"><ele>16.0</ele><time>2026-04-11T07:02:46Z</time></trkpt><trkpt lat="39.44689301432977" lon="9.540623986032191"><ele>16.0</ele><time>2026-04-11T07:02:47Z</time></trkpt><trkpt lat="39.446981048636445" lon="9.540643255542781"><ele>15.999999999999998</ele><time>2026-04-11T07:02:48Z</time></trkpt><trkpt lat="39.447059095413785" lon="9.540642291558779"><ele>16.0</ele><time>2026-04-11T07:02:49Z</time></trkpt><trkpt lat="39.44714555287907" lon="9.540638602554575"><ele>15.999999999999998</ele><time>2026-04-11T07:02:50Z</time></trkpt><trkpt lat="39.44723220557575" lon="9.540634623226802"><ele>16.0</ele><time>2026-04-11T07:02:51Z</time></trkpt><trkpt lat="39.44732416101581" lon="9.54063040037744"><ele>16.0</ele><time>2026-04-11T07:02:52Z</time></trkpt><trkpt lat="39.44741376842735" lon="9.540633868058096"><ele>16.0</ele><time>2026-04-11T07:02:53Z</time></trkpt><trkpt lat="39.447504463645636" lon="9.540639364729717"><ele>15.999999999999998</ele><time>2026-04-11T07:02:54Z</time></trkpt><trkpt lat="39.44758989281426" lon="9.540653334264482"><ele>16.0</ele><time>2026-04-11T07:02:55Z</time></trkpt><trkpt lat="39.447690431822124" lon="9.540671405665904"><ele>16.0</ele><time>2026-04-11T07:02:56Z</time></trkpt><trkpt lat="39.447775021338046" lon="9.54068653731463"><ele>16.0</ele><time>2026-04-11T07:02:57Z</time></trkpt><trkpt lat="39.44787329698924" lon="9.54068791418381"><ele>16.0</ele><time>2026-04-11T07:02:58Z</time></trkpt><trkpt lat="39.44796264544725" lon="9.540705836162372"><ele>16.0</ele><time>2026-04-11T07:02:59Z</time></trkpt><trkpt lat="39.44805348322875" lon="9.540728005607656"><ele>16.0</ele><time>2026-04-11T07:03:00Z</time></trkpt><trkpt lat="39.44815016878018" lon="9.540749367469383"><ele>16.6</ele><time>2026-04-11T07:03:01Z</time></trkpt><trkpt lat="39.448243137597395" lon="9.540769400712973"><ele>17.200000000000003</ele><time>2026-04-11T07:03:02Z</time></trkpt><trkpt lat="39.44833590569274" lon="9.540808890108167"><ele>17.799999999999997</ele><time>2026-04-11T07:03:03Z</time></trkpt><trkpt lat="39.44842923029899" lon="9.540818689180728"><ele>18.4</ele><time>2026-04-11T07:03:04Z</time></trkpt><trkpt lat="39.448525406117284" lon="9.540819195260447"><ele>19.0</ele><time>2026-04-11T07:03:05Z</time></trkpt><trkpt lat="39.44861325264804" lon="9.54081709405713"><ele>19.0</ele><time>2026-04-11T07:03:06Z</time></trkpt><trkpt lat="39.44870722238511" lon="9.540811105995697"><ele>19.0</ele><time>2026-04-11T07:03:07Z</time></trkpt><trkpt lat="39.44880125336498" lon="9.540798373249961"><ele>19.0</ele><time>2026-04-11T07:03:08Z</time></trkpt><trkpt lat="39.448885124053845" lon="9.540787026313513"><ele>19.0</ele><time>2026-04-11T07:03:09Z</time></trkpt><trkpt lat="39.448982574156" lon="9.540780061018708"><ele>19.0</ele><time>2026-04-11T07:03:10Z</time></trkpt><trkpt lat="39.44907445810615" lon="9.540775555740469"><ele>19.0</ele><time>2026-04-11T07:03:11Z</time></trkpt><trkpt lat="39.44915708793069" lon="9.540755436669608"><ele>19.0</ele><time>2026-04-11T07:03:12Z</time></trkpt><trkpt lat="39.44923311136384" lon="9.54075110868421"><ele>19.0</ele><time>2026-04-11T07:03:13Z</time></trkpt><trkpt lat="39.44930550571595" lon="9.540749956312544"><ele>19.0</ele><time>2026-04-11T07:03:14Z</time></trkpt><trkpt lat="39.44936896268881" lon="9.540750065374006"><ele>19.0</ele><time>2026-04-11T07:03:15Z</time></trkpt><trkpt lat="39.44945323043827" lon="9.540752690500597"><ele>19.0</ele><time>2026-04-11T07:03:17Z</time></trkpt><trkpt lat="39.44951684145894" lon="9.540733432756623"><ele>19.0</ele><time>2026-04-11T07:03:33Z</time></trkpt><trkpt lat="39.44957986170129" lon="9.540751152565035"><ele>18.599999999999998</ele><time>2026-04-11T07:03:34Z</time></trkpt><trkpt lat="39.44967032158686" lon="9.540734401368933"><ele>18.2</ele><time>2026-04-11T07:03:35Z</time></trkpt><trkpt lat="39.44976881434211" lon="9.540730940111375"><ele>17.799999999999997</ele><time>2026-04-11T07:03:36Z</time></trkpt><trkpt lat="39.44988724624441" lon="9.540748764144954"><ele>17.4</ele><time>2026-04-11T07:03:37Z</time></trkpt><trkpt lat="39.450012520758705" lon="9.540754934018345"><ele>17.0</ele><time>2026-04-11T07:03:38Z</time></trkpt><trkpt lat="39.45014631399489" lon="9.54075058580149"><ele>17.0</ele><time>2026-04-11T07:03:39Z</time></trkpt><trkpt lat="39.45028149145405" lon="9.54076801511273"><ele>17.0</ele><time>2026-04-11T07:03:40Z</time></trkpt><trkpt lat="39.45040645147639" lon="9.54080629557003"><ele>17.0</ele><time>2026-04-11T07:03:41Z</time></trkpt><trkpt lat="39.45053108328006" lon="9.540830420974522"><ele>17.0</ele><time>2026-04-11T07:03:42Z</time></trkpt><trkpt lat="39.45065826617761" lon="9.540855040204423"><ele>16.8</ele><time>2026-04-11T07:03:43Z</time></trkpt><trkpt lat="39.45078918547919" lon="9.540860394694958"><ele>16.6</ele><time>2026-04-11T07:03:44Z</time></trkpt><trkpt lat="39.450902644202976" lon="9.540881861096413"><ele>16.400000000000002</ele><time>2026-04-11T07:03:45Z</time></trkpt><trkpt lat="39.45099555479979" lon="9.540904548613192"><ele>16.2</ele><time>2026-04-11T07:03:46Z</time></trkpt><trkpt lat="39.45108909160862" lon="9.540925076538208"><ele>16.0</ele><time>2026-04-11T07:03:47Z</time></trkpt><trkpt lat="39.451191909223574" lon="9.540912995332377"><ele>16.0</ele><time>2026-04-11T07:03:48Z</time></trkpt><trkpt lat="39.45130939597507" lon="9.540868953459434"><ele>16.0</ele><time>2026-04-11T07:03:49Z</time></trkpt><trkpt lat="39.45142966422437" lon="9.540811866820661"><ele>16.0</ele><time>2026-04-11T07:03:50Z</time></trkpt><trkpt lat="39.45156044749288" lon="9.540755935300202"><ele>16.0</ele><time>2026-04-11T07:03:51Z</time></trkpt><trkpt lat="39.45169107010845" lon="9.540697249303374"><ele>16.0</ele><time>2026-04-11T07:03:52Z</time></trkpt><trkpt lat="39.45182814325915" lon="9.540635665237403"><ele>16.0</ele><time>2026-04-11T07:03:53Z</time></trkpt><trkpt lat="39.451968974853656" lon="9.540574665738689"><ele>16.0</ele><time>2026-04-11T07:03:54Z</time></trkpt><trkpt lat="39.452117369207784" lon="9.540520163843535"><ele>16.0</ele><time>2026-04-11T07:03:55Z</time></trkpt><trkpt lat="39.45227159621813" lon="9.540464616125034"><ele>15.0</ele><time>2026-04-11T07:03:56Z</time></trkpt><trkpt lat="39.45243591385878" lon="9.540454814778649"><ele>14.0</ele><time>2026-04-11T07:03:57Z</time></trkpt><trkpt lat="39.45259317646965" lon="9.540462548928092"><ele>13.0</ele><time>2026-04-11T07:03:58Z</time></trkpt><trkpt lat="39.45275794017896" lon="9.54047604030843"><ele>13.0</ele><time>2026-04-11T07:03:59Z</time></trkpt><trkpt lat="39.452918477426984" lon="9.540483078208268"><ele>13.0</ele><time>2026-04-11T07:04:00Z</time></trkpt><trkpt lat="39.453081400295204" lon="9.540484483627834"><ele>13.0</ele><time>2026-04-11T07:04:01Z</time></trkpt><trkpt lat="39.45324630331021" lon="9.540486479184674"><ele>14.0</ele><time>2026-04-11T07:04:02Z</time></trkpt><trkpt lat="39.453409814885596" lon="9.540491859768155"><ele>15.0</ele><time>2026-04-11T07:04:03Z</time></trkpt><trkpt lat="39.453574870589414" lon="9.540500724294608"><ele>16.0</ele><time>2026-04-11T07:04:04Z</time></trkpt><trkpt lat="39.453738097192065" lon="9.540506778504874"><ele>17.0</ele><time>2026-04-11T07:04:05Z</time></trkpt><trkpt lat="39.45390120569525" lon="9.54050916996964"><ele>18.0</ele><time>2026-04-11T07:04:06Z</time></trkpt><trkpt lat="39.45406105788512" lon="9.540512417472206"><ele>19.0</ele><time>2026-04-11T07:04:07Z</time></trkpt><trkpt lat="39.454221057439064" lon="9.540519441586486"><ele>19.0</ele><time>2026-04-11T07:04:08Z</time></trkpt><trkpt lat="39.45437759399633" lon="9.540529074468443"><ele>19.0</ele><time>2026-04-11T07:04:09Z</time></trkpt><trkpt lat="39.45453453967433" lon="9.540534458166158"><ele>19.0</ele><time>2026-04-11T07:04:10Z</time></trkpt><trkpt lat="39.454691871014155" lon="9.540541804333744"><ele>19.333333333333332</ele><time>2026-04-11T07:04:11Z</time></trkpt><trkpt lat="39.45485059567568" lon="9.540570304668496"><ele>19.666666666666668</ele><time>2026-04-11T07:04:12Z</time></trkpt><trkpt lat="39.455004642899794" lon="9.540631108290233"><ele>20.0</ele><time>2026-04-11T07:04:13Z</time></trkpt><trkpt lat="39.45515557787249" lon="9.540722259182122"><ele>20.0</ele><time>2026-04-11T07:04:14Z</time></trkpt><trkpt lat="39.455301969162164" lon="9.540837356133059"><ele>20.0</ele><time>2026-04-11T07:04:15Z</time></trkpt><trkpt lat="39.45544253831733" lon="9.540975195863787"><ele>20.0</ele><time>2026-04-11T07:04:16Z</time></trkpt><trkpt lat="39.455569664762535" lon="9.541080336222075"><ele>20.333333333333336</ele><time>2026-04-11T07:04:17Z</time></trkpt><trkpt lat="39.45569887653446" lon="9.541215910248829"><ele>20.666666666666668</ele><time>2026-04-11T07:04:18Z</time></trkpt><trkpt lat="39.455828036072695" lon="9.541346918000679"><ele>21.0</ele><time>2026-04-11T07:04:19Z</time></trkpt><trkpt lat="39.45595276761026" lon="9.541461855355385"><ele>21.0</ele><time>2026-04-11T07:04:20Z</time></trkpt><trkpt lat="39.456070810801585" lon="9.54157386278126"><ele>21.0</ele><time>2026-04-11T07:04:21Z</time></trkpt><trkpt lat="39.456184865105456" lon="9.541679161447219"><ele>21.0</ele><time>2026-04-11T07:04:22Z</time></trkpt><trkpt lat="39.45629730730307" lon="9.541786674668215"><ele>21.0</ele><time>2026-04-11T07:04:23Z</time></trkpt><trkpt lat="39.45642080521476" lon="9.54188105765896"><ele>24.0</ele><time>2026-04-11T07:04:24Z</time></trkpt><trkpt lat="39.45656392356974" lon="9.541943301020092"><ele>27.0</ele><time>2026-04-11T07:04:25Z</time></trkpt><trkpt lat="39.4567113325145" lon="9.541986317184504"><ele>30.0</ele><time>2026-04-11T07:04:26Z</time></trkpt><trkpt lat="39.45686494426955" lon="9.542012606435263"><ele>30.0</ele><time>2026-04-11T07:04:27Z</time></trkpt><trkpt lat="39.457022877561656" lon="9.542012733847137"><ele>30.0</ele><time>2026-04-11T07:04:28Z</time></trkpt><trkpt lat="39.45718256902561" lon="9.541994640561057"><ele>30.0</ele><time>2026-04-11T07:04:29Z</time></trkpt><trkpt lat="39.45734225838858" lon="9.541975943723621"><ele>32.666666666666664</ele><time>2026-04-11T07:04:30Z</time></trkpt><trkpt lat="39.457501840763584" lon="9.541953888544368"><ele>35.33333333333333</ele><time>2026-04-11T07:04:31Z</time></trkpt><trkpt lat="39.457665319373994" lon="9.541936016042309"><ele>38.0</ele><time>2026-04-11T07:04:32Z</time></trkpt><trkpt lat="39.45783021305983" lon="9.541929754274808"><ele>39.666666666666664</ele><time>2026-04-11T07:04:33Z</time></trkpt><trkpt lat="39.457995663429095" lon="9.541941960462049"><ele>41.333333333333336</ele><time>2026-04-11T07:04:34Z</time></trkpt><trkpt lat="39.45816141538196" lon="9.541960583161275"><ele>43.0</ele><time>2026-04-11T07:04:35Z</time></trkpt><trkpt lat="39.45832817570229" lon="9.541978573957815"><ele>43.0</ele><time>2026-04-11T07:04:36Z</time></trkpt><trkpt lat="39.45849353135688" lon="9.541990097871123"><ele>43.0</ele><time>2026-04-11T07:04:37Z</time></trkpt><trkpt lat="39.458659902323156" lon="9.542000690254785"><ele>43.0</ele><time>2026-04-11T07:04:38Z</time></trkpt><trkpt lat="39.458825159780034" lon="9.54201222389267"><ele>45.0</ele><time>2026-04-11T07:04:39Z</time></trkpt><trkpt lat="39.45899026241404" lon="9.542015110893349"><ele>47.0</ele><time>2026-04-11T07:04:40Z</time></trkpt><trkpt lat="39.45915629216216" lon="9.542007809499683"><ele>49.0</ele><time>2026-04-11T07:04:41Z</time></trkpt><trkpt lat="39.45931669225073" lon="9.542000390556653"><ele>49.0</ele><time>2026-04-11T07:04:42Z</time></trkpt><trkpt lat="39.45948125190328" lon="9.54199739296813"><ele>49.0</ele><time>2026-04-11T07:04:43Z</time></trkpt><trkpt lat="39.45964089737497" lon="9.54199209510329"><ele>49.0</ele><time>2026-04-11T07:04:44Z</time></trkpt><trkpt lat="39.45980217018836" lon="9.541975770350847"><ele>45.666666666666664</ele><time>2026-04-11T07:04:45Z</time></trkpt><trkpt lat="39.45996316941622" lon="9.54194795896525"><ele>42.33333333333333</ele><time>2026-04-11T07:04:46Z</time></trkpt><trkpt lat="39.460120142122186" lon="9.541907625883994"><ele>39.0</ele><time>2026-04-11T07:04:47Z</time></trkpt><trkpt lat="39.460276879026885" lon="9.541854981135929"><ele>39.0</ele><time>2026-04-11T07:04:48Z</time></trkpt><trkpt lat="39.46043020791391" lon="9.541788876561945"><ele>39.0</ele><time>2026-04-11T07:04:49Z</time></trkpt><trkpt lat="39.46058372488043" lon="9.54171790398143"><ele>39.0</ele><time>2026-04-11T07:04:50Z</time></trkpt><trkpt lat="39.46074109307808" lon="9.541645628111905"><ele>34.333333333333336</ele><time>2026-04-11T07:04:51Z</time></trkpt><trkpt lat="39.46089629960599" lon="9.541566665447526"><ele>29.666666666666668</ele><time>2026-04-11T07:04:52Z</time></trkpt><trkpt lat="39.461051443734895" lon="9.541474095107816"><ele>25.0</ele><time>2026-04-11T07:04:53Z</time></trkpt><trkpt lat="39.46120443531273" lon="9.54136969197176"><ele>22.0</ele><time>2026-04-11T07:04:54Z</time></trkpt><trkpt lat="39.46135321708226" lon="9.54125703618544"><ele>19.0</ele><time>2026-04-11T07:04:55Z</time></trkpt><trkpt lat="39.46150139309753" lon="9.541143593462614"><ele>16.0</ele><time>2026-04-11T07:04:56Z</time></trkpt><trkpt lat="39.46164635433138" lon="9.54102405017635"><ele>22.0</ele><time>2026-04-11T07:04:57Z</time></trkpt><trkpt lat="39.46177976193625" lon="9.540880166704792"><ele>28.0</ele><time>2026-04-11T07:04:58Z</time></trkpt><trkpt lat="39.461910824181594" lon="9.540731575259748"><ele>34.0</ele><time>2026-04-11T07:04:59Z</time></trkpt><trkpt lat="39.46201427590238" lon="9.540547430502217"><ele>33.333333333333336</ele><time>2026-04-11T07:05:00Z</time></trkpt><trkpt lat="39.46212663445885" lon="9.540375003010155"><ele>32.666666666666664</ele><time>2026-04-11T07:05:01Z</time></trkpt><trkpt lat="39.46223926771167" lon="9.540201980982745"><ele>32.0</ele><time>2026-04-11T07:05:02Z</time></trkpt><trkpt lat="39.46235936224449" lon="9.540039997692292"><ele>32.0</ele><time>2026-04-11T07:05:03Z</time></trkpt><trkpt lat="39.46248614221008" lon="9.539888165582218"><ele>32.0</ele><time>2026-04-11T07:05:04Z</time></trkpt><trkpt lat="39.46261345394731" lon="9.53973478999623"><ele>32.0</ele><time>2026-04-11T07:05:05Z</time></trkpt><trkpt lat="39.4627417079172" lon="9.539576779351421"><ele>32.33333333333333</ele><time>2026-04-11T07:05:06Z</time></trkpt><trkpt lat="39.46287515033831" lon="9.539425761421265"><ele>32.666666666666664</ele><time>2026-04-11T07:05:07Z</time></trkpt><trkpt lat="39.46302172265729" lon="9.53929312208018"><ele>33.0</ele><time>2026-04-11T07:05:08Z</time></trkpt><trkpt lat="39.463182576014624" lon="9.539198185620668"><ele>33.0</ele><time>2026-04-11T07:05:09Z</time></trkpt><trkpt lat="39.46335599485752" lon="9.539140854861369"><ele>33.0</ele><time>2026-04-11T07:05:10Z</time></trkpt><trkpt lat="39.463534863292935" lon="9.539121585672317"><ele>33.0</ele><time>2026-04-11T07:05:11Z</time></trkpt><trkpt lat="39.46371411053036" lon="9.539127766619982"><ele>35.0</ele><time>2026-04-11T07:05:12Z</time></trkpt><trkpt lat="39.46389472185916" lon="9.539138723475427"><ele>37.0</ele><time>2026-04-11T07:05:13Z</time></trkpt><trkpt lat="39.464079004140835" lon="9.539144917151686"><ele>39.0</ele><time>2026-04-11T07:05:14Z</time></trkpt><trkpt lat="39.46426211425082" lon="9.539145568392758"><ele>39.0</ele><time>2026-04-11T07:05:15Z</time></trkpt><trkpt lat="39.46444476620866" lon="9.53914176790305"><ele>39.0</ele><time>2026-04-11T07:05:16Z</time></trkpt><trkpt lat="39.464626633008116" lon="9.53914263477298"><ele>39.0</ele><time>2026-04-11T07:05:17Z</time></trkpt><trkpt lat="39.46480764468529" lon="9.539141963788838"><ele>38.333333333333336</ele><time>2026-04-11T07:05:18Z</time></trkpt><trkpt lat="39.4649864337687" lon="9.53913736482732"><ele>37.66666666666667</ele><time>2026-04-11T07:05:19Z</time></trkpt><trkpt lat="39.46516486201411" lon="9.539133756955287"><ele>37.0</ele><time>2026-04-11T07:05:20Z</time></trkpt><trkpt lat="39.465342569898134" lon="9.539130556042103"><ele>36.66666666666667</ele><time>2026-04-11T07:05:21Z</time></trkpt><trkpt lat="39.46552211297434" lon="9.53912852538168"><ele>36.333333333333336</ele><time>2026-04-11T07:05:22Z</time></trkpt><trkpt lat="39.46570291352975" lon="9.539129870890944"><ele>36.0</ele><time>2026-04-11T07:05:23Z</time></trkpt><trkpt lat="39.465882031927435" lon="9.53913592924455"><ele>36.0</ele><time>2026-04-11T07:05:24Z</time></trkpt><trkpt lat="39.46606451347643" lon="9.53914797202703"><ele>36.0</ele><time>2026-04-11T07:05:25Z</time></trkpt><trkpt lat="39.4662472689591" lon="9.539166204072192"><ele>36.0</ele><time>2026-04-11T07:05:26Z</time></trkpt><trkpt lat="39.46642782618379" lon="9.539195491539445"><ele>36.666666666666664</ele><time>2026-04-11T07:05:27Z</time></trkpt><trkpt lat="39.46660799374994" lon="9.539233131193926"><ele>37.33333333333333</ele><time>2026-04-11T07:05:28Z</time></trkpt><trkpt lat="39.46678128514498" lon="9.53926792638146"><ele>38.0</ele><time>2026-04-11T07:05:29Z</time></trkpt><trkpt lat="39.466950755018395" lon="9.539297266267335"><ele>38.0</ele><time>2026-04-11T07:05:30Z</time></trkpt><trkpt lat="39.4671219719186" lon="9.53931700388166"><ele>38.0</ele><time>2026-04-11T07:05:31Z</time></trkpt><trkpt lat="39.46729623192333" lon="9.539315034993706"><ele>38.0</ele><time>2026-04-11T07:05:32Z</time></trkpt><trkpt lat="39.46747462851907" lon="9.539282768194699"><ele>38.0</ele><time>2026-04-11T07:05:33Z</time></trkpt><trkpt lat="39.4676521049605" lon="9.53922459403607"><ele>38.0</ele><time>2026-04-11T07:05:34Z</time></trkpt><trkpt lat="39.4678299122922" lon="9.539157438250456"><ele>38.0</ele><time>2026-04-11T07:05:35Z</time></trkpt><trkpt lat="39.468011901167486" lon="9.539090845673899"><ele>34.666666666666664</ele><time>2026-04-11T07:05:36Z</time></trkpt><trkpt lat="39.46819229561315" lon="9.53902753714949"><ele>31.333333333333336</ele><time>2026-04-11T07:05:37Z</time></trkpt><trkpt lat="39.4683735461449" lon="9.538964238264935"><ele>28.0</ele><time>2026-04-11T07:05:38Z</time></trkpt><trkpt lat="39.468556754670175" lon="9.53890167978321"><ele>28.0</ele><time>2026-04-11T07:05:39Z</time></trkpt><trkpt lat="39.468738504925454" lon="9.53884597606882"><ele>28.0</ele><time>2026-04-11T07:05:40Z</time></trkpt><trkpt lat="39.46892187058731" lon="9.538805531061426"><ele>28.0</ele><time>2026-04-11T07:05:41Z</time></trkpt><trkpt lat="39.469107695925366" lon="9.538769220112815"><ele>26.0</ele><time>2026-04-11T07:05:42Z</time></trkpt><trkpt lat="39.469292273729614" lon="9.538727523709742"><ele>24.0</ele><time>2026-04-11T07:05:43Z</time></trkpt><trkpt lat="39.46947607717641" lon="9.538680570745111"><ele>22.0</ele><time>2026-04-11T07:05:44Z</time></trkpt><trkpt lat="39.469659052168765" lon="9.538626030916278"><ele>27.666666666666664</ele><time>2026-04-11T07:05:45Z</time></trkpt><trkpt lat="39.4698391620794" lon="9.538557622525003"><ele>33.333333333333336</ele><time>2026-04-11T07:05:46Z</time></trkpt><trkpt lat="39.47001666785322" lon="9.538484359967736"><ele>39.0</ele><time>2026-04-11T07:05:47Z</time></trkpt><trkpt lat="39.47018877530551" lon="9.538415681275366"><ele>39.0</ele><time>2026-04-11T07:05:48Z</time></trkpt><trkpt lat="39.470362588968" lon="9.53835335399349"><ele>39.0</ele><time>2026-04-11T07:05:49Z</time></trkpt><trkpt lat="39.47053806515556" lon="9.53831794538915"><ele>39.0</ele><time>2026-04-11T07:05:50Z</time></trkpt><trkpt lat="39.47071711558133" lon="9.538320306600594"><ele>38.333333333333336</ele><time>2026-04-11T07:05:51Z</time></trkpt><trkpt lat="39.4708954784687" lon="9.538332687515949"><ele>37.66666666666667</ele><time>2026-04-11T07:05:52Z</time></trkpt><trkpt lat="39.471076354762445" lon="9.538324805853037"><ele>37.0</ele><time>2026-04-11T07:05:53Z</time></trkpt><trkpt lat="39.47126078894227" lon="9.53831730792486"><ele>36.0</ele><time>2026-04-11T07:05:54Z</time></trkpt><trkpt lat="39.47144403058573" lon="9.538284550533586"><ele>35.0</ele><time>2026-04-11T07:05:55Z</time></trkpt><trkpt lat="39.47162844953275" lon="9.538245124757811"><ele>34.0</ele><time>2026-04-11T07:05:56Z</time></trkpt><trkpt lat="39.47181537094405" lon="9.538257747704483"><ele>34.0</ele><time>2026-04-11T07:05:57Z</time></trkpt><trkpt lat="39.472001763872775" lon="9.538304204678226"><ele>34.0</ele><time>2026-04-11T07:05:58Z</time></trkpt><trkpt lat="39.47218243753551" lon="9.53836786473546"><ele>34.0</ele><time>2026-04-11T07:05:59Z</time></trkpt><trkpt lat="39.47236717503023" lon="9.538420699501186"><ele>36.333333333333336</ele><time>2026-04-11T07:06:00Z</time></trkpt><trkpt lat="39.47255154367567" lon="9.53845529848139"><ele>38.666666666666664</ele><time>2026-04-11T07:06:01Z</time></trkpt><trkpt lat="39.47273426943403" lon="9.538491528600936"><ele>41.0</ele><time>2026-04-11T07:06:02Z</time></trkpt><trkpt lat="39.4729172313572" lon="9.538532260672442"><ele>47.33333333333333</ele><time>2026-04-11T07:06:03Z</time></trkpt><trkpt lat="39.47310111190972" lon="9.538574077478513"><ele>53.666666666666664</ele><time>2026-04-11T07:06:04Z</time></trkpt><trkpt lat="39.47328308097153" lon="9.538619821364481"><ele>60.0</ele><time>2026-04-11T07:06:05Z</time></trkpt><trkpt lat="39.47346258712117" lon="9.53867845482595"><ele>52.666666666666664</ele><time>2026-04-11T07:06:06Z</time></trkpt><trkpt lat="39.47363846564313" lon="9.538751745444895"><ele>45.33333333333333</ele><time>2026-04-11T07:06:07Z</time></trkpt><trkpt lat="39.473810250643005" lon="9.538831180870117"><ele>38.0</ele><time>2026-04-11T07:06:08Z</time></trkpt><trkpt lat="39.47398565010727" lon="9.53890723119326"><ele>38.0</ele><time>2026-04-11T07:06:09Z</time></trkpt><trkpt lat="39.474157542418496" lon="9.538980013901103"><ele>38.0</ele><time>2026-04-11T07:06:10Z</time></trkpt><trkpt lat="39.47432931964975" lon="9.539053613016346"><ele>38.0</ele><time>2026-04-11T07:06:11Z</time></trkpt><trkpt lat="39.474499404538896" lon="9.539132151104004"><ele>43.666666666666664</ele><time>2026-04-11T07:06:12Z</time></trkpt><trkpt lat="39.47466419169929" lon="9.539223327629722"><ele>49.33333333333333</ele><time>2026-04-11T07:06:13Z</time></trkpt><trkpt lat="39.47481480078337" lon="9.539338028048958"><ele>55.0</ele><time>2026-04-11T07:06:14Z</time></trkpt><trkpt lat="39.4749610254124" lon="9.539464789116728"><ele>46.33333333333333</ele><time>2026-04-11T07:06:15Z</time></trkpt><trkpt lat="39.475100545590365" lon="9.53958768481001"><ele>37.666666666666664</ele><time>2026-04-11T07:06:16Z</time></trkpt><trkpt lat="39.475236094400515" lon="9.539695992198347"><ele>29.0</ele><time>2026-04-11T07:06:17Z</time></trkpt><trkpt lat="39.47537799655199" lon="9.539765861335107"><ele>32.25</ele><time>2026-04-11T07:06:18Z</time></trkpt><trkpt lat="39.47551862059193" lon="9.539804544443198"><ele>35.5</ele><time>2026-04-11T07:06:19Z</time></trkpt><trkpt lat="39.47565143435807" lon="9.539800703250057"><ele>38.75</ele><time>2026-04-11T07:06:20Z</time></trkpt><trkpt lat="39.47577587519441" lon="9.539790837732012"><ele>42.0</ele><time>2026-04-11T07:06:21Z</time></trkpt><trkpt lat="39.47587605487657" lon="9.539678736373808"><ele>42.25</ele><time>2026-04-11T07:06:22Z</time></trkpt><trkpt lat="39.4759254498028" lon="9.53952410941255"><ele>42.5</ele><time>2026-04-11T07:06:23Z</time></trkpt><trkpt lat="39.47594790818044" lon="9.539353596057971"><ele>42.75</ele><time>2026-04-11T07:06:24Z</time></trkpt><trkpt lat="39.475930816323526" lon="9.539165526834157"><ele>43.0</ele><time>2026-04-11T07:06:25Z</time></trkpt><trkpt lat="39.47590672339988" lon="9.538969808878846"><ele>43.0</ele><time>2026-04-11T07:06:26Z</time></trkpt><trkpt lat="39.475867518830846" lon="9.53876708012782"><ele>43.0</ele><time>2026-04-11T07:06:27Z</time></trkpt><trkpt lat="39.47581322402251" lon="9.538560575616774"><ele>43.0</ele><time>2026-04-11T07:06:28Z</time></trkpt><trkpt lat="39.47574667100683" lon="9.538351416689324"><ele>40.66666666666667</ele><time>2026-04-11T07:06:29Z</time></trkpt><trkpt lat="39.47567867132495" lon="9.538135393511169"><ele>38.333333333333336</ele><time>2026-04-11T07:06:30Z</time></trkpt><trkpt lat="39.475606491935785" lon="9.537911972665674"><ele>36.0</ele><time>2026-04-11T07:06:31Z</time></trkpt><trkpt lat="39.47552918527224" lon="9.537687821376952"><ele>39.666666666666664</ele><time>2026-04-11T07:06:32Z</time></trkpt><trkpt lat="39.47544367640908" lon="9.537469041038754"><ele>43.33333333333333</ele><time>2026-04-11T07:06:33Z</time></trkpt><trkpt lat="39.47534768011896" lon="9.537255512580803"><ele>47.0</ele><time>2026-04-11T07:06:34Z</time></trkpt><trkpt lat="39.47526052651445" lon="9.537035581690036"><ele>47.0</ele><time>2026-04-11T07:06:35Z</time></trkpt><trkpt lat="39.4751888235222" lon="9.53680660739721"><ele>47.0</ele><time>2026-04-11T07:06:36Z</time></trkpt><trkpt lat="39.47513690462045" lon="9.536565337004376"><ele>47.0</ele><time>2026-04-11T07:06:37Z</time></trkpt><trkpt lat="39.47511096118381" lon="9.536321156587924"><ele>46.0</ele><time>2026-04-11T07:06:38Z</time></trkpt><trkpt lat="39.47509857824543" lon="9.53607486786151"><ele>45.0</ele><time>2026-04-11T07:06:39Z</time></trkpt><trkpt lat="39.475096876928966" lon="9.535830881027959"><ele>44.0</ele><time>2026-04-11T07:06:40Z</time></trkpt><trkpt lat="39.47511582619268" lon="9.535589493430697"><ele>44.33333333333333</ele><time>2026-04-11T07:06:41Z</time></trkpt><trkpt lat="39.47514957990333" lon="9.53535027813125"><ele>44.666666666666664</ele><time>2026-04-11T07:06:42Z</time></trkpt><trkpt lat="39.47518808664697" lon="9.535112020251882"><ele>45.0</ele><time>2026-04-11T07:06:43Z</time></trkpt><trkpt lat="39.47524147875216" lon="9.534881706230054"><ele>45.0</ele><time>2026-04-11T07:06:44Z</time></trkpt><trkpt lat="39.47531717804845" lon="9.53466171751828"><ele>45.0</ele><time>2026-04-11T07:06:45Z</time></trkpt><trkpt lat="39.47539960895998" lon="9.534442346159928"><ele>45.0</ele><time>2026-04-11T07:06:46Z</time></trkpt><trkpt lat="39.47547413999244" lon="9.5342215958817"><ele>41.333333333333336</ele><time>2026-04-11T07:06:47Z</time></trkpt><trkpt lat="39.47554779068186" lon="9.534002149472494"><ele>37.66666666666667</ele><time>2026-04-11T07:06:48Z</time></trkpt><trkpt lat="39.475622663946204" lon="9.533779086197134"><ele>34.0</ele><time>2026-04-11T07:06:49Z</time></trkpt><trkpt lat="39.47569706103855" lon="9.533559157137407"><ele>34.0</ele><time>2026-04-11T07:06:50Z</time></trkpt><trkpt lat="39.47577283726034" lon="9.533339537086249"><ele>34.0</ele><time>2026-04-11T07:06:51Z</time></trkpt><trkpt lat="39.47585005336607" lon="9.533120897300575"><ele>34.0</ele><time>2026-04-11T07:06:52Z</time></trkpt><trkpt lat="39.475927431151675" lon="9.532899572879614"><ele>36.333333333333336</ele><time>2026-04-11T07:06:53Z</time></trkpt><trkpt lat="39.476001814566395" lon="9.532676302450405"><ele>38.666666666666664</ele><time>2026-04-11T07:06:54Z</time></trkpt><trkpt lat="39.47607806682674" lon="9.532453220064413"><ele>41.0</ele><time>2026-04-11T07:06:55Z</time></trkpt><trkpt lat="39.47615689887317" lon="9.532228954643767"><ele>42.0</ele><time>2026-04-11T07:06:56Z</time></trkpt><trkpt lat="39.47623830801401" lon="9.53200107629564"><ele>43.0</ele><time>2026-04-11T07:06:57Z</time></trkpt><trkpt lat="39.476319375775006" lon="9.53177292103803"><ele>44.0</ele><time>2026-04-11T07:06:58Z</time></trkpt><trkpt lat="39.4763961002447" lon="9.53154085384562"><ele>38.0</ele><time>2026-04-11T07:06:59Z</time></trkpt><trkpt lat="39.47646602765669" lon="9.531303899834052"><ele>32.0</ele><time>2026-04-11T07:07:00Z</time></trkpt><trkpt lat="39.47652730293434" lon="9.531059222306459"><ele>26.0</ele><time>2026-04-11T07:07:01Z</time></trkpt><trkpt lat="39.47657859664808" lon="9.530809021524293"><ele>26.0</ele><time>2026-04-11T07:07:02Z</time></trkpt><trkpt lat="39.47661750712612" lon="9.530554583337713"><ele>26.0</ele><time>2026-04-11T07:07:03Z</time></trkpt><trkpt lat="39.476650945934104" lon="9.530298135894943"><ele>26.0</ele><time>2026-04-11T07:07:04Z</time></trkpt><trkpt lat="39.4766835495874" lon="9.530046384484686"><ele>27.333333333333332</ele><time>2026-04-11T07:07:05Z</time></trkpt><trkpt lat="39.47671637901483" lon="9.529796397372186"><ele>28.666666666666664</ele><time>2026-04-11T07:07:06Z</time></trkpt><trkpt lat="39.476748434231126" lon="9.52954767391399"><ele>30.0</ele><time>2026-04-11T07:07:07Z</time></trkpt><trkpt lat="39.476777195895394" lon="9.529303793161144"><ele>34.0</ele><time>2026-04-11T07:07:08Z</time></trkpt><trkpt lat="39.47679896012235" lon="9.529058036749305"><ele>38.0</ele><time>2026-04-11T07:07:09Z</time></trkpt><trkpt lat="39.47681984421384" lon="9.528816232799349"><ele>42.0</ele><time>2026-04-11T07:07:10Z</time></trkpt><trkpt lat="39.4768427300587" lon="9.528575053846483"><ele>45.0</ele><time>2026-04-11T07:07:11Z</time></trkpt><trkpt lat="39.47687536972236" lon="9.52833811579528"><ele>48.0</ele><time>2026-04-11T07:07:12Z</time></trkpt><trkpt lat="39.47691328030975" lon="9.52810189355306"><ele>51.0</ele><time>2026-04-11T07:07:13Z</time></trkpt><trkpt lat="39.47694939645742" lon="9.527863098118965"><ele>53.33333333333333</ele><time>2026-04-11T07:07:14Z</time></trkpt><trkpt lat="39.4769865107897" lon="9.527628162289062"><ele>55.666666666666664</ele><time>2026-04-11T07:07:15Z</time></trkpt><trkpt lat="39.47701895626814" lon="9.527391211397033"><ele>58.0</ele><time>2026-04-11T07:07:16Z</time></trkpt><trkpt lat="39.4770366200198" lon="9.527151726251123"><ele>58.33333333333333</ele><time>2026-04-11T07:07:17Z</time></trkpt><trkpt lat="39.47703828961703" lon="9.526909379636018"><ele>58.66666666666667</ele><time>2026-04-11T07:07:18Z</time></trkpt><trkpt lat="39.47703885570156" lon="9.5266641590984"><ele>59.0</ele><time>2026-04-11T07:07:19Z</time></trkpt><trkpt lat="39.477048759946484" lon="9.52642590708151"><ele>57.333333333333336</ele><time>2026-04-11T07:07:20Z</time></trkpt><trkpt lat="39.477059901711975" lon="9.526180505246794"><ele>55.66666666666667</ele><time>2026-04-11T07:07:21Z</time></trkpt><trkpt lat="39.47707251692454" lon="9.525937797283508"><ele>54.0</ele><time>2026-04-11T07:07:22Z</time></trkpt><trkpt lat="39.47709150350024" lon="9.525695811415817"><ele>45.0</ele><time>2026-04-11T07:07:23Z</time></trkpt><trkpt lat="39.47712689806551" lon="9.525455252616922"><ele>36.0</ele><time>2026-04-11T07:07:24Z</time></trkpt><trkpt lat="39.4771809926284" lon="9.525221975235644"><ele>27.0</ele><time>2026-04-11T07:07:25Z</time></trkpt><trkpt lat="39.47724485028909" lon="9.524990788569605"><ele>27.0</ele><time>2026-04-11T07:07:26Z</time></trkpt><trkpt lat="39.47732004388983" lon="9.524763331456228"><ele>27.0</ele><time>2026-04-11T07:07:27Z</time></trkpt><trkpt lat="39.47739702485158" lon="9.524540835826874"><ele>27.0</ele><time>2026-04-11T07:07:28Z</time></trkpt><trkpt lat="39.47747554026354" lon="9.524316796061521"><ele>32.666666666666664</ele><time>2026-04-11T07:07:29Z</time></trkpt><trkpt lat="39.47755185443396" lon="9.524091530232022"><ele>38.33333333333333</ele><time>2026-04-11T07:07:30Z</time></trkpt><trkpt lat="39.477621796604524" lon="9.523867781445254"><ele>44.0</ele><time>2026-04-11T07:07:31Z</time></trkpt><trkpt lat="39.47768543635015" lon="9.523639878718507"><ele>50.33333333333333</ele><time>2026-04-11T07:07:32Z</time></trkpt><trkpt lat="39.477742348147274" lon="9.523408762808046"><ele>56.666666666666664</ele><time>2026-04-11T07:07:33Z</time></trkpt><trkpt lat="39.47779782813627" lon="9.523180118763275"><ele>63.0</ele><time>2026-04-11T07:07:34Z</time></trkpt><trkpt lat="39.4778564109477" lon="9.522949023622067"><ele>67.33333333333333</ele><time>2026-04-11T07:07:35Z</time></trkpt><trkpt lat="39.477919660613956" lon="9.522721253463029"><ele>71.66666666666666</ele><time>2026-04-11T07:07:36Z</time></trkpt><trkpt lat="39.47798740831607" lon="9.522495835263518"><ele>76.0</ele><time>2026-04-11T07:07:37Z</time></trkpt><trkpt lat="39.478056542973135" lon="9.522270447260999"><ele>62.33333333333333</ele><time>2026-04-11T07:07:38Z</time></trkpt><trkpt lat="39.47812416910817" lon="9.522041193077078"><ele>48.666666666666664</ele><time>2026-04-11T07:07:39Z</time></trkpt><trkpt lat="39.478187068464" lon="9.521810010963858"><ele>35.0</ele><time>2026-04-11T07:07:40Z</time></trkpt><trkpt lat="39.47824630956311" lon="9.521577692593866"><ele>35.0</ele><time>2026-04-11T07:07:41Z</time></trkpt><trkpt lat="39.47831061250227" lon="9.52134531547455"><ele>35.0</ele><time>2026-04-11T07:07:42Z</time></trkpt><trkpt lat="39.478394282784855" lon="9.521124533454513"><ele>35.0</ele><time>2026-04-11T07:07:43Z</time></trkpt><trkpt lat="39.478508712394046" lon="9.52092199743056"><ele>33.33333333333333</ele><time>2026-04-11T07:07:44Z</time></trkpt><trkpt lat="39.4786370791376" lon="9.520742200222859"><ele>31.666666666666664</ele><time>2026-04-11T07:07:45Z</time></trkpt><trkpt lat="39.47876637032774" lon="9.520565580750644"><ele>30.0</ele><time>2026-04-11T07:07:46Z</time></trkpt><trkpt lat="39.4788887573976" lon="9.520376170707294"><ele>30.0</ele><time>2026-04-11T07:07:47Z</time></trkpt><trkpt lat="39.478998986205376" lon="9.520169652461801"><ele>30.0</ele><time>2026-04-11T07:07:48Z</time></trkpt><trkpt lat="39.479092231133265" lon="9.519948809780296"><ele>30.0</ele><time>2026-04-11T07:07:49Z</time></trkpt><trkpt lat="39.4791665275339" lon="9.519715380349322"><ele>29.333333333333336</ele><time>2026-04-11T07:07:50Z</time></trkpt><trkpt lat="39.47922937379142" lon="9.51947347841252"><ele>28.666666666666668</ele><time>2026-04-11T07:07:51Z</time></trkpt><trkpt lat="39.47928945094865" lon="9.519228557905722"><ele>28.0</ele><time>2026-04-11T07:07:52Z</time></trkpt><trkpt lat="39.47934757107867" lon="9.518984290418075"><ele>28.0</ele><time>2026-04-11T07:07:53Z</time></trkpt><trkpt lat="39.4794065674859" lon="9.518741335810505"><ele>28.0</ele><time>2026-04-11T07:07:54Z</time></trkpt><trkpt lat="39.47946790472513" lon="9.518500670448919"><ele>28.0</ele><time>2026-04-11T07:07:55Z</time></trkpt><trkpt lat="39.47952926535913" lon="9.518260689096367"><ele>28.0</ele><time>2026-04-11T07:07:56Z</time></trkpt><trkpt lat="39.479590064014054" lon="9.518019906033304"><ele>28.0</ele><time>2026-04-11T07:07:57Z</time></trkpt><trkpt lat="39.47965128849695" lon="9.51778153893708"><ele>28.0</ele><time>2026-04-11T07:07:58Z</time></trkpt><trkpt lat="39.47971994884458" lon="9.517547671000274"><ele>26.666666666666668</ele><time>2026-04-11T07:07:59Z</time></trkpt><trkpt lat="39.479797931957776" lon="9.517319835235352"><ele>25.333333333333336</ele><time>2026-04-11T07:08:00Z</time></trkpt><trkpt lat="39.47988419143702" lon="9.517097952754492"><ele>24.0</ele><time>2026-04-11T07:08:01Z</time></trkpt><trkpt lat="39.47997363166498" lon="9.516876727414582"><ele>27.333333333333336</ele><time>2026-04-11T07:08:02Z</time></trkpt><trkpt lat="39.48006317383081" lon="9.516656229800077"><ele>30.666666666666668</ele><time>2026-04-11T07:08:03Z</time></trkpt><trkpt lat="39.48015476116543" lon="9.516439476737494"><ele>34.0</ele><time>2026-04-11T07:08:04Z</time></trkpt><trkpt lat="39.48024425923341" lon="9.51622276135374"><ele>37.0</ele><time>2026-04-11T07:08:05Z</time></trkpt><trkpt lat="39.48031681111738" lon="9.515997543926364"><ele>40.0</ele><time>2026-04-11T07:08:06Z</time></trkpt><trkpt lat="39.48036933495215" lon="9.515759727538262"><ele>43.0</ele><time>2026-04-11T07:08:07Z</time></trkpt><trkpt lat="39.48040338946204" lon="9.515510971661413"><ele>45.66666666666667</ele><time>2026-04-11T07:08:08Z</time></trkpt><trkpt lat="39.48042832746265" lon="9.515269746438198"><ele>48.333333333333336</ele><time>2026-04-11T07:08:09Z</time></trkpt><trkpt lat="39.48045221150554" lon="9.515023671686228"><ele>51.0</ele><time>2026-04-11T07:08:10Z</time></trkpt><trkpt lat="39.48047461296278" lon="9.514776985738488"><ele>43.0</ele><time>2026-04-11T07:08:11Z</time></trkpt><trkpt lat="39.48049123313144" lon="9.51453147531596"><ele>35.0</ele><time>2026-04-11T07:08:12Z</time></trkpt><trkpt lat="39.4804962986223" lon="9.51428190356016"><ele>27.0</ele><time>2026-04-11T07:08:13Z</time></trkpt><trkpt lat="39.480483012662376" lon="9.514031932884079"><ele>27.0</ele><time>2026-04-11T07:08:14Z</time></trkpt><trkpt lat="39.48046585182355" lon="9.513783837616975"><ele>27.0</ele><time>2026-04-11T07:08:15Z</time></trkpt><trkpt lat="39.4804501022592" lon="9.513534566065422"><ele>27.0</ele><time>2026-04-11T07:08:16Z</time></trkpt><trkpt lat="39.480436599602676" lon="9.51328498727825"><ele>35.0</ele><time>2026-04-11T07:08:17Z</time></trkpt><trkpt lat="39.48042144064527" lon="9.513036335333398"><ele>43.0</ele><time>2026-04-11T07:08:18Z</time></trkpt><trkpt lat="39.48040508018629" lon="9.512788748527893"><ele>51.0</ele><time>2026-04-11T07:08:19Z</time></trkpt><trkpt lat="39.48038794179191" lon="9.512543059026516"><ele>51.33333333333333</ele><time>2026-04-11T07:08:20Z</time></trkpt><trkpt lat="39.48037077093458" lon="9.512298860376955"><ele>51.666666666666664</ele><time>2026-04-11T07:08:21Z</time></trkpt><trkpt lat="39.4803445612067" lon="9.512060644531271"><ele>52.0</ele><time>2026-04-11T07:08:22Z</time></trkpt><trkpt lat="39.480289172549156" lon="9.511827117251439"><ele>51.0</ele><time>2026-04-11T07:08:23Z</time></trkpt><trkpt lat="39.48020885538531" lon="9.511610112535573"><ele>50.0</ele><time>2026-04-11T07:08:24Z</time></trkpt><trkpt lat="39.480119824324696" lon="9.51139688715588"><ele>49.0</ele><time>2026-04-11T07:08:25Z</time></trkpt><trkpt lat="39.48003848756213" lon="9.511178017695318"><ele>43.0</ele><time>2026-04-11T07:08:26Z</time></trkpt><trkpt lat="39.47995580999908" lon="9.510958498760802"><ele>37.0</ele><time>2026-04-11T07:08:27Z</time></trkpt><trkpt lat="39.479867133387806" lon="9.510742537953206"><ele>31.0</ele><time>2026-04-11T07:08:28Z</time></trkpt><trkpt lat="39.47977324820906" lon="9.510528210485873"><ele>27.666666666666668</ele><time>2026-04-11T07:08:29Z</time></trkpt><trkpt lat="39.479677774211446" lon="9.510317134281788"><ele>24.333333333333336</ele><time>2026-04-11T07:08:30Z</time></trkpt><trkpt lat="39.47958467959609" lon="9.510101337444102"><ele>21.0</ele><time>2026-04-11T07:08:31Z</time></trkpt><trkpt lat="39.479505056848225" lon="9.509874334995414"><ele>24.0</ele><time>2026-04-11T07:08:32Z</time></trkpt><trkpt lat="39.479437769237315" lon="9.50963436114357"><ele>27.0</ele><time>2026-04-11T07:08:33Z</time></trkpt><trkpt lat="39.47937859579805" lon="9.50938587679277"><ele>30.0</ele><time>2026-04-11T07:08:34Z</time></trkpt><trkpt lat="39.47932404503321" lon="9.509130423467024"><ele>30.0</ele><time>2026-04-11T07:08:35Z</time></trkpt><trkpt lat="39.47927531493285" lon="9.508871726485474"><ele>30.0</ele><time>2026-04-11T07:08:36Z</time></trkpt><trkpt lat="39.479230229970796" lon="9.508611334766705"><ele>30.0</ele><time>2026-04-11T07:08:37Z</time></trkpt><trkpt lat="39.479187536457395" lon="9.508351198071317"><ele>32.0</ele><time>2026-04-11T07:08:38Z</time></trkpt><trkpt lat="39.4791493811176" lon="9.508092376094176"><ele>34.0</ele><time>2026-04-11T07:08:39Z</time></trkpt><trkpt lat="39.47910958980678" lon="9.50783671734535"><ele>36.0</ele><time>2026-04-11T07:08:40Z</time></trkpt><trkpt lat="39.47906772701844" lon="9.507585789643583"><ele>36.666666666666664</ele><time>2026-04-11T07:08:41Z</time></trkpt><trkpt lat="39.47902601498104" lon="9.5073376950626"><ele>37.33333333333333</ele><time>2026-04-11T07:08:42Z</time></trkpt><trkpt lat="39.47898647039416" lon="9.50709310222108"><ele>38.0</ele><time>2026-04-11T07:08:43Z</time></trkpt><trkpt lat="39.47895067088056" lon="9.506848452645903"><ele>39.0</ele><time>2026-04-11T07:08:44Z</time></trkpt><trkpt lat="39.47892088898336" lon="9.506606536692187"><ele>40.0</ele><time>2026-04-11T07:08:45Z</time></trkpt><trkpt lat="39.47889743591973" lon="9.50636424006089"><ele>41.0</ele><time>2026-04-11T07:08:46Z</time></trkpt><trkpt lat="39.47887983924862" lon="9.506122633631984"><ele>41.666666666666664</ele><time>2026-04-11T07:08:47Z</time></trkpt><trkpt lat="39.47886718263796" lon="9.50587928190893"><ele>42.333333333333336</ele><time>2026-04-11T07:08:48Z</time></trkpt><trkpt lat="39.47885314723371" lon="9.505633236818298"><ele>43.0</ele><time>2026-04-11T07:08:49Z</time></trkpt><trkpt lat="39.47883662127811" lon="9.505389100143999"><ele>41.66666666666667</ele><time>2026-04-11T07:08:50Z</time></trkpt><trkpt lat="39.47881994141201" lon="9.505144219944086"><ele>40.333333333333336</ele><time>2026-04-11T07:08:51Z</time></trkpt><trkpt lat="39.47880359345143" lon="9.504898969410435"><ele>39.0</ele><time>2026-04-11T07:08:52Z</time></trkpt><trkpt lat="39.478790109891285" lon="9.504652402411182"><ele>37.0</ele><time>2026-04-11T07:08:53Z</time></trkpt><trkpt lat="39.47877723595612" lon="9.504402824530827"><ele>35.0</ele><time>2026-04-11T07:08:54Z</time></trkpt><trkpt lat="39.47876178311784" lon="9.50415496838577"><ele>33.0</ele><time>2026-04-11T07:08:55Z</time></trkpt><trkpt lat="39.47874322764589" lon="9.503905872412043"><ele>40.66666666666667</ele><time>2026-04-11T07:08:56Z</time></trkpt><trkpt lat="39.478732291597105" lon="9.503657914539122"><ele>48.333333333333336</ele><time>2026-04-11T07:08:57Z</time></trkpt><trkpt lat="39.478734726639026" lon="9.50340844083904"><ele>56.0</ele><time>2026-04-11T07:08:58Z</time></trkpt><trkpt lat="39.47875121682248" lon="9.503157282081188"><ele>48.66666666666667</ele><time>2026-04-11T07:08:59Z</time></trkpt><trkpt lat="39.47878261049783" lon="9.502907893247926"><ele>41.333333333333336</ele><time>2026-04-11T07:09:00Z</time></trkpt><trkpt lat="39.47883022992948" lon="9.502660595171633"><ele>34.0</ele><time>2026-04-11T07:09:01Z</time></trkpt><trkpt lat="39.478891389817264" lon="9.502418558616464"><ele>34.0</ele><time>2026-04-11T07:09:02Z</time></trkpt><trkpt lat="39.47897565079743" lon="9.502188590893157"><ele>34.0</ele><time>2026-04-11T07:09:03Z</time></trkpt><trkpt lat="39.479061242795986" lon="9.501960709899668"><ele>34.0</ele><time>2026-04-11T07:09:04Z</time></trkpt><trkpt lat="39.479146014760005" lon="9.501731751188931"><ele>35.66666666666667</ele><time>2026-04-11T07:09:05Z</time></trkpt><trkpt lat="39.47923039731711" lon="9.501504731754414"><ele>37.333333333333336</ele><time>2026-04-11T07:09:06Z</time></trkpt><trkpt lat="39.47931574606614" lon="9.501276919121494"><ele>39.0</ele><time>2026-04-11T07:09:07Z</time></trkpt><trkpt lat="39.479400862077135" lon="9.501046921408514"><ele>40.333333333333336</ele><time>2026-04-11T07:09:08Z</time></trkpt><trkpt lat="39.479484991972164" lon="9.5008181675622"><ele>41.66666666666667</ele><time>2026-04-11T07:09:09Z</time></trkpt><trkpt lat="39.47956589215124" lon="9.500585066337335"><ele>43.0</ele><time>2026-04-11T07:09:10Z</time></trkpt><trkpt lat="39.479637587260875" lon="9.50034971586788"><ele>40.0</ele><time>2026-04-11T07:09:11Z</time></trkpt><trkpt lat="39.47969260535612" lon="9.500101436817102"><ele>37.0</ele><time>2026-04-11T07:09:12Z</time></trkpt><trkpt lat="39.47972532112041" lon="9.49984620771959"><ele>34.0</ele><time>2026-04-11T07:09:13Z</time></trkpt><trkpt lat="39.479732862210184" lon="9.49958510171587"><ele>35.0</ele><time>2026-04-11T07:09:14Z</time></trkpt><trkpt lat="39.47972014347509" lon="9.499322037518695"><ele>36.0</ele><time>2026-04-11T07:09:15Z</time></trkpt><trkpt lat="39.479698288603146" lon="9.499060150432593"><ele>37.0</ele><time>2026-04-11T07:09:16Z</time></trkpt><trkpt lat="39.47967699640204" lon="9.498797949752383"><ele>36.66666666666667</ele><time>2026-04-11T07:09:17Z</time></trkpt><trkpt lat="39.47965477211327" lon="9.4985341968628"><ele>36.333333333333336</ele><time>2026-04-11T07:09:18Z</time></trkpt><trkpt lat="39.479639723558655" lon="9.498272804990018"><ele>36.0</ele><time>2026-04-11T07:09:19Z</time></trkpt><trkpt lat="39.47963863637459" lon="9.49801280242345"><ele>36.333333333333336</ele><time>2026-04-11T07:09:20Z</time></trkpt><trkpt lat="39.47964432874784" lon="9.497754927251574"><ele>36.66666666666667</ele><time>2026-04-11T07:09:21Z</time></trkpt><trkpt lat="39.47965382843197" lon="9.497498685417696"><ele>37.0</ele><time>2026-04-11T07:09:22Z</time></trkpt><trkpt lat="39.479669867214476" lon="9.497246629738463"><ele>37.66666666666667</ele><time>2026-04-11T07:09:23Z</time></trkpt><trkpt lat="39.479691159317696" lon="9.496995047113716"><ele>38.333333333333336</ele><time>2026-04-11T07:09:24Z</time></trkpt><trkpt lat="39.47971263578098" lon="9.496744278973903"><ele>39.0</ele><time>2026-04-11T07:09:25Z</time></trkpt><trkpt lat="39.47973395498191" lon="9.49649302637524"><ele>40.333333333333336</ele><time>2026-04-11T07:09:26Z</time></trkpt><trkpt lat="39.47975434874216" lon="9.496242287458099"><ele>41.66666666666667</ele><time>2026-04-11T07:09:27Z</time></trkpt><trkpt lat="39.4797746734461" lon="9.495989780177155"><ele>43.0</ele><time>2026-04-11T07:09:28Z</time></trkpt><trkpt lat="39.47979516684392" lon="9.495737272285506"><ele>43.0</ele><time>2026-04-11T07:09:29Z</time></trkpt><trkpt lat="39.47981710255839" lon="9.49548663474562"><ele>43.0</ele><time>2026-04-11T07:09:30Z</time></trkpt><trkpt lat="39.47984004083599" lon="9.495234767023458"><ele>43.0</ele><time>2026-04-11T07:09:31Z</time></trkpt><trkpt lat="39.47986359631439" lon="9.494984695134852"><ele>43.66666666666667</ele><time>2026-04-11T07:09:32Z</time></trkpt><trkpt lat="39.47988805011254" lon="9.494735943172861"><ele>44.333333333333336</ele><time>2026-04-11T07:09:33Z</time></trkpt><trkpt lat="39.479911443930106" lon="9.494485864048285"><ele>45.0</ele><time>2026-04-11T07:09:34Z</time></trkpt><trkpt lat="39.47993137629396" lon="9.494237131821418"><ele>45.666666666666664</ele><time>2026-04-11T07:09:35Z</time></trkpt><trkpt lat="39.479947728229874" lon="9.493990516161055"><ele>46.33333333333333</ele><time>2026-04-11T07:09:36Z</time></trkpt><trkpt lat="39.47995699468923" lon="9.493741618149105"><ele>47.0</ele><time>2026-04-11T07:09:37Z</time></trkpt><trkpt lat="39.47996022559431" lon="9.493492154022306"><ele>48.0</ele><time>2026-04-11T07:09:38Z</time></trkpt><trkpt lat="39.479948337185085" lon="9.493243303650752"><ele>49.0</ele><time>2026-04-11T07:09:39Z</time></trkpt><trkpt lat="39.479904917107" lon="9.492995582501747"><ele>50.0</ele><time>2026-04-11T07:09:40Z</time></trkpt><trkpt lat="39.47984884869693" lon="9.492750175931894"><ele>50.0</ele><time>2026-04-11T07:09:41Z</time></trkpt><trkpt lat="39.47978557009957" lon="9.492514066957188"><ele>50.0</ele><time>2026-04-11T07:09:42Z</time></trkpt><trkpt lat="39.4797369163711" lon="9.492265707342186"><ele>50.0</ele><time>2026-04-11T07:09:43Z</time></trkpt><trkpt lat="39.47966886435873" lon="9.492027940532948"><ele>51.0</ele><time>2026-04-11T07:09:44Z</time></trkpt><trkpt lat="39.47958911581457" lon="9.491796705817228"><ele>52.0</ele><time>2026-04-11T07:09:45Z</time></trkpt><trkpt lat="39.47953752040311" lon="9.491554231596158"><ele>53.0</ele><time>2026-04-11T07:09:46Z</time></trkpt><trkpt lat="39.479498407130585" lon="9.491311442065056"><ele>50.0</ele><time>2026-04-11T07:09:47Z</time></trkpt><trkpt lat="39.47946998113941" lon="9.491071447830295"><ele>47.0</ele><time>2026-04-11T07:09:48Z</time></trkpt><trkpt lat="39.47945523057158" lon="9.490829472393353"><ele>44.0</ele><time>2026-04-11T07:09:49Z</time></trkpt><trkpt lat="39.479463686303134" lon="9.49058949623108"><ele>44.33333333333333</ele><time>2026-04-11T07:09:50Z</time></trkpt><trkpt lat="39.47949692943858" lon="9.490352136066983"><ele>44.666666666666664</ele><time>2026-04-11T07:09:51Z</time></trkpt><trkpt lat="39.47955000616628" lon="9.490120300417018"><ele>45.0</ele><time>2026-04-11T07:09:52Z</time></trkpt><trkpt lat="39.479618786287254" lon="9.489893039988834"><ele>45.0</ele><time>2026-04-11T07:09:53Z</time></trkpt><trkpt lat="39.47970405860643" lon="9.489673156860132"><ele>45.0</ele><time>2026-04-11T07:09:54Z</time></trkpt><trkpt lat="39.479808767373605" lon="9.489466199864562"><ele>45.0</ele><time>2026-04-11T07:09:55Z</time></trkpt><trkpt lat="39.479927603983086" lon="9.489271047901708"><ele>49.0</ele><time>2026-04-11T07:09:56Z</time></trkpt><trkpt lat="39.48005384758344" lon="9.48907948050566"><ele>53.0</ele><time>2026-04-11T07:09:57Z</time></trkpt><trkpt lat="39.480178670768474" lon="9.488889070325186"><ele>57.0</ele><time>2026-04-11T07:09:58Z</time></trkpt><trkpt lat="39.4803028517095" lon="9.488694160053603"><ele>54.0</ele><time>2026-04-11T07:09:59Z</time></trkpt><trkpt lat="39.48042442300961" lon="9.488497781067716"><ele>51.0</ele><time>2026-04-11T07:10:00Z</time></trkpt><trkpt lat="39.48054136387579" lon="9.488296202134382"><ele>48.0</ele><time>2026-04-11T07:10:01Z</time></trkpt><trkpt lat="39.48064692347107" lon="9.488085362621794"><ele>50.33333333333333</ele><time>2026-04-11T07:10:02Z</time></trkpt><trkpt lat="39.48073568116692" lon="9.487865892604798"><ele>52.666666666666664</ele><time>2026-04-11T07:10:03Z</time></trkpt><trkpt lat="39.48081564478979" lon="9.487638154559422"><ele>55.0</ele><time>2026-04-11T07:10:04Z</time></trkpt><trkpt lat="39.48088419521905" lon="9.487403718232848"><ele>55.0</ele><time>2026-04-11T07:10:05Z</time></trkpt><trkpt lat="39.48093656586963" lon="9.487160725370515"><ele>55.0</ele><time>2026-04-11T07:10:06Z</time></trkpt><trkpt lat="39.48097462913029" lon="9.486914113159347"><ele>55.0</ele><time>2026-04-11T07:10:07Z</time></trkpt><trkpt lat="39.48100786406041" lon="9.48666694933106"><ele>58.33333333333333</ele><time>2026-04-11T07:10:08Z</time></trkpt><trkpt lat="39.481044801801886" lon="9.48641972717738"><ele>61.66666666666667</ele><time>2026-04-11T07:10:09Z</time></trkpt><trkpt lat="39.48108868022918" lon="9.486174720546188"><ele>65.0</ele><time>2026-04-11T07:10:10Z</time></trkpt><trkpt lat="39.481147182680125" lon="9.485937054868554"><ele>67.33333333333334</ele><time>2026-04-11T07:10:11Z</time></trkpt><trkpt lat="39.48122307887764" lon="9.485705717736963"><ele>69.66666666666667</ele><time>2026-04-11T07:10:12Z</time></trkpt><trkpt lat="39.481310738825165" lon="9.485481706969187"><ele>72.0</ele><time>2026-04-11T07:10:13Z</time></trkpt><trkpt lat="39.481403706591806" lon="9.485258714487989"><ele>67.33333333333333</ele><time>2026-04-11T07:10:14Z</time></trkpt><trkpt lat="39.48150482881246" lon="9.485042658918356"><ele>62.666666666666664</ele><time>2026-04-11T07:10:15Z</time></trkpt><trkpt lat="39.48162048905292" lon="9.48483919560009"><ele>58.0</ele><time>2026-04-11T07:10:16Z</time></trkpt><trkpt lat="39.48175166313266" lon="9.48465264669931"><ele>57.33333333333333</ele><time>2026-04-11T07:10:17Z</time></trkpt><trkpt lat="39.48189198762924" lon="9.484475415157142"><ele>56.66666666666667</ele><time>2026-04-11T07:10:18Z</time></trkpt><trkpt lat="39.482045454138586" lon="9.484318996123456"><ele>56.0</ele><time>2026-04-11T07:10:19Z</time></trkpt><trkpt lat="39.48220434629539" lon="9.484176840833122"><ele>56.0</ele><time>2026-04-11T07:10:20Z</time></trkpt><trkpt lat="39.482370521305626" lon="9.484045893861959"><ele>56.0</ele><time>2026-04-11T07:10:21Z</time></trkpt><trkpt lat="39.48253931543687" lon="9.483919769403705"><ele>56.0</ele><time>2026-04-11T07:10:22Z</time></trkpt><trkpt lat="39.482709789693686" lon="9.483796103548745"><ele>58.66666666666667</ele><time>2026-04-11T07:10:23Z</time></trkpt><trkpt lat="39.48287861136877" lon="9.48366954916867"><ele>61.33333333333333</ele><time>2026-04-11T07:10:24Z</time></trkpt><trkpt lat="39.483044367347595" lon="9.483537000868578"><ele>64.0</ele><time>2026-04-11T07:10:25Z</time></trkpt><trkpt lat="39.48320558930408" lon="9.483398515590345"><ele>64.0</ele><time>2026-04-11T07:10:26Z</time></trkpt><trkpt lat="39.48335507133178" lon="9.483248850437482"><ele>64.0</ele><time>2026-04-11T07:10:27Z</time></trkpt><trkpt lat="39.48349363706924" lon="9.483085180762256"><ele>64.0</ele><time>2026-04-11T07:10:28Z</time></trkpt><trkpt lat="39.483634437421586" lon="9.4829304224839"><ele>60.0</ele><time>2026-04-11T07:10:29Z</time></trkpt><trkpt lat="39.48375741409952" lon="9.482750176869871"><ele>56.0</ele><time>2026-04-11T07:10:30Z</time></trkpt><trkpt lat="39.48386929739711" lon="9.482552082012687"><ele>52.0</ele><time>2026-04-11T07:10:31Z</time></trkpt><trkpt lat="39.483964278772994" lon="9.482344395048237"><ele>52.0</ele><time>2026-04-11T07:10:32Z</time></trkpt><trkpt lat="39.4840472990196" lon="9.482116056806694"><ele>52.0</ele><time>2026-04-11T07:10:33Z</time></trkpt><trkpt lat="39.484114616195335" lon="9.481889955826421"><ele>52.0</ele><time>2026-04-11T07:10:34Z</time></trkpt><trkpt lat="39.484168204442334" lon="9.481656279551432"><ele>58.33333333333333</ele><time>2026-04-11T07:10:35Z</time></trkpt><trkpt lat="39.484206769077886" lon="9.481414955432712"><ele>64.66666666666667</ele><time>2026-04-11T07:10:36Z</time></trkpt><trkpt lat="39.484227084549886" lon="9.481145925217131"><ele>71.0</ele><time>2026-04-11T07:10:37Z</time></trkpt><trkpt lat="39.484231547831584" lon="9.480910991432092"><ele>73.33333333333334</ele><time>2026-04-11T07:10:38Z</time></trkpt><trkpt lat="39.48422317762572" lon="9.480681259902559"><ele>75.66666666666667</ele><time>2026-04-11T07:10:39Z</time></trkpt><trkpt lat="39.484195009613096" lon="9.480442415561775"><ele>78.0</ele><time>2026-04-11T07:10:40Z</time></trkpt><trkpt lat="39.4841520214136" lon="9.480207057017225"><ele>78.0</ele><time>2026-04-11T07:10:41Z</time></trkpt><trkpt lat="39.4840968002406" lon="9.479972802748463"><ele>78.0</ele><time>2026-04-11T07:10:42Z</time></trkpt><trkpt lat="39.48401898932663" lon="9.479752174884363"><ele>78.0</ele><time>2026-04-11T07:10:43Z</time></trkpt><trkpt lat="39.483961665430876" lon="9.479524389842691"><ele>76.0</ele><time>2026-04-11T07:10:44Z</time></trkpt><trkpt lat="39.483898022254806" lon="9.479294904320096"><ele>74.0</ele><time>2026-04-11T07:10:45Z</time></trkpt><trkpt lat="39.48383098258132" lon="9.479066307389491"><ele>72.0</ele><time>2026-04-11T07:10:46Z</time></trkpt><trkpt lat="39.483790789868905" lon="9.478826989422004"><ele>75.66666666666667</ele><time>2026-04-11T07:10:47Z</time></trkpt><trkpt lat="39.48374616432838" lon="9.47859160615131"><ele>79.33333333333334</ele><time>2026-04-11T07:10:48Z</time></trkpt><trkpt lat="39.483716852583065" lon="9.478350525865133"><ele>83.0</ele><time>2026-04-11T07:10:49Z</time></trkpt><trkpt lat="39.483707771524976" lon="9.478106152364786"><ele>84.0</ele><time>2026-04-11T07:10:50Z</time></trkpt><trkpt lat="39.48370236218826" lon="9.47785915341319"><ele>85.0</ele><time>2026-04-11T07:10:51Z</time></trkpt><trkpt lat="39.48373617260727" lon="9.477612810278924"><ele>86.0</ele><time>2026-04-11T07:10:52Z</time></trkpt><trkpt lat="39.48379176701796" lon="9.477370024286168"><ele>83.66666666666667</ele><time>2026-04-11T07:10:53Z</time></trkpt><trkpt lat="39.48386633856435" lon="9.477136690433367"><ele>81.33333333333333</ele><time>2026-04-11T07:10:54Z</time></trkpt><trkpt lat="39.483961039239006" lon="9.476913562417913"><ele>79.0</ele><time>2026-04-11T07:10:55Z</time></trkpt><trkpt lat="39.48406961970097" lon="9.476703507048923"><ele>85.33333333333333</ele><time>2026-04-11T07:10:56Z</time></trkpt><trkpt lat="39.48418587191573" lon="9.476500569988294"><ele>91.66666666666666</ele><time>2026-04-11T07:10:57Z</time></trkpt><trkpt lat="39.48430696755706" lon="9.476298993793474"><ele>98.0</ele><time>2026-04-11T07:10:58Z</time></trkpt><trkpt lat="39.484429375127256" lon="9.476100617037273"><ele>93.66666666666666</ele><time>2026-04-11T07:10:59Z</time></trkpt><trkpt lat="39.4845527137767" lon="9.475903543386147"><ele>89.33333333333333</ele><time>2026-04-11T07:11:00Z</time></trkpt><trkpt lat="39.48467646876401" lon="9.475707754716801"><ele>85.0</ele><time>2026-04-11T07:11:01Z</time></trkpt><trkpt lat="39.48480008723216" lon="9.47551308848529"><ele>92.33333333333333</ele><time>2026-04-11T07:11:02Z</time></trkpt><trkpt lat="39.48492309219481" lon="9.475318992348887"><ele>99.66666666666666</ele><time>2026-04-11T07:11:03Z</time></trkpt><trkpt lat="39.48504595265034" lon="9.475126932085894"><ele>107.0</ele><time>2026-04-11T07:11:04Z</time></trkpt><trkpt lat="39.485167267900465" lon="9.474938060574644"><ele>107.0</ele><time>2026-04-11T07:11:05Z</time></trkpt><trkpt lat="39.48528621335033" lon="9.474750448272017"><ele>107.0</ele><time>2026-04-11T07:11:06Z</time></trkpt><trkpt lat="39.48540170621256" lon="9.474563870277107"><ele>107.0</ele><time>2026-04-11T07:11:07Z</time></trkpt><trkpt lat="39.485508671652674" lon="9.474373901128795"><ele>107.33333333333333</ele><time>2026-04-11T07:11:08Z</time></trkpt><trkpt lat="39.48559008594849" lon="9.474167454204059"><ele>107.66666666666666</ele><time>2026-04-11T07:11:09Z</time></trkpt><trkpt lat="39.48563954063252" lon="9.47394520540852"><ele>108.0</ele><time>2026-04-11T07:11:10Z</time></trkpt><trkpt lat="39.4856597829342" lon="9.47371675893652"><ele>108.0</ele><time>2026-04-11T07:11:11Z</time></trkpt><trkpt lat="39.485656099404814" lon="9.47348518566247"><ele>108.0</ele><time>2026-04-11T07:11:12Z</time></trkpt><trkpt lat="39.48562701612649" lon="9.473256143527516"><ele>108.0</ele><time>2026-04-11T07:11:13Z</time></trkpt><trkpt lat="39.485565527069305" lon="9.47304146321468"><ele>105.33333333333334</ele><time>2026-04-11T07:11:14Z</time></trkpt><trkpt lat="39.4854714029475" lon="9.472846777595793"><ele>102.66666666666667</ele><time>2026-04-11T07:11:15Z</time></trkpt><trkpt lat="39.48535664172188" lon="9.472670421500757"><ele>100.0</ele><time>2026-04-11T07:11:16Z</time></trkpt><trkpt lat="39.48522244177723" lon="9.47252027058652"><ele>100.0</ele><time>2026-04-11T07:11:17Z</time></trkpt><trkpt lat="39.48508216502599" lon="9.472371154951757"><ele>100.0</ele><time>2026-04-11T07:11:18Z</time></trkpt><trkpt lat="39.48496799483333" lon="9.472203347608504"><ele>100.0</ele><time>2026-04-11T07:11:19Z</time></trkpt><trkpt lat="39.484878870005865" lon="9.472004499338917"><ele>96.33333333333334</ele><time>2026-04-11T07:11:20Z</time></trkpt><trkpt lat="39.48484411959955" lon="9.471773905861868"><ele>92.66666666666667</ele><time>2026-04-11T07:11:21Z</time></trkpt><trkpt lat="39.4848325605694" lon="9.471544345896826"><ele>89.0</ele><time>2026-04-11T07:11:22Z</time></trkpt><trkpt lat="39.48485719182273" lon="9.471324596649094"><ele>88.0</ele><time>2026-04-11T07:11:23Z</time></trkpt><trkpt lat="39.48491673519998" lon="9.471111235366475"><ele>87.0</ele><time>2026-04-11T07:11:24Z</time></trkpt><trkpt lat="39.48498005430466" lon="9.470887805531978"><ele>86.0</ele><time>2026-04-11T07:11:25Z</time></trkpt><trkpt lat="39.48506032691709" lon="9.470667073437907"><ele>87.0</ele><time>2026-04-11T07:11:26Z</time></trkpt><trkpt lat="39.485139663081" lon="9.47044079503735"><ele>88.0</ele><time>2026-04-11T07:11:27Z</time></trkpt><trkpt lat="39.4852226559085" lon="9.470213794767625"><ele>89.0</ele><time>2026-04-11T07:11:28Z</time></trkpt><trkpt lat="39.485289809376376" lon="9.469975477241405"><ele>89.0</ele><time>2026-04-11T07:11:29Z</time></trkpt><trkpt lat="39.48533857864332" lon="9.469722190572432"><ele>89.0</ele><time>2026-04-11T07:11:30Z</time></trkpt><trkpt lat="39.48537758516078" lon="9.469465796932772"><ele>89.0</ele><time>2026-04-11T07:11:31Z</time></trkpt><trkpt lat="39.48540365175605" lon="9.469203223473665"><ele>90.66666666666667</ele><time>2026-04-11T07:11:32Z</time></trkpt><trkpt lat="39.48541715315245" lon="9.468935638723297"><ele>92.33333333333333</ele><time>2026-04-11T07:11:33Z</time></trkpt><trkpt lat="39.48542347939794" lon="9.468668098073978"><ele>94.0</ele><time>2026-04-11T07:11:34Z</time></trkpt><trkpt lat="39.48542801849539" lon="9.468396703517952"><ele>85.0</ele><time>2026-04-11T07:11:35Z</time></trkpt><trkpt lat="39.485433327426364" lon="9.468125669348618"><ele>76.0</ele><time>2026-04-11T07:11:36Z</time></trkpt><trkpt lat="39.485437721130374" lon="9.467853784453252"><ele>67.0</ele><time>2026-04-11T07:11:37Z</time></trkpt><trkpt lat="39.485440960676996" lon="9.467584170822281"><ele>67.0</ele><time>2026-04-11T07:11:38Z</time></trkpt><trkpt lat="39.4854359786366" lon="9.46731463928751"><ele>67.0</ele><time>2026-04-11T07:11:39Z</time></trkpt><trkpt lat="39.48541191164135" lon="9.467045590919467"><ele>67.0</ele><time>2026-04-11T07:11:40Z</time></trkpt><trkpt lat="39.4853730357053" lon="9.466779821940541"><ele>65.66666666666666</ele><time>2026-04-11T07:11:41Z</time></trkpt><trkpt lat="39.48534690304879" lon="9.46651155029301"><ele>64.33333333333333</ele><time>2026-04-11T07:11:42Z</time></trkpt><trkpt lat="39.485301439902074" lon="9.466242552865053"><ele>63.0</ele><time>2026-04-11T07:11:43Z</time></trkpt><trkpt lat="39.48525531606879" lon="9.465975897088734"><ele>63.0</ele><time>2026-04-11T07:11:44Z</time></trkpt><trkpt lat="39.485207976689786" lon="9.46570789466288"><ele>63.0</ele><time>2026-04-11T07:11:45Z</time></trkpt><trkpt lat="39.48514543176195" lon="9.465444026036405"><ele>63.0</ele><time>2026-04-11T07:11:46Z</time></trkpt><trkpt lat="39.48510057312533" lon="9.46517459975358"><ele>60.33333333333333</ele><time>2026-04-11T07:11:47Z</time></trkpt><trkpt lat="39.48505467900785" lon="9.464905284112756"><ele>57.666666666666664</ele><time>2026-04-11T07:11:48Z</time></trkpt><trkpt lat="39.48500956317713" lon="9.464635902116626"><ele>55.0</ele><time>2026-04-11T07:11:49Z</time></trkpt><trkpt lat="39.48496323522987" lon="9.464367924839415"><ele>53.33333333333333</ele><time>2026-04-11T07:11:50Z</time></trkpt><trkpt lat="39.484916741442674" lon="9.464101816878152"><ele>51.66666666666667</ele><time>2026-04-11T07:11:51Z</time></trkpt><trkpt lat="39.48487578236775" lon="9.463843991223616"><ele>50.0</ele><time>2026-04-11T07:11:52Z</time></trkpt><trkpt lat="39.48484869853595" lon="9.463593645588205"><ele>48.333333333333336</ele><time>2026-04-11T07:11:53Z</time></trkpt><trkpt lat="39.48484032697907" lon="9.46329758580238"><ele>46.66666666666667</ele><time>2026-04-11T07:11:54Z</time></trkpt><trkpt lat="39.48484522766922" lon="9.463028363111224"><ele>45.0</ele><time>2026-04-11T07:11:55Z</time></trkpt><trkpt lat="39.484860399108044" lon="9.462758790632398"><ele>44.333333333333336</ele><time>2026-04-11T07:11:56Z</time></trkpt><trkpt lat="39.484879133068574" lon="9.462489380613318"><ele>43.66666666666667</ele><time>2026-04-11T07:11:57Z</time></trkpt><trkpt lat="39.48489386882197" lon="9.462220758724769"><ele>43.0</ele><time>2026-04-11T07:11:58Z</time></trkpt><trkpt lat="39.48490594696331" lon="9.461950216911829"><ele>43.66666666666667</ele><time>2026-04-11T07:11:59Z</time></trkpt><trkpt lat="39.484916985004695" lon="9.461680492519168"><ele>44.333333333333336</ele><time>2026-04-11T07:12:00Z</time></trkpt><trkpt lat="39.48492593346997" lon="9.461415846648936"><ele>45.0</ele><time>2026-04-11T07:12:01Z</time></trkpt><trkpt lat="39.48493845149673" lon="9.461152419932457"><ele>45.0</ele><time>2026-04-11T07:12:02Z</time></trkpt><trkpt lat="39.48495719010421" lon="9.460891601072117"><ele>45.0</ele><time>2026-04-11T07:12:03Z</time></trkpt><trkpt lat="39.48498417062065" lon="9.460634000863699"><ele>45.0</ele><time>2026-04-11T07:12:04Z</time></trkpt><trkpt lat="39.48502058920238" lon="9.460384945756422"><ele>46.33333333333333</ele><time>2026-04-11T07:12:05Z</time></trkpt><trkpt lat="39.48507222542229" lon="9.4601436118392"><ele>47.666666666666664</ele><time>2026-04-11T07:12:06Z</time></trkpt><trkpt lat="39.4851422939879" lon="9.4599097030555"><ele>49.0</ele><time>2026-04-11T07:12:07Z</time></trkpt><trkpt lat="39.485224131321196" lon="9.459680264236354"><ele>46.33333333333333</ele><time>2026-04-11T07:12:08Z</time></trkpt><trkpt lat="39.48530511875162" lon="9.459452870454633"><ele>43.666666666666664</ele><time>2026-04-11T07:12:09Z</time></trkpt><trkpt lat="39.48538645673213" lon="9.459222443082957"><ele>41.0</ele><time>2026-04-11T07:12:10Z</time></trkpt><trkpt lat="39.48546728841664" lon="9.458994769588067"><ele>44.0</ele><time>2026-04-11T07:12:11Z</time></trkpt><trkpt lat="39.48554659866121" lon="9.458764876954696"><ele>47.0</ele><time>2026-04-11T07:12:12Z</time></trkpt><trkpt lat="39.48562376482402" lon="9.458534348404273"><ele>50.0</ele><time>2026-04-11T07:12:13Z</time></trkpt><trkpt lat="39.4857049582151" lon="9.458301353450793"><ele>50.0</ele><time>2026-04-11T07:12:14Z</time></trkpt><trkpt lat="39.48578624374879" lon="9.458071807633688"><ele>50.0</ele><time>2026-04-11T07:12:15Z</time></trkpt><trkpt lat="39.48586090445555" lon="9.457840676208075"><ele>50.0</ele><time>2026-04-11T07:12:16Z</time></trkpt><trkpt lat="39.48592102040828" lon="9.457601960479687"><ele>49.0</ele><time>2026-04-11T07:12:17Z</time></trkpt><trkpt lat="39.48596190676404" lon="9.457355513385476"><ele>48.0</ele><time>2026-04-11T07:12:18Z</time></trkpt><trkpt lat="39.48598259037613" lon="9.457102569784977"><ele>47.0</ele><time>2026-04-11T07:12:19Z</time></trkpt><trkpt lat="39.48598813072183" lon="9.456848290101574"><ele>47.0</ele><time>2026-04-11T07:12:20Z</time></trkpt><trkpt lat="39.485981216163026" lon="9.456591221955918"><ele>47.0</ele><time>2026-04-11T07:12:21Z</time></trkpt><trkpt lat="39.48597650015718" lon="9.456331502655146"><ele>47.0</ele><time>2026-04-11T07:12:22Z</time></trkpt><trkpt lat="39.4859700017799" lon="9.456071621243865"><ele>45.33333333333333</ele><time>2026-04-11T07:12:23Z</time></trkpt><trkpt lat="39.48596665148867" lon="9.45581144454009"><ele>43.666666666666664</ele><time>2026-04-11T07:12:24Z</time></trkpt><trkpt lat="39.48596481218221" lon="9.455550080898231"><ele>42.0</ele><time>2026-04-11T07:12:25Z</time></trkpt><trkpt lat="39.48596241747669" lon="9.455285363059128"><ele>42.0</ele><time>2026-04-11T07:12:26Z</time></trkpt><trkpt lat="39.48595907951254" lon="9.45502079443912"><ele>42.0</ele><time>2026-04-11T07:12:27Z</time></trkpt><trkpt lat="39.485953381279295" lon="9.454755531311339"><ele>42.0</ele><time>2026-04-11T07:12:28Z</time></trkpt><trkpt lat="39.48595146434117" lon="9.454490408230122"><ele>41.666666666666664</ele><time>2026-04-11T07:12:29Z</time></trkpt><trkpt lat="39.485963465342216" lon="9.454235444931719"><ele>41.33333333333333</ele><time>2026-04-11T07:12:30Z</time></trkpt><trkpt lat="39.48600746384445" lon="9.454001015936882"><ele>41.0</ele><time>2026-04-11T07:12:31Z</time></trkpt><trkpt lat="39.48607911174874" lon="9.45379033787086"><ele>41.0</ele><time>2026-04-11T07:12:32Z</time></trkpt><trkpt lat="39.48617409149158" lon="9.453578092283887"><ele>41.0</ele><time>2026-04-11T07:12:33Z</time></trkpt><trkpt lat="39.4862889237169" lon="9.45337200829954"><ele>41.0</ele><time>2026-04-11T07:12:34Z</time></trkpt><trkpt lat="39.486427217230236" lon="9.453190785119503"><ele>41.0</ele><time>2026-04-11T07:12:35Z</time></trkpt><trkpt lat="39.486588200568335" lon="9.453042931744793"><ele>41.0</ele><time>2026-04-11T07:12:36Z</time></trkpt><trkpt lat="39.48676614907478" lon="9.452923494208436"><ele>41.0</ele><time>2026-04-11T07:12:37Z</time></trkpt><trkpt lat="39.48695522058677" lon="9.452835474587197"><ele>44.0</ele><time>2026-04-11T07:12:38Z</time></trkpt><trkpt lat="39.48715103340835" lon="9.452785274225784"><ele>47.0</ele><time>2026-04-11T07:12:39Z</time></trkpt><trkpt lat="39.48735093587036" lon="9.45276879788553"><ele>50.0</ele><time>2026-04-11T07:12:40Z</time></trkpt><trkpt lat="39.48754922651519" lon="9.45278668953242"><ele>50.0</ele><time>2026-04-11T07:12:41Z</time></trkpt><trkpt lat="39.48774668116738" lon="9.452817942961756"><ele>50.0</ele><time>2026-04-11T07:12:42Z</time></trkpt><trkpt lat="39.487943409043105" lon="9.452845791059254"><ele>50.0</ele><time>2026-04-11T07:12:43Z</time></trkpt><trkpt lat="39.488139642148745" lon="9.452870284676123"><ele>50.333333333333336</ele><time>2026-04-11T07:12:44Z</time></trkpt><trkpt lat="39.488332528166644" lon="9.452891904599538"><ele>50.66666666666667</ele><time>2026-04-11T07:12:45Z</time></trkpt><trkpt lat="39.488522794629404" lon="9.452913989121093"><ele>51.0</ele><time>2026-04-11T07:12:46Z</time></trkpt><trkpt lat="39.48870951165338" lon="9.452935805593004"><ele>51.0</ele><time>2026-04-11T07:12:47Z</time></trkpt><trkpt lat="39.488893608995284" lon="9.452949774590358"><ele>51.0</ele><time>2026-04-11T07:12:48Z</time></trkpt><trkpt lat="39.48907891564507" lon="9.452948423955066"><ele>51.0</ele><time>2026-04-11T07:12:49Z</time></trkpt><trkpt lat="39.4892634813772" lon="9.45292467691449"><ele>51.0</ele><time>2026-04-11T07:12:50Z</time></trkpt><trkpt lat="39.4894472320861" lon="9.452881901827254"><ele>51.0</ele><time>2026-04-11T07:12:51Z</time></trkpt><trkpt lat="39.489630682375136" lon="9.452824982718164"><ele>51.0</ele><time>2026-04-11T07:12:52Z</time></trkpt><trkpt lat="39.48981464850268" lon="9.452760516594092"><ele>50.66666666666667</ele><time>2026-04-11T07:12:53Z</time></trkpt><trkpt lat="39.4899978277568" lon="9.452693658672633"><ele>50.333333333333336</ele><time>2026-04-11T07:12:54Z</time></trkpt><trkpt lat="39.49018024683802" lon="9.452622289626625"><ele>50.0</ele><time>2026-04-11T07:12:55Z</time></trkpt><trkpt lat="39.490362210251746" lon="9.45255240011815"><ele>48.0</ele><time>2026-04-11T07:12:56Z</time></trkpt><trkpt lat="39.49054562931619" lon="9.45248569155931"><ele>46.0</ele><time>2026-04-11T07:12:57Z</time></trkpt><trkpt lat="39.49072888106633" lon="9.452422340146326"><ele>44.0</ele><time>2026-04-11T07:12:58Z</time></trkpt><trkpt lat="39.49091169681585" lon="9.452358824085021"><ele>44.0</ele><time>2026-04-11T07:12:59Z</time></trkpt><trkpt lat="39.49109182349063" lon="9.452297044464835"><ele>44.0</ele><time>2026-04-11T07:13:00Z</time></trkpt><trkpt lat="39.491272769444244" lon="9.452250270305324"><ele>44.0</ele><time>2026-04-11T07:13:01Z</time></trkpt><trkpt lat="39.49145510733366" lon="9.452214724080964"><ele>43.0</ele><time>2026-04-11T07:13:02Z</time></trkpt><trkpt lat="39.49163458526695" lon="9.452185058473852"><ele>42.0</ele><time>2026-04-11T07:13:03Z</time></trkpt><trkpt lat="39.491815579335444" lon="9.452162531232515"><ele>41.0</ele><time>2026-04-11T07:13:04Z</time></trkpt><trkpt lat="39.49199352160026" lon="9.452141568207438"><ele>49.666666666666664</ele><time>2026-04-11T07:13:05Z</time></trkpt><trkpt lat="39.49217105312452" lon="9.452120733694276"><ele>58.33333333333333</ele><time>2026-04-11T07:13:06Z</time></trkpt><trkpt lat="39.49234725380972" lon="9.452098601578985"><ele>67.0</ele><time>2026-04-11T07:13:07Z</time></trkpt><trkpt lat="39.49252797033432" lon="9.45207342501493"><ele>67.0</ele><time>2026-04-11T07:13:08Z</time></trkpt><trkpt lat="39.492710518490924" lon="9.452045420352437"><ele>67.0</ele><time>2026-04-11T07:13:09Z</time></trkpt><trkpt lat="39.49289909514936" lon="9.452020243956657"><ele>67.0</ele><time>2026-04-11T07:13:10Z</time></trkpt><trkpt lat="39.493088038757236" lon="9.451992200509627"><ele>62.0</ele><time>2026-04-11T07:13:11Z</time></trkpt><trkpt lat="39.49327791057008" lon="9.4519521814229"><ele>57.0</ele><time>2026-04-11T07:13:12Z</time></trkpt><trkpt lat="39.49346595239244" lon="9.451889894926792"><ele>52.0</ele><time>2026-04-11T07:13:13Z</time></trkpt><trkpt lat="39.49365773714155" lon="9.45183091356283"><ele>48.666666666666664</ele><time>2026-04-11T07:13:14Z</time></trkpt><trkpt lat="39.49384814164656" lon="9.451767630665596"><ele>45.33333333333333</ele><time>2026-04-11T07:13:15Z</time></trkpt><trkpt lat="39.49403668418349" lon="9.451705010355578"><ele>42.0</ele><time>2026-04-11T07:13:16Z</time></trkpt><trkpt lat="39.494225540156734" lon="9.45164177104905"><ele>42.0</ele><time>2026-04-11T07:13:17Z</time></trkpt><trkpt lat="39.49441669273385" lon="9.451590391280362"><ele>42.0</ele><time>2026-04-11T07:13:18Z</time></trkpt><trkpt lat="39.49460737214921" lon="9.451576096941658"><ele>42.0</ele><time>2026-04-11T07:13:19Z</time></trkpt><trkpt lat="39.49480309706407" lon="9.45156935370914"><ele>44.0</ele><time>2026-04-11T07:13:20Z</time></trkpt><trkpt lat="39.49500046558131" lon="9.451567590030548"><ele>46.0</ele><time>2026-04-11T07:13:21Z</time></trkpt><trkpt lat="39.49519409873841" lon="9.451580392133064"><ele>48.0</ele><time>2026-04-11T07:13:22Z</time></trkpt><trkpt lat="39.49538610762057" lon="9.451604662917482"><ele>48.33333333333333</ele><time>2026-04-11T07:13:23Z</time></trkpt><trkpt lat="39.49557429393594" lon="9.451637119584985"><ele>48.666666666666664</ele><time>2026-04-11T07:13:24Z</time></trkpt><trkpt lat="39.4957612203361" lon="9.451678534709488"><ele>49.0</ele><time>2026-04-11T07:13:25Z</time></trkpt><trkpt lat="39.49594585556032" lon="9.451732175574769"><ele>49.0</ele><time>2026-04-11T07:13:26Z</time></trkpt><trkpt lat="39.4961284551862" lon="9.45179321015273"><ele>49.0</ele><time>2026-04-11T07:13:27Z</time></trkpt><trkpt lat="39.49631071862064" lon="9.451857546710977"><ele>49.0</ele><time>2026-04-11T07:13:28Z</time></trkpt><trkpt lat="39.49649185833092" lon="9.45191974628418"><ele>52.0</ele><time>2026-04-11T07:13:29Z</time></trkpt><trkpt lat="39.496673782756226" lon="9.451974340698904"><ele>55.0</ele><time>2026-04-11T07:13:30Z</time></trkpt><trkpt lat="39.49686091988321" lon="9.452020951961476"><ele>58.0</ele><time>2026-04-11T07:13:31Z</time></trkpt><trkpt lat="39.49705057822362" lon="9.452058050831535"><ele>60.666666666666664</ele><time>2026-04-11T07:13:32Z</time></trkpt><trkpt lat="39.49723948534816" lon="9.452095685761277"><ele>63.33333333333333</ele><time>2026-04-11T07:13:33Z</time></trkpt><trkpt lat="39.49742943496753" lon="9.452126994653453"><ele>66.0</ele><time>2026-04-11T07:13:34Z</time></trkpt><trkpt lat="39.49761844535088" lon="9.452146415974816"><ele>61.33333333333333</ele><time>2026-04-11T07:13:35Z</time></trkpt><trkpt lat="39.49780624516" lon="9.452158883838653"><ele>56.666666666666664</ele><time>2026-04-11T07:13:36Z</time></trkpt><trkpt lat="39.497994135634265" lon="9.452169964944773"><ele>52.0</ele><time>2026-04-11T07:13:37Z</time></trkpt><trkpt lat="39.49818279716523" lon="9.452176358410117"><ele>52.0</ele><time>2026-04-11T07:13:38Z</time></trkpt><trkpt lat="39.498369578423336" lon="9.452181453321883"><ele>52.0</ele><time>2026-04-11T07:13:39Z</time></trkpt><trkpt lat="39.49855508727046" lon="9.452183482625887"><ele>52.0</ele><time>2026-04-11T07:13:40Z</time></trkpt><trkpt lat="39.498743255369426" lon="9.452180057247054"><ele>53.666666666666664</ele><time>2026-04-11T07:13:41Z</time></trkpt><trkpt lat="39.49892985301197" lon="9.45216703968755"><ele>55.33333333333333</ele><time>2026-04-11T07:13:42Z</time></trkpt><trkpt lat="39.49911606759448" lon="9.452135677059944"><ele>57.0</ele><time>2026-04-11T07:13:43Z</time></trkpt><trkpt lat="39.499299483214855" lon="9.452086296453768"><ele>60.66666666666667</ele><time>2026-04-11T07:13:44Z</time></trkpt><trkpt lat="39.49948337098811" lon="9.452027418805821"><ele>64.33333333333334</ele><time>2026-04-11T07:13:45Z</time></trkpt><trkpt lat="39.49966289906196" lon="9.451953018253745"><ele>68.0</ele><time>2026-04-11T07:13:46Z</time></trkpt><trkpt lat="39.49983770912687" lon="9.451858666867688"><ele>68.0</ele><time>2026-04-11T07:13:47Z</time></trkpt><trkpt lat="39.500008950894156" lon="9.451758967350969"><ele>68.0</ele><time>2026-04-11T07:13:48Z</time></trkpt><trkpt lat="39.500176001129894" lon="9.451644337953102"><ele>68.0</ele><time>2026-04-11T07:13:49Z</time></trkpt><trkpt lat="39.50033651623165" lon="9.451517665463427"><ele>70.0</ele><time>2026-04-11T07:13:50Z</time></trkpt><trkpt lat="39.500490404069645" lon="9.451367273643417"><ele>72.0</ele><time>2026-04-11T07:13:51Z</time></trkpt><trkpt lat="39.50064629369836" lon="9.45121081400502"><ele>74.0</ele><time>2026-04-11T07:13:52Z</time></trkpt><trkpt lat="39.50079405143299" lon="9.451041015952361"><ele>74.0</ele><time>2026-04-11T07:13:53Z</time></trkpt><trkpt lat="39.500934397257694" lon="9.450859218328148"><ele>74.0</ele><time>2026-04-11T07:13:54Z</time></trkpt><trkpt lat="39.50106739826392" lon="9.450666732066143"><ele>74.0</ele><time>2026-04-11T07:13:55Z</time></trkpt><trkpt lat="39.5011863294329" lon="9.450459919572001"><ele>70.33333333333334</ele><time>2026-04-11T07:13:56Z</time></trkpt><trkpt lat="39.50129488119907" lon="9.450241066118728"><ele>66.66666666666667</ele><time>2026-04-11T07:13:57Z</time></trkpt><trkpt lat="39.50139835357857" lon="9.450017473262141"><ele>63.0</ele><time>2026-04-11T07:13:58Z</time></trkpt><trkpt lat="39.50148772093683" lon="9.44978877488142"><ele>66.33333333333333</ele><time>2026-04-11T07:13:59Z</time></trkpt><trkpt lat="39.501563090202986" lon="9.449548035333219"><ele>69.66666666666666</ele><time>2026-04-11T07:14:00Z</time></trkpt><trkpt lat="39.50162555606772" lon="9.449303978293102"><ele>73.0</ele><time>2026-04-11T07:14:01Z</time></trkpt><trkpt lat="39.501675742175614" lon="9.449055403925222"><ele>73.0</ele><time>2026-04-11T07:14:02Z</time></trkpt><trkpt lat="39.501714931999246" lon="9.448801462925756"><ele>73.0</ele><time>2026-04-11T07:14:03Z</time></trkpt><trkpt lat="39.501747079950015" lon="9.448544073470686"><ele>73.0</ele><time>2026-04-11T07:14:04Z</time></trkpt><trkpt lat="39.50177738996722" lon="9.448285798194378"><ele>77.33333333333333</ele><time>2026-04-11T07:14:05Z</time></trkpt><trkpt lat="39.50180955745853" lon="9.448028246301947"><ele>81.66666666666667</ele><time>2026-04-11T07:14:06Z</time></trkpt><trkpt lat="39.50184143118229" lon="9.447768242669705"><ele>86.0</ele><time>2026-04-11T07:14:07Z</time></trkpt><trkpt lat="39.50187409340961" lon="9.447508063702317"><ele>87.0</ele><time>2026-04-11T07:14:08Z</time></trkpt><trkpt lat="39.50190597611333" lon="9.447246247932014"><ele>88.0</ele><time>2026-04-11T07:14:09Z</time></trkpt><trkpt lat="39.50193697690801" lon="9.446981218393228"><ele>89.0</ele><time>2026-04-11T07:14:10Z</time></trkpt><trkpt lat="39.501966922391475" lon="9.446713715469098"><ele>91.0</ele><time>2026-04-11T07:14:11Z</time></trkpt><trkpt lat="39.501996085266626" lon="9.446444493914056"><ele>93.0</ele><time>2026-04-11T07:14:12Z</time></trkpt><trkpt lat="39.502026031861455" lon="9.446174404142957"><ele>95.0</ele><time>2026-04-11T07:14:13Z</time></trkpt><trkpt lat="39.50205640406152" lon="9.445903166956802"><ele>88.33333333333334</ele><time>2026-04-11T07:14:14Z</time></trkpt><trkpt lat="39.50208773281539" lon="9.44562845247743"><ele>81.66666666666667</ele><time>2026-04-11T07:14:15Z</time></trkpt><trkpt lat="39.50211813993955" lon="9.445355589811301"><ele>75.0</ele><time>2026-04-11T07:14:16Z</time></trkpt><trkpt lat="39.502147738299136" lon="9.445082509713568"><ele>75.0</ele><time>2026-04-11T07:14:17Z</time></trkpt><trkpt lat="39.502177471464" lon="9.444808121945425"><ele>75.0</ele><time>2026-04-11T07:14:18Z</time></trkpt><trkpt lat="39.5022078009543" lon="9.444532845173049"><ele>75.0</ele><time>2026-04-11T07:14:19Z</time></trkpt><trkpt lat="39.502237732316566" lon="9.444259172763946"><ele>77.33333333333333</ele><time>2026-04-11T07:14:20Z</time></trkpt><trkpt lat="39.50226988820814" lon="9.443986266817523"><ele>79.66666666666666</ele><time>2026-04-11T07:14:21Z</time></trkpt><trkpt lat="39.50230375958476" lon="9.4437093322039"><ele>82.0</ele><time>2026-04-11T07:14:22Z</time></trkpt><trkpt lat="39.50233622894664" lon="9.44343245958446"><ele>82.66666666666666</ele><time>2026-04-11T07:14:23Z</time></trkpt><trkpt lat="39.50236847707689" lon="9.443153171644516"><ele>83.33333333333333</ele><time>2026-04-11T07:14:24Z</time></trkpt><trkpt lat="39.5023996054921" lon="9.442873749147626"><ele>84.0</ele><time>2026-04-11T07:14:25Z</time></trkpt><trkpt lat="39.50243102435338" lon="9.442593054721312"><ele>84.66666666666667</ele><time>2026-04-11T07:14:26Z</time></trkpt><trkpt lat="39.50246270726679" lon="9.442312093687374"><ele>85.33333333333334</ele><time>2026-04-11T07:14:27Z</time></trkpt><trkpt lat="39.50249430098567" lon="9.44203261820867"><ele>86.0</ele><time>2026-04-11T07:14:28Z</time></trkpt><trkpt lat="39.50252536137196" lon="9.441753480067089"><ele>88.33333333333334</ele><time>2026-04-11T07:14:29Z</time></trkpt><trkpt lat="39.50255697869363" lon="9.441477182271045"><ele>90.66666666666667</ele><time>2026-04-11T07:14:30Z</time></trkpt><trkpt lat="39.5025890635002" lon="9.441201337288865"><ele>93.0</ele><time>2026-04-11T07:14:31Z</time></trkpt><trkpt lat="39.502622506754754" lon="9.44092258732093"><ele>93.33333333333333</ele><time>2026-04-11T07:14:32Z</time></trkpt><trkpt lat="39.502661659396864" lon="9.440648434036554"><ele>93.66666666666666</ele><time>2026-04-11T07:14:33Z</time></trkpt><trkpt lat="39.50270488738899" lon="9.440375940682085"><ele>94.0</ele><time>2026-04-11T07:14:34Z</time></trkpt><trkpt lat="39.50275164415216" lon="9.440106124886064"><ele>94.0</ele><time>2026-04-11T07:14:35Z</time></trkpt><trkpt lat="39.50279859784179" lon="9.439837591528352"><ele>94.0</ele><time>2026-04-11T07:14:36Z</time></trkpt><trkpt lat="39.50284753120419" lon="9.439570965958724"><ele>94.0</ele><time>2026-04-11T07:14:37Z</time></trkpt><trkpt lat="39.502900940866695" lon="9.439301574937877"><ele>96.66666666666666</ele><time>2026-04-11T07:14:38Z</time></trkpt><trkpt lat="39.50295849913051" lon="9.439033635654399"><ele>99.33333333333333</ele><time>2026-04-11T07:14:39Z</time></trkpt><trkpt lat="39.5030202741915" lon="9.438767555373417"><ele>102.0</ele><time>2026-04-11T07:14:40Z</time></trkpt><trkpt lat="39.50308523000853" lon="9.438502486004001"><ele>102.0</ele><time>2026-04-11T07:14:41Z</time></trkpt><trkpt lat="39.503150198352195" lon="9.438236897539689"><ele>102.0</ele><time>2026-04-11T07:14:42Z</time></trkpt><trkpt lat="39.50321351848707" lon="9.437973019270666"><ele>102.0</ele><time>2026-04-11T07:14:43Z</time></trkpt><trkpt lat="39.50327440571152" lon="9.437709884351543"><ele>105.0</ele><time>2026-04-11T07:14:44Z</time></trkpt><trkpt lat="39.503329059493474" lon="9.437443291984856"><ele>108.0</ele><time>2026-04-11T07:14:45Z</time></trkpt><trkpt lat="39.50335999278742" lon="9.437172527085625"><ele>111.0</ele><time>2026-04-11T07:14:46Z</time></trkpt><trkpt lat="39.50336191167984" lon="9.436894014439106"><ele>105.0</ele><time>2026-04-11T07:14:47Z</time></trkpt><trkpt lat="39.50334580941215" lon="9.436606143488286"><ele>99.0</ele><time>2026-04-11T07:14:48Z</time></trkpt><trkpt lat="39.50328290770266" lon="9.436354832857893"><ele>93.0</ele><time>2026-04-11T07:14:49Z</time></trkpt><trkpt lat="39.50321661493172" lon="9.436090183726636"><ele>87.66666666666667</ele><time>2026-04-11T07:14:50Z</time></trkpt><trkpt lat="39.50315082989426" lon="9.43582592579804"><ele>82.33333333333334</ele><time>2026-04-11T07:14:51Z</time></trkpt><trkpt lat="39.50309512622032" lon="9.435550772660976"><ele>77.0</ele><time>2026-04-11T07:14:52Z</time></trkpt><trkpt lat="39.50306686624899" lon="9.435272984372164"><ele>77.0</ele><time>2026-04-11T07:14:53Z</time></trkpt><trkpt lat="39.50306754291941" lon="9.434987773872802"><ele>77.0</ele><time>2026-04-11T07:14:54Z</time></trkpt><trkpt lat="39.50308846497858" lon="9.434703702873913"><ele>77.0</ele><time>2026-04-11T07:14:55Z</time></trkpt><trkpt lat="39.50313624695894" lon="9.434422518175769"><ele>77.0</ele><time>2026-04-11T07:14:56Z</time></trkpt><trkpt lat="39.50320892729043" lon="9.434153004131385"><ele>77.0</ele><time>2026-04-11T07:14:57Z</time></trkpt><trkpt lat="39.5032935999293" lon="9.433889809937883"><ele>77.0</ele><time>2026-04-11T07:14:58Z</time></trkpt><trkpt lat="39.5033779221661" lon="9.433624570105811"><ele>80.33333333333334</ele><time>2026-04-11T07:14:59Z</time></trkpt><trkpt lat="39.50345691911398" lon="9.433360140304549"><ele>83.66666666666667</ele><time>2026-04-11T07:15:00Z</time></trkpt><trkpt lat="39.503532792729416" lon="9.433093480169724"><ele>87.0</ele><time>2026-04-11T07:15:01Z</time></trkpt><trkpt lat="39.503599686525874" lon="9.432826062061451"><ele>88.0</ele><time>2026-04-11T07:15:02Z</time></trkpt><trkpt lat="39.50365150448673" lon="9.43255640476179"><ele>89.0</ele><time>2026-04-11T07:15:03Z</time></trkpt><trkpt lat="39.50368127621793" lon="9.432281825770193"><ele>90.0</ele><time>2026-04-11T07:15:04Z</time></trkpt><trkpt lat="39.50368864983172" lon="9.432004531352119"><ele>90.0</ele><time>2026-04-11T07:15:04.999Z</time></trkpt><trkpt lat="39.50367796206774" lon="9.431726411352125"><ele>90.0</ele><time>2026-04-11T07:15:05.999Z</time></trkpt><trkpt lat="39.503655938782146" lon="9.431448285227733"><ele>90.0</ele><time>2026-04-11T07:15:06.999Z</time></trkpt><trkpt lat="39.50362990303134" lon="9.431168425919648"><ele>86.0</ele><time>2026-04-11T07:15:08Z</time></trkpt><trkpt lat="39.503605343382404" lon="9.430890402574077"><ele>82.0</ele><time>2026-04-11T07:15:09Z</time></trkpt><trkpt lat="39.50358379657573" lon="9.430607534535877"><ele>78.0</ele><time>2026-04-11T07:15:10Z</time></trkpt><trkpt lat="39.503561716710266" lon="9.430325451929177"><ele>78.66666666666667</ele><time>2026-04-11T07:15:11Z</time></trkpt><trkpt lat="39.50353873468352" lon="9.430044819880754"><ele>79.33333333333334</ele><time>2026-04-11T07:15:12Z</time></trkpt><trkpt lat="39.50351719741281" lon="9.429764806525158"><ele>80.0</ele><time>2026-04-11T07:15:13Z</time></trkpt><trkpt lat="39.503497098862155" lon="9.42948479186659"><ele>80.0</ele><time>2026-04-11T07:15:14Z</time></trkpt><trkpt lat="39.50347494203952" lon="9.429205427580953"><ele>80.0</ele><time>2026-04-11T07:15:15Z</time></trkpt><trkpt lat="39.50345367285297" lon="9.42892758917357"><ele>80.0</ele><time>2026-04-11T07:15:16Z</time></trkpt><trkpt lat="39.50343895757992" lon="9.428648333669479"><ele>82.33333333333334</ele><time>2026-04-11T07:15:17Z</time></trkpt><trkpt lat="39.50343992398641" lon="9.428367604832657"><ele>84.66666666666667</ele><time>2026-04-11T07:15:18Z</time></trkpt><trkpt lat="39.5034576420957" lon="9.42809036430244"><ele>87.0</ele><time>2026-04-11T07:15:19Z</time></trkpt><trkpt lat="39.5034873469922" lon="9.42781090924606"><ele>87.33333333333333</ele><time>2026-04-11T07:15:20Z</time></trkpt><trkpt lat="39.503530496125265" lon="9.427534605247347"><ele>87.66666666666666</ele><time>2026-04-11T07:15:21Z</time></trkpt><trkpt lat="39.50359256117733" lon="9.427264382209142"><ele>88.0</ele><time>2026-04-11T07:15:22Z</time></trkpt><trkpt lat="39.50367201728722" lon="9.426998211120702"><ele>80.66666666666666</ele><time>2026-04-11T07:15:23Z</time></trkpt><trkpt lat="39.503765769826856" lon="9.426740836916156"><ele>73.33333333333333</ele><time>2026-04-11T07:15:24Z</time></trkpt><trkpt lat="39.503870309962835" lon="9.426488240445854"><ele>66.0</ele><time>2026-04-11T07:15:25Z</time></trkpt><trkpt lat="39.50398020389324" lon="9.426237730924402"><ele>65.33333333333333</ele><time>2026-04-11T07:15:26Z</time></trkpt><trkpt lat="39.504088895198265" lon="9.425984806870852"><ele>64.66666666666666</ele><time>2026-04-11T07:15:27Z</time></trkpt><trkpt lat="39.50419767545905" lon="9.425730722267962"><ele>64.0</ele><time>2026-04-11T07:15:28Z</time></trkpt><trkpt lat="39.50430745791008" lon="9.42547678330697"><ele>62.0</ele><time>2026-04-11T07:15:29Z</time></trkpt><trkpt lat="39.504418154371926" lon="9.425220167068453"><ele>60.0</ele><time>2026-04-11T07:15:30Z</time></trkpt><trkpt lat="39.50452848817797" lon="9.424961996750755"><ele>61.0</ele><time>2026-04-11T07:15:31Z</time></trkpt><trkpt lat="39.504637760195045" lon="9.424704404803837"><ele>62.0</ele><time>2026-04-11T07:15:32Z</time></trkpt><trkpt lat="39.50474699922481" lon="9.42444551640349"><ele>71.0</ele><time>2026-04-11T07:15:33Z</time></trkpt><trkpt lat="39.5048566276604" lon="9.424186247286972"><ele>80.0</ele><time>2026-04-11T07:15:34Z</time></trkpt><trkpt lat="39.50496677796746" lon="9.4239273139517"><ele>88.0</ele><time>2026-04-11T07:15:35Z</time></trkpt><trkpt lat="39.50507538619043" lon="9.423668305420724"><ele>96.0</ele><time>2026-04-11T07:15:36Z</time></trkpt><trkpt lat="39.50518017161007" lon="9.423407897858063"><ele>96.0</ele><time>2026-04-11T07:15:37Z</time></trkpt><trkpt lat="39.50528240447054" lon="9.42314668177221"><ele>96.0</ele><time>2026-04-11T07:15:38Z</time></trkpt><trkpt lat="39.50538213430739" lon="9.422884438908829"><ele>83.5</ele><time>2026-04-11T07:15:39Z</time></trkpt><trkpt lat="39.50547895399292" lon="9.422620526902012"><ele>71.0</ele><time>2026-04-11T07:15:40Z</time></trkpt><trkpt lat="39.50557247745324" lon="9.42235543011635"><ele>73.0</ele><time>2026-04-11T07:15:41Z</time></trkpt><trkpt lat="39.50566187161962" lon="9.422089093223473"><ele>75.0</ele><time>2026-04-11T07:15:42Z</time></trkpt><trkpt lat="39.50575125584522" lon="9.421814752625016"><ele>75.0</ele><time>2026-04-11T07:15:43Z</time></trkpt><trkpt lat="39.50584447774027" lon="9.421537077471754"><ele>75.0</ele><time>2026-04-11T07:15:44Z</time></trkpt><trkpt lat="39.50593526212326" lon="9.421276730290005"><ele>82.0</ele><time>2026-04-11T07:15:45Z</time></trkpt><trkpt lat="39.5060298577266" lon="9.421013029092746"><ele>89.0</ele><time>2026-04-11T07:15:46Z</time></trkpt><trkpt lat="39.50612156456395" lon="9.420749590950408"><ele>96.0</ele><time>2026-04-11T07:15:47Z</time></trkpt><trkpt lat="39.506220736670464" lon="9.42049151474112"><ele>87.66666666666667</ele><time>2026-04-11T07:15:48Z</time></trkpt><trkpt lat="39.50632864557338" lon="9.420237733028134"><ele>79.33333333333334</ele><time>2026-04-11T07:15:49Z</time></trkpt><trkpt lat="39.50644381438872" lon="9.419986569869133"><ele>71.0</ele><time>2026-04-11T07:15:50Z</time></trkpt><trkpt lat="39.50656109536663" lon="9.419739567024974"><ele>76.33333333333334</ele><time>2026-04-11T07:15:51Z</time></trkpt><trkpt lat="39.50667948515262" lon="9.419496270499208"><ele>81.66666666666667</ele><time>2026-04-11T07:15:52Z</time></trkpt><trkpt lat="39.50680287271946" lon="9.419260347050274"><ele>87.0</ele><time>2026-04-11T07:15:53Z</time></trkpt><trkpt lat="39.506932758398875" lon="9.419032339834434"><ele>84.33333333333333</ele><time>2026-04-11T07:15:54Z</time></trkpt><trkpt lat="39.5070827423206" lon="9.418836005210856"><ele>81.66666666666666</ele><time>2026-04-11T07:15:55Z</time></trkpt><trkpt lat="39.507249573428766" lon="9.41866655867113"><ele>79.0</ele><time>2026-04-11T07:15:56Z</time></trkpt><trkpt lat="39.50742926607897" lon="9.418524151686615"><ele>79.0</ele><time>2026-04-11T07:15:57Z</time></trkpt><trkpt lat="39.50762510023463" lon="9.418408644302474"><ele>79.0</ele><time>2026-04-11T07:15:58Z</time></trkpt><trkpt lat="39.507829708494185" lon="9.418317708722629"><ele>79.0</ele><time>2026-04-11T07:15:59Z</time></trkpt><trkpt lat="39.508036053435966" lon="9.418240018489566"><ele>77.33333333333333</ele><time>2026-04-11T07:16:00Z</time></trkpt><trkpt lat="39.50824082810255" lon="9.418162424921194"><ele>75.66666666666667</ele><time>2026-04-11T07:16:01Z</time></trkpt><trkpt lat="39.50843665504942" lon="9.418078011111753"><ele>74.0</ele><time>2026-04-11T07:16:02Z</time></trkpt><trkpt lat="39.5086234319576" lon="9.417972741935822"><ele>86.33333333333334</ele><time>2026-04-11T07:16:03Z</time></trkpt><trkpt lat="39.50879968385462" lon="9.41784075296883"><ele>98.66666666666667</ele><time>2026-04-11T07:16:04Z</time></trkpt><trkpt lat="39.50896696731287" lon="9.417688133034902"><ele>111.0</ele><time>2026-04-11T07:16:05Z</time></trkpt><trkpt lat="39.50912091345317" lon="9.417510970959128"><ele>111.0</ele><time>2026-04-11T07:16:06Z</time></trkpt><trkpt lat="39.50925985426131" lon="9.417313477897263"><ele>111.0</ele><time>2026-04-11T07:16:07Z</time></trkpt><trkpt lat="39.50937621479789" lon="9.417091022681143"><ele>111.0</ele><time>2026-04-11T07:16:08Z</time></trkpt><trkpt lat="39.50948256944655" lon="9.416858368004474"><ele>124.33333333333334</ele><time>2026-04-11T07:16:09Z</time></trkpt><trkpt lat="39.50957577344521" lon="9.416612756071144"><ele>137.66666666666669</ele><time>2026-04-11T07:16:10Z</time></trkpt><trkpt lat="39.50967242962771" lon="9.416359375678228"><ele>151.0</ele><time>2026-04-11T07:16:11.026Z</time></trkpt><trkpt lat="39.509766796870856" lon="9.416109347779251"><ele>151.0</ele><time>2026-04-11T07:16:12.026Z</time></trkpt><trkpt lat="39.50986225341632" lon="9.415863480812396"><ele>151.0</ele><time>2026-04-11T07:16:13.026Z</time></trkpt><trkpt lat="39.51045039965773" lon="9.41428758375603"><ele>118.5</ele><time>2026-04-11T07:16:20.35Z</time></trkpt><trkpt lat="39.51065667496104" lon="9.413876276034058"><ele>86.0</ele><time>2026-04-11T07:16:21.3Z</time></trkpt><trkpt lat="39.510709040623624" lon="9.413689252653654"><ele>86.0</ele><time>2026-04-11T07:16:22.25Z</time></trkpt><trkpt lat="39.51079927048125" lon="9.413369816427656"><ele>86.0</ele><time>2026-04-11T07:16:23.2Z</time></trkpt><trkpt lat="39.51086607698039" lon="9.413116656607356"><ele>88.0</ele><time>2026-04-11T07:16:24.15Z</time></trkpt><trkpt lat="39.51092522254712" lon="9.41286474547617"><ele>90.0</ele><time>2026-04-11T07:16:25.1Z</time></trkpt><trkpt lat="39.51097620393087" lon="9.41261284670499"><ele>92.0</ele><time>2026-04-11T07:16:26.05Z</time></trkpt><trkpt lat="39.51102555536891" lon="9.412349843202648"><ele>93.0</ele><time>2026-04-11T07:16:27Z</time></trkpt><trkpt lat="39.51107484760591" lon="9.412064191065863"><ele>94.0</ele><time>2026-04-11T07:16:28Z</time></trkpt><trkpt lat="39.511123994641046" lon="9.411774740681453"><ele>94.0</ele><time>2026-04-11T07:16:29Z</time></trkpt><trkpt lat="39.51116722699533" lon="9.411565336954245"><ele>94.0</ele><time>2026-04-11T07:16:30Z</time></trkpt><trkpt lat="39.51121538323318" lon="9.411300957026043"><ele>94.0</ele><time>2026-04-11T07:16:31Z</time></trkpt><trkpt lat="39.51126607634196" lon="9.41103495575515"><ele>90.66666666666666</ele><time>2026-04-11T07:16:32Z</time></trkpt><trkpt lat="39.51132426447387" lon="9.410774033255468"><ele>87.33333333333333</ele><time>2026-04-11T07:16:33Z</time></trkpt><trkpt lat="39.51139823522695" lon="9.410521595397562"><ele>84.0</ele><time>2026-04-11T07:16:34Z</time></trkpt><trkpt lat="39.51149355139325" lon="9.410280436840425"><ele>84.0</ele><time>2026-04-11T07:16:35Z</time></trkpt><trkpt lat="39.5116089624772" lon="9.410054445740702"><ele>84.0</ele><time>2026-04-11T07:16:36Z</time></trkpt><trkpt lat="39.51174744768735" lon="9.409846406302655"><ele>84.0</ele><time>2026-04-11T07:16:37Z</time></trkpt><trkpt lat="39.51190600089721" lon="9.40966572025698"><ele>86.66666666666667</ele><time>2026-04-11T07:16:38Z</time></trkpt><trkpt lat="39.5120850523057" lon="9.409508946982235"><ele>89.33333333333334</ele><time>2026-04-11T07:16:39Z</time></trkpt><trkpt lat="39.51227688734559" lon="9.409373407710586"><ele>92.0</ele><time>2026-04-11T07:16:40Z</time></trkpt><trkpt lat="39.51247898684173" lon="9.409252735484502"><ele>92.0</ele><time>2026-04-11T07:16:41Z</time></trkpt><trkpt lat="39.512702211233645" lon="9.409175435167603"><ele>92.0</ele><time>2026-04-11T07:16:42Z</time></trkpt><trkpt lat="39.5128918966352" lon="9.409052538106732"><ele>92.0</ele><time>2026-04-11T07:16:43Z</time></trkpt><trkpt lat="39.51308515678099" lon="9.408936346374583"><ele>93.33333333333334</ele><time>2026-04-11T07:16:44Z</time></trkpt><trkpt lat="39.51327743042367" lon="9.408809292437935"><ele>94.66666666666667</ele><time>2026-04-11T07:16:45Z</time></trkpt><trkpt lat="39.51346041396116" lon="9.408662154389972"><ele>96.0</ele><time>2026-04-11T07:16:46Z</time></trkpt><trkpt lat="39.513636186150194" lon="9.408499288854719"><ele>95.66666666666667</ele><time>2026-04-11T07:16:47Z</time></trkpt><trkpt lat="39.51380107920409" lon="9.408326442978357"><ele>95.33333333333334</ele><time>2026-04-11T07:16:48Z</time></trkpt><trkpt lat="39.513957430963224" lon="9.408142437263324"><ele>95.0</ele><time>2026-04-11T07:16:49Z</time></trkpt><trkpt lat="39.51410733340308" lon="9.40795031551688"><ele>95.0</ele><time>2026-04-11T07:16:50Z</time></trkpt><trkpt lat="39.51425964374065" lon="9.407758751752803"><ele>95.0</ele><time>2026-04-11T07:16:51Z</time></trkpt><trkpt lat="39.514414336080435" lon="9.407579053569302"><ele>95.0</ele><time>2026-04-11T07:16:52Z</time></trkpt><trkpt lat="39.514581887966685" lon="9.40740688088736"><ele>95.66666666666667</ele><time>2026-04-11T07:16:53Z</time></trkpt><trkpt lat="39.51475809508838" lon="9.40724504837114"><ele>96.33333333333334</ele><time>2026-04-11T07:16:54Z</time></trkpt><trkpt lat="39.5149410050294" lon="9.407091566441746"><ele>97.0</ele><time>2026-04-11T07:16:55Z</time></trkpt><trkpt lat="39.5151298936693" lon="9.406940435456695"><ele>97.0</ele><time>2026-04-11T07:16:56Z</time></trkpt><trkpt lat="39.51531935425924" lon="9.40679304452248"><ele>97.0</ele><time>2026-04-11T07:16:57Z</time></trkpt><trkpt lat="39.51551152127782" lon="9.40664980797001"><ele>97.0</ele><time>2026-04-11T07:16:58Z</time></trkpt><trkpt lat="39.51570464460767" lon="9.406509029112215"><ele>103.0</ele><time>2026-04-11T07:16:59Z</time></trkpt><trkpt lat="39.515898181558455" lon="9.406370730821846"><ele>109.0</ele><time>2026-04-11T07:17:00Z</time></trkpt><trkpt lat="39.516089267420696" lon="9.406228884117626"><ele>115.0</ele><time>2026-04-11T07:17:01Z</time></trkpt><trkpt lat="39.51628404221209" lon="9.40609160199375"><ele>126.0</ele><time>2026-04-11T07:17:02Z</time></trkpt><trkpt lat="39.516479297672056" lon="9.405953812182638"><ele>137.0</ele><time>2026-04-11T07:17:03Z</time></trkpt><trkpt lat="39.51667774752317" lon="9.405806625849266"><ele>137.0</ele><time>2026-04-11T07:17:04.025Z</time></trkpt><trkpt lat="39.51687015528092" lon="9.405659247578011"><ele>137.0</ele><time>2026-04-11T07:17:05.025Z</time></trkpt><trkpt lat="39.51790034587917" lon="9.404850882566414"><ele>118.66666666666666</ele><time>2026-04-11T07:17:12Z</time></trkpt><trkpt lat="39.51804662495261" lon="9.404740088196624"><ele>100.33333333333333</ele><time>2026-04-11T07:17:13Z</time></trkpt><trkpt lat="39.51822859824643" lon="9.404623851387958"><ele>82.0</ele><time>2026-04-11T07:17:14Z</time></trkpt><trkpt lat="39.518405867326955" lon="9.404514920261748"><ele>82.0</ele><time>2026-04-11T07:17:15Z</time></trkpt><trkpt lat="39.51859957935869" lon="9.404407752163479"><ele>82.0</ele><time>2026-04-11T07:17:16Z</time></trkpt><trkpt lat="39.51879753666557" lon="9.404316634093421"><ele>82.0</ele><time>2026-04-11T07:17:17Z</time></trkpt><trkpt lat="39.518999194923936" lon="9.404227448669644"><ele>76.33333333333333</ele><time>2026-04-11T07:17:18Z</time></trkpt><trkpt lat="39.519210609920364" lon="9.404134547929301"><ele>70.66666666666667</ele><time>2026-04-11T07:17:19Z</time></trkpt><trkpt lat="39.5194192657554" lon="9.404049683232273"><ele>65.0</ele><time>2026-04-11T07:17:20Z</time></trkpt><trkpt lat="39.51963531553838" lon="9.403979661358223"><ele>63.5</ele><time>2026-04-11T07:17:21Z</time></trkpt><trkpt lat="39.51985580964088" lon="9.403921432465495"><ele>62.0</ele><time>2026-04-11T07:17:22Z</time></trkpt><trkpt lat="39.52007998319707" lon="9.403868244403448"><ele>63.5</ele><time>2026-04-11T07:17:23Z</time></trkpt><trkpt lat="39.520307348889496" lon="9.403816045916285"><ele>65.0</ele><time>2026-04-11T07:17:24Z</time></trkpt><trkpt lat="39.520531171302515" lon="9.403772699247893"><ele>69.5</ele><time>2026-04-11T07:17:25Z</time></trkpt><trkpt lat="39.52075628979651" lon="9.403736736496136"><ele>74.0</ele><time>2026-04-11T07:17:26Z</time></trkpt><trkpt lat="39.5209781888823" lon="9.40369671227531"><ele>74.0</ele><time>2026-04-11T07:17:27Z</time></trkpt><trkpt lat="39.52119969794207" lon="9.403656288298183"><ele>74.0</ele><time>2026-04-11T07:17:28Z</time></trkpt><trkpt lat="39.52142271746452" lon="9.403616644636017"><ele>74.0</ele><time>2026-04-11T07:17:29Z</time></trkpt><trkpt lat="39.52164242058167" lon="9.403586007934237"><ele>74.33333333333334</ele><time>2026-04-11T07:17:30Z</time></trkpt><trkpt lat="39.52186053769765" lon="9.40355569129088"><ele>74.66666666666667</ele><time>2026-04-11T07:17:31Z</time></trkpt><trkpt lat="39.52207889860645" lon="9.403516885803677"><ele>75.0</ele><time>2026-04-11T07:17:32Z</time></trkpt><trkpt lat="39.5222942678673" lon="9.403474809970467"><ele>75.0</ele><time>2026-04-11T07:17:33Z</time></trkpt><trkpt lat="39.52251001348257" lon="9.403433247642"><ele>75.0</ele><time>2026-04-11T07:17:34Z</time></trkpt><trkpt lat="39.52272640200424" lon="9.403392620125246"><ele>75.0</ele><time>2026-04-11T07:17:35Z</time></trkpt><trkpt lat="39.52294623859472" lon="9.40335243934941"><ele>73.0</ele><time>2026-04-11T07:17:36Z</time></trkpt><trkpt lat="39.52316884035366" lon="9.403314092580354"><ele>71.0</ele><time>2026-04-11T07:17:37Z</time></trkpt><trkpt lat="39.52339210275591" lon="9.403275808107502"><ele>71.0</ele><time>2026-04-11T07:17:38Z</time></trkpt><trkpt lat="39.52361772472718" lon="9.403235416158275"><ele>71.0</ele><time>2026-04-11T07:17:39Z</time></trkpt><trkpt lat="39.52384362994339" lon="9.403199351682936"><ele>72.5</ele><time>2026-04-11T07:17:40Z</time></trkpt><trkpt lat="39.524071710979406" lon="9.403174832144668"><ele>74.0</ele><time>2026-04-11T07:17:41Z</time></trkpt><trkpt lat="39.52430096359538" lon="9.403166452558471"><ele>74.0</ele><time>2026-04-11T07:17:42Z</time></trkpt><trkpt lat="39.52453547047815" lon="9.403165672352467"><ele>74.0</ele><time>2026-04-11T07:17:43Z</time></trkpt><trkpt lat="39.5247678729746" lon="9.403169455141589"><ele>76.5</ele><time>2026-04-11T07:17:44Z</time></trkpt><trkpt lat="39.52500178435125" lon="9.40318128328703"><ele>79.0</ele><time>2026-04-11T07:17:45Z</time></trkpt><trkpt lat="39.52523427151853" lon="9.403206290781045"><ele>80.5</ele><time>2026-04-11T07:17:46Z</time></trkpt><trkpt lat="39.52546556795806" lon="9.403240668277585"><ele>82.0</ele><time>2026-04-11T07:17:47Z</time></trkpt><trkpt lat="39.52569265624457" lon="9.403285656026238"><ele>82.0</ele><time>2026-04-11T07:17:48Z</time></trkpt><trkpt lat="39.52591685976801" lon="9.403341993576985"><ele>82.0</ele><time>2026-04-11T07:17:49Z</time></trkpt><trkpt lat="39.52613927963515" lon="9.403401320505184"><ele>83.33333333333333</ele><time>2026-04-11T07:17:50Z</time></trkpt><trkpt lat="39.52635986404931" lon="9.403453476027249"><ele>84.66666666666667</ele><time>2026-04-11T07:17:51Z</time></trkpt><trkpt lat="39.526578776410986" lon="9.40349906669958"><ele>86.0</ele><time>2026-04-11T07:17:52Z</time></trkpt><trkpt lat="39.52679741063583" lon="9.40354363834095"><ele>86.0</ele><time>2026-04-11T07:17:53Z</time></trkpt><trkpt lat="39.52701492530546" lon="9.403592124423055"><ele>86.0</ele><time>2026-04-11T07:17:54Z</time></trkpt><trkpt lat="39.52723107626575" lon="9.403641755029371"><ele>86.0</ele><time>2026-04-11T07:17:55Z</time></trkpt><trkpt lat="39.527446698085875" lon="9.403686919845674"><ele>86.66666666666667</ele><time>2026-04-11T07:17:56Z</time></trkpt><trkpt lat="39.527664165235876" lon="9.403719489001666"><ele>87.33333333333333</ele><time>2026-04-11T07:17:57Z</time></trkpt><trkpt lat="39.52788255966896" lon="9.403737021741014"><ele>88.0</ele><time>2026-04-11T07:17:58Z</time></trkpt><trkpt lat="39.52810435923932" lon="9.403746562126681"><ele>89.0</ele><time>2026-04-11T07:17:59Z</time></trkpt><trkpt lat="39.52832716807951" lon="9.4037496029471"><ele>90.0</ele><time>2026-04-11T07:18:00Z</time></trkpt><trkpt lat="39.52855068118679" lon="9.403736388911607"><ele>91.0</ele><time>2026-04-11T07:18:01Z</time></trkpt><trkpt lat="39.52877195273311" lon="9.403716846520364"><ele>93.33333333333333</ele><time>2026-04-11T07:18:02Z</time></trkpt><trkpt lat="39.52899238915498" lon="9.403684569489108"><ele>95.66666666666666</ele><time>2026-04-11T07:18:03Z</time></trkpt><trkpt lat="39.529208636081215" lon="9.40364062952553"><ele>98.0</ele><time>2026-04-11T07:18:04Z</time></trkpt><trkpt lat="39.52942358935311" lon="9.403588133160966"><ele>95.0</ele><time>2026-04-11T07:18:05Z</time></trkpt><trkpt lat="39.52963670541769" lon="9.403522166403329"><ele>92.0</ele><time>2026-04-11T07:18:06Z</time></trkpt><trkpt lat="39.529855638440175" lon="9.403470869426725"><ele>89.0</ele><time>2026-04-11T07:18:07Z</time></trkpt><trkpt lat="39.53007092057956" lon="9.403409131099139"><ele>89.0</ele><time>2026-04-11T07:18:08Z</time></trkpt><trkpt lat="39.53028596603515" lon="9.403342988001656"><ele>89.0</ele><time>2026-04-11T07:18:09Z</time></trkpt><trkpt lat="39.5304785568807" lon="9.40314247136327"><ele>82.66666666666667</ele><time>2026-04-11T07:18:10Z</time></trkpt><trkpt lat="39.53067851730946" lon="9.403018634813293"><ele>76.33333333333333</ele><time>2026-04-11T07:18:11Z</time></trkpt><trkpt lat="39.53087672642075" lon="9.402889386131509"><ele>70.0</ele><time>2026-04-11T07:18:12Z</time></trkpt><trkpt lat="39.53106832332943" lon="9.402749667344091"><ele>72.0</ele><time>2026-04-11T07:18:13Z</time></trkpt><trkpt lat="39.53125517483302" lon="9.402597500700512"><ele>74.0</ele><time>2026-04-11T07:18:14Z</time></trkpt><trkpt lat="39.531437343115606" lon="9.402434023359335"><ele>76.0</ele><time>2026-04-11T07:18:15Z</time></trkpt><trkpt lat="39.53161507166665" lon="9.402259429557832"><ele>75.0</ele><time>2026-04-11T07:18:16Z</time></trkpt><trkpt lat="39.53179115275276" lon="9.402076187503356"><ele>74.0</ele><time>2026-04-11T07:18:17Z</time></trkpt><trkpt lat="39.53195825477466" lon="9.401884509261302"><ele>73.0</ele><time>2026-04-11T07:18:18Z</time></trkpt><trkpt lat="39.53211824481959" lon="9.401682570402174"><ele>75.0</ele><time>2026-04-11T07:18:19Z</time></trkpt><trkpt lat="39.53227807623332" lon="9.401477811244789"><ele>77.0</ele><time>2026-04-11T07:18:20Z</time></trkpt><trkpt lat="39.53243262363462" lon="9.401268555752603"><ele>79.0</ele><time>2026-04-11T07:18:21Z</time></trkpt><trkpt lat="39.532587104456695" lon="9.401052164431038"><ele>79.0</ele><time>2026-04-11T07:18:22Z</time></trkpt><trkpt lat="39.532737756554525" lon="9.400831994295716"><ele>79.0</ele><time>2026-04-11T07:18:23Z</time></trkpt><trkpt lat="39.53288778802664" lon="9.400605855902693"><ele>81.5</ele><time>2026-04-11T07:18:24Z</time></trkpt><trkpt lat="39.53303739553503" lon="9.40037823259812"><ele>84.0</ele><time>2026-04-11T07:18:25Z</time></trkpt><trkpt lat="39.53318871439711" lon="9.400146493217875"><ele>84.0</ele><time>2026-04-11T07:18:26Z</time></trkpt><trkpt lat="39.53333923806928" lon="9.399919801608968"><ele>84.0</ele><time>2026-04-11T07:18:27Z</time></trkpt><trkpt lat="39.533492943135634" lon="9.399687573624966"><ele>80.5</ele><time>2026-04-11T07:18:28Z</time></trkpt><trkpt lat="39.53364152058791" lon="9.39946412893912"><ele>77.0</ele><time>2026-04-11T07:18:29Z</time></trkpt><trkpt lat="39.533792053868886" lon="9.399236448160476"><ele>77.0</ele><time>2026-04-11T07:18:30Z</time></trkpt><trkpt lat="39.53394249692403" lon="9.399005239743499"><ele>77.0</ele><time>2026-04-11T07:18:31Z</time></trkpt><trkpt lat="39.53409120178091" lon="9.398778754145447"><ele>72.5</ele><time>2026-04-11T07:18:32Z</time></trkpt><trkpt lat="39.53423855277911" lon="9.398554277597118"><ele>68.0</ele><time>2026-04-11T07:18:33Z</time></trkpt><trkpt lat="39.53438922898632" lon="9.398330436462231"><ele>68.0</ele><time>2026-04-11T07:18:34Z</time></trkpt><trkpt lat="39.53453708048594" lon="9.398107317267131"><ele>68.0</ele><time>2026-04-11T07:18:35Z</time></trkpt><trkpt lat="39.53468440543491" lon="9.397882571899803"><ele>68.0</ele><time>2026-04-11T07:18:36Z</time></trkpt><trkpt lat="39.53483066188368" lon="9.397655094283534"><ele>68.0</ele><time>2026-04-11T07:18:37Z</time></trkpt><trkpt lat="39.53497494977213" lon="9.397428272397331"><ele>68.0</ele><time>2026-04-11T07:18:38Z</time></trkpt><trkpt lat="39.535122756139366" lon="9.39720075440963"><ele>68.0</ele><time>2026-04-11T07:18:39Z</time></trkpt><trkpt lat="39.5352680677178" lon="9.39697664091407"><ele>74.0</ele><time>2026-04-11T07:18:40Z</time></trkpt><trkpt lat="39.53541931243471" lon="9.396751419593842"><ele>80.0</ele><time>2026-04-11T07:18:41Z</time></trkpt><trkpt lat="39.535566111114065" lon="9.396532136354667"><ele>89.5</ele><time>2026-04-11T07:18:42Z</time></trkpt><trkpt lat="39.53571857241111" lon="9.396311051580557"><ele>99.0</ele><time>2026-04-11T07:18:43Z</time></trkpt><trkpt lat="39.5358675243768" lon="9.396082382559346"><ele>99.0</ele><time>2026-04-11T07:18:44Z</time></trkpt><trkpt lat="39.536012944963915" lon="9.395860469077657"><ele>99.0</ele><time>2026-04-11T07:18:45Z</time></trkpt><trkpt lat="39.536157334992225" lon="9.395642058618877"><ele>99.0</ele><time>2026-04-11T07:18:46Z</time></trkpt><trkpt lat="39.53630320028901" lon="9.395430307086306"><ele>105.66666666666666</ele><time>2026-04-11T07:18:47Z</time></trkpt><trkpt lat="39.5364667855564" lon="9.395228461339576"><ele>112.33333333333333</ele><time>2026-04-11T07:18:48Z</time></trkpt><trkpt lat="39.536646106226094" lon="9.395057759078794"><ele>119.0</ele><time>2026-04-11T07:18:49Z</time></trkpt><trkpt lat="39.53683391521922" lon="9.394907600612855"><ele>119.0</ele><time>2026-04-11T07:18:50Z</time></trkpt><trkpt lat="39.537021279172194" lon="9.394760418401107"><ele>119.0</ele><time>2026-04-11T07:18:51Z</time></trkpt><trkpt lat="39.53720771374296" lon="9.394609373037355"><ele>119.0</ele><time>2026-04-11T07:18:52Z</time></trkpt><trkpt lat="39.537394094762035" lon="9.394457672825839"><ele>119.0</ele><time>2026-04-11T07:18:53Z</time></trkpt><trkpt lat="39.53757784128385" lon="9.39430424579113"><ele>119.0</ele><time>2026-04-11T07:18:54Z</time></trkpt><trkpt lat="39.53775916234669" lon="9.394147388383853"><ele>119.0</ele><time>2026-04-11T07:18:55Z</time></trkpt><trkpt lat="39.53794000522813" lon="9.393989190317495"><ele>125.0</ele><time>2026-04-11T07:18:56Z</time></trkpt><trkpt lat="39.53812190066589" lon="9.393835276758848"><ele>131.0</ele><time>2026-04-11T07:18:57Z</time></trkpt><trkpt lat="39.53830131213829" lon="9.393674361557224"><ele>137.0</ele><time>2026-04-11T07:18:58Z</time></trkpt><trkpt lat="39.53846875275994" lon="9.393495298425027"><ele>137.0</ele><time>2026-04-11T07:18:59Z</time></trkpt><trkpt lat="39.53860767002367" lon="9.393277582712194"><ele>137.0</ele><time>2026-04-11T07:19:00Z</time></trkpt><trkpt lat="39.53872058854312" lon="9.393036484708814"><ele>137.0</ele><time>2026-04-11T07:19:01Z</time></trkpt><trkpt lat="39.53878826253824" lon="9.392760398749752"><ele>133.0</ele><time>2026-04-11T07:19:02Z</time></trkpt><trkpt lat="39.53882874622816" lon="9.392475254409144"><ele>129.0</ele><time>2026-04-11T07:19:03Z</time></trkpt><trkpt lat="39.538875342280704" lon="9.392188864617452"><ele>125.0</ele><time>2026-04-11T07:19:04Z</time></trkpt><trkpt lat="39.53892107621455" lon="9.391906493596371"><ele>125.0</ele><time>2026-04-11T07:19:05Z</time></trkpt><trkpt lat="39.538971821801745" lon="9.391620200749513"><ele>125.0</ele><time>2026-04-11T07:19:06Z</time></trkpt><trkpt lat="39.53902001163091" lon="9.391335640673372"><ele>126.0</ele><time>2026-04-11T07:19:07Z</time></trkpt><trkpt lat="39.53906757675857" lon="9.39105605858357"><ele>127.0</ele><time>2026-04-11T07:19:08Z</time></trkpt><trkpt lat="39.53911740425466" lon="9.390773117312431"><ele>128.0</ele><time>2026-04-11T07:19:09Z</time></trkpt><trkpt lat="39.53916794919582" lon="9.390495339299507"><ele>130.0</ele><time>2026-04-11T07:19:10Z</time></trkpt><trkpt lat="39.53921887069929" lon="9.390216055780376"><ele>132.0</ele><time>2026-04-11T07:19:11Z</time></trkpt><trkpt lat="39.539266614921914" lon="9.389939450035197"><ele>134.0</ele><time>2026-04-11T07:19:12Z</time></trkpt><trkpt lat="39.53931127284811" lon="9.389667411184325"><ele>141.33333333333331</ele><time>2026-04-11T07:19:13Z</time></trkpt><trkpt lat="39.539355995094745" lon="9.389389642834358"><ele>148.66666666666666</ele><time>2026-04-11T07:19:14Z</time></trkpt><trkpt lat="39.5393970423432" lon="9.389106919506181"><ele>156.0</ele><time>2026-04-11T07:19:15Z</time></trkpt><trkpt lat="39.53943052386554" lon="9.388826782989058"><ele>160.0</ele><time>2026-04-11T07:19:16Z</time></trkpt><trkpt lat="39.5394422882396" lon="9.388541890868996"><ele>164.0</ele><time>2026-04-11T07:19:17Z</time></trkpt><trkpt lat="39.53944297958959" lon="9.38825596673424"><ele>168.0</ele><time>2026-04-11T07:19:18Z</time></trkpt><trkpt lat="39.53943943487709" lon="9.387971581259198"><ele>168.66666666666666</ele><time>2026-04-11T07:19:19Z</time></trkpt><trkpt lat="39.539439277109615" lon="9.387686917745881"><ele>169.33333333333331</ele><time>2026-04-11T07:19:20Z</time></trkpt><trkpt lat="39.53944165542393" lon="9.387398124510321"><ele>170.0</ele><time>2026-04-11T07:19:21Z</time></trkpt><trkpt lat="39.53943435144131" lon="9.387117563113133"><ele>172.0</ele><time>2026-04-11T07:19:22Z</time></trkpt><trkpt lat="39.53942741359887" lon="9.386838117045874"><ele>174.0</ele><time>2026-04-11T07:19:23Z</time></trkpt><trkpt lat="39.539425466364975" lon="9.386560459391212"><ele>176.0</ele><time>2026-04-11T07:19:24Z</time></trkpt><trkpt lat="39.5394336851074" lon="9.38628675157718"><ele>177.0</ele><time>2026-04-11T07:19:25Z</time></trkpt><trkpt lat="39.53947664706902" lon="9.38601924677023"><ele>178.0</ele><time>2026-04-11T07:19:26Z</time></trkpt><trkpt lat="39.539539943718516" lon="9.385763953758133"><ele>179.0</ele><time>2026-04-11T07:19:27Z</time></trkpt><trkpt lat="39.539630987733815" lon="9.385528473910187"><ele>170.66666666666666</ele><time>2026-04-11T07:19:28Z</time></trkpt><trkpt lat="39.53973662783053" lon="9.385289385124839"><ele>162.33333333333334</ele><time>2026-04-11T07:19:29Z</time></trkpt><trkpt lat="39.53984646835523" lon="9.385043962418793"><ele>154.0</ele><time>2026-04-11T07:19:30Z</time></trkpt><trkpt lat="39.53995840494704" lon="9.38479605269192"><ele>160.0</ele><time>2026-04-11T07:19:31Z</time></trkpt><trkpt lat="39.54007254866272" lon="9.384543132859829"><ele>166.0</ele><time>2026-04-11T07:19:32Z</time></trkpt><trkpt lat="39.54018255205123" lon="9.384293350484194"><ele>172.0</ele><time>2026-04-11T07:19:33Z</time></trkpt><trkpt lat="39.540264817388596" lon="9.384023418888319"><ele>157.0</ele><time>2026-04-11T07:19:34Z</time></trkpt><trkpt lat="39.54038831265746" lon="9.383742632000693"><ele>142.0</ele><time>2026-04-11T07:19:35Z</time></trkpt><trkpt lat="39.540413004789436" lon="9.383555699009724"><ele>127.0</ele><time>2026-04-11T07:19:36Z</time></trkpt><trkpt lat="39.54042921230016" lon="9.383303190138024"><ele>127.0</ele><time>2026-04-11T07:19:37Z</time></trkpt><trkpt lat="39.54042444978875" lon="9.383023167516237"><ele>127.0</ele><time>2026-04-11T07:19:38Z</time></trkpt><trkpt lat="39.540417098103624" lon="9.38274201066678"><ele>127.0</ele><time>2026-04-11T07:19:39Z</time></trkpt><trkpt lat="39.54042116950938" lon="9.38245976157074"><ele>129.0</ele><time>2026-04-11T07:19:40Z</time></trkpt><trkpt lat="39.54043232514359" lon="9.382184032864702"><ele>131.0</ele><time>2026-04-11T07:19:41Z</time></trkpt><trkpt lat="39.540442852564034" lon="9.381902081555983"><ele>133.0</ele><time>2026-04-11T07:19:42Z</time></trkpt><trkpt lat="39.540425131463735" lon="9.381624199864731"><ele>136.33333333333334</ele><time>2026-04-11T07:19:43Z</time></trkpt><trkpt lat="39.540460080589554" lon="9.381359270486335"><ele>139.66666666666666</ele><time>2026-04-11T07:19:44Z</time></trkpt><trkpt lat="39.54048334623696" lon="9.381095522127367"><ele>143.0</ele><time>2026-04-11T07:19:45Z</time></trkpt><trkpt lat="39.54057639548263" lon="9.380860422845258"><ele>146.66666666666666</ele><time>2026-04-11T07:19:46Z</time></trkpt><trkpt lat="39.54068041132639" lon="9.380641007405845"><ele>150.33333333333334</ele><time>2026-04-11T07:19:47Z</time></trkpt><trkpt lat="39.54081431810316" lon="9.380453919125914"><ele>154.0</ele><time>2026-04-11T07:19:48Z</time></trkpt><trkpt lat="39.54097005102978" lon="9.380292302114393"><ele>156.0</ele><time>2026-04-11T07:19:49Z</time></trkpt><trkpt lat="39.541142582809385" lon="9.380142179865782"><ele>158.0</ele><time>2026-04-11T07:19:50Z</time></trkpt><trkpt lat="39.54133244130093" lon="9.380018781549895"><ele>160.0</ele><time>2026-04-11T07:19:51Z</time></trkpt><trkpt lat="39.54152158474877" lon="9.379904104317884"><ele>160.0</ele><time>2026-04-11T07:19:52Z</time></trkpt><trkpt lat="39.54170384806652" lon="9.379769527899258"><ele>160.0</ele><time>2026-04-11T07:19:53Z</time></trkpt><trkpt lat="39.541870541086105" lon="9.379608993646512"><ele>160.0</ele><time>2026-04-11T07:19:54Z</time></trkpt><trkpt lat="39.54201805577716" lon="9.379409524595294"><ele>157.66666666666669</ele><time>2026-04-11T07:19:55Z</time></trkpt><trkpt lat="39.54214130575401" lon="9.379175902490925"><ele>155.33333333333334</ele><time>2026-04-11T07:19:56Z</time></trkpt><trkpt lat="39.54223209082642" lon="9.378916559271868"><ele>153.0</ele><time>2026-04-11T07:19:57Z</time></trkpt><trkpt lat="39.54229112818741" lon="9.378637417476963"><ele>152.66666666666666</ele><time>2026-04-11T07:19:58Z</time></trkpt><trkpt lat="39.542310522818674" lon="9.378356826090455"><ele>152.33333333333331</ele><time>2026-04-11T07:19:59Z</time></trkpt><trkpt lat="39.54228779333496" lon="9.378076706347217"><ele>152.0</ele><time>2026-04-11T07:20:00Z</time></trkpt><trkpt lat="39.54222933866696" lon="9.377806296403808"><ele>153.0</ele><time>2026-04-11T07:20:01Z</time></trkpt><trkpt lat="39.54214299080875" lon="9.377549182781431"><ele>154.0</ele><time>2026-04-11T07:20:02Z</time></trkpt><trkpt lat="39.54203000094038" lon="9.377312355535935"><ele>155.0</ele><time>2026-04-11T07:20:03Z</time></trkpt><trkpt lat="39.54188620249739" lon="9.377105246908544"><ele>155.0</ele><time>2026-04-11T07:20:04Z</time></trkpt><trkpt lat="39.541716353982146" lon="9.37693973918208"><ele>155.0</ele><time>2026-04-11T07:20:05Z</time></trkpt><trkpt lat="39.541530558423624" lon="9.376812996299435"><ele>155.0</ele><time>2026-04-11T07:20:06Z</time></trkpt><trkpt lat="39.54133925066064" lon="9.376708933353028"><ele>157.33333333333331</ele><time>2026-04-11T07:20:07Z</time></trkpt><trkpt lat="39.541153700872314" lon="9.376599043654524"><ele>159.66666666666666</ele><time>2026-04-11T07:20:08Z</time></trkpt><trkpt lat="39.54097873022425" lon="9.376478202573962"><ele>162.0</ele><time>2026-04-11T07:20:09Z</time></trkpt><trkpt lat="39.540816382954375" lon="9.376339673109626"><ele>162.0</ele><time>2026-04-11T07:20:10Z</time></trkpt><trkpt lat="39.54068689545879" lon="9.37615064896403"><ele>162.0</ele><time>2026-04-11T07:20:11Z</time></trkpt><trkpt lat="39.54057896701279" lon="9.37594045534829"><ele>162.0</ele><time>2026-04-11T07:20:12Z</time></trkpt><trkpt lat="39.54049857154297" lon="9.375710032765411"><ele>159.33333333333334</ele><time>2026-04-11T07:20:13Z</time></trkpt><trkpt lat="39.5404512489231" lon="9.375459251726364"><ele>156.66666666666669</ele><time>2026-04-11T07:20:14Z</time></trkpt><trkpt lat="39.54044858285696" lon="9.375203716555164"><ele>154.0</ele><time>2026-04-11T07:20:15Z</time></trkpt><trkpt lat="39.54047766093776" lon="9.37494765030655"><ele>154.0</ele><time>2026-04-11T07:20:16Z</time></trkpt><trkpt lat="39.54053336780351" lon="9.374689711222219"><ele>154.0</ele><time>2026-04-11T07:20:17Z</time></trkpt><trkpt lat="39.540587985047125" lon="9.374430853863439"><ele>154.0</ele><time>2026-04-11T07:20:18Z</time></trkpt><trkpt lat="39.54067091056149" lon="9.374181866033368"><ele>156.66666666666669</ele><time>2026-04-11T07:20:19Z</time></trkpt><trkpt lat="39.540738912345994" lon="9.373933311304521"><ele>159.33333333333334</ele><time>2026-04-11T07:20:20Z</time></trkpt><trkpt lat="39.54077769037194" lon="9.373672909211294"><ele>162.0</ele><time>2026-04-11T07:20:21Z</time></trkpt><trkpt lat="39.540781611986546" lon="9.373402237993485"><ele>163.0</ele><time>2026-04-11T07:20:22Z</time></trkpt><trkpt lat="39.54074848124771" lon="9.373128404148352"><ele>164.0</ele><time>2026-04-11T07:20:23Z</time></trkpt><trkpt lat="39.54069364889798" lon="9.372861735799301"><ele>165.0</ele><time>2026-04-11T07:20:24Z</time></trkpt><trkpt lat="39.54063579623262" lon="9.372591260133756"><ele>163.0</ele><time>2026-04-11T07:20:25Z</time></trkpt><trkpt lat="39.54058134936106" lon="9.372320276945748"><ele>161.0</ele><time>2026-04-11T07:20:26Z</time></trkpt><trkpt lat="39.540524648711035" lon="9.372049401865004"><ele>159.0</ele><time>2026-04-11T07:20:27Z</time></trkpt><trkpt lat="39.54046679475522" lon="9.371779632928313"><ele>159.0</ele><time>2026-04-11T07:20:28Z</time></trkpt><trkpt lat="39.540409886635295" lon="9.371512382876029"><ele>159.0</ele><time>2026-04-11T07:20:29Z</time></trkpt><trkpt lat="39.5403542562808" lon="9.371245555764236"><ele>159.0</ele><time>2026-04-11T07:20:30Z</time></trkpt><trkpt lat="39.54031857968846" lon="9.370981412027037"><ele>168.0</ele><time>2026-04-11T07:20:31Z</time></trkpt><trkpt lat="39.54026851440913" lon="9.370727219887407"><ele>177.0</ele><time>2026-04-11T07:20:32Z</time></trkpt><trkpt lat="39.54020583664194" lon="9.37049080483921"><ele>186.0</ele><time>2026-04-11T07:20:33Z</time></trkpt><trkpt lat="39.54017176113836" lon="9.370257744285917"><ele>186.0</ele><time>2026-04-11T07:20:34Z</time></trkpt><trkpt lat="39.54016221859191" lon="9.370016017576202"><ele>186.0</ele><time>2026-04-11T07:20:35Z</time></trkpt><trkpt lat="39.54018522982632" lon="9.369766271781348"><ele>186.0</ele><time>2026-04-11T07:20:36Z</time></trkpt><trkpt lat="39.54024034316097" lon="9.369519540403813"><ele>192.33333333333331</ele><time>2026-04-11T07:20:37Z</time></trkpt><trkpt lat="39.54033043842808" lon="9.369287223203658"><ele>198.66666666666666</ele><time>2026-04-11T07:20:38Z</time></trkpt><trkpt lat="39.540456952307586" lon="9.369077517639186"><ele>205.0</ele><time>2026-04-11T07:20:39Z</time></trkpt><trkpt lat="39.5406065624232" lon="9.368899416955326"><ele>199.66666666666666</ele><time>2026-04-11T07:20:40Z</time></trkpt><trkpt lat="39.540778319503225" lon="9.368754628855493"><ele>194.33333333333331</ele><time>2026-04-11T07:20:41Z</time></trkpt><trkpt lat="39.54096584769869" lon="9.368645985580226"><ele>189.0</ele><time>2026-04-11T07:20:42Z</time></trkpt><trkpt lat="39.54116980323102" lon="9.368583372010406"><ele>182.33333333333334</ele><time>2026-04-11T07:20:43Z</time></trkpt><trkpt lat="39.541382979372045" lon="9.368547880372713"><ele>175.66666666666669</ele><time>2026-04-11T07:20:44Z</time></trkpt><trkpt lat="39.54159974836959" lon="9.368517960675394"><ele>169.0</ele><time>2026-04-11T07:20:45Z</time></trkpt><trkpt lat="39.54181324626428" lon="9.368471080654949"><ele>169.0</ele><time>2026-04-11T07:20:46Z</time></trkpt><trkpt lat="39.54202058257055" lon="9.36840819903423"><ele>169.0</ele><time>2026-04-11T07:20:47Z</time></trkpt><trkpt lat="39.542217235321694" lon="9.368311820743688"><ele>169.0</ele><time>2026-04-11T07:20:48Z</time></trkpt><trkpt lat="39.54240177633851" lon="9.368171509593967"><ele>169.33333333333334</ele><time>2026-04-11T07:20:49Z</time></trkpt><trkpt lat="39.54257096690673" lon="9.367994085945412"><ele>169.66666666666666</ele><time>2026-04-11T07:20:50Z</time></trkpt><trkpt lat="39.5427180902966" lon="9.367784579328884"><ele>170.0</ele><time>2026-04-11T07:20:51Z</time></trkpt><trkpt lat="39.54283111844997" lon="9.367548938705122"><ele>165.66666666666666</ele><time>2026-04-11T07:20:52Z</time></trkpt><trkpt lat="39.54290671463288" lon="9.367294913731401"><ele>161.33333333333334</ele><time>2026-04-11T07:20:53Z</time></trkpt><trkpt lat="39.54295566682639" lon="9.367026085643408"><ele>157.0</ele><time>2026-04-11T07:20:54Z</time></trkpt><trkpt lat="39.54299192163115" lon="9.36674932633498"><ele>157.0</ele><time>2026-04-11T07:20:55Z</time></trkpt><trkpt lat="39.54303226410991" lon="9.366467702712802"><ele>157.0</ele><time>2026-04-11T07:20:56Z</time></trkpt><trkpt lat="39.54307452331039" lon="9.366187484144636"><ele>157.0</ele><time>2026-04-11T07:20:57Z</time></trkpt><trkpt lat="39.543118719208515" lon="9.365911539324253"><ele>156.66666666666669</ele><time>2026-04-11T07:20:58Z</time></trkpt><trkpt lat="39.543162258882624" lon="9.36564530193801"><ele>156.33333333333334</ele><time>2026-04-11T07:20:59Z</time></trkpt><trkpt lat="39.54320382073275" lon="9.3653874289389"><ele>156.0</ele><time>2026-04-11T07:21:00Z</time></trkpt><trkpt lat="39.54324836439549" lon="9.365137708499471"><ele>157.33333333333334</ele><time>2026-04-11T07:21:01Z</time></trkpt><trkpt lat="39.54331638945328" lon="9.36489967045818"><ele>158.66666666666669</ele><time>2026-04-11T07:21:02Z</time></trkpt><trkpt lat="39.5434083996219" lon="9.364686036357552"><ele>160.0</ele><time>2026-04-11T07:21:03Z</time></trkpt><trkpt lat="39.543534137659755" lon="9.364500449580905"><ele>157.66666666666669</ele><time>2026-04-11T07:21:04Z</time></trkpt><trkpt lat="39.54368393910783" lon="9.36433848783032"><ele>155.33333333333334</ele><time>2026-04-11T07:21:05Z</time></trkpt><trkpt lat="39.543855056656824" lon="9.364208410441627"><ele>153.0</ele><time>2026-04-11T07:21:06Z</time></trkpt><trkpt lat="39.544039305075685" lon="9.364126816990831"><ele>153.0</ele><time>2026-04-11T07:21:07Z</time></trkpt><trkpt lat="39.54422940557824" lon="9.364088390904598"><ele>153.0</ele><time>2026-04-11T07:21:08Z</time></trkpt><trkpt lat="39.54441868011562" lon="9.364087696565432"><ele>153.0</ele><time>2026-04-11T07:21:09Z</time></trkpt><trkpt lat="39.54460683187142" lon="9.364121752373347"><ele>152.0</ele><time>2026-04-11T07:21:10Z</time></trkpt><trkpt lat="39.54478826424595" lon="9.364190968990899"><ele>151.0</ele><time>2026-04-11T07:21:11Z</time></trkpt><trkpt lat="39.54496375704097" lon="9.364276421290661"><ele>150.0</ele><time>2026-04-11T07:21:12Z</time></trkpt><trkpt lat="39.5451403261131" lon="9.364359907580196"><ele>150.0</ele><time>2026-04-11T07:21:13Z</time></trkpt><trkpt lat="39.54531375352126" lon="9.36438403730948"><ele>150.0</ele><time>2026-04-11T07:21:14Z</time></trkpt><trkpt lat="39.5454891822334" lon="9.364371372007005"><ele>150.0</ele><time>2026-04-11T07:21:15Z</time></trkpt><trkpt lat="39.54566452438021" lon="9.364324251442726"><ele>145.0</ele><time>2026-04-11T07:21:16Z</time></trkpt><trkpt lat="39.54583107303762" lon="9.364242844461925"><ele>140.0</ele><time>2026-04-11T07:21:17Z</time></trkpt><trkpt lat="39.54598075667274" lon="9.364130707986781"><ele>135.0</ele><time>2026-04-11T07:21:18Z</time></trkpt><trkpt lat="39.54611966393617" lon="9.364011414250989"><ele>133.0</ele><time>2026-04-11T07:21:19Z</time></trkpt><trkpt lat="39.546257397106345" lon="9.363908057311814"><ele>131.0</ele><time>2026-04-11T07:21:20Z</time></trkpt><trkpt lat="39.54639810430946" lon="9.363814527109339"><ele>129.0</ele><time>2026-04-11T07:21:21Z</time></trkpt><trkpt lat="39.546536259244114" lon="9.363729343205396"><ele>129.0</ele><time>2026-04-11T07:21:22Z</time></trkpt><trkpt lat="39.546669770226366" lon="9.363642971949663"><ele>129.0</ele><time>2026-04-11T07:21:23Z</time></trkpt><trkpt lat="39.5467961743371" lon="9.363555635273714"><ele>129.0</ele><time>2026-04-11T07:21:24Z</time></trkpt><trkpt lat="39.54691014861775" lon="9.363469044176195"><ele>129.0</ele><time>2026-04-11T07:21:25Z</time></trkpt><trkpt lat="39.547008810922755" lon="9.363363355605857"><ele>124.75</ele><time>2026-04-11T07:21:26Z</time></trkpt><trkpt lat="39.54708539470434" lon="9.3632268772088"><ele>120.5</ele><time>2026-04-11T07:21:27Z</time></trkpt><trkpt lat="39.54713086688828" lon="9.363070305752236"><ele>116.25</ele><time>2026-04-11T07:21:28Z</time></trkpt><trkpt lat="39.547154159312" lon="9.36290687255514"><ele>112.0</ele><time>2026-04-11T07:21:29Z</time></trkpt><trkpt lat="39.54717804041322" lon="9.362746678127461"><ele>112.0</ele><time>2026-04-11T07:21:30Z</time></trkpt><trkpt lat="39.54721058517124" lon="9.362586614887748"><ele>112.0</ele><time>2026-04-11T07:21:31Z</time></trkpt><trkpt lat="39.54724494898008" lon="9.362428958920857"><ele>112.0</ele><time>2026-04-11T07:21:32Z</time></trkpt><trkpt lat="39.54726960230112" lon="9.362277473247739"><ele>112.0</ele><time>2026-04-11T07:21:33Z</time></trkpt><trkpt lat="39.54728410815048" lon="9.362134348784497"><ele>113.8</ele><time>2026-04-11T07:21:34Z</time></trkpt><trkpt lat="39.54731581399332" lon="9.362005527249934"><ele>115.6</ele><time>2026-04-11T07:21:35Z</time></trkpt><trkpt lat="39.547386866415984" lon="9.361910646736092"><ele>117.39999999999999</ele><time>2026-04-11T07:21:36Z</time></trkpt><trkpt lat="39.54748038134403" lon="9.361859950042742"><ele>119.19999999999999</ele><time>2026-04-11T07:21:37Z</time></trkpt><trkpt lat="39.54758415642721" lon="9.361847244957763"><ele>121.0</ele><time>2026-04-11T07:21:38Z</time></trkpt><trkpt lat="39.54769611882091" lon="9.361854120080222"><ele>121.0</ele><time>2026-04-11T07:21:39Z</time></trkpt><trkpt lat="39.547813819539606" lon="9.361870027737446"><ele>121.0</ele><time>2026-04-11T07:21:40Z</time></trkpt><trkpt lat="39.547930132068636" lon="9.361911172293539"><ele>121.0</ele><time>2026-04-11T07:21:41Z</time></trkpt><trkpt lat="39.548046033618924" lon="9.361953567130396"><ele>121.0</ele><time>2026-04-11T07:21:42Z</time></trkpt><trkpt lat="39.54816057134728" lon="9.361994748205404"><ele>119.19999999999999</ele><time>2026-04-11T07:21:43Z</time></trkpt><trkpt lat="39.54827224038534" lon="9.362021745508537"><ele>117.39999999999999</ele><time>2026-04-11T07:21:44Z</time></trkpt><trkpt lat="39.54837877237891" lon="9.362007909594464"><ele>115.6</ele><time>2026-04-11T07:21:45Z</time></trkpt><trkpt lat="39.54847284726189" lon="9.361945573664359"><ele>113.8</ele><time>2026-04-11T07:21:46Z</time></trkpt><trkpt lat="39.54854992855583" lon="9.361842521797584"><ele>112.0</ele><time>2026-04-11T07:21:47Z</time></trkpt><trkpt lat="39.548623669570524" lon="9.361732256493646"><ele>112.0</ele><time>2026-04-11T07:21:48Z</time></trkpt><trkpt lat="39.5486925104583" lon="9.361619008508754"><ele>112.0</ele><time>2026-04-11T07:21:49Z</time></trkpt><trkpt lat="39.54874846834254" lon="9.36148520259661"><ele>112.0</ele><time>2026-04-11T07:21:50Z</time></trkpt><trkpt lat="39.54878837088944" lon="9.361335026207877"><ele>112.0</ele><time>2026-04-11T07:21:51Z</time></trkpt><trkpt lat="39.54881636421522" lon="9.36117641721597"><ele>107.75</ele><time>2026-04-11T07:21:52Z</time></trkpt><trkpt lat="39.548840548497736" lon="9.361018407158342"><ele>103.5</ele><time>2026-04-11T07:21:53Z</time></trkpt><trkpt lat="39.54885645050328" lon="9.360871825388239"><ele>99.25</ele><time>2026-04-11T07:21:54Z</time></trkpt><trkpt lat="39.548827166608596" lon="9.360728759219894"><ele>95.0</ele><time>2026-04-11T07:21:55Z</time></trkpt><trkpt lat="39.548769054437045" lon="9.36059756308866"><ele>94.6</ele><time>2026-04-11T07:21:56Z</time></trkpt><trkpt lat="39.54871293124679" lon="9.36046472892661"><ele>94.2</ele><time>2026-04-11T07:21:57Z</time></trkpt><trkpt lat="39.548683279618544" lon="9.360363324861076"><ele>93.80000000000001</ele><time>2026-04-11T07:21:58Z</time></trkpt><trkpt lat="39.54859878072687" lon="9.36027775633003"><ele>93.4</ele><time>2026-04-11T07:21:59Z</time></trkpt><trkpt lat="39.548497298602236" lon="9.360228366310205"><ele>93.0</ele><time>2026-04-11T07:22:00Z</time></trkpt><trkpt lat="39.5483884656639" lon="9.360214262211612"><ele>93.80000000000001</ele><time>2026-04-11T07:22:01Z</time></trkpt><trkpt lat="39.54828317121008" lon="9.360213445923803"><ele>94.6</ele><time>2026-04-11T07:22:02Z</time></trkpt><trkpt lat="39.54818182908883" lon="9.36018768517759"><ele>95.4</ele><time>2026-04-11T07:22:03Z</time></trkpt><trkpt lat="39.5481054336862" lon="9.360104997426573"><ele>96.19999999999999</ele><time>2026-04-11T07:22:04Z</time></trkpt><trkpt lat="39.5480309480704" lon="9.36002143892678"><ele>97.0</ele><time>2026-04-11T07:22:05Z</time></trkpt><trkpt lat="39.54797170019947" lon="9.359928249497118"><ele>97.0</ele><time>2026-04-11T07:22:06Z</time></trkpt><trkpt lat="39.54793266176759" lon="9.359830362401661"><ele>97.0</ele><time>2026-04-11T07:22:07Z</time></trkpt><trkpt lat="39.547928710322275" lon="9.359741721068085"><ele>97.0</ele><time>2026-04-11T07:22:08Z</time></trkpt><trkpt lat="39.547990625445024" lon="9.359614980997161"><ele>97.0</ele><time>2026-04-11T07:22:10Z</time></trkpt><trkpt lat="39.54806673092541" lon="9.359519354385998"><ele>97.0</ele><time>2026-04-11T07:22:12Z</time></trkpt><trkpt lat="39.54817940503101" lon="9.359558458483306"><ele>97.0</ele><time>2026-04-11T07:22:14Z</time></trkpt><trkpt lat="39.54824116918246" lon="9.35962730527863"><ele>97.0</ele><time>2026-04-11T07:22:15Z</time></trkpt><trkpt lat="39.54831739067566" lon="9.359700915750581"><ele>97.0</ele><time>2026-04-11T07:22:16Z</time></trkpt><trkpt lat="39.54838529786409" lon="9.35979671104694"><ele>97.0</ele><time>2026-04-11T07:22:17Z</time></trkpt><trkpt lat="39.54846456499445" lon="9.359893338208378"><ele>97.0</ele><time>2026-04-11T07:22:18Z</time></trkpt><trkpt lat="39.548547331198954" lon="9.359989311734804"><ele>97.0</ele><time>2026-04-11T07:22:19Z</time></trkpt><trkpt lat="39.548646234202536" lon="9.360094594655687"><ele>97.0</ele><time>2026-04-11T07:22:20Z</time></trkpt><trkpt lat="39.54872767744367" lon="9.36018914894283"><ele>97.0</ele><time>2026-04-11T07:22:21Z</time></trkpt><trkpt lat="39.54880214175314" lon="9.360281901275773"><ele>97.0</ele><time>2026-04-11T07:22:22Z</time></trkpt><trkpt lat="39.54888101796029" lon="9.360375674465194"><ele>97.0</ele><time>2026-04-11T07:22:23Z</time></trkpt><trkpt lat="39.54896163250749" lon="9.360462166370427"><ele>96.6</ele><time>2026-04-11T07:22:24Z</time></trkpt><trkpt lat="39.549038579967615" lon="9.360549924363342"><ele>96.19999999999999</ele><time>2026-04-11T07:22:25Z</time></trkpt><trkpt lat="39.54911298187116" lon="9.360642403521249"><ele>95.8</ele><time>2026-04-11T07:22:26Z</time></trkpt><trkpt lat="39.549188395667244" lon="9.360739055853315"><ele>95.4</ele><time>2026-04-11T07:22:27Z</time></trkpt><trkpt lat="39.54925484676844" lon="9.360847130242627"><ele>95.0</ele><time>2026-04-11T07:22:28Z</time></trkpt><trkpt lat="39.549291608887785" lon="9.360975412282594"><ele>95.0</ele><time>2026-04-11T07:22:29Z</time></trkpt><trkpt lat="39.54930545506617" lon="9.361119931561017"><ele>95.0</ele><time>2026-04-11T07:22:30Z</time></trkpt><trkpt lat="39.54931130241395" lon="9.36125737193241"><ele>95.0</ele><time>2026-04-11T07:22:31Z</time></trkpt><trkpt lat="39.5493301265331" lon="9.36137627780013"><ele>95.0</ele><time>2026-04-11T07:22:32Z</time></trkpt><trkpt lat="39.54934562960184" lon="9.361476180024972"><ele>95.0</ele><time>2026-04-11T07:22:33Z</time></trkpt><trkpt lat="39.54936300545801" lon="9.361568010358269"><ele>95.16666666666667</ele><time>2026-04-11T07:22:34Z</time></trkpt><trkpt lat="39.549377988481844" lon="9.361650684882239"><ele>95.33333333333334</ele><time>2026-04-11T07:22:35Z</time></trkpt><trkpt lat="39.54939315137809" lon="9.361818324316731"><ele>95.5</ele><time>2026-04-11T07:22:37Z</time></trkpt><trkpt lat="39.54939818238155" lon="9.361914389322271"><ele>95.66666666666667</ele><time>2026-04-11T07:22:38Z</time></trkpt><trkpt lat="39.549378178049444" lon="9.362021436550556"><ele>95.83333333333333</ele><time>2026-04-11T07:22:39Z</time></trkpt><trkpt lat="39.54936861619951" lon="9.362121024212989"><ele>96.0</ele><time>2026-04-11T07:22:40Z</time></trkpt><trkpt lat="39.5493730330816" lon="9.362216025958187"><ele>96.5</ele><time>2026-04-11T07:22:41Z</time></trkpt><trkpt lat="39.54933221413107" lon="9.36234843093631"><ele>97.0</ele><time>2026-04-11T07:22:43Z</time></trkpt><trkpt lat="39.54939559922832" lon="9.362413990963125"><ele>97.5</ele><time>2026-04-11T07:22:44Z</time></trkpt><trkpt lat="39.54945579205928" lon="9.362439448609141"><ele>98.0</ele><time>2026-04-11T07:22:45Z</time></trkpt><trkpt lat="39.54952507795403" lon="9.362428183672087"><ele>98.5</ele><time>2026-04-11T07:22:46Z</time></trkpt><trkpt lat="39.549590439760046" lon="9.362408697199239"><ele>99.0</ele><time>2026-04-11T07:22:47Z</time></trkpt><trkpt lat="39.54965327468545" lon="9.362374571204954"><ele>97.4</ele><time>2026-04-11T07:22:48Z</time></trkpt><trkpt lat="39.549726352698684" lon="9.362331417935522"><ele>95.80000000000001</ele><time>2026-04-11T07:22:49Z</time></trkpt><trkpt lat="39.54980734637955" lon="9.362298766015504"><ele>94.19999999999999</ele><time>2026-04-11T07:22:50Z</time></trkpt><trkpt lat="39.549892582938845" lon="9.362260805357476"><ele>92.6</ele><time>2026-04-11T07:22:51Z</time></trkpt><trkpt lat="39.54998739774569" lon="9.362217635226262"><ele>91.0</ele><time>2026-04-11T07:22:52Z</time></trkpt><trkpt lat="39.550080321433086" lon="9.362172112611633"><ele>90.8</ele><time>2026-04-11T07:22:53Z</time></trkpt><trkpt lat="39.550174658737504" lon="9.362123203926558"><ele>90.6</ele><time>2026-04-11T07:22:54Z</time></trkpt><trkpt lat="39.55026539401857" lon="9.362078646695428"><ele>90.4</ele><time>2026-04-11T07:22:55Z</time></trkpt><trkpt lat="39.55035654257812" lon="9.362037929021046"><ele>90.2</ele><time>2026-04-11T07:22:56Z</time></trkpt><trkpt lat="39.55044352629784" lon="9.361991931593094"><ele>90.0</ele><time>2026-04-11T07:22:57Z</time></trkpt><trkpt lat="39.550527307984446" lon="9.361936517789589"><ele>89.4</ele><time>2026-04-11T07:22:58Z</time></trkpt><trkpt lat="39.55060257977321" lon="9.361863747332777"><ele>88.8</ele><time>2026-04-11T07:22:59Z</time></trkpt><trkpt lat="39.550666797822124" lon="9.361776438949446"><ele>88.19999999999999</ele><time>2026-04-11T07:23:00Z</time></trkpt><trkpt lat="39.55072213045599" lon="9.361686957803977"><ele>87.6</ele><time>2026-04-11T07:23:01Z</time></trkpt><trkpt lat="39.55077961664571" lon="9.361594874034267"><ele>87.0</ele><time>2026-04-11T07:23:02Z</time></trkpt><trkpt lat="39.550842169586986" lon="9.361497321715897"><ele>87.0</ele><time>2026-04-11T07:23:03Z</time></trkpt><trkpt lat="39.55090782366268" lon="9.361396395860432"><ele>87.0</ele><time>2026-04-11T07:23:04Z</time></trkpt><trkpt lat="39.5509762557015" lon="9.361289231713585"><ele>87.0</ele><time>2026-04-11T07:23:05Z</time></trkpt><trkpt lat="39.55104215921774" lon="9.36118224705853"><ele>87.0</ele><time>2026-04-11T07:23:06Z</time></trkpt><trkpt lat="39.551112588537876" lon="9.361070605322316"><ele>87.0</ele><time>2026-04-11T07:23:07Z</time></trkpt><trkpt lat="39.551187325379594" lon="9.36094756407978"><ele>86.75</ele><time>2026-04-11T07:23:08Z</time></trkpt><trkpt lat="39.55126345879729" lon="9.3608163841312"><ele>86.5</ele><time>2026-04-11T07:23:09Z</time></trkpt><trkpt lat="39.55134147714532" lon="9.360682007225597"><ele>86.25</ele><time>2026-04-11T07:23:10Z</time></trkpt><trkpt lat="39.55141328956595" lon="9.360539147117402"><ele>86.0</ele><time>2026-04-11T07:23:11Z</time></trkpt><trkpt lat="39.55147315491223" lon="9.360382194511967"><ele>86.0</ele><time>2026-04-11T07:23:12Z</time></trkpt><trkpt lat="39.551524894941316" lon="9.360219836057018"><ele>86.0</ele><time>2026-04-11T07:23:13Z</time></trkpt><trkpt lat="39.551574223565325" lon="9.360066892429252"><ele>86.0</ele><time>2026-04-11T07:23:14Z</time></trkpt><trkpt lat="39.55162415155835" lon="9.359908098120561"><ele>86.0</ele><time>2026-04-11T07:23:15Z</time></trkpt><trkpt lat="39.55167091032325" lon="9.359743977644188"><ele>86.0</ele><time>2026-04-11T07:23:16Z</time></trkpt><trkpt lat="39.55172256237368" lon="9.359573378560443"><ele>86.0</ele><time>2026-04-11T07:23:17Z</time></trkpt><trkpt lat="39.551780378559386" lon="9.359401204211903"><ele>86.0</ele><time>2026-04-11T07:23:18Z</time></trkpt><trkpt lat="39.55183760254443" lon="9.359222194379733"><ele>86.0</ele><time>2026-04-11T07:23:19Z</time></trkpt><trkpt lat="39.55190346037193" lon="9.359044017796943"><ele>86.33333333333334</ele><time>2026-04-11T07:23:20Z</time></trkpt><trkpt lat="39.55195952965461" lon="9.35885570382072"><ele>86.66666666666667</ele><time>2026-04-11T07:23:21Z</time></trkpt><trkpt lat="39.55201970417115" lon="9.358666583272909"><ele>87.0</ele><time>2026-04-11T07:23:22Z</time></trkpt><trkpt lat="39.55208428484176" lon="9.358473202056773"><ele>86.33333333333333</ele><time>2026-04-11T07:23:23Z</time></trkpt><trkpt lat="39.55214902836379" lon="9.358276150867617"><ele>85.66666666666666</ele><time>2026-04-11T07:23:24Z</time></trkpt><trkpt lat="39.55221378700711" lon="9.358077968388105"><ele>85.0</ele><time>2026-04-11T07:23:25Z</time></trkpt><trkpt lat="39.55228136124241" lon="9.357877305822269"><ele>85.0</ele><time>2026-04-11T07:23:26Z</time></trkpt><trkpt lat="39.552343756534" lon="9.357679587879405"><ele>85.0</ele><time>2026-04-11T07:23:27Z</time></trkpt><trkpt lat="39.55240830422994" lon="9.357479514149436"><ele>85.0</ele><time>2026-04-11T07:23:28Z</time></trkpt><trkpt lat="39.55247087133376" lon="9.357273479904345"><ele>84.66666666666666</ele><time>2026-04-11T07:23:29Z</time></trkpt><trkpt lat="39.55253492747357" lon="9.357073035997807"><ele>84.33333333333333</ele><time>2026-04-11T07:23:30Z</time></trkpt><trkpt lat="39.55260299641284" lon="9.356868810481709"><ele>84.0</ele><time>2026-04-11T07:23:31Z</time></trkpt><trkpt lat="39.55266852612367" lon="9.356664108544297"><ele>84.0</ele><time>2026-04-11T07:23:32Z</time></trkpt><trkpt lat="39.552733951799446" lon="9.356454516845732"><ele>84.0</ele><time>2026-04-11T07:23:33Z</time></trkpt><trkpt lat="39.5527993536605" lon="9.356245235747904"><ele>84.0</ele><time>2026-04-11T07:23:34Z</time></trkpt><trkpt lat="39.55286682351893" lon="9.35603177455639"><ele>83.66666666666667</ele><time>2026-04-11T07:23:35Z</time></trkpt><trkpt lat="39.55293388403865" lon="9.355815836888242"><ele>83.33333333333334</ele><time>2026-04-11T07:23:36Z</time></trkpt><trkpt lat="39.55300545722117" lon="9.355598410210211"><ele>83.0</ele><time>2026-04-11T07:23:37Z</time></trkpt><trkpt lat="39.553075831456454" lon="9.355384404720333"><ele>83.0</ele><time>2026-04-11T07:23:38Z</time></trkpt><trkpt lat="39.553148852712674" lon="9.35516340283226"><ele>83.0</ele><time>2026-04-11T07:23:39Z</time></trkpt><trkpt lat="39.55321643591754" lon="9.35494525307776"><ele>83.0</ele><time>2026-04-11T07:23:40Z</time></trkpt><trkpt lat="39.55328498858074" lon="9.354726589710632"><ele>84.0</ele><time>2026-04-11T07:23:41Z</time></trkpt><trkpt lat="39.55335110461256" lon="9.354514180526143"><ele>85.0</ele><time>2026-04-11T07:23:42Z</time></trkpt><trkpt lat="39.55342195929313" lon="9.354308272278132"><ele>86.0</ele><time>2026-04-11T07:23:43Z</time></trkpt><trkpt lat="39.55348733563404" lon="9.354106979708018"><ele>86.0</ele><time>2026-04-11T07:23:44Z</time></trkpt><trkpt lat="39.553541425281466" lon="9.35391704368534"><ele>86.0</ele><time>2026-04-11T07:23:45Z</time></trkpt><trkpt lat="39.55361224458958" lon="9.353740500219386"><ele>86.0</ele><time>2026-04-11T07:23:46Z</time></trkpt><trkpt lat="39.553663791902146" lon="9.353585333861592"><ele>86.0</ele><time>2026-04-11T07:23:47Z</time></trkpt><trkpt lat="39.55375137987015" lon="9.353471712636692"><ele>85.75</ele><time>2026-04-11T07:23:48Z</time></trkpt><trkpt lat="39.55385543558419" lon="9.353419118471528"><ele>85.5</ele><time>2026-04-11T07:23:49Z</time></trkpt><trkpt lat="39.5539548981006" lon="9.35342402579068"><ele>85.25</ele><time>2026-04-11T07:23:50Z</time></trkpt><trkpt lat="39.55406426920705" lon="9.353494811627284"><ele>85.0</ele><time>2026-04-11T07:23:51Z</time></trkpt><trkpt lat="39.554192971519036" lon="9.353553071941677"><ele>85.0</ele><time>2026-04-11T07:23:52Z</time></trkpt><trkpt lat="39.55433002979528" lon="9.353600534451559"><ele>85.0</ele><time>2026-04-11T07:23:53Z</time></trkpt><trkpt lat="39.55447146283808" lon="9.35366789037442"><ele>85.0</ele><time>2026-04-11T07:23:54Z</time></trkpt><trkpt lat="39.55462299829584" lon="9.353736711589741"><ele>84.66666666666666</ele><time>2026-04-11T07:23:55Z</time></trkpt><trkpt lat="39.55477936347272" lon="9.353805636245982"><ele>84.33333333333333</ele><time>2026-04-11T07:23:56Z</time></trkpt><trkpt lat="39.554934616618254" lon="9.353875607842749"><ele>84.0</ele><time>2026-04-11T07:23:57Z</time></trkpt><trkpt lat="39.55508844404765" lon="9.353943283858838"><ele>83.66666666666667</ele><time>2026-04-11T07:23:58Z</time></trkpt><trkpt lat="39.55523600228849" lon="9.354012168592103"><ele>83.33333333333334</ele><time>2026-04-11T07:23:59Z</time></trkpt><trkpt lat="39.5553831222676" lon="9.35406640304955"><ele>83.0</ele><time>2026-04-11T07:24:00Z</time></trkpt><trkpt lat="39.555532932781475" lon="9.354092975287136"><ele>83.66666666666667</ele><time>2026-04-11T07:24:01Z</time></trkpt><trkpt lat="39.5556857275862" lon="9.354072312699456"><ele>84.33333333333333</ele><time>2026-04-11T07:24:02Z</time></trkpt><trkpt lat="39.55583819516305" lon="9.353995208115302"><ele>85.0</ele><time>2026-04-11T07:24:03Z</time></trkpt><trkpt lat="39.55596769847211" lon="9.353862919434269"><ele>85.0</ele><time>2026-04-11T07:24:04Z</time></trkpt><trkpt lat="39.556065379519495" lon="9.353682485211072"><ele>85.0</ele><time>2026-04-11T07:24:05Z</time></trkpt><trkpt lat="39.556139122726755" lon="9.353477522598466"><ele>85.0</ele><time>2026-04-11T07:24:06Z</time></trkpt><trkpt lat="39.5562164469112" lon="9.353275514410228"><ele>86.0</ele><time>2026-04-11T07:24:07Z</time></trkpt><trkpt lat="39.5563092905434" lon="9.353084250502253"><ele>87.0</ele><time>2026-04-11T07:24:08Z</time></trkpt><trkpt lat="39.55642984030258" lon="9.352923828432719"><ele>88.0</ele><time>2026-04-11T07:24:09Z</time></trkpt><trkpt lat="39.55656157034742" lon="9.352776535531609"><ele>88.0</ele><time>2026-04-11T07:24:10Z</time></trkpt><trkpt lat="39.556710974426025" lon="9.35266167033447"><ele>88.0</ele><time>2026-04-11T07:24:11Z</time></trkpt><trkpt lat="39.55687675812217" lon="9.352553262200027"><ele>88.0</ele><time>2026-04-11T07:24:12Z</time></trkpt><trkpt lat="39.55704971224195" lon="9.352424250191246"><ele>88.0</ele><time>2026-04-11T07:24:13Z</time></trkpt><trkpt lat="39.55722382525101" lon="9.352316201474988"><ele>88.0</ele><time>2026-04-11T07:24:14Z</time></trkpt><trkpt lat="39.55739984050427" lon="9.352202625288337"><ele>88.0</ele><time>2026-04-11T07:24:15Z</time></trkpt><trkpt lat="39.55757770497357" lon="9.35208585732635"><ele>88.0</ele><time>2026-04-11T07:24:16Z</time></trkpt><trkpt lat="39.55775477126627" lon="9.351965274999337"><ele>88.0</ele><time>2026-04-11T07:24:17Z</time></trkpt><trkpt lat="39.55793353321019" lon="9.351843975989514"><ele>88.0</ele><time>2026-04-11T07:24:18Z</time></trkpt><trkpt lat="39.55811397085935" lon="9.35172777022322"><ele>88.33333333333333</ele><time>2026-04-11T07:24:19Z</time></trkpt><trkpt lat="39.558297390643226" lon="9.351609518520585"><ele>88.66666666666667</ele><time>2026-04-11T07:24:20Z</time></trkpt><trkpt lat="39.55848060692047" lon="9.351490085271536"><ele>89.0</ele><time>2026-04-11T07:24:21Z</time></trkpt><trkpt lat="39.55866456255868" lon="9.35136634349948"><ele>89.33333333333334</ele><time>2026-04-11T07:24:22Z</time></trkpt><trkpt lat="39.558849165096674" lon="9.351245032912972"><ele>89.66666666666667</ele><time>2026-04-11T07:24:23Z</time></trkpt><trkpt lat="39.55903563994215" lon="9.35112596297337"><ele>90.0</ele><time>2026-04-11T07:24:24Z</time></trkpt><trkpt lat="39.55922205268768" lon="9.351006397913721"><ele>90.0</ele><time>2026-04-11T07:24:25Z</time></trkpt><trkpt lat="39.559408198349864" lon="9.350885224774037"><ele>90.0</ele><time>2026-04-11T07:24:26Z</time></trkpt><trkpt lat="39.55959273084218" lon="9.350760553562017"><ele>90.0</ele><time>2026-04-11T07:24:27Z</time></trkpt><trkpt lat="39.55977728485137" lon="9.350638959869151"><ele>89.66666666666667</ele><time>2026-04-11T07:24:28Z</time></trkpt><trkpt lat="39.55995895407433" lon="9.35052127789085"><ele>89.33333333333334</ele><time>2026-04-11T07:24:29Z</time></trkpt><trkpt lat="39.56013798544523" lon="9.350405936440794"><ele>89.0</ele><time>2026-04-11T07:24:30Z</time></trkpt><trkpt lat="39.560314446768125" lon="9.350288299521695"><ele>89.0</ele><time>2026-04-11T07:24:31Z</time></trkpt><trkpt lat="39.560486453400806" lon="9.350171996092994"><ele>89.0</ele><time>2026-04-11T07:24:32Z</time></trkpt><trkpt lat="39.56065689082614" lon="9.35006425567629"><ele>89.0</ele><time>2026-04-11T07:24:33Z</time></trkpt><trkpt lat="39.56083288961623" lon="9.349965633212816"><ele>89.0</ele><time>2026-04-11T07:24:34Z</time></trkpt><trkpt lat="39.561020550694145" lon="9.349909800109577"><ele>89.0</ele><time>2026-04-11T07:24:35Z</time></trkpt><trkpt lat="39.561211843386516" lon="9.349885047530387"><ele>89.0</ele><time>2026-04-11T07:24:36Z</time></trkpt><trkpt lat="39.56140758687923" lon="9.349866829197852"><ele>89.0</ele><time>2026-04-11T07:24:37Z</time></trkpt><trkpt lat="39.56160621440532" lon="9.349885329852144"><ele>89.0</ele><time>2026-04-11T07:24:38Z</time></trkpt><trkpt lat="39.56180525884305" lon="9.349898731582327"><ele>89.0</ele><time>2026-04-11T07:24:39Z</time></trkpt><trkpt lat="39.562008449926765" lon="9.349907064249305"><ele>90.33333333333334</ele><time>2026-04-11T07:24:40Z</time></trkpt><trkpt lat="39.56221436747917" lon="9.34991281072118"><ele>91.66666666666667</ele><time>2026-04-11T07:24:41Z</time></trkpt><trkpt lat="39.562423914320604" lon="9.349920278119754"><ele>93.0</ele><time>2026-04-11T07:24:42Z</time></trkpt><trkpt lat="39.56263771948783" lon="9.34992580125753"><ele>93.0</ele><time>2026-04-11T07:24:43Z</time></trkpt><trkpt lat="39.56285431764184" lon="9.349927854615048"><ele>93.0</ele><time>2026-04-11T07:24:44Z</time></trkpt><trkpt lat="39.56307273752965" lon="9.349932732163095"><ele>93.0</ele><time>2026-04-11T07:24:45Z</time></trkpt><trkpt lat="39.56329097609296" lon="9.349943479171792"><ele>93.66666666666667</ele><time>2026-04-11T07:24:46Z</time></trkpt><trkpt lat="39.56351012261051" lon="9.349952732594746"><ele>94.33333333333334</ele><time>2026-04-11T07:24:47Z</time></trkpt><trkpt lat="39.563730824853856" lon="9.349962456397298"><ele>95.0</ele><time>2026-04-11T07:24:48Z</time></trkpt><trkpt lat="39.56395101847544" lon="9.349973300869692"><ele>95.66666666666667</ele><time>2026-04-11T07:24:49Z</time></trkpt><trkpt lat="39.564170580740566" lon="9.34998019471699"><ele>96.33333333333334</ele><time>2026-04-11T07:24:50Z</time></trkpt><trkpt lat="39.56439224931983" lon="9.349985331745822"><ele>97.0</ele><time>2026-04-11T07:24:51Z</time></trkpt><trkpt lat="39.56461482179964" lon="9.349989988187867"><ele>97.66666666666667</ele><time>2026-04-11T07:24:52Z</time></trkpt><trkpt lat="39.564834845892676" lon="9.349999283078214"><ele>98.33333333333334</ele><time>2026-04-11T07:24:53Z</time></trkpt><trkpt lat="39.56505640137977" lon="9.350010359379976"><ele>99.0</ele><time>2026-04-11T07:24:54Z</time></trkpt><trkpt lat="39.5652746004317" lon="9.350018986995877"><ele>100.33333333333334</ele><time>2026-04-11T07:24:55Z</time></trkpt><trkpt lat="39.5654914717979" lon="9.350024606673136"><ele>101.66666666666667</ele><time>2026-04-11T07:24:56Z</time></trkpt><trkpt lat="39.56570456060172" lon="9.350031515815845"><ele>103.0</ele><time>2026-04-11T07:24:57Z</time></trkpt><trkpt lat="39.565912421148916" lon="9.350041151177871"><ele>103.0</ele><time>2026-04-11T07:24:58Z</time></trkpt><trkpt lat="39.56611201414396" lon="9.350039525053756"><ele>103.0</ele><time>2026-04-11T07:24:59Z</time></trkpt><trkpt lat="39.566308475779415" lon="9.350011469089615"><ele>103.0</ele><time>2026-04-11T07:25:00Z</time></trkpt><trkpt lat="39.56650234968069" lon="9.349946095421558"><ele>104.0</ele><time>2026-04-11T07:25:01Z</time></trkpt><trkpt lat="39.566697478279146" lon="9.349850902731308"><ele>105.0</ele><time>2026-04-11T07:25:02Z</time></trkpt><trkpt lat="39.56689031640618" lon="9.349749130018001"><ele>106.0</ele><time>2026-04-11T07:25:03Z</time></trkpt><trkpt lat="39.56708577595597" lon="9.349654952034934"><ele>107.0</ele><time>2026-04-11T07:25:04Z</time></trkpt><trkpt lat="39.56728147775294" lon="9.34956693763406"><ele>108.0</ele><time>2026-04-11T07:25:05Z</time></trkpt><trkpt lat="39.56747618147427" lon="9.349481795336015"><ele>109.0</ele><time>2026-04-11T07:25:06Z</time></trkpt><trkpt lat="39.567667033918276" lon="9.349390971889045"><ele>109.0</ele><time>2026-04-11T07:25:07Z</time></trkpt><trkpt lat="39.567853662972304" lon="9.349287273034259"><ele>109.0</ele><time>2026-04-11T07:25:08Z</time></trkpt><trkpt lat="39.56803317617226" lon="9.349169119650002"><ele>109.0</ele><time>2026-04-11T07:25:09Z</time></trkpt><trkpt lat="39.568209581434054" lon="9.34905126457884"><ele>111.66666666666667</ele><time>2026-04-11T07:25:10Z</time></trkpt><trkpt lat="39.568388975753194" lon="9.348946649054495"><ele>114.33333333333334</ele><time>2026-04-11T07:25:11Z</time></trkpt><trkpt lat="39.568575929911596" lon="9.348861868028136"><ele>117.0</ele><time>2026-04-11T07:25:12Z</time></trkpt><trkpt lat="39.568770810806605" lon="9.34879861671467"><ele>119.0</ele><time>2026-04-11T07:25:13Z</time></trkpt><trkpt lat="39.56897638150512" lon="9.348792932825171"><ele>121.0</ele><time>2026-04-11T07:25:14Z</time></trkpt><trkpt lat="39.569181206883776" lon="9.348761760761764"><ele>123.0</ele><time>2026-04-11T07:25:15Z</time></trkpt><trkpt lat="39.56938764605512" lon="9.348766958144823"><ele>124.33333333333334</ele><time>2026-04-11T07:25:16Z</time></trkpt><trkpt lat="39.569593036266575" lon="9.348786635921243"><ele>125.66666666666667</ele><time>2026-04-11T07:25:17Z</time></trkpt><trkpt lat="39.569799615005884" lon="9.348822027479617"><ele>127.0</ele><time>2026-04-11T07:25:18Z</time></trkpt><trkpt lat="39.570004312043444" lon="9.348873192829679"><ele>128.66666666666669</ele><time>2026-04-11T07:25:19Z</time></trkpt><trkpt lat="39.57020748913592" lon="9.348930072484217"><ele>130.33333333333334</ele><time>2026-04-11T07:25:20Z</time></trkpt><trkpt lat="39.57041268188868" lon="9.348985480308079"><ele>132.0</ele><time>2026-04-11T07:25:21Z</time></trkpt><trkpt lat="39.57061636258052" lon="9.349042902844541"><ele>132.0</ele><time>2026-04-11T07:25:22Z</time></trkpt><trkpt lat="39.57081824091075" lon="9.349102463457475"><ele>132.0</ele><time>2026-04-11T07:25:23Z</time></trkpt><trkpt lat="39.571020771343626" lon="9.349162492642174"><ele>132.0</ele><time>2026-04-11T07:25:24Z</time></trkpt><trkpt lat="39.57122182281226" lon="9.349224028079071"><ele>133.0</ele><time>2026-04-11T07:25:25Z</time></trkpt><trkpt lat="39.571419645652" lon="9.34929364388634"><ele>134.0</ele><time>2026-04-11T07:25:26Z</time></trkpt><trkpt lat="39.571615275595214" lon="9.34937527151811"><ele>135.0</ele><time>2026-04-11T07:25:27Z</time></trkpt><trkpt lat="39.571808831146015" lon="9.349458757781887"><ele>135.0</ele><time>2026-04-11T07:25:28Z</time></trkpt><trkpt lat="39.57200381164473" lon="9.349539062495538"><ele>135.0</ele><time>2026-04-11T07:25:29Z</time></trkpt><trkpt lat="39.572196821413776" lon="9.349616132700744"><ele>135.0</ele><time>2026-04-11T07:25:30Z</time></trkpt><trkpt lat="39.57238082256836" lon="9.349702613866219"><ele>139.33333333333334</ele><time>2026-04-11T07:25:31Z</time></trkpt><trkpt lat="39.572553514068616" lon="9.349819374145417"><ele>143.66666666666669</ele><time>2026-04-11T07:25:32Z</time></trkpt><trkpt lat="39.57271307648465" lon="9.349967643190196"><ele>148.0</ele><time>2026-04-11T07:25:33Z</time></trkpt><trkpt lat="39.572869016298064" lon="9.350128792314742"><ele>148.33333333333334</ele><time>2026-04-11T07:25:34Z</time></trkpt><trkpt lat="39.57300596674996" lon="9.350302022569759"><ele>148.66666666666666</ele><time>2026-04-11T07:25:35Z</time></trkpt><trkpt lat="39.57310739964539" lon="9.35049463960534"><ele>149.0</ele><time>2026-04-11T07:25:36Z</time></trkpt><trkpt lat="39.5731769642986" lon="9.35071016940331"><ele>150.66666666666666</ele><time>2026-04-11T07:25:37Z</time></trkpt><trkpt lat="39.57322418971369" lon="9.35095016561457"><ele>152.33333333333334</ele><time>2026-04-11T07:25:38Z</time></trkpt><trkpt lat="39.57327056417566" lon="9.351195928078845"><ele>154.0</ele><time>2026-04-11T07:25:39Z</time></trkpt><trkpt lat="39.57332686761007" lon="9.351436294106268"><ele>156.66666666666669</ele><time>2026-04-11T07:25:40Z</time></trkpt><trkpt lat="39.573406476069906" lon="9.351656988779528"><ele>159.33333333333334</ele><time>2026-04-11T07:25:41Z</time></trkpt><trkpt lat="39.573510309288665" lon="9.351868264257075"><ele>162.0</ele><time>2026-04-11T07:25:42Z</time></trkpt><trkpt lat="39.57363383864565" lon="9.352066798102074"><ele>163.0</ele><time>2026-04-11T07:25:43Z</time></trkpt><trkpt lat="39.5737746053562" lon="9.352250943849079"><ele>164.0</ele><time>2026-04-11T07:25:44Z</time></trkpt><trkpt lat="39.57391909985105" lon="9.352432015680492"><ele>165.0</ele><time>2026-04-11T07:25:45Z</time></trkpt><trkpt lat="39.57406094188299" lon="9.352617813128383"><ele>165.0</ele><time>2026-04-11T07:25:46Z</time></trkpt><trkpt lat="39.57420275765845" lon="9.352802729033625"><ele>165.0</ele><time>2026-04-11T07:25:47Z</time></trkpt><trkpt lat="39.57434885195982" lon="9.352982563614713"><ele>165.0</ele><time>2026-04-11T07:25:48Z</time></trkpt><trkpt lat="39.574496211410114" lon="9.353160667590863"><ele>165.33333333333334</ele><time>2026-04-11T07:25:49Z</time></trkpt><trkpt lat="39.57465019211853" lon="9.353331220801198"><ele>165.66666666666669</ele><time>2026-04-11T07:25:50Z</time></trkpt><trkpt lat="39.57481881830034" lon="9.353480867920608"><ele>166.0</ele><time>2026-04-11T07:25:51Z</time></trkpt><trkpt lat="39.57500001533703" lon="9.353613539277305"><ele>166.0</ele><time>2026-04-11T07:25:52Z</time></trkpt><trkpt lat="39.57518405862166" lon="9.353739811871367"><ele>166.0</ele><time>2026-04-11T07:25:53Z</time></trkpt><trkpt lat="39.57536771974175" lon="9.353862876462008"><ele>166.0</ele><time>2026-04-11T07:25:54Z</time></trkpt><trkpt lat="39.57555284678295" lon="9.353973474073808"><ele>168.33333333333334</ele><time>2026-04-11T07:25:55Z</time></trkpt><trkpt lat="39.575738484240894" lon="9.35405983311506"><ele>170.66666666666666</ele><time>2026-04-11T07:25:56Z</time></trkpt><trkpt lat="39.57593325828312" lon="9.35411763424081"><ele>173.0</ele><time>2026-04-11T07:25:57Z</time></trkpt><trkpt lat="39.57613709614777" lon="9.354139634340287"><ele>175.33333333333331</ele><time>2026-04-11T07:25:58Z</time></trkpt><trkpt lat="39.57634570558202" lon="9.354136664803667"><ele>177.66666666666666</ele><time>2026-04-11T07:25:59Z</time></trkpt><trkpt lat="39.5765585755699" lon="9.354127940170507"><ele>180.0</ele><time>2026-04-11T07:26:00Z</time></trkpt><trkpt lat="39.57677143200295" lon="9.354126331244613"><ele>180.0</ele><time>2026-04-11T07:26:01Z</time></trkpt><trkpt lat="39.57698545311083" lon="9.354129993257578"><ele>180.0</ele><time>2026-04-11T07:26:02Z</time></trkpt><trkpt lat="39.57719970710906" lon="9.354131240056645"><ele>180.0</ele><time>2026-04-11T07:26:03Z</time></trkpt><trkpt lat="39.57741639456413" lon="9.354129711160445"><ele>181.66666666666666</ele><time>2026-04-11T07:26:04Z</time></trkpt><trkpt lat="39.57763243750666" lon="9.354130737025972"><ele>183.33333333333331</ele><time>2026-04-11T07:26:05Z</time></trkpt><trkpt lat="39.57784969704586" lon="9.354135584863938"><ele>185.0</ele><time>2026-04-11T07:26:06Z</time></trkpt><trkpt lat="39.57806706257459" lon="9.354140985592538"><ele>186.0</ele><time>2026-04-11T07:26:07Z</time></trkpt><trkpt lat="39.57828241891261" lon="9.354149535296955"><ele>187.0</ele><time>2026-04-11T07:26:08Z</time></trkpt><trkpt lat="39.57849255915857" lon="9.354166070306286"><ele>188.0</ele><time>2026-04-11T07:26:09Z</time></trkpt><trkpt lat="39.57869482939893" lon="9.354180101080633"><ele>189.33333333333331</ele><time>2026-04-11T07:26:10Z</time></trkpt><trkpt lat="39.578901040716424" lon="9.354165394285847"><ele>190.66666666666666</ele><time>2026-04-11T07:26:11Z</time></trkpt><trkpt lat="39.57911142766843" lon="9.354116649550802"><ele>192.0</ele><time>2026-04-11T07:26:12Z</time></trkpt><trkpt lat="39.579322119191666" lon="9.354055273523"><ele>193.33333333333331</ele><time>2026-04-11T07:26:13Z</time></trkpt><trkpt lat="39.57953398503683" lon="9.354002586190955"><ele>194.66666666666666</ele><time>2026-04-11T07:26:14Z</time></trkpt><trkpt lat="39.579741499134926" lon="9.353960801696877"><ele>196.0</ele><time>2026-04-11T07:26:15Z</time></trkpt><trkpt lat="39.57994052507592" lon="9.353928819790822"><ele>196.0</ele><time>2026-04-11T07:26:16Z</time></trkpt><trkpt lat="39.58013669310066" lon="9.353933184310591"><ele>196.0</ele><time>2026-04-11T07:26:17Z</time></trkpt><trkpt lat="39.58033947459111" lon="9.353976426758695"><ele>196.0</ele><time>2026-04-11T07:26:18Z</time></trkpt><trkpt lat="39.58052965332329" lon="9.354048327773235"><ele>197.66666666666666</ele><time>2026-04-11T07:26:19Z</time></trkpt><trkpt lat="39.58068867554562" lon="9.354156047936067"><ele>199.33333333333331</ele><time>2026-04-11T07:26:20Z</time></trkpt><trkpt lat="39.58080535368487" lon="9.354302543208204"><ele>201.0</ele><time>2026-04-11T07:26:21Z</time></trkpt><trkpt lat="39.58088973577444" lon="9.354483067505418"><ele>201.0</ele><time>2026-04-11T07:26:22Z</time></trkpt><trkpt lat="39.58093305850484" lon="9.354700370730129"><ele>201.0</ele><time>2026-04-11T07:26:23Z</time></trkpt><trkpt lat="39.5809622267005" lon="9.354931661795966"><ele>201.0</ele><time>2026-04-11T07:26:24Z</time></trkpt><trkpt lat="39.5809949870854" lon="9.355162467251235"><ele>200.66666666666669</ele><time>2026-04-11T07:26:25Z</time></trkpt><trkpt lat="39.58102345216581" lon="9.355408109564125"><ele>200.33333333333334</ele><time>2026-04-11T07:26:26Z</time></trkpt><trkpt lat="39.58105706703832" lon="9.355655197927033"><ele>200.0</ele><time>2026-04-11T07:26:27Z</time></trkpt><trkpt lat="39.58109303919343" lon="9.355905072222583"><ele>200.0</ele><time>2026-04-11T07:26:28Z</time></trkpt><trkpt lat="39.58112297114319" lon="9.356154844263921"><ele>200.0</ele><time>2026-04-11T07:26:29Z</time></trkpt><trkpt lat="39.58114551325919" lon="9.356411108582764"><ele>200.0</ele><time>2026-04-11T07:26:30Z</time></trkpt><trkpt lat="39.5811626131808" lon="9.356666895103404"><ele>200.33333333333334</ele><time>2026-04-11T07:26:31Z</time></trkpt><trkpt lat="39.58116894120535" lon="9.356920351107888"><ele>200.66666666666669</ele><time>2026-04-11T07:26:32Z</time></trkpt><trkpt lat="39.58113879991919" lon="9.357178941589586"><ele>201.0</ele><time>2026-04-11T07:26:33Z</time></trkpt><trkpt lat="39.58109365722165" lon="9.357437905700115"><ele>205.0</ele><time>2026-04-11T07:26:34Z</time></trkpt><trkpt lat="39.581045689377696" lon="9.357648437660524"><ele>209.0</ele><time>2026-04-11T07:26:35Z</time></trkpt><trkpt lat="39.580943926747686" lon="9.357846799182791"><ele>213.0</ele><time>2026-04-11T07:26:36Z</time></trkpt><trkpt lat="39.58081272835734" lon="9.358009666715075"><ele>217.0</ele><time>2026-04-11T07:26:37Z</time></trkpt><trkpt lat="39.580659483968965" lon="9.358163692712292"><ele>221.0</ele><time>2026-04-11T07:26:38Z</time></trkpt><trkpt lat="39.58055774766781" lon="9.35837667258535"><ele>225.0</ele><time>2026-04-11T07:26:39Z</time></trkpt><trkpt lat="39.580463308826374" lon="9.35858468657936"><ele>225.0</ele><time>2026-04-11T07:26:40Z</time></trkpt><trkpt lat="39.580399558938524" lon="9.358810221271163"><ele>225.0</ele><time>2026-04-11T07:26:41Z</time></trkpt><trkpt lat="39.58037884121936" lon="9.35904754322013"><ele>225.0</ele><time>2026-04-11T07:26:42Z</time></trkpt><trkpt lat="39.58040165387647" lon="9.359280119710611"><ele>226.0</ele><time>2026-04-11T07:26:43Z</time></trkpt><trkpt lat="39.58047401279542" lon="9.359487064808588"><ele>227.0</ele><time>2026-04-11T07:26:44Z</time></trkpt><trkpt lat="39.5805730654533" lon="9.359681911338487"><ele>228.0</ele><time>2026-04-11T07:26:45Z</time></trkpt><trkpt lat="39.580666270482" lon="9.359874702806998"><ele>225.0</ele><time>2026-04-11T07:26:46Z</time></trkpt><trkpt lat="39.58076484158666" lon="9.360054386106185"><ele>222.0</ele><time>2026-04-11T07:26:47Z</time></trkpt><trkpt lat="39.58088153650392" lon="9.360200490314284"><ele>219.0</ele><time>2026-04-11T07:26:48Z</time></trkpt><trkpt lat="39.58102858955516" lon="9.360288387309083"><ele>225.0</ele><time>2026-04-11T07:26:49Z</time></trkpt><trkpt lat="39.581201548548805" lon="9.360322443588219"><ele>231.0</ele><time>2026-04-11T07:26:50Z</time></trkpt><trkpt lat="39.58138071665767" lon="9.360343687682505"><ele>237.0</ele><time>2026-04-11T07:26:51Z</time></trkpt><trkpt lat="39.581562175567534" lon="9.360360284248218"><ele>237.0</ele><time>2026-04-11T07:26:52Z</time></trkpt><trkpt lat="39.58174146565544" lon="9.360347091098815"><ele>237.0</ele><time>2026-04-11T07:26:53Z</time></trkpt><trkpt lat="39.58191342949469" lon="9.360287329447637"><ele>237.0</ele><time>2026-04-11T07:26:54Z</time></trkpt><trkpt lat="39.58207247761708" lon="9.360180543496753"><ele>242.66666666666669</ele><time>2026-04-11T07:26:55Z</time></trkpt><trkpt lat="39.58221145745039" lon="9.36002821630693"><ele>248.33333333333334</ele><time>2026-04-11T07:26:56Z</time></trkpt><trkpt lat="39.582313321493395" lon="9.359792976858385"><ele>254.0</ele><time>2026-04-11T07:26:57Z</time></trkpt><trkpt lat="39.58241456321215" lon="9.359566965248108"><ele>254.0</ele><time>2026-04-11T07:26:58Z</time></trkpt><trkpt lat="39.58254092365811" lon="9.359366813689983"><ele>254.0</ele><time>2026-04-11T07:26:59Z</time></trkpt><trkpt lat="39.58268169277164" lon="9.35917810307241"><ele>254.0</ele><time>2026-04-11T07:27:00Z</time></trkpt><trkpt lat="39.58282719535808" lon="9.358977078402223"><ele>253.33333333333334</ele><time>2026-04-11T07:27:01Z</time></trkpt><trkpt lat="39.582988041283905" lon="9.358792835827158"><ele>252.66666666666669</ele><time>2026-04-11T07:27:02Z</time></trkpt><trkpt lat="39.58315353496275" lon="9.358615029803172"><ele>252.0</ele><time>2026-04-11T07:27:03Z</time></trkpt><trkpt lat="39.583312400993165" lon="9.358438792102914"><ele>252.0</ele><time>2026-04-11T07:27:04Z</time></trkpt><trkpt lat="39.58347150749808" lon="9.35826387403244"><ele>252.0</ele><time>2026-04-11T07:27:05Z</time></trkpt><trkpt lat="39.583619884236796" lon="9.358095382147518"><ele>252.0</ele><time>2026-04-11T07:27:06Z</time></trkpt><trkpt lat="39.58375740952555" lon="9.357946112784862"><ele>250.0</ele><time>2026-04-11T07:27:07Z</time></trkpt><trkpt lat="39.58389543027777" lon="9.357836059243185"><ele>248.0</ele><time>2026-04-11T07:27:08Z</time></trkpt><trkpt lat="39.58405735076008" lon="9.357814761762103"><ele>246.0</ele><time>2026-04-11T07:27:09Z</time></trkpt><trkpt lat="39.58423342889329" lon="9.357756740956148"><ele>246.0</ele><time>2026-04-11T07:27:10Z</time></trkpt><trkpt lat="39.584425932133065" lon="9.35773522371477"><ele>246.0</ele><time>2026-04-11T07:27:11Z</time></trkpt><trkpt lat="39.58462074971272" lon="9.357694402886885"><ele>246.0</ele><time>2026-04-11T07:27:12Z</time></trkpt><trkpt lat="39.58481822664363" lon="9.357649459696223"><ele>250.66666666666669</ele><time>2026-04-11T07:27:13Z</time></trkpt><trkpt lat="39.58501354669576" lon="9.357605692005698"><ele>255.33333333333334</ele><time>2026-04-11T07:27:14Z</time></trkpt><trkpt lat="39.58520943847181" lon="9.357561190339975"><ele>260.0</ele><time>2026-04-11T07:27:15Z</time></trkpt><trkpt lat="39.58540095683576" lon="9.357516876772543"><ele>263.6666666666667</ele><time>2026-04-11T07:27:16Z</time></trkpt><trkpt lat="39.58559037720699" lon="9.357472452940252"><ele>267.3333333333333</ele><time>2026-04-11T07:27:17Z</time></trkpt><trkpt lat="39.58577622698817" lon="9.357416318006784"><ele>271.0</ele><time>2026-04-11T07:27:18Z</time></trkpt><trkpt lat="39.585957654374475" lon="9.357345380850791"><ele>271.0</ele><time>2026-04-11T07:27:19Z</time></trkpt><trkpt lat="39.58613998650575" lon="9.357272059238957"><ele>271.0</ele><time>2026-04-11T07:27:20Z</time></trkpt><trkpt lat="39.5863157150041" lon="9.357202179015008"><ele>271.0</ele><time>2026-04-11T07:27:21Z</time></trkpt><trkpt lat="39.586479588717985" lon="9.357134527212919"><ele>271.66666666666663</ele><time>2026-04-11T07:27:22Z</time></trkpt><trkpt lat="39.586619444481265" lon="9.357051861869577"><ele>272.3333333333333</ele><time>2026-04-11T07:27:23Z</time></trkpt><trkpt lat="39.586729432269195" lon="9.356930600674639"><ele>273.0</ele><time>2026-04-11T07:27:24Z</time></trkpt><trkpt lat="39.586811556297576" lon="9.356750506489472"><ele>273.0</ele><time>2026-04-11T07:27:25Z</time></trkpt><trkpt lat="39.586867882489685" lon="9.35652412437789"><ele>273.0</ele><time>2026-04-11T07:27:26Z</time></trkpt><trkpt lat="39.586920972768645" lon="9.356286848518137"><ele>273.0</ele><time>2026-04-11T07:27:27Z</time></trkpt><trkpt lat="39.58698362229755" lon="9.356063668835679"><ele>275.5</ele><time>2026-04-11T07:27:28Z</time></trkpt><trkpt lat="39.58707467686889" lon="9.355893295449755"><ele>278.0</ele><time>2026-04-11T07:27:29Z</time></trkpt><trkpt lat="39.58717684597927" lon="9.355769423541629"><ele>280.5</ele><time>2026-04-11T07:27:30Z</time></trkpt><trkpt lat="39.58729879754293" lon="9.355723655456629"><ele>283.0</ele><time>2026-04-11T07:27:31Z</time></trkpt><trkpt lat="39.5874275498359" lon="9.355728639697883"><ele>283.0</ele><time>2026-04-11T07:27:32Z</time></trkpt><trkpt lat="39.58757743118589" lon="9.355755995252123"><ele>283.0</ele><time>2026-04-11T07:27:33Z</time></trkpt><trkpt lat="39.58773847269095" lon="9.355799678645619"><ele>283.0</ele><time>2026-04-11T07:27:34Z</time></trkpt><trkpt lat="39.5878892702174" lon="9.355802040172026"><ele>282.66666666666663</ele><time>2026-04-11T07:27:35Z</time></trkpt><trkpt lat="39.58801884574326" lon="9.355748173697348"><ele>282.3333333333333</ele><time>2026-04-11T07:27:36Z</time></trkpt><trkpt lat="39.5881354948241" lon="9.35562084005292"><ele>282.0</ele><time>2026-04-11T07:27:37Z</time></trkpt><trkpt lat="39.58823564244409" lon="9.355424584217022"><ele>282.0</ele><time>2026-04-11T07:27:38Z</time></trkpt><trkpt lat="39.5883420644374" lon="9.35522103169297"><ele>282.0</ele><time>2026-04-11T07:27:39Z</time></trkpt><trkpt lat="39.58846264638767" lon="9.355030042903621"><ele>282.0</ele><time>2026-04-11T07:27:40Z</time></trkpt><trkpt lat="39.58859079404826" lon="9.354853157592594"><ele>280.3333333333333</ele><time>2026-04-11T07:27:41Z</time></trkpt><trkpt lat="39.58871252038726" lon="9.354690764008417"><ele>278.66666666666663</ele><time>2026-04-11T07:27:42Z</time></trkpt><trkpt lat="39.588849781386024" lon="9.354582325733702"><ele>277.0</ele><time>2026-04-11T07:27:43Z</time></trkpt><trkpt lat="39.589005843829156" lon="9.354553927201891"><ele>277.0</ele><time>2026-04-11T07:27:44Z</time></trkpt><trkpt lat="39.589165482062754" lon="9.354566767189635"><ele>277.0</ele><time>2026-04-11T07:27:45Z</time></trkpt><trkpt lat="39.589341910916644" lon="9.35458408782802"><ele>277.0</ele><time>2026-04-11T07:27:46Z</time></trkpt><trkpt lat="39.58950810229713" lon="9.354627921967843"><ele>284.0</ele><time>2026-04-11T07:27:47Z</time></trkpt><trkpt lat="39.5896600393063" lon="9.354614991877952"><ele>291.0</ele><time>2026-04-11T07:27:48Z</time></trkpt><trkpt lat="39.589788070457814" lon="9.354532840233102"><ele>298.0</ele><time>2026-04-11T07:27:49Z</time></trkpt><trkpt lat="39.58989015906526" lon="9.354370220985302"><ele>298.0</ele><time>2026-04-11T07:27:50Z</time></trkpt><trkpt lat="39.58996247310862" lon="9.354174727879833"><ele>298.0</ele><time>2026-04-11T07:27:51Z</time></trkpt><trkpt lat="39.58999301992492" lon="9.353943578416745"><ele>298.0</ele><time>2026-04-11T07:27:52Z</time></trkpt><trkpt lat="39.59000008272646" lon="9.3537111509034"><ele>295.66666666666663</ele><time>2026-04-11T07:27:53Z</time></trkpt><trkpt lat="39.59002203301495" lon="9.353499336071602"><ele>293.3333333333333</ele><time>2026-04-11T07:27:54Z</time></trkpt><trkpt lat="39.590085283575" lon="9.353322429547882"><ele>291.0</ele><time>2026-04-11T07:27:55Z</time></trkpt><trkpt lat="39.59021521198708" lon="9.353206913397404"><ele>292.3333333333333</ele><time>2026-04-11T07:27:56Z</time></trkpt><trkpt lat="39.59035033318212" lon="9.35306895849795"><ele>293.66666666666663</ele><time>2026-04-11T07:27:57Z</time></trkpt><trkpt lat="39.590505184149116" lon="9.352933370662816"><ele>295.0</ele><time>2026-04-11T07:27:58Z</time></trkpt><trkpt lat="39.590653339566636" lon="9.352785076012548"><ele>298.3333333333333</ele><time>2026-04-11T07:27:59Z</time></trkpt><trkpt lat="39.59079968687807" lon="9.352631274668209"><ele>301.6666666666667</ele><time>2026-04-11T07:28:00Z</time></trkpt><trkpt lat="39.59094490683323" lon="9.35247664363179"><ele>305.0</ele><time>2026-04-11T07:28:01Z</time></trkpt><trkpt lat="39.59107557082201" lon="9.352330230406317"><ele>302.33333333333337</ele><time>2026-04-11T07:28:02Z</time></trkpt><trkpt lat="39.591183801531635" lon="9.352172462686518"><ele>299.6666666666667</ele><time>2026-04-11T07:28:03Z</time></trkpt><trkpt lat="39.59124570768012" lon="9.351987679302567"><ele>297.0</ele><time>2026-04-11T07:28:04Z</time></trkpt><trkpt lat="39.59126396301689" lon="9.351794283257085"><ele>297.0</ele><time>2026-04-11T07:28:05Z</time></trkpt><trkpt lat="39.591301947658785" lon="9.351619302012857"><ele>297.0</ele><time>2026-04-11T07:28:06Z</time></trkpt><trkpt lat="39.5914111056651" lon="9.351502147017241"><ele>297.0</ele><time>2026-04-11T07:28:07Z</time></trkpt><trkpt lat="39.5915463016884" lon="9.351397673808089"><ele>297.0</ele><time>2026-04-11T07:28:08Z</time></trkpt><trkpt lat="39.59170193959907" lon="9.351358993496865"><ele>302.6666666666667</ele><time>2026-04-11T07:28:09Z</time></trkpt><trkpt lat="39.591863498201384" lon="9.351354435254105"><ele>308.33333333333337</ele><time>2026-04-11T07:28:10Z</time></trkpt><trkpt lat="39.59203826810018" lon="9.351361095146167"><ele>314.0</ele><time>2026-04-11T07:28:11Z</time></trkpt><trkpt lat="39.59221618909083" lon="9.351371583820075"><ele>314.0</ele><time>2026-04-11T07:28:12Z</time></trkpt><trkpt lat="39.59239793380823" lon="9.35137859980417"><ele>314.0</ele><time>2026-04-11T07:28:13Z</time></trkpt><trkpt lat="39.592579974215745" lon="9.35138764021679"><ele>314.0</ele><time>2026-04-11T07:28:14Z</time></trkpt><trkpt lat="39.592761511528806" lon="9.351370890875494"><ele>310.33333333333337</ele><time>2026-04-11T07:28:15Z</time></trkpt><trkpt lat="39.592936552410755" lon="9.351315482414924"><ele>306.6666666666667</ele><time>2026-04-11T07:28:16Z</time></trkpt><trkpt lat="39.59313272599592" lon="9.35123241985343"><ele>303.0</ele><time>2026-04-11T07:28:17Z</time></trkpt><trkpt lat="39.59332236496955" lon="9.351153265260452"><ele>303.0</ele><time>2026-04-11T07:28:18Z</time></trkpt><trkpt lat="39.59351267897085" lon="9.351076746525871"><ele>303.0</ele><time>2026-04-11T07:28:19Z</time></trkpt><trkpt lat="39.59370269245097" lon="9.35099340062135"><ele>303.0</ele><time>2026-04-11T07:28:20Z</time></trkpt><trkpt lat="39.5938911239245" lon="9.350907685323916"><ele>299.0</ele><time>2026-04-11T07:28:21Z</time></trkpt><trkpt lat="39.594063235750795" lon="9.350800562848208"><ele>295.0</ele><time>2026-04-11T07:28:22Z</time></trkpt><trkpt lat="39.594215710010054" lon="9.350682206417458"><ele>291.0</ele><time>2026-04-11T07:28:23Z</time></trkpt><trkpt lat="39.59435961635702" lon="9.350603626842341"><ele>291.0</ele><time>2026-04-11T07:28:24Z</time></trkpt><trkpt lat="39.594499511295005" lon="9.350527689194326"><ele>291.0</ele><time>2026-04-11T07:28:25Z</time></trkpt><trkpt lat="39.59464515292018" lon="9.350512299604055"><ele>291.0</ele><time>2026-04-11T07:28:26Z</time></trkpt><trkpt lat="39.59477871346591" lon="9.350590632896274"><ele>291.0</ele><time>2026-04-11T07:28:27Z</time></trkpt><trkpt lat="39.594891657823354" lon="9.350691178415703"><ele>291.0</ele><time>2026-04-11T07:28:28Z</time></trkpt><trkpt lat="39.59496912123684" lon="9.350848915258323"><ele>291.0</ele><time>2026-04-11T07:28:29Z</time></trkpt><trkpt lat="39.59503861828209" lon="9.3510319366462"><ele>291.0</ele><time>2026-04-11T07:28:30Z</time></trkpt><trkpt lat="39.59511613362015" lon="9.351217395688716"><ele>290.6666666666667</ele><time>2026-04-11T07:28:31Z</time></trkpt><trkpt lat="39.595196255627734" lon="9.351406807267068"><ele>290.33333333333337</ele><time>2026-04-11T07:28:32Z</time></trkpt><trkpt lat="39.5953005515099" lon="9.35157194893963"><ele>290.0</ele><time>2026-04-11T07:28:33Z</time></trkpt><trkpt lat="39.59542961641966" lon="9.351710509882018"><ele>290.0</ele><time>2026-04-11T07:28:34Z</time></trkpt><trkpt lat="39.59557353365379" lon="9.351830011643258"><ele>290.0</ele><time>2026-04-11T07:28:35Z</time></trkpt><trkpt lat="39.59573275147443" lon="9.351935138002675"><ele>290.0</ele><time>2026-04-11T07:28:36Z</time></trkpt><trkpt lat="39.59590652436155" lon="9.352011611153001"><ele>290.0</ele><time>2026-04-11T07:28:37Z</time></trkpt><trkpt lat="39.59609933441546" lon="9.352056250647397"><ele>290.0</ele><time>2026-04-11T07:28:38Z</time></trkpt><trkpt lat="39.59629862001133" lon="9.352091276713486"><ele>290.0</ele><time>2026-04-11T07:28:39Z</time></trkpt><trkpt lat="39.59649769744023" lon="9.352140918998733"><ele>292.33333333333337</ele><time>2026-04-11T07:28:40Z</time></trkpt><trkpt lat="39.59669203383008" lon="9.352192355449203"><ele>294.6666666666667</ele><time>2026-04-11T07:28:41Z</time></trkpt><trkpt lat="39.59689078652359" lon="9.352240881873737"><ele>297.0</ele><time>2026-04-11T07:28:42Z</time></trkpt><trkpt lat="39.59709127447294" lon="9.352288887231634"><ele>291.3333333333333</ele><time>2026-04-11T07:28:43Z</time></trkpt><trkpt lat="39.5972928678272" lon="9.35234221680902"><ele>285.66666666666663</ele><time>2026-04-11T07:28:44Z</time></trkpt><trkpt lat="39.59749450845554" lon="9.352397664077195"><ele>280.0</ele><time>2026-04-11T07:28:45Z</time></trkpt><trkpt lat="39.59769598311424" lon="9.352456116262795"><ele>283.0</ele><time>2026-04-11T07:28:46Z</time></trkpt><trkpt lat="39.59789511808281" lon="9.352524688611133"><ele>286.0</ele><time>2026-04-11T07:28:47Z</time></trkpt><trkpt lat="39.59809083608678" lon="9.352608481422132"><ele>289.0</ele><time>2026-04-11T07:28:48Z</time></trkpt><trkpt lat="39.59827883037097" lon="9.352700060501382"><ele>289.0</ele><time>2026-04-11T07:28:49Z</time></trkpt><trkpt lat="39.59846464347293" lon="9.35278538014424"><ele>289.0</ele><time>2026-04-11T07:28:50Z</time></trkpt><trkpt lat="39.59864907676409" lon="9.352845152443638"><ele>289.0</ele><time>2026-04-11T07:28:51Z</time></trkpt><trkpt lat="39.5988280293362" lon="9.35287987276468"><ele>289.3333333333333</ele><time>2026-04-11T07:28:52Z</time></trkpt><trkpt lat="39.59899865426035" lon="9.352907890713988"><ele>289.6666666666667</ele><time>2026-04-11T07:28:53Z</time></trkpt><trkpt lat="39.59915494405343" lon="9.352940493676169"><ele>290.0</ele><time>2026-04-11T07:28:54Z</time></trkpt><trkpt lat="39.599294715427206" lon="9.352994268915694"><ele>289.25</ele><time>2026-04-11T07:28:55Z</time></trkpt><trkpt lat="39.5993993811643" lon="9.353107593416047"><ele>288.5</ele><time>2026-04-11T07:28:56Z</time></trkpt><trkpt lat="39.5994722380109" lon="9.353244569502285"><ele>287.75</ele><time>2026-04-11T07:28:57Z</time></trkpt><trkpt lat="39.599507462627116" lon="9.35340876135092"><ele>287.0</ele><time>2026-04-11T07:28:58Z</time></trkpt><trkpt lat="39.59949182186749" lon="9.353587631745903"><ele>282.0</ele><time>2026-04-11T07:28:59Z</time></trkpt><trkpt lat="39.599458722549095" lon="9.35378747413388"><ele>277.0</ele><time>2026-04-11T07:29:00Z</time></trkpt><trkpt lat="39.59942466145177" lon="9.354001110243695"><ele>272.0</ele><time>2026-04-11T07:29:01Z</time></trkpt><trkpt lat="39.59937407487177" lon="9.354217703963624"><ele>270.33333333333337</ele><time>2026-04-11T07:29:02Z</time></trkpt><trkpt lat="39.59931867590839" lon="9.354427872853215"><ele>268.6666666666667</ele><time>2026-04-11T07:29:03Z</time></trkpt><trkpt lat="39.59924017940366" lon="9.354620571334348"><ele>267.0</ele><time>2026-04-11T07:29:04Z</time></trkpt><trkpt lat="39.59915417084799" lon="9.354802794633818"><ele>267.0</ele><time>2026-04-11T07:29:05Z</time></trkpt><trkpt lat="39.59908843021741" lon="9.354993342437718"><ele>267.0</ele><time>2026-04-11T07:29:06Z</time></trkpt><trkpt lat="39.59907012150404" lon="9.355215154146217"><ele>267.0</ele><time>2026-04-11T07:29:07Z</time></trkpt><trkpt lat="39.5990885494286" lon="9.355446685719532"><ele>265.6666666666667</ele><time>2026-04-11T07:29:08Z</time></trkpt><trkpt lat="39.59910718420285" lon="9.355669235451158"><ele>264.33333333333337</ele><time>2026-04-11T07:29:09Z</time></trkpt><trkpt lat="39.59912811347158" lon="9.355869761426076"><ele>263.0</ele><time>2026-04-11T07:29:10Z</time></trkpt><trkpt lat="39.59917592857379" lon="9.356056541680768"><ele>263.0</ele><time>2026-04-11T07:29:11Z</time></trkpt><trkpt lat="39.59926054617593" lon="9.35622411416599"><ele>263.0</ele><time>2026-04-11T07:29:12Z</time></trkpt><trkpt lat="39.599377944305836" lon="9.356371850999787"><ele>263.0</ele><time>2026-04-11T07:29:13Z</time></trkpt><trkpt lat="39.59951043936267" lon="9.356513195753392"><ele>262.6666666666667</ele><time>2026-04-11T07:29:14Z</time></trkpt><trkpt lat="39.59963944492244" lon="9.356660087920998"><ele>262.3333333333333</ele><time>2026-04-11T07:29:15Z</time></trkpt><trkpt lat="39.599760171061085" lon="9.35680590281489"><ele>262.0</ele><time>2026-04-11T07:29:16Z</time></trkpt><trkpt lat="39.599888574225425" lon="9.356936310270948"><ele>262.0</ele><time>2026-04-11T07:29:17Z</time></trkpt><trkpt lat="39.60002306314801" lon="9.357038825804013"><ele>262.0</ele><time>2026-04-11T07:29:18Z</time></trkpt><trkpt lat="39.60017229835185" lon="9.357101932769975"><ele>262.0</ele><time>2026-04-11T07:29:19Z</time></trkpt><trkpt lat="39.60033419316132" lon="9.357117477492936"><ele>259.0</ele><time>2026-04-11T07:29:20Z</time></trkpt><trkpt lat="39.60050024287401" lon="9.357092897933065"><ele>256.0</ele><time>2026-04-11T07:29:21Z</time></trkpt><trkpt lat="39.60066401809399" lon="9.357035443487474"><ele>253.0</ele><time>2026-04-11T07:29:22Z</time></trkpt><trkpt lat="39.60082327291147" lon="9.356954889869636"><ele>253.0</ele><time>2026-04-11T07:29:23Z</time></trkpt><trkpt lat="39.60096285555413" lon="9.356840723944286"><ele>253.0</ele><time>2026-04-11T07:29:24Z</time></trkpt><trkpt lat="39.60107969056951" lon="9.356687203692687"><ele>253.0</ele><time>2026-04-11T07:29:25Z</time></trkpt><trkpt lat="39.60117925430578" lon="9.356505329838965"><ele>248.0</ele><time>2026-04-11T07:29:26Z</time></trkpt><trkpt lat="39.60126757852849" lon="9.356309148919898"><ele>243.0</ele><time>2026-04-11T07:29:27Z</time></trkpt><trkpt lat="39.60135709769363" lon="9.356114200260375"><ele>238.0</ele><time>2026-04-11T07:29:28Z</time></trkpt><trkpt lat="39.60145606029489" lon="9.355921287403966"><ele>238.0</ele><time>2026-04-11T07:29:29Z</time></trkpt><trkpt lat="39.60155924409071" lon="9.355721158407095"><ele>238.0</ele><time>2026-04-11T07:29:30Z</time></trkpt><trkpt lat="39.60166079494515" lon="9.355516754291045"><ele>238.0</ele><time>2026-04-11T07:29:31Z</time></trkpt><trkpt lat="39.60175593055232" lon="9.355306562450371"><ele>240.33333333333331</ele><time>2026-04-11T07:29:32Z</time></trkpt><trkpt lat="39.60183583092428" lon="9.355092016250595"><ele>242.66666666666669</ele><time>2026-04-11T07:29:33Z</time></trkpt><trkpt lat="39.60191033359276" lon="9.354852163225628"><ele>245.0</ele><time>2026-04-11T07:29:34Z</time></trkpt><trkpt lat="39.601974576721304" lon="9.354618377500785"><ele>237.33333333333334</ele><time>2026-04-11T07:29:35Z</time></trkpt><trkpt lat="39.602043835684256" lon="9.35438070186956"><ele>229.66666666666669</ele><time>2026-04-11T07:29:36Z</time></trkpt><trkpt lat="39.60210957053467" lon="9.354141184748878"><ele>222.0</ele><time>2026-04-11T07:29:37Z</time></trkpt><trkpt lat="39.602160139573726" lon="9.35388591168346"><ele>222.66666666666669</ele><time>2026-04-11T07:29:38Z</time></trkpt><trkpt lat="39.60219786863472" lon="9.353626958760492"><ele>223.33333333333334</ele><time>2026-04-11T07:29:39Z</time></trkpt><trkpt lat="39.60223599452827" lon="9.35337538298469"><ele>224.0</ele><time>2026-04-11T07:29:40Z</time></trkpt><trkpt lat="39.60228131054733" lon="9.353136440991802"><ele>224.33333333333334</ele><time>2026-04-11T07:29:41Z</time></trkpt><trkpt lat="39.602350983567675" lon="9.352915548103612"><ele>224.66666666666669</ele><time>2026-04-11T07:29:42Z</time></trkpt><trkpt lat="39.602447970905665" lon="9.352724012916621"><ele>225.0</ele><time>2026-04-11T07:29:43Z</time></trkpt><trkpt lat="39.60257913442736" lon="9.352567080461574"><ele>225.0</ele><time>2026-04-11T07:29:44Z</time></trkpt><trkpt lat="39.602734452473655" lon="9.352455914230811"><ele>225.0</ele><time>2026-04-11T07:29:45Z</time></trkpt><trkpt lat="39.60288835404628" lon="9.352376790627714"><ele>225.0</ele><time>2026-04-11T07:29:46Z</time></trkpt><trkpt lat="39.603071340183284" lon="9.352289263126725"><ele>221.0</ele><time>2026-04-11T07:29:47Z</time></trkpt><trkpt lat="39.6032450650562" lon="9.352184329098732"><ele>217.0</ele><time>2026-04-11T07:29:48Z</time></trkpt><trkpt lat="39.60343110112044" lon="9.352107311873226"><ele>213.0</ele><time>2026-04-11T07:29:49Z</time></trkpt><trkpt lat="39.603619100355424" lon="9.352018654059508"><ele>211.66666666666669</ele><time>2026-04-11T07:29:50Z</time></trkpt><trkpt lat="39.60380991400877" lon="9.351926698777744"><ele>210.33333333333334</ele><time>2026-04-11T07:29:51Z</time></trkpt><trkpt lat="39.60399939362381" lon="9.351832775975302"><ele>209.0</ele><time>2026-04-11T07:29:52Z</time></trkpt><trkpt lat="39.60419321225065" lon="9.35174278031077"><ele>209.0</ele><time>2026-04-11T07:29:53Z</time></trkpt><trkpt lat="39.604387185189765" lon="9.35165387710441"><ele>209.0</ele><time>2026-04-11T07:29:54Z</time></trkpt><trkpt lat="39.60458074847938" lon="9.351562314263454"><ele>209.0</ele><time>2026-04-11T07:29:55Z</time></trkpt><trkpt lat="39.604774066508824" lon="9.351471344161725"><ele>208.33333333333334</ele><time>2026-04-11T07:29:56Z</time></trkpt><trkpt lat="39.60496884061689" lon="9.351379596629513"><ele>207.66666666666669</ele><time>2026-04-11T07:29:57Z</time></trkpt><trkpt lat="39.605165282316726" lon="9.351287517254645"><ele>207.0</ele><time>2026-04-11T07:29:58Z</time></trkpt><trkpt lat="39.60536122815329" lon="9.351191186112947"><ele>205.33333333333331</ele><time>2026-04-11T07:29:59Z</time></trkpt><trkpt lat="39.60555932095022" lon="9.351091846835834"><ele>203.66666666666666</ele><time>2026-04-11T07:30:00Z</time></trkpt><trkpt lat="39.6057590227886" lon="9.350991307526106"><ele>202.0</ele><time>2026-04-11T07:30:01Z</time></trkpt><trkpt lat="39.605959456530464" lon="9.350893880578232"><ele>202.0</ele><time>2026-04-11T07:30:02Z</time></trkpt><trkpt lat="39.60615934906417" lon="9.350802769413319"><ele>202.0</ele><time>2026-04-11T07:30:03Z</time></trkpt><trkpt lat="39.60636044828346" lon="9.350711464553113"><ele>202.0</ele><time>2026-04-11T07:30:04Z</time></trkpt><trkpt lat="39.606560944150154" lon="9.350615734157884"><ele>202.66666666666666</ele><time>2026-04-11T07:30:05Z</time></trkpt><trkpt lat="39.60675996176717" lon="9.350516790958848"><ele>203.33333333333331</ele><time>2026-04-11T07:30:06Z</time></trkpt><trkpt lat="39.60695902337861" lon="9.35041954538675"><ele>204.0</ele><time>2026-04-11T07:30:07Z</time></trkpt><trkpt lat="39.60715351038637" lon="9.350320982251471"><ele>204.0</ele><time>2026-04-11T07:30:08Z</time></trkpt><trkpt lat="39.60734931789263" lon="9.350227738422035"><ele>204.0</ele><time>2026-04-11T07:30:09Z</time></trkpt><trkpt lat="39.60754117784038" lon="9.35012602374731"><ele>204.0</ele><time>2026-04-11T07:30:10Z</time></trkpt><trkpt lat="39.60772336917117" lon="9.349998496072455"><ele>204.0</ele><time>2026-04-11T07:30:11Z</time></trkpt><trkpt lat="39.6078974487607" lon="9.349841541436437"><ele>204.0</ele><time>2026-04-11T07:30:12Z</time></trkpt><trkpt lat="39.6080703350621" lon="9.349672839452786"><ele>204.0</ele><time>2026-04-11T07:30:13Z</time></trkpt><trkpt lat="39.6082457754146" lon="9.349508296739169"><ele>204.66666666666669</ele><time>2026-04-11T07:30:14Z</time></trkpt><trkpt lat="39.60842077601077" lon="9.349347473041105"><ele>205.33333333333334</ele><time>2026-04-11T07:30:15Z</time></trkpt><trkpt lat="39.60859512864894" lon="9.349184864966542"><ele>206.0</ele><time>2026-04-11T07:30:16Z</time></trkpt><trkpt lat="39.60876685496877" lon="9.349019195879201"><ele>206.66666666666669</ele><time>2026-04-11T07:30:17Z</time></trkpt><trkpt lat="39.6089379728538" lon="9.348852565104512"><ele>207.33333333333331</ele><time>2026-04-11T07:30:18Z</time></trkpt><trkpt lat="39.60910763151429" lon="9.348691228695408"><ele>208.0</ele><time>2026-04-11T07:30:19Z</time></trkpt><trkpt lat="39.60927362460301" lon="9.348533322633662"><ele>208.0</ele><time>2026-04-11T07:30:20Z</time></trkpt><trkpt lat="39.609425425364805" lon="9.348359450162716"><ele>208.0</ele><time>2026-04-11T07:30:21Z</time></trkpt><trkpt lat="39.609551612785204" lon="9.34816342434301"><ele>208.0</ele><time>2026-04-11T07:30:22Z</time></trkpt><trkpt lat="39.609645902813206" lon="9.347944177115275"><ele>208.33333333333331</ele><time>2026-04-11T07:30:23Z</time></trkpt><trkpt lat="39.60970708767225" lon="9.347699225086428"><ele>208.66666666666669</ele><time>2026-04-11T07:30:24Z</time></trkpt><trkpt lat="39.6097373849123" lon="9.347444106847789"><ele>209.0</ele><time>2026-04-11T07:30:25Z</time></trkpt><trkpt lat="39.609783004080334" lon="9.347207538218502"><ele>209.0</ele><time>2026-04-11T07:30:26Z</time></trkpt><trkpt lat="39.6098251149553" lon="9.346985417497276"><ele>209.0</ele><time>2026-04-11T07:30:27Z</time></trkpt><trkpt lat="39.60988220941226" lon="9.346790291085114"><ele>209.0</ele><time>2026-04-11T07:30:28Z</time></trkpt><trkpt lat="39.60996902490725" lon="9.34663204689069"><ele>209.0</ele><time>2026-04-11T07:30:29Z</time></trkpt><trkpt lat="39.61009193317428" lon="9.346512235062821"><ele>209.0</ele><time>2026-04-11T07:30:30Z</time></trkpt><trkpt lat="39.610236419630716" lon="9.346374615931182"><ele>209.0</ele><time>2026-04-11T07:30:31Z</time></trkpt><trkpt lat="39.610416288978385" lon="9.34626775548411"><ele>211.0</ele><time>2026-04-11T07:30:32Z</time></trkpt><trkpt lat="39.6105972540406" lon="9.346147211315039"><ele>213.0</ele><time>2026-04-11T07:30:33Z</time></trkpt><trkpt lat="39.610781773750425" lon="9.346017992230902"><ele>215.0</ele><time>2026-04-11T07:30:34Z</time></trkpt><trkpt lat="39.610962208892396" lon="9.345878864302978"><ele>215.0</ele><time>2026-04-11T07:30:35Z</time></trkpt><trkpt lat="39.61113452813858" lon="9.345724646105605"><ele>215.0</ele><time>2026-04-11T07:30:36Z</time></trkpt><trkpt lat="39.61130184684894" lon="9.34556274720616"><ele>215.0</ele><time>2026-04-11T07:30:37Z</time></trkpt><trkpt lat="39.611466855616484" lon="9.345392655496324"><ele>215.66666666666669</ele><time>2026-04-11T07:30:38Z</time></trkpt><trkpt lat="39.61162848957615" lon="9.345220713499518"><ele>216.33333333333331</ele><time>2026-04-11T07:30:39Z</time></trkpt><trkpt lat="39.61179086009675" lon="9.345052412521754"><ele>217.0</ele><time>2026-04-11T07:30:40Z</time></trkpt><trkpt lat="39.61195394060066" lon="9.344884777952892"><ele>217.66666666666666</ele><time>2026-04-11T07:30:41Z</time></trkpt><trkpt lat="39.6121142807282" lon="9.344714963533232"><ele>218.33333333333331</ele><time>2026-04-11T07:30:42Z</time></trkpt><trkpt lat="39.612276519543855" lon="9.344543640072327"><ele>219.0</ele><time>2026-04-11T07:30:43Z</time></trkpt><trkpt lat="39.61243840762912" lon="9.344382927768452"><ele>219.0</ele><time>2026-04-11T07:30:44Z</time></trkpt><trkpt lat="39.612603912370176" lon="9.344222609246314"><ele>219.0</ele><time>2026-04-11T07:30:45Z</time></trkpt><trkpt lat="39.61277260774409" lon="9.34406309003009"><ele>219.0</ele><time>2026-04-11T07:30:46Z</time></trkpt><trkpt lat="39.612942908357475" lon="9.343903088415779"><ele>218.66666666666669</ele><time>2026-04-11T07:30:47Z</time></trkpt><trkpt lat="39.613108721656836" lon="9.343738615482328"><ele>218.33333333333334</ele><time>2026-04-11T07:30:48Z</time></trkpt><trkpt lat="39.61327614446616" lon="9.343571927441577"><ele>218.0</ele><time>2026-04-11T07:30:49Z</time></trkpt><trkpt lat="39.61343682092488" lon="9.343396661018222"><ele>218.0</ele><time>2026-04-11T07:30:50Z</time></trkpt><trkpt lat="39.613599840142875" lon="9.34322409210269"><ele>218.0</ele><time>2026-04-11T07:30:51Z</time></trkpt><trkpt lat="39.61376492506983" lon="9.343057117522521"><ele>218.0</ele><time>2026-04-11T07:30:52Z</time></trkpt><trkpt lat="39.613927664407" lon="9.34288823785276"><ele>220.0</ele><time>2026-04-11T07:30:53Z</time></trkpt><trkpt lat="39.614087532170224" lon="9.342717947779626"><ele>222.0</ele><time>2026-04-11T07:30:54Z</time></trkpt><trkpt lat="39.61424810896141" lon="9.34255199748167"><ele>224.0</ele><time>2026-04-11T07:30:55Z</time></trkpt><trkpt lat="39.61440701990167" lon="9.342385436891734"><ele>224.33333333333334</ele><time>2026-04-11T07:30:56Z</time></trkpt><trkpt lat="39.61455137869249" lon="9.342193060369967"><ele>224.66666666666669</ele><time>2026-04-11T07:30:57Z</time></trkpt><trkpt lat="39.61467776105042" lon="9.341968804724775"><ele>225.0</ele><time>2026-04-11T07:30:58Z</time></trkpt><trkpt lat="39.61479169286482" lon="9.341728122811757"><ele>225.0</ele><time>2026-04-11T07:30:59Z</time></trkpt><trkpt lat="39.614921489262734" lon="9.341492571588942"><ele>225.0</ele><time>2026-04-11T07:31:00Z</time></trkpt><trkpt lat="39.615043490830246" lon="9.34125083394466"><ele>225.0</ele><time>2026-04-11T07:31:01Z</time></trkpt><trkpt lat="39.61515226478301" lon="9.340996942957126"><ele>228.0</ele><time>2026-04-11T07:31:02Z</time></trkpt><trkpt lat="39.61527924204142" lon="9.34075798600372"><ele>231.0</ele><time>2026-04-11T07:31:03Z</time></trkpt><trkpt lat="39.61539601549463" lon="9.340512580487152"><ele>234.0</ele><time>2026-04-11T07:31:04Z</time></trkpt><trkpt lat="39.61551926984887" lon="9.340272275531605"><ele>235.66666666666669</ele><time>2026-04-11T07:31:05Z</time></trkpt><trkpt lat="39.615644418084855" lon="9.340035160473436"><ele>237.33333333333334</ele><time>2026-04-11T07:31:06Z</time></trkpt><trkpt lat="39.6157737728843" lon="9.339800586684685"><ele>239.0</ele><time>2026-04-11T07:31:07Z</time></trkpt><trkpt lat="39.61590550746803" lon="9.339570329603902"><ele>242.5</ele><time>2026-04-11T07:31:08Z</time></trkpt><trkpt lat="39.616063361782146" lon="9.339317901099083"><ele>246.0</ele><time>2026-04-11T07:31:09Z</time></trkpt><trkpt lat="39.61618824367152" lon="9.33909925137165"><ele>249.0</ele><time>2026-04-11T07:31:10Z</time></trkpt><trkpt lat="39.61630446216573" lon="9.33887962643152"><ele>252.0</ele><time>2026-04-11T07:31:11Z</time></trkpt><trkpt lat="39.616428878517475" lon="9.338660478114907"><ele>255.0</ele><time>2026-04-11T07:31:12Z</time></trkpt><trkpt lat="39.61654856814019" lon="9.338438130740434"><ele>255.0</ele><time>2026-04-11T07:31:13Z</time></trkpt><trkpt lat="39.61666281877692" lon="9.338205652157175"><ele>255.0</ele><time>2026-04-11T07:31:14Z</time></trkpt><trkpt lat="39.61676467527492" lon="9.337959432629386"><ele>255.0</ele><time>2026-04-11T07:31:15Z</time></trkpt><trkpt lat="39.616874052244896" lon="9.337714173397714"><ele>260.6666666666667</ele><time>2026-04-11T07:31:16Z</time></trkpt><trkpt lat="39.616976029017856" lon="9.33746156678375"><ele>266.33333333333337</ele><time>2026-04-11T07:31:17Z</time></trkpt><trkpt lat="39.617075028428225" lon="9.33721633543034"><ele>272.0</ele><time>2026-04-11T07:31:18Z</time></trkpt><trkpt lat="39.617157901868126" lon="9.336973351332503"><ele>272.0</ele><time>2026-04-11T07:31:19Z</time></trkpt><trkpt lat="39.61724818969781" lon="9.336748200478887"><ele>272.0</ele><time>2026-04-11T07:31:20Z</time></trkpt><trkpt lat="39.61733122866165" lon="9.336536588609693"><ele>272.0</ele><time>2026-04-11T07:31:21Z</time></trkpt><trkpt lat="39.61743481324154" lon="9.336359735414717"><ele>274.0</ele><time>2026-04-11T07:31:22Z</time></trkpt><trkpt lat="39.61754624121174" lon="9.336206664556407"><ele>276.0</ele><time>2026-04-11T07:31:23Z</time></trkpt><trkpt lat="39.61768703537663" lon="9.336091741280379"><ele>278.0</ele><time>2026-04-11T07:31:24Z</time></trkpt><trkpt lat="39.617832373443186" lon="9.336024088769522"><ele>278.0</ele><time>2026-04-11T07:31:25Z</time></trkpt><trkpt lat="39.617982914153856" lon="9.336002031743549"><ele>278.0</ele><time>2026-04-11T07:31:26Z</time></trkpt><trkpt lat="39.61811944720835" lon="9.335988283209415"><ele>278.0</ele><time>2026-04-11T07:31:27Z</time></trkpt><trkpt lat="39.6182231179998" lon="9.336016637770008"><ele>278.0</ele><time>2026-04-11T07:31:28Z</time></trkpt><trkpt lat="39.61829200722365" lon="9.336024446049148"><ele>278.0</ele><time>2026-04-11T07:31:29Z</time></trkpt><trkpt lat="39.61833982535925" lon="9.336114419278138"><ele>278.0</ele><time>2026-04-11T07:31:30Z</time></trkpt><trkpt lat="39.618377809523864" lon="9.336205265509777"><ele>278.0</ele><time>2026-04-11T07:31:31Z</time></trkpt><trkpt lat="39.61839815753272" lon="9.33632803561688"><ele>278.0</ele><time>2026-04-11T07:31:32Z</time></trkpt><trkpt lat="39.618399278040776" lon="9.336470517344202"><ele>278.0</ele><time>2026-04-11T07:31:33Z</time></trkpt><trkpt lat="39.61842954631764" lon="9.336609891459227"><ele>278.0</ele><time>2026-04-11T07:31:34Z</time></trkpt><trkpt lat="39.618503277734014" lon="9.33673177828694"><ele>278.0</ele><time>2026-04-11T07:31:35Z</time></trkpt><trkpt lat="39.618620583380356" lon="9.336806158305981"><ele>278.0</ele><time>2026-04-11T07:31:36Z</time></trkpt><trkpt lat="39.61875462097402" lon="9.336823559253723"><ele>278.0</ele><time>2026-04-11T07:31:37Z</time></trkpt><trkpt lat="39.61888477989294" lon="9.336771827780789"><ele>278.0</ele><time>2026-04-11T07:31:38Z</time></trkpt><trkpt lat="39.61898093991047" lon="9.336653836432056"><ele>278.0</ele><time>2026-04-11T07:31:39Z</time></trkpt><trkpt lat="39.619040671122434" lon="9.336506615955562"><ele>278.0</ele><time>2026-04-11T07:31:40Z</time></trkpt><trkpt lat="39.61906493380565" lon="9.336350562251178"><ele>278.0</ele><time>2026-04-11T07:31:41Z</time></trkpt><trkpt lat="39.61907772056398" lon="9.336189245149024"><ele>278.0</ele><time>2026-04-11T07:31:42Z</time></trkpt><trkpt lat="39.61909033908622" lon="9.336022592998203"><ele>278.0</ele><time>2026-04-11T07:31:43Z</time></trkpt><trkpt lat="39.619113205242286" lon="9.33585334853452"><ele>278.0</ele><time>2026-04-11T07:31:44Z</time></trkpt><trkpt lat="39.61913862447154" lon="9.335679001455356"><ele>278.0</ele><time>2026-04-11T07:31:45Z</time></trkpt><trkpt lat="39.61918363122848" lon="9.335521509495994"><ele>281.5</ele><time>2026-04-11T07:31:46Z</time></trkpt><trkpt lat="39.61923909768924" lon="9.33538615848481"><ele>285.0</ele><time>2026-04-11T07:31:47Z</time></trkpt><trkpt lat="39.619309439148715" lon="9.33526492713866"><ele>288.5</ele><time>2026-04-11T07:31:48Z</time></trkpt><trkpt lat="39.619427197098936" lon="9.335192944424273"><ele>292.0</ele><time>2026-04-11T07:31:49Z</time></trkpt><trkpt lat="39.619564571729" lon="9.335167494441732"><ele>292.0</ele><time>2026-04-11T07:31:50Z</time></trkpt><trkpt lat="39.61970373383389" lon="9.335228115591175"><ele>292.0</ele><time>2026-04-11T07:31:51Z</time></trkpt><trkpt lat="39.61985083791596" lon="9.335262416121617"><ele>292.0</ele><time>2026-04-11T07:31:52Z</time></trkpt><trkpt lat="39.620000154928775" lon="9.335281802418464"><ele>292.0</ele><time>2026-04-11T07:31:53Z</time></trkpt><trkpt lat="39.62014453695084" lon="9.335319064527756"><ele>292.0</ele><time>2026-04-11T07:31:54Z</time></trkpt><trkpt lat="39.62029000088248" lon="9.335355189956047"><ele>292.0</ele><time>2026-04-11T07:31:55Z</time></trkpt><trkpt lat="39.62043270543933" lon="9.335395652855329"><ele>292.0</ele><time>2026-04-11T07:31:56Z</time></trkpt><trkpt lat="39.620569965309215" lon="9.3354278703447"><ele>292.0</ele><time>2026-04-11T07:31:57Z</time></trkpt><trkpt lat="39.62069579806607" lon="9.335422559914525"><ele>293.0</ele><time>2026-04-11T07:31:58Z</time></trkpt><trkpt lat="39.620808380486466" lon="9.335357475263635"><ele>294.0</ele><time>2026-04-11T07:31:59Z</time></trkpt><trkpt lat="39.62091439843477" lon="9.335231941247931"><ele>295.0</ele><time>2026-04-11T07:32:00Z</time></trkpt><trkpt lat="39.62101779137754" lon="9.335092171670256"><ele>296.0</ele><time>2026-04-11T07:32:01Z</time></trkpt><trkpt lat="39.62111500951416" lon="9.334963563768456"><ele>296.6666666666667</ele><time>2026-04-11T07:32:02Z</time></trkpt><trkpt lat="39.62119368880258" lon="9.334849667442661"><ele>297.33333333333337</ele><time>2026-04-11T07:32:03Z</time></trkpt><trkpt lat="39.62122973010903" lon="9.334757767445195"><ele>298.0</ele><time>2026-04-11T07:32:04Z</time></trkpt><trkpt lat="39.621226204208604" lon="9.334671438179628"><ele>298.6666666666667</ele><time>2026-04-11T07:32:05Z</time></trkpt><trkpt lat="39.62119466986351" lon="9.334572147423795"><ele>299.3333333333333</ele><time>2026-04-11T07:32:06Z</time></trkpt><trkpt lat="39.62114258985521" lon="9.334462848253612"><ele>300.0</ele><time>2026-04-11T07:32:07Z</time></trkpt><trkpt lat="39.62108424629496" lon="9.334325658779143"><ele>299.5</ele><time>2026-04-11T07:32:08Z</time></trkpt><trkpt lat="39.621044489693695" lon="9.334158923081391"><ele>299.0</ele><time>2026-04-11T07:32:09Z</time></trkpt><trkpt lat="39.62100345102341" lon="9.333970486080418"><ele>298.5</ele><time>2026-04-11T07:32:10Z</time></trkpt><trkpt lat="39.62096491558472" lon="9.333771294894271"><ele>298.0</ele><time>2026-04-11T07:32:11Z</time></trkpt><trkpt lat="39.620927357753004" lon="9.333564007890391"><ele>298.0</ele><time>2026-04-11T07:32:12Z</time></trkpt><trkpt lat="39.620889211854944" lon="9.333349748602979"><ele>298.0</ele><time>2026-04-11T07:32:13Z</time></trkpt><trkpt lat="39.620848805688254" lon="9.33314311609466"><ele>298.0</ele><time>2026-04-11T07:32:14Z</time></trkpt><trkpt lat="39.62080035232039" lon="9.332950912496424"><ele>293.0</ele><time>2026-04-11T07:32:15Z</time></trkpt><trkpt lat="39.62074459567067" lon="9.332765239983015"><ele>288.0</ele><time>2026-04-11T07:32:16Z</time></trkpt><trkpt lat="39.62067886346877" lon="9.33258333065801"><ele>283.0</ele><time>2026-04-11T07:32:17Z</time></trkpt><trkpt lat="39.620596925132325" lon="9.332417018038697"><ele>283.0</ele><time>2026-04-11T07:32:18Z</time></trkpt><trkpt lat="39.620503916541885" lon="9.332276306919441"><ele>283.0</ele><time>2026-04-11T07:32:19Z</time></trkpt><trkpt lat="39.620417727417085" lon="9.332137554615864"><ele>283.0</ele><time>2026-04-11T07:32:20Z</time></trkpt><trkpt lat="39.62035098371685" lon="9.331984254770552"><ele>283.0</ele><time>2026-04-11T07:32:21Z</time></trkpt><trkpt lat="39.62032113545074" lon="9.331818621744803"><ele>279.5</ele><time>2026-04-11T07:32:22Z</time></trkpt><trkpt lat="39.620327775724036" lon="9.33163640525739"><ele>276.0</ele><time>2026-04-11T07:32:23Z</time></trkpt><trkpt lat="39.62037812856311" lon="9.331456708091252"><ele>272.5</ele><time>2026-04-11T07:32:24Z</time></trkpt><trkpt lat="39.62043680402223" lon="9.331282164750222"><ele>269.0</ele><time>2026-04-11T07:32:25Z</time></trkpt><trkpt lat="39.62050481351491" lon="9.331086572181025"><ele>269.0</ele><time>2026-04-11T07:32:26Z</time></trkpt><trkpt lat="39.620573640299796" lon="9.330884413101492"><ele>269.0</ele><time>2026-04-11T07:32:27Z</time></trkpt><trkpt lat="39.62064470857604" lon="9.330675569969161"><ele>269.0</ele><time>2026-04-11T07:32:28Z</time></trkpt><trkpt lat="39.620714544891285" lon="9.33048128225116"><ele>272.33333333333337</ele><time>2026-04-11T07:32:29Z</time></trkpt><trkpt lat="39.62078843330672" lon="9.330281745824099"><ele>275.6666666666667</ele><time>2026-04-11T07:32:30Z</time></trkpt><trkpt lat="39.620876511913366" lon="9.330096562199783"><ele>279.0</ele><time>2026-04-11T07:32:31Z</time></trkpt><trkpt lat="39.62097148907143" lon="9.329918262638442"><ele>279.0</ele><time>2026-04-11T07:32:32Z</time></trkpt><trkpt lat="39.62104399155178" lon="9.329728902367952"><ele>279.0</ele><time>2026-04-11T07:32:33Z</time></trkpt><trkpt lat="39.62110726576063" lon="9.329529352069203"><ele>279.0</ele><time>2026-04-11T07:32:34Z</time></trkpt><trkpt lat="39.62115846013463" lon="9.329318952996699"><ele>272.0</ele><time>2026-04-11T07:32:35Z</time></trkpt><trkpt lat="39.62122313091058" lon="9.329114606170348"><ele>265.0</ele><time>2026-04-11T07:32:36Z</time></trkpt><trkpt lat="39.62126253809874" lon="9.328903935431512"><ele>258.0</ele><time>2026-04-11T07:32:37Z</time></trkpt><trkpt lat="39.62131703368672" lon="9.328704077261797"><ele>258.0</ele><time>2026-04-11T07:32:38Z</time></trkpt><trkpt lat="39.621373719884474" lon="9.328509975193626"><ele>258.0</ele><time>2026-04-11T07:32:39Z</time></trkpt><trkpt lat="39.62147564750388" lon="9.32836221991908"><ele>258.0</ele><time>2026-04-11T07:32:40Z</time></trkpt><trkpt lat="39.62158936232275" lon="9.328246715481129"><ele>258.0</ele><time>2026-04-11T07:32:41Z</time></trkpt><trkpt lat="39.62168955114978" lon="9.328119287556065"><ele>258.0</ele><time>2026-04-11T07:32:42Z</time></trkpt><trkpt lat="39.621760014707675" lon="9.327956908346525"><ele>258.0</ele><time>2026-04-11T07:32:43Z</time></trkpt><trkpt lat="39.621806860665785" lon="9.327795566360077"><ele>258.0</ele><time>2026-04-11T07:32:44Z</time></trkpt><trkpt lat="39.62182378196563" lon="9.327610521963514"><ele>258.3333333333333</ele><time>2026-04-11T07:32:45Z</time></trkpt><trkpt lat="39.62180455446446" lon="9.327413010904543"><ele>258.66666666666663</ele><time>2026-04-11T07:32:46Z</time></trkpt><trkpt lat="39.6217874632884" lon="9.32721209848986"><ele>259.0</ele><time>2026-04-11T07:32:47Z</time></trkpt><trkpt lat="39.62175726186516" lon="9.326977733449663"><ele>259.0</ele><time>2026-04-11T07:32:48Z</time></trkpt><trkpt lat="39.62173504179751" lon="9.326764924558665"><ele>259.0</ele><time>2026-04-11T07:32:49Z</time></trkpt><trkpt lat="39.62172393459388" lon="9.326558676821795"><ele>259.0</ele><time>2026-04-11T07:32:50Z</time></trkpt><trkpt lat="39.621732852633045" lon="9.326359132509989"><ele>260.0</ele><time>2026-04-11T07:32:51Z</time></trkpt><trkpt lat="39.62181010849127" lon="9.326193934316144"><ele>261.0</ele><time>2026-04-11T07:32:52Z</time></trkpt><trkpt lat="39.62189244891374" lon="9.32603969885884"><ele>262.0</ele><time>2026-04-11T07:32:53Z</time></trkpt><trkpt lat="39.621979946732026" lon="9.325874098480687"><ele>263.0</ele><time>2026-04-11T07:32:54Z</time></trkpt><trkpt lat="39.62203923263702" lon="9.32570220205252"><ele>254.0</ele><time>2026-04-11T07:32:55Z</time></trkpt><trkpt lat="39.62206524744194" lon="9.3255134465409"><ele>245.0</ele><time>2026-04-11T07:32:56Z</time></trkpt><trkpt lat="39.6220403212317" lon="9.325317564288833"><ele>236.0</ele><time>2026-04-11T07:32:57Z</time></trkpt><trkpt lat="39.62199433328503" lon="9.32513738491308"><ele>227.0</ele><time>2026-04-11T07:32:58Z</time></trkpt><trkpt lat="39.62200044539605" lon="9.324967080612234"><ele>227.0</ele><time>2026-04-11T07:32:59Z</time></trkpt><trkpt lat="39.62204606107334" lon="9.324811042978197"><ele>227.0</ele><time>2026-04-11T07:33:00Z</time></trkpt><trkpt lat="39.62212600283987" lon="9.32468306723327"><ele>227.0</ele><time>2026-04-11T07:33:01Z</time></trkpt><trkpt lat="39.6222216308137" lon="9.32454899249919"><ele>227.0</ele><time>2026-04-11T07:33:02Z</time></trkpt><trkpt lat="39.622296244260816" lon="9.324404742119365"><ele>226.25</ele><time>2026-04-11T07:33:03Z</time></trkpt><trkpt lat="39.62232770228381" lon="9.324240542910335"><ele>225.5</ele><time>2026-04-11T07:33:04Z</time></trkpt><trkpt lat="39.62231329776892" lon="9.324053059047724"><ele>224.75</ele><time>2026-04-11T07:33:05Z</time></trkpt><trkpt lat="39.622264894628806" lon="9.32385632610372"><ele>224.0</ele><time>2026-04-11T07:33:06Z</time></trkpt><trkpt lat="39.62222554594708" lon="9.32365326949786"><ele>224.0</ele><time>2026-04-11T07:33:07Z</time></trkpt><trkpt lat="39.622230767272576" lon="9.323446553382993"><ele>224.0</ele><time>2026-04-11T07:33:08Z</time></trkpt><trkpt lat="39.62221281910083" lon="9.323241644882325"><ele>224.0</ele><time>2026-04-11T07:33:09Z</time></trkpt><trkpt lat="39.62218965319182" lon="9.323039846437473"><ele>222.33333333333334</ele><time>2026-04-11T07:33:10Z</time></trkpt><trkpt lat="39.62213977247413" lon="9.322844168926682"><ele>220.66666666666669</ele><time>2026-04-11T07:33:11Z</time></trkpt><trkpt lat="39.62207766790986" lon="9.322668352362856"><ele>219.0</ele><time>2026-04-11T07:33:12Z</time></trkpt><trkpt lat="39.62205841904518" lon="9.32247967987834"><ele>219.0</ele><time>2026-04-11T07:33:13Z</time></trkpt><trkpt lat="39.62209797597736" lon="9.322305247922397"><ele>219.0</ele><time>2026-04-11T07:33:14Z</time></trkpt><trkpt lat="39.62217635357106" lon="9.322141930050988"><ele>219.0</ele><time>2026-04-11T07:33:15Z</time></trkpt><trkpt lat="39.6222501638571" lon="9.321995677369852"><ele>219.0</ele><time>2026-04-11T07:33:16Z</time></trkpt><trkpt lat="39.62228232268158" lon="9.321809426729008"><ele>217.66666666666669</ele><time>2026-04-11T07:33:17Z</time></trkpt><trkpt lat="39.622267619501116" lon="9.321611251579496"><ele>216.33333333333334</ele><time>2026-04-11T07:33:18Z</time></trkpt><trkpt lat="39.622215310230295" lon="9.321410669719112"><ele>215.0</ele><time>2026-04-11T07:33:19Z</time></trkpt><trkpt lat="39.62218456690064" lon="9.321208267859625"><ele>213.5</ele><time>2026-04-11T07:33:20Z</time></trkpt><trkpt lat="39.622148468154684" lon="9.321017266563915"><ele>212.0</ele><time>2026-04-11T07:33:21Z</time></trkpt><trkpt lat="39.622115417824105" lon="9.32083592370678"><ele>210.5</ele><time>2026-04-11T07:33:22Z</time></trkpt><trkpt lat="39.622086105013416" lon="9.320666791464328"><ele>209.0</ele><time>2026-04-11T07:33:23Z</time></trkpt><trkpt lat="39.62207688173905" lon="9.320513796585793"><ele>209.0</ele><time>2026-04-11T07:33:24Z</time></trkpt><trkpt lat="39.62210133500753" lon="9.320365271861572"><ele>209.0</ele><time>2026-04-11T07:33:25Z</time></trkpt><trkpt lat="39.62214873453497" lon="9.320229909977533"><ele>209.0</ele><time>2026-04-11T07:33:26Z</time></trkpt><trkpt lat="39.6222304577235" lon="9.320137532395147"><ele>209.0</ele><time>2026-04-11T07:33:27Z</time></trkpt><trkpt lat="39.62234088427045" lon="9.32007031153338"><ele>209.0</ele><time>2026-04-11T07:33:28Z</time></trkpt><trkpt lat="39.62247243098344" lon="9.319984675877468"><ele>209.0</ele><time>2026-04-11T07:33:29Z</time></trkpt><trkpt lat="39.62260239967714" lon="9.31991343071504"><ele>209.0</ele><time>2026-04-11T07:33:30Z</time></trkpt><trkpt lat="39.622708806018494" lon="9.31981807707041"><ele>209.0</ele><time>2026-04-11T07:33:31Z</time></trkpt><trkpt lat="39.62278611777124" lon="9.319684201483367"><ele>208.5</ele><time>2026-04-11T07:33:32Z</time></trkpt><trkpt lat="39.622821007729826" lon="9.31951827461744"><ele>208.0</ele><time>2026-04-11T07:33:33Z</time></trkpt><trkpt lat="39.62282180342252" lon="9.319352154477867"><ele>207.5</ele><time>2026-04-11T07:33:34Z</time></trkpt><trkpt lat="39.622780009039005" lon="9.319200191389049"><ele>207.0</ele><time>2026-04-11T07:33:35Z</time></trkpt><trkpt lat="39.622699451938786" lon="9.319073023160547"><ele>207.0</ele><time>2026-04-11T07:33:36Z</time></trkpt><trkpt lat="39.62258244387207" lon="9.318991528029798"><ele>207.0</ele><time>2026-04-11T07:33:37Z</time></trkpt><trkpt lat="39.62245750354032" lon="9.318955408476652"><ele>207.0</ele><time>2026-04-11T07:33:38Z</time></trkpt><trkpt lat="39.62233084210006" lon="9.318975506328432"><ele>207.0</ele><time>2026-04-11T07:33:39Z</time></trkpt><trkpt lat="39.622213861863315" lon="9.319046537056776"><ele>207.0</ele><time>2026-04-11T07:33:40Z</time></trkpt><trkpt lat="39.622112808034494" lon="9.319164133230089"><ele>207.0</ele><time>2026-04-11T07:33:41Z</time></trkpt><trkpt lat="39.62202972067828" lon="9.319280451351535"><ele>207.0</ele><time>2026-04-11T07:33:42Z</time></trkpt><trkpt lat="39.62191881338957" lon="9.319316885234743"><ele>207.0</ele><time>2026-04-11T07:33:43Z</time></trkpt><trkpt lat="39.621810113560294" lon="9.319302336886762"><ele>206.5</ele><time>2026-04-11T07:33:44Z</time></trkpt><trkpt lat="39.6217286447998" lon="9.319220078056386"><ele>206.0</ele><time>2026-04-11T07:33:45Z</time></trkpt><trkpt lat="39.621651354489956" lon="9.31912071300257"><ele>205.5</ele><time>2026-04-11T07:33:46Z</time></trkpt><trkpt lat="39.621619880197656" lon="9.318968012111327"><ele>205.0</ele><time>2026-04-11T07:33:47Z</time></trkpt><trkpt lat="39.62162283004719" lon="9.31879765815038"><ele>201.66666666666666</ele><time>2026-04-11T07:33:48Z</time></trkpt><trkpt lat="39.621610880290994" lon="9.31860280537988"><ele>198.33333333333331</ele><time>2026-04-11T07:33:49Z</time></trkpt><trkpt lat="39.62159809337936" lon="9.318398102236229"><ele>195.0</ele><time>2026-04-11T07:33:50Z</time></trkpt><trkpt lat="39.62158463561486" lon="9.318189694171224"><ele>192.33333333333334</ele><time>2026-04-11T07:33:51Z</time></trkpt><trkpt lat="39.621570706944176" lon="9.317980433583655"><ele>189.66666666666669</ele><time>2026-04-11T07:33:52Z</time></trkpt><trkpt lat="39.62155712844862" lon="9.317775850637062"><ele>187.0</ele><time>2026-04-11T07:33:53Z</time></trkpt><trkpt lat="39.621554299037186" lon="9.31757627193347"><ele>187.0</ele><time>2026-04-11T07:33:54Z</time></trkpt><trkpt lat="39.62158819733259" lon="9.317386233356997"><ele>187.0</ele><time>2026-04-11T07:33:55Z</time></trkpt><trkpt lat="39.62162763105154" lon="9.317198567656988"><ele>187.0</ele><time>2026-04-11T07:33:56Z</time></trkpt><trkpt lat="39.621668388250164" lon="9.317008672432198"><ele>184.5</ele><time>2026-04-11T07:33:57Z</time></trkpt><trkpt lat="39.62166933030424" lon="9.316812252594628"><ele>182.0</ele><time>2026-04-11T07:33:58Z</time></trkpt><trkpt lat="39.62163529326539" lon="9.316635683559346"><ele>179.5</ele><time>2026-04-11T07:33:59Z</time></trkpt><trkpt lat="39.621560348222964" lon="9.316497001013557"><ele>177.0</ele><time>2026-04-11T07:34:00Z</time></trkpt><trkpt lat="39.62145513132401" lon="9.316374150447734"><ele>173.66666666666666</ele><time>2026-04-11T07:34:01Z</time></trkpt><trkpt lat="39.62132471445457" lon="9.316277525491932"><ele>170.33333333333331</ele><time>2026-04-11T07:34:02Z</time></trkpt><trkpt lat="39.62117816602042" lon="9.31623031210067"><ele>167.0</ele><time>2026-04-11T07:34:03Z</time></trkpt><trkpt lat="39.62101705992854" lon="9.316237844406963"><ele>167.0</ele><time>2026-04-11T07:34:04Z</time></trkpt><trkpt lat="39.62085079180088" lon="9.316271517146996"><ele>167.0</ele><time>2026-04-11T07:34:05Z</time></trkpt><trkpt lat="39.62068352834859" lon="9.316307761004413"><ele>167.0</ele><time>2026-04-11T07:34:06Z</time></trkpt><trkpt lat="39.6205228123217" lon="9.316337748371383"><ele>167.0</ele><time>2026-04-11T07:34:07Z</time></trkpt><trkpt lat="39.62036693863868" lon="9.316365114924409"><ele>167.0</ele><time>2026-04-11T07:34:08Z</time></trkpt><trkpt lat="39.62022327383523" lon="9.316385836006807"><ele>167.0</ele><time>2026-04-11T07:34:09Z</time></trkpt><trkpt lat="39.62009104311613" lon="9.316348714035843"><ele>167.0</ele><time>2026-04-11T07:34:10Z</time></trkpt><trkpt lat="39.61995815154951" lon="9.3163076081169"><ele>166.33333333333331</ele><time>2026-04-11T07:34:11Z</time></trkpt><trkpt lat="39.61986855957027" lon="9.316153516713863"><ele>165.66666666666666</ele><time>2026-04-11T07:34:12Z</time></trkpt><trkpt lat="39.61976189159885" lon="9.315999995569749"><ele>165.0</ele><time>2026-04-11T07:34:13Z</time></trkpt><trkpt lat="39.619640257844914" lon="9.315856769085746"><ele>165.0</ele><time>2026-04-11T07:34:14Z</time></trkpt><trkpt lat="39.61953882627798" lon="9.31570044466101"><ele>165.0</ele><time>2026-04-11T07:34:15Z</time></trkpt><trkpt lat="39.61947794337246" lon="9.315526861093899"><ele>165.0</ele><time>2026-04-11T07:34:16Z</time></trkpt><trkpt lat="39.619443783781364" lon="9.315359232085628"><ele>165.0</ele><time>2026-04-11T07:34:17Z</time></trkpt><trkpt lat="39.61946215677714" lon="9.315195222904558"><ele>162.75</ele><time>2026-04-11T07:34:18Z</time></trkpt><trkpt lat="39.61951568685676" lon="9.315039115499292"><ele>160.5</ele><time>2026-04-11T07:34:19Z</time></trkpt><trkpt lat="39.61960397363239" lon="9.314900130475671"><ele>158.25</ele><time>2026-04-11T07:34:20Z</time></trkpt><trkpt lat="39.61966992393765" lon="9.314740811209951"><ele>156.0</ele><time>2026-04-11T07:34:21Z</time></trkpt><trkpt lat="39.61972178300621" lon="9.314561230252618"><ele>153.66666666666666</ele><time>2026-04-11T07:34:22Z</time></trkpt><trkpt lat="39.619722280214404" lon="9.314355976202737"><ele>151.33333333333331</ele><time>2026-04-11T07:34:23Z</time></trkpt><trkpt lat="39.61969913193794" lon="9.314139958800318"><ele>149.0</ele><time>2026-04-11T07:34:24Z</time></trkpt><trkpt lat="39.61970045359753" lon="9.313931102285418"><ele>146.66666666666666</ele><time>2026-04-11T07:34:25Z</time></trkpt><trkpt lat="39.61970407401729" lon="9.31373260911524"><ele>144.33333333333334</ele><time>2026-04-11T07:34:26Z</time></trkpt><trkpt lat="39.619734876159" lon="9.313540209192114"><ele>142.0</ele><time>2026-04-11T07:34:27Z</time></trkpt><trkpt lat="39.6197839827391" lon="9.313353604250535"><ele>142.0</ele><time>2026-04-11T07:34:28Z</time></trkpt><trkpt lat="39.61984017889891" lon="9.31316095389638"><ele>142.0</ele><time>2026-04-11T07:34:29Z</time></trkpt><trkpt lat="39.619899422537245" lon="9.312962842942522"><ele>142.0</ele><time>2026-04-11T07:34:30Z</time></trkpt><trkpt lat="39.619947458812625" lon="9.312756166826865"><ele>141.25</ele><time>2026-04-11T07:34:31Z</time></trkpt><trkpt lat="39.62000288373554" lon="9.312573990256725"><ele>140.5</ele><time>2026-04-11T07:34:32Z</time></trkpt><trkpt lat="39.62003247262822" lon="9.312406289063238"><ele>139.75</ele><time>2026-04-11T07:34:33Z</time></trkpt><trkpt lat="39.62002379462028" lon="9.312246255902108"><ele>139.0</ele><time>2026-04-11T07:34:34Z</time></trkpt><trkpt lat="39.6199733242795" lon="9.312103951288952"><ele>138.5</ele><time>2026-04-11T07:34:35Z</time></trkpt><trkpt lat="39.61988929234088" lon="9.311984459731228"><ele>138.0</ele><time>2026-04-11T07:34:36Z</time></trkpt><trkpt lat="39.619781172349086" lon="9.311896050038"><ele>137.5</ele><time>2026-04-11T07:34:37Z</time></trkpt><trkpt lat="39.619663743268866" lon="9.311819759719732"><ele>137.0</ele><time>2026-04-11T07:34:38Z</time></trkpt><trkpt lat="39.61954727316537" lon="9.311735439000982"><ele>136.25</ele><time>2026-04-11T07:34:39Z</time></trkpt><trkpt lat="39.61942746256936" lon="9.311637961919386"><ele>135.5</ele><time>2026-04-11T07:34:40Z</time></trkpt><trkpt lat="39.61930122006043" lon="9.311534308583052"><ele>134.75</ele><time>2026-04-11T07:34:41Z</time></trkpt><trkpt lat="39.619169478954355" lon="9.311427709364551"><ele>134.0</ele><time>2026-04-11T07:34:42Z</time></trkpt><trkpt lat="39.619035585130234" lon="9.311315840850105"><ele>134.0</ele><time>2026-04-11T07:34:43Z</time></trkpt><trkpt lat="39.6188998084155" lon="9.311199338524363"><ele>134.0</ele><time>2026-04-11T07:34:44Z</time></trkpt><trkpt lat="39.61876729260493" lon="9.311086455053834"><ele>134.0</ele><time>2026-04-11T07:34:45Z</time></trkpt><trkpt lat="39.61864738345502" lon="9.31099383370708"><ele>138.0</ele><time>2026-04-11T07:34:46Z</time></trkpt><trkpt lat="39.61852827560787" lon="9.310953244102661"><ele>142.0</ele><time>2026-04-11T07:34:47Z</time></trkpt><trkpt lat="39.618412732445506" lon="9.310991285781075"><ele>146.0</ele><time>2026-04-11T07:34:48Z</time></trkpt><trkpt lat="39.61830411556877" lon="9.311094950599553"><ele>150.0</ele><time>2026-04-11T07:34:49Z</time></trkpt><trkpt lat="39.61821118702548" lon="9.311252267763162"><ele>147.33333333333334</ele><time>2026-04-11T07:34:50Z</time></trkpt><trkpt lat="39.6181247579878" lon="9.311431348272814"><ele>144.66666666666669</ele><time>2026-04-11T07:34:51Z</time></trkpt><trkpt lat="39.61803316595051" lon="9.311604509853423"><ele>142.0</ele><time>2026-04-11T07:34:52Z</time></trkpt><trkpt lat="39.61793984249552" lon="9.31175878129782"><ele>142.0</ele><time>2026-04-11T07:34:53Z</time></trkpt><trkpt lat="39.61784432740909" lon="9.311888117762441"><ele>142.0</ele><time>2026-04-11T07:34:54Z</time></trkpt><trkpt lat="39.617729815004395" lon="9.311971287120627"><ele>142.0</ele><time>2026-04-11T07:34:55Z</time></trkpt><trkpt lat="39.61759232963948" lon="9.311960282480657"><ele>142.0</ele><time>2026-04-11T07:34:56Z</time></trkpt><trkpt lat="39.617445734663086" lon="9.311941139976236"><ele>143.66666666666669</ele><time>2026-04-11T07:34:57Z</time></trkpt><trkpt lat="39.61728570876086" lon="9.311925014352553"><ele>145.33333333333334</ele><time>2026-04-11T07:34:58Z</time></trkpt><trkpt lat="39.617127288932245" lon="9.311876360234253"><ele>147.0</ele><time>2026-04-11T07:34:59Z</time></trkpt><trkpt lat="39.61698285557028" lon="9.31179679839502"><ele>147.0</ele><time>2026-04-11T07:35:00Z</time></trkpt><trkpt lat="39.616850044255074" lon="9.311704720102208"><ele>147.0</ele><time>2026-04-11T07:35:01Z</time></trkpt><trkpt lat="39.61672458435433" lon="9.311580009228171"><ele>147.0</ele><time>2026-04-11T07:35:02Z</time></trkpt><trkpt lat="39.61660460240955" lon="9.311420498057734"><ele>153.0</ele><time>2026-04-11T07:35:03Z</time></trkpt><trkpt lat="39.61647656272062" lon="9.311252544692426"><ele>159.0</ele><time>2026-04-11T07:35:04Z</time></trkpt><trkpt lat="39.616354918052046" lon="9.311074884873141"><ele>165.0</ele><time>2026-04-11T07:35:05Z</time></trkpt><trkpt lat="39.6162184005981" lon="9.310909233720421"><ele>167.0</ele><time>2026-04-11T07:35:06Z</time></trkpt><trkpt lat="39.616077809602984" lon="9.310757099602217"><ele>169.0</ele><time>2026-04-11T07:35:07Z</time></trkpt><trkpt lat="39.615936582736104" lon="9.310616260604274"><ele>171.0</ele><time>2026-04-11T07:35:08Z</time></trkpt><trkpt lat="39.61579656890736" lon="9.310486678547791"><ele>171.0</ele><time>2026-04-11T07:35:09Z</time></trkpt><trkpt lat="39.615676304506515" lon="9.310359615872262"><ele>171.0</ele><time>2026-04-11T07:35:10Z</time></trkpt><trkpt lat="39.615583687079145" lon="9.310185917029747"><ele>171.0</ele><time>2026-04-11T07:35:11Z</time></trkpt><trkpt lat="39.615502044799676" lon="9.309988862894281"><ele>171.0</ele><time>2026-04-11T07:35:12Z</time></trkpt><trkpt lat="39.615403747635305" lon="9.309778134781379"><ele>171.0</ele><time>2026-04-11T07:35:13Z</time></trkpt><trkpt lat="39.615314318909334" lon="9.309552627846143"><ele>171.0</ele><time>2026-04-11T07:35:14Z</time></trkpt><trkpt lat="39.615216946930815" lon="9.309329625595161"><ele>169.66666666666666</ele><time>2026-04-11T07:35:15Z</time></trkpt><trkpt lat="39.61512561615679" lon="9.309104712006835"><ele>168.33333333333331</ele><time>2026-04-11T07:35:16Z</time></trkpt><trkpt lat="39.61503689173152" lon="9.308885090153952"><ele>167.0</ele><time>2026-04-11T07:35:17Z</time></trkpt><trkpt lat="39.61494824746258" lon="9.308670672447418"><ele>170.66666666666666</ele><time>2026-04-11T07:35:18Z</time></trkpt><trkpt lat="39.6148628828174" lon="9.30846363426487"><ele>174.33333333333334</ele><time>2026-04-11T07:35:19Z</time></trkpt><trkpt lat="39.61478412578638" lon="9.308269178389848"><ele>178.0</ele><time>2026-04-11T07:35:20Z</time></trkpt><trkpt lat="39.61471161495034" lon="9.308085385415845"><ele>180.0</ele><time>2026-04-11T07:35:21Z</time></trkpt><trkpt lat="39.61465187621608" lon="9.307898883527393"><ele>182.0</ele><time>2026-04-11T07:35:22Z</time></trkpt><trkpt lat="39.6146179227871" lon="9.307691683963036"><ele>184.0</ele><time>2026-04-11T07:35:23Z</time></trkpt><trkpt lat="39.6146097447269" lon="9.307464984360369"><ele>184.66666666666669</ele><time>2026-04-11T07:35:24Z</time></trkpt><trkpt lat="39.61461195152594" lon="9.307227935765184"><ele>185.33333333333334</ele><time>2026-04-11T07:35:25Z</time></trkpt><trkpt lat="39.61461403358979" lon="9.306990087597931"><ele>186.0</ele><time>2026-04-11T07:35:26Z</time></trkpt><trkpt lat="39.61461579406455" lon="9.306764682603982"><ele>186.0</ele><time>2026-04-11T07:35:27Z</time></trkpt><trkpt lat="39.614611033410995" lon="9.306553554599663"><ele>186.0</ele><time>2026-04-11T07:35:28Z</time></trkpt><trkpt lat="39.614577907183005" lon="9.306350644905462"><ele>186.0</ele><time>2026-04-11T07:35:29Z</time></trkpt><trkpt lat="39.61450694450585" lon="9.306152547345679"><ele>185.33333333333334</ele><time>2026-04-11T07:35:30Z</time></trkpt><trkpt lat="39.61440371531496" lon="9.305983349852799"><ele>184.66666666666669</ele><time>2026-04-11T07:35:31Z</time></trkpt><trkpt lat="39.61426480164412" lon="9.305844403928148"><ele>184.0</ele><time>2026-04-11T07:35:32Z</time></trkpt><trkpt lat="39.61410892701666" lon="9.305719060687196"><ele>184.0</ele><time>2026-04-11T07:35:33Z</time></trkpt><trkpt lat="39.61395725486874" lon="9.305589797098477"><ele>184.0</ele><time>2026-04-11T07:35:34Z</time></trkpt><trkpt lat="39.613823920261254" lon="9.305461344818069"><ele>184.0</ele><time>2026-04-11T07:35:35Z</time></trkpt><trkpt lat="39.61371672138884" lon="9.305339775181148"><ele>186.5</ele><time>2026-04-11T07:35:36Z</time></trkpt><trkpt lat="39.61363341583277" lon="9.305211625679036"><ele>189.0</ele><time>2026-04-11T07:35:37Z</time></trkpt><trkpt lat="39.61359128361391" lon="9.305066065815176"><ele>191.5</ele><time>2026-04-11T07:35:38Z</time></trkpt><trkpt lat="39.613599195484504" lon="9.304908091009734"><ele>194.0</ele><time>2026-04-11T07:35:39Z</time></trkpt><trkpt lat="39.61364454256091" lon="9.304760566530828"><ele>201.0</ele><time>2026-04-11T07:35:40Z</time></trkpt><trkpt lat="39.61372887957264" lon="9.30463877827653"><ele>208.0</ele><time>2026-04-11T07:35:41Z</time></trkpt><trkpt lat="39.61384631340857" lon="9.30456261338268"><ele>215.0</ele><time>2026-04-11T07:35:42Z</time></trkpt><trkpt lat="39.613979914799856" lon="9.30453501799754"><ele>222.0</ele><time>2026-04-11T07:35:43Z</time></trkpt><trkpt lat="39.6141317309978" lon="9.304532466814896"><ele>222.0</ele><time>2026-04-11T07:35:44Z</time></trkpt><trkpt lat="39.61429589796339" lon="9.304529315650653"><ele>222.0</ele><time>2026-04-11T07:35:45Z</time></trkpt><trkpt lat="39.61445938870295" lon="9.304523441474712"><ele>222.0</ele><time>2026-04-11T07:35:46Z</time></trkpt><trkpt lat="39.614625555443666" lon="9.304517240996928"><ele>221.0</ele><time>2026-04-11T07:35:47Z</time></trkpt><trkpt lat="39.61480023459097" lon="9.304508147919321"><ele>220.0</ele><time>2026-04-11T07:35:48Z</time></trkpt><trkpt lat="39.61497550845515" lon="9.304500954599762"><ele>219.0</ele><time>2026-04-11T07:35:49Z</time></trkpt><trkpt lat="39.61515294184404" lon="9.304497719377615"><ele>221.0</ele><time>2026-04-11T07:35:50Z</time></trkpt><trkpt lat="39.61533411378826" lon="9.304492020401833"><ele>223.0</ele><time>2026-04-11T07:35:51Z</time></trkpt><trkpt lat="39.61551482482333" lon="9.304482563516117"><ele>225.0</ele><time>2026-04-11T07:35:52Z</time></trkpt><trkpt lat="39.615699552823166" lon="9.304477920196597"><ele>225.0</ele><time>2026-04-11T07:35:53Z</time></trkpt><trkpt lat="39.61588556814475" lon="9.304476913502123"><ele>225.0</ele><time>2026-04-11T07:35:54Z</time></trkpt><trkpt lat="39.61606804970468" lon="9.304472982963993"><ele>225.0</ele><time>2026-04-11T07:35:55Z</time></trkpt><trkpt lat="39.6162502595196" lon="9.304468613839935"><ele>226.33333333333331</ele><time>2026-04-11T07:35:56Z</time></trkpt><trkpt lat="39.61642661466154" lon="9.304470194438965"><ele>227.66666666666666</ele><time>2026-04-11T07:35:57Z</time></trkpt><trkpt lat="39.616592265219566" lon="9.304465534269337"><ele>229.0</ele><time>2026-04-11T07:35:58Z</time></trkpt><trkpt lat="39.61674719652499" lon="9.304436705288834"><ele>229.0</ele><time>2026-04-11T07:35:59Z</time></trkpt><trkpt lat="39.61688444345871" lon="9.304356653883508"><ele>229.0</ele><time>2026-04-11T07:36:00Z</time></trkpt><trkpt lat="39.61699223802589" lon="9.304219322246723"><ele>229.0</ele><time>2026-04-11T07:36:01Z</time></trkpt><trkpt lat="39.61709865842186" lon="9.304054900914556"><ele>235.0</ele><time>2026-04-11T07:36:02Z</time></trkpt><trkpt lat="39.61719919351535" lon="9.30389617206725"><ele>241.0</ele><time>2026-04-11T07:36:03Z</time></trkpt><trkpt lat="39.61730582351943" lon="9.303748214846838"><ele>247.0</ele><time>2026-04-11T07:36:04Z</time></trkpt><trkpt lat="39.617448738794096" lon="9.303654359816626"><ele>247.0</ele><time>2026-04-11T07:36:05Z</time></trkpt><trkpt lat="39.6176116998561" lon="9.303641290424679"><ele>247.0</ele><time>2026-04-11T07:36:06Z</time></trkpt><trkpt lat="39.61778152366858" lon="9.303644107074156"><ele>247.0</ele><time>2026-04-11T07:36:07Z</time></trkpt><trkpt lat="39.61796230831136" lon="9.303632858620551"><ele>250.0</ele><time>2026-04-11T07:36:08Z</time></trkpt><trkpt lat="39.61814751106276" lon="9.303633371874717"><ele>253.0</ele><time>2026-04-11T07:36:09Z</time></trkpt><trkpt lat="39.61833439208517" lon="9.303636137099819"><ele>256.0</ele><time>2026-04-11T07:36:10Z</time></trkpt><trkpt lat="39.61852414819726" lon="9.3036609107939"><ele>259.66666666666663</ele><time>2026-04-11T07:36:11Z</time></trkpt><trkpt lat="39.61871514947425" lon="9.303713494271424"><ele>263.3333333333333</ele><time>2026-04-11T07:36:12Z</time></trkpt><trkpt lat="39.6189082791362" lon="9.303767023828355"><ele>267.0</ele><time>2026-04-11T07:36:13Z</time></trkpt><trkpt lat="39.61910017128888" lon="9.303821649500955"><ele>267.0</ele><time>2026-04-11T07:36:14Z</time></trkpt><trkpt lat="39.61928572076763" lon="9.303885523897138"><ele>267.0</ele><time>2026-04-11T07:36:15Z</time></trkpt><trkpt lat="39.619469994666574" lon="9.303947550709704"><ele>267.0</ele><time>2026-04-11T07:36:16Z</time></trkpt><trkpt lat="39.61965227133522" lon="9.304005239470277"><ele>260.6666666666667</ele><time>2026-04-11T07:36:17Z</time></trkpt><trkpt lat="39.619832806697" lon="9.304058173049848"><ele>254.33333333333334</ele><time>2026-04-11T07:36:18Z</time></trkpt><trkpt lat="39.62001419752963" lon="9.304088447714797"><ele>248.0</ele><time>2026-04-11T07:36:19Z</time></trkpt><trkpt lat="39.62019283674096" lon="9.304102255205821"><ele>248.33333333333334</ele><time>2026-04-11T07:36:20Z</time></trkpt><trkpt lat="39.620362597655294" lon="9.304106640812934"><ele>248.66666666666669</ele><time>2026-04-11T07:36:21Z</time></trkpt><trkpt lat="39.6205189005859" lon="9.304064830966265"><ele>249.0</ele><time>2026-04-11T07:36:22Z</time></trkpt><trkpt lat="39.620668929539605" lon="9.303966325696553"><ele>254.0</ele><time>2026-04-11T07:36:23Z</time></trkpt><trkpt lat="39.62080386747151" lon="9.303824024217112"><ele>259.0</ele><time>2026-04-11T07:36:24Z</time></trkpt><trkpt lat="39.6209301208883" lon="9.303682170390118"><ele>264.0</ele><time>2026-04-11T07:36:25Z</time></trkpt><trkpt lat="39.621072338065694" lon="9.303573751862459"><ele>264.6666666666667</ele><time>2026-04-11T07:36:26Z</time></trkpt><trkpt lat="39.6212397174121" lon="9.30349422924646"><ele>265.33333333333337</ele><time>2026-04-11T07:36:27Z</time></trkpt><trkpt lat="39.621419286638975" lon="9.303428573856852"><ele>266.0</ele><time>2026-04-11T07:36:28Z</time></trkpt><trkpt lat="39.62160254643" lon="9.30335763349845"><ele>266.0</ele><time>2026-04-11T07:36:29Z</time></trkpt><trkpt lat="39.62178579108899" lon="9.30328669917297"><ele>266.0</ele><time>2026-04-11T07:36:30Z</time></trkpt><trkpt lat="39.62196964443438" lon="9.303225646030773"><ele>266.0</ele><time>2026-04-11T07:36:31Z</time></trkpt><trkpt lat="39.622159623913525" lon="9.303179570166995"><ele>265.6666666666667</ele><time>2026-04-11T07:36:32Z</time></trkpt><trkpt lat="39.62235835342437" lon="9.303144589600818"><ele>265.3333333333333</ele><time>2026-04-11T07:36:33Z</time></trkpt><trkpt lat="39.62255269433969" lon="9.303107806814955"><ele>265.0</ele><time>2026-04-11T07:36:34Z</time></trkpt><trkpt lat="39.62275098438961" lon="9.303067405730593"><ele>269.3333333333333</ele><time>2026-04-11T07:36:35Z</time></trkpt><trkpt lat="39.622950737233886" lon="9.30303335131452"><ele>273.6666666666667</ele><time>2026-04-11T07:36:36Z</time></trkpt><trkpt lat="39.6231517651626" lon="9.302999181818123"><ele>278.0</ele><time>2026-04-11T07:36:37Z</time></trkpt><trkpt lat="39.62335133918703" lon="9.302958238973323"><ele>278.0</ele><time>2026-04-11T07:36:38Z</time></trkpt><trkpt lat="39.62354975890509" lon="9.302917830601881"><ele>278.0</ele><time>2026-04-11T07:36:39Z</time></trkpt><trkpt lat="39.62374426825974" lon="9.30288893835449"><ele>278.0</ele><time>2026-04-11T07:36:40Z</time></trkpt><trkpt lat="39.623935649278586" lon="9.302885946886597"><ele>279.33333333333337</ele><time>2026-04-11T07:36:41Z</time></trkpt><trkpt lat="39.62412272700261" lon="9.302924152436637"><ele>280.6666666666667</ele><time>2026-04-11T07:36:42Z</time></trkpt><trkpt lat="39.62430573333277" lon="9.30300719547618"><ele>282.0</ele><time>2026-04-11T07:36:43Z</time></trkpt><trkpt lat="39.6244918813836" lon="9.303120487523504"><ele>282.0</ele><time>2026-04-11T07:36:44Z</time></trkpt><trkpt lat="39.6246808804086" lon="9.303239318049398"><ele>282.0</ele><time>2026-04-11T07:36:45Z</time></trkpt><trkpt lat="39.624870794473374" lon="9.303357623420986"><ele>282.0</ele><time>2026-04-11T07:36:46Z</time></trkpt><trkpt lat="39.625054485270454" lon="9.30347097436539"><ele>282.0</ele><time>2026-04-11T07:36:47Z</time></trkpt><trkpt lat="39.62523755217007" lon="9.303579809622976"><ele>282.0</ele><time>2026-04-11T07:36:48Z</time></trkpt><trkpt lat="39.62542775055584" lon="9.303667732901852"><ele>282.0</ele><time>2026-04-11T07:36:49Z</time></trkpt><trkpt lat="39.62563103988954" lon="9.303723517776929"><ele>286.6666666666667</ele><time>2026-04-11T07:36:50Z</time></trkpt><trkpt lat="39.625845622582304" lon="9.30374430009263"><ele>291.33333333333337</ele><time>2026-04-11T07:36:51Z</time></trkpt><trkpt lat="39.62606526218425" lon="9.30375012544647"><ele>296.0</ele><time>2026-04-11T07:36:52Z</time></trkpt><trkpt lat="39.62628319259576" lon="9.303759371784457"><ele>299.33333333333337</ele><time>2026-04-11T07:36:53Z</time></trkpt><trkpt lat="39.62649917290268" lon="9.303771567001744"><ele>302.6666666666667</ele><time>2026-04-11T07:36:54Z</time></trkpt><trkpt lat="39.62670810041676" lon="9.30378218019459"><ele>306.0</ele><time>2026-04-11T07:36:55Z</time></trkpt><trkpt lat="39.62691040654617" lon="9.303789391669275"><ele>301.6666666666667</ele><time>2026-04-11T07:36:56Z</time></trkpt><trkpt lat="39.62710606222237" lon="9.303805350373457"><ele>297.33333333333337</ele><time>2026-04-11T07:36:57Z</time></trkpt><trkpt lat="39.62729517568758" lon="9.303858025284047"><ele>293.0</ele><time>2026-04-11T07:36:58Z</time></trkpt><trkpt lat="39.62747267581173" lon="9.303961284230743"><ele>293.0</ele><time>2026-04-11T07:36:59Z</time></trkpt><trkpt lat="39.62763203014169" lon="9.304073852646455"><ele>293.0</ele><time>2026-04-11T07:37:00Z</time></trkpt><trkpt lat="39.627793738080676" lon="9.304149368288366"><ele>293.0</ele><time>2026-04-11T07:37:01Z</time></trkpt><trkpt lat="39.62796780458976" lon="9.304188404664618"><ele>296.33333333333337</ele><time>2026-04-11T07:37:02Z</time></trkpt><trkpt lat="39.62814727275125" lon="9.304202462353054"><ele>299.6666666666667</ele><time>2026-04-11T07:37:03Z</time></trkpt><trkpt lat="39.62833561810069" lon="9.304179608965233"><ele>303.0</ele><time>2026-04-11T07:37:04Z</time></trkpt><trkpt lat="39.628502256700806" lon="9.30412197137488"><ele>298.0</ele><time>2026-04-11T07:37:05Z</time></trkpt><trkpt lat="39.628654982100315" lon="9.304043421988958"><ele>293.0</ele><time>2026-04-11T07:37:06Z</time></trkpt><trkpt lat="39.628793560414906" lon="9.30393551951771"><ele>288.0</ele><time>2026-04-11T07:37:07Z</time></trkpt><trkpt lat="39.62891354540301" lon="9.303797355603251"><ele>297.0</ele><time>2026-04-11T07:37:08Z</time></trkpt><trkpt lat="39.62902015955031" lon="9.303653013662876"><ele>306.0</ele><time>2026-04-11T07:37:09Z</time></trkpt><trkpt lat="39.62912805196284" lon="9.303523768926599"><ele>315.0</ele><time>2026-04-11T07:37:10Z</time></trkpt><trkpt lat="39.62925287552149" lon="9.303427829773739"><ele>324.0</ele><time>2026-04-11T07:37:11Z</time></trkpt><trkpt lat="39.62938616166397" lon="9.303308120655723"><ele>328.3333333333333</ele><time>2026-04-11T07:37:12Z</time></trkpt><trkpt lat="39.629531605015515" lon="9.303227545767736"><ele>332.66666666666663</ele><time>2026-04-11T07:37:13Z</time></trkpt><trkpt lat="39.62967060831234" lon="9.303124580363034"><ele>337.0</ele><time>2026-04-11T07:37:14Z</time></trkpt><trkpt lat="39.629786001951196" lon="9.303012571406281"><ele>337.0</ele><time>2026-04-11T07:37:15Z</time></trkpt><trkpt lat="39.62992522048766" lon="9.30288296483402"><ele>337.0</ele><time>2026-04-11T07:37:16Z</time></trkpt><trkpt lat="39.630037249589854" lon="9.30279170459742"><ele>337.0</ele><time>2026-04-11T07:37:17Z</time></trkpt><trkpt lat="39.63015608775206" lon="9.302653569845946"><ele>337.0</ele><time>2026-04-11T07:37:18Z</time></trkpt><trkpt lat="39.6302606925634" lon="9.30254139344158"><ele>337.0</ele><time>2026-04-11T07:37:19Z</time></trkpt><trkpt lat="39.63036215053982" lon="9.302433334750969"><ele>337.0</ele><time>2026-04-11T07:37:20Z</time></trkpt><trkpt lat="39.63047043990053" lon="9.302338933818104"><ele>337.0</ele><time>2026-04-11T07:37:21Z</time></trkpt><trkpt lat="39.63057176589552" lon="9.30223806874815"><ele>340.25</ele><time>2026-04-11T07:37:22Z</time></trkpt><trkpt lat="39.6306760803161" lon="9.30214044748181"><ele>343.5</ele><time>2026-04-11T07:37:23Z</time></trkpt><trkpt lat="39.63077672573933" lon="9.302046817620953"><ele>346.75</ele><time>2026-04-11T07:37:24Z</time></trkpt><trkpt lat="39.630873601940976" lon="9.301959291480605"><ele>350.0</ele><time>2026-04-11T07:37:25Z</time></trkpt><trkpt lat="39.63096568791706" lon="9.30187249740807"><ele>350.0</ele><time>2026-04-11T07:37:26Z</time></trkpt><trkpt lat="39.631056893085564" lon="9.301794813214848"><ele>350.0</ele><time>2026-04-11T07:37:27Z</time></trkpt><trkpt lat="39.63117116198087" lon="9.301694831028438"><ele>350.0</ele><time>2026-04-11T07:37:28Z</time></trkpt><trkpt lat="39.631293504834126" lon="9.301577398319012"><ele>350.0</ele><time>2026-04-11T07:37:29Z</time></trkpt><trkpt lat="39.6314253572025" lon="9.301462882000722"><ele>355.6666666666667</ele><time>2026-04-11T07:37:30Z</time></trkpt><trkpt lat="39.63157642137277" lon="9.301369587492529"><ele>361.3333333333333</ele><time>2026-04-11T07:37:31Z</time></trkpt><trkpt lat="39.63172636162066" lon="9.301269253304163"><ele>367.0</ele><time>2026-04-11T07:37:32Z</time></trkpt><trkpt lat="39.631881570661946" lon="9.30117404653388"><ele>358.0</ele><time>2026-04-11T07:37:33Z</time></trkpt><trkpt lat="39.63204844908341" lon="9.301074194162124"><ele>349.0</ele><time>2026-04-11T07:37:34Z</time></trkpt><trkpt lat="39.63220292049852" lon="9.300983515788658"><ele>340.0</ele><time>2026-04-11T07:37:35Z</time></trkpt><trkpt lat="39.63235874588563" lon="9.300892042585522"><ele>340.0</ele><time>2026-04-11T07:37:36Z</time></trkpt><trkpt lat="39.63251909868653" lon="9.300799956975842"><ele>340.0</ele><time>2026-04-11T07:37:37Z</time></trkpt><trkpt lat="39.6326940939506" lon="9.300699901995818"><ele>340.0</ele><time>2026-04-11T07:37:38Z</time></trkpt><trkpt lat="39.63283978729777" lon="9.300616600578724"><ele>348.66666666666663</ele><time>2026-04-11T07:37:39Z</time></trkpt><trkpt lat="39.63300342635501" lon="9.300522682465123"><ele>357.3333333333333</ele><time>2026-04-11T07:37:40Z</time></trkpt><trkpt lat="39.633166073741364" lon="9.300428641187732"><ele>366.0</ele><time>2026-04-11T07:37:41Z</time></trkpt><trkpt lat="39.633329189408144" lon="9.300336090651964"><ele>366.0</ele><time>2026-04-11T07:37:42Z</time></trkpt><trkpt lat="39.6334936242276" lon="9.300249212699534"><ele>366.0</ele><time>2026-04-11T07:37:43Z</time></trkpt><trkpt lat="39.633664467948336" lon="9.300170995433595"><ele>366.0</ele><time>2026-04-11T07:37:44Z</time></trkpt><trkpt lat="39.63383753385564" lon="9.300103495696344"><ele>363.3333333333333</ele><time>2026-04-11T07:37:45Z</time></trkpt><trkpt lat="39.63401634185038" lon="9.300044211094361"><ele>360.66666666666663</ele><time>2026-04-11T07:37:46Z</time></trkpt><trkpt lat="39.63419508192746" lon="9.299991923926173"><ele>358.0</ele><time>2026-04-11T07:37:47Z</time></trkpt><trkpt lat="39.63437650602886" lon="9.299952249468008"><ele>354.3333333333333</ele><time>2026-04-11T07:37:48Z</time></trkpt><trkpt lat="39.63455602736965" lon="9.299914895611595"><ele>350.6666666666667</ele><time>2026-04-11T07:37:49Z</time></trkpt><trkpt lat="39.63472816342512" lon="9.299873031318297"><ele>347.0</ele><time>2026-04-11T07:37:50Z</time></trkpt><trkpt lat="39.634890863190655" lon="9.299807216764876"><ele>349.0</ele><time>2026-04-11T07:37:51Z</time></trkpt><trkpt lat="39.6350484027211" lon="9.299748219945466"><ele>351.0</ele><time>2026-04-11T07:37:52Z</time></trkpt><trkpt lat="39.6351929867757" lon="9.299657202495338"><ele>353.0</ele><time>2026-04-11T07:37:53Z</time></trkpt><trkpt lat="39.63532665402526" lon="9.29953536601944"><ele>353.0</ele><time>2026-04-11T07:37:54Z</time></trkpt><trkpt lat="39.635444094653785" lon="9.299374015839174"><ele>353.0</ele><time>2026-04-11T07:37:55Z</time></trkpt><trkpt lat="39.63556485015396" lon="9.299199763608387"><ele>353.0</ele><time>2026-04-11T07:37:56Z</time></trkpt><trkpt lat="39.635687302391744" lon="9.299016163230666"><ele>365.6666666666667</ele><time>2026-04-11T07:37:57Z</time></trkpt><trkpt lat="39.63580850123853" lon="9.298834442136096"><ele>378.33333333333337</ele><time>2026-04-11T07:37:58Z</time></trkpt><trkpt lat="39.63593082601497" lon="9.298650959826666"><ele>391.0</ele><time>2026-04-11T07:37:59Z</time></trkpt><trkpt lat="39.63605280620646" lon="9.298469650766448"><ele>388.0</ele><time>2026-04-11T07:38:00Z</time></trkpt><trkpt lat="39.63618333208882" lon="9.29829806982279"><ele>385.0</ele><time>2026-04-11T07:38:01Z</time></trkpt><trkpt lat="39.63632315100489" lon="9.298135435997285"><ele>382.0</ele><time>2026-04-11T07:38:02Z</time></trkpt><trkpt lat="39.63646489340781" lon="9.297981367195536"><ele>382.0</ele><time>2026-04-11T07:38:03Z</time></trkpt><trkpt lat="39.63659611930796" lon="9.297814226848361"><ele>382.0</ele><time>2026-04-11T07:38:04Z</time></trkpt><trkpt lat="39.636724089141026" lon="9.297648101829306"><ele>382.0</ele><time>2026-04-11T07:38:05Z</time></trkpt><trkpt lat="39.63682874102375" lon="9.297443997064839"><ele>381.3333333333333</ele><time>2026-04-11T07:38:06Z</time></trkpt><trkpt lat="39.636941003925614" lon="9.297238675133926"><ele>380.6666666666667</ele><time>2026-04-11T07:38:07Z</time></trkpt><trkpt lat="39.6370372364973" lon="9.297043836617407"><ele>380.0</ele><time>2026-04-11T07:38:08Z</time></trkpt><trkpt lat="39.63714853666872" lon="9.296881052271669"><ele>380.0</ele><time>2026-04-11T07:38:09Z</time></trkpt><trkpt lat="39.6372752301225" lon="9.296737506197033"><ele>380.0</ele><time>2026-04-11T07:38:10Z</time></trkpt><trkpt lat="39.637398651741584" lon="9.296598631764986"><ele>380.0</ele><time>2026-04-11T07:38:11Z</time></trkpt><trkpt lat="39.637518405525945" lon="9.296465960784364"><ele>382.75</ele><time>2026-04-11T07:38:12Z</time></trkpt><trkpt lat="39.63762250131697" lon="9.296325307282526"><ele>385.5</ele><time>2026-04-11T07:38:13Z</time></trkpt><trkpt lat="39.63771938975871" lon="9.296204503772744"><ele>388.25</ele><time>2026-04-11T07:38:14Z</time></trkpt><trkpt lat="39.63778049450611" lon="9.296073593033237"><ele>391.0</ele><time>2026-04-11T07:38:15Z</time></trkpt><trkpt lat="39.63780307803205" lon="9.295921556711685"><ele>391.0</ele><time>2026-04-11T07:38:16Z</time></trkpt><trkpt lat="39.63778617223081" lon="9.295762366963862"><ele>391.0</ele><time>2026-04-11T07:38:17Z</time></trkpt><trkpt lat="39.63773109590755" lon="9.295598755256012"><ele>391.0</ele><time>2026-04-11T07:38:18Z</time></trkpt><trkpt lat="39.637654126667954" lon="9.29543705032716"><ele>391.0</ele><time>2026-04-11T07:38:19Z</time></trkpt><trkpt lat="39.637569319252655" lon="9.295299789519083"><ele>394.0</ele><time>2026-04-11T07:38:20Z</time></trkpt><trkpt lat="39.6374620311748" lon="9.295216530414491"><ele>397.0</ele><time>2026-04-11T07:38:21Z</time></trkpt><trkpt lat="39.637338355656155" lon="9.295198843161943"><ele>400.0</ele><time>2026-04-11T07:38:22Z</time></trkpt><trkpt lat="39.63721023568577" lon="9.29523184167931"><ele>403.0</ele><time>2026-04-11T07:38:23Z</time></trkpt><trkpt lat="39.637097288420655" lon="9.295297934058965"><ele>403.0</ele><time>2026-04-11T07:38:24Z</time></trkpt><trkpt lat="39.637007186907276" lon="9.295423197911504"><ele>403.0</ele><time>2026-04-11T07:38:25Z</time></trkpt><trkpt lat="39.63691612607301" lon="9.295572187004376"><ele>403.0</ele><time>2026-04-11T07:38:26Z</time></trkpt><trkpt lat="39.636848749147816" lon="9.295736440731051"><ele>403.0</ele><time>2026-04-11T07:38:27Z</time></trkpt><trkpt lat="39.63682722858321" lon="9.295921252064684"><ele>403.0</ele><time>2026-04-11T07:38:28Z</time></trkpt><trkpt lat="39.63682959697069" lon="9.29611638035633"><ele>403.0</ele><time>2026-04-11T07:38:29Z</time></trkpt><trkpt lat="39.636831349837635" lon="9.296297509316512"><ele>403.0</ele><time>2026-04-11T07:38:30Z</time></trkpt><trkpt lat="39.63682185900057" lon="9.296450081370873"><ele>403.0</ele><time>2026-04-11T07:38:31Z</time></trkpt><trkpt lat="39.63679318813249" lon="9.296574907399796"><ele>403.0</ele><time>2026-04-11T07:38:32Z</time></trkpt><trkpt lat="39.63673345628948" lon="9.296662457446638"><ele>403.0</ele><time>2026-04-11T07:38:33Z</time></trkpt><trkpt lat="39.63663856756042" lon="9.29668516932586"><ele>403.0</ele><time>2026-04-11T07:38:34Z</time></trkpt><trkpt lat="39.636538869254665" lon="9.296640394253327"><ele>403.0</ele><time>2026-04-11T07:38:35Z</time></trkpt><trkpt lat="39.63648740009502" lon="9.296517717054295"><ele>403.0</ele><time>2026-04-11T07:38:36Z</time></trkpt><trkpt lat="39.636482563455324" lon="9.296397637457684"><ele>404.5</ele><time>2026-04-11T07:38:37Z</time></trkpt><trkpt lat="39.63648576007003" lon="9.296250214901415"><ele>406.0</ele><time>2026-04-11T07:38:38Z</time></trkpt><trkpt lat="39.63655074021326" lon="9.296051900714824"><ele>407.5</ele><time>2026-04-11T07:38:39Z</time></trkpt><trkpt lat="39.636583923122764" lon="9.295879161350337"><ele>409.0</ele><time>2026-04-11T07:38:40Z</time></trkpt><trkpt lat="39.63663492818202" lon="9.295703139386422"><ele>409.6666666666667</ele><time>2026-04-11T07:38:41Z</time></trkpt><trkpt lat="39.63669272880953" lon="9.295520607928488"><ele>410.33333333333337</ele><time>2026-04-11T07:38:42Z</time></trkpt><trkpt lat="39.63674665754969" lon="9.29532715028874"><ele>411.0</ele><time>2026-04-11T07:38:43Z</time></trkpt><trkpt lat="39.63679248871923" lon="9.295123840133344"><ele>411.0</ele><time>2026-04-11T07:38:44Z</time></trkpt><trkpt lat="39.636828343721916" lon="9.29491119526068"><ele>411.0</ele><time>2026-04-11T07:38:45Z</time></trkpt><trkpt lat="39.63686125366939" lon="9.294693363986433"><ele>411.0</ele><time>2026-04-11T07:38:46Z</time></trkpt><trkpt lat="39.636889840302736" lon="9.294469596485312"><ele>414.33333333333337</ele><time>2026-04-11T07:38:47Z</time></trkpt><trkpt lat="39.63691889502902" lon="9.294245474948655"><ele>417.6666666666667</ele><time>2026-04-11T07:38:48Z</time></trkpt><trkpt lat="39.6369398450417" lon="9.294023649240192"><ele>421.0</ele><time>2026-04-11T07:38:49Z</time></trkpt><trkpt lat="39.63695684613888" lon="9.293801117239745"><ele>423.6666666666667</ele><time>2026-04-11T07:38:50Z</time></trkpt><trkpt lat="39.63697208647067" lon="9.293578519088053"><ele>426.33333333333337</ele><time>2026-04-11T07:38:51Z</time></trkpt><trkpt lat="39.6369928648195" lon="9.293357783089741"><ele>429.0</ele><time>2026-04-11T07:38:52Z</time></trkpt><trkpt lat="39.63701623777239" lon="9.293142115706441"><ele>427.66666666666663</ele><time>2026-04-11T07:38:53Z</time></trkpt><trkpt lat="39.63705156728233" lon="9.292939707011172"><ele>426.3333333333333</ele><time>2026-04-11T07:38:54Z</time></trkpt><trkpt lat="39.637141488898365" lon="9.2927674821646"><ele>425.0</ele><time>2026-04-11T07:38:55Z</time></trkpt><trkpt lat="39.63724239148902" lon="9.292597155513555"><ele>425.0</ele><time>2026-04-11T07:38:56Z</time></trkpt><trkpt lat="39.637367581247275" lon="9.292449152103956"><ele>425.0</ele><time>2026-04-11T07:38:57Z</time></trkpt><trkpt lat="39.6375069664322" lon="9.292292680425186"><ele>425.0</ele><time>2026-04-11T07:38:58Z</time></trkpt><trkpt lat="39.637664207715524" lon="9.292152239983782"><ele>425.3333333333333</ele><time>2026-04-11T07:38:59Z</time></trkpt><trkpt lat="39.63781960357523" lon="9.291997355862591"><ele>425.66666666666663</ele><time>2026-04-11T07:39:00Z</time></trkpt><trkpt lat="39.63797473099576" lon="9.29183774702157"><ele>426.0</ele><time>2026-04-11T07:39:01Z</time></trkpt><trkpt lat="39.63812911970903" lon="9.291680359574585"><ele>426.0</ele><time>2026-04-11T07:39:02Z</time></trkpt><trkpt lat="39.63828351631413" lon="9.291529555496632"><ele>426.0</ele><time>2026-04-11T07:39:03Z</time></trkpt><trkpt lat="39.63843683834173" lon="9.291380318751651"><ele>426.0</ele><time>2026-04-11T07:39:04Z</time></trkpt><trkpt lat="39.63858833753097" lon="9.291230688118043"><ele>425.33333333333337</ele><time>2026-04-11T07:39:05Z</time></trkpt><trkpt lat="39.63873827516985" lon="9.291081679352056"><ele>424.6666666666667</ele><time>2026-04-11T07:39:06Z</time></trkpt><trkpt lat="39.63888738453287" lon="9.29093403385125"><ele>424.0</ele><time>2026-04-11T07:39:07Z</time></trkpt><trkpt lat="39.63903728076318" lon="9.290794328827255"><ele>424.0</ele><time>2026-04-11T07:39:08Z</time></trkpt><trkpt lat="39.639192951095495" lon="9.290671027401277"><ele>424.0</ele><time>2026-04-11T07:39:09Z</time></trkpt><trkpt lat="39.639360712904654" lon="9.290595060411048"><ele>424.0</ele><time>2026-04-11T07:39:10Z</time></trkpt><trkpt lat="39.6395256835454" lon="9.290513795663921"><ele>423.0</ele><time>2026-04-11T07:39:11Z</time></trkpt><trkpt lat="39.63968254977705" lon="9.290416697857749"><ele>422.0</ele><time>2026-04-11T07:39:12Z</time></trkpt><trkpt lat="39.63984313603891" lon="9.290349105460283"><ele>421.0</ele><time>2026-04-11T07:39:13Z</time></trkpt><trkpt lat="39.6399949757354" lon="9.290281711440999"><ele>421.0</ele><time>2026-04-11T07:39:14Z</time></trkpt><trkpt lat="39.640143497153716" lon="9.290206850193297"><ele>421.0</ele><time>2026-04-11T07:39:15Z</time></trkpt><trkpt lat="39.640288898774315" lon="9.290131723437405"><ele>421.0</ele><time>2026-04-11T07:39:16Z</time></trkpt><trkpt lat="39.64043832602342" lon="9.290063788151196"><ele>424.0</ele><time>2026-04-11T07:39:17Z</time></trkpt><trkpt lat="39.64058713854612" lon="9.289990389535474"><ele>427.0</ele><time>2026-04-11T07:39:18Z</time></trkpt><trkpt lat="39.64074014186071" lon="9.289912917493519"><ele>430.0</ele><time>2026-04-11T07:39:19Z</time></trkpt><trkpt lat="39.640897776239854" lon="9.289831623953784"><ele>426.33333333333337</ele><time>2026-04-11T07:39:20Z</time></trkpt><trkpt lat="39.64105969070544" lon="9.289753167744914"><ele>422.66666666666663</ele><time>2026-04-11T07:39:21Z</time></trkpt><trkpt lat="39.64122499520486" lon="9.289675455321248"><ele>419.0</ele><time>2026-04-11T07:39:22Z</time></trkpt><trkpt lat="39.64138678357786" lon="9.289597158259149"><ele>419.0</ele><time>2026-04-11T07:39:23Z</time></trkpt><trkpt lat="39.641538998242474" lon="9.289521307081"><ele>419.0</ele><time>2026-04-11T07:39:24Z</time></trkpt><trkpt lat="39.64168810871741" lon="9.289459108763374"><ele>419.0</ele><time>2026-04-11T07:39:25Z</time></trkpt><trkpt lat="39.64184751006684" lon="9.289452476054956"><ele>419.0</ele><time>2026-04-11T07:39:26Z</time></trkpt><trkpt lat="39.64201638904508" lon="9.289450804211931"><ele>419.0</ele><time>2026-04-11T07:39:27Z</time></trkpt><trkpt lat="39.642193566005524" lon="9.2895311240606"><ele>419.0</ele><time>2026-04-11T07:39:28Z</time></trkpt><trkpt lat="39.64238263787968" lon="9.289573489482168"><ele>419.0</ele><time>2026-04-11T07:39:29Z</time></trkpt><trkpt lat="39.642567124168316" lon="9.289646007571447"><ele>419.0</ele><time>2026-04-11T07:39:30Z</time></trkpt><trkpt lat="39.64275494131903" lon="9.289717417278618"><ele>419.0</ele><time>2026-04-11T07:39:31Z</time></trkpt><trkpt lat="39.6429412272254" lon="9.289779445016334"><ele>423.0</ele><time>2026-04-11T07:39:32Z</time></trkpt><trkpt lat="39.6431159953275" lon="9.289834271562135"><ele>427.0</ele><time>2026-04-11T07:39:33Z</time></trkpt><trkpt lat="39.643274990766734" lon="9.28988867424431"><ele>431.0</ele><time>2026-04-11T07:39:34Z</time></trkpt><trkpt lat="39.64341464548875" lon="9.289954747492365"><ele>431.0</ele><time>2026-04-11T07:39:35Z</time></trkpt><trkpt lat="39.64351603461176" lon="9.290076619729323"><ele>431.0</ele><time>2026-04-11T07:39:36Z</time></trkpt><trkpt lat="39.64359213054441" lon="9.290214156811794"><ele>431.0</ele><time>2026-04-11T07:39:37Z</time></trkpt><trkpt lat="39.64364528617819" lon="9.290377839095962"><ele>431.0</ele><time>2026-04-11T07:39:38Z</time></trkpt><trkpt lat="39.643648056686736" lon="9.290567943953805"><ele>425.66666666666663</ele><time>2026-04-11T07:39:39Z</time></trkpt><trkpt lat="39.643645162712176" lon="9.290785494079481"><ele>420.33333333333337</ele><time>2026-04-11T07:39:40Z</time></trkpt><trkpt lat="39.64364392869414" lon="9.291005348173293"><ele>415.0</ele><time>2026-04-11T07:39:41Z</time></trkpt><trkpt lat="39.643650819635745" lon="9.291222171402696"><ele>416.33333333333337</ele><time>2026-04-11T07:39:42Z</time></trkpt><trkpt lat="39.643656421364106" lon="9.291436325682989"><ele>417.66666666666663</ele><time>2026-04-11T07:39:43Z</time></trkpt><trkpt lat="39.64365887240151" lon="9.291654537557628"><ele>419.0</ele><time>2026-04-11T07:39:44Z</time></trkpt><trkpt lat="39.64366347889056" lon="9.291872526505392"><ele>419.0</ele><time>2026-04-11T07:39:45Z</time></trkpt><trkpt lat="39.643674520781836" lon="9.292087906389515"><ele>419.0</ele><time>2026-04-11T07:39:46Z</time></trkpt><trkpt lat="39.64372042681663" lon="9.292292164988675"><ele>419.0</ele><time>2026-04-11T07:39:47Z</time></trkpt><trkpt lat="39.643795828121746" lon="9.292490591102057"><ele>421.3333333333333</ele><time>2026-04-11T07:39:48Z</time></trkpt><trkpt lat="39.643895240647225" lon="9.292671734097537"><ele>423.66666666666663</ele><time>2026-04-11T07:39:49Z</time></trkpt><trkpt lat="39.64401748887209" lon="9.292829122512977"><ele>426.0</ele><time>2026-04-11T07:39:50Z</time></trkpt><trkpt lat="39.64416015366484" lon="9.292951764665718"><ele>426.0</ele><time>2026-04-11T07:39:51Z</time></trkpt><trkpt lat="39.64432530028146" lon="9.293039936720005"><ele>426.0</ele><time>2026-04-11T07:39:52Z</time></trkpt><trkpt lat="39.64449934947766" lon="9.29310071376239"><ele>426.0</ele><time>2026-04-11T07:39:53Z</time></trkpt><trkpt lat="39.64468095589547" lon="9.293163973810872"><ele>427.33333333333337</ele><time>2026-04-11T07:39:54Z</time></trkpt><trkpt lat="39.64486431774857" lon="9.293232172306071"><ele>428.6666666666667</ele><time>2026-04-11T07:39:55Z</time></trkpt><trkpt lat="39.645048289094056" lon="9.293307447723725"><ele>430.0</ele><time>2026-04-11T07:39:56Z</time></trkpt><trkpt lat="39.64523441516089" lon="9.293378890777964"><ele>429.33333333333337</ele><time>2026-04-11T07:39:57Z</time></trkpt><trkpt lat="39.64541465407645" lon="9.293446062454928"><ele>428.66666666666663</ele><time>2026-04-11T07:39:58Z</time></trkpt><trkpt lat="39.64558937670069" lon="9.293519130423523"><ele>428.0</ele><time>2026-04-11T07:39:59Z</time></trkpt><trkpt lat="39.64575593815988" lon="9.293576539259083"><ele>428.0</ele><time>2026-04-11T07:40:00Z</time></trkpt><trkpt lat="39.645934781020834" lon="9.29361455336627"><ele>428.0</ele><time>2026-04-11T07:40:01Z</time></trkpt><trkpt lat="39.64611932541995" lon="9.293614478256249"><ele>428.0</ele><time>2026-04-11T07:40:02Z</time></trkpt><trkpt lat="39.64631059527023" lon="9.29358759026105"><ele>428.66666666666663</ele><time>2026-04-11T07:40:03Z</time></trkpt><trkpt lat="39.64650668039943" lon="9.293551127897747"><ele>429.33333333333337</ele><time>2026-04-11T07:40:04Z</time></trkpt><trkpt lat="39.6467012861467" lon="9.293510943019095"><ele>430.0</ele><time>2026-04-11T07:40:05Z</time></trkpt><trkpt lat="39.646895601728126" lon="9.29347073669096"><ele>432.33333333333337</ele><time>2026-04-11T07:40:06Z</time></trkpt><trkpt lat="39.6470874252112" lon="9.293437019738313"><ele>434.66666666666663</ele><time>2026-04-11T07:40:07Z</time></trkpt><trkpt lat="39.647278312748725" lon="9.293403826563315"><ele>437.0</ele><time>2026-04-11T07:40:08Z</time></trkpt><trkpt lat="39.647467359382986" lon="9.293353988880908"><ele>437.0</ele><time>2026-04-11T07:40:09Z</time></trkpt><trkpt lat="39.64765517032635" lon="9.293271888749144"><ele>437.0</ele><time>2026-04-11T07:40:10Z</time></trkpt><trkpt lat="39.647841610653984" lon="9.293163486622092"><ele>437.0</ele><time>2026-04-11T07:40:11Z</time></trkpt><trkpt lat="39.64801936295699" lon="9.293054457420187"><ele>436.0</ele><time>2026-04-11T07:40:12Z</time></trkpt><trkpt lat="39.64820519986578" lon="9.292950295567646"><ele>435.0</ele><time>2026-04-11T07:40:13Z</time></trkpt><trkpt lat="39.6483948134314" lon="9.292844336523842"><ele>434.0</ele><time>2026-04-11T07:40:14Z</time></trkpt><trkpt lat="39.64858361263437" lon="9.292731831421762"><ele>438.0</ele><time>2026-04-11T07:40:15Z</time></trkpt><trkpt lat="39.64877362430668" lon="9.292619521015903"><ele>442.0</ele><time>2026-04-11T07:40:16Z</time></trkpt><trkpt lat="39.648964584919355" lon="9.292510523029122"><ele>446.0</ele><time>2026-04-11T07:40:17Z</time></trkpt><trkpt lat="39.64914921469495" lon="9.29240605265856"><ele>446.0</ele><time>2026-04-11T07:40:18Z</time></trkpt><trkpt lat="39.649329788624435" lon="9.29229986540779"><ele>446.0</ele><time>2026-04-11T07:40:19Z</time></trkpt><trkpt lat="39.64950185869061" lon="9.292186121891225"><ele>446.0</ele><time>2026-04-11T07:40:20Z</time></trkpt><trkpt lat="39.6496530953299" lon="9.292042720482542"><ele>446.66666666666663</ele><time>2026-04-11T07:40:21Z</time></trkpt><trkpt lat="39.649785236508635" lon="9.291847034828471"><ele>447.33333333333337</ele><time>2026-04-11T07:40:22Z</time></trkpt><trkpt lat="39.64990490094711" lon="9.291627774575044"><ele>448.0</ele><time>2026-04-11T07:40:23Z</time></trkpt><trkpt lat="39.650033049067076" lon="9.291416125758998"><ele>444.0</ele><time>2026-04-11T07:40:24Z</time></trkpt><trkpt lat="39.65015201971061" lon="9.29119490844208"><ele>440.0</ele><time>2026-04-11T07:40:25Z</time></trkpt><trkpt lat="39.65025724802871" lon="9.290962206083908"><ele>436.0</ele><time>2026-04-11T07:40:26Z</time></trkpt><trkpt lat="39.65037595753358" lon="9.290747039018424"><ele>440.6666666666667</ele><time>2026-04-11T07:40:27Z</time></trkpt><trkpt lat="39.65049348674814" lon="9.290531032896858"><ele>445.33333333333337</ele><time>2026-04-11T07:40:28Z</time></trkpt><trkpt lat="39.65060673422766" lon="9.290316498664957"><ele>450.0</ele><time>2026-04-11T07:40:29Z</time></trkpt><trkpt lat="39.650718318688924" lon="9.290103343458997"><ele>450.0</ele><time>2026-04-11T07:40:30Z</time></trkpt><trkpt lat="39.650832987129945" lon="9.289889781388808"><ele>450.0</ele><time>2026-04-11T07:40:31Z</time></trkpt><trkpt lat="39.65094098218227" lon="9.289669571824952"><ele>450.0</ele><time>2026-04-11T07:40:32Z</time></trkpt><trkpt lat="39.651042367696036" lon="9.289438690126051"><ele>451.33333333333337</ele><time>2026-04-11T07:40:33Z</time></trkpt><trkpt lat="39.651140062808146" lon="9.289206427473678"><ele>452.6666666666667</ele><time>2026-04-11T07:40:34Z</time></trkpt><trkpt lat="39.65125412494511" lon="9.288986867414122"><ele>454.0</ele><time>2026-04-11T07:40:35Z</time></trkpt><trkpt lat="39.65134444323396" lon="9.288754425832678"><ele>454.0</ele><time>2026-04-11T07:40:36Z</time></trkpt><trkpt lat="39.65146255112435" lon="9.288543338363574"><ele>454.0</ele><time>2026-04-11T07:40:37Z</time></trkpt><trkpt lat="39.651612968486546" lon="9.288367495494827"><ele>454.0</ele><time>2026-04-11T07:40:38Z</time></trkpt><trkpt lat="39.651769997805964" lon="9.288190695950274"><ele>454.33333333333337</ele><time>2026-04-11T07:40:39Z</time></trkpt><trkpt lat="39.65191551739118" lon="9.288009290275767"><ele>454.66666666666663</ele><time>2026-04-11T07:40:40Z</time></trkpt><trkpt lat="39.652060574793616" lon="9.28784995486724"><ele>455.0</ele><time>2026-04-11T07:40:41Z</time></trkpt><trkpt lat="39.65219910656746" lon="9.287701560986395"><ele>455.0</ele><time>2026-04-11T07:40:42Z</time></trkpt><trkpt lat="39.652335868119486" lon="9.287571208304518"><ele>455.0</ele><time>2026-04-11T07:40:43Z</time></trkpt><trkpt lat="39.65248186847606" lon="9.287464820656403"><ele>455.0</ele><time>2026-04-11T07:40:44Z</time></trkpt><trkpt lat="39.65264810831601" lon="9.287388259253095"><ele>455.3333333333333</ele><time>2026-04-11T07:40:45Z</time></trkpt><trkpt lat="39.65282803420835" lon="9.28735224384991"><ele>455.66666666666663</ele><time>2026-04-11T07:40:46Z</time></trkpt><trkpt lat="39.65301887104327" lon="9.287360191811475"><ele>456.0</ele><time>2026-04-11T07:40:47Z</time></trkpt><trkpt lat="39.65321614389077" lon="9.287394136946395"><ele>456.0</ele><time>2026-04-11T07:40:48Z</time></trkpt><trkpt lat="39.653418197887746" lon="9.287414321809285"><ele>456.0</ele><time>2026-04-11T07:40:49Z</time></trkpt><trkpt lat="39.653623126795054" lon="9.287425845926432"><ele>456.0</ele><time>2026-04-11T07:40:50Z</time></trkpt><trkpt lat="39.65383003103207" lon="9.287443649290731"><ele>456.0</ele><time>2026-04-11T07:40:51Z</time></trkpt><trkpt lat="39.654041670599426" lon="9.287462467476582"><ele>456.0</ele><time>2026-04-11T07:40:52Z</time></trkpt><trkpt lat="39.65425156324753" lon="9.287479390880257"><ele>456.0</ele><time>2026-04-11T07:40:53Z</time></trkpt><trkpt lat="39.654461582387256" lon="9.287497544837604"><ele>455.33333333333337</ele><time>2026-04-11T07:40:54Z</time></trkpt><trkpt lat="39.654672106573344" lon="9.287517286516337"><ele>454.6666666666667</ele><time>2026-04-11T07:40:55Z</time></trkpt><trkpt lat="39.654882313118335" lon="9.287536539251695"><ele>454.0</ele><time>2026-04-11T07:40:56Z</time></trkpt><trkpt lat="39.65509282470762" lon="9.287555829701988"><ele>452.0</ele><time>2026-04-11T07:40:57Z</time></trkpt><trkpt lat="39.65530559931842" lon="9.28757360225454"><ele>450.0</ele><time>2026-04-11T07:40:58Z</time></trkpt><trkpt lat="39.65552319400313" lon="9.28759249705221"><ele>448.0</ele><time>2026-04-11T07:40:59Z</time></trkpt><trkpt lat="39.6557437105059" lon="9.28761505760177"><ele>448.0</ele><time>2026-04-11T07:41:00Z</time></trkpt><trkpt lat="39.655943238052885" lon="9.287639100906581"><ele>448.0</ele><time>2026-04-11T07:41:01Z</time></trkpt><trkpt lat="39.65614751881623" lon="9.287653904390934"><ele>448.0</ele><time>2026-04-11T07:41:02Z</time></trkpt><trkpt lat="39.65635103660039" lon="9.287636857915352"><ele>447.33333333333337</ele><time>2026-04-11T07:41:03Z</time></trkpt><trkpt lat="39.65655732138032" lon="9.287568919116872"><ele>446.66666666666663</ele><time>2026-04-11T07:41:04Z</time></trkpt><trkpt lat="39.656765768514404" lon="9.287473311618752"><ele>446.0</ele><time>2026-04-11T07:41:05Z</time></trkpt><trkpt lat="39.65697805476695" lon="9.287357051412465"><ele>443.0</ele><time>2026-04-11T07:41:06Z</time></trkpt><trkpt lat="39.657191286198774" lon="9.287233321079832"><ele>440.0</ele><time>2026-04-11T07:41:07Z</time></trkpt><trkpt lat="39.657401694314956" lon="9.287107183674573"><ele>440.0</ele><time>2026-04-11T07:41:08Z</time></trkpt><trkpt lat="39.65761315150553" lon="9.286985374647111"><ele>440.0</ele><time>2026-04-11T07:41:09Z</time></trkpt><trkpt lat="39.657823870054486" lon="9.286866936631618"><ele>440.5</ele><time>2026-04-11T07:41:10Z</time></trkpt><trkpt lat="39.65803321817417" lon="9.286749493126715"><ele>441.0</ele><time>2026-04-11T07:41:11Z</time></trkpt><trkpt lat="39.658242609982054" lon="9.286633202096171"><ele>441.0</ele><time>2026-04-11T07:41:12Z</time></trkpt><trkpt lat="39.658452856024105" lon="9.2865156733695"><ele>441.0</ele><time>2026-04-11T07:41:13Z</time></trkpt><trkpt lat="39.65866240573388" lon="9.286397398983409"><ele>440.5</ele><time>2026-04-11T07:41:14Z</time></trkpt><trkpt lat="39.65887100369532" lon="9.286279094018159"><ele>440.0</ele><time>2026-04-11T07:41:15Z</time></trkpt><trkpt lat="39.659080331149305" lon="9.28616025288104"><ele>440.0</ele><time>2026-04-11T07:41:16Z</time></trkpt><trkpt lat="39.65928905367543" lon="9.286038162456135"><ele>440.0</ele><time>2026-04-11T07:41:17Z</time></trkpt><trkpt lat="39.6594984315328" lon="9.285913513645326"><ele>443.5</ele><time>2026-04-11T07:41:18Z</time></trkpt><trkpt lat="39.659708107393044" lon="9.28579119082169"><ele>447.0</ele><time>2026-04-11T07:41:19Z</time></trkpt><trkpt lat="39.65992027072299" lon="9.285670963260285"><ele>446.0</ele><time>2026-04-11T07:41:20Z</time></trkpt><trkpt lat="39.660133313920674" lon="9.285551585928246"><ele>445.0</ele><time>2026-04-11T07:41:21Z</time></trkpt><trkpt lat="39.66034613915897" lon="9.285429119694852"><ele>445.0</ele><time>2026-04-11T07:41:22Z</time></trkpt><trkpt lat="39.66055944020933" lon="9.285303110969778"><ele>445.0</ele><time>2026-04-11T07:41:23Z</time></trkpt><trkpt lat="39.660775891495064" lon="9.285178142582307"><ele>445.0</ele><time>2026-04-11T07:41:24Z</time></trkpt><trkpt lat="39.660993828472485" lon="9.285058429981833"><ele>445.0</ele><time>2026-04-11T07:41:25Z</time></trkpt><trkpt lat="39.66121163225188" lon="9.284937696978588"><ele>444.5</ele><time>2026-04-11T07:41:26Z</time></trkpt><trkpt lat="39.66142400509044" lon="9.284816973202815"><ele>444.0</ele><time>2026-04-11T07:41:27Z</time></trkpt><trkpt lat="39.66163321995043" lon="9.284696189077689"><ele>444.0</ele><time>2026-04-11T07:41:28Z</time></trkpt><trkpt lat="39.661842322636744" lon="9.284576573715489"><ele>444.0</ele><time>2026-04-11T07:41:29Z</time></trkpt><trkpt lat="39.66205016083763" lon="9.284459173029589"><ele>444.33333333333337</ele><time>2026-04-11T07:41:30Z</time></trkpt><trkpt lat="39.66225493993301" lon="9.284343085549885"><ele>444.6666666666667</ele><time>2026-04-11T07:41:31Z</time></trkpt><trkpt lat="39.662459667217355" lon="9.284225915888836"><ele>445.0</ele><time>2026-04-11T07:41:32Z</time></trkpt><trkpt lat="39.6626659327599" lon="9.284109844908679"><ele>445.33333333333337</ele><time>2026-04-11T07:41:33Z</time></trkpt><trkpt lat="39.662872134379626" lon="9.283994438112689"><ele>445.66666666666663</ele><time>2026-04-11T07:41:34Z</time></trkpt><trkpt lat="39.66307636574142" lon="9.283881168355691"><ele>446.0</ele><time>2026-04-11T07:41:35Z</time></trkpt><trkpt lat="39.66327409451469" lon="9.283772015499398"><ele>446.0</ele><time>2026-04-11T07:41:36Z</time></trkpt><trkpt lat="39.6634600109012" lon="9.283658914260183"><ele>446.0</ele><time>2026-04-11T07:41:37Z</time></trkpt><trkpt lat="39.66361711094655" lon="9.283529373998386"><ele>446.0</ele><time>2026-04-11T07:41:38Z</time></trkpt><trkpt lat="39.66374515326877" lon="9.28336384710998"><ele>449.3333333333333</ele><time>2026-04-11T07:41:39Z</time></trkpt><trkpt lat="39.66388098925623" lon="9.283220829945328"><ele>452.66666666666663</ele><time>2026-04-11T07:41:40Z</time></trkpt><trkpt lat="39.66400172050474" lon="9.283071561263451"><ele>456.0</ele><time>2026-04-11T07:41:41Z</time></trkpt><trkpt lat="39.664114456652065" lon="9.282920724580773"><ele>457.0</ele><time>2026-04-11T07:41:42Z</time></trkpt><trkpt lat="39.664002747386895" lon="9.282462638003945"><ele>458.0</ele><time>2026-04-11T07:41:43Z</time></trkpt><trkpt lat="39.664102266153776" lon="9.282274852080688"><ele>456.66666666666663</ele><time>2026-04-11T07:41:44Z</time></trkpt><trkpt lat="39.66421402074487" lon="9.282075736365863"><ele>455.33333333333337</ele><time>2026-04-11T07:41:45Z</time></trkpt><trkpt lat="39.664343046361424" lon="9.281896097616618"><ele>454.0</ele><time>2026-04-11T07:41:46Z</time></trkpt><trkpt lat="39.66449223138032" lon="9.281750737810453"><ele>457.0</ele><time>2026-04-11T07:41:47Z</time></trkpt><trkpt lat="39.66464461237118" lon="9.281640410487208"><ele>460.0</ele><time>2026-04-11T07:41:48Z</time></trkpt><trkpt lat="39.66480684869249" lon="9.281565842258061"><ele>463.0</ele><time>2026-04-11T07:41:49Z</time></trkpt><trkpt lat="39.66499340276054" lon="9.281511598190512"><ele>463.0</ele><time>2026-04-11T07:41:50Z</time></trkpt><trkpt lat="39.665193006720585" lon="9.281466894106389"><ele>463.0</ele><time>2026-04-11T07:41:51Z</time></trkpt><trkpt lat="39.66539746326691" lon="9.281428745661973"><ele>463.0</ele><time>2026-04-11T07:41:52Z</time></trkpt><trkpt lat="39.66560914618561" lon="9.28139274314398"><ele>462.6666666666667</ele><time>2026-04-11T07:41:53Z</time></trkpt><trkpt lat="39.665820917033074" lon="9.281351780418898"><ele>462.33333333333337</ele><time>2026-04-11T07:41:54Z</time></trkpt><trkpt lat="39.666027736398796" lon="9.281304146876094"><ele>462.0</ele><time>2026-04-11T07:41:55Z</time></trkpt><trkpt lat="39.666226795128125" lon="9.28124366106708"><ele>465.33333333333337</ele><time>2026-04-11T07:41:56Z</time></trkpt><trkpt lat="39.666419131694326" lon="9.281158012126653"><ele>468.6666666666667</ele><time>2026-04-11T07:41:57Z</time></trkpt><trkpt lat="39.666608679073576" lon="9.281049714102492"><ele>472.0</ele><time>2026-04-11T07:41:58Z</time></trkpt><trkpt lat="39.666798040767766" lon="9.280938118011113"><ele>475.33333333333337</ele><time>2026-04-11T07:41:59Z</time></trkpt><trkpt lat="39.6669817714307" lon="9.280826731499836"><ele>478.66666666666663</ele><time>2026-04-11T07:42:00Z</time></trkpt><trkpt lat="39.6671561775394" lon="9.280723448533687"><ele>482.0</ele><time>2026-04-11T07:42:01Z</time></trkpt><trkpt lat="39.667313033163836" lon="9.280638078019338"><ele>481.0</ele><time>2026-04-11T07:42:02Z</time></trkpt><trkpt lat="39.667446402860165" lon="9.28055405105174"><ele>480.0</ele><time>2026-04-11T07:42:03Z</time></trkpt><trkpt lat="39.66755941358791" lon="9.280455734060642"><ele>479.0</ele><time>2026-04-11T07:42:04Z</time></trkpt><trkpt lat="39.66764762345582" lon="9.280328560152238"><ele>478.0</ele><time>2026-04-11T07:42:05Z</time></trkpt><trkpt lat="39.66767904201982" lon="9.28014625959282"><ele>478.0</ele><time>2026-04-11T07:42:06Z</time></trkpt><trkpt lat="39.667681057948236" lon="9.279950341684804"><ele>478.0</ele><time>2026-04-11T07:42:07Z</time></trkpt><trkpt lat="39.6676330903319" lon="9.279754244970462"><ele>478.0</ele><time>2026-04-11T07:42:08Z</time></trkpt><trkpt lat="39.66753881547877" lon="9.279570449748725"><ele>480.0</ele><time>2026-04-11T07:42:09Z</time></trkpt><trkpt lat="39.66741975063858" lon="9.2793961326195"><ele>482.0</ele><time>2026-04-11T07:42:10Z</time></trkpt><trkpt lat="39.66731771732902" lon="9.279224433993715"><ele>484.0</ele><time>2026-04-11T07:42:11Z</time></trkpt><trkpt lat="39.6672528687143" lon="9.279042901390788"><ele>485.0</ele><time>2026-04-11T07:42:12Z</time></trkpt><trkpt lat="39.66724587545097" lon="9.278854167011298"><ele>486.0</ele><time>2026-04-11T07:42:13Z</time></trkpt><trkpt lat="39.66729628667704" lon="9.27867820315612"><ele>487.0</ele><time>2026-04-11T07:42:14Z</time></trkpt><trkpt lat="39.66739005696286" lon="9.278510471278887"><ele>487.0</ele><time>2026-04-11T07:42:15Z</time></trkpt><trkpt lat="39.66749567445842" lon="9.278330856470326"><ele>487.0</ele><time>2026-04-11T07:42:16Z</time></trkpt><trkpt lat="39.66760243764444" lon="9.278127802865432"><ele>487.0</ele><time>2026-04-11T07:42:17Z</time></trkpt><trkpt lat="39.66770477802672" lon="9.27791097962155"><ele>488.6666666666667</ele><time>2026-04-11T07:42:18Z</time></trkpt><trkpt lat="39.66781341586681" lon="9.277684947498637"><ele>490.33333333333337</ele><time>2026-04-11T07:42:19Z</time></trkpt><trkpt lat="39.66792234275603" lon="9.277462150058417"><ele>492.0</ele><time>2026-04-11T07:42:20Z</time></trkpt><trkpt lat="39.668033047904785" lon="9.277235455672981"><ele>492.66666666666663</ele><time>2026-04-11T07:42:21Z</time></trkpt><trkpt lat="39.66814946478212" lon="9.277001857647807"><ele>493.3333333333333</ele><time>2026-04-11T07:42:22Z</time></trkpt><trkpt lat="39.6682688817268" lon="9.276762289146555"><ele>494.0</ele><time>2026-04-11T07:42:23Z</time></trkpt><trkpt lat="39.66838790578016" lon="9.276522387393491"><ele>494.66666666666663</ele><time>2026-04-11T07:42:24Z</time></trkpt><trkpt lat="39.6685057356727" lon="9.276287712027449"><ele>495.33333333333337</ele><time>2026-04-11T07:42:25Z</time></trkpt><trkpt lat="39.66862036093266" lon="9.276061808087672"><ele>496.0</ele><time>2026-04-11T07:42:26Z</time></trkpt><trkpt lat="39.66872640783299" lon="9.27585309872188"><ele>496.0</ele><time>2026-04-11T07:42:27Z</time></trkpt><trkpt lat="39.66881860451619" lon="9.275654815718262"><ele>496.0</ele><time>2026-04-11T07:42:28Z</time></trkpt><trkpt lat="39.6688872185092" lon="9.275456597929931"><ele>496.0</ele><time>2026-04-11T07:42:29Z</time></trkpt><trkpt lat="39.668925964612264" lon="9.275236618797509"><ele>496.6666666666667</ele><time>2026-04-11T07:42:30Z</time></trkpt><trkpt lat="39.66892725654627" lon="9.274999914501473"><ele>497.33333333333337</ele><time>2026-04-11T07:42:31Z</time></trkpt><trkpt lat="39.668887474236485" lon="9.27476036143278"><ele>498.0</ele><time>2026-04-11T07:42:32Z</time></trkpt><trkpt lat="39.668822019550845" lon="9.274524456970141"><ele>498.66666666666663</ele><time>2026-04-11T07:42:33Z</time></trkpt><trkpt lat="39.66876845299348" lon="9.274300496889333"><ele>499.3333333333333</ele><time>2026-04-11T07:42:34Z</time></trkpt><trkpt lat="39.668738126743044" lon="9.274074657557852"><ele>500.0</ele><time>2026-04-11T07:42:35Z</time></trkpt><trkpt lat="39.6687237929398" lon="9.27384457231819"><ele>502.0</ele><time>2026-04-11T07:42:36Z</time></trkpt><trkpt lat="39.66874526080233" lon="9.273618810858464"><ele>504.0</ele><time>2026-04-11T07:42:37Z</time></trkpt><trkpt lat="39.668806856768114" lon="9.273402773018898"><ele>506.0</ele><time>2026-04-11T07:42:38Z</time></trkpt><trkpt lat="39.668901165927664" lon="9.27320477143413"><ele>506.66666666666663</ele><time>2026-04-11T07:42:39Z</time></trkpt><trkpt lat="39.669020279794154" lon="9.273033492082435"><ele>507.33333333333337</ele><time>2026-04-11T07:42:40Z</time></trkpt><trkpt lat="39.66916412631374" lon="9.272883208989764"><ele>508.0</ele><time>2026-04-11T07:42:41Z</time></trkpt><trkpt lat="39.66932029156025" lon="9.272731749904889"><ele>508.0</ele><time>2026-04-11T07:42:42Z</time></trkpt><trkpt lat="39.66948223244479" lon="9.272564261963932"><ele>508.0</ele><time>2026-04-11T07:42:43Z</time></trkpt><trkpt lat="39.66964022030377" lon="9.27238828016574"><ele>508.0</ele><time>2026-04-11T07:42:44Z</time></trkpt><trkpt lat="39.66979899436844" lon="9.272209980845505"><ele>508.0</ele><time>2026-04-11T07:42:45Z</time></trkpt><trkpt lat="39.66996467799281" lon="9.272029050987529"><ele>508.0</ele><time>2026-04-11T07:42:46Z</time></trkpt><trkpt lat="39.67013558200722" lon="9.271843146224642"><ele>508.0</ele><time>2026-04-11T07:42:47Z</time></trkpt><trkpt lat="39.67030805960571" lon="9.271653019970453"><ele>509.6666666666667</ele><time>2026-04-11T07:42:48Z</time></trkpt><trkpt lat="39.67048181792265" lon="9.271464958567083"><ele>511.33333333333337</ele><time>2026-04-11T07:42:49Z</time></trkpt><trkpt lat="39.67065272132251" lon="9.271280477179982"><ele>513.0</ele><time>2026-04-11T07:42:50Z</time></trkpt><trkpt lat="39.670822071803144" lon="9.271096353446296"><ele>513.0</ele><time>2026-04-11T07:42:51Z</time></trkpt><trkpt lat="39.670989509697485" lon="9.27091025378375"><ele>513.0</ele><time>2026-04-11T07:42:52Z</time></trkpt><trkpt lat="39.67116820715556" lon="9.27074258427205"><ele>513.0</ele><time>2026-04-11T07:42:53Z</time></trkpt><trkpt lat="39.671337580862996" lon="9.270565169091418"><ele>512.6666666666666</ele><time>2026-04-11T07:42:54Z</time></trkpt><trkpt lat="39.67151142922159" lon="9.27039346376269"><ele>512.3333333333333</ele><time>2026-04-11T07:42:55Z</time></trkpt><trkpt lat="39.67168344629293" lon="9.270215801970881"><ele>512.0</ele><time>2026-04-11T07:42:56Z</time></trkpt><trkpt lat="39.671872770052076" lon="9.270058182786432"><ele>510.5</ele><time>2026-04-11T07:42:57Z</time></trkpt><trkpt lat="39.672068914356124" lon="9.269902694375514"><ele>509.0</ele><time>2026-04-11T07:42:58Z</time></trkpt><trkpt lat="39.672269145769306" lon="9.269749349107549"><ele>509.0</ele><time>2026-04-11T07:42:59Z</time></trkpt><trkpt lat="39.67247030012952" lon="9.269603142761966"><ele>509.0</ele><time>2026-04-11T07:43:00Z</time></trkpt><trkpt lat="39.67266587909816" lon="9.269456340361021"><ele>510.66666666666663</ele><time>2026-04-11T07:43:01Z</time></trkpt><trkpt lat="39.67285673330294" lon="9.269306719132477"><ele>512.3333333333334</ele><time>2026-04-11T07:43:02Z</time></trkpt><trkpt lat="39.67304514301365" lon="9.269161218543061"><ele>514.0</ele><time>2026-04-11T07:43:03Z</time></trkpt><trkpt lat="39.673233683226826" lon="9.269023438724645"><ele>513.0</ele><time>2026-04-11T07:43:04Z</time></trkpt><trkpt lat="39.673419290419574" lon="9.268886821634057"><ele>512.0</ele><time>2026-04-11T07:43:05Z</time></trkpt><trkpt lat="39.67359572254212" lon="9.268733395128184"><ele>511.0</ele><time>2026-04-11T07:43:06Z</time></trkpt><trkpt lat="39.673763033388006" lon="9.268546771081647"><ele>511.0</ele><time>2026-04-11T07:43:07Z</time></trkpt><trkpt lat="39.67391731018519" lon="9.268328318373106"><ele>511.0</ele><time>2026-04-11T07:43:08Z</time></trkpt><trkpt lat="39.67406613478945" lon="9.268096816361838"><ele>512.0</ele><time>2026-04-11T07:43:09Z</time></trkpt><trkpt lat="39.674216879948666" lon="9.267867664672451"><ele>513.0</ele><time>2026-04-11T07:43:10Z</time></trkpt><trkpt lat="39.674372481576576" lon="9.267644661730706"><ele>512.0</ele><time>2026-04-11T07:43:11Z</time></trkpt><trkpt lat="39.67452821592625" lon="9.26742080362674"><ele>511.0</ele><time>2026-04-11T07:43:12Z</time></trkpt><trkpt lat="39.67468512526366" lon="9.267195865936989"><ele>511.0</ele><time>2026-04-11T07:43:13Z</time></trkpt><trkpt lat="39.67484257905393" lon="9.266972563418026"><ele>511.0</ele><time>2026-04-11T07:43:14Z</time></trkpt><trkpt lat="39.67500011392986" lon="9.266746871836048"><ele>511.0</ele><time>2026-04-11T07:43:15Z</time></trkpt><trkpt lat="39.67515704356533" lon="9.266520278161627"><ele>511.0</ele><time>2026-04-11T07:43:16Z</time></trkpt><trkpt lat="39.675314922627734" lon="9.266292433710142"><ele>511.0</ele><time>2026-04-11T07:43:17Z</time></trkpt><trkpt lat="39.67547323740015" lon="9.266064834963386"><ele>511.0</ele><time>2026-04-11T07:43:18Z</time></trkpt><trkpt lat="39.67563145066844" lon="9.265837488666271"><ele>510.5</ele><time>2026-04-11T07:43:19Z</time></trkpt><trkpt lat="39.67579013511297" lon="9.265609450337617"><ele>510.0</ele><time>2026-04-11T07:43:20Z</time></trkpt><trkpt lat="39.6759490253595" lon="9.265379765290783"><ele>512.0</ele><time>2026-04-11T07:43:21Z</time></trkpt><trkpt lat="39.676107171321966" lon="9.265149912759016"><ele>514.0</ele><time>2026-04-11T07:43:22Z</time></trkpt><trkpt lat="39.67626520318591" lon="9.264922424188024"><ele>512.5</ele><time>2026-04-11T07:43:23Z</time></trkpt><trkpt lat="39.67642311937362" lon="9.264698022873697"><ele>511.0</ele><time>2026-04-11T07:43:24Z</time></trkpt><trkpt lat="39.676579827163444" lon="9.264474709982595"><ele>511.0</ele><time>2026-04-11T07:43:25Z</time></trkpt><trkpt lat="39.676737021786174" lon="9.264249089094788"><ele>511.0</ele><time>2026-04-11T07:43:26Z</time></trkpt><trkpt lat="39.67689471205673" lon="9.264024479964357"><ele>511.5</ele><time>2026-04-11T07:43:27Z</time></trkpt><trkpt lat="39.67705235533738" lon="9.263800300915651"><ele>512.0</ele><time>2026-04-11T07:43:28Z</time></trkpt><trkpt lat="39.6772108151152" lon="9.263572333234647"><ele>512.0</ele><time>2026-04-11T07:43:29Z</time></trkpt><trkpt lat="39.677368919023934" lon="9.2633425554166"><ele>512.0</ele><time>2026-04-11T07:43:30Z</time></trkpt><trkpt lat="39.67752843404412" lon="9.263112884207661"><ele>512.5</ele><time>2026-04-11T07:43:31Z</time></trkpt><trkpt lat="39.67768934388197" lon="9.262883182878753"><ele>513.0</ele><time>2026-04-11T07:43:32Z</time></trkpt><trkpt lat="39.67784803789859" lon="9.262656665498769"><ele>514.0</ele><time>2026-04-11T07:43:33Z</time></trkpt><trkpt lat="39.67800241439981" lon="9.262432070421994"><ele>515.0</ele><time>2026-04-11T07:43:34Z</time></trkpt><trkpt lat="39.678149551430394" lon="9.262206362213048"><ele>516.5</ele><time>2026-04-11T07:43:35Z</time></trkpt><trkpt lat="39.678306407065044" lon="9.261996235738104"><ele>518.0</ele><time>2026-04-11T07:43:36Z</time></trkpt><trkpt lat="39.678451842055125" lon="9.261772030411652"><ele>518.0</ele><time>2026-04-11T07:43:37Z</time></trkpt><trkpt lat="39.67851854629128" lon="9.261466822265202"><ele>518.0</ele><time>2026-04-11T07:43:38Z</time></trkpt><trkpt lat="39.67861724693434" lon="9.261217953688247"><ele>520.0</ele><time>2026-04-11T07:43:39Z</time></trkpt><trkpt lat="39.678719495151114" lon="9.260969656334144"><ele>522.0</ele><time>2026-04-11T07:43:40Z</time></trkpt><trkpt lat="39.67882373420204" lon="9.26071816898033"><ele>524.0</ele><time>2026-04-11T07:43:41Z</time></trkpt><trkpt lat="39.67892903507021" lon="9.260468473635909"><ele>524.0</ele><time>2026-04-11T07:43:42Z</time></trkpt><trkpt lat="39.67903547204979" lon="9.26021632213636"><ele>524.0</ele><time>2026-04-11T07:43:43Z</time></trkpt><trkpt lat="39.6791403137562" lon="9.259965498025393"><ele>524.0</ele><time>2026-04-11T07:43:44Z</time></trkpt><trkpt lat="39.6792441775577" lon="9.259716342376302"><ele>523.6666666666666</ele><time>2026-04-11T07:43:45Z</time></trkpt><trkpt lat="39.67935000541139" lon="9.259470768713264"><ele>523.3333333333334</ele><time>2026-04-11T07:43:46Z</time></trkpt><trkpt lat="39.67945388132991" lon="9.259230612438122"><ele>523.0</ele><time>2026-04-11T07:43:47Z</time></trkpt><trkpt lat="39.679554186717965" lon="9.258993891105554"><ele>525.0</ele><time>2026-04-11T07:43:48Z</time></trkpt><trkpt lat="39.67965435352776" lon="9.258767242427266"><ele>527.0</ele><time>2026-04-11T07:43:49Z</time></trkpt><trkpt lat="39.67975726665078" lon="9.258552369845328"><ele>529.0</ele><time>2026-04-11T07:43:50Z</time></trkpt><trkpt lat="39.679887260897075" lon="9.258349095939996"><ele>529.0</ele><time>2026-04-11T07:43:51Z</time></trkpt><trkpt lat="39.68004507295259" lon="9.258165117021173"><ele>529.0</ele><time>2026-04-11T07:43:52Z</time></trkpt><trkpt lat="39.680220856975474" lon="9.257998647457173"><ele>529.0</ele><time>2026-04-11T07:43:53Z</time></trkpt><trkpt lat="39.68041293946512" lon="9.257845247594908"><ele>527.5</ele><time>2026-04-11T07:43:54Z</time></trkpt><trkpt lat="39.68061200416489" lon="9.257697726141249"><ele>526.0</ele><time>2026-04-11T07:43:55Z</time></trkpt><trkpt lat="39.68080998600385" lon="9.257536673086566"><ele>526.0</ele><time>2026-04-11T07:43:56Z</time></trkpt><trkpt lat="39.68100211794174" lon="9.257362349946328"><ele>526.0</ele><time>2026-04-11T07:43:57Z</time></trkpt><trkpt lat="39.68119493653265" lon="9.257191504071985"><ele>527.5</ele><time>2026-04-11T07:43:58Z</time></trkpt><trkpt lat="39.68139039305238" lon="9.257029901140855"><ele>529.0</ele><time>2026-04-11T07:43:59Z</time></trkpt><trkpt lat="39.68158610783961" lon="9.256868498421694"><ele>529.0</ele><time>2026-04-11T07:44:00Z</time></trkpt><trkpt lat="39.68177990373128" lon="9.256705544333723"><ele>529.0</ele><time>2026-04-11T07:44:01Z</time></trkpt><trkpt lat="39.6819766571903" lon="9.256539654882"><ele>530.0</ele><time>2026-04-11T07:44:02Z</time></trkpt><trkpt lat="39.682173235329095" lon="9.256373625583615"><ele>531.0</ele><time>2026-04-11T07:44:03Z</time></trkpt><trkpt lat="39.68236973486249" lon="9.256208811748325"><ele>531.0</ele><time>2026-04-11T07:44:04Z</time></trkpt><trkpt lat="39.682567039296714" lon="9.256044267961308"><ele>531.0</ele><time>2026-04-11T07:44:05Z</time></trkpt><trkpt lat="39.682762262274466" lon="9.255881073361168"><ele>532.5</ele><time>2026-04-11T07:44:06Z</time></trkpt><trkpt lat="39.68295638758658" lon="9.255718265799418"><ele>534.0</ele><time>2026-04-11T07:44:07Z</time></trkpt><trkpt lat="39.68314705172829" lon="9.255561202216894"><ele>534.3333333333334</ele><time>2026-04-11T07:44:08Z</time></trkpt><trkpt lat="39.68333208219187" lon="9.255413529752238"><ele>534.6666666666667</ele><time>2026-04-11T07:44:09Z</time></trkpt><trkpt lat="39.6835141509475" lon="9.255272676697409"><ele>535.0</ele><time>2026-04-11T07:44:10Z</time></trkpt><trkpt lat="39.683697376299065" lon="9.255140635775419"><ele>535.0</ele><time>2026-04-11T07:44:11Z</time></trkpt><trkpt lat="39.68388407055392" lon="9.255023157484079"><ele>535.0</ele><time>2026-04-11T07:44:12Z</time></trkpt><trkpt lat="39.6840700565291" lon="9.254925765375768"><ele>535.0</ele><time>2026-04-11T07:44:13Z</time></trkpt><trkpt lat="39.68425155393648" lon="9.254835918821364"><ele>533.0</ele><time>2026-04-11T07:44:14Z</time></trkpt><trkpt lat="39.68442479927982" lon="9.254740053843365"><ele>531.0</ele><time>2026-04-11T07:44:15Z</time></trkpt><trkpt lat="39.68458580177645" lon="9.254642087246365"><ele>529.0</ele><time>2026-04-11T07:44:16Z</time></trkpt><trkpt lat="39.68474283117309" lon="9.25455150832887"><ele>529.0</ele><time>2026-04-11T07:44:17Z</time></trkpt><trkpt lat="39.684898935446355" lon="9.254462354965094"><ele>529.0</ele><time>2026-04-11T07:44:18Z</time></trkpt><trkpt lat="39.685048285435485" lon="9.254378644864918"><ele>529.0</ele><time>2026-04-11T07:44:19Z</time></trkpt><trkpt lat="39.685194406475304" lon="9.25429411945187"><ele>530.0</ele><time>2026-04-11T07:44:20Z</time></trkpt><trkpt lat="39.685334238153445" lon="9.25420805309966"><ele>531.0</ele><time>2026-04-11T07:44:21Z</time></trkpt><trkpt lat="39.68546780782771" lon="9.254134406417805"><ele>532.0</ele><time>2026-04-11T07:44:22Z</time></trkpt><trkpt lat="39.68560059359628" lon="9.254059406405776"><ele>533.0</ele><time>2026-04-11T07:44:23Z</time></trkpt><trkpt lat="39.68573030465151" lon="9.253986217481355"><ele>533.5</ele><time>2026-04-11T07:44:24Z</time></trkpt><trkpt lat="39.68585743246133" lon="9.253918021847506"><ele>534.0</ele><time>2026-04-11T07:44:25Z</time></trkpt><trkpt lat="39.68598360972926" lon="9.253851572731202"><ele>534.5</ele><time>2026-04-11T07:44:26Z</time></trkpt><trkpt lat="39.68610841375243" lon="9.253786999517107"><ele>535.0</ele><time>2026-04-11T07:44:27Z</time></trkpt><trkpt lat="39.68622988375513" lon="9.25371763212802"><ele>535.0</ele><time>2026-04-11T07:44:28Z</time></trkpt><trkpt lat="39.68635284770174" lon="9.25364353840115"><ele>535.0</ele><time>2026-04-11T07:44:29Z</time></trkpt><trkpt lat="39.686474330574804" lon="9.253570507506426"><ele>535.0</ele><time>2026-04-11T07:44:30Z</time></trkpt><trkpt lat="39.686593410662134" lon="9.253502054254712"><ele>535.0</ele><time>2026-04-11T07:44:31Z</time></trkpt><trkpt lat="39.68670874365332" lon="9.253435672165832"><ele>535.0</ele><time>2026-04-11T07:44:32Z</time></trkpt><trkpt lat="39.68682208691582" lon="9.25337780914911"><ele>535.0</ele><time>2026-04-11T07:44:33Z</time></trkpt><trkpt lat="39.68693621889272" lon="9.253327377945356"><ele>535.0</ele><time>2026-04-11T07:44:34Z</time></trkpt><trkpt lat="39.68704822894361" lon="9.253282961587404"><ele>535.0</ele><time>2026-04-11T07:44:35Z</time></trkpt><trkpt lat="39.68715694422581" lon="9.253246644263804"><ele>535.0</ele><time>2026-04-11T07:44:36Z</time></trkpt><trkpt lat="39.68726106912457" lon="9.253210913715414"><ele>535.0</ele><time>2026-04-11T07:44:37Z</time></trkpt><trkpt lat="39.687364336886375" lon="9.253159472541283"><ele>535.0</ele><time>2026-04-11T07:44:38Z</time></trkpt><trkpt lat="39.6874657082043" lon="9.253120739048693"><ele>535.0</ele><time>2026-04-11T07:44:39Z</time></trkpt><trkpt lat="39.68756644905916" lon="9.253086016774205"><ele>535.0</ele><time>2026-04-11T07:44:40Z</time></trkpt><trkpt lat="39.68766648227067" lon="9.253048937667995"><ele>534.8</ele><time>2026-04-11T07:44:41Z</time></trkpt><trkpt lat="39.68776482572033" lon="9.25301207200956"><ele>534.6</ele><time>2026-04-11T07:44:42Z</time></trkpt><trkpt lat="39.68785844111589" lon="9.25296459318355"><ele>534.4</ele><time>2026-04-11T07:44:43Z</time></trkpt><trkpt lat="39.687948972785684" lon="9.252899072545107"><ele>534.2</ele><time>2026-04-11T07:44:44Z</time></trkpt><trkpt lat="39.688032337368945" lon="9.252818277749686"><ele>534.0</ele><time>2026-04-11T07:44:45Z</time></trkpt><trkpt lat="39.68810360840779" lon="9.252716334695956"><ele>534.0</ele><time>2026-04-11T07:44:46Z</time></trkpt><trkpt lat="39.68817689599359" lon="9.252612520394377"><ele>534.0</ele><time>2026-04-11T07:44:47Z</time></trkpt><trkpt lat="39.688225964299406" lon="9.252472408750437"><ele>534.0</ele><time>2026-04-11T07:44:48Z</time></trkpt><trkpt lat="39.688241303796914" lon="9.25233080759162"><ele>534.0</ele><time>2026-04-11T07:44:49Z</time></trkpt><trkpt lat="39.68825326015171" lon="9.252189836196512"><ele>534.0</ele><time>2026-04-11T07:44:50Z</time></trkpt><trkpt lat="39.68825141024152" lon="9.2520466819326"><ele>533.75</ele><time>2026-04-11T07:44:51Z</time></trkpt><trkpt lat="39.68824181134665" lon="9.251898147009122"><ele>533.5</ele><time>2026-04-11T07:44:52Z</time></trkpt><trkpt lat="39.68822889811936" lon="9.251750353995837"><ele>533.25</ele><time>2026-04-11T07:44:53Z</time></trkpt><trkpt lat="39.68822550692906" lon="9.25160495023176"><ele>533.0</ele><time>2026-04-11T07:44:54Z</time></trkpt><trkpt lat="39.68823381664946" lon="9.251458921266147"><ele>532.4</ele><time>2026-04-11T07:44:55Z</time></trkpt><trkpt lat="39.688257521655935" lon="9.251321807278464"><ele>531.8</ele><time>2026-04-11T07:44:56Z</time></trkpt><trkpt lat="39.688295153714805" lon="9.251198814769555"><ele>531.2</ele><time>2026-04-11T07:44:57Z</time></trkpt><trkpt lat="39.68834214082278" lon="9.25109211053663"><ele>530.6</ele><time>2026-04-11T07:44:58Z</time></trkpt><trkpt lat="39.68840024346608" lon="9.250998066474668"><ele>530.0</ele><time>2026-04-11T07:44:59Z</time></trkpt><trkpt lat="39.68847404179276" lon="9.250907590419285"><ele>530.0</ele><time>2026-04-11T07:45:00Z</time></trkpt><trkpt lat="39.68856251469615" lon="9.250841703950167"><ele>530.0</ele><time>2026-04-11T07:45:01Z</time></trkpt><trkpt lat="39.68866191479444" lon="9.250783492079677"><ele>530.0</ele><time>2026-04-11T07:45:02Z</time></trkpt><trkpt lat="39.68876451613892" lon="9.250737690181909"><ele>530.0</ele><time>2026-04-11T07:45:03Z</time></trkpt><trkpt lat="39.68886561573711" lon="9.250699489729106"><ele>530.0</ele><time>2026-04-11T07:45:04Z</time></trkpt><trkpt lat="39.688961268491234" lon="9.250667000390537"><ele>529.1666666666666</ele><time>2026-04-11T07:45:05Z</time></trkpt><trkpt lat="39.689050409137934" lon="9.25063635955669"><ele>528.3333333333333</ele><time>2026-04-11T07:45:06Z</time></trkpt><trkpt lat="39.68912118298163" lon="9.25061329196563"><ele>527.5</ele><time>2026-04-11T07:45:07Z</time></trkpt><trkpt lat="39.68920913517729" lon="9.250600166268077"><ele>526.6666666666666</ele><time>2026-04-11T07:45:09Z</time></trkpt><trkpt lat="39.68928779450911" lon="9.250588670608499"><ele>525.8333333333334</ele><time>2026-04-11T07:45:11Z</time></trkpt><trkpt lat="39.689370326936675" lon="9.250564407982026"><ele>525.0</ele><time>2026-04-11T07:45:13Z</time></trkpt><trkpt lat="39.68943884602499" lon="9.250530137916549"><ele>524.3333333333334</ele><time>2026-04-11T07:45:15Z</time></trkpt><trkpt lat="39.68951951437881" lon="9.250490294897899"><ele>523.6666666666666</ele><time>2026-04-11T07:45:18Z</time></trkpt><trkpt lat="39.689590396900414" lon="9.250462565000714"><ele>523.0</ele><time>2026-04-11T07:45:33Z</time></trkpt><trkpt lat="39.689662925815725" lon="9.250435242816764"><ele>522.3333333333333</ele><time>2026-04-11T07:45:36Z</time></trkpt><trkpt lat="39.68972679824858" lon="9.250385117737382"><ele>521.6666666666666</ele><time>2026-04-11T08:08:48Z</time></trkpt><trkpt lat="39.68981434901814" lon="9.250338834933329"><ele>521.0</ele><time>2026-04-11T08:08:50Z</time></trkpt><trkpt lat="39.68992957609322" lon="9.250297302900778"><ele>521.0</ele><time>2026-04-11T08:08:52Z</time></trkpt><trkpt lat="39.69000206447391" lon="9.250276689206835"><ele>521.0</ele><time>2026-04-11T08:08:53Z</time></trkpt><trkpt lat="39.69007428417545" lon="9.250261683337976"><ele>521.0</ele><time>2026-04-11T08:08:54Z</time></trkpt><trkpt lat="39.6901427171204" lon="9.250240091528804"><ele>521.0</ele><time>2026-04-11T08:08:55Z</time></trkpt><trkpt lat="39.69020846117471" lon="9.250208664054057"><ele>521.0</ele><time>2026-04-11T08:08:56Z</time></trkpt><trkpt lat="39.69029536351522" lon="9.250195671579894"><ele>521.0</ele><time>2026-04-11T08:08:57Z</time></trkpt><trkpt lat="39.69038299780711" lon="9.250158897582793"><ele>521.2</ele><time>2026-04-11T08:08:58Z</time></trkpt><trkpt lat="39.69047564442192" lon="9.250123916041556"><ele>521.4000000000001</ele><time>2026-04-11T08:08:59Z</time></trkpt><trkpt lat="39.69057657688202" lon="9.250121761580708"><ele>521.6</ele><time>2026-04-11T08:09:00Z</time></trkpt><trkpt lat="39.69067568465175" lon="9.250087854033971"><ele>521.8000000000001</ele><time>2026-04-11T08:09:01Z</time></trkpt><trkpt lat="39.69077593243758" lon="9.250052995013798"><ele>522.0</ele><time>2026-04-11T08:09:02Z</time></trkpt><trkpt lat="39.69087699767518" lon="9.250016920155856"><ele>522.0</ele><time>2026-04-11T08:09:03Z</time></trkpt><trkpt lat="39.69098223224002" lon="9.24997935707377"><ele>522.0</ele><time>2026-04-11T08:09:04Z</time></trkpt><trkpt lat="39.691083354348926" lon="9.249943261914572"><ele>522.0</ele><time>2026-04-11T08:09:05Z</time></trkpt><trkpt lat="39.69118644719749" lon="9.249906463309001"><ele>522.0</ele><time>2026-04-11T08:09:06Z</time></trkpt><trkpt lat="39.69128171612529" lon="9.24985102935202"><ele>522.0</ele><time>2026-04-11T08:09:07Z</time></trkpt><trkpt lat="39.69138491249973" lon="9.249821065408746"><ele>522.4</ele><time>2026-04-11T08:09:08Z</time></trkpt><trkpt lat="39.69148553763576" lon="9.249791301580323"><ele>522.8000000000001</ele><time>2026-04-11T08:09:09Z</time></trkpt><trkpt lat="39.691586646478534" lon="9.249751491108139"><ele>523.2</ele><time>2026-04-11T08:09:10Z</time></trkpt><trkpt lat="39.69168799665398" lon="9.249720908619231"><ele>523.6</ele><time>2026-04-11T08:09:11Z</time></trkpt><trkpt lat="39.691785101618585" lon="9.249689929952524"><ele>524.0</ele><time>2026-04-11T08:09:12Z</time></trkpt><trkpt lat="39.69188137024715" lon="9.249636077020217"><ele>524.4</ele><time>2026-04-11T08:09:13Z</time></trkpt><trkpt lat="39.69196521230127" lon="9.249557132537776"><ele>524.8</ele><time>2026-04-11T08:09:14Z</time></trkpt><trkpt lat="39.692044453799944" lon="9.249467346777132"><ele>525.2</ele><time>2026-04-11T08:09:15Z</time></trkpt><trkpt lat="39.69211665759617" lon="9.249361947631877"><ele>525.6</ele><time>2026-04-11T08:09:16Z</time></trkpt><trkpt lat="39.69218326347998" lon="9.24925342914075"><ele>526.0</ele><time>2026-04-11T08:09:17Z</time></trkpt><trkpt lat="39.69224908534337" lon="9.249144976645821"><ele>526.0</ele><time>2026-04-11T08:09:18Z</time></trkpt><trkpt lat="39.692317384847065" lon="9.249039729920552"><ele>526.0</ele><time>2026-04-11T08:09:19Z</time></trkpt><trkpt lat="39.6924016477534" lon="9.24895546081173"><ele>526.0</ele><time>2026-04-11T08:09:20Z</time></trkpt><trkpt lat="39.692494370225354" lon="9.248888367634791"><ele>526.0</ele><time>2026-04-11T08:09:21Z</time></trkpt><trkpt lat="39.692594986453244" lon="9.248828796268308"><ele>526.0</ele><time>2026-04-11T08:09:22Z</time></trkpt><trkpt lat="39.692697527454435" lon="9.248778574383952"><ele>526.4</ele><time>2026-04-11T08:09:23Z</time></trkpt><trkpt lat="39.69279196226492" lon="9.248734483931695"><ele>526.8</ele><time>2026-04-11T08:09:24Z</time></trkpt><trkpt lat="39.69286366024404" lon="9.24869659370068"><ele>527.1999999999999</ele><time>2026-04-11T08:09:25Z</time></trkpt><trkpt lat="39.69298257078338" lon="9.248645078708273"><ele>527.6</ele><time>2026-04-11T08:09:27Z</time></trkpt><trkpt lat="39.693057440766076" lon="9.248610557535564"><ele>528.0</ele><time>2026-04-11T08:09:28Z</time></trkpt><trkpt lat="39.693147006803144" lon="9.248556752712954"><ele>528.0</ele><time>2026-04-11T08:09:29Z</time></trkpt><trkpt lat="39.69322943250173" lon="9.248534423838617"><ele>528.0</ele><time>2026-04-11T08:09:30Z</time></trkpt><trkpt lat="39.69330310603182" lon="9.248508797731775"><ele>528.0</ele><time>2026-04-11T08:09:31Z</time></trkpt><trkpt lat="39.693366962644944" lon="9.248491665366235"><ele>528.0</ele><time>2026-04-11T08:09:32Z</time></trkpt><trkpt lat="39.69343126813723" lon="9.248491981249444"><ele>528.0</ele><time>2026-04-11T08:09:33Z</time></trkpt><trkpt lat="39.693500371664754" lon="9.248517095607278"><ele>528.0</ele><time>2026-04-11T08:09:34Z</time></trkpt><trkpt lat="39.69357030746428" lon="9.248566610617239"><ele>528.0</ele><time>2026-04-11T08:09:35Z</time></trkpt><trkpt lat="39.69364757482117" lon="9.248614257379378"><ele>529.0</ele><time>2026-04-11T08:09:36Z</time></trkpt><trkpt lat="39.6937309965363" lon="9.248659565390533"><ele>530.0</ele><time>2026-04-11T08:09:37Z</time></trkpt><trkpt lat="39.69381767455222" lon="9.248706079900245"><ele>531.0</ele><time>2026-04-11T08:09:38Z</time></trkpt><trkpt lat="39.69390709284139" lon="9.248756191556172"><ele>532.0</ele><time>2026-04-11T08:09:39Z</time></trkpt><trkpt lat="39.69398976375696" lon="9.248811408235596"><ele>533.0</ele><time>2026-04-11T08:09:40Z</time></trkpt><trkpt lat="39.694068884428674" lon="9.248868455779148"><ele>533.0</ele><time>2026-04-11T08:09:41Z</time></trkpt><trkpt lat="39.69414078582269" lon="9.248932730304043"><ele>533.0</ele><time>2026-04-11T08:09:42Z</time></trkpt><trkpt lat="39.69420469181207" lon="9.249005065741681"><ele>533.0</ele><time>2026-04-11T08:09:43Z</time></trkpt><trkpt lat="39.69426957471336" lon="9.249078381083859"><ele>533.0</ele><time>2026-04-11T08:09:44Z</time></trkpt><trkpt lat="39.69433044765697" lon="9.24914686194523"><ele>533.0</ele><time>2026-04-11T08:09:45Z</time></trkpt><trkpt lat="39.69439237996899" lon="9.24921184189066"><ele>533.0</ele><time>2026-04-11T08:09:46Z</time></trkpt><trkpt lat="39.69445529269113" lon="9.249281714508264"><ele>534.8333333333333</ele><time>2026-04-11T08:09:47Z</time></trkpt><trkpt lat="39.69451910253002" lon="9.249348622570656"><ele>536.6666666666666</ele><time>2026-04-11T08:09:48Z</time></trkpt><trkpt lat="39.69458404039339" lon="9.249413362051625"><ele>538.5</ele><time>2026-04-11T08:09:49Z</time></trkpt><trkpt lat="39.69464706138044" lon="9.24948025654998"><ele>540.3333333333334</ele><time>2026-04-11T08:09:50Z</time></trkpt><trkpt lat="39.694704973828564" lon="9.24954093256825"><ele>542.1666666666667</ele><time>2026-04-11T08:09:51Z</time></trkpt><trkpt lat="39.6947968118674" lon="9.24960970473042"><ele>544.0</ele><time>2026-04-11T08:09:53Z</time></trkpt><trkpt lat="39.6948767465333" lon="9.249484411677843"><ele>544.0</ele><time>2026-04-11T08:09:57Z</time></trkpt><trkpt lat="39.69488456894383" lon="9.249383692747069"><ele>544.0</ele><time>2026-04-11T08:09:58Z</time></trkpt><trkpt lat="39.694911206110646" lon="9.249284723341708"><ele>544.0</ele><time>2026-04-11T08:09:59Z</time></trkpt><trkpt lat="39.694914725442445" lon="9.249180626487924"><ele>544.0</ele><time>2026-04-11T08:10:00Z</time></trkpt><trkpt lat="39.69496595013798" lon="9.249092739076216"><ele>544.0</ele><time>2026-04-11T08:10:01Z</time></trkpt><trkpt lat="39.69499847322914" lon="9.24898019549333"><ele>544.0</ele><time>2026-04-11T08:10:02Z</time></trkpt><trkpt lat="39.6950831287892" lon="9.248907002970475"><ele>543.4</ele><time>2026-04-11T08:10:03Z</time></trkpt><trkpt lat="39.695138069387056" lon="9.248799932585621"><ele>542.8</ele><time>2026-04-11T08:10:04Z</time></trkpt><trkpt lat="39.69520996871623" lon="9.248710292345503"><ele>542.2</ele><time>2026-04-11T08:10:05Z</time></trkpt><trkpt lat="39.69527814812565" lon="9.248612106344927"><ele>541.6</ele><time>2026-04-11T08:10:06Z</time></trkpt><trkpt lat="39.695351772329765" lon="9.248512720857036"><ele>541.0</ele><time>2026-04-11T08:10:07Z</time></trkpt><trkpt lat="39.69542736101733" lon="9.248412778900825"><ele>541.6</ele><time>2026-04-11T08:10:08Z</time></trkpt><trkpt lat="39.69550254504711" lon="9.248309720650298"><ele>542.2</ele><time>2026-04-11T08:10:09Z</time></trkpt><trkpt lat="39.695579285761895" lon="9.248207319995275"><ele>542.8</ele><time>2026-04-11T08:10:10Z</time></trkpt><trkpt lat="39.69565696541648" lon="9.248106070353437"><ele>543.4</ele><time>2026-04-11T08:10:11Z</time></trkpt><trkpt lat="39.69573083034231" lon="9.248004529778692"><ele>544.0</ele><time>2026-04-11T08:10:12Z</time></trkpt><trkpt lat="39.69580113968411" lon="9.247902753683057"><ele>544.0</ele><time>2026-04-11T08:10:13Z</time></trkpt><trkpt lat="39.695874655656745" lon="9.247809625371683"><ele>544.0</ele><time>2026-04-11T08:10:14Z</time></trkpt><trkpt lat="39.69594752679672" lon="9.247729444281653"><ele>544.0</ele><time>2026-04-11T08:10:15Z</time></trkpt><trkpt lat="39.696023217904774" lon="9.24762664511538"><ele>544.0</ele><time>2026-04-11T08:10:16Z</time></trkpt><trkpt lat="39.69608950235951" lon="9.247536621507036"><ele>544.0</ele><time>2026-04-11T08:10:17Z</time></trkpt><trkpt lat="39.696154307085884" lon="9.247448607567332"><ele>545.0</ele><time>2026-04-11T08:10:18Z</time></trkpt><trkpt lat="39.69622764785559" lon="9.247349000496811"><ele>546.0</ele><time>2026-04-11T08:10:19Z</time></trkpt><trkpt lat="39.696301830828375" lon="9.247248249594685"><ele>547.0</ele><time>2026-04-11T08:10:20Z</time></trkpt><trkpt lat="39.696379474013575" lon="9.247144628730075"><ele>548.0</ele><time>2026-04-11T08:10:21Z</time></trkpt><trkpt lat="39.696458578083785" lon="9.247039540769183"><ele>549.0</ele><time>2026-04-11T08:10:22Z</time></trkpt><trkpt lat="39.6965373292647" lon="9.246936150943576"><ele>549.0</ele><time>2026-04-11T08:10:23Z</time></trkpt><trkpt lat="39.69661623090139" lon="9.246832510103538"><ele>549.0</ele><time>2026-04-11T08:10:24Z</time></trkpt><trkpt lat="39.69669648985479" lon="9.246727086368017"><ele>549.0</ele><time>2026-04-11T08:10:25Z</time></trkpt><trkpt lat="39.69677519909557" lon="9.246623892671266"><ele>549.0</ele><time>2026-04-11T08:10:26Z</time></trkpt><trkpt lat="39.69685476532133" lon="9.2465199487133"><ele>548.5</ele><time>2026-04-11T08:10:27Z</time></trkpt><trkpt lat="39.69693450806344" lon="9.246415774154014"><ele>548.0</ele><time>2026-04-11T08:10:28Z</time></trkpt><trkpt lat="39.69700994017591" lon="9.246305936343113"><ele>547.5</ele><time>2026-04-11T08:10:29Z</time></trkpt><trkpt lat="39.697106505359436" lon="9.246226711404086"><ele>547.0</ele><time>2026-04-11T08:10:30Z</time></trkpt><trkpt lat="39.697207906755345" lon="9.246154860051782"><ele>547.0</ele><time>2026-04-11T08:10:31Z</time></trkpt><trkpt lat="39.69731171304678" lon="9.246095255727365"><ele>547.0</ele><time>2026-04-11T08:10:32Z</time></trkpt><trkpt lat="39.69742525696497" lon="9.246047839065964"><ele>547.0</ele><time>2026-04-11T08:10:33Z</time></trkpt><trkpt lat="39.69754088974101" lon="9.24600726779297"><ele>547.0</ele><time>2026-04-11T08:10:34Z</time></trkpt><trkpt lat="39.69765709212921" lon="9.245963749314136"><ele>548.0</ele><time>2026-04-11T08:10:35Z</time></trkpt><trkpt lat="39.69777249188064" lon="9.245913882771143"><ele>549.0</ele><time>2026-04-11T08:10:36Z</time></trkpt><trkpt lat="39.69789344294719" lon="9.245870053337521"><ele>550.0</ele><time>2026-04-11T08:10:37Z</time></trkpt><trkpt lat="39.69801431099363" lon="9.245828031223452"><ele>551.0</ele><time>2026-04-11T08:10:38Z</time></trkpt><trkpt lat="39.69813528373744" lon="9.245782992258949"><ele>551.0</ele><time>2026-04-11T08:10:39Z</time></trkpt><trkpt lat="39.698254779938004" lon="9.245735601897033"><ele>551.0</ele><time>2026-04-11T08:10:40Z</time></trkpt><trkpt lat="39.69837404646653" lon="9.245690632253304"><ele>551.0</ele><time>2026-04-11T08:10:41Z</time></trkpt><trkpt lat="39.69848850739733" lon="9.245623337868288"><ele>551.0</ele><time>2026-04-11T08:10:42Z</time></trkpt><trkpt lat="39.698586689086476" lon="9.245533875047277"><ele>551.5</ele><time>2026-04-11T08:10:43Z</time></trkpt><trkpt lat="39.69868463322223" lon="9.245432308934458"><ele>552.0</ele><time>2026-04-11T08:10:44Z</time></trkpt><trkpt lat="39.69876707250043" lon="9.24531835328584"><ele>552.5</ele><time>2026-04-11T08:10:45Z</time></trkpt><trkpt lat="39.69885497899354" lon="9.245199941912507"><ele>553.0</ele><time>2026-04-11T08:10:46Z</time></trkpt><trkpt lat="39.698942233477" lon="9.245083077570575"><ele>553.0</ele><time>2026-04-11T08:10:47Z</time></trkpt><trkpt lat="39.69902885759957" lon="9.24495963057855"><ele>553.0</ele><time>2026-04-11T08:10:48Z</time></trkpt><trkpt lat="39.69911474282913" lon="9.244840191924673"><ele>553.0</ele><time>2026-04-11T08:10:49Z</time></trkpt><trkpt lat="39.69920515588663" lon="9.244721420335516"><ele>553.0</ele><time>2026-04-11T08:10:50Z</time></trkpt><trkpt lat="39.699294475776185" lon="9.244600160938274"><ele>552.5</ele><time>2026-04-11T08:10:51Z</time></trkpt><trkpt lat="39.699388770255304" lon="9.244477977929188"><ele>552.0</ele><time>2026-04-11T08:10:52Z</time></trkpt><trkpt lat="39.69948435960386" lon="9.244352339545538"><ele>551.5</ele><time>2026-04-11T08:10:53Z</time></trkpt><trkpt lat="39.699576922230506" lon="9.24422547681063"><ele>551.0</ele><time>2026-04-11T08:10:54Z</time></trkpt><trkpt lat="39.69967200308631" lon="9.244100649527448"><ele>551.0</ele><time>2026-04-11T08:10:55Z</time></trkpt><trkpt lat="39.69976845600623" lon="9.24397712836901"><ele>551.0</ele><time>2026-04-11T08:10:56Z</time></trkpt><trkpt lat="39.699864407310656" lon="9.243853536932434"><ele>551.0</ele><time>2026-04-11T08:10:57Z</time></trkpt><trkpt lat="39.699957948510374" lon="9.243726735183428"><ele>551.0</ele><time>2026-04-11T08:10:58Z</time></trkpt><trkpt lat="39.70005231947256" lon="9.243595810785983"><ele>550.5</ele><time>2026-04-11T08:10:59Z</time></trkpt><trkpt lat="39.70014594195089" lon="9.243468046966171"><ele>550.0</ele><time>2026-04-11T08:11:00Z</time></trkpt><trkpt lat="39.700243951825556" lon="9.243349338358643"><ele>549.5</ele><time>2026-04-11T08:11:01Z</time></trkpt><trkpt lat="39.700346671059265" lon="9.243248014617116"><ele>549.0</ele><time>2026-04-11T08:11:02Z</time></trkpt><trkpt lat="39.70045266816963" lon="9.243180058797565"><ele>550.2</ele><time>2026-04-11T08:11:03Z</time></trkpt><trkpt lat="39.70056600253951" lon="9.243216225794791"><ele>551.4</ele><time>2026-04-11T08:11:04Z</time></trkpt><trkpt lat="39.70066426562004" lon="9.243256208377403"><ele>552.6</ele><time>2026-04-11T08:11:05Z</time></trkpt><trkpt lat="39.70076860283038" lon="9.243294723583743"><ele>553.8</ele><time>2026-04-11T08:11:06Z</time></trkpt><trkpt lat="39.70085613439803" lon="9.243354936616957"><ele>555.0</ele><time>2026-04-11T08:11:07Z</time></trkpt><trkpt lat="39.70092725834103" lon="9.243412900674219"><ele>555.0</ele><time>2026-04-11T08:11:08Z</time></trkpt><trkpt lat="39.70097509709822" lon="9.243480146681232"><ele>555.0</ele><time>2026-04-11T08:11:09Z</time></trkpt><trkpt lat="39.70105238036763" lon="9.243587751551914"><ele>555.0</ele><time>2026-04-11T08:11:11Z</time></trkpt><trkpt lat="39.701168720669315" lon="9.243612673541909"><ele>555.0</ele><time>2026-04-11T08:11:13Z</time></trkpt><trkpt lat="39.70123150924341" lon="9.24360481906201"><ele>555.0</ele><time>2026-04-11T08:11:14Z</time></trkpt><trkpt lat="39.70130350856342" lon="9.243605815414528"><ele>555.0</ele><time>2026-04-11T08:11:15Z</time></trkpt><trkpt lat="39.70138194104104" lon="9.243632889952627"><ele>556.0</ele><time>2026-04-11T08:11:16Z</time></trkpt><trkpt lat="39.70146157565079" lon="9.24367073796757"><ele>557.0</ele><time>2026-04-11T08:11:17Z</time></trkpt><trkpt lat="39.70154801206382" lon="9.243699766225113"><ele>558.0</ele><time>2026-04-11T08:11:18Z</time></trkpt><trkpt lat="39.701640855101395" lon="9.243723462549681"><ele>559.0</ele><time>2026-04-11T08:11:19Z</time></trkpt><trkpt lat="39.70173590168658" lon="9.243730728784213"><ele>560.0</ele><time>2026-04-11T08:11:20Z</time></trkpt><trkpt lat="39.70183287471296" lon="9.243703377288595"><ele>563.4</ele><time>2026-04-11T08:11:21Z</time></trkpt><trkpt lat="39.701924346092845" lon="9.24365675479149"><ele>566.8</ele><time>2026-04-11T08:11:22Z</time></trkpt><trkpt lat="39.70201193973175" lon="9.243593372426332"><ele>570.2</ele><time>2026-04-11T08:11:23Z</time></trkpt><trkpt lat="39.70209162639859" lon="9.243506464097543"><ele>573.6</ele><time>2026-04-11T08:11:24Z</time></trkpt><trkpt lat="39.70216114623671" lon="9.243396773757507"><ele>577.0</ele><time>2026-04-11T08:11:25Z</time></trkpt><trkpt lat="39.70221850633901" lon="9.243268943151977"><ele>577.0</ele><time>2026-04-11T08:11:26Z</time></trkpt><trkpt lat="39.70226988328366" lon="9.243131161903582"><ele>577.0</ele><time>2026-04-11T08:11:27Z</time></trkpt><trkpt lat="39.702318985396914" lon="9.242988603719018"><ele>577.0</ele><time>2026-04-11T08:11:28Z</time></trkpt><trkpt lat="39.70237113295779" lon="9.242842528755173"><ele>577.0</ele><time>2026-04-11T08:11:29Z</time></trkpt><trkpt lat="39.7024257721179" lon="9.242694540828237"><ele>575.75</ele><time>2026-04-11T08:11:30Z</time></trkpt><trkpt lat="39.70248170673136" lon="9.242543742612973"><ele>574.5</ele><time>2026-04-11T08:11:31Z</time></trkpt><trkpt lat="39.70254150866503" lon="9.242388470246434"><ele>573.25</ele><time>2026-04-11T08:11:32Z</time></trkpt><trkpt lat="39.70260511118233" lon="9.242231431550469"><ele>572.0</ele><time>2026-04-11T08:11:33Z</time></trkpt><trkpt lat="39.70266776629429" lon="9.24206624862655"><ele>570.25</ele><time>2026-04-11T08:11:34Z</time></trkpt><trkpt lat="39.70272467721179" lon="9.241905562648542"><ele>568.5</ele><time>2026-04-11T08:11:35Z</time></trkpt><trkpt lat="39.7027845022014" lon="9.24174333549616"><ele>566.75</ele><time>2026-04-11T08:11:36Z</time></trkpt><trkpt lat="39.7028492854786" lon="9.241579585948617"><ele>565.0</ele><time>2026-04-11T08:11:37Z</time></trkpt><trkpt lat="39.702919845196824" lon="9.241413456100691"><ele>573.6666666666667</ele><time>2026-04-11T08:11:38Z</time></trkpt><trkpt lat="39.70299385517649" lon="9.241245956288811"><ele>582.3333333333334</ele><time>2026-04-11T08:11:39Z</time></trkpt><trkpt lat="39.70307142935727" lon="9.241077157383918"><ele>591.0</ele><time>2026-04-11T08:11:40Z</time></trkpt><trkpt lat="39.70315090256212" lon="9.240907786691597"><ele>591.0</ele><time>2026-04-11T08:11:41Z</time></trkpt><trkpt lat="39.703233311335715" lon="9.240738946037883"><ele>591.0</ele><time>2026-04-11T08:11:42Z</time></trkpt><trkpt lat="39.70324074049477" lon="9.240581575180176"><ele>591.0</ele><time>2026-04-11T08:11:43Z</time></trkpt><trkpt lat="39.70330970902256" lon="9.240417271985471"><ele>591.0</ele><time>2026-04-11T08:11:44Z</time></trkpt><trkpt lat="39.70337664073537" lon="9.240253805656913"><ele>589.25</ele><time>2026-04-11T08:11:45Z</time></trkpt><trkpt lat="39.70344233292824" lon="9.240093000931916"><ele>587.5</ele><time>2026-04-11T08:11:46Z</time></trkpt><trkpt lat="39.703503187380264" lon="9.239928318024281"><ele>585.75</ele><time>2026-04-11T08:11:47Z</time></trkpt><trkpt lat="39.70356347323626" lon="9.239758907493647"><ele>584.0</ele><time>2026-04-11T08:11:48Z</time></trkpt><trkpt lat="39.70362378410065" lon="9.239588227993735"><ele>590.0</ele><time>2026-04-11T08:11:49Z</time></trkpt><trkpt lat="39.703687084529996" lon="9.239415260684764"><ele>596.0</ele><time>2026-04-11T08:11:50Z</time></trkpt><trkpt lat="39.703749096832624" lon="9.239237173495997"><ele>602.0</ele><time>2026-04-11T08:11:51Z</time></trkpt><trkpt lat="39.70380653341112" lon="9.239048989905006"><ele>600.3333333333333</ele><time>2026-04-11T08:11:52Z</time></trkpt><trkpt lat="39.70385573926991" lon="9.23885260128082"><ele>598.6666666666666</ele><time>2026-04-11T08:11:53Z</time></trkpt><trkpt lat="39.70389839354475" lon="9.238647484643007"><ele>597.0</ele><time>2026-04-11T08:11:54Z</time></trkpt><trkpt lat="39.70393834287552" lon="9.2384346289665"><ele>597.0</ele><time>2026-04-11T08:11:55Z</time></trkpt><trkpt lat="39.70397099917162" lon="9.238216621254246"><ele>597.0</ele><time>2026-04-11T08:11:56Z</time></trkpt><trkpt lat="39.70399015307819" lon="9.237990287621832"><ele>597.0</ele><time>2026-04-11T08:11:57Z</time></trkpt><trkpt lat="39.704000539498246" lon="9.23776022454319"><ele>595.0</ele><time>2026-04-11T08:11:58Z</time></trkpt><trkpt lat="39.70400958220419" lon="9.237527187826805"><ele>593.0</ele><time>2026-04-11T08:11:59Z</time></trkpt><trkpt lat="39.70402397247945" lon="9.237296633695234"><ele>591.0</ele><time>2026-04-11T08:12:00Z</time></trkpt><trkpt lat="39.70405146029073" lon="9.23706782656962"><ele>588.3333333333334</ele><time>2026-04-11T08:12:01Z</time></trkpt><trkpt lat="39.7041164988428" lon="9.23685429826878"><ele>585.6666666666667</ele><time>2026-04-11T08:12:02Z</time></trkpt><trkpt lat="39.70418141203959" lon="9.236642956549757"><ele>583.0</ele><time>2026-04-11T08:12:03Z</time></trkpt><trkpt lat="39.70425702858593" lon="9.236436164353202"><ele>579.6666666666667</ele><time>2026-04-11T08:12:04Z</time></trkpt><trkpt lat="39.70433968920899" lon="9.236247326742001"><ele>576.3333333333334</ele><time>2026-04-11T08:12:05Z</time></trkpt><trkpt lat="39.7044370667709" lon="9.236072759281567"><ele>573.0</ele><time>2026-04-11T08:12:06Z</time></trkpt><trkpt lat="39.70454145731776" lon="9.235906046809697"><ele>576.6666666666666</ele><time>2026-04-11T08:12:07Z</time></trkpt><trkpt lat="39.70465274804076" lon="9.235746855206388"><ele>580.3333333333333</ele><time>2026-04-11T08:12:08Z</time></trkpt><trkpt lat="39.70477911133434" lon="9.235600903637282"><ele>584.0</ele><time>2026-04-11T08:12:09Z</time></trkpt><trkpt lat="39.70491071082132" lon="9.235471207600334"><ele>584.0</ele><time>2026-04-11T08:12:10Z</time></trkpt><trkpt lat="39.70504949406853" lon="9.235352440063071"><ele>584.0</ele><time>2026-04-11T08:12:11Z</time></trkpt><trkpt lat="39.705191777491954" lon="9.235242513205094"><ele>584.0</ele><time>2026-04-11T08:12:12Z</time></trkpt><trkpt lat="39.70533376419119" lon="9.235148937692907"><ele>590.0</ele><time>2026-04-11T08:12:13Z</time></trkpt><trkpt lat="39.70548555215639" lon="9.235067350569194"><ele>596.0</ele><time>2026-04-11T08:12:14Z</time></trkpt><trkpt lat="39.70563802477483" lon="9.235014308143933"><ele>602.0</ele><time>2026-04-11T08:12:15Z</time></trkpt><trkpt lat="39.70579966243881" lon="9.234975983727114"><ele>602.0</ele><time>2026-04-11T08:12:16Z</time></trkpt><trkpt lat="39.70595858173939" lon="9.234944968516077"><ele>602.0</ele><time>2026-04-11T08:12:17Z</time></trkpt><trkpt lat="39.70611614843135" lon="9.234910939451956"><ele>602.0</ele><time>2026-04-11T08:12:18Z</time></trkpt><trkpt lat="39.70628081662636" lon="9.234871120932592"><ele>605.6666666666666</ele><time>2026-04-11T08:12:19Z</time></trkpt><trkpt lat="39.70644290191317" lon="9.23483691521326"><ele>609.3333333333334</ele><time>2026-04-11T08:12:20Z</time></trkpt><trkpt lat="39.70660689865731" lon="9.234794827752186"><ele>613.0</ele><time>2026-04-11T08:12:21Z</time></trkpt><trkpt lat="39.706764669311994" lon="9.234751700635952"><ele>609.3333333333334</ele><time>2026-04-11T08:12:22Z</time></trkpt><trkpt lat="39.706926189159894" lon="9.234707272616857"><ele>605.6666666666666</ele><time>2026-04-11T08:12:23Z</time></trkpt><trkpt lat="39.707084582032785" lon="9.234676867413697"><ele>602.0</ele><time>2026-04-11T08:12:24Z</time></trkpt><trkpt lat="39.70724190856885" lon="9.234635096180167"><ele>602.0</ele><time>2026-04-11T08:12:25Z</time></trkpt><trkpt lat="39.70738137391866" lon="9.234597956323272"><ele>602.0</ele><time>2026-04-11T08:12:26Z</time></trkpt><trkpt lat="39.707506205620604" lon="9.234569646172899"><ele>602.0</ele><time>2026-04-11T08:12:27Z</time></trkpt><trkpt lat="39.70761745074529" lon="9.234542994523416"><ele>602.0</ele><time>2026-04-11T08:12:28Z</time></trkpt><trkpt lat="39.70771880051078" lon="9.23452546337273"><ele>604.75</ele><time>2026-04-11T08:12:29Z</time></trkpt><trkpt lat="39.7078176218881" lon="9.234520254494399"><ele>607.5</ele><time>2026-04-11T08:12:30Z</time></trkpt><trkpt lat="39.70793170808053" lon="9.234532274427094"><ele>610.25</ele><time>2026-04-11T08:12:31Z</time></trkpt><trkpt lat="39.708052086667884" lon="9.234530195661232"><ele>613.0</ele><time>2026-04-11T08:12:32Z</time></trkpt><trkpt lat="39.70818264100838" lon="9.234525936840042"><ele>613.0</ele><time>2026-04-11T08:12:33Z</time></trkpt><trkpt lat="39.70831297742989" lon="9.234520740568128"><ele>613.0</ele><time>2026-04-11T08:12:34Z</time></trkpt><trkpt lat="39.708442481599015" lon="9.234519228627223"><ele>613.0</ele><time>2026-04-11T08:12:35Z</time></trkpt><trkpt lat="39.70857109035007" lon="9.234512001225402"><ele>613.0</ele><time>2026-04-11T08:12:36Z</time></trkpt><trkpt lat="39.70869659504758" lon="9.234499538077328"><ele>614.25</ele><time>2026-04-11T08:12:37Z</time></trkpt><trkpt lat="39.7088177989525" lon="9.234487267802814"><ele>615.5</ele><time>2026-04-11T08:12:38Z</time></trkpt><trkpt lat="39.70893770351183" lon="9.234472482051503"><ele>616.75</ele><time>2026-04-11T08:12:39Z</time></trkpt><trkpt lat="39.709056122809166" lon="9.234457017012883"><ele>618.0</ele><time>2026-04-11T08:12:40Z</time></trkpt><trkpt lat="39.7091761956668" lon="9.234439830026107"><ele>618.0</ele><time>2026-04-11T08:12:41Z</time></trkpt><trkpt lat="39.709298102715536" lon="9.234422416086124"><ele>618.0</ele><time>2026-04-11T08:12:42Z</time></trkpt><trkpt lat="39.70942119892502" lon="9.234407077868292"><ele>618.0</ele><time>2026-04-11T08:12:43Z</time></trkpt><trkpt lat="39.70954405418532" lon="9.234391714663298"><ele>618.0</ele><time>2026-04-11T08:12:44Z</time></trkpt><trkpt lat="39.709667480376275" lon="9.23437765540619"><ele>617.6</ele><time>2026-04-11T08:12:45Z</time></trkpt><trkpt lat="39.709788184174975" lon="9.23436149450467"><ele>617.1999999999999</ele><time>2026-04-11T08:12:46Z</time></trkpt><trkpt lat="39.709900996718744" lon="9.234343037555565"><ele>616.8</ele><time>2026-04-11T08:12:47Z</time></trkpt><trkpt lat="39.71000245354835" lon="9.234323400778623"><ele>616.4</ele><time>2026-04-11T08:12:48Z</time></trkpt><trkpt lat="39.71010274596058" lon="9.234323271853297"><ele>616.0</ele><time>2026-04-11T08:12:49Z</time></trkpt><trkpt lat="39.71020848159251" lon="9.234280842831197"><ele>615.0</ele><time>2026-04-11T08:12:50Z</time></trkpt><trkpt lat="39.71032156317031" lon="9.23425981005221"><ele>614.0</ele><time>2026-04-11T08:12:51Z</time></trkpt><trkpt lat="39.71043930441704" lon="9.234236361316924"><ele>613.0</ele><time>2026-04-11T08:12:52Z</time></trkpt><trkpt lat="39.71056217952499" lon="9.234209707077513"><ele>612.0</ele><time>2026-04-11T08:12:53Z</time></trkpt><trkpt lat="39.7106870044349" lon="9.234181975298108"><ele>612.0</ele><time>2026-04-11T08:12:54Z</time></trkpt><trkpt lat="39.710812908599685" lon="9.234157166282422"><ele>612.0</ele><time>2026-04-11T08:12:55Z</time></trkpt><trkpt lat="39.710938593931566" lon="9.234132483886759"><ele>612.0</ele><time>2026-04-11T08:12:56Z</time></trkpt><trkpt lat="39.71106499612684" lon="9.234103172013594"><ele>612.0</ele><time>2026-04-11T08:12:57Z</time></trkpt><trkpt lat="39.71119088922507" lon="9.234069876461849"><ele>611.75</ele><time>2026-04-11T08:12:58Z</time></trkpt><trkpt lat="39.71131848257677" lon="9.234037427903834"><ele>611.5</ele><time>2026-04-11T08:12:59Z</time></trkpt><trkpt lat="39.7114463040095" lon="9.234009170042048"><ele>611.25</ele><time>2026-04-11T08:13:00Z</time></trkpt><trkpt lat="39.71157475509791" lon="9.233984144092357"><ele>611.0</ele><time>2026-04-11T08:13:01Z</time></trkpt><trkpt lat="39.71170295278044" lon="9.233955034695372"><ele>610.0</ele><time>2026-04-11T08:13:02Z</time></trkpt><trkpt lat="39.71183054415008" lon="9.233923817895201"><ele>609.0</ele><time>2026-04-11T08:13:03Z</time></trkpt><trkpt lat="39.71195990504867" lon="9.233894165728891"><ele>608.0</ele><time>2026-04-11T08:13:04Z</time></trkpt><trkpt lat="39.71208358981808" lon="9.233867141682804"><ele>607.0</ele><time>2026-04-11T08:13:05Z</time></trkpt><trkpt lat="39.712203324598455" lon="9.233845721744519"><ele>606.5</ele><time>2026-04-11T08:13:06Z</time></trkpt><trkpt lat="39.7123136493167" lon="9.233823789307117"><ele>606.0</ele><time>2026-04-11T08:13:07Z</time></trkpt><trkpt lat="39.7124345436603" lon="9.233797537239093"><ele>605.5</ele><time>2026-04-11T08:13:08Z</time></trkpt><trkpt lat="39.71255972483283" lon="9.233766620708826"><ele>605.0</ele><time>2026-04-11T08:13:09Z</time></trkpt><trkpt lat="39.71269180466201" lon="9.233734849629373"><ele>604.5</ele><time>2026-04-11T08:13:10Z</time></trkpt><trkpt lat="39.71282720197542" lon="9.233704140516783"><ele>604.0</ele><time>2026-04-11T08:13:11Z</time></trkpt><trkpt lat="39.712965864780884" lon="9.233675031334506"><ele>603.5</ele><time>2026-04-11T08:13:12Z</time></trkpt><trkpt lat="39.71310443075502" lon="9.23364339245932"><ele>603.0</ele><time>2026-04-11T08:13:13Z</time></trkpt><trkpt lat="39.71324415840507" lon="9.233615269279918"><ele>603.0</ele><time>2026-04-11T08:13:14Z</time></trkpt><trkpt lat="39.71337755373168" lon="9.233579144364425"><ele>603.0</ele><time>2026-04-11T08:13:15Z</time></trkpt><trkpt lat="39.713512501245226" lon="9.233549917946442"><ele>603.0</ele><time>2026-04-11T08:13:16Z</time></trkpt><trkpt lat="39.71364475707709" lon="9.233522063227142"><ele>603.0</ele><time>2026-04-11T08:13:17Z</time></trkpt><trkpt lat="39.71377501820162" lon="9.233493785564553"><ele>602.25</ele><time>2026-04-11T08:13:18Z</time></trkpt><trkpt lat="39.71390384529276" lon="9.233464773273615"><ele>601.5</ele><time>2026-04-11T08:13:19Z</time></trkpt><trkpt lat="39.71403048608428" lon="9.233433560903062"><ele>600.75</ele><time>2026-04-11T08:13:20Z</time></trkpt><trkpt lat="39.714156163750026" lon="9.233412559400074"><ele>600.0</ele><time>2026-04-11T08:13:21Z</time></trkpt><trkpt lat="39.71428079357748" lon="9.233411105774513"><ele>600.0</ele><time>2026-04-11T08:13:22Z</time></trkpt><trkpt lat="39.71439581609813" lon="9.23343134982231"><ele>600.0</ele><time>2026-04-11T08:13:23Z</time></trkpt><trkpt lat="39.71451075240886" lon="9.233472708861699"><ele>600.0</ele><time>2026-04-11T08:13:24Z</time></trkpt><trkpt lat="39.71462867690088" lon="9.233524583479545"><ele>600.0</ele><time>2026-04-11T08:13:25Z</time></trkpt><trkpt lat="39.714749390974376" lon="9.233576792106918"><ele>599.75</ele><time>2026-04-11T08:13:26Z</time></trkpt><trkpt lat="39.71487205255919" lon="9.233625642491932"><ele>599.5</ele><time>2026-04-11T08:13:27Z</time></trkpt><trkpt lat="39.7149960575619" lon="9.233674337503654"><ele>599.25</ele><time>2026-04-11T08:13:28Z</time></trkpt><trkpt lat="39.715117923618585" lon="9.233731931293075"><ele>599.0</ele><time>2026-04-11T08:13:29Z</time></trkpt><trkpt lat="39.71523686308656" lon="9.233803045047683"><ele>598.5</ele><time>2026-04-11T08:13:30Z</time></trkpt><trkpt lat="39.71535858750125" lon="9.233868412277909"><ele>598.0</ele><time>2026-04-11T08:13:31Z</time></trkpt><trkpt lat="39.715489890923244" lon="9.233910543017958"><ele>597.5</ele><time>2026-04-11T08:13:32Z</time></trkpt><trkpt lat="39.71562089335604" lon="9.233917287741837"><ele>597.0</ele><time>2026-04-11T08:13:33Z</time></trkpt><trkpt lat="39.71574711366324" lon="9.23388006803864"><ele>597.0</ele><time>2026-04-11T08:13:34Z</time></trkpt><trkpt lat="39.71586964066156" lon="9.233815170584485"><ele>597.0</ele><time>2026-04-11T08:13:35Z</time></trkpt><trkpt lat="39.715993707275565" lon="9.233761989841309"><ele>597.0</ele><time>2026-04-11T08:13:36Z</time></trkpt><trkpt lat="39.716125090483615" lon="9.233731909006332"><ele>597.0</ele><time>2026-04-11T08:13:37Z</time></trkpt><trkpt lat="39.716261906630514" lon="9.233717481612"><ele>595.25</ele><time>2026-04-11T08:13:38Z</time></trkpt><trkpt lat="39.716402893224576" lon="9.23370683221982"><ele>593.5</ele><time>2026-04-11T08:13:39Z</time></trkpt><trkpt lat="39.71654498433173" lon="9.233685226440214"><ele>591.75</ele><time>2026-04-11T08:13:40Z</time></trkpt><trkpt lat="39.71668611040221" lon="9.233639748477634"><ele>590.0</ele><time>2026-04-11T08:13:41Z</time></trkpt><trkpt lat="39.71682482472298" lon="9.233570101291226"><ele>586.6666666666666</ele><time>2026-04-11T08:13:42Z</time></trkpt><trkpt lat="39.71696278134762" lon="9.233479440878755"><ele>583.3333333333334</ele><time>2026-04-11T08:13:43Z</time></trkpt><trkpt lat="39.71710244040232" lon="9.2333938221076"><ele>580.0</ele><time>2026-04-11T08:13:44Z</time></trkpt><trkpt lat="39.717244564614305" lon="9.233312088000025"><ele>580.0</ele><time>2026-04-11T08:13:45Z</time></trkpt><trkpt lat="39.71738290683392" lon="9.233226075302726"><ele>580.0</ele><time>2026-04-11T08:13:46Z</time></trkpt><trkpt lat="39.71752475131785" lon="9.233138890492393"><ele>580.0</ele><time>2026-04-11T08:13:47Z</time></trkpt><trkpt lat="39.71767171960672" lon="9.233055148444498"><ele>576.0</ele><time>2026-04-11T08:13:48Z</time></trkpt><trkpt lat="39.717819367174684" lon="9.232960848571508"><ele>572.0</ele><time>2026-04-11T08:13:49Z</time></trkpt><trkpt lat="39.71795761892131" lon="9.23284918403999"><ele>568.0</ele><time>2026-04-11T08:13:50Z</time></trkpt><trkpt lat="39.71808855831351" lon="9.232716245203708"><ele>568.0</ele><time>2026-04-11T08:13:51Z</time></trkpt><trkpt lat="39.71821473390172" lon="9.232585507279259"><ele>568.0</ele><time>2026-04-11T08:13:52Z</time></trkpt><trkpt lat="39.71833858872378" lon="9.232447858946882"><ele>568.0</ele><time>2026-04-11T08:13:53Z</time></trkpt><trkpt lat="39.71845435300965" lon="9.23230780442684"><ele>568.3333333333334</ele><time>2026-04-11T08:13:54Z</time></trkpt><trkpt lat="39.718560978790386" lon="9.232163622448715"><ele>568.6666666666666</ele><time>2026-04-11T08:13:55Z</time></trkpt><trkpt lat="39.71865847466496" lon="9.232015944283065"><ele>569.0</ele><time>2026-04-11T08:13:56Z</time></trkpt><trkpt lat="39.71875309121394" lon="9.23186765787659"><ele>567.0</ele><time>2026-04-11T08:13:57Z</time></trkpt><trkpt lat="39.71884475240395" lon="9.231722066581307"><ele>565.0</ele><time>2026-04-11T08:13:58Z</time></trkpt><trkpt lat="39.71893499910552" lon="9.231576183937536"><ele>563.0</ele><time>2026-04-11T08:13:59Z</time></trkpt><trkpt lat="39.71903124929683" lon="9.231424454278894"><ele>561.0</ele><time>2026-04-11T08:14:00Z</time></trkpt><trkpt lat="39.719147126871135" lon="9.231284517171012"><ele>560.6666666666666</ele><time>2026-04-11T08:14:01Z</time></trkpt><trkpt lat="39.71925020658915" lon="9.231130156548453"><ele>560.3333333333333</ele><time>2026-04-11T08:14:02Z</time></trkpt><trkpt lat="39.71934912382536" lon="9.230980978444329"><ele>560.0</ele><time>2026-04-11T08:14:03Z</time></trkpt><trkpt lat="39.71944695985933" lon="9.230832163119896"><ele>559.6666666666666</ele><time>2026-04-11T08:14:04Z</time></trkpt><trkpt lat="39.71954627461984" lon="9.230681098569866"><ele>559.3333333333334</ele><time>2026-04-11T08:14:05Z</time></trkpt><trkpt lat="39.71964720412995" lon="9.23052757861035"><ele>559.0</ele><time>2026-04-11T08:14:06Z</time></trkpt><trkpt lat="39.719742974115135" lon="9.230378943850976"><ele>559.0</ele><time>2026-04-11T08:14:07Z</time></trkpt><trkpt lat="39.719838562057575" lon="9.230231317232462"><ele>559.0</ele><time>2026-04-11T08:14:08Z</time></trkpt><trkpt lat="39.71993525718719" lon="9.230080689989489"><ele>559.0</ele><time>2026-04-11T08:14:09Z</time></trkpt><trkpt lat="39.72002988623332" lon="9.229933287065021"><ele>559.0</ele><time>2026-04-11T08:14:10Z</time></trkpt><trkpt lat="39.720120582746546" lon="9.229776378284315"><ele>558.6666666666667</ele><time>2026-04-11T08:14:11Z</time></trkpt><trkpt lat="39.720221547150615" lon="9.229628558108063"><ele>558.3333333333334</ele><time>2026-04-11T08:14:12Z</time></trkpt><trkpt lat="39.720322551022335" lon="9.229473621635426"><ele>558.0</ele><time>2026-04-11T08:14:13Z</time></trkpt><trkpt lat="39.72042431505187" lon="9.229317265690023"><ele>558.0</ele><time>2026-04-11T08:14:14Z</time></trkpt><trkpt lat="39.720531156446256" lon="9.229158785769918"><ele>558.0</ele><time>2026-04-11T08:14:15Z</time></trkpt><trkpt lat="39.720637378621454" lon="9.228996879176016"><ele>558.0</ele><time>2026-04-11T08:14:16Z</time></trkpt><trkpt lat="39.7207385889538" lon="9.228841603807641"><ele>556.6666666666666</ele><time>2026-04-11T08:14:17Z</time></trkpt><trkpt lat="39.720844128465885" lon="9.228678930234624"><ele>555.3333333333333</ele><time>2026-04-11T08:14:18Z</time></trkpt><trkpt lat="39.720954791335714" lon="9.228515336036493"><ele>554.0</ele><time>2026-04-11T08:14:19Z</time></trkpt><trkpt lat="39.721061953876905" lon="9.228354447218896"><ele>554.3333333333333</ele><time>2026-04-11T08:14:20Z</time></trkpt><trkpt lat="39.72117329293701" lon="9.2281855159136"><ele>554.6666666666666</ele><time>2026-04-11T08:14:21Z</time></trkpt><trkpt lat="39.72128323515877" lon="9.228016563553393"><ele>555.0</ele><time>2026-04-11T08:14:22Z</time></trkpt><trkpt lat="39.72139310896087" lon="9.227846247769726"><ele>554.0</ele><time>2026-04-11T08:14:23Z</time></trkpt><trkpt lat="39.721507152216326" lon="9.227673868467196"><ele>553.0</ele><time>2026-04-11T08:14:24Z</time></trkpt><trkpt lat="39.72162042918705" lon="9.227504588416032"><ele>552.0</ele><time>2026-04-11T08:14:25Z</time></trkpt><trkpt lat="39.72173485395854" lon="9.227334121946642"><ele>552.3333333333334</ele><time>2026-04-11T08:14:26Z</time></trkpt><trkpt lat="39.721848934953684" lon="9.227164325916156"><ele>552.6666666666667</ele><time>2026-04-11T08:14:27Z</time></trkpt><trkpt lat="39.72196288923023" lon="9.226995246502659"><ele>553.0</ele><time>2026-04-11T08:14:28Z</time></trkpt><trkpt lat="39.72207578128085" lon="9.226825643244487"><ele>553.0</ele><time>2026-04-11T08:14:29Z</time></trkpt><trkpt lat="39.722187565540054" lon="9.226656083797659"><ele>553.0</ele><time>2026-04-11T08:14:30Z</time></trkpt><trkpt lat="39.722298344842415" lon="9.22648743435021"><ele>553.0</ele><time>2026-04-11T08:14:31Z</time></trkpt><trkpt lat="39.72240804739935" lon="9.226317784113466"><ele>553.0</ele><time>2026-04-11T08:14:32Z</time></trkpt><trkpt lat="39.72251797610192" lon="9.226146866576945"><ele>553.0</ele><time>2026-04-11T08:14:33Z</time></trkpt><trkpt lat="39.722629024628816" lon="9.22597862045851"><ele>553.0</ele><time>2026-04-11T08:14:34Z</time></trkpt><trkpt lat="39.722740002701194" lon="9.225811252874458"><ele>552.0</ele><time>2026-04-11T08:14:35Z</time></trkpt><trkpt lat="39.72285044848936" lon="9.22564277228448"><ele>551.0</ele><time>2026-04-11T08:14:36Z</time></trkpt><trkpt lat="39.7229611678023" lon="9.225474002023857"><ele>550.0</ele><time>2026-04-11T08:14:37Z</time></trkpt><trkpt lat="39.723074480123806" lon="9.225305053799822"><ele>550.0</ele><time>2026-04-11T08:14:38Z</time></trkpt><trkpt lat="39.723188921499876" lon="9.225137416481687"><ele>550.0</ele><time>2026-04-11T08:14:39Z</time></trkpt><trkpt lat="39.723302736912466" lon="9.22497052961633"><ele>550.0</ele><time>2026-04-11T08:14:40Z</time></trkpt><trkpt lat="39.72341657614577" lon="9.224803462474439"><ele>549.3333333333334</ele><time>2026-04-11T08:14:41Z</time></trkpt><trkpt lat="39.723527038887795" lon="9.224636500372197"><ele>548.6666666666666</ele><time>2026-04-11T08:14:42Z</time></trkpt><trkpt lat="39.72363352759443" lon="9.224473032876435"><ele>548.0</ele><time>2026-04-11T08:14:43Z</time></trkpt><trkpt lat="39.72373813320795" lon="9.22431833311571"><ele>549.0</ele><time>2026-04-11T08:14:44Z</time></trkpt><trkpt lat="39.723836678085966" lon="9.2241707223375"><ele>550.0</ele><time>2026-04-11T08:14:45Z</time></trkpt><trkpt lat="39.723931664267376" lon="9.224026771529514"><ele>551.0</ele><time>2026-04-11T08:14:46Z</time></trkpt><trkpt lat="39.724051085049894" lon="9.223887818627453"><ele>551.0</ele><time>2026-04-11T08:14:47Z</time></trkpt><trkpt lat="39.724143048730646" lon="9.223763893839486"><ele>551.0</ele><time>2026-04-11T08:14:48Z</time></trkpt><trkpt lat="39.724218213526584" lon="9.223640540751955"><ele>551.0</ele><time>2026-04-11T08:14:49Z</time></trkpt><trkpt lat="39.72430087712641" lon="9.223516695356011"><ele>551.0</ele><time>2026-04-11T08:14:50Z</time></trkpt><trkpt lat="39.724384960697336" lon="9.223379640048622"><ele>551.6666666666666</ele><time>2026-04-11T08:14:51Z</time></trkpt><trkpt lat="39.724457690976045" lon="9.223220715509681"><ele>552.3333333333334</ele><time>2026-04-11T08:14:52Z</time></trkpt><trkpt lat="39.7245371667458" lon="9.22305341738963"><ele>553.0</ele><time>2026-04-11T08:14:53Z</time></trkpt><trkpt lat="39.72461971687392" lon="9.222876856673826"><ele>553.0</ele><time>2026-04-11T08:14:54Z</time></trkpt><trkpt lat="39.72470144431569" lon="9.222692926720956"><ele>553.0</ele><time>2026-04-11T08:14:55Z</time></trkpt><trkpt lat="39.724781695869666" lon="9.2225093676003"><ele>553.0</ele><time>2026-04-11T08:14:56Z</time></trkpt><trkpt lat="39.724863102763" lon="9.222319632013999"><ele>552.6666666666667</ele><time>2026-04-11T08:14:57Z</time></trkpt><trkpt lat="39.72495108911514" lon="9.222131295479091"><ele>552.3333333333334</ele><time>2026-04-11T08:14:58Z</time></trkpt><trkpt lat="39.725041229283796" lon="9.221942348890108"><ele>552.0</ele><time>2026-04-11T08:14:59Z</time></trkpt><trkpt lat="39.72513126211052" lon="9.221747185149532"><ele>552.0</ele><time>2026-04-11T08:15:00Z</time></trkpt><trkpt lat="39.72522304953582" lon="9.221545605500877"><ele>552.0</ele><time>2026-04-11T08:15:01Z</time></trkpt><trkpt lat="39.72531642988419" lon="9.221341246620694"><ele>552.0</ele><time>2026-04-11T08:15:02Z</time></trkpt><trkpt lat="39.72541432556615" lon="9.22113889482564"><ele>552.3333333333334</ele><time>2026-04-11T08:15:03Z</time></trkpt><trkpt lat="39.725513819225014" lon="9.2209360343187"><ele>552.6666666666667</ele><time>2026-04-11T08:15:04Z</time></trkpt><trkpt lat="39.72561273250078" lon="9.22072928260694"><ele>553.0</ele><time>2026-04-11T08:15:05Z</time></trkpt><trkpt lat="39.72571126651647" lon="9.220515960822448"><ele>553.0</ele><time>2026-04-11T08:15:06Z</time></trkpt><trkpt lat="39.72581260976983" lon="9.22030486368332"><ele>553.0</ele><time>2026-04-11T08:15:07Z</time></trkpt><trkpt lat="39.72591618234113" lon="9.220093203396805"><ele>553.0</ele><time>2026-04-11T08:15:08Z</time></trkpt><trkpt lat="39.72601506536092" lon="9.21987409188495"><ele>554.0</ele><time>2026-04-11T08:15:09Z</time></trkpt><trkpt lat="39.72611543835022" lon="9.219659472457094"><ele>555.0</ele><time>2026-04-11T08:15:10Z</time></trkpt><trkpt lat="39.726219770513154" lon="9.219440725350573"><ele>556.0</ele><time>2026-04-11T08:15:11Z</time></trkpt><trkpt lat="39.7263261455116" lon="9.219218884930575"><ele>556.0</ele><time>2026-04-11T08:15:12Z</time></trkpt><trkpt lat="39.72643027108307" lon="9.218998910949113"><ele>556.0</ele><time>2026-04-11T08:15:13Z</time></trkpt><trkpt lat="39.7265323580397" lon="9.218774772935085"><ele>556.0</ele><time>2026-04-11T08:15:14Z</time></trkpt><trkpt lat="39.7266397116356" lon="9.21854542877023"><ele>555.6666666666667</ele><time>2026-04-11T08:15:15Z</time></trkpt><trkpt lat="39.72674629010258" lon="9.21831791666908"><ele>555.3333333333334</ele><time>2026-04-11T08:15:16Z</time></trkpt><trkpt lat="39.72685056407522" lon="9.218092958231436"><ele>555.0</ele><time>2026-04-11T08:15:17Z</time></trkpt><trkpt lat="39.72695976041781" lon="9.217866870632847"><ele>555.6666666666666</ele><time>2026-04-11T08:15:18Z</time></trkpt><trkpt lat="39.72707014352846" lon="9.21764174184381"><ele>556.3333333333333</ele><time>2026-04-11T08:15:19Z</time></trkpt><trkpt lat="39.72717243781407" lon="9.217416700459712"><ele>557.0</ele><time>2026-04-11T08:15:20Z</time></trkpt><trkpt lat="39.72728762871024" lon="9.217209404370218"><ele>557.0</ele><time>2026-04-11T08:15:21Z</time></trkpt><trkpt lat="39.727380568060816" lon="9.216988096033054"><ele>557.0</ele><time>2026-04-11T08:15:22Z</time></trkpt><trkpt lat="39.72748244189262" lon="9.216796281363083"><ele>557.0</ele><time>2026-04-11T08:15:23Z</time></trkpt><trkpt lat="39.72756227537238" lon="9.216593006538218"><ele>556.6666666666666</ele><time>2026-04-11T08:15:24Z</time></trkpt><trkpt lat="39.727664369672226" lon="9.216412274949084"><ele>556.3333333333334</ele><time>2026-04-11T08:15:25Z</time></trkpt><trkpt lat="39.72774265486097" lon="9.216219114827325"><ele>556.0</ele><time>2026-04-11T08:15:26Z</time></trkpt><trkpt lat="39.727835762603405" lon="9.216029204979087"><ele>556.3333333333334</ele><time>2026-04-11T08:15:27Z</time></trkpt><trkpt lat="39.727928581481315" lon="9.215841053627006"><ele>556.6666666666666</ele><time>2026-04-11T08:15:28Z</time></trkpt><trkpt lat="39.72801229804284" lon="9.215648528416157"><ele>557.0</ele><time>2026-04-11T08:15:29Z</time></trkpt><trkpt lat="39.72809670336632" lon="9.21545966050238"><ele>557.0</ele><time>2026-04-11T08:15:30Z</time></trkpt><trkpt lat="39.728186302494436" lon="9.215283850864342"><ele>557.0</ele><time>2026-04-11T08:15:31Z</time></trkpt><trkpt lat="39.728260992635974" lon="9.21511447569698"><ele>557.0</ele><time>2026-04-11T08:15:32Z</time></trkpt><trkpt lat="39.72833696888899" lon="9.214935400625569"><ele>556.6666666666666</ele><time>2026-04-11T08:15:33Z</time></trkpt><trkpt lat="39.728414678924956" lon="9.214756054603901"><ele>556.3333333333334</ele><time>2026-04-11T08:15:34Z</time></trkpt><trkpt lat="39.72848572342806" lon="9.214574194700557"><ele>556.0</ele><time>2026-04-11T08:15:35Z</time></trkpt><trkpt lat="39.72855264974549" lon="9.21439193667759"><ele>557.3333333333334</ele><time>2026-04-11T08:15:36Z</time></trkpt><trkpt lat="39.72862043607864" lon="9.214207599595197"><ele>558.6666666666666</ele><time>2026-04-11T08:15:37Z</time></trkpt><trkpt lat="39.728690051661914" lon="9.214021651990901"><ele>560.0</ele><time>2026-04-11T08:15:38Z</time></trkpt><trkpt lat="39.72876037061428" lon="9.213837010479102"><ele>560.0</ele><time>2026-04-11T08:15:39Z</time></trkpt><trkpt lat="39.728825602831186" lon="9.213643398141713"><ele>560.0</ele><time>2026-04-11T08:15:40Z</time></trkpt><trkpt lat="39.72888308857212" lon="9.213430424165072"><ele>560.0</ele><time>2026-04-11T08:15:41Z</time></trkpt><trkpt lat="39.728940590974034" lon="9.213227546487607"><ele>559.6666666666666</ele><time>2026-04-11T08:15:42Z</time></trkpt><trkpt lat="39.728995666102804" lon="9.213020791243634"><ele>559.3333333333334</ele><time>2026-04-11T08:15:43Z</time></trkpt><trkpt lat="39.72904878722819" lon="9.212811625938818"><ele>559.0</ele><time>2026-04-11T08:15:44Z</time></trkpt><trkpt lat="39.729098052816916" lon="9.212612596481984"><ele>559.0</ele><time>2026-04-11T08:15:45Z</time></trkpt><trkpt lat="39.729146520628724" lon="9.212422697759083"><ele>559.0</ele><time>2026-04-11T08:15:46Z</time></trkpt><trkpt lat="39.729196097853354" lon="9.212236766366608"><ele>559.0</ele><time>2026-04-11T08:15:47Z</time></trkpt><trkpt lat="39.72924068944495" lon="9.212053128120996"><ele>559.5</ele><time>2026-04-11T08:15:48Z</time></trkpt><trkpt lat="39.729286324646274" lon="9.211871047297347"><ele>560.0</ele><time>2026-04-11T08:15:49Z</time></trkpt><trkpt lat="39.729327296726616" lon="9.211694385363444"><ele>560.5</ele><time>2026-04-11T08:15:50Z</time></trkpt><trkpt lat="39.729368934250864" lon="9.211529863160164"><ele>561.0</ele><time>2026-04-11T08:15:51Z</time></trkpt><trkpt lat="39.729412097205724" lon="9.211373080094125"><ele>561.6</ele><time>2026-04-11T08:15:52Z</time></trkpt><trkpt lat="39.72944093226986" lon="9.211233801512344"><ele>562.2</ele><time>2026-04-11T08:15:53Z</time></trkpt><trkpt lat="39.729474268226106" lon="9.2111041864404"><ele>562.8</ele><time>2026-04-11T08:15:54Z</time></trkpt><trkpt lat="39.72950369544776" lon="9.21098426793707"><ele>563.4</ele><time>2026-04-11T08:15:55Z</time></trkpt><trkpt lat="39.72953095925998" lon="9.210878630133106"><ele>564.0</ele><time>2026-04-11T08:15:56Z</time></trkpt><trkpt lat="39.72955709112668" lon="9.2107789536495"><ele>564.0</ele><time>2026-04-11T08:15:57Z</time></trkpt><trkpt lat="39.729581577498514" lon="9.210687138486874"><ele>564.0</ele><time>2026-04-11T08:15:58Z</time></trkpt><trkpt lat="39.729600929891895" lon="9.210603483434843"><ele>564.0</ele><time>2026-04-11T08:15:59Z</time></trkpt><trkpt lat="39.729634524849814" lon="9.21045276024424"><ele>564.0</ele><time>2026-04-11T08:16:01Z</time></trkpt><trkpt lat="39.72966649435002" lon="9.210317112342779"><ele>564.0</ele><time>2026-04-11T08:16:03Z</time></trkpt><trkpt lat="39.72971748379295" lon="9.210197557249112"><ele>564.4</ele><time>2026-04-11T08:16:05Z</time></trkpt><trkpt lat="39.729769255928765" lon="9.2101247189474"><ele>564.8</ele><time>2026-04-11T08:16:07Z</time></trkpt><trkpt lat="39.729872206751736" lon="9.210152080415618"><ele>565.2</ele><time>2026-04-11T08:16:08Z</time></trkpt><trkpt lat="39.72995828453955" lon="9.210190488236789"><ele>565.6</ele><time>2026-04-11T08:16:09Z</time></trkpt><trkpt lat="39.73006251570367" lon="9.210231205369503"><ele>566.0</ele><time>2026-04-11T08:16:10Z</time></trkpt><trkpt lat="39.7301790328547" lon="9.210275186835073"><ele>566.25</ele><time>2026-04-11T08:16:11Z</time></trkpt><trkpt lat="39.73030153818137" lon="9.210325473846414"><ele>566.5</ele><time>2026-04-11T08:16:12Z</time></trkpt><trkpt lat="39.73042466418544" lon="9.210374430264425"><ele>566.75</ele><time>2026-04-11T08:16:13Z</time></trkpt><trkpt lat="39.73055783197026" lon="9.210424255192498"><ele>567.0</ele><time>2026-04-11T08:16:14Z</time></trkpt><trkpt lat="39.730699485887015" lon="9.210476671946783"><ele>567.0</ele><time>2026-04-11T08:16:15Z</time></trkpt><trkpt lat="39.73084879467763" lon="9.21053577206934"><ele>567.0</ele><time>2026-04-11T08:16:16Z</time></trkpt><trkpt lat="39.731000437398585" lon="9.210598246446414"><ele>567.0</ele><time>2026-04-11T08:16:17Z</time></trkpt><trkpt lat="39.7311521649524" lon="9.210659421377107"><ele>566.6666666666666</ele><time>2026-04-11T08:16:18Z</time></trkpt><trkpt lat="39.731306914617406" lon="9.210717839296557"><ele>566.3333333333333</ele><time>2026-04-11T08:16:19Z</time></trkpt><trkpt lat="39.73146506557521" lon="9.210774770745552"><ele>566.0</ele><time>2026-04-11T08:16:20Z</time></trkpt><trkpt lat="39.73162390435312" lon="9.210833244231955"><ele>566.0</ele><time>2026-04-11T08:16:21Z</time></trkpt><trkpt lat="39.73178313204985" lon="9.210896711627568"><ele>566.0</ele><time>2026-04-11T08:16:22Z</time></trkpt><trkpt lat="39.73194016738846" lon="9.210959490055641"><ele>566.0</ele><time>2026-04-11T08:16:23Z</time></trkpt><trkpt lat="39.73209723795983" lon="9.211012958108611"><ele>565.0</ele><time>2026-04-11T08:16:24Z</time></trkpt><trkpt lat="39.73225381465988" lon="9.21105046169605"><ele>564.0</ele><time>2026-04-11T08:16:25Z</time></trkpt><trkpt lat="39.732409634272834" lon="9.21106197336586"><ele>563.0</ele><time>2026-04-11T08:16:26Z</time></trkpt><trkpt lat="39.732564028686625" lon="9.211033731364958"><ele>563.0</ele><time>2026-04-11T08:16:27Z</time></trkpt><trkpt lat="39.732716915710505" lon="9.21096768278443"><ele>563.0</ele><time>2026-04-11T08:16:28Z</time></trkpt><trkpt lat="39.732865885269014" lon="9.210863404746739"><ele>563.0</ele><time>2026-04-11T08:16:29Z</time></trkpt><trkpt lat="39.73300710293535" lon="9.210731397487946"><ele>561.0</ele><time>2026-04-11T08:16:30Z</time></trkpt><trkpt lat="39.73314912533644" lon="9.210590571951741"><ele>559.0</ele><time>2026-04-11T08:16:31Z</time></trkpt><trkpt lat="39.733294816994984" lon="9.210457935207316"><ele>557.0</ele><time>2026-04-11T08:16:32Z</time></trkpt><trkpt lat="39.73345026910717" lon="9.210342978599263"><ele>556.3333333333333</ele><time>2026-04-11T08:16:33Z</time></trkpt><trkpt lat="39.733606695133766" lon="9.21024382713296"><ele>555.6666666666666</ele><time>2026-04-11T08:16:34Z</time></trkpt><trkpt lat="39.73375900890645" lon="9.210155367344848"><ele>555.0</ele><time>2026-04-11T08:16:35Z</time></trkpt><trkpt lat="39.73390803537739" lon="9.210072941545983"><ele>555.0</ele><time>2026-04-11T08:16:36Z</time></trkpt><trkpt lat="39.7340575373457" lon="9.210011667768509"><ele>555.0</ele><time>2026-04-11T08:16:37Z</time></trkpt><trkpt lat="39.73420614183901" lon="9.209981868654129"><ele>555.0</ele><time>2026-04-11T08:16:38Z</time></trkpt><trkpt lat="39.73436518021592" lon="9.209988045439218"><ele>553.0</ele><time>2026-04-11T08:16:39Z</time></trkpt><trkpt lat="39.734520561717105" lon="9.210060023684465"><ele>551.0</ele><time>2026-04-11T08:16:40Z</time></trkpt><trkpt lat="39.73468429114584" lon="9.210100471736958"><ele>549.0</ele><time>2026-04-11T08:16:41Z</time></trkpt><trkpt lat="39.73482648061844" lon="9.210161070379947"><ele>549.0</ele><time>2026-04-11T08:16:42Z</time></trkpt><trkpt lat="39.73495634453309" lon="9.210210724744448"><ele>549.0</ele><time>2026-04-11T08:16:43Z</time></trkpt><trkpt lat="39.73506441670479" lon="9.2102542921508"><ele>549.0</ele><time>2026-04-11T08:16:44Z</time></trkpt><trkpt lat="39.7351487809471" lon="9.210321167358384"><ele>549.0</ele><time>2026-04-11T08:16:45Z</time></trkpt><trkpt lat="39.73518545963656" lon="9.210456788158584"><ele>550.75</ele><time>2026-04-11T08:16:46Z</time></trkpt><trkpt lat="39.73523059761214" lon="9.210603103487493"><ele>552.5</ele><time>2026-04-11T08:16:47Z</time></trkpt><trkpt lat="39.7352394789251" lon="9.210785761985411"><ele>554.25</ele><time>2026-04-11T08:16:48Z</time></trkpt><trkpt lat="39.735211579565494" lon="9.210966067274938"><ele>556.0</ele><time>2026-04-11T08:16:49Z</time></trkpt><trkpt lat="39.735139718688494" lon="9.211134506144537"><ele>556.0</ele><time>2026-04-11T08:16:50Z</time></trkpt><trkpt lat="39.735061342836815" lon="9.21130266362166"><ele>556.0</ele><time>2026-04-11T08:16:51Z</time></trkpt><trkpt lat="39.73498240167934" lon="9.21146606173064"><ele>556.0</ele><time>2026-04-11T08:16:52Z</time></trkpt><trkpt lat="39.73488338237183" lon="9.211597500398245"><ele>556.0</ele><time>2026-04-11T08:16:53Z</time></trkpt><trkpt lat="39.734770160810804" lon="9.2117131687534"><ele>554.0</ele><time>2026-04-11T08:16:54Z</time></trkpt><trkpt lat="39.73466021194226" lon="9.211833413265772"><ele>552.0</ele><time>2026-04-11T08:16:55Z</time></trkpt><trkpt lat="39.734573318862644" lon="9.211971400838392"><ele>550.0</ele><time>2026-04-11T08:16:56Z</time></trkpt><trkpt lat="39.734516817593004" lon="9.212136684591831"><ele>548.0</ele><time>2026-04-11T08:16:57Z</time></trkpt><trkpt lat="39.734504067842934" lon="9.212322984592802"><ele>546.75</ele><time>2026-04-11T08:16:58Z</time></trkpt><trkpt lat="39.73453795145008" lon="9.212508315487398"><ele>545.5</ele><time>2026-04-11T08:16:59Z</time></trkpt><trkpt lat="39.73460628101501" lon="9.212677041640115"><ele>544.25</ele><time>2026-04-11T08:17:00Z</time></trkpt><trkpt lat="39.73471061477515" lon="9.212817097502533"><ele>543.0</ele><time>2026-04-11T08:17:01Z</time></trkpt><trkpt lat="39.73484469458611" lon="9.212931342556686"><ele>543.0</ele><time>2026-04-11T08:17:02Z</time></trkpt><trkpt lat="39.734993053096474" lon="9.213026741628262"><ele>543.0</ele><time>2026-04-11T08:17:03Z</time></trkpt><trkpt lat="39.7351445664028" lon="9.21310470863066"><ele>543.0</ele><time>2026-04-11T08:17:04Z</time></trkpt><trkpt lat="39.73530448011926" lon="9.213157619515648"><ele>544.0</ele><time>2026-04-11T08:17:05Z</time></trkpt><trkpt lat="39.735474130228205" lon="9.213182822920276"><ele>545.0</ele><time>2026-04-11T08:17:06Z</time></trkpt><trkpt lat="39.73564893431894" lon="9.213203486415587"><ele>546.0</ele><time>2026-04-11T08:17:07Z</time></trkpt><trkpt lat="39.73582547811861" lon="9.213229370664845"><ele>546.0</ele><time>2026-04-11T08:17:08Z</time></trkpt><trkpt lat="39.73600229071969" lon="9.213244202633998"><ele>546.0</ele><time>2026-04-11T08:17:09Z</time></trkpt><trkpt lat="39.73617062315847" lon="9.213243361303064"><ele>546.0</ele><time>2026-04-11T08:17:10Z</time></trkpt><trkpt lat="39.736314482025485" lon="9.21321988930833"><ele>543.25</ele><time>2026-04-11T08:17:11Z</time></trkpt><trkpt lat="39.736422293558576" lon="9.213150719931807"><ele>540.5</ele><time>2026-04-11T08:17:12Z</time></trkpt><trkpt lat="39.736489743611926" lon="9.213026893021052"><ele>537.75</ele><time>2026-04-11T08:17:13Z</time></trkpt><trkpt lat="39.7365063950735" lon="9.212857198562775"><ele>535.0</ele><time>2026-04-11T08:17:14Z</time></trkpt><trkpt lat="39.73651838216452" lon="9.212672714632681"><ele>535.0</ele><time>2026-04-11T08:17:15Z</time></trkpt><trkpt lat="39.73658076782903" lon="9.212503822159695"><ele>535.0</ele><time>2026-04-11T08:17:16Z</time></trkpt><trkpt lat="39.73668228861845" lon="9.212351151938298"><ele>535.0</ele><time>2026-04-11T08:17:17Z</time></trkpt><trkpt lat="39.73678672193424" lon="9.212203861058216"><ele>532.25</ele><time>2026-04-11T08:17:18Z</time></trkpt><trkpt lat="39.73686458971917" lon="9.212061696016073"><ele>529.5</ele><time>2026-04-11T08:17:19Z</time></trkpt><trkpt lat="39.736939171201" lon="9.211948585984883"><ele>526.75</ele><time>2026-04-11T08:17:20Z</time></trkpt><trkpt lat="39.737031262343905" lon="9.211882835359749"><ele>524.0</ele><time>2026-04-11T08:17:21Z</time></trkpt><trkpt lat="39.73713617207824" lon="9.211877222137499"><ele>524.0</ele><time>2026-04-11T08:17:22Z</time></trkpt><trkpt lat="39.73722148461308" lon="9.211943602229125"><ele>524.0</ele><time>2026-04-11T08:17:23Z</time></trkpt><trkpt lat="39.737273325396266" lon="9.212061767688002"><ele>524.0</ele><time>2026-04-11T08:17:24Z</time></trkpt><trkpt lat="39.73729459253961" lon="9.212216387256433"><ele>524.0</ele><time>2026-04-11T08:17:25Z</time></trkpt><trkpt lat="39.73732214486965" lon="9.212372085740432"><ele>524.0</ele><time>2026-04-11T08:17:26Z</time></trkpt><trkpt lat="39.73736040559361" lon="9.212532216723123"><ele>525.75</ele><time>2026-04-11T08:17:27Z</time></trkpt><trkpt lat="39.737395315896016" lon="9.212724628209449"><ele>527.5</ele><time>2026-04-11T08:17:28Z</time></trkpt><trkpt lat="39.737423760759434" lon="9.212918577781606"><ele>529.25</ele><time>2026-04-11T08:17:29Z</time></trkpt><trkpt lat="39.73744925976475" lon="9.213099433563471"><ele>531.0</ele><time>2026-04-11T08:17:30Z</time></trkpt><trkpt lat="39.7374792934329" lon="9.213266333206102"><ele>532.25</ele><time>2026-04-11T08:17:31Z</time></trkpt><trkpt lat="39.73753963879497" lon="9.21340255120358"><ele>533.5</ele><time>2026-04-11T08:17:32Z</time></trkpt><trkpt lat="39.73764222614434" lon="9.213481657666318"><ele>534.75</ele><time>2026-04-11T08:17:33Z</time></trkpt><trkpt lat="39.73777602863487" lon="9.213485756157501"><ele>536.0</ele><time>2026-04-11T08:17:34Z</time></trkpt><trkpt lat="39.73791643689752" lon="9.213431211981552"><ele>536.0</ele><time>2026-04-11T08:17:35Z</time></trkpt><trkpt lat="39.73803594299119" lon="9.21331309044745"><ele>536.0</ele><time>2026-04-11T08:17:36Z</time></trkpt><trkpt lat="39.73812710939721" lon="9.213140656546186"><ele>536.0</ele><time>2026-04-11T08:17:37Z</time></trkpt><trkpt lat="39.73819525472373" lon="9.212934500266575"><ele>534.3333333333333</ele><time>2026-04-11T08:17:38Z</time></trkpt><trkpt lat="39.738266674036424" lon="9.212721175641498"><ele>532.6666666666666</ele><time>2026-04-11T08:17:39Z</time></trkpt><trkpt lat="39.73832846760549" lon="9.212506023039007"><ele>531.0</ele><time>2026-04-11T08:17:40Z</time></trkpt><trkpt lat="39.73835287277129" lon="9.212293217930696"><ele>530.3333333333334</ele><time>2026-04-11T08:17:41Z</time></trkpt><trkpt lat="39.73834702813246" lon="9.212080474143256"><ele>529.6666666666667</ele><time>2026-04-11T08:17:42Z</time></trkpt><trkpt lat="39.738311112502416" lon="9.211876769244594"><ele>529.0</ele><time>2026-04-11T08:17:43Z</time></trkpt><trkpt lat="39.738243262020475" lon="9.21168883227957"><ele>529.0</ele><time>2026-04-11T08:17:44Z</time></trkpt><trkpt lat="39.73816809831654" lon="9.211507456734854"><ele>529.0</ele><time>2026-04-11T08:17:45Z</time></trkpt><trkpt lat="39.73811403606185" lon="9.211320179998676"><ele>529.0</ele><time>2026-04-11T08:17:46Z</time></trkpt><trkpt lat="39.73811568728275" lon="9.211117981158571"><ele>528.6666666666667</ele><time>2026-04-11T08:17:47Z</time></trkpt><trkpt lat="39.73813066086509" lon="9.210899068475305"><ele>528.3333333333334</ele><time>2026-04-11T08:17:48Z</time></trkpt><trkpt lat="39.73811823268702" lon="9.210685361786023"><ele>528.0</ele><time>2026-04-11T08:17:49Z</time></trkpt><trkpt lat="39.738101479922506" lon="9.21047572636968"><ele>525.5</ele><time>2026-04-11T08:17:50Z</time></trkpt><trkpt lat="39.738066251104776" lon="9.21029581934452"><ele>523.0</ele><time>2026-04-11T08:17:51Z</time></trkpt><trkpt lat="39.738041843908576" lon="9.210130736109237"><ele>520.5</ele><time>2026-04-11T08:17:52Z</time></trkpt><trkpt lat="39.738076595539646" lon="9.20997402364913"><ele>518.0</ele><time>2026-04-11T08:17:53Z</time></trkpt><trkpt lat="39.73814592314254" lon="9.209844450653577"><ele>515.75</ele><time>2026-04-11T08:17:54Z</time></trkpt><trkpt lat="39.738235020124485" lon="9.209725973313883"><ele>513.5</ele><time>2026-04-11T08:17:55Z</time></trkpt><trkpt lat="39.73837309718157" lon="9.209640332240744"><ele>511.25</ele><time>2026-04-11T08:17:56Z</time></trkpt><trkpt lat="39.73851801679227" lon="9.209573560532366"><ele>509.0</ele><time>2026-04-11T08:17:57Z</time></trkpt><trkpt lat="39.73866709366746" lon="9.209533077212173"><ele>509.0</ele><time>2026-04-11T08:17:58Z</time></trkpt><trkpt lat="39.73881671778825" lon="9.209548999474126"><ele>509.0</ele><time>2026-04-11T08:17:59Z</time></trkpt><trkpt lat="39.73894793005149" lon="9.209517406134037"><ele>509.0</ele><time>2026-04-11T08:18:00Z</time></trkpt><trkpt lat="39.739056330921194" lon="9.209451626073855"><ele>509.0</ele><time>2026-04-11T08:18:01Z</time></trkpt><trkpt lat="39.73913958243153" lon="9.209297016447142"><ele>509.0</ele><time>2026-04-11T08:18:02Z</time></trkpt><trkpt lat="39.73921332380704" lon="9.209113305053041"><ele>509.0</ele><time>2026-04-11T08:18:03Z</time></trkpt><trkpt lat="39.73929515065216" lon="9.208939983365175"><ele>509.0</ele><time>2026-04-11T08:18:04Z</time></trkpt><trkpt lat="39.739383756289946" lon="9.208776473779823"><ele>506.5</ele><time>2026-04-11T08:18:05Z</time></trkpt><trkpt lat="39.73947194321263" lon="9.208619665069415"><ele>504.0</ele><time>2026-04-11T08:18:06Z</time></trkpt><trkpt lat="39.73958188995955" lon="9.208498650298631"><ele>501.5</ele><time>2026-04-11T08:18:07Z</time></trkpt><trkpt lat="39.73968210870371" lon="9.208398263951446"><ele>499.0</ele><time>2026-04-11T08:18:08Z</time></trkpt><trkpt lat="39.739794095892044" lon="9.20835674138715"><ele>499.0</ele><time>2026-04-11T08:18:09Z</time></trkpt><trkpt lat="39.739915722099745" lon="9.208347081841438"><ele>499.0</ele><time>2026-04-11T08:18:10Z</time></trkpt><trkpt lat="39.7400287305659" lon="9.20845877408292"><ele>499.0</ele><time>2026-04-11T08:18:11Z</time></trkpt><trkpt lat="39.74017165775048" lon="9.208501641847281"><ele>499.0</ele><time>2026-04-11T08:18:12Z</time></trkpt><trkpt lat="39.74030868728399" lon="9.208533435133427"><ele>495.5</ele><time>2026-04-11T08:18:13Z</time></trkpt><trkpt lat="39.740430952283866" lon="9.208547582670453"><ele>492.0</ele><time>2026-04-11T08:18:14Z</time></trkpt><trkpt lat="39.74051731287901" lon="9.208627901547487"><ele>488.5</ele><time>2026-04-11T08:18:15Z</time></trkpt><trkpt lat="39.74055533977215" lon="9.208766885072988"><ele>485.0</ele><time>2026-04-11T08:18:16Z</time></trkpt><trkpt lat="39.740528126638466" lon="9.208937126670984"><ele>488.5</ele><time>2026-04-11T08:18:17Z</time></trkpt><trkpt lat="39.740563511839696" lon="9.209089499673304"><ele>492.0</ele><time>2026-04-11T08:18:18Z</time></trkpt><trkpt lat="39.74062289861872" lon="9.20924214009404"><ele>495.5</ele><time>2026-04-11T08:18:19Z</time></trkpt><trkpt lat="39.740714158318305" lon="9.209346326950605"><ele>499.0</ele><time>2026-04-11T08:18:20Z</time></trkpt><trkpt lat="39.74082822486864" lon="9.209382128884263"><ele>499.0</ele><time>2026-04-11T08:18:21Z</time></trkpt><trkpt lat="39.74095819173339" lon="9.209339307814966"><ele>499.0</ele><time>2026-04-11T08:18:22Z</time></trkpt><trkpt lat="39.7410947436204" lon="9.209274289846832"><ele>499.0</ele><time>2026-04-11T08:18:23Z</time></trkpt><trkpt lat="39.74122891781044" lon="9.209305992862298"><ele>499.0</ele><time>2026-04-11T08:18:24Z</time></trkpt><trkpt lat="39.74136841229673" lon="9.2093478835764"><ele>498.75</ele><time>2026-04-11T08:18:25Z</time></trkpt><trkpt lat="39.74149829532125" lon="9.209356539665848"><ele>498.5</ele><time>2026-04-11T08:18:26Z</time></trkpt><trkpt lat="39.741598210579276" lon="9.20932049983775"><ele>498.25</ele><time>2026-04-11T08:18:27Z</time></trkpt><trkpt lat="39.74166802514337" lon="9.209211697815967"><ele>498.0</ele><time>2026-04-11T08:18:28Z</time></trkpt><trkpt lat="39.741698383884135" lon="9.209053189972302"><ele>498.5</ele><time>2026-04-11T08:18:29Z</time></trkpt><trkpt lat="39.74170707021123" lon="9.208870031174365"><ele>499.0</ele><time>2026-04-11T08:18:30Z</time></trkpt><trkpt lat="39.74177356787786" lon="9.208703724682186"><ele>499.5</ele><time>2026-04-11T08:18:31Z</time></trkpt><trkpt lat="39.74187642661836" lon="9.208567175159464"><ele>500.0</ele><time>2026-04-11T08:18:32Z</time></trkpt><trkpt lat="39.741995034032676" lon="9.208406401098364"><ele>500.0</ele><time>2026-04-11T08:18:33Z</time></trkpt><trkpt lat="39.74207910853124" lon="9.208224497344004"><ele>500.0</ele><time>2026-04-11T08:18:34Z</time></trkpt><trkpt lat="39.74213214333642" lon="9.208029284418606"><ele>500.0</ele><time>2026-04-11T08:18:35Z</time></trkpt><trkpt lat="39.74216723118759" lon="9.207832439860471"><ele>496.25</ele><time>2026-04-11T08:18:36Z</time></trkpt><trkpt lat="39.74223629913077" lon="9.207672476364944"><ele>492.5</ele><time>2026-04-11T08:18:37Z</time></trkpt><trkpt lat="39.74232325180964" lon="9.20754892870758"><ele>488.75</ele><time>2026-04-11T08:18:38Z</time></trkpt><trkpt lat="39.74244731841487" lon="9.207481440492886"><ele>485.0</ele><time>2026-04-11T08:18:39Z</time></trkpt><trkpt lat="39.74258960565149" lon="9.207402987321627"><ele>481.0</ele><time>2026-04-11T08:18:40Z</time></trkpt><trkpt lat="39.742735385772" lon="9.207309583517858"><ele>477.0</ele><time>2026-04-11T08:18:41Z</time></trkpt><trkpt lat="39.74288115728668" lon="9.207211587813259"><ele>473.0</ele><time>2026-04-11T08:18:42Z</time></trkpt><trkpt lat="39.74302500836284" lon="9.207118027275268"><ele>473.0</ele><time>2026-04-11T08:18:43Z</time></trkpt><trkpt lat="39.743168156712656" lon="9.207029754907255"><ele>473.0</ele><time>2026-04-11T08:18:44Z</time></trkpt><trkpt lat="39.74330334489981" lon="9.20692762523095"><ele>473.0</ele><time>2026-04-11T08:18:45Z</time></trkpt><trkpt lat="39.74344155406294" lon="9.20684890048818"><ele>472.25</ele><time>2026-04-11T08:18:46Z</time></trkpt><trkpt lat="39.74358772549289" lon="9.206818522887275"><ele>471.5</ele><time>2026-04-11T08:18:47Z</time></trkpt><trkpt lat="39.74373325503504" lon="9.206824102080565"><ele>470.75</ele><time>2026-04-11T08:18:48Z</time></trkpt><trkpt lat="39.743883273797955" lon="9.206870698004508"><ele>470.0</ele><time>2026-04-11T08:18:49Z</time></trkpt><trkpt lat="39.74404308493083" lon="9.206898847228167"><ele>470.0</ele><time>2026-04-11T08:18:50Z</time></trkpt><trkpt lat="39.74419025756148" lon="9.206924343190002"><ele>470.0</ele><time>2026-04-11T08:18:51Z</time></trkpt><trkpt lat="39.74432525081228" lon="9.206890714206313"><ele>470.0</ele><time>2026-04-11T08:18:52Z</time></trkpt><trkpt lat="39.74444037680487" lon="9.206795631911632"><ele>470.0</ele><time>2026-04-11T08:18:53Z</time></trkpt><trkpt lat="39.74453743781824" lon="9.206661603295426"><ele>469.5</ele><time>2026-04-11T08:18:54Z</time></trkpt><trkpt lat="39.74460217088348" lon="9.206487298530744"><ele>469.0</ele><time>2026-04-11T08:18:55Z</time></trkpt><trkpt lat="39.744652760235994" lon="9.206305828857687"><ele>468.5</ele><time>2026-04-11T08:18:56Z</time></trkpt><trkpt lat="39.744674051671254" lon="9.206114239058751"><ele>468.0</ele><time>2026-04-11T08:18:57Z</time></trkpt><trkpt lat="39.7446511087103" lon="9.205924988175068"><ele>468.0</ele><time>2026-04-11T08:18:58Z</time></trkpt><trkpt lat="39.74460120553933" lon="9.205742885103628"><ele>468.0</ele><time>2026-04-11T08:18:59Z</time></trkpt><trkpt lat="39.744582710513455" lon="9.205560575411143"><ele>468.0</ele><time>2026-04-11T08:19:00Z</time></trkpt><trkpt lat="39.7446434652227" lon="9.205383353973124"><ele>468.0</ele><time>2026-04-11T08:19:01Z</time></trkpt><trkpt lat="39.744718924967934" lon="9.205199379503762"><ele>467.75</ele><time>2026-04-11T08:19:02Z</time></trkpt><trkpt lat="39.74477309146935" lon="9.205020933710053"><ele>467.5</ele><time>2026-04-11T08:19:03Z</time></trkpt><trkpt lat="39.74481430769511" lon="9.204834736051735"><ele>467.25</ele><time>2026-04-11T08:19:04Z</time></trkpt><trkpt lat="39.74479768705287" lon="9.204647950961204"><ele>467.0</ele><time>2026-04-11T08:19:05Z</time></trkpt><trkpt lat="39.744729468809076" lon="9.204481520743666"><ele>465.5</ele><time>2026-04-11T08:19:06Z</time></trkpt><trkpt lat="39.744628501659435" lon="9.204340416845518"><ele>464.0</ele><time>2026-04-11T08:19:07Z</time></trkpt><trkpt lat="39.74453514745697" lon="9.204197277920931"><ele>462.5</ele><time>2026-04-11T08:19:08Z</time></trkpt><trkpt lat="39.744469572531415" lon="9.204046866011234"><ele>461.0</ele><time>2026-04-11T08:19:09Z</time></trkpt><trkpt lat="39.74444562105774" lon="9.203885761214515"><ele>459.6</ele><time>2026-04-11T08:19:10Z</time></trkpt><trkpt lat="39.74448622964996" lon="9.203738859359257"><ele>458.20000000000005</ele><time>2026-04-11T08:19:11Z</time></trkpt><trkpt lat="39.744539804437885" lon="9.203631834590801"><ele>456.79999999999995</ele><time>2026-04-11T08:19:12Z</time></trkpt><trkpt lat="39.74465112890679" lon="9.20362037616988"><ele>455.4</ele><time>2026-04-11T08:19:13Z</time></trkpt><trkpt lat="39.744763577818404" lon="9.203665678249132"><ele>454.0</ele><time>2026-04-11T08:19:14Z</time></trkpt><trkpt lat="39.74489862698225" lon="9.203673615802682"><ele>454.0</ele><time>2026-04-11T08:19:15Z</time></trkpt><trkpt lat="39.74502881882804" lon="9.203688271147456"><ele>454.0</ele><time>2026-04-11T08:19:16Z</time></trkpt><trkpt lat="39.74514125026489" lon="9.203643176487118"><ele>454.0</ele><time>2026-04-11T08:19:17Z</time></trkpt><trkpt lat="39.74522547630519" lon="9.203531481806486"><ele>454.0</ele><time>2026-04-11T08:19:18Z</time></trkpt><trkpt lat="39.74527022548506" lon="9.203375457131827"><ele>452.5</ele><time>2026-04-11T08:19:19Z</time></trkpt><trkpt lat="39.745302487187594" lon="9.203203848657568"><ele>451.0</ele><time>2026-04-11T08:19:20Z</time></trkpt><trkpt lat="39.7453742935805" lon="9.203061157701992"><ele>449.5</ele><time>2026-04-11T08:19:21Z</time></trkpt><trkpt lat="39.74543404801943" lon="9.202942881703763"><ele>448.0</ele><time>2026-04-11T08:19:22Z</time></trkpt><trkpt lat="39.74552724635791" lon="9.202904230553788"><ele>448.0</ele><time>2026-04-11T08:19:23Z</time></trkpt><trkpt lat="39.74561595666529" lon="9.202941518289311"><ele>448.0</ele><time>2026-04-11T08:19:24Z</time></trkpt><trkpt lat="39.74568922511348" lon="9.203044193058952"><ele>448.0</ele><time>2026-04-11T08:19:25Z</time></trkpt><trkpt lat="39.74570703139367" lon="9.20321698820698"><ele>448.0</ele><time>2026-04-11T08:19:26Z</time></trkpt><trkpt lat="39.74575959410215" lon="9.203390725188731"><ele>448.0</ele><time>2026-04-11T08:19:27Z</time></trkpt><trkpt lat="39.745792404375834" lon="9.203584349739495"><ele>448.0</ele><time>2026-04-11T08:19:28Z</time></trkpt><trkpt lat="39.74583535491005" lon="9.203775181967954"><ele>448.0</ele><time>2026-04-11T08:19:29Z</time></trkpt><trkpt lat="39.745889324408466" lon="9.203949318435392"><ele>446.6666666666667</ele><time>2026-04-11T08:19:30Z</time></trkpt><trkpt lat="39.74596380375884" lon="9.204113366360627"><ele>445.33333333333337</ele><time>2026-04-11T08:19:31Z</time></trkpt><trkpt lat="39.74607048987029" lon="9.204250214593852"><ele>444.0</ele><time>2026-04-11T08:19:32Z</time></trkpt><trkpt lat="39.746210636333984" lon="9.204335800545742"><ele>444.0</ele><time>2026-04-11T08:19:33Z</time></trkpt><trkpt lat="39.746369181924166" lon="9.204382826202076"><ele>444.0</ele><time>2026-04-11T08:19:34Z</time></trkpt><trkpt lat="39.746514813004346" lon="9.204419642954235"><ele>444.0</ele><time>2026-04-11T08:19:35Z</time></trkpt><trkpt lat="39.746636785943686" lon="9.204441213353816"><ele>444.0</ele><time>2026-04-11T08:19:36Z</time></trkpt><trkpt lat="39.74673768268126" lon="9.204437390287923"><ele>444.0</ele><time>2026-04-11T08:19:37Z</time></trkpt><trkpt lat="39.74681764576438" lon="9.20438432299561"><ele>444.0</ele><time>2026-04-11T08:19:38Z</time></trkpt><trkpt lat="39.74687250056001" lon="9.20426380726367"><ele>444.0</ele><time>2026-04-11T08:19:39Z</time></trkpt><trkpt lat="39.7468780707667" lon="9.204097185571774"><ele>444.0</ele><time>2026-04-11T08:19:40Z</time></trkpt><trkpt lat="39.74684396788682" lon="9.203913089190252"><ele>442.66666666666663</ele><time>2026-04-11T08:19:41Z</time></trkpt><trkpt lat="39.746847168240535" lon="9.203712930129736"><ele>441.3333333333333</ele><time>2026-04-11T08:19:42Z</time></trkpt><trkpt lat="39.74682169459297" lon="9.203511478916955"><ele>440.0</ele><time>2026-04-11T08:19:43Z</time></trkpt><trkpt lat="39.74681215702078" lon="9.203304989084375"><ele>439.0</ele><time>2026-04-11T08:19:44Z</time></trkpt><trkpt lat="39.74682166104926" lon="9.20310755238311"><ele>438.0</ele><time>2026-04-11T08:19:45Z</time></trkpt><trkpt lat="39.74681614398165" lon="9.202927105302813"><ele>437.0</ele><time>2026-04-11T08:19:46Z</time></trkpt><trkpt lat="39.7469017066001" lon="9.202786724630897"><ele>436.0</ele><time>2026-04-11T08:19:47Z</time></trkpt><trkpt lat="39.746999283600324" lon="9.202654557825882"><ele>434.6666666666667</ele><time>2026-04-11T08:19:48Z</time></trkpt><trkpt lat="39.747079280638374" lon="9.20248074187368"><ele>433.33333333333337</ele><time>2026-04-11T08:19:49Z</time></trkpt><trkpt lat="39.74716191007584" lon="9.202299747791226"><ele>432.0</ele><time>2026-04-11T08:19:50Z</time></trkpt><trkpt lat="39.747205550743615" lon="9.2020817073375"><ele>430.66666666666663</ele><time>2026-04-11T08:19:51Z</time></trkpt><trkpt lat="39.7472348954656" lon="9.201852498152633"><ele>429.3333333333333</ele><time>2026-04-11T08:19:52Z</time></trkpt><trkpt lat="39.747245100001656" lon="9.201614435915912"><ele>428.0</ele><time>2026-04-11T08:19:53Z</time></trkpt><trkpt lat="39.74723548386366" lon="9.201374357501976"><ele>428.0</ele><time>2026-04-11T08:19:54Z</time></trkpt><trkpt lat="39.74723065420402" lon="9.201138692063694"><ele>428.0</ele><time>2026-04-11T08:19:55Z</time></trkpt><trkpt lat="39.7472669763731" lon="9.200915713835599"><ele>428.0</ele><time>2026-04-11T08:19:56Z</time></trkpt><trkpt lat="39.74732271471103" lon="9.200713094773537"><ele>427.66666666666663</ele><time>2026-04-11T08:19:57Z</time></trkpt><trkpt lat="39.74739591791975" lon="9.200520346457548"><ele>427.33333333333337</ele><time>2026-04-11T08:19:58Z</time></trkpt><trkpt lat="39.74746706704592" lon="9.20033012868928"><ele>427.0</ele><time>2026-04-11T08:19:59Z</time></trkpt><trkpt lat="39.747547455248935" lon="9.200166317684506"><ele>427.0</ele><time>2026-04-11T08:20:00Z</time></trkpt><trkpt lat="39.7476039872515" lon="9.200005627402971"><ele>427.0</ele><time>2026-04-11T08:20:01Z</time></trkpt><trkpt lat="39.74762089556172" lon="9.199843498321755"><ele>427.0</ele><time>2026-04-11T08:20:02Z</time></trkpt><trkpt lat="39.74758625273587" lon="9.199680145804855"><ele>427.0</ele><time>2026-04-11T08:20:03Z</time></trkpt><trkpt lat="39.747501897074265" lon="9.199521939177137"><ele>425.6</ele><time>2026-04-11T08:20:04Z</time></trkpt><trkpt lat="39.747414412154804" lon="9.199384304597494"><ele>424.20000000000005</ele><time>2026-04-11T08:20:05Z</time></trkpt><trkpt lat="39.747361707151896" lon="9.199275376551636"><ele>422.8</ele><time>2026-04-11T08:20:06Z</time></trkpt><trkpt lat="39.74735839706361" lon="9.199171152965226"><ele>421.4</ele><time>2026-04-11T08:20:07Z</time></trkpt><trkpt lat="39.74740739119969" lon="9.199084765864402"><ele>420.0</ele><time>2026-04-11T08:20:08Z</time></trkpt><trkpt lat="39.747494509870094" lon="9.199062641508371"><ele>420.0</ele><time>2026-04-11T08:20:09Z</time></trkpt><trkpt lat="39.74757192159168" lon="9.199115510523287"><ele>420.0</ele><time>2026-04-11T08:20:10Z</time></trkpt><trkpt lat="39.747615229265946" lon="9.199243719254847"><ele>420.0</ele><time>2026-04-11T08:20:11Z</time></trkpt><trkpt lat="39.74763197621434" lon="9.199403056471892"><ele>420.0</ele><time>2026-04-11T08:20:12Z</time></trkpt><trkpt lat="39.747669478667426" lon="9.199561488214671"><ele>420.0</ele><time>2026-04-11T08:20:13Z</time></trkpt><trkpt lat="39.74772237857035" lon="9.19971938191527"><ele>418.75</ele><time>2026-04-11T08:20:14Z</time></trkpt><trkpt lat="39.747820627137195" lon="9.199867145335174"><ele>417.5</ele><time>2026-04-11T08:20:15Z</time></trkpt><trkpt lat="39.74791534434638" lon="9.20001347822152"><ele>416.25</ele><time>2026-04-11T08:20:16Z</time></trkpt><trkpt lat="39.748026817214246" lon="9.200122200469181"><ele>415.0</ele><time>2026-04-11T08:20:17Z</time></trkpt><trkpt lat="39.748157490336006" lon="9.200174096492594"><ele>415.0</ele><time>2026-04-11T08:20:18Z</time></trkpt><trkpt lat="39.74828609429935" lon="9.200180838080657"><ele>415.0</ele><time>2026-04-11T08:20:19Z</time></trkpt><trkpt lat="39.74839218041846" lon="9.200213050212712"><ele>415.0</ele><time>2026-04-11T08:20:20Z</time></trkpt><trkpt lat="39.74844867158359" lon="9.200345957291832"><ele>415.0</ele><time>2026-04-11T08:20:21Z</time></trkpt><trkpt lat="39.748469812547135" lon="9.200496675864791"><ele>415.25</ele><time>2026-04-11T08:20:22Z</time></trkpt><trkpt lat="39.74850432350344" lon="9.200679510321017"><ele>415.5</ele><time>2026-04-11T08:20:23Z</time></trkpt><trkpt lat="39.74856930806942" lon="9.20084920402407"><ele>415.75</ele><time>2026-04-11T08:20:24Z</time></trkpt><trkpt lat="39.748646328137234" lon="9.201019614220318"><ele>416.0</ele><time>2026-04-11T08:20:25Z</time></trkpt><trkpt lat="39.74879225820784" lon="9.201127995009731"><ele>413.3333333333333</ele><time>2026-04-11T08:20:26Z</time></trkpt><trkpt lat="39.74891242877108" lon="9.201249809092223"><ele>410.66666666666663</ele><time>2026-04-11T08:20:27Z</time></trkpt><trkpt lat="39.74897799289302" lon="9.201426255082701"><ele>408.0</ele><time>2026-04-11T08:20:28Z</time></trkpt><trkpt lat="39.749024383901464" lon="9.201621418905674"><ele>408.0</ele><time>2026-04-11T08:20:29Z</time></trkpt><trkpt lat="39.749063468984225" lon="9.201835099579146"><ele>408.0</ele><time>2026-04-11T08:20:30Z</time></trkpt><trkpt lat="39.74911325708183" lon="9.202051189687381"><ele>408.0</ele><time>2026-04-11T08:20:31Z</time></trkpt><trkpt lat="39.74916006488166" lon="9.202251998069617"><ele>409.33333333333337</ele><time>2026-04-11T08:20:32Z</time></trkpt><trkpt lat="39.74923097033584" lon="9.202429316965494"><ele>410.6666666666667</ele><time>2026-04-11T08:20:33Z</time></trkpt><trkpt lat="39.74932803357796" lon="9.202580569443437"><ele>412.0</ele><time>2026-04-11T08:20:34Z</time></trkpt><trkpt lat="39.74944963269022" lon="9.202689999860949"><ele>406.33333333333337</ele><time>2026-04-11T08:20:35Z</time></trkpt><trkpt lat="39.74959379848586" lon="9.202762794145452"><ele>400.66666666666663</ele><time>2026-04-11T08:20:36Z</time></trkpt><trkpt lat="39.749747685579756" lon="9.202812906111236"><ele>395.0</ele><time>2026-04-11T08:20:37Z</time></trkpt><trkpt lat="39.749906228925575" lon="9.202856087690192"><ele>395.0</ele><time>2026-04-11T08:20:38Z</time></trkpt><trkpt lat="39.750059184384796" lon="9.202908829645883"><ele>395.0</ele><time>2026-04-11T08:20:39Z</time></trkpt><trkpt lat="39.75019511754956" lon="9.203002471962115"><ele>395.0</ele><time>2026-04-11T08:20:40Z</time></trkpt><trkpt lat="39.750282234024596" lon="9.20317315050118"><ele>390.3333333333333</ele><time>2026-04-11T08:20:41Z</time></trkpt><trkpt lat="39.75036535358831" lon="9.203352741020762"><ele>385.66666666666663</ele><time>2026-04-11T08:20:42Z</time></trkpt><trkpt lat="39.75044690621583" lon="9.203540216944313"><ele>381.0</ele><time>2026-04-11T08:20:43Z</time></trkpt><trkpt lat="39.75053590698085" lon="9.203717792288446"><ele>381.0</ele><time>2026-04-11T08:20:44Z</time></trkpt><trkpt lat="39.750610325611895" lon="9.203901529808304"><ele>381.0</ele><time>2026-04-11T08:20:45Z</time></trkpt><trkpt lat="39.75065037095817" lon="9.204089003786587"><ele>381.0</ele><time>2026-04-11T08:20:46Z</time></trkpt><trkpt lat="39.75066057341206" lon="9.204263213316462"><ele>381.0</ele><time>2026-04-11T08:20:47Z</time></trkpt><trkpt lat="39.75062031385123" lon="9.204423254427951"><ele>382.0</ele><time>2026-04-11T08:20:48Z</time></trkpt><trkpt lat="39.7505410980186" lon="9.204555239895445"><ele>383.0</ele><time>2026-04-11T08:20:49Z</time></trkpt><trkpt lat="39.750430949898906" lon="9.204674891102705"><ele>384.0</ele><time>2026-04-11T08:20:50Z</time></trkpt><trkpt lat="39.750302839514035" lon="9.204809404061505"><ele>385.0</ele><time>2026-04-11T08:20:51Z</time></trkpt><trkpt lat="39.7501766240578" lon="9.204961811320246"><ele>387.25</ele><time>2026-04-11T08:20:52Z</time></trkpt><trkpt lat="39.75004922961796" lon="9.205089751221468"><ele>389.5</ele><time>2026-04-11T08:20:53Z</time></trkpt><trkpt lat="39.749951326658945" lon="9.205218141255457"><ele>391.75</ele><time>2026-04-11T08:20:54Z</time></trkpt><trkpt lat="39.74990833497529" lon="9.205363580707258"><ele>394.0</ele><time>2026-04-11T08:20:55Z</time></trkpt><trkpt lat="39.749926535812975" lon="9.205505103641583"><ele>394.0</ele><time>2026-04-11T08:20:56Z</time></trkpt><trkpt lat="39.749999708599155" lon="9.205610241595764"><ele>394.0</ele><time>2026-04-11T08:20:57Z</time></trkpt><trkpt lat="39.75010651172207" lon="9.205698042403649"><ele>394.0</ele><time>2026-04-11T08:20:58Z</time></trkpt><trkpt lat="39.75023925663624" lon="9.205768631952651"><ele>394.0</ele><time>2026-04-11T08:20:59Z</time></trkpt><trkpt lat="39.75038734735164" lon="9.20582533327673"><ele>390.0</ele><time>2026-04-11T08:21:00Z</time></trkpt><trkpt lat="39.7505501564412" lon="9.205866787827812"><ele>386.0</ele><time>2026-04-11T08:21:01Z</time></trkpt><trkpt lat="39.750719144785705" lon="9.205898517972383"><ele>382.0</ele><time>2026-04-11T08:21:02Z</time></trkpt><trkpt lat="39.750884943754144" lon="9.205931300588249"><ele>382.0</ele><time>2026-04-11T08:21:03Z</time></trkpt><trkpt lat="39.75103834429741" lon="9.206012012738928"><ele>382.0</ele><time>2026-04-11T08:21:04Z</time></trkpt><trkpt lat="39.7511841682325" lon="9.206117826003517"><ele>382.0</ele><time>2026-04-11T08:21:05Z</time></trkpt><trkpt lat="39.751319702320934" lon="9.206255822230256"><ele>382.0</ele><time>2026-04-11T08:21:06Z</time></trkpt><trkpt lat="39.75146407773915" lon="9.20637973333893"><ele>382.0</ele><time>2026-04-11T08:21:07Z</time></trkpt><trkpt lat="39.751604602227665" lon="9.20649766257213"><ele>382.0</ele><time>2026-04-11T08:21:08Z</time></trkpt><trkpt lat="39.751750648535484" lon="9.206580673662994"><ele>378.75</ele><time>2026-04-11T08:21:09Z</time></trkpt><trkpt lat="39.75188748667786" lon="9.2066530644949"><ele>375.5</ele><time>2026-04-11T08:21:10Z</time></trkpt><trkpt lat="39.75199376054924" lon="9.206769907966896"><ele>372.25</ele><time>2026-04-11T08:21:11Z</time></trkpt><trkpt lat="39.75206636610729" lon="9.206922891553198"><ele>369.0</ele><time>2026-04-11T08:21:12Z</time></trkpt><trkpt lat="39.752170254399786" lon="9.207064992349009"><ele>369.0</ele><time>2026-04-11T08:21:13Z</time></trkpt><trkpt lat="39.75227985081964" lon="9.207198863706438"><ele>369.0</ele><time>2026-04-11T08:21:14Z</time></trkpt><trkpt lat="39.75242868004189" lon="9.207290322032422"><ele>369.0</ele><time>2026-04-11T08:21:15Z</time></trkpt><trkpt lat="39.7525965977169" lon="9.207337236699638"><ele>369.0</ele><time>2026-04-11T08:21:16Z</time></trkpt><trkpt lat="39.752734358968645" lon="9.207445798791529"><ele>369.0</ele><time>2026-04-11T08:21:17Z</time></trkpt><trkpt lat="39.75287391557691" lon="9.20757625144932"><ele>369.0</ele><time>2026-04-11T08:21:18Z</time></trkpt><trkpt lat="39.75302247826203" lon="9.207714566649427"><ele>369.0</ele><time>2026-04-11T08:21:19Z</time></trkpt><trkpt lat="39.75317476906392" lon="9.207840686492398"><ele>369.0</ele><time>2026-04-11T08:21:20Z</time></trkpt><trkpt lat="39.75332879372606" lon="9.207943606240015"><ele>369.0</ele><time>2026-04-11T08:21:21Z</time></trkpt><trkpt lat="39.753476480102805" lon="9.208035313484338"><ele>369.0</ele><time>2026-04-11T08:21:22Z</time></trkpt><trkpt lat="39.7536240391852" lon="9.20810542302187"><ele>369.0</ele><time>2026-04-11T08:21:23Z</time></trkpt><trkpt lat="39.75375946678877" lon="9.20818080905577"><ele>369.0</ele><time>2026-04-11T08:21:24Z</time></trkpt><trkpt lat="39.75388674139597" lon="9.20823844884887"><ele>369.0</ele><time>2026-04-11T08:21:25Z</time></trkpt><trkpt lat="39.75400928148888" lon="9.208257043508551"><ele>368.4</ele><time>2026-04-11T08:21:26Z</time></trkpt><trkpt lat="39.7541252449586" lon="9.208262803169543"><ele>367.79999999999995</ele><time>2026-04-11T08:21:27Z</time></trkpt><trkpt lat="39.754233422337485" lon="9.208255136946082"><ele>367.20000000000005</ele><time>2026-04-11T08:21:28Z</time></trkpt><trkpt lat="39.75433120742289" lon="9.20824800012563"><ele>366.6</ele><time>2026-04-11T08:21:29Z</time></trkpt><trkpt lat="39.75442325785135" lon="9.208246045040049"><ele>366.0</ele><time>2026-04-11T08:21:30Z</time></trkpt><trkpt lat="39.75451196487789" lon="9.208262218084037"><ele>368.20000000000005</ele><time>2026-04-11T08:21:31Z</time></trkpt><trkpt lat="39.75460051276178" lon="9.208289852290985"><ele>370.40000000000003</ele><time>2026-04-11T08:21:32Z</time></trkpt><trkpt lat="39.754683684710905" lon="9.208331137840348"><ele>372.6</ele><time>2026-04-11T08:21:33Z</time></trkpt><trkpt lat="39.75475622840677" lon="9.20838898767337"><ele>374.8</ele><time>2026-04-11T08:21:34Z</time></trkpt><trkpt lat="39.754810699643166" lon="9.208491381582627"><ele>377.0</ele><time>2026-04-11T08:21:35Z</time></trkpt><trkpt lat="39.75484581471288" lon="9.208627473634698"><ele>377.0</ele><time>2026-04-11T08:21:36Z</time></trkpt><trkpt lat="39.75487990047846" lon="9.208780717798625"><ele>377.0</ele><time>2026-04-11T08:21:37Z</time></trkpt><trkpt lat="39.75493047679119" lon="9.208945419183603"><ele>377.0</ele><time>2026-04-11T08:21:38Z</time></trkpt><trkpt lat="39.75496409830869" lon="9.209117045766822"><ele>377.0</ele><time>2026-04-11T08:21:39Z</time></trkpt><trkpt lat="39.754991834567065" lon="9.209277474793002"><ele>375.6</ele><time>2026-04-11T08:21:40Z</time></trkpt><trkpt lat="39.75501972596939" lon="9.209423537000475"><ele>374.20000000000005</ele><time>2026-04-11T08:21:41Z</time></trkpt><trkpt lat="39.755069764153674" lon="9.209550582161324"><ele>372.8</ele><time>2026-04-11T08:21:42Z</time></trkpt><trkpt lat="39.75515674387863" lon="9.209629644959017"><ele>371.4</ele><time>2026-04-11T08:21:43Z</time></trkpt><trkpt lat="39.75526935752184" lon="9.209645761607064"><ele>370.0</ele><time>2026-04-11T08:21:44Z</time></trkpt><trkpt lat="39.755388435095355" lon="9.20959449387949"><ele>370.0</ele><time>2026-04-11T08:21:45Z</time></trkpt><trkpt lat="39.75550357487833" lon="9.209504254256723"><ele>370.0</ele><time>2026-04-11T08:21:46Z</time></trkpt><trkpt lat="39.75560764833898" lon="9.209384680101534"><ele>370.0</ele><time>2026-04-11T08:21:47Z</time></trkpt><trkpt lat="39.75571001531379" lon="9.20927713094508"><ele>370.0</ele><time>2026-04-11T08:21:48Z</time></trkpt><trkpt lat="39.755798918996014" lon="9.209212577054915"><ele>370.0</ele><time>2026-04-11T08:21:49Z</time></trkpt><trkpt lat="39.755883405720596" lon="9.209225945960771"><ele>370.0</ele><time>2026-04-11T08:21:50Z</time></trkpt><trkpt lat="39.75594055583474" lon="9.209338025537441"><ele>370.0</ele><time>2026-04-11T08:21:51Z</time></trkpt><trkpt lat="39.75595480690582" lon="9.209459106147493"><ele>370.0</ele><time>2026-04-11T08:21:52Z</time></trkpt><trkpt lat="39.75591845705318" lon="9.20959388971878"><ele>370.0</ele><time>2026-04-11T08:21:53Z</time></trkpt><trkpt lat="39.755892954016225" lon="9.209756397175235"><ele>369.0</ele><time>2026-04-11T08:21:54Z</time></trkpt><trkpt lat="39.755877915732746" lon="9.209919101468333"><ele>368.0</ele><time>2026-04-11T08:21:55Z</time></trkpt><trkpt lat="39.75585268726401" lon="9.21007833546475"><ele>367.0</ele><time>2026-04-11T08:21:56Z</time></trkpt><trkpt lat="39.755839338707275" lon="9.210232715667237"><ele>366.0</ele><time>2026-04-11T08:21:57Z</time></trkpt><trkpt lat="39.75586434813852" lon="9.210367170488093"><ele>366.0</ele><time>2026-04-11T08:21:58Z</time></trkpt><trkpt lat="39.75593781765042" lon="9.21046427367006"><ele>366.0</ele><time>2026-04-11T08:21:59Z</time></trkpt><trkpt lat="39.75605105024409" lon="9.210507677735867"><ele>366.0</ele><time>2026-04-11T08:22:00Z</time></trkpt><trkpt lat="39.75618372063346" lon="9.210502610442205"><ele>366.0</ele><time>2026-04-11T08:22:01Z</time></trkpt><trkpt lat="39.75632409793182" lon="9.210460211855041"><ele>371.0</ele><time>2026-04-11T08:22:02Z</time></trkpt><trkpt lat="39.75646790338031" lon="9.210423961446615"><ele>376.0</ele><time>2026-04-11T08:22:03Z</time></trkpt><trkpt lat="39.7566234112309" lon="9.210464465052944"><ele>381.0</ele><time>2026-04-11T08:22:04Z</time></trkpt><trkpt lat="39.75678365845479" lon="9.21051132422292"><ele>379.6666666666667</ele><time>2026-04-11T08:22:05Z</time></trkpt><trkpt lat="39.7569334284912" lon="9.210584146745866"><ele>378.33333333333337</ele><time>2026-04-11T08:22:06Z</time></trkpt><trkpt lat="39.75707258607617" lon="9.210695071162588"><ele>377.0</ele><time>2026-04-11T08:22:07Z</time></trkpt><trkpt lat="39.75719766885544" lon="9.210841923014849"><ele>377.0</ele><time>2026-04-11T08:22:08Z</time></trkpt><trkpt lat="39.75730340888695" lon="9.211010891007525"><ele>377.0</ele><time>2026-04-11T08:22:09Z</time></trkpt><trkpt lat="39.75739712097854" lon="9.211189095437636"><ele>377.0</ele><time>2026-04-11T08:22:10Z</time></trkpt><trkpt lat="39.757489631001626" lon="9.211350663709139"><ele>373.5</ele><time>2026-04-11T08:22:11Z</time></trkpt><trkpt lat="39.7575723618861" lon="9.211495935711747"><ele>370.0</ele><time>2026-04-11T08:22:12Z</time></trkpt><trkpt lat="39.75767787602043" lon="9.211589031112833"><ele>366.5</ele><time>2026-04-11T08:22:13Z</time></trkpt><trkpt lat="39.75781790286905" lon="9.211602885530398"><ele>363.0</ele><time>2026-04-11T08:22:14Z</time></trkpt><trkpt lat="39.75796883648675" lon="9.211556924781224"><ele>372.0</ele><time>2026-04-11T08:22:15Z</time></trkpt><trkpt lat="39.758122360779765" lon="9.211486077100627"><ele>381.0</ele><time>2026-04-11T08:22:16Z</time></trkpt><trkpt lat="39.7582783894731" lon="9.211464303571347"><ele>390.0</ele><time>2026-04-11T08:22:17Z</time></trkpt><trkpt lat="39.7584376192409" lon="9.211484017967502"><ele>384.3333333333333</ele><time>2026-04-11T08:22:18Z</time></trkpt><trkpt lat="39.75860249991985" lon="9.211545434189304"><ele>378.66666666666663</ele><time>2026-04-11T08:22:19Z</time></trkpt><trkpt lat="39.758769269232864" lon="9.211627184334983"><ele>373.0</ele><time>2026-04-11T08:22:20Z</time></trkpt><trkpt lat="39.75892166483877" lon="9.211711342596711"><ele>373.0</ele><time>2026-04-11T08:22:21Z</time></trkpt><trkpt lat="39.75905206196277" lon="9.211799886846562"><ele>373.0</ele><time>2026-04-11T08:22:22Z</time></trkpt><trkpt lat="39.75915320025853" lon="9.21192970662393"><ele>373.0</ele><time>2026-04-11T08:22:23Z</time></trkpt><trkpt lat="39.759229826428005" lon="9.212097184507579"><ele>373.0</ele><time>2026-04-11T08:22:24Z</time></trkpt><trkpt lat="39.75928414144304" lon="9.21229052540085"><ele>370.25</ele><time>2026-04-11T08:22:25Z</time></trkpt><trkpt lat="39.75931278733892" lon="9.212497651855491"><ele>367.5</ele><time>2026-04-11T08:22:26Z</time></trkpt><trkpt lat="39.75936017399319" lon="9.212681326217702"><ele>364.75</ele><time>2026-04-11T08:22:27Z</time></trkpt><trkpt lat="39.75940818679524" lon="9.212828719668423"><ele>362.0</ele><time>2026-04-11T08:22:28Z</time></trkpt><trkpt lat="39.759502189520546" lon="9.212949850040474"><ele>362.0</ele><time>2026-04-11T08:22:29Z</time></trkpt><trkpt lat="39.75962603503828" lon="9.213022643427967"><ele>362.0</ele><time>2026-04-11T08:22:30Z</time></trkpt><trkpt lat="39.75976069395674" lon="9.213032360768393"><ele>362.0</ele><time>2026-04-11T08:22:31Z</time></trkpt><trkpt lat="39.75988178100479" lon="9.212973718183534"><ele>362.0</ele><time>2026-04-11T08:22:32Z</time></trkpt><trkpt lat="39.75996942884922" lon="9.21285677585086"><ele>362.0</ele><time>2026-04-11T08:22:33Z</time></trkpt><trkpt lat="39.76001668052818" lon="9.212696989917928"><ele>362.0</ele><time>2026-04-11T08:22:34Z</time></trkpt><trkpt lat="39.76005902062311" lon="9.2125127312921"><ele>362.0</ele><time>2026-04-11T08:22:35Z</time></trkpt><trkpt lat="39.76010689502399" lon="9.212315974405877"><ele>362.0</ele><time>2026-04-11T08:22:36Z</time></trkpt><trkpt lat="39.76016227593558" lon="9.212116513483673"><ele>360.0</ele><time>2026-04-11T08:22:37Z</time></trkpt><trkpt lat="39.76021773787585" lon="9.21190992346614"><ele>358.0</ele><time>2026-04-11T08:22:38Z</time></trkpt><trkpt lat="39.76027349823224" lon="9.211700266488949"><ele>356.0</ele><time>2026-04-11T08:22:39Z</time></trkpt><trkpt lat="39.760321232961786" lon="9.211487182202722"><ele>356.0</ele><time>2026-04-11T08:22:40Z</time></trkpt><trkpt lat="39.76037209592744" lon="9.21127275968797"><ele>356.0</ele><time>2026-04-11T08:22:41Z</time></trkpt><trkpt lat="39.76043937149071" lon="9.211066958475337"><ele>356.0</ele><time>2026-04-11T08:22:42Z</time></trkpt><trkpt lat="39.76053566591719" lon="9.210877299464862"><ele>356.0</ele><time>2026-04-11T08:22:43Z</time></trkpt><trkpt lat="39.760647853460995" lon="9.210701081915618"><ele>356.0</ele><time>2026-04-11T08:22:44Z</time></trkpt><trkpt lat="39.76075029845144" lon="9.210531041888192"><ele>356.0</ele><time>2026-04-11T08:22:45Z</time></trkpt><trkpt lat="39.76084673501496" lon="9.210376143323149"><ele>357.6666666666667</ele><time>2026-04-11T08:22:46Z</time></trkpt><trkpt lat="39.760969090277754" lon="9.210260887343846"><ele>359.3333333333333</ele><time>2026-04-11T08:22:47Z</time></trkpt><trkpt lat="39.76112738928495" lon="9.210210704644409"><ele>361.0</ele><time>2026-04-11T08:22:48Z</time></trkpt><trkpt lat="39.76127353814285" lon="9.210159739934474"><ele>361.0</ele><time>2026-04-11T08:22:49Z</time></trkpt><trkpt lat="39.76140301768611" lon="9.210181595839284"><ele>361.0</ele><time>2026-04-11T08:22:50Z</time></trkpt><trkpt lat="39.76153410847894" lon="9.210249643881463"><ele>361.0</ele><time>2026-04-11T08:22:51Z</time></trkpt><trkpt lat="39.76159140303298" lon="9.21037039606686"><ele>361.0</ele><time>2026-04-11T08:22:52Z</time></trkpt><trkpt lat="39.76163785489895" lon="9.210517991204972"><ele>359.25</ele><time>2026-04-11T08:22:53Z</time></trkpt><trkpt lat="39.76166030423341" lon="9.210695296241186"><ele>357.5</ele><time>2026-04-11T08:22:54Z</time></trkpt><trkpt lat="39.761691661052744" lon="9.210886714446014"><ele>355.75</ele><time>2026-04-11T08:22:55Z</time></trkpt><trkpt lat="39.76170887302352" lon="9.211077847067003"><ele>354.0</ele><time>2026-04-11T08:22:56Z</time></trkpt><trkpt lat="39.76172920549165" lon="9.211252187127474"><ele>354.0</ele><time>2026-04-11T08:22:57Z</time></trkpt><trkpt lat="39.76175024792831" lon="9.211409225799056"><ele>354.0</ele><time>2026-04-11T08:22:58Z</time></trkpt><trkpt lat="39.76176506848691" lon="9.21155234731212"><ele>354.0</ele><time>2026-04-11T08:22:59Z</time></trkpt><trkpt lat="39.76178191856596" lon="9.211686514300908"><ele>354.0</ele><time>2026-04-11T08:23:00Z</time></trkpt><trkpt lat="39.761797441663056" lon="9.211808251342513"><ele>354.0</ele><time>2026-04-11T08:23:01Z</time></trkpt><trkpt lat="39.7618290489061" lon="9.211913392671669"><ele>354.25</ele><time>2026-04-11T08:23:02Z</time></trkpt><trkpt lat="39.7618536111768" lon="9.212012500260496"><ele>354.5</ele><time>2026-04-11T08:23:03Z</time></trkpt><trkpt lat="39.76193775566728" lon="9.21207481949737"><ele>354.75</ele><time>2026-04-11T08:23:04Z</time></trkpt><trkpt lat="39.762048011095786" lon="9.212182408980302"><ele>355.0</ele><time>2026-04-11T08:23:05Z</time></trkpt><trkpt lat="39.76219045347151" lon="9.212286068530094"><ele>357.66666666666663</ele><time>2026-04-11T08:23:06Z</time></trkpt><trkpt lat="39.762317992002245" lon="9.212380120383362"><ele>360.3333333333333</ele><time>2026-04-11T08:23:07Z</time></trkpt><trkpt lat="39.76242961162023" lon="9.212524392200208"><ele>363.0</ele><time>2026-04-11T08:23:08Z</time></trkpt><trkpt lat="39.762526643214024" lon="9.212692837164772"><ele>363.0</ele><time>2026-04-11T08:23:09Z</time></trkpt><trkpt lat="39.76260542790025" lon="9.212878284653181"><ele>363.0</ele><time>2026-04-11T08:23:10Z</time></trkpt><trkpt lat="39.76266525778189" lon="9.213074541703124"><ele>363.0</ele><time>2026-04-11T08:23:11Z</time></trkpt><trkpt lat="39.76274960149769" lon="9.213246251126389"><ele>367.3333333333333</ele><time>2026-04-11T08:23:12Z</time></trkpt><trkpt lat="39.76281044750397" lon="9.213428855301462"><ele>371.66666666666663</ele><time>2026-04-11T08:23:13Z</time></trkpt><trkpt lat="39.762859198587016" lon="9.213614007336295"><ele>376.0</ele><time>2026-04-11T08:23:14Z</time></trkpt><trkpt lat="39.76289223935565" lon="9.21379981107349"><ele>376.0</ele><time>2026-04-11T08:23:15Z</time></trkpt><trkpt lat="39.76289915567134" lon="9.213984583729568"><ele>376.0</ele><time>2026-04-11T08:23:16Z</time></trkpt><trkpt lat="39.762900952155064" lon="9.21421706430651"><ele>376.0</ele><time>2026-04-11T08:23:17Z</time></trkpt><trkpt lat="39.76292988748409" lon="9.214402754860984"><ele>375.25</ele><time>2026-04-11T08:23:18Z</time></trkpt><trkpt lat="39.76295422002763" lon="9.214567866558863"><ele>374.5</ele><time>2026-04-11T08:23:19Z</time></trkpt><trkpt lat="39.763012502563846" lon="9.214722115138922"><ele>373.75</ele><time>2026-04-11T08:23:20Z</time></trkpt><trkpt lat="39.76308815285944" lon="9.21486460020354"><ele>373.0</ele><time>2026-04-11T08:23:21Z</time></trkpt><trkpt lat="39.76317754950241" lon="9.214984399470831"><ele>372.2</ele><time>2026-04-11T08:23:22Z</time></trkpt><trkpt lat="39.76325659646495" lon="9.21510172552604"><ele>371.4</ele><time>2026-04-11T08:23:23Z</time></trkpt><trkpt lat="39.76332835422727" lon="9.21521220774764"><ele>370.59999999999997</ele><time>2026-04-11T08:23:24Z</time></trkpt><trkpt lat="39.76339072646874" lon="9.215313552673779"><ele>369.79999999999995</ele><time>2026-04-11T08:23:25Z</time></trkpt><trkpt lat="39.7634419347163" lon="9.215399510207797"><ele>369.0</ele><time>2026-04-11T08:23:26Z</time></trkpt><trkpt lat="39.76348240056697" lon="9.21546782701426"><ele>369.0</ele><time>2026-04-11T08:23:27Z</time></trkpt><trkpt lat="39.76352546802572" lon="9.215566287891122"><ele>369.0</ele><time>2026-04-11T08:23:29Z</time></trkpt><trkpt lat="39.76357801192144" lon="9.215665551184859"><ele>369.0</ele><time>2026-04-11T08:23:31Z</time></trkpt><trkpt lat="39.76374772711181" lon="9.215574782764223"><ele>369.0</ele><time>2026-04-11T08:23:32Z</time></trkpt><trkpt lat="39.76383860783233" lon="9.215545515375462"><ele>371.2</ele><time>2026-04-11T08:23:33Z</time></trkpt><trkpt lat="39.763926978465136" lon="9.215498635555766"><ele>373.4</ele><time>2026-04-11T08:23:34Z</time></trkpt><trkpt lat="39.76402444388855" lon="9.215451262266981"><ele>375.6</ele><time>2026-04-11T08:23:35Z</time></trkpt><trkpt lat="39.76413062287249" lon="9.215406850424273"><ele>377.8</ele><time>2026-04-11T08:23:36Z</time></trkpt><trkpt lat="39.76424846096624" lon="9.21537053808264"><ele>380.0</ele><time>2026-04-11T08:23:37Z</time></trkpt><trkpt lat="39.76436374158123" lon="9.2153365247161"><ele>380.25</ele><time>2026-04-11T08:23:38Z</time></trkpt><trkpt lat="39.764479373812385" lon="9.215301324402635"><ele>380.5</ele><time>2026-04-11T08:23:39Z</time></trkpt><trkpt lat="39.76460059268129" lon="9.215246736811425"><ele>380.75</ele><time>2026-04-11T08:23:40Z</time></trkpt><trkpt lat="39.76472625246319" lon="9.215181560393342"><ele>381.0</ele><time>2026-04-11T08:23:41Z</time></trkpt><trkpt lat="39.76485256307714" lon="9.215103837523394"><ele>381.0</ele><time>2026-04-11T08:23:42Z</time></trkpt><trkpt lat="39.76497131372913" lon="9.214995291230874"><ele>381.0</ele><time>2026-04-11T08:23:43Z</time></trkpt><trkpt lat="39.76507319491791" lon="9.214851837878374"><ele>381.0</ele><time>2026-04-11T08:23:44Z</time></trkpt><trkpt lat="39.76516018965895" lon="9.214693156156523"><ele>381.0</ele><time>2026-04-11T08:23:45Z</time></trkpt><trkpt lat="39.76523247955443" lon="9.214522194028442"><ele>380.3333333333333</ele><time>2026-04-11T08:23:46Z</time></trkpt><trkpt lat="39.765281699765836" lon="9.214322346221708"><ele>379.66666666666663</ele><time>2026-04-11T08:23:47Z</time></trkpt><trkpt lat="39.76531957748634" lon="9.214119242335567"><ele>379.0</ele><time>2026-04-11T08:23:48Z</time></trkpt><trkpt lat="39.765362016868764" lon="9.213915427289026"><ele>382.0</ele><time>2026-04-11T08:23:49Z</time></trkpt><trkpt lat="39.76541120775135" lon="9.213711582312856"><ele>385.0</ele><time>2026-04-11T08:23:50Z</time></trkpt><trkpt lat="39.76545760930634" lon="9.213502935497226"><ele>388.0</ele><time>2026-04-11T08:23:51Z</time></trkpt><trkpt lat="39.765501954551986" lon="9.213296418303324"><ele>389.6666666666667</ele><time>2026-04-11T08:23:52Z</time></trkpt><trkpt lat="39.765582333731885" lon="9.213103398927677"><ele>391.33333333333337</ele><time>2026-04-11T08:23:53Z</time></trkpt><trkpt lat="39.765671716842" lon="9.212923202802756"><ele>393.0</ele><time>2026-04-11T08:23:54Z</time></trkpt><trkpt lat="39.765778882518035" lon="9.212757208810302"><ele>393.0</ele><time>2026-04-11T08:23:55Z</time></trkpt><trkpt lat="39.76590611751078" lon="9.212610083665341"><ele>393.0</ele><time>2026-04-11T08:23:56Z</time></trkpt><trkpt lat="39.766054358722904" lon="9.212495156930878"><ele>393.0</ele><time>2026-04-11T08:23:57Z</time></trkpt><trkpt lat="39.766204745050295" lon="9.212378595479384"><ele>393.33333333333337</ele><time>2026-04-11T08:23:58Z</time></trkpt><trkpt lat="39.76637990664198" lon="9.212356600952194"><ele>393.6666666666667</ele><time>2026-04-11T08:23:59Z</time></trkpt><trkpt lat="39.766549078458596" lon="9.212350842508206"><ele>394.0</ele><time>2026-04-11T08:24:00Z</time></trkpt><trkpt lat="39.76672495312038" lon="9.212360189342377"><ele>393.6666666666667</ele><time>2026-04-11T08:24:01Z</time></trkpt><trkpt lat="39.76688781755158" lon="9.212351940689976"><ele>393.33333333333337</ele><time>2026-04-11T08:24:02Z</time></trkpt><trkpt lat="39.767070570843806" lon="9.212320457775443"><ele>393.0</ele><time>2026-04-11T08:24:03Z</time></trkpt><trkpt lat="39.76724620698734" lon="9.212239291396502"><ele>397.0</ele><time>2026-04-11T08:24:04Z</time></trkpt><trkpt lat="39.76741977247301" lon="9.212134803506267"><ele>401.0</ele><time>2026-04-11T08:24:05Z</time></trkpt><trkpt lat="39.76759179536684" lon="9.212025191191133"><ele>405.0</ele><time>2026-04-11T08:24:06Z</time></trkpt><trkpt lat="39.76776040839618" lon="9.211915671453623"><ele>405.0</ele><time>2026-04-11T08:24:07Z</time></trkpt><trkpt lat="39.767931024157704" lon="9.211807931241777"><ele>405.0</ele><time>2026-04-11T08:24:08Z</time></trkpt><trkpt lat="39.76809969451226" lon="9.211702519028163"><ele>405.0</ele><time>2026-04-11T08:24:09Z</time></trkpt><trkpt lat="39.76826857700065" lon="9.211597406047444"><ele>405.0</ele><time>2026-04-11T08:24:10Z</time></trkpt><trkpt lat="39.76843753742037" lon="9.21149192856764"><ele>405.0</ele><time>2026-04-11T08:24:11Z</time></trkpt><trkpt lat="39.76860776610769" lon="9.211387860768722"><ele>405.0</ele><time>2026-04-11T08:24:12Z</time></trkpt><trkpt lat="39.768778098258295" lon="9.211286229882926"><ele>407.33333333333337</ele><time>2026-04-11T08:24:13Z</time></trkpt><trkpt lat="39.7689454781406" lon="9.21118652521168"><ele>409.6666666666667</ele><time>2026-04-11T08:24:14Z</time></trkpt><trkpt lat="39.76911197559609" lon="9.211086478742274"><ele>412.0</ele><time>2026-04-11T08:24:15Z</time></trkpt><trkpt lat="39.76927585104433" lon="9.210987701849584"><ele>412.0</ele><time>2026-04-11T08:24:16Z</time></trkpt><trkpt lat="39.769434549394234" lon="9.210884442083298"><ele>412.0</ele><time>2026-04-11T08:24:17Z</time></trkpt><trkpt lat="39.76958155583615" lon="9.210765742697067"><ele>412.0</ele><time>2026-04-11T08:24:18Z</time></trkpt><trkpt lat="39.76971495170013" lon="9.210619551848115"><ele>414.33333333333337</ele><time>2026-04-11T08:24:19Z</time></trkpt><trkpt lat="39.769843649931445" lon="9.21045056428002"><ele>416.66666666666663</ele><time>2026-04-11T08:24:20Z</time></trkpt><trkpt lat="39.76997069207753" lon="9.210282262036657"><ele>419.0</ele><time>2026-04-11T08:24:21Z</time></trkpt><trkpt lat="39.770104117757185" lon="9.210119681395167"><ele>419.0</ele><time>2026-04-11T08:24:22Z</time></trkpt><trkpt lat="39.77023955979636" lon="9.209956385582393"><ele>419.0</ele><time>2026-04-11T08:24:23Z</time></trkpt><trkpt lat="39.77037330205355" lon="9.209796059730015"><ele>419.0</ele><time>2026-04-11T08:24:24Z</time></trkpt><trkpt lat="39.77051022010431" lon="9.209633384717"><ele>420.66666666666663</ele><time>2026-04-11T08:24:25Z</time></trkpt><trkpt lat="39.77064486203086" lon="9.209473549872616"><ele>422.33333333333337</ele><time>2026-04-11T08:24:26Z</time></trkpt><trkpt lat="39.77077930361482" lon="9.20931199921711"><ele>424.0</ele><time>2026-04-11T08:24:27Z</time></trkpt><trkpt lat="39.77091221378701" lon="9.209153512966571"><ele>426.0</ele><time>2026-04-11T08:24:28Z</time></trkpt><trkpt lat="39.77104454570868" lon="9.20899741561918"><ele>428.0</ele><time>2026-04-11T08:24:29Z</time></trkpt><trkpt lat="39.77116858351599" lon="9.20884885821414"><ele>430.0</ele><time>2026-04-11T08:24:30Z</time></trkpt><trkpt lat="39.771277373858" lon="9.208701005315724"><ele>432.33333333333337</ele><time>2026-04-11T08:24:31Z</time></trkpt><trkpt lat="39.77136254624297" lon="9.208533667784032"><ele>434.66666666666663</ele><time>2026-04-11T08:24:32Z</time></trkpt><trkpt lat="39.77141465545205" lon="9.20833998452437"><ele>437.0</ele><time>2026-04-11T08:24:33Z</time></trkpt><trkpt lat="39.771429287123674" lon="9.208129891074861"><ele>440.0</ele><time>2026-04-11T08:24:34Z</time></trkpt><trkpt lat="39.77140205039471" lon="9.207915934532764"><ele>443.0</ele><time>2026-04-11T08:24:35Z</time></trkpt><trkpt lat="39.77134836730132" lon="9.207711784852359"><ele>446.0</ele><time>2026-04-11T08:24:36Z</time></trkpt><trkpt lat="39.77126701258561" lon="9.207519722109945"><ele>446.0</ele><time>2026-04-11T08:24:37Z</time></trkpt><trkpt lat="39.77118203042391" lon="9.207330569264938"><ele>446.0</ele><time>2026-04-11T08:24:38Z</time></trkpt><trkpt lat="39.7711128783563" lon="9.207136483872178"><ele>446.0</ele><time>2026-04-11T08:24:39Z</time></trkpt><trkpt lat="39.77106402778467" lon="9.20693847053521"><ele>449.0</ele><time>2026-04-11T08:24:40Z</time></trkpt><trkpt lat="39.77106481304489" lon="9.206734273637743"><ele>452.0</ele><time>2026-04-11T08:24:41Z</time></trkpt><trkpt lat="39.77108178527352" lon="9.2065397428815"><ele>455.0</ele><time>2026-04-11T08:24:42Z</time></trkpt><trkpt lat="39.77112072711916" lon="9.206339318724776"><ele>457.0</ele><time>2026-04-11T08:24:43Z</time></trkpt><trkpt lat="39.77116952869746" lon="9.206130471964336"><ele>459.0</ele><time>2026-04-11T08:24:44Z</time></trkpt><trkpt lat="39.77123214462565" lon="9.205926227238045"><ele>461.0</ele><time>2026-04-11T08:24:45Z</time></trkpt><trkpt lat="39.77127944165397" lon="9.205718506153215"><ele>464.25</ele><time>2026-04-11T08:24:46Z</time></trkpt><trkpt lat="39.77130351404436" lon="9.205514351517104"><ele>467.5</ele><time>2026-04-11T08:24:47Z</time></trkpt><trkpt lat="39.77128817602475" lon="9.205324253307934"><ele>470.75</ele><time>2026-04-11T08:24:48Z</time></trkpt><trkpt lat="39.77123127403387" lon="9.205156939418396"><ele>474.0</ele><time>2026-04-11T08:24:49Z</time></trkpt><trkpt lat="39.77113844645293" lon="9.20502514037527"><ele>474.0</ele><time>2026-04-11T08:24:50Z</time></trkpt><trkpt lat="39.77102783455924" lon="9.204925320963534"><ele>474.0</ele><time>2026-04-11T08:24:51Z</time></trkpt><trkpt lat="39.77092895117545" lon="9.204834078456678"><ele>474.0</ele><time>2026-04-11T08:24:52Z</time></trkpt><trkpt lat="39.770850554144545" lon="9.204719258570735"><ele>474.0</ele><time>2026-04-11T08:24:53Z</time></trkpt><trkpt lat="39.77081364965241" lon="9.204585759994925"><ele>475.0</ele><time>2026-04-11T08:24:54Z</time></trkpt><trkpt lat="39.770826268356245" lon="9.204454196123384"><ele>476.0</ele><time>2026-04-11T08:24:55Z</time></trkpt><trkpt lat="39.77088659683723" lon="9.20436367862586"><ele>477.0</ele><time>2026-04-11T08:24:56Z</time></trkpt><trkpt lat="39.770982412535446" lon="9.204357426862384"><ele>478.0</ele><time>2026-04-11T08:24:57Z</time></trkpt><trkpt lat="39.77107368467675" lon="9.204361274689031"><ele>479.0</ele><time>2026-04-11T08:24:58Z</time></trkpt><trkpt lat="39.7711563481922" lon="9.204474477241796"><ele>479.0</ele><time>2026-04-11T08:24:59Z</time></trkpt><trkpt lat="39.77122927058647" lon="9.204595339136151"><ele>479.0</ele><time>2026-04-11T08:25:00Z</time></trkpt><trkpt lat="39.77131710987603" lon="9.20473034343591"><ele>479.0</ele><time>2026-04-11T08:25:01Z</time></trkpt><trkpt lat="39.77141180448473" lon="9.204846772045453"><ele>479.0</ele><time>2026-04-11T08:25:02Z</time></trkpt><trkpt lat="39.77149872592875" lon="9.204985652415676"><ele>477.75</ele><time>2026-04-11T08:25:03Z</time></trkpt><trkpt lat="39.77159284893037" lon="9.205126494965421"><ele>476.5</ele><time>2026-04-11T08:25:04Z</time></trkpt><trkpt lat="39.771685894484385" lon="9.205274911836726"><ele>475.25</ele><time>2026-04-11T08:25:05Z</time></trkpt><trkpt lat="39.77178255676263" lon="9.205421842017236"><ele>474.0</ele><time>2026-04-11T08:25:06Z</time></trkpt><trkpt lat="39.771869870133166" lon="9.205582489907865"><ele>477.33333333333337</ele><time>2026-04-11T08:25:07Z</time></trkpt><trkpt lat="39.77196797353476" lon="9.20573645719979"><ele>480.6666666666667</ele><time>2026-04-11T08:25:08Z</time></trkpt><trkpt lat="39.77206796188797" lon="9.205878326391481"><ele>484.0</ele><time>2026-04-11T08:25:09Z</time></trkpt><trkpt lat="39.77216080533369" lon="9.206035925754252"><ele>484.0</ele><time>2026-04-11T08:25:10Z</time></trkpt><trkpt lat="39.77226762853643" lon="9.206181751488641"><ele>484.0</ele><time>2026-04-11T08:25:11Z</time></trkpt><trkpt lat="39.77236841177634" lon="9.206328635080585"><ele>484.0</ele><time>2026-04-11T08:25:12Z</time></trkpt><trkpt lat="39.77246503255146" lon="9.206491780720073"><ele>482.33333333333337</ele><time>2026-04-11T08:25:13Z</time></trkpt><trkpt lat="39.77256976326526" lon="9.206650860295138"><ele>480.66666666666663</ele><time>2026-04-11T08:25:14Z</time></trkpt><trkpt lat="39.772690342791876" lon="9.20680480755526"><ele>479.0</ele><time>2026-04-11T08:25:15Z</time></trkpt><trkpt lat="39.77281906411788" lon="9.206950157784915"><ele>482.3333333333333</ele><time>2026-04-11T08:25:16Z</time></trkpt><trkpt lat="39.772956453543195" lon="9.20708134288402"><ele>485.66666666666663</ele><time>2026-04-11T08:25:17Z</time></trkpt><trkpt lat="39.773096339712616" lon="9.207208694720295"><ele>489.0</ele><time>2026-04-11T08:25:18Z</time></trkpt><trkpt lat="39.77323679835542" lon="9.207332087481689"><ele>489.0</ele><time>2026-04-11T08:25:19Z</time></trkpt><trkpt lat="39.77337062789372" lon="9.207459067262988"><ele>489.0</ele><time>2026-04-11T08:25:20Z</time></trkpt><trkpt lat="39.773497876858094" lon="9.207585878605629"><ele>489.0</ele><time>2026-04-11T08:25:21Z</time></trkpt><trkpt lat="39.77363674446326" lon="9.207699109752236"><ele>498.0</ele><time>2026-04-11T08:25:22Z</time></trkpt><trkpt lat="39.77378677115713" lon="9.20777249422254"><ele>507.0</ele><time>2026-04-11T08:25:23Z</time></trkpt><trkpt lat="39.77394394221321" lon="9.20782131093368"><ele>516.0</ele><time>2026-04-11T08:25:24Z</time></trkpt><trkpt lat="39.774086929411624" lon="9.207886179752194"><ele>516.0</ele><time>2026-04-11T08:25:25Z</time></trkpt><trkpt lat="39.77421540977038" lon="9.20794960771735"><ele>516.0</ele><time>2026-04-11T08:25:26Z</time></trkpt><trkpt lat="39.774316424607846" lon="9.208057631692485"><ele>516.0</ele><time>2026-04-11T08:25:27Z</time></trkpt><trkpt lat="39.77437948623556" lon="9.208199934428908"><ele>516.0</ele><time>2026-04-11T08:25:28Z</time></trkpt><trkpt lat="39.774408998206404" lon="9.208369109548201"><ele>520.0</ele><time>2026-04-11T08:25:29Z</time></trkpt><trkpt lat="39.77441223247579" lon="9.208563594954546"><ele>524.0</ele><time>2026-04-11T08:25:30Z</time></trkpt><trkpt lat="39.77442306061052" lon="9.208778663055206"><ele>528.0</ele><time>2026-04-11T08:25:31Z</time></trkpt><trkpt lat="39.77441366658908" lon="9.209000613332748"><ele>530.0</ele><time>2026-04-11T08:25:32Z</time></trkpt><trkpt lat="39.774412265442116" lon="9.209230522724"><ele>532.0</ele><time>2026-04-11T08:25:33Z</time></trkpt><trkpt lat="39.7744120321629" lon="9.209467766854532"><ele>534.0</ele><time>2026-04-11T08:25:34Z</time></trkpt><trkpt lat="39.77441074596779" lon="9.209711061876757"><ele>536.3333333333334</ele><time>2026-04-11T08:25:35Z</time></trkpt><trkpt lat="39.77440390224492" lon="9.20995783637576"><ele>538.6666666666667</ele><time>2026-04-11T08:25:36Z</time></trkpt><trkpt lat="39.7743988256557" lon="9.210205474061937"><ele>541.0</ele><time>2026-04-11T08:25:37Z</time></trkpt><trkpt lat="39.7743987582381" lon="9.210455042573795"><ele>540.6666666666667</ele><time>2026-04-11T08:25:38Z</time></trkpt><trkpt lat="39.77439106734884" lon="9.210697224824399"><ele>540.3333333333334</ele><time>2026-04-11T08:25:39Z</time></trkpt><trkpt lat="39.77438529681527" lon="9.210910602086887"><ele>540.0</ele><time>2026-04-11T08:25:40Z</time></trkpt><trkpt lat="39.77438393507775" lon="9.211095491890388"><ele>540.0</ele><time>2026-04-11T08:25:41Z</time></trkpt><trkpt lat="39.77439236859454" lon="9.211259455609609"><ele>540.0</ele><time>2026-04-11T08:25:42Z</time></trkpt><trkpt lat="39.77441852987436" lon="9.211398278588684"><ele>540.0</ele><time>2026-04-11T08:25:43Z</time></trkpt><trkpt lat="39.774459843748105" lon="9.211512731220854"><ele>540.0</ele><time>2026-04-11T08:25:44Z</time></trkpt><trkpt lat="39.774506824852246" lon="9.211598931258349"><ele>540.0</ele><time>2026-04-11T08:25:45Z</time></trkpt><trkpt lat="39.77454878478887" lon="9.21166916681635"><ele>538.3333333333334</ele><time>2026-04-11T08:25:46Z</time></trkpt><trkpt lat="39.774646591825274" lon="9.211760849570126"><ele>536.6666666666666</ele><time>2026-04-11T08:25:48Z</time></trkpt><trkpt lat="39.7747058668787" lon="9.211801049002988"><ele>535.0</ele><time>2026-04-11T08:25:49Z</time></trkpt><trkpt lat="39.774776233222354" lon="9.21183921305501"><ele>533.3333333333333</ele><time>2026-04-11T08:25:50Z</time></trkpt><trkpt lat="39.77485635956636" lon="9.211872165267408"><ele>531.6666666666666</ele><time>2026-04-11T08:25:51Z</time></trkpt><trkpt lat="39.77494062178321" lon="9.211898920413153"><ele>530.0</ele><time>2026-04-11T08:25:52Z</time></trkpt><trkpt lat="39.7750335080832" lon="9.211909463494386"><ele>530.0</ele><time>2026-04-11T08:25:53Z</time></trkpt><trkpt lat="39.77512974593099" lon="9.211915619972931"><ele>530.0</ele><time>2026-04-11T08:25:54Z</time></trkpt><trkpt lat="39.77523201784173" lon="9.211918016007193"><ele>530.0</ele><time>2026-04-11T08:25:55Z</time></trkpt><trkpt lat="39.775337587019564" lon="9.21192027487324"><ele>530.0</ele><time>2026-04-11T08:25:56Z</time></trkpt><trkpt lat="39.77544758516131" lon="9.211922978188097"><ele>530.0</ele><time>2026-04-11T08:25:57Z</time></trkpt><trkpt lat="39.77556268560075" lon="9.211930065244017"><ele>533.0</ele><time>2026-04-11T08:25:58Z</time></trkpt><trkpt lat="39.77567358906403" lon="9.211936539867203"><ele>536.0</ele><time>2026-04-11T08:25:59Z</time></trkpt><trkpt lat="39.7757937384776" lon="9.2119422528506"><ele>539.0</ele><time>2026-04-11T08:26:00Z</time></trkpt><trkpt lat="39.77591696738971" lon="9.211953299677495"><ele>542.0</ele><time>2026-04-11T08:26:01Z</time></trkpt><trkpt lat="39.77604421640925" lon="9.21196203029504"><ele>546.0</ele><time>2026-04-11T08:26:02Z</time></trkpt><trkpt lat="39.77617371540062" lon="9.211975675587558"><ele>550.0</ele><time>2026-04-11T08:26:03Z</time></trkpt><trkpt lat="39.776305445028235" lon="9.212005737099947"><ele>554.0</ele><time>2026-04-11T08:26:04Z</time></trkpt><trkpt lat="39.77643686628886" lon="9.212045851487128"><ele>558.0</ele><time>2026-04-11T08:26:05Z</time></trkpt><trkpt lat="39.77656719996646" lon="9.21209520441461"><ele>558.0</ele><time>2026-04-11T08:26:06Z</time></trkpt><trkpt lat="39.77668816821191" lon="9.212180154772158"><ele>558.0</ele><time>2026-04-11T08:26:07Z</time></trkpt><trkpt lat="39.77681873977811" lon="9.212237241039267"><ele>558.0</ele><time>2026-04-11T08:26:08Z</time></trkpt><trkpt lat="39.77694418443514" lon="9.2123106622479"><ele>558.0</ele><time>2026-04-11T08:26:09Z</time></trkpt><trkpt lat="39.77706890678605" lon="9.212379343633708"><ele>557.25</ele><time>2026-04-11T08:26:10Z</time></trkpt><trkpt lat="39.77719404033342" lon="9.21244440384242"><ele>556.5</ele><time>2026-04-11T08:26:11Z</time></trkpt><trkpt lat="39.777317371231206" lon="9.212510386262394"><ele>555.75</ele><time>2026-04-11T08:26:12Z</time></trkpt><trkpt lat="39.77743661728305" lon="9.212581330941392"><ele>555.0</ele><time>2026-04-11T08:26:13Z</time></trkpt><trkpt lat="39.777552337392585" lon="9.212655852758601"><ele>555.0</ele><time>2026-04-11T08:26:14Z</time></trkpt><trkpt lat="39.77766483557297" lon="9.21273614941219"><ele>555.0</ele><time>2026-04-11T08:26:15Z</time></trkpt><trkpt lat="39.77777229628276" lon="9.212825272418181"><ele>555.0</ele><time>2026-04-11T08:26:16Z</time></trkpt><trkpt lat="39.77787188167441" lon="9.212920901323933"><ele>555.0</ele><time>2026-04-11T08:26:17Z</time></trkpt><trkpt lat="39.77795763725373" lon="9.213022471587202"><ele>557.2</ele><time>2026-04-11T08:26:18Z</time></trkpt><trkpt lat="39.77802792837896" lon="9.213133280090858"><ele>559.4</ele><time>2026-04-11T08:26:19Z</time></trkpt><trkpt lat="39.77805820968716" lon="9.21326643050753"><ele>561.6</ele><time>2026-04-11T08:26:20Z</time></trkpt><trkpt lat="39.77804175396139" lon="9.213409737147023"><ele>563.8</ele><time>2026-04-11T08:26:21Z</time></trkpt><trkpt lat="39.77806653801076" lon="9.21353743649649"><ele>566.0</ele><time>2026-04-11T08:26:22Z</time></trkpt><trkpt lat="39.77808421630064" lon="9.213672631218895"><ele>566.0</ele><time>2026-04-11T08:26:23Z</time></trkpt><trkpt lat="39.77810964966259" lon="9.21380793542195"><ele>566.0</ele><time>2026-04-11T08:26:24Z</time></trkpt><trkpt lat="39.77814324443123" lon="9.213942632493094"><ele>566.0</ele><time>2026-04-11T08:26:25Z</time></trkpt><trkpt lat="39.778180015622645" lon="9.214071213018691"><ele>566.0</ele><time>2026-04-11T08:26:26Z</time></trkpt><trkpt lat="39.77821519935777" lon="9.214201248236435"><ele>566.0</ele><time>2026-04-11T08:26:27Z</time></trkpt><trkpt lat="39.7782498300889" lon="9.214309114288575"><ele>565.6</ele><time>2026-04-11T08:26:28Z</time></trkpt><trkpt lat="39.778298432363194" lon="9.214396539743618"><ele>565.2</ele><time>2026-04-11T08:26:29Z</time></trkpt><trkpt lat="39.77833456975455" lon="9.21447476064397"><ele>564.8</ele><time>2026-04-11T08:26:30Z</time></trkpt><trkpt lat="39.778403313787265" lon="9.214525499445116"><ele>564.4</ele><time>2026-04-11T08:26:31Z</time></trkpt><trkpt lat="39.77854374729258" lon="9.214615679170063"><ele>564.0</ele><time>2026-04-11T08:26:33Z</time></trkpt><trkpt lat="39.778607461130086" lon="9.214657149659713"><ele>566.2</ele><time>2026-04-11T08:26:34Z</time></trkpt><trkpt lat="39.77867397172629" lon="9.214700440257406"><ele>568.4</ele><time>2026-04-11T08:26:37Z</time></trkpt><trkpt lat="39.77879850863039" lon="9.214610902025065"><ele>570.6</ele><time>2026-04-11T08:26:39Z</time></trkpt><trkpt lat="39.77886807651426" lon="9.214612255043946"><ele>572.8</ele><time>2026-04-11T08:26:40Z</time></trkpt><trkpt lat="39.77893388297317" lon="9.214594979279923"><ele>575.0</ele><time>2026-04-11T08:26:41Z</time></trkpt><trkpt lat="39.77903330255338" lon="9.214509489548977"><ele>575.0</ele><time>2026-04-11T08:26:43Z</time></trkpt><trkpt lat="39.77907853429842" lon="9.21445208405041"><ele>575.0</ele><time>2026-04-11T08:26:44Z</time></trkpt><trkpt lat="39.77911095556194" lon="9.214369737268603"><ele>575.0</ele><time>2026-04-11T08:26:45Z</time></trkpt><trkpt lat="39.779137084080794" lon="9.214276332534132"><ele>575.0</ele><time>2026-04-11T08:26:46Z</time></trkpt><trkpt lat="39.77916847954116" lon="9.214181643858204"><ele>575.0</ele><time>2026-04-11T08:26:47Z</time></trkpt><trkpt lat="39.779198991087725" lon="9.214084102369156"><ele>575.0</ele><time>2026-04-11T08:26:48Z</time></trkpt><trkpt lat="39.77923333754544" lon="9.213993136560203"><ele>575.0</ele><time>2026-04-11T08:26:49Z</time></trkpt><trkpt lat="39.779273192135555" lon="9.21390412883463"><ele>575.5714285714286</ele><time>2026-04-11T08:26:50Z</time></trkpt><trkpt lat="39.77931867809153" lon="9.213826245242764"><ele>576.1428571428571</ele><time>2026-04-11T08:26:51Z</time></trkpt><trkpt lat="39.77936130667011" lon="9.213754890237821"><ele>576.7142857142857</ele><time>2026-04-11T08:26:52Z</time></trkpt><trkpt lat="39.77941777669827" lon="9.213698799490142"><ele>577.2857142857142</ele><time>2026-04-11T08:26:53Z</time></trkpt><trkpt lat="39.77947879580621" lon="9.213638127357054"><ele>577.8571428571429</ele><time>2026-04-11T08:26:54Z</time></trkpt><trkpt lat="39.77953492071089" lon="9.213580476636748"><ele>578.4285714285713</ele><time>2026-04-11T08:26:55Z</time></trkpt><trkpt lat="39.779592068364174" lon="9.213523038686002"><ele>579.0</ele><time>2026-04-11T08:26:57Z</time></trkpt><trkpt lat="39.77964348330406" lon="9.213463751863094"><ele>579.2</ele><time>2026-04-11T08:26:59Z</time></trkpt><trkpt lat="39.77972286318296" lon="9.21332551222966"><ele>579.4</ele><time>2026-04-11T08:27:01Z</time></trkpt><trkpt lat="39.77975279597312" lon="9.213235436586336"><ele>579.6</ele><time>2026-04-11T08:27:02Z</time></trkpt><trkpt lat="39.77980074639924" lon="9.21314520895388"><ele>579.8</ele><time>2026-04-11T08:27:03Z</time></trkpt><trkpt lat="39.77983654175912" lon="9.213036899486951"><ele>580.0</ele><time>2026-04-11T08:27:04Z</time></trkpt><trkpt lat="39.77987640393417" lon="9.212921180799663"><ele>581.2</ele><time>2026-04-11T08:27:05Z</time></trkpt><trkpt lat="39.77990854713071" lon="9.21280086925511"><ele>582.4</ele><time>2026-04-11T08:27:06Z</time></trkpt><trkpt lat="39.77996408620563" lon="9.212683988285116"><ele>583.6</ele><time>2026-04-11T08:27:07Z</time></trkpt><trkpt lat="39.78001815414596" lon="9.212565081801415"><ele>584.8</ele><time>2026-04-11T08:27:08Z</time></trkpt><trkpt lat="39.78006732279547" lon="9.212454812683376"><ele>586.0</ele><time>2026-04-11T08:27:09Z</time></trkpt><trkpt lat="39.78010667294744" lon="9.212373296261864"><ele>586.8</ele><time>2026-04-11T08:27:10Z</time></trkpt><trkpt lat="39.78016416287709" lon="9.21229403245924"><ele>587.6</ele><time>2026-04-11T08:27:12Z</time></trkpt><trkpt lat="39.78024437619829" lon="9.212247477333985"><ele>588.4</ele><time>2026-04-11T08:27:14Z</time></trkpt><trkpt lat="39.78038913357547" lon="9.212242828811373"><ele>589.2</ele><time>2026-04-11T08:27:16Z</time></trkpt><trkpt lat="39.780464311871896" lon="9.212219878225769"><ele>590.0</ele><time>2026-04-11T08:27:17Z</time></trkpt><trkpt lat="39.780541797494905" lon="9.21218335860476"><ele>590.1666666666666</ele><time>2026-04-11T08:27:18Z</time></trkpt><trkpt lat="39.78062910034973" lon="9.212150286089983"><ele>590.3333333333333</ele><time>2026-04-11T08:27:19Z</time></trkpt><trkpt lat="39.7807193796411" lon="9.212133660461037"><ele>590.5</ele><time>2026-04-11T08:27:20Z</time></trkpt><trkpt lat="39.78080088713357" lon="9.212143314604992"><ele>590.6666666666666</ele><time>2026-04-11T08:27:21Z</time></trkpt><trkpt lat="39.780864893224596" lon="9.212173140477951"><ele>590.8333333333334</ele><time>2026-04-11T08:27:22Z</time></trkpt><trkpt lat="39.7809435105863" lon="9.212206146891027"><ele>591.0</ele><time>2026-04-11T08:27:24Z</time></trkpt><trkpt lat="39.78101406236307" lon="9.212034194512565"><ele>590.6666666666666</ele><time>2026-04-11T08:27:25Z</time></trkpt><trkpt lat="39.78105367313329" lon="9.21195345273241"><ele>590.3333333333334</ele><time>2026-04-11T08:27:26Z</time></trkpt><trkpt lat="39.78110282611854" lon="9.211864271854044"><ele>590.0</ele><time>2026-04-11T08:27:27Z</time></trkpt><trkpt lat="39.78116242165509" lon="9.211770190797134"><ele>589.6666666666667</ele><time>2026-04-11T08:27:28Z</time></trkpt><trkpt lat="39.78122327620487" lon="9.211678245695126"><ele>589.3333333333334</ele><time>2026-04-11T08:27:29Z</time></trkpt><trkpt lat="39.78126441635371" lon="9.21161149829929"><ele>589.0</ele><time>2026-04-11T08:27:30Z</time></trkpt><trkpt lat="39.78131000583826" lon="9.211546108113943"><ele>589.0</ele><time>2026-04-11T08:27:32Z</time></trkpt><trkpt lat="39.78126748050234" lon="9.211626867814106"><ele>589.0</ele><time>2026-04-11T08:27:49Z</time></trkpt><trkpt lat="39.7812103685886" lon="9.211687396606672"><ele>589.0</ele><time>2026-04-11T08:27:50Z</time></trkpt><trkpt lat="39.78114028253805" lon="9.211787554130341"><ele>589.0</ele><time>2026-04-11T08:27:51Z</time></trkpt><trkpt lat="39.78107845422933" lon="9.211886836886215"><ele>589.0</ele><time>2026-04-11T08:27:52Z</time></trkpt><trkpt lat="39.781012608261214" lon="9.21197538818153"><ele>589.0</ele><time>2026-04-11T08:27:53Z</time></trkpt><trkpt lat="39.7809685127288" lon="9.212041679964532"><ele>589.0</ele><time>2026-04-11T08:27:54Z</time></trkpt><trkpt lat="39.780938420529665" lon="9.21211521220359"><ele>589.0</ele><time>2026-04-11T08:27:56Z</time></trkpt><trkpt lat="39.780965104829576" lon="9.212235916541896"><ele>589.0</ele><time>2026-04-11T08:27:59Z</time></trkpt><trkpt lat="39.78104149574313" lon="9.212283793454041"><ele>589.0</ele><time>2026-04-11T08:28:00Z</time></trkpt><trkpt lat="39.781103108678266" lon="9.212328215779499"><ele>589.0</ele><time>2026-04-11T08:28:01Z</time></trkpt><trkpt lat="39.781172314224875" lon="9.212384628510538"><ele>589.0</ele><time>2026-04-11T08:28:02Z</time></trkpt><trkpt lat="39.78123914340409" lon="9.21244883659457"><ele>587.8333333333334</ele><time>2026-04-11T08:28:03Z</time></trkpt><trkpt lat="39.781306740740156" lon="9.212491269334992"><ele>586.6666666666667</ele><time>2026-04-11T08:28:04Z</time></trkpt><trkpt lat="39.781393323140925" lon="9.21251833275658"><ele>585.5</ele><time>2026-04-11T08:28:05Z</time></trkpt><trkpt lat="39.781477128184406" lon="9.21255131317441"><ele>584.3333333333334</ele><time>2026-04-11T08:28:06Z</time></trkpt><trkpt lat="39.78154929877853" lon="9.212582030244796"><ele>583.1666666666666</ele><time>2026-04-11T08:28:07Z</time></trkpt><trkpt lat="39.78161390709849" lon="9.212608388139078"><ele>582.0</ele><time>2026-04-11T08:28:08Z</time></trkpt><trkpt lat="39.7816804220005" lon="9.212629305787088"><ele>582.0</ele><time>2026-04-11T08:28:09Z</time></trkpt><trkpt lat="39.78175000448217" lon="9.212659410347298"><ele>582.0</ele><time>2026-04-11T08:28:10Z</time></trkpt><trkpt lat="39.78182683991719" lon="9.212695713864544"><ele>582.0</ele><time>2026-04-11T08:28:11Z</time></trkpt><trkpt lat="39.781900480601536" lon="9.212760582621163"><ele>582.0</ele><time>2026-04-11T08:28:12Z</time></trkpt><trkpt lat="39.78198461311457" lon="9.212793293175228"><ele>582.0</ele><time>2026-04-11T08:28:13Z</time></trkpt><trkpt lat="39.78206358588796" lon="9.212823997681076"><ele>582.0</ele><time>2026-04-11T08:28:14Z</time></trkpt><trkpt lat="39.78213341682908" lon="9.21285342373969"><ele>581.6666666666666</ele><time>2026-04-11T08:28:15Z</time></trkpt><trkpt lat="39.78221742069823" lon="9.212887314292649"><ele>581.3333333333334</ele><time>2026-04-11T08:28:17Z</time></trkpt><trkpt lat="39.78228059711468" lon="9.212931591199304"><ele>581.0</ele><time>2026-04-11T08:28:21Z</time></trkpt><trkpt lat="39.782338434489006" lon="9.213003917626"><ele>580.6666666666667</ele><time>2026-04-11T08:28:25Z</time></trkpt><trkpt lat="39.782402249391396" lon="9.213063447846267"><ele>580.3333333333334</ele><time>2026-04-11T08:28:27Z</time></trkpt><trkpt lat="39.78250830273645" lon="9.213103447912856"><ele>580.0</ele><time>2026-04-11T08:28:29Z</time></trkpt><trkpt lat="39.78257561853472" lon="9.213127245952538"><ele>580.0</ele><time>2026-04-11T08:28:33Z</time></trkpt><trkpt lat="39.782478163716426" lon="9.213093618310639"><ele>580.0</ele><time>2026-04-11T08:28:41Z</time></trkpt><trkpt lat="39.78241757718799" lon="9.213068503098643"><ele>580.0</ele><time>2026-04-11T08:28:42Z</time></trkpt><trkpt lat="39.7823389312115" lon="9.213004848578842"><ele>580.0</ele><time>2026-04-11T08:28:44Z</time></trkpt><trkpt lat="39.78246296185487" lon="9.212749305915066"><ele>580.0</ele><time>2026-04-11T08:28:45Z</time></trkpt><trkpt lat="39.78253644929851" lon="9.21265251691489"><ele>580.0</ele><time>2026-04-11T08:28:46Z</time></trkpt><trkpt lat="39.78262367672142" lon="9.21256439267724"><ele>580.0</ele><time>2026-04-11T08:28:47Z</time></trkpt><trkpt lat="39.78272770478998" lon="9.21248149096723"><ele>580.0</ele><time>2026-04-11T08:28:48Z</time></trkpt><trkpt lat="39.782842631661104" lon="9.212461509283914"><ele>581.0</ele><time>2026-04-11T08:28:49Z</time></trkpt><trkpt lat="39.782942901559025" lon="9.212412189650474"><ele>582.0</ele><time>2026-04-11T08:28:50Z</time></trkpt><trkpt lat="39.78301770764671" lon="9.212349002668699"><ele>583.0</ele><time>2026-04-11T08:28:51Z</time></trkpt><trkpt lat="39.78312415858646" lon="9.21231147380921"><ele>584.0</ele><time>2026-04-11T08:28:53Z</time></trkpt><trkpt lat="39.783230177714394" lon="9.212454147051576"><ele>584.0</ele><time>2026-04-11T08:28:54Z</time></trkpt><trkpt lat="39.783321202698865" lon="9.212499381372723"><ele>584.0</ele><time>2026-04-11T08:28:55Z</time></trkpt><trkpt lat="39.78340514040118" lon="9.212553424235916"><ele>584.0</ele><time>2026-04-11T08:28:56Z</time></trkpt><trkpt lat="39.78349581152602" lon="9.212627680786436"><ele>584.0</ele><time>2026-04-11T08:28:57Z</time></trkpt><trkpt lat="39.78360248517375" lon="9.212681825232998"><ele>584.0</ele><time>2026-04-11T08:28:58Z</time></trkpt><trkpt lat="39.78373199914787" lon="9.212690152428957"><ele>584.5</ele><time>2026-04-11T08:28:59Z</time></trkpt><trkpt lat="39.783857764947086" lon="9.212708240697737"><ele>585.0</ele><time>2026-04-11T08:29:00Z</time></trkpt><trkpt lat="39.783986208424466" lon="9.21270943261409"><ele>585.5</ele><time>2026-04-11T08:29:01Z</time></trkpt><trkpt lat="39.784115212517506" lon="9.212707061528818"><ele>586.0</ele><time>2026-04-11T08:29:02Z</time></trkpt><trkpt lat="39.78424392554684" lon="9.212691590259219"><ele>585.5</ele><time>2026-04-11T08:29:03Z</time></trkpt><trkpt lat="39.78436251058907" lon="9.212650396039802"><ele>585.0</ele><time>2026-04-11T08:29:04Z</time></trkpt><trkpt lat="39.78447650610491" lon="9.21258895698448"><ele>584.5</ele><time>2026-04-11T08:29:05Z</time></trkpt><trkpt lat="39.7845794132361" lon="9.212476684379867"><ele>584.0</ele><time>2026-04-11T08:29:06Z</time></trkpt><trkpt lat="39.784663944471184" lon="9.212344395561963"><ele>585.2</ele><time>2026-04-11T08:29:07Z</time></trkpt><trkpt lat="39.7847627471182" lon="9.212248337961777"><ele>586.4</ele><time>2026-04-11T08:29:08Z</time></trkpt><trkpt lat="39.78487351034432" lon="9.212205592081512"><ele>587.6</ele><time>2026-04-11T08:29:09Z</time></trkpt><trkpt lat="39.784965894733176" lon="9.212215851438028"><ele>588.8</ele><time>2026-04-11T08:29:10Z</time></trkpt><trkpt lat="39.785043867311316" lon="9.212213092121983"><ele>590.0</ele><time>2026-04-11T08:29:11Z</time></trkpt><trkpt lat="39.78510918363051" lon="9.212214942823858"><ele>590.6</ele><time>2026-04-11T08:29:12Z</time></trkpt><trkpt lat="39.78524551022607" lon="9.21219455821834"><ele>591.2</ele><time>2026-04-11T08:29:14Z</time></trkpt><trkpt lat="39.785326583583945" lon="9.21219759694719"><ele>591.8</ele><time>2026-04-11T08:29:15Z</time></trkpt><trkpt lat="39.785412646560104" lon="9.21220056283174"><ele>592.4</ele><time>2026-04-11T08:29:16Z</time></trkpt><trkpt lat="39.785503423925604" lon="9.212199238460899"><ele>593.0</ele><time>2026-04-11T08:29:17Z</time></trkpt><trkpt lat="39.78559461258363" lon="9.212199929864791"><ele>593.0</ele><time>2026-04-11T08:29:18Z</time></trkpt><trkpt lat="39.785686024923585" lon="9.212203862007662"><ele>593.0</ele><time>2026-04-11T08:29:19Z</time></trkpt><trkpt lat="39.785773883032135" lon="9.21220117679167"><ele>593.0</ele><time>2026-04-11T08:29:20Z</time></trkpt><trkpt lat="39.78585688338505" lon="9.212196613616303"><ele>593.0</ele><time>2026-04-11T08:29:21Z</time></trkpt><trkpt lat="39.78593870732767" lon="9.212193120222409"><ele>593.0</ele><time>2026-04-11T08:29:22Z</time></trkpt><trkpt lat="39.78603300784722" lon="9.212186447441352"><ele>593.0</ele><time>2026-04-11T08:29:23Z</time></trkpt><trkpt lat="39.78612740795138" lon="9.212159844883415"><ele>593.1999999999999</ele><time>2026-04-11T08:29:24Z</time></trkpt><trkpt lat="39.78621833596221" lon="9.212104703113797"><ele>593.4</ele><time>2026-04-11T08:29:25Z</time></trkpt><trkpt lat="39.786310346568705" lon="9.212035856526692"><ele>593.5999999999999</ele><time>2026-04-11T08:29:26Z</time></trkpt><trkpt lat="39.78640091835922" lon="9.21195247326712"><ele>593.8</ele><time>2026-04-11T08:29:27Z</time></trkpt><trkpt lat="39.78648950776152" lon="9.211858331120025"><ele>594.0</ele><time>2026-04-11T08:29:28Z</time></trkpt><trkpt lat="39.78658058034171" lon="9.211771359328793"><ele>594.0</ele><time>2026-04-11T08:29:29Z</time></trkpt><trkpt lat="39.78667643676282" lon="9.211720859201673"><ele>594.0</ele><time>2026-04-11T08:29:30Z</time></trkpt><trkpt lat="39.786784820467055" lon="9.211699341824996"><ele>594.0</ele><time>2026-04-11T08:29:31Z</time></trkpt><trkpt lat="39.78689970962485" lon="9.211701540840597"><ele>594.0</ele><time>2026-04-11T08:29:32Z</time></trkpt><trkpt lat="39.78701950646343" lon="9.21171199303485"><ele>594.0</ele><time>2026-04-11T08:29:33Z</time></trkpt><trkpt lat="39.787143905901104" lon="9.211720126941492"><ele>594.25</ele><time>2026-04-11T08:29:34Z</time></trkpt><trkpt lat="39.787272677705694" lon="9.211720851877047"><ele>594.5</ele><time>2026-04-11T08:29:35Z</time></trkpt><trkpt lat="39.787403588770346" lon="9.211717040949312"><ele>594.75</ele><time>2026-04-11T08:29:36Z</time></trkpt><trkpt lat="39.78753451568915" lon="9.211715570666815"><ele>595.0</ele><time>2026-04-11T08:29:37Z</time></trkpt><trkpt lat="39.78766663749047" lon="9.211723175650638"><ele>596.25</ele><time>2026-04-11T08:29:38Z</time></trkpt><trkpt lat="39.78779844384691" lon="9.211743687490516"><ele>597.5</ele><time>2026-04-11T08:29:39Z</time></trkpt><trkpt lat="39.78793040774519" lon="9.211776662558027"><ele>598.75</ele><time>2026-04-11T08:29:40Z</time></trkpt><trkpt lat="39.78806194886274" lon="9.211821936104547"><ele>600.0</ele><time>2026-04-11T08:29:41Z</time></trkpt><trkpt lat="39.788187574289935" lon="9.211870764262146"><ele>600.0</ele><time>2026-04-11T08:29:42Z</time></trkpt><trkpt lat="39.788314719142754" lon="9.211917953700269"><ele>600.0</ele><time>2026-04-11T08:29:43Z</time></trkpt><trkpt lat="39.788437109409735" lon="9.211964941214292"><ele>600.0</ele><time>2026-04-11T08:29:44Z</time></trkpt><trkpt lat="39.7885553926827" lon="9.212010426142893"><ele>600.0</ele><time>2026-04-11T08:29:45Z</time></trkpt><trkpt lat="39.78866852667138" lon="9.212070976100133"><ele>598.5</ele><time>2026-04-11T08:29:46Z</time></trkpt><trkpt lat="39.78877814569658" lon="9.212159502093948"><ele>597.0</ele><time>2026-04-11T08:29:47Z</time></trkpt><trkpt lat="39.78888464381198" lon="9.212263023413895"><ele>595.5</ele><time>2026-04-11T08:29:48Z</time></trkpt><trkpt lat="39.78899600641454" lon="9.212373637115094"><ele>594.0</ele><time>2026-04-11T08:29:49Z</time></trkpt><trkpt lat="39.78909150342247" lon="9.212500917966087"><ele>594.0</ele><time>2026-04-11T08:29:50Z</time></trkpt><trkpt lat="39.7891773968083" lon="9.212597260412513"><ele>594.0</ele><time>2026-04-11T08:29:51Z</time></trkpt><trkpt lat="39.7892441688557" lon="9.212671789340723"><ele>594.0</ele><time>2026-04-11T08:29:52Z</time></trkpt><trkpt lat="39.789306034276464" lon="9.212713554430978"><ele>594.0</ele><time>2026-04-11T08:29:53Z</time></trkpt><trkpt lat="39.789368016946426" lon="9.212795888068179"><ele>594.0</ele><time>2026-04-11T08:29:55Z</time></trkpt><trkpt lat="39.78942264340298" lon="9.212871342525872"><ele>594.0</ele><time>2026-04-11T08:29:58Z</time></trkpt><trkpt lat="39.78947502386791" lon="9.212969248766496"><ele>593.8571428571429</ele><time>2026-04-11T08:30:01Z</time></trkpt><trkpt lat="39.7895202908732" lon="9.213027254982714"><ele>593.7142857142858</ele><time>2026-04-11T08:30:03Z</time></trkpt><trkpt lat="39.789572185426564" lon="9.21309513674132"><ele>593.5714285714286</ele><time>2026-04-11T08:30:06Z</time></trkpt><trkpt lat="39.78962022063593" lon="9.213158695411575"><ele>593.4285714285714</ele><time>2026-04-11T08:30:10Z</time></trkpt><trkpt lat="39.78966444764521" lon="9.2132222934523"><ele>593.2857142857142</ele><time>2026-04-11T08:30:15Z</time></trkpt><trkpt lat="39.78971525408441" lon="9.213291982263861"><ele>593.1428571428571</ele><time>2026-04-11T08:30:18Z</time></trkpt><trkpt lat="39.789786208017745" lon="9.21338545869622"><ele>593.0</ele><time>2026-04-11T08:30:20Z</time></trkpt><trkpt lat="39.78982895534573" lon="9.213450583816032"><ele>593.0</ele><time>2026-04-11T08:30:21Z</time></trkpt><trkpt lat="39.78987983160304" lon="9.213525333220254"><ele>593.0</ele><time>2026-04-11T08:30:22Z</time></trkpt><trkpt lat="39.78993753002633" lon="9.21360889638758"><ele>593.0</ele><time>2026-04-11T08:30:23Z</time></trkpt><trkpt lat="39.789993757108384" lon="9.213697742999466"><ele>593.0</ele><time>2026-04-11T08:30:24Z</time></trkpt><trkpt lat="39.79005105620345" lon="9.213792702034477"><ele>593.0</ele><time>2026-04-11T08:30:25Z</time></trkpt><trkpt lat="39.79011920077936" lon="9.213884325423553"><ele>593.0</ele><time>2026-04-11T08:30:26Z</time></trkpt><trkpt lat="39.79020209052954" lon="9.213968723074816"><ele>589.6</ele><time>2026-04-11T08:30:27Z</time></trkpt><trkpt lat="39.79029276852151" lon="9.214036427393992"><ele>586.1999999999999</ele><time>2026-04-11T08:30:28Z</time></trkpt><trkpt lat="39.79039072300828" lon="9.214079322931633"><ele>582.8</ele><time>2026-04-11T08:30:29Z</time></trkpt><trkpt lat="39.790502022340156" lon="9.214079193806135"><ele>579.4</ele><time>2026-04-11T08:30:30Z</time></trkpt><trkpt lat="39.79061987427635" lon="9.214057749454"><ele>576.0</ele><time>2026-04-11T08:30:31Z</time></trkpt><trkpt lat="39.790742869618605" lon="9.214024567802026"><ele>576.0</ele><time>2026-04-11T08:30:32Z</time></trkpt><trkpt lat="39.79087368453143" lon="9.213995971231514"><ele>576.0</ele><time>2026-04-11T08:30:33Z</time></trkpt><trkpt lat="39.791009387545955" lon="9.213983157219213"><ele>576.0</ele><time>2026-04-11T08:30:34Z</time></trkpt><trkpt lat="39.791150615837736" lon="9.213972860310776"><ele>576.0</ele><time>2026-04-11T08:30:35Z</time></trkpt><trkpt lat="39.791293396920054" lon="9.213949578097678"><ele>582.0</ele><time>2026-04-11T08:30:36Z</time></trkpt><trkpt lat="39.79143548444134" lon="9.213916369559255"><ele>588.0</ele><time>2026-04-11T08:30:37Z</time></trkpt><trkpt lat="39.791574299725376" lon="9.213911177622467"><ele>594.0</ele><time>2026-04-11T08:30:38Z</time></trkpt><trkpt lat="39.791703539150944" lon="9.213886948628714"><ele>600.0</ele><time>2026-04-11T08:30:39Z</time></trkpt><trkpt lat="39.79182999039881" lon="9.213930116990943"><ele>595.0</ele><time>2026-04-11T08:30:40Z</time></trkpt><trkpt lat="39.7919475701104" lon="9.214014392182996"><ele>590.0</ele><time>2026-04-11T08:30:41Z</time></trkpt><trkpt lat="39.79207048291308" lon="9.214118760341597"><ele>585.0</ele><time>2026-04-11T08:30:42Z</time></trkpt><trkpt lat="39.79219120321166" lon="9.214232710756887"><ele>580.0</ele><time>2026-04-11T08:30:43Z</time></trkpt><trkpt lat="39.79231824182928" lon="9.214350704877809"><ele>580.0</ele><time>2026-04-11T08:30:44Z</time></trkpt><trkpt lat="39.79244534671661" lon="9.214475821537572"><ele>580.0</ele><time>2026-04-11T08:30:45Z</time></trkpt><trkpt lat="39.79257115301437" lon="9.214604690042572"><ele>580.0</ele><time>2026-04-11T08:30:46Z</time></trkpt><trkpt lat="39.79269423838172" lon="9.214739314590604"><ele>578.0</ele><time>2026-04-11T08:30:47Z</time></trkpt><trkpt lat="39.792802710020474" lon="9.214886135711383"><ele>576.0</ele><time>2026-04-11T08:30:48Z</time></trkpt><trkpt lat="39.79289354405844" lon="9.2150322285494"><ele>574.0</ele><time>2026-04-11T08:30:49Z</time></trkpt><trkpt lat="39.79297417636545" lon="9.215172240716205"><ele>572.0</ele><time>2026-04-11T08:30:50Z</time></trkpt><trkpt lat="39.79305649768751" lon="9.215297207324792"><ele>572.0</ele><time>2026-04-11T08:30:51Z</time></trkpt><trkpt lat="39.79314414495737" lon="9.21539627236236"><ele>572.0</ele><time>2026-04-11T08:30:52Z</time></trkpt><trkpt lat="39.79325561048991" lon="9.215462750724377"><ele>572.0</ele><time>2026-04-11T08:30:53Z</time></trkpt><trkpt lat="39.79338771018457" lon="9.215499335828932"><ele>572.0</ele><time>2026-04-11T08:30:54Z</time></trkpt><trkpt lat="39.79353256801491" lon="9.215490888723615"><ele>572.6666666666666</ele><time>2026-04-11T08:30:55Z</time></trkpt><trkpt lat="39.79368426447048" lon="9.21546445898167"><ele>573.3333333333334</ele><time>2026-04-11T08:30:56Z</time></trkpt><trkpt lat="39.79383998883268" lon="9.215441213392396"><ele>574.0</ele><time>2026-04-11T08:30:57Z</time></trkpt><trkpt lat="39.7940011860793" lon="9.215427175560983"><ele>574.0</ele><time>2026-04-11T08:30:58Z</time></trkpt><trkpt lat="39.794166325297745" lon="9.215420093798159"><ele>574.0</ele><time>2026-04-11T08:30:59Z</time></trkpt><trkpt lat="39.79433620870451" lon="9.215419275068204"><ele>574.0</ele><time>2026-04-11T08:31:00Z</time></trkpt><trkpt lat="39.7945019167696" lon="9.215411119638345"><ele>572.3333333333334</ele><time>2026-04-11T08:31:01Z</time></trkpt><trkpt lat="39.79467167191742" lon="9.215412595020863"><ele>570.6666666666666</ele><time>2026-04-11T08:31:02Z</time></trkpt><trkpt lat="39.79483957377016" lon="9.215413039996946"><ele>569.0</ele><time>2026-04-11T08:31:03Z</time></trkpt><trkpt lat="39.79500782447263" lon="9.215410284749213"><ele>566.6666666666666</ele><time>2026-04-11T08:31:04Z</time></trkpt><trkpt lat="39.79517585805785" lon="9.215409102049712"><ele>564.3333333333334</ele><time>2026-04-11T08:31:05Z</time></trkpt><trkpt lat="39.79533538712014" lon="9.215410741820438"><ele>562.0</ele><time>2026-04-11T08:31:06Z</time></trkpt><trkpt lat="39.79548437034145" lon="9.215411172974829"><ele>562.0</ele><time>2026-04-11T08:31:07Z</time></trkpt><trkpt lat="39.795619667041876" lon="9.215407102162365"><ele>562.0</ele><time>2026-04-11T08:31:08Z</time></trkpt><trkpt lat="39.79574423867586" lon="9.215406354708108"><ele>562.0</ele><time>2026-04-11T08:31:09Z</time></trkpt><trkpt lat="39.795866121190315" lon="9.215410829038781"><ele>562.0</ele><time>2026-04-11T08:31:10Z</time></trkpt><trkpt lat="39.79598480625298" lon="9.215408323979723"><ele>559.5</ele><time>2026-04-11T08:31:11Z</time></trkpt><trkpt lat="39.796102367928164" lon="9.215405243727053"><ele>557.0</ele><time>2026-04-11T08:31:12Z</time></trkpt><trkpt lat="39.79621700996841" lon="9.21539048577036"><ele>554.5</ele><time>2026-04-11T08:31:13Z</time></trkpt><trkpt lat="39.796331317026656" lon="9.215351868714055"><ele>552.0</ele><time>2026-04-11T08:31:14Z</time></trkpt><trkpt lat="39.79644401095831" lon="9.21528156774598"><ele>552.0</ele><time>2026-04-11T08:31:15Z</time></trkpt><trkpt lat="39.79655274525667" lon="9.215189005949611"><ele>552.0</ele><time>2026-04-11T08:31:16Z</time></trkpt><trkpt lat="39.79666275411651" lon="9.215092589978765"><ele>552.0</ele><time>2026-04-11T08:31:17Z</time></trkpt><trkpt lat="39.79677778080583" lon="9.214999651234987"><ele>552.0</ele><time>2026-04-11T08:31:18Z</time></trkpt><trkpt lat="39.796895676455854" lon="9.214907708646555"><ele>557.0</ele><time>2026-04-11T08:31:19Z</time></trkpt><trkpt lat="39.797011652512204" lon="9.214814693798061"><ele>562.0</ele><time>2026-04-11T08:31:20Z</time></trkpt><trkpt lat="39.79712582344402" lon="9.21472620128632"><ele>567.0</ele><time>2026-04-11T08:31:21Z</time></trkpt><trkpt lat="39.79723777417074" lon="9.214647092097053"><ele>572.0</ele><time>2026-04-11T08:31:22Z</time></trkpt><trkpt lat="39.797342006715446" lon="9.214597270477134"><ele>572.0</ele><time>2026-04-11T08:31:23Z</time></trkpt><trkpt lat="39.79745622923704" lon="9.214577086051127"><ele>572.0</ele><time>2026-04-11T08:31:24Z</time></trkpt><trkpt lat="39.797577986696616" lon="9.214571416114891"><ele>572.0</ele><time>2026-04-11T08:31:25Z</time></trkpt><trkpt lat="39.797703963944336" lon="9.214546871182328"><ele>572.0</ele><time>2026-04-11T08:31:26Z</time></trkpt><trkpt lat="39.797823401251435" lon="9.214484761461563"><ele>566.25</ele><time>2026-04-11T08:31:27Z</time></trkpt><trkpt lat="39.7979413253627" lon="9.214394066096112"><ele>560.5</ele><time>2026-04-11T08:31:28Z</time></trkpt><trkpt lat="39.79805245490044" lon="9.214284048608615"><ele>554.75</ele><time>2026-04-11T08:31:29Z</time></trkpt><trkpt lat="39.798156709572226" lon="9.214155499296023"><ele>549.0</ele><time>2026-04-11T08:31:30Z</time></trkpt><trkpt lat="39.7982394669339" lon="9.214010742446689"><ele>553.25</ele><time>2026-04-11T08:31:31Z</time></trkpt><trkpt lat="39.79829266877153" lon="9.213845372627043"><ele>557.5</ele><time>2026-04-11T08:31:32Z</time></trkpt><trkpt lat="39.79833388544135" lon="9.213676038050744"><ele>561.75</ele><time>2026-04-11T08:31:33Z</time></trkpt><trkpt lat="39.79838437517973" lon="9.213503484456048"><ele>566.0</ele><time>2026-04-11T08:31:34Z</time></trkpt><trkpt lat="39.79842052319887" lon="9.213328194933755"><ele>568.5</ele><time>2026-04-11T08:31:35Z</time></trkpt><trkpt lat="39.79846193511114" lon="9.213153420051063"><ele>571.0</ele><time>2026-04-11T08:31:36Z</time></trkpt><trkpt lat="39.798520552154" lon="9.21299385322874"><ele>573.5</ele><time>2026-04-11T08:31:37Z</time></trkpt><trkpt lat="39.798593613665446" lon="9.212845392477528"><ele>576.0</ele><time>2026-04-11T08:31:38Z</time></trkpt><trkpt lat="39.798688028760694" lon="9.212717271061013"><ele>576.0</ele><time>2026-04-11T08:31:39Z</time></trkpt><trkpt lat="39.79880262983421" lon="9.212628144452298"><ele>576.0</ele><time>2026-04-11T08:31:40Z</time></trkpt><trkpt lat="39.79892224091243" lon="9.212547943303917"><ele>576.0</ele><time>2026-04-11T08:31:41Z</time></trkpt><trkpt lat="39.7990518930107" lon="9.212484932516434"><ele>576.0</ele><time>2026-04-11T08:31:42Z</time></trkpt><trkpt lat="39.79918978184873" lon="9.212451925285555"><ele>576.0</ele><time>2026-04-11T08:31:43Z</time></trkpt><trkpt lat="39.799333368565655" lon="9.212444326126269"><ele>576.0</ele><time>2026-04-11T08:31:44Z</time></trkpt><trkpt lat="39.799476328723514" lon="9.212474447607693"><ele>576.0</ele><time>2026-04-11T08:31:45Z</time></trkpt><trkpt lat="39.799611519133826" lon="9.212544198268365"><ele>576.0</ele><time>2026-04-11T08:31:46Z</time></trkpt><trkpt lat="39.79974959964924" lon="9.212609010015164"><ele>576.5</ele><time>2026-04-11T08:31:47Z</time></trkpt><trkpt lat="39.79987990634311" lon="9.212639654605157"><ele>577.0</ele><time>2026-04-11T08:31:48Z</time></trkpt><trkpt lat="39.79999489071736" lon="9.212664239322491"><ele>577.5</ele><time>2026-04-11T08:31:49Z</time></trkpt><trkpt lat="39.800109159275536" lon="9.212641401196452"><ele>578.0</ele><time>2026-04-11T08:31:50Z</time></trkpt><trkpt lat="39.800229723656585" lon="9.212581908354752"><ele>578.6666666666666</ele><time>2026-04-11T08:31:51Z</time></trkpt><trkpt lat="39.800348080352876" lon="9.212483412646876"><ele>579.3333333333334</ele><time>2026-04-11T08:31:52Z</time></trkpt><trkpt lat="39.800466258395225" lon="9.212357966808042"><ele>580.0</ele><time>2026-04-11T08:31:53Z</time></trkpt><trkpt lat="39.8005883285337" lon="9.212220978031207"><ele>580.0</ele><time>2026-04-11T08:31:54Z</time></trkpt><trkpt lat="39.800720788086764" lon="9.212086818425131"><ele>580.0</ele><time>2026-04-11T08:31:55Z</time></trkpt><trkpt lat="39.80086835006142" lon="9.211928782382854"><ele>580.0</ele><time>2026-04-11T08:31:56Z</time></trkpt><trkpt lat="39.80101000115838" lon="9.211797980547043"><ele>574.6666666666667</ele><time>2026-04-11T08:31:57Z</time></trkpt><trkpt lat="39.80115416583872" lon="9.211663536338685"><ele>569.3333333333334</ele><time>2026-04-11T08:31:58Z</time></trkpt><trkpt lat="39.80129752570356" lon="9.211535273676061"><ele>564.0</ele><time>2026-04-11T08:31:59Z</time></trkpt><trkpt lat="39.80143932072458" lon="9.211403524837527"><ele>564.0</ele><time>2026-04-11T08:32:00Z</time></trkpt><trkpt lat="39.80157414950337" lon="9.211268988940589"><ele>564.0</ele><time>2026-04-11T08:32:01Z</time></trkpt><trkpt lat="39.80169819672951" lon="9.211124987719636"><ele>564.0</ele><time>2026-04-11T08:32:02Z</time></trkpt><trkpt lat="39.80179619905421" lon="9.210950347770922"><ele>553.3333333333334</ele><time>2026-04-11T08:32:03Z</time></trkpt><trkpt lat="39.801875911726995" lon="9.210764705860312"><ele>542.6666666666667</ele><time>2026-04-11T08:32:04Z</time></trkpt><trkpt lat="39.801960454211084" lon="9.210584292163771"><ele>532.0</ele><time>2026-04-11T08:32:05Z</time></trkpt><trkpt lat="39.802059093211895" lon="9.210415308567038"><ele>532.0</ele><time>2026-04-11T08:32:06Z</time></trkpt><trkpt lat="39.80216026581818" lon="9.210247129626886"><ele>532.0</ele><time>2026-04-11T08:32:07Z</time></trkpt><trkpt lat="39.802275699686476" lon="9.210058448167809"><ele>532.0</ele><time>2026-04-11T08:32:08Z</time></trkpt><trkpt lat="39.8023605471521" lon="9.209903081119757"><ele>539.0</ele><time>2026-04-11T08:32:09Z</time></trkpt><trkpt lat="39.80244189472563" lon="9.209733114548207"><ele>546.0</ele><time>2026-04-11T08:32:10Z</time></trkpt><trkpt lat="39.80252493186445" lon="9.209564145993237"><ele>553.0</ele><time>2026-04-11T08:32:11Z</time></trkpt><trkpt lat="39.80261048833298" lon="9.209395151926538"><ele>548.0</ele><time>2026-04-11T08:32:12Z</time></trkpt><trkpt lat="39.8026986513943" lon="9.20922764216228"><ele>543.0</ele><time>2026-04-11T08:32:13Z</time></trkpt><trkpt lat="39.80280130702483" lon="9.209063483721998"><ele>538.0</ele><time>2026-04-11T08:32:14Z</time></trkpt><trkpt lat="39.8029261628528" lon="9.208916355133331"><ele>538.0</ele><time>2026-04-11T08:32:15Z</time></trkpt><trkpt lat="39.80306639195025" lon="9.20878403421174"><ele>538.0</ele><time>2026-04-11T08:32:16Z</time></trkpt><trkpt lat="39.80319868395152" lon="9.208649332074508"><ele>538.0</ele><time>2026-04-11T08:32:17Z</time></trkpt><trkpt lat="39.803311906941154" lon="9.208490926460396"><ele>538.0</ele><time>2026-04-11T08:32:18Z</time></trkpt><trkpt lat="39.80342110431395" lon="9.208329295129234"><ele>538.0</ele><time>2026-04-11T08:32:19Z</time></trkpt><trkpt lat="39.80354776628183" lon="9.208189178243371"><ele>538.0</ele><time>2026-04-11T08:32:20Z</time></trkpt><trkpt lat="39.803684608182536" lon="9.208077523895659"><ele>537.6666666666667</ele><time>2026-04-11T08:32:21Z</time></trkpt><trkpt lat="39.803829375232546" lon="9.20797180728144"><ele>537.3333333333334</ele><time>2026-04-11T08:32:22Z</time></trkpt><trkpt lat="39.803970603157" lon="9.20786878671429"><ele>537.0</ele><time>2026-04-11T08:32:23Z</time></trkpt><trkpt lat="39.80410940205364" lon="9.207765630298914"><ele>537.0</ele><time>2026-04-11T08:32:24Z</time></trkpt><trkpt lat="39.804242003604855" lon="9.20766370828869"><ele>537.0</ele><time>2026-04-11T08:32:25Z</time></trkpt><trkpt lat="39.80436726800341" lon="9.207562952940174"><ele>537.0</ele><time>2026-04-11T08:32:26Z</time></trkpt><trkpt lat="39.80448362209569" lon="9.207455092578401"><ele>537.0</ele><time>2026-04-11T08:32:27Z</time></trkpt><trkpt lat="39.8045875024152" lon="9.20732445038306"><ele>532.25</ele><time>2026-04-11T08:32:28Z</time></trkpt><trkpt lat="39.80467879976191" lon="9.207165729103943"><ele>527.5</ele><time>2026-04-11T08:32:29Z</time></trkpt><trkpt lat="39.8047570083898" lon="9.206996835588527"><ele>522.75</ele><time>2026-04-11T08:32:30Z</time></trkpt><trkpt lat="39.80483779385592" lon="9.206839773888973"><ele>518.0</ele><time>2026-04-11T08:32:31Z</time></trkpt><trkpt lat="39.804938369456366" lon="9.206697449744569"><ele>518.0</ele><time>2026-04-11T08:32:32Z</time></trkpt><trkpt lat="39.805054584726435" lon="9.206575798418958"><ele>518.0</ele><time>2026-04-11T08:32:33Z</time></trkpt><trkpt lat="39.80519109168488" lon="9.206478206464967"><ele>518.0</ele><time>2026-04-11T08:32:34Z</time></trkpt><trkpt lat="39.805337250940184" lon="9.206380947186581"><ele>514.6666666666666</ele><time>2026-04-11T08:32:35Z</time></trkpt><trkpt lat="39.80548913529768" lon="9.2062682266687"><ele>511.33333333333337</ele><time>2026-04-11T08:32:36Z</time></trkpt><trkpt lat="39.80564517236342" lon="9.20615288295898"><ele>508.0</ele><time>2026-04-11T08:32:37Z</time></trkpt><trkpt lat="39.8058042271627" lon="9.206039871471097"><ele>508.0</ele><time>2026-04-11T08:32:38Z</time></trkpt><trkpt lat="39.805964840586086" lon="9.205921798806658"><ele>508.0</ele><time>2026-04-11T08:32:39Z</time></trkpt><trkpt lat="39.80612018367418" lon="9.205792811537128"><ele>508.0</ele><time>2026-04-11T08:32:40Z</time></trkpt><trkpt lat="39.80627719117941" lon="9.205662139191617"><ele>507.6666666666667</ele><time>2026-04-11T08:32:41Z</time></trkpt><trkpt lat="39.80643198223857" lon="9.205529631068025"><ele>507.33333333333337</ele><time>2026-04-11T08:32:42Z</time></trkpt><trkpt lat="39.806578170545286" lon="9.205399894852972"><ele>507.0</ele><time>2026-04-11T08:32:43Z</time></trkpt><trkpt lat="39.80671817854804" lon="9.20526805775152"><ele>501.0</ele><time>2026-04-11T08:32:44Z</time></trkpt><trkpt lat="39.80684774193669" lon="9.205150928573246"><ele>495.0</ele><time>2026-04-11T08:32:45Z</time></trkpt><trkpt lat="39.80696735489534" lon="9.20504563985706"><ele>489.0</ele><time>2026-04-11T08:32:46Z</time></trkpt><trkpt lat="39.80708512983019" lon="9.20496459601214"><ele>483.0</ele><time>2026-04-11T08:32:47Z</time></trkpt><trkpt lat="39.80720840949647" lon="9.204909374028505"><ele>483.0</ele><time>2026-04-11T08:32:48Z</time></trkpt><trkpt lat="39.80733909418062" lon="9.204922901729287"><ele>483.0</ele><time>2026-04-11T08:32:49Z</time></trkpt><trkpt lat="39.807474224348184" lon="9.204946378102129"><ele>483.0</ele><time>2026-04-11T08:32:50Z</time></trkpt><trkpt lat="39.807598712361695" lon="9.205009701896929"><ele>483.0</ele><time>2026-04-11T08:32:51Z</time></trkpt><trkpt lat="39.807732327470596" lon="9.205102097647657"><ele>483.0</ele><time>2026-04-11T08:32:52Z</time></trkpt><trkpt lat="39.80788386339435" lon="9.205197149576268"><ele>483.0</ele><time>2026-04-11T08:32:53Z</time></trkpt><trkpt lat="39.80804110436642" lon="9.205275802211618"><ele>483.0</ele><time>2026-04-11T08:32:54Z</time></trkpt><trkpt lat="39.80819347937986" lon="9.205366892934737"><ele>483.0</ele><time>2026-04-11T08:32:55Z</time></trkpt><trkpt lat="39.808335988435886" lon="9.205442389469537"><ele>483.0</ele><time>2026-04-11T08:32:56Z</time></trkpt><trkpt lat="39.80847309650961" lon="9.205501870525667"><ele>483.0</ele><time>2026-04-11T08:32:57Z</time></trkpt><trkpt lat="39.80860517319126" lon="9.205539771387501"><ele>483.0</ele><time>2026-04-11T08:32:58Z</time></trkpt><trkpt lat="39.808728310794315" lon="9.20557974614075"><ele>482.0</ele><time>2026-04-11T08:32:59Z</time></trkpt><trkpt lat="39.80886484138023" lon="9.20552204080125"><ele>481.0</ele><time>2026-04-11T08:33:00Z</time></trkpt><trkpt lat="39.80900299403247" lon="9.205460862466769"><ele>480.0</ele><time>2026-04-11T08:33:01Z</time></trkpt><trkpt lat="39.809146166536465" lon="9.20537823889709"><ele>479.0</ele><time>2026-04-11T08:33:02Z</time></trkpt><trkpt lat="39.8092920000321" lon="9.205302014283948"><ele>476.5</ele><time>2026-04-11T08:33:03Z</time></trkpt><trkpt lat="39.80943407170871" lon="9.205245939188318"><ele>474.0</ele><time>2026-04-11T08:33:04Z</time></trkpt><trkpt lat="39.80956785042617" lon="9.205208851634968"><ele>471.5</ele><time>2026-04-11T08:33:05Z</time></trkpt><trkpt lat="39.809695184167325" lon="9.205192650673418"><ele>469.0</ele><time>2026-04-11T08:33:06Z</time></trkpt><trkpt lat="39.8098135170485" lon="9.20524158641889"><ele>469.0</ele><time>2026-04-11T08:33:07Z</time></trkpt><trkpt lat="39.8099278066627" lon="9.20530640149743"><ele>469.0</ele><time>2026-04-11T08:33:08Z</time></trkpt><trkpt lat="39.8100187970783" lon="9.20540500829042"><ele>469.0</ele><time>2026-04-11T08:33:09Z</time></trkpt><trkpt lat="39.81006011260126" lon="9.205547275752137"><ele>469.0</ele><time>2026-04-11T08:33:10Z</time></trkpt><trkpt lat="39.81009276175437" lon="9.205696917474649"><ele>472.25</ele><time>2026-04-11T08:33:11Z</time></trkpt><trkpt lat="39.81012219791541" lon="9.20587294651172"><ele>475.5</ele><time>2026-04-11T08:33:12Z</time></trkpt><trkpt lat="39.810157606916256" lon="9.206055395621199"><ele>478.75</ele><time>2026-04-11T08:33:13Z</time></trkpt><trkpt lat="39.8102172139239" lon="9.206219290321503"><ele>482.0</ele><time>2026-04-11T08:33:14Z</time></trkpt><trkpt lat="39.81029391286833" lon="9.206369079239817"><ele>474.3333333333333</ele><time>2026-04-11T08:33:15Z</time></trkpt><trkpt lat="39.81040353328674" lon="9.20651370374016"><ele>466.66666666666663</ele><time>2026-04-11T08:33:16Z</time></trkpt><trkpt lat="39.810503726016016" lon="9.206679728562404"><ele>459.0</ele><time>2026-04-11T08:33:17Z</time></trkpt><trkpt lat="39.81061482659383" lon="9.206840764643923"><ele>459.0</ele><time>2026-04-11T08:33:18Z</time></trkpt><trkpt lat="39.810728283390624" lon="9.207005539301333"><ele>459.0</ele><time>2026-04-11T08:33:19Z</time></trkpt><trkpt lat="39.81085581330855" lon="9.207165041985757"><ele>459.0</ele><time>2026-04-11T08:33:20Z</time></trkpt><trkpt lat="39.81097009633917" lon="9.207343221223969"><ele>457.0</ele><time>2026-04-11T08:33:21Z</time></trkpt><trkpt lat="39.811080675479324" lon="9.207511210428969"><ele>455.0</ele><time>2026-04-11T08:33:22Z</time></trkpt><trkpt lat="39.81117888154901" lon="9.207651221762717"><ele>453.0</ele><time>2026-04-11T08:33:23Z</time></trkpt><trkpt lat="39.811258492662965" lon="9.207783068010906"><ele>451.0</ele><time>2026-04-11T08:33:24Z</time></trkpt><trkpt lat="39.81135952329321" lon="9.207866163443958"><ele>451.0</ele><time>2026-04-11T08:33:25Z</time></trkpt><trkpt lat="39.8114625081942" lon="9.20794325707294"><ele>451.0</ele><time>2026-04-11T08:33:26Z</time></trkpt><trkpt lat="39.81159397247003" lon="9.207988828266421"><ele>451.0</ele><time>2026-04-11T08:33:27Z</time></trkpt><trkpt lat="39.811746305282135" lon="9.208006723188387"><ele>451.0</ele><time>2026-04-11T08:33:28Z</time></trkpt><trkpt lat="39.81190146127973" lon="9.208017582603018"><ele>451.75</ele><time>2026-04-11T08:33:29Z</time></trkpt><trkpt lat="39.812035504089046" lon="9.20808473472387"><ele>452.5</ele><time>2026-04-11T08:33:30Z</time></trkpt><trkpt lat="39.81214776195048" lon="9.2081834694003"><ele>453.25</ele><time>2026-04-11T08:33:31Z</time></trkpt><trkpt lat="39.81227095253714" lon="9.20827660962722"><ele>454.0</ele><time>2026-04-11T08:33:32Z</time></trkpt><trkpt lat="39.81237636144625" lon="9.208381490138212"><ele>448.0</ele><time>2026-04-11T08:33:33Z</time></trkpt><trkpt lat="39.81249678071513" lon="9.208442785575256"><ele>442.0</ele><time>2026-04-11T08:33:34Z</time></trkpt><trkpt lat="39.81262837100636" lon="9.208451712385255"><ele>436.0</ele><time>2026-04-11T08:33:35Z</time></trkpt><trkpt lat="39.81275692897526" lon="9.208411156659555"><ele>430.0</ele><time>2026-04-11T08:33:36Z</time></trkpt><trkpt lat="39.81288098542334" lon="9.2083219385151"><ele>432.0</ele><time>2026-04-11T08:33:37Z</time></trkpt><trkpt lat="39.81300723680826" lon="9.20820464834736"><ele>434.0</ele><time>2026-04-11T08:33:38Z</time></trkpt><trkpt lat="39.81314205779728" lon="9.20808549160793"><ele>436.0</ele><time>2026-04-11T08:33:39Z</time></trkpt><trkpt lat="39.81328680433713" lon="9.207967919435736"><ele>436.0</ele><time>2026-04-11T08:33:40Z</time></trkpt><trkpt lat="39.81343696680533" lon="9.207851819710967"><ele>436.0</ele><time>2026-04-11T08:33:41Z</time></trkpt><trkpt lat="39.81358598365565" lon="9.20773577982017"><ele>436.0</ele><time>2026-04-11T08:33:42Z</time></trkpt><trkpt lat="39.81372592561175" lon="9.207626995586047"><ele>431.0</ele><time>2026-04-11T08:33:43Z</time></trkpt><trkpt lat="39.813857038832474" lon="9.207532904533116"><ele>426.0</ele><time>2026-04-11T08:33:44Z</time></trkpt><trkpt lat="39.81399163968756" lon="9.2074759184593"><ele>421.0</ele><time>2026-04-11T08:33:45Z</time></trkpt><trkpt lat="39.81413111991904" lon="9.207507614574325"><ele>416.0</ele><time>2026-04-11T08:33:46Z</time></trkpt><trkpt lat="39.81425385511358" lon="9.207595050819034"><ele>414.0</ele><time>2026-04-11T08:33:47Z</time></trkpt><trkpt lat="39.81440042101034" lon="9.207664219617888"><ele>412.0</ele><time>2026-04-11T08:33:48Z</time></trkpt><trkpt lat="39.814564090490805" lon="9.207694076330737"><ele>410.0</ele><time>2026-04-11T08:33:49Z</time></trkpt><trkpt lat="39.814743949078014" lon="9.20768785413697"><ele>410.0</ele><time>2026-04-11T08:33:50Z</time></trkpt><trkpt lat="39.81493003915078" lon="9.207662449861912"><ele>410.0</ele><time>2026-04-11T08:33:51Z</time></trkpt><trkpt lat="39.815112204834286" lon="9.207702998913428"><ele>410.0</ele><time>2026-04-11T08:33:52Z</time></trkpt><trkpt lat="39.81529398673842" lon="9.207742099202013"><ele>408.66666666666663</ele><time>2026-04-11T08:33:53Z</time></trkpt><trkpt lat="39.815466183987326" lon="9.20782102872918"><ele>407.33333333333337</ele><time>2026-04-11T08:33:54Z</time></trkpt><trkpt lat="39.81562201734911" lon="9.207882303019465"><ele>406.0</ele><time>2026-04-11T08:33:55Z</time></trkpt><trkpt lat="39.815767382646634" lon="9.207913733627805"><ele>406.0</ele><time>2026-04-11T08:33:56Z</time></trkpt><trkpt lat="39.81591306641378" lon="9.207899220686446"><ele>406.0</ele><time>2026-04-11T08:33:57Z</time></trkpt><trkpt lat="39.81607030137938" lon="9.20783952638651"><ele>406.0</ele><time>2026-04-11T08:33:58Z</time></trkpt><trkpt lat="39.81623197128596" lon="9.207760119452606"><ele>401.33333333333337</ele><time>2026-04-11T08:33:59Z</time></trkpt><trkpt lat="39.816392631006416" lon="9.207683863237408"><ele>396.66666666666663</ele><time>2026-04-11T08:34:00Z</time></trkpt><trkpt lat="39.81652945791228" lon="9.207593658207543"><ele>392.0</ele><time>2026-04-11T08:34:01Z</time></trkpt><trkpt lat="39.816641517613526" lon="9.207465231131863"><ele>396.25</ele><time>2026-04-11T08:34:02Z</time></trkpt><trkpt lat="39.81672713960446" lon="9.207318813417928"><ele>400.5</ele><time>2026-04-11T08:34:03Z</time></trkpt><trkpt lat="39.816812161437355" lon="9.20718993645449"><ele>404.75</ele><time>2026-04-11T08:34:04Z</time></trkpt><trkpt lat="39.81691022330889" lon="9.207094619386467"><ele>409.0</ele><time>2026-04-11T08:34:05Z</time></trkpt><trkpt lat="39.81703047009737" lon="9.207055982510855"><ele>409.0</ele><time>2026-04-11T08:34:06Z</time></trkpt><trkpt lat="39.81715878699909" lon="9.207060657228608"><ele>409.0</ele><time>2026-04-11T08:34:07Z</time></trkpt><trkpt lat="39.81727900032722" lon="9.207106091451172"><ele>409.0</ele><time>2026-04-11T08:34:08Z</time></trkpt><trkpt lat="39.81739591928268" lon="9.2071824764837"><ele>409.0</ele><time>2026-04-11T08:34:09Z</time></trkpt><trkpt lat="39.81750922294371" lon="9.207241454380124"><ele>409.0</ele><time>2026-04-11T08:34:10Z</time></trkpt><trkpt lat="39.81763270251579" lon="9.20726310728471"><ele>409.0</ele><time>2026-04-11T08:34:11Z</time></trkpt><trkpt lat="39.817764742285654" lon="9.207250475631827"><ele>409.0</ele><time>2026-04-11T08:34:12Z</time></trkpt><trkpt lat="39.817891516443716" lon="9.207217925868205"><ele>409.0</ele><time>2026-04-11T08:34:13Z</time></trkpt><trkpt lat="39.81802447412184" lon="9.207180294117261"><ele>409.25</ele><time>2026-04-11T08:34:14Z</time></trkpt><trkpt lat="39.818151820244125" lon="9.207149294082319"><ele>409.5</ele><time>2026-04-11T08:34:15Z</time></trkpt><trkpt lat="39.81828276479536" lon="9.207116793697455"><ele>409.75</ele><time>2026-04-11T08:34:16Z</time></trkpt><trkpt lat="39.818416627242065" lon="9.207096182236842"><ele>410.0</ele><time>2026-04-11T08:34:17Z</time></trkpt><trkpt lat="39.8185464837022" lon="9.207116623060493"><ele>410.0</ele><time>2026-04-11T08:34:18Z</time></trkpt><trkpt lat="39.818674957875324" lon="9.207173738308688"><ele>410.0</ele><time>2026-04-11T08:34:19Z</time></trkpt><trkpt lat="39.81879605052536" lon="9.207270754698298"><ele>410.0</ele><time>2026-04-11T08:34:20Z</time></trkpt><trkpt lat="39.81890825153687" lon="9.207389772882037"><ele>410.0</ele><time>2026-04-11T08:34:21Z</time></trkpt><trkpt lat="39.819018193835774" lon="9.207513281307428"><ele>400.25</ele><time>2026-04-11T08:34:22Z</time></trkpt><trkpt lat="39.819135831215576" lon="9.207622203901163"><ele>390.5</ele><time>2026-04-11T08:34:23Z</time></trkpt><trkpt lat="39.8192625674144" lon="9.20771052243793"><ele>380.75</ele><time>2026-04-11T08:34:24Z</time></trkpt><trkpt lat="39.81939996211911" lon="9.207782080414379"><ele>371.0</ele><time>2026-04-11T08:34:25Z</time></trkpt><trkpt lat="39.8195410534652" lon="9.20784396910452"><ele>371.0</ele><time>2026-04-11T08:34:26Z</time></trkpt><trkpt lat="39.819687281025864" lon="9.207898861474042"><ele>371.0</ele><time>2026-04-11T08:34:27Z</time></trkpt><trkpt lat="39.81983744731492" lon="9.207936678340293"><ele>371.0</ele><time>2026-04-11T08:34:28Z</time></trkpt><trkpt lat="39.81998581101991" lon="9.207947845353116"><ele>371.0</ele><time>2026-04-11T08:34:29Z</time></trkpt><trkpt lat="39.82012746252551" lon="9.207952762881892"><ele>371.0</ele><time>2026-04-11T08:34:30Z</time></trkpt><trkpt lat="39.820249142455324" lon="9.207964587662175"><ele>371.0</ele><time>2026-04-11T08:34:31Z</time></trkpt><trkpt lat="39.82035774839725" lon="9.207994793778335"><ele>371.0</ele><time>2026-04-11T08:34:32Z</time></trkpt><trkpt lat="39.820448445517215" lon="9.208057926707099"><ele>363.6</ele><time>2026-04-11T08:34:33Z</time></trkpt><trkpt lat="39.82049807410245" lon="9.208182330584542"><ele>356.20000000000005</ele><time>2026-04-11T08:34:34Z</time></trkpt><trkpt lat="39.820573898335326" lon="9.208273421714548"><ele>348.79999999999995</ele><time>2026-04-11T08:34:35Z</time></trkpt><trkpt lat="39.82063090791268" lon="9.208379496055343"><ele>341.4</ele><time>2026-04-11T08:34:36Z</time></trkpt><trkpt lat="39.82074682250085" lon="9.208411483218791"><ele>334.0</ele><time>2026-04-11T08:34:37Z</time></trkpt><trkpt lat="39.820871271369036" lon="9.208432296942664"><ele>328.25</ele><time>2026-04-11T08:34:38Z</time></trkpt><trkpt lat="39.820995419502786" lon="9.208430393350746"><ele>322.5</ele><time>2026-04-11T08:34:39Z</time></trkpt><trkpt lat="39.821116357412635" lon="9.208418587109707"><ele>316.75</ele><time>2026-04-11T08:34:40Z</time></trkpt><trkpt lat="39.8212384695499" lon="9.208400539732466"><ele>311.0</ele><time>2026-04-11T08:34:41Z</time></trkpt><trkpt lat="39.82136181936335" lon="9.208381750518852"><ele>311.0</ele><time>2026-04-11T08:34:42Z</time></trkpt><trkpt lat="39.82148511149455" lon="9.20836911008833"><ele>311.0</ele><time>2026-04-11T08:34:43Z</time></trkpt><trkpt lat="39.82161089990796" lon="9.208352893584554"><ele>311.0</ele><time>2026-04-11T08:34:44Z</time></trkpt><trkpt lat="39.82173671414122" lon="9.208320488333708"><ele>311.0</ele><time>2026-04-11T08:34:45Z</time></trkpt><trkpt lat="39.821865328678655" lon="9.208287692577198"><ele>305.0</ele><time>2026-04-11T08:34:46Z</time></trkpt><trkpt lat="39.8219974068729" lon="9.208270359434321"><ele>299.0</ele><time>2026-04-11T08:34:47Z</time></trkpt><trkpt lat="39.8221311406773" lon="9.208263388479308"><ele>293.0</ele><time>2026-04-11T08:34:48Z</time></trkpt><trkpt lat="39.82226946569681" lon="9.208245993626488"><ele>287.0</ele><time>2026-04-11T08:34:49Z</time></trkpt><trkpt lat="39.822412497262604" lon="9.208223244845557"><ele>287.0</ele><time>2026-04-11T08:34:50Z</time></trkpt><trkpt lat="39.82256077951491" lon="9.208203211412519"><ele>287.0</ele><time>2026-04-11T08:34:51Z</time></trkpt><trkpt lat="39.82271076667693" lon="9.208188254676653"><ele>287.0</ele><time>2026-04-11T08:34:52Z</time></trkpt><trkpt lat="39.82286170919699" lon="9.20816848939445"><ele>292.6666666666667</ele><time>2026-04-11T08:34:53Z</time></trkpt><trkpt lat="39.823013509521694" lon="9.208149245316893"><ele>298.3333333333333</ele><time>2026-04-11T08:34:54Z</time></trkpt><trkpt lat="39.82316482680589" lon="9.20812587879363"><ele>304.0</ele><time>2026-04-11T08:34:55Z</time></trkpt><trkpt lat="39.82331505028097" lon="9.20810495779296"><ele>304.0</ele><time>2026-04-11T08:34:56Z</time></trkpt><trkpt lat="39.8234550570094" lon="9.208089991007512"><ele>304.0</ele><time>2026-04-11T08:34:57Z</time></trkpt><trkpt lat="39.82358127666242" lon="9.208078428730495"><ele>304.0</ele><time>2026-04-11T08:34:58Z</time></trkpt><trkpt lat="39.823687635851996" lon="9.208046673425924"><ele>304.0</ele><time>2026-04-11T08:34:59Z</time></trkpt><trkpt lat="39.82377805210897" lon="9.207985515821514"><ele>313.5</ele><time>2026-04-11T08:35:00Z</time></trkpt><trkpt lat="39.82385424279967" lon="9.207881676970372"><ele>323.0</ele><time>2026-04-11T08:35:01Z</time></trkpt><trkpt lat="39.82390762205445" lon="9.207742320546199"><ele>332.5</ele><time>2026-04-11T08:35:02Z</time></trkpt><trkpt lat="39.82394913052233" lon="9.207591132506458"><ele>342.0</ele><time>2026-04-11T08:35:03Z</time></trkpt><trkpt lat="39.824014751816065" lon="9.207450678169389"><ele>338.75</ele><time>2026-04-11T08:35:04Z</time></trkpt><trkpt lat="39.82411042935479" lon="9.207322730222534"><ele>335.5</ele><time>2026-04-11T08:35:05Z</time></trkpt><trkpt lat="39.82420608020321" lon="9.207203740468092"><ele>332.25</ele><time>2026-04-11T08:35:06Z</time></trkpt><trkpt lat="39.824302767862655" lon="9.207091330634698"><ele>329.0</ele><time>2026-04-11T08:35:07Z</time></trkpt><trkpt lat="39.824400726880285" lon="9.206992858722778"><ele>340.25</ele><time>2026-04-11T08:35:08Z</time></trkpt><trkpt lat="39.824488592861066" lon="9.20688635519566"><ele>351.5</ele><time>2026-04-11T08:35:09Z</time></trkpt><trkpt lat="39.824557572718" lon="9.20675683919472"><ele>362.75</ele><time>2026-04-11T08:35:10Z</time></trkpt><trkpt lat="39.824589890740754" lon="9.206614001701436"><ele>374.0</ele><time>2026-04-11T08:35:11Z</time></trkpt><trkpt lat="39.82458362633075" lon="9.206469081331305"><ele>374.0</ele><time>2026-04-11T08:35:12Z</time></trkpt><trkpt lat="39.824546311127456" lon="9.206322372266719"><ele>374.0</ele><time>2026-04-11T08:35:13Z</time></trkpt><trkpt lat="39.82450076585111" lon="9.206173308864123"><ele>374.0</ele><time>2026-04-11T08:35:14Z</time></trkpt><trkpt lat="39.82447510592874" lon="9.206016549078939"><ele>374.0</ele><time>2026-04-11T08:35:15Z</time></trkpt><trkpt lat="39.82447122535992" lon="9.205849088456468"><ele>374.0</ele><time>2026-04-11T08:35:16Z</time></trkpt><trkpt lat="39.824484798051024" lon="9.20568309379118"><ele>374.0</ele><time>2026-04-11T08:35:17Z</time></trkpt><trkpt lat="39.82451753784784" lon="9.205547066153914"><ele>374.0</ele><time>2026-04-11T08:35:18Z</time></trkpt><trkpt lat="39.82456865356295" lon="9.205464549229921"><ele>374.0</ele><time>2026-04-11T08:35:19Z</time></trkpt><trkpt lat="39.824661824108375" lon="9.205473777761815"><ele>374.0</ele><time>2026-04-11T08:35:21Z</time></trkpt><trkpt lat="39.82470317849103" lon="9.205552906759728"><ele>374.0</ele><time>2026-04-11T08:35:22Z</time></trkpt><trkpt lat="39.82467223544582" lon="9.20565814010924"><ele>374.0</ele><time>2026-04-11T08:35:23Z</time></trkpt><trkpt lat="39.82463743220763" lon="9.205753378599264"><ele>374.0</ele><time>2026-04-11T08:35:24Z</time></trkpt><trkpt lat="39.82462247840053" lon="9.205876809695356"><ele>374.0</ele><time>2026-04-11T08:35:25Z</time></trkpt><trkpt lat="39.82463681000653" lon="9.206021021036891"><ele>374.0</ele><time>2026-04-11T08:35:26Z</time></trkpt><trkpt lat="39.82467753825416" lon="9.206150606738994"><ele>374.0</ele><time>2026-04-11T08:35:27Z</time></trkpt><trkpt lat="39.82476375592425" lon="9.206268545984349"><ele>374.0</ele><time>2026-04-11T08:35:28Z</time></trkpt><trkpt lat="39.82485694976537" lon="9.20637069024126"><ele>374.0</ele><time>2026-04-11T08:35:29Z</time></trkpt><trkpt lat="39.82494004130946" lon="9.206473822658214"><ele>374.0</ele><time>2026-04-11T08:35:30Z</time></trkpt><trkpt lat="39.82499240488903" lon="9.206586077507472"><ele>374.0</ele><time>2026-04-11T08:35:31Z</time></trkpt><trkpt lat="39.82500798989545" lon="9.206706276625656"><ele>374.0</ele><time>2026-04-11T08:35:32Z</time></trkpt><trkpt lat="39.82499236150674" lon="9.20682959616305"><ele>374.0</ele><time>2026-04-11T08:35:33Z</time></trkpt><trkpt lat="39.82493865027807" lon="9.206947155320355"><ele>374.0</ele><time>2026-04-11T08:35:34Z</time></trkpt><trkpt lat="39.82488101725592" lon="9.20708337137693"><ele>374.0</ele><time>2026-04-11T08:35:35Z</time></trkpt><trkpt lat="39.8248329354303" lon="9.207238066858613"><ele>378.75</ele><time>2026-04-11T08:35:36Z</time></trkpt><trkpt lat="39.824785285589954" lon="9.207395334016473"><ele>383.5</ele><time>2026-04-11T08:35:37Z</time></trkpt><trkpt lat="39.82469816693914" lon="9.20750726989432"><ele>388.25</ele><time>2026-04-11T08:35:38Z</time></trkpt><trkpt lat="39.82462033278915" lon="9.207611520410516"><ele>393.0</ele><time>2026-04-11T08:35:39Z</time></trkpt><trkpt lat="39.82457493643735" lon="9.207737713464423"><ele>393.0</ele><time>2026-04-11T08:35:40Z</time></trkpt><trkpt lat="39.824547540052684" lon="9.20789790083424"><ele>393.0</ele><time>2026-04-11T08:35:41Z</time></trkpt><trkpt lat="39.82453789735282" lon="9.208054796715002"><ele>393.0</ele><time>2026-04-11T08:35:42Z</time></trkpt><trkpt lat="39.82456375119305" lon="9.208199046136487"><ele>393.0</ele><time>2026-04-11T08:35:43Z</time></trkpt><trkpt lat="39.824605463486456" lon="9.208342721388274"><ele>396.25</ele><time>2026-04-11T08:35:44Z</time></trkpt><trkpt lat="39.824652103341826" lon="9.208482875364354"><ele>399.5</ele><time>2026-04-11T08:35:45Z</time></trkpt><trkpt lat="39.82461226527524" lon="9.208625728352262"><ele>402.75</ele><time>2026-04-11T08:35:46Z</time></trkpt><trkpt lat="39.824549445179564" lon="9.208750544690234"><ele>406.0</ele><time>2026-04-11T08:35:47Z</time></trkpt><trkpt lat="39.824520514232944" lon="9.208898086344199"><ele>406.75</ele><time>2026-04-11T08:35:48Z</time></trkpt><trkpt lat="39.82449832196397" lon="9.209045359683246"><ele>407.5</ele><time>2026-04-11T08:35:49Z</time></trkpt><trkpt lat="39.82456547033608" lon="9.20917921132762"><ele>408.25</ele><time>2026-04-11T08:35:50Z</time></trkpt><trkpt lat="39.82463921916283" lon="9.209320115741544"><ele>409.0</ele><time>2026-04-11T08:35:51Z</time></trkpt><trkpt lat="39.82471519508" lon="9.20945484203239"><ele>409.0</ele><time>2026-04-11T08:35:52Z</time></trkpt><trkpt lat="39.82478532630287" lon="9.209583933507904"><ele>409.0</ele><time>2026-04-11T08:35:53Z</time></trkpt><trkpt lat="39.824857669480934" lon="9.209697881968143"><ele>409.0</ele><time>2026-04-11T08:35:54Z</time></trkpt><trkpt lat="39.82490089674432" lon="9.209817314277684"><ele>409.0</ele><time>2026-04-11T08:35:55Z</time></trkpt><trkpt lat="39.82492512428307" lon="9.209963286682708"><ele>407.75</ele><time>2026-04-11T08:35:56Z</time></trkpt><trkpt lat="39.82494173288945" lon="9.210121807583699"><ele>406.5</ele><time>2026-04-11T08:35:57Z</time></trkpt><trkpt lat="39.824963583189955" lon="9.21026799013179"><ele>405.25</ele><time>2026-04-11T08:35:58Z</time></trkpt><trkpt lat="39.82500680912594" lon="9.21039609822526"><ele>404.0</ele><time>2026-04-11T08:35:59Z</time></trkpt><trkpt lat="39.82506541492073" lon="9.210514071627854"><ele>413.75</ele><time>2026-04-11T08:36:00Z</time></trkpt><trkpt lat="39.825154581386556" lon="9.210614731106872"><ele>423.5</ele><time>2026-04-11T08:36:01Z</time></trkpt><trkpt lat="39.82523244697496" lon="9.21073732177539"><ele>433.25</ele><time>2026-04-11T08:36:02Z</time></trkpt><trkpt lat="39.82530316637367" lon="9.21084429617574"><ele>443.0</ele><time>2026-04-11T08:36:03Z</time></trkpt><trkpt lat="39.825331478337645" lon="9.210973617214968"><ele>443.0</ele><time>2026-04-11T08:36:04Z</time></trkpt><trkpt lat="39.82534711270414" lon="9.211130017206399"><ele>442.99999999999994</ele><time>2026-04-11T08:36:05Z</time></trkpt><trkpt lat="39.82537269215478" lon="9.211276497795165"><ele>442.99999999999994</ele><time>2026-04-11T08:36:06Z</time></trkpt><trkpt lat="39.82539791141812" lon="9.211403944766989"><ele>443.0</ele><time>2026-04-11T08:36:07Z</time></trkpt><trkpt lat="39.82543984831273" lon="9.211535165879848"><ele>443.0</ele><time>2026-04-11T08:36:08Z</time></trkpt><trkpt lat="39.8254946894872" lon="9.211667207765164"><ele>435.66666666666663</ele><time>2026-04-11T08:36:09Z</time></trkpt><trkpt lat="39.82554509146342" lon="9.211788561328497"><ele>428.33333333333337</ele><time>2026-04-11T08:36:10Z</time></trkpt><trkpt lat="39.825588280942895" lon="9.211892549260313"><ele>421.0</ele><time>2026-04-11T08:36:11Z</time></trkpt><trkpt lat="39.82584760459648" lon="9.211836430901148"><ele>421.0</ele><time>2026-04-11T08:36:12Z</time></trkpt><trkpt lat="39.82596908424684" lon="9.21189261095151"><ele>421.0</ele><time>2026-04-11T08:36:13Z</time></trkpt><trkpt lat="39.82606528092361" lon="9.21197881916835"><ele>421.0</ele><time>2026-04-11T08:36:14Z</time></trkpt><trkpt lat="39.826133961901334" lon="9.212081085293848"><ele>421.0</ele><time>2026-04-11T08:36:15Z</time></trkpt><trkpt lat="39.82619362310698" lon="9.212134338699203"><ele>421.0</ele><time>2026-04-11T08:36:16Z</time></trkpt><trkpt lat="39.826264239917734" lon="9.212126757794316"><ele>426.0</ele><time>2026-04-11T08:36:17Z</time></trkpt><trkpt lat="39.82634790352843" lon="9.212069335196482"><ele>431.0</ele><time>2026-04-11T08:36:18Z</time></trkpt><trkpt lat="39.826452704188185" lon="9.212018696659689"><ele>436.0</ele><time>2026-04-11T08:36:19Z</time></trkpt><trkpt lat="39.826566209661124" lon="9.212003782065205"><ele>441.0</ele><time>2026-04-11T08:36:20Z</time></trkpt><trkpt lat="39.82668767000443" lon="9.211992553418327"><ele>446.0</ele><time>2026-04-11T08:36:21Z</time></trkpt><trkpt lat="39.826810965819995" lon="9.211987346291266"><ele>451.20000000000005</ele><time>2026-04-11T08:36:22Z</time></trkpt><trkpt lat="39.82692759893879" lon="9.212005867760174"><ele>456.40000000000003</ele><time>2026-04-11T08:36:23Z</time></trkpt><trkpt lat="39.82701526635775" lon="9.212069213998545"><ele>461.6</ele><time>2026-04-11T08:36:24Z</time></trkpt><trkpt lat="39.82708310669163" lon="9.212132338216902"><ele>466.8</ele><time>2026-04-11T08:36:25Z</time></trkpt><trkpt lat="39.82715313941532" lon="9.212136103810789"><ele>472.0</ele><time>2026-04-11T08:36:26Z</time></trkpt><trkpt lat="39.8272292854171" lon="9.212083253207293"><ele>472.00000000000006</ele><time>2026-04-11T08:36:27Z</time></trkpt><trkpt lat="39.82730475027379" lon="9.21205015305677"><ele>472.0</ele><time>2026-04-11T08:36:28Z</time></trkpt><trkpt lat="39.82736721898415" lon="9.212087012861625"><ele>472.0</ele><time>2026-04-11T08:36:29Z</time></trkpt><trkpt lat="39.82742533936297" lon="9.21217755974948"><ele>472.0</ele><time>2026-04-11T08:36:30Z</time></trkpt><trkpt lat="39.82748332340149" lon="9.212283316885244"><ele>472.00000000000006</ele><time>2026-04-11T08:36:31Z</time></trkpt><trkpt lat="39.82753574852745" lon="9.212373103101317"><ele>472.0</ele><time>2026-04-11T08:36:32Z</time></trkpt><trkpt lat="39.82760791085752" lon="9.212421495118589"><ele>471.50000000000006</ele><time>2026-04-11T08:36:33Z</time></trkpt><trkpt lat="39.82770593853071" lon="9.21243756539145"><ele>471.0</ele><time>2026-04-11T08:36:34Z</time></trkpt><trkpt lat="39.82779854919608" lon="9.212466674673522"><ele>470.5</ele><time>2026-04-11T08:36:35Z</time></trkpt><trkpt lat="39.827867170447036" lon="9.21251738271935"><ele>470.0</ele><time>2026-04-11T08:36:36Z</time></trkpt><trkpt lat="39.82791223665447" lon="9.212587678330705"><ele>469.50000000000006</ele><time>2026-04-11T08:36:37Z</time></trkpt><trkpt lat="39.82792749740961" lon="9.2126810207709"><ele>469.0</ele><time>2026-04-11T08:36:38Z</time></trkpt><trkpt lat="39.82790378848341" lon="9.21278568008873"><ele>469.0</ele><time>2026-04-11T08:36:39Z</time></trkpt><trkpt lat="39.827876301788734" lon="9.2128980370046"><ele>469.0</ele><time>2026-04-11T08:36:40Z</time></trkpt><trkpt lat="39.8278771508508" lon="9.213022846965481"><ele>469.0</ele><time>2026-04-11T08:36:41Z</time></trkpt><trkpt lat="39.827891339322946" lon="9.213133362338423"><ele>469.0</ele><time>2026-04-11T08:36:42Z</time></trkpt><trkpt lat="39.827935541955554" lon="9.213227462772931"><ele>469.0</ele><time>2026-04-11T08:36:43Z</time></trkpt><trkpt lat="39.82800932754648" lon="9.213318126523792"><ele>461.0</ele><time>2026-04-11T08:36:44Z</time></trkpt><trkpt lat="39.82811167790557" lon="9.213390924449143"><ele>453.0</ele><time>2026-04-11T08:36:45Z</time></trkpt><trkpt lat="39.82821913995552" lon="9.213457779230014"><ele>445.0</ele><time>2026-04-11T08:36:46Z</time></trkpt><trkpt lat="39.828324248408855" lon="9.213543948787235"><ele>437.0</ele><time>2026-04-11T08:36:47Z</time></trkpt><trkpt lat="39.82842064773114" lon="9.213662658918789"><ele>433.5</ele><time>2026-04-11T08:36:48Z</time></trkpt><trkpt lat="39.82850520507996" lon="9.21379301583073"><ele>430.0</ele><time>2026-04-11T08:36:49Z</time></trkpt><trkpt lat="39.828590364121354" lon="9.213899731805833"><ele>426.5</ele><time>2026-04-11T08:36:50Z</time></trkpt><trkpt lat="39.828697200284225" lon="9.213972046104617"><ele>423.0</ele><time>2026-04-11T08:36:51Z</time></trkpt><trkpt lat="39.82881898034964" lon="9.2140193805001"><ele>423.0</ele><time>2026-04-11T08:36:52Z</time></trkpt><trkpt lat="39.828945683977324" lon="9.214055011999328"><ele>423.0</ele><time>2026-04-11T08:36:53Z</time></trkpt><trkpt lat="39.82905234867082" lon="9.214070150321618"><ele>423.0</ele><time>2026-04-11T08:36:54Z</time></trkpt><trkpt lat="39.829145906935615" lon="9.214063978386312"><ele>423.0</ele><time>2026-04-11T08:36:55Z</time></trkpt><trkpt lat="39.82922624218198" lon="9.214020644585412"><ele>423.0</ele><time>2026-04-11T08:36:56Z</time></trkpt><trkpt lat="39.829307043587576" lon="9.21393409050653"><ele>427.79999999999995</ele><time>2026-04-11T08:36:57Z</time></trkpt><trkpt lat="39.82939163413433" lon="9.213864439148022"><ele>432.6</ele><time>2026-04-11T08:36:58Z</time></trkpt><trkpt lat="39.82947695943381" lon="9.213850428895835"><ele>437.40000000000003</ele><time>2026-04-11T08:36:59Z</time></trkpt><trkpt lat="39.8295569102192" lon="9.213874798962902"><ele>442.20000000000005</ele><time>2026-04-11T08:37:00Z</time></trkpt><trkpt lat="39.82961956518596" lon="9.213952632761133"><ele>447.0</ele><time>2026-04-11T08:37:01Z</time></trkpt><trkpt lat="39.829677591534576" lon="9.214072439623001"><ele>447.0</ele><time>2026-04-11T08:37:02Z</time></trkpt><trkpt lat="39.829750343471815" lon="9.214193652169415"><ele>447.0</ele><time>2026-04-11T08:37:03Z</time></trkpt><trkpt lat="39.82983385865432" lon="9.214314994110385"><ele>447.0</ele><time>2026-04-11T08:37:04Z</time></trkpt><trkpt lat="39.82990873708791" lon="9.2144461718709"><ele>447.0</ele><time>2026-04-11T08:37:05Z</time></trkpt><trkpt lat="39.8299605316022" lon="9.214591536895481"><ele>447.0</ele><time>2026-04-11T08:37:06Z</time></trkpt><trkpt lat="39.82999577092328" lon="9.214736848832581"><ele>447.00000000000006</ele><time>2026-04-11T08:37:07Z</time></trkpt><trkpt lat="39.83003150415096" lon="9.214868184032218"><ele>447.00000000000006</ele><time>2026-04-11T08:37:08Z</time></trkpt><trkpt lat="39.830073027818216" lon="9.214971357583387"><ele>447.0</ele><time>2026-04-11T08:37:09Z</time></trkpt><trkpt lat="39.83014249132544" lon="9.215050334017086"><ele>447.0</ele><time>2026-04-11T08:37:10Z</time></trkpt><trkpt lat="39.8302385787714" lon="9.215115380670508"><ele>448.0</ele><time>2026-04-11T08:37:11Z</time></trkpt><trkpt lat="39.83033447587818" lon="9.215195589638185"><ele>449.0</ele><time>2026-04-11T08:37:12Z</time></trkpt><trkpt lat="39.83042703084894" lon="9.215284791012586"><ele>450.0</ele><time>2026-04-11T08:37:13Z</time></trkpt><trkpt lat="39.83051828709959" lon="9.215387767773747"><ele>451.0</ele><time>2026-04-11T08:37:14Z</time></trkpt><trkpt lat="39.83060347867795" lon="9.215493648181779"><ele>451.0</ele><time>2026-04-11T08:37:15Z</time></trkpt><trkpt lat="39.8306828445457" lon="9.215569314909123"><ele>451.0</ele><time>2026-04-11T08:37:16Z</time></trkpt><trkpt lat="39.83077137993965" lon="9.215611733620376"><ele>451.0</ele><time>2026-04-11T08:37:17Z</time></trkpt><trkpt lat="39.83088087907543" lon="9.215615684311524"><ele>451.0</ele><time>2026-04-11T08:37:18Z</time></trkpt><trkpt lat="39.83098452265024" lon="9.215585159489011"><ele>451.0</ele><time>2026-04-11T08:37:19Z</time></trkpt><trkpt lat="39.83107335205727" lon="9.215522960724277"><ele>448.83333333333337</ele><time>2026-04-11T08:37:20Z</time></trkpt><trkpt lat="39.831143095171356" lon="9.21543956940347"><ele>446.6666666666667</ele><time>2026-04-11T08:37:21Z</time></trkpt><trkpt lat="39.83121366311031" lon="9.215408520435663"><ele>444.5</ele><time>2026-04-11T08:37:22Z</time></trkpt><trkpt lat="39.831284097616454" lon="9.215449356012998"><ele>442.33333333333337</ele><time>2026-04-11T08:37:23Z</time></trkpt><trkpt lat="39.83134982333158" lon="9.215536042850985"><ele>440.1666666666667</ele><time>2026-04-11T08:37:24Z</time></trkpt><trkpt lat="39.83142503487557" lon="9.215627266005516"><ele>438.0</ele><time>2026-04-11T08:37:25Z</time></trkpt><trkpt lat="39.83150609966481" lon="9.215708668435852"><ele>438.0</ele><time>2026-04-11T08:37:26Z</time></trkpt><trkpt lat="39.831585631911956" lon="9.21576624971208"><ele>437.99999999999994</ele><time>2026-04-11T08:37:27Z</time></trkpt><trkpt lat="39.831676415692236" lon="9.21578038702961"><ele>437.99999999999994</ele><time>2026-04-11T08:37:28Z</time></trkpt><trkpt lat="39.83177499002433" lon="9.215740750083613"><ele>438.0</ele><time>2026-04-11T08:37:29Z</time></trkpt><trkpt lat="39.83188102321148" lon="9.215684793879358"><ele>438.0</ele><time>2026-04-11T08:37:30Z</time></trkpt><trkpt lat="39.83198190929694" lon="9.215635850650505"><ele>441.79999999999995</ele><time>2026-04-11T08:37:31Z</time></trkpt><trkpt lat="39.83208702835402" lon="9.215562721383437"><ele>445.59999999999997</ele><time>2026-04-11T08:37:32Z</time></trkpt><trkpt lat="39.832177157665484" lon="9.21553004398409"><ele>449.40000000000003</ele><time>2026-04-11T08:37:33Z</time></trkpt><trkpt lat="39.83224599584502" lon="9.215562681626006"><ele>453.20000000000005</ele><time>2026-04-11T08:37:34Z</time></trkpt><trkpt lat="39.83229656168486" lon="9.215651261415658"><ele>457.0</ele><time>2026-04-11T08:37:35Z</time></trkpt><trkpt lat="39.832319665768466" lon="9.21578083692503"><ele>457.0</ele><time>2026-04-11T08:37:36Z</time></trkpt><trkpt lat="39.83233445073217" lon="9.215921581285462"><ele>457.00000000000006</ele><time>2026-04-11T08:37:37Z</time></trkpt><trkpt lat="39.83234230900805" lon="9.216042869088371"><ele>457.00000000000006</ele><time>2026-04-11T08:37:38Z</time></trkpt><trkpt lat="39.83236109508459" lon="9.216124199023827"><ele>457.0</ele><time>2026-04-11T08:37:39Z</time></trkpt><trkpt lat="39.832457818616746" lon="9.21616555222305"><ele>457.0</ele><time>2026-04-11T08:37:41Z</time></trkpt><trkpt lat="39.83253523971117" lon="9.216135568796252"><ele>457.0</ele><time>2026-04-11T08:37:42Z</time></trkpt><trkpt lat="39.832622842878465" lon="9.216104029008957"><ele>457.00000000000006</ele><time>2026-04-11T08:37:43Z</time></trkpt><trkpt lat="39.83270460097203" lon="9.216069879880274"><ele>457.00000000000006</ele><time>2026-04-11T08:37:44Z</time></trkpt><trkpt lat="39.8327850348903" lon="9.216008132611087"><ele>457.0</ele><time>2026-04-11T08:37:45Z</time></trkpt><trkpt lat="39.83285257351144" lon="9.215911977157965"><ele>457.0</ele><time>2026-04-11T08:37:46Z</time></trkpt><trkpt lat="39.83291729686056" lon="9.2158126697156"><ele>460.33333333333337</ele><time>2026-04-11T08:37:47Z</time></trkpt><trkpt lat="39.832990158228235" lon="9.215735258350227"><ele>463.6666666666667</ele><time>2026-04-11T08:37:48Z</time></trkpt><trkpt lat="39.833062025522175" lon="9.215687460016857"><ele>467.0</ele><time>2026-04-11T08:37:49Z</time></trkpt><trkpt lat="39.83313244217222" lon="9.21569323546695"><ele>470.33333333333337</ele><time>2026-04-11T08:37:50Z</time></trkpt><trkpt lat="39.83320843054122" lon="9.215756822094466"><ele>473.6666666666667</ele><time>2026-04-11T08:37:51Z</time></trkpt><trkpt lat="39.833285254133614" lon="9.215839126838791"><ele>477.0</ele><time>2026-04-11T08:37:52Z</time></trkpt><trkpt lat="39.83336936079026" lon="9.21590664761515"><ele>477.0</ele><time>2026-04-11T08:37:53Z</time></trkpt><trkpt lat="39.8334511365328" lon="9.215962024201747"><ele>477.0</ele><time>2026-04-11T08:37:54Z</time></trkpt><trkpt lat="39.83350279773013" lon="9.216024055457494"><ele>477.0</ele><time>2026-04-11T08:37:55Z</time></trkpt><trkpt lat="39.8335194756407" lon="9.216108196515968"><ele>477.0</ele><time>2026-04-11T08:37:56Z</time></trkpt><trkpt lat="39.833496918453655" lon="9.216206104637225"><ele>477.0</ele><time>2026-04-11T08:37:57Z</time></trkpt><trkpt lat="39.83348578935871" lon="9.216310003256716"><ele>477.0</ele><time>2026-04-11T08:37:58Z</time></trkpt><trkpt lat="39.83352123612485" lon="9.216390012436516"><ele>477.40000000000003</ele><time>2026-04-11T08:37:59Z</time></trkpt><trkpt lat="39.83358722648986" lon="9.216457442740362"><ele>477.80000000000007</ele><time>2026-04-11T08:38:00Z</time></trkpt><trkpt lat="39.83367679271752" lon="9.21648951206912"><ele>478.2</ele><time>2026-04-11T08:38:01Z</time></trkpt><trkpt lat="39.83377967515234" lon="9.216490044564322"><ele>478.6</ele><time>2026-04-11T08:38:02Z</time></trkpt><trkpt lat="39.833892135029544" lon="9.216475259096189"><ele>479.0</ele><time>2026-04-11T08:38:03Z</time></trkpt><trkpt lat="39.83400761623967" lon="9.216456612843873"><ele>484.25</ele><time>2026-04-11T08:38:04Z</time></trkpt><trkpt lat="39.834132901031246" lon="9.216452095369478"><ele>489.5</ele><time>2026-04-11T08:38:05Z</time></trkpt><trkpt lat="39.83424612017974" lon="9.216446657626816"><ele>494.75</ele><time>2026-04-11T08:38:06Z</time></trkpt><trkpt lat="39.83436078550877" lon="9.216436003633682"><ele>500.0</ele><time>2026-04-11T08:38:07Z</time></trkpt><trkpt lat="39.83446853942733" lon="9.21642373137565"><ele>501.66666666666663</ele><time>2026-04-11T08:38:08Z</time></trkpt><trkpt lat="39.83455984570827" lon="9.216419102616825"><ele>503.3333333333333</ele><time>2026-04-11T08:38:09Z</time></trkpt><trkpt lat="39.83463203577393" lon="9.21644669676049"><ele>505.0</ele><time>2026-04-11T08:38:10Z</time></trkpt><trkpt lat="39.83468077312319" lon="9.216512717103022"><ele>506.66666666666663</ele><time>2026-04-11T08:38:11Z</time></trkpt><trkpt lat="39.83469133940612" lon="9.216623512251715"><ele>508.3333333333333</ele><time>2026-04-11T08:38:12Z</time></trkpt><trkpt lat="39.83468639637008" lon="9.216740610941883"><ele>510.0</ele><time>2026-04-11T08:38:13Z</time></trkpt><trkpt lat="39.8346940101744" lon="9.216863086616865"><ele>510.0</ele><time>2026-04-11T08:38:14Z</time></trkpt><trkpt lat="39.834717086661776" lon="9.216978179221956"><ele>510.0</ele><time>2026-04-11T08:38:15Z</time></trkpt><trkpt lat="39.83476938129958" lon="9.217070979967481"><ele>510.0</ele><time>2026-04-11T08:38:16Z</time></trkpt><trkpt lat="39.83485025050362" lon="9.217145757655262"><ele>510.0</ele><time>2026-04-11T08:38:17Z</time></trkpt><trkpt lat="39.834925408667374" lon="9.217189151866524"><ele>510.0</ele><time>2026-04-11T08:38:18Z</time></trkpt><trkpt lat="39.834988474075075" lon="9.217214844243314"><ele>510.0</ele><time>2026-04-11T08:38:19Z</time></trkpt><trkpt lat="39.835088588406045" lon="9.217316809562114"><ele>511.6666666666667</ele><time>2026-04-11T08:38:21Z</time></trkpt><trkpt lat="39.835114746255485" lon="9.217417980876242"><ele>513.3333333333334</ele><time>2026-04-11T08:38:22Z</time></trkpt><trkpt lat="39.8351333254996" lon="9.217525224370648"><ele>515.0</ele><time>2026-04-11T08:38:23Z</time></trkpt><trkpt lat="39.8351699612136" lon="9.21762693299095"><ele>516.6666666666667</ele><time>2026-04-11T08:38:24Z</time></trkpt><trkpt lat="39.83523359325645" lon="9.217696543306028"><ele>518.3333333333334</ele><time>2026-04-11T08:38:25Z</time></trkpt><trkpt lat="39.835328316487356" lon="9.217725988285627"><ele>520.0</ele><time>2026-04-11T08:38:26Z</time></trkpt><trkpt lat="39.835442923631966" lon="9.217725632239945"><ele>520.0</ele><time>2026-04-11T08:38:27Z</time></trkpt><trkpt lat="39.83556392618922" lon="9.217703348427397"><ele>520.0</ele><time>2026-04-11T08:38:28Z</time></trkpt><trkpt lat="39.83569251048503" lon="9.2176550631945"><ele>520.0</ele><time>2026-04-11T08:38:29Z</time></trkpt><trkpt lat="39.835805340100855" lon="9.217614158794927"><ele>520.0</ele><time>2026-04-11T08:38:30Z</time></trkpt><trkpt lat="39.83589263029766" lon="9.217584553399014"><ele>520.0000000000001</ele><time>2026-04-11T08:38:31Z</time></trkpt><trkpt lat="39.83595866529218" lon="9.21756435445018"><ele>520.0</ele><time>2026-04-11T08:38:32Z</time></trkpt><trkpt lat="39.83602204115425" lon="9.217543769772762"><ele>520.0</ele><time>2026-04-11T08:38:34Z</time></trkpt><trkpt lat="39.836097807454976" lon="9.217532334012255"><ele>520.0</ele><time>2026-04-11T08:39:02Z</time></trkpt><trkpt lat="39.83617071368291" lon="9.217525599425011"><ele>520.0</ele><time>2026-04-11T08:39:03Z</time></trkpt><trkpt lat="39.836245330688534" lon="9.217539609217807"><ele>520.0000000000001</ele><time>2026-04-11T08:39:04Z</time></trkpt><trkpt lat="39.83632074464355" lon="9.217576149164472"><ele>520.0</ele><time>2026-04-11T08:39:05Z</time></trkpt><trkpt lat="39.83638803841212" lon="9.217646772971259"><ele>524.8</ele><time>2026-04-11T08:39:06Z</time></trkpt><trkpt lat="39.83646253270547" lon="9.217739398087925"><ele>529.6</ele><time>2026-04-11T08:39:07Z</time></trkpt><trkpt lat="39.83653809856389" lon="9.217833260215553"><ele>534.4</ele><time>2026-04-11T08:39:08Z</time></trkpt><trkpt lat="39.83661577422082" lon="9.21791664028372"><ele>539.2</ele><time>2026-04-11T08:39:09Z</time></trkpt><trkpt lat="39.83670213684201" lon="9.218003734126526"><ele>544.0</ele><time>2026-04-11T08:39:10Z</time></trkpt><trkpt lat="39.83679051712023" lon="9.218084960811655"><ele>542.0</ele><time>2026-04-11T08:39:11Z</time></trkpt><trkpt lat="39.836880193279555" lon="9.2181573672859"><ele>540.0</ele><time>2026-04-11T08:39:12Z</time></trkpt><trkpt lat="39.836978149473126" lon="9.218209481403987"><ele>538.0</ele><time>2026-04-11T08:39:13Z</time></trkpt><trkpt lat="39.8370830136683" lon="9.218235319953068"><ele>536.0</ele><time>2026-04-11T08:39:14Z</time></trkpt><trkpt lat="39.83719450514295" lon="9.21822582892237"><ele>534.0</ele><time>2026-04-11T08:39:15Z</time></trkpt><trkpt lat="39.83730565359513" lon="9.218195170246398"><ele>534.0</ele><time>2026-04-11T08:39:16Z</time></trkpt><trkpt lat="39.83741458390496" lon="9.218169527061587"><ele>534.0</ele><time>2026-04-11T08:39:17Z</time></trkpt><trkpt lat="39.83752265983926" lon="9.218144357201819"><ele>534.0</ele><time>2026-04-11T08:39:18Z</time></trkpt><trkpt lat="39.8376187864415" lon="9.218139088807073"><ele>534.0</ele><time>2026-04-11T08:39:19Z</time></trkpt><trkpt lat="39.83769665643447" lon="9.218146396836875"><ele>534.0</ele><time>2026-04-11T08:39:20Z</time></trkpt><trkpt lat="39.837763777501635" lon="9.21816080058448"><ele>538.5</ele><time>2026-04-11T08:39:21Z</time></trkpt><trkpt lat="39.837839492510156" lon="9.218177679563905"><ele>543.0</ele><time>2026-04-11T08:39:22Z</time></trkpt><trkpt lat="39.83791371492208" lon="9.218203661920045"><ele>547.5</ele><time>2026-04-11T08:39:23Z</time></trkpt><trkpt lat="39.83798726950454" lon="9.21824039892362"><ele>552.0</ele><time>2026-04-11T08:39:24Z</time></trkpt><trkpt lat="39.838050677720325" lon="9.218289943493321"><ele>556.5</ele><time>2026-04-11T08:39:25Z</time></trkpt><trkpt lat="39.838099078849105" lon="9.218355604437377"><ele>561.0</ele><time>2026-04-11T08:39:26Z</time></trkpt><trkpt lat="39.838135244315765" lon="9.218442655706268"><ele>561.0</ele><time>2026-04-11T08:39:27Z</time></trkpt><trkpt lat="39.83816070384503" lon="9.218548004709724"><ele>561.0</ele><time>2026-04-11T08:39:28Z</time></trkpt><trkpt lat="39.83818337457622" lon="9.218653032659756"><ele>561.0</ele><time>2026-04-11T08:39:29Z</time></trkpt><trkpt lat="39.83821237972419" lon="9.218763750081575"><ele>561.0</ele><time>2026-04-11T08:39:30Z</time></trkpt><trkpt lat="39.83824322552505" lon="9.218872555422186"><ele>561.0</ele><time>2026-04-11T08:39:31Z</time></trkpt><trkpt lat="39.8382840685655" lon="9.218974727531096"><ele>561.0</ele><time>2026-04-11T08:39:32Z</time></trkpt><trkpt lat="39.838332499439964" lon="9.21906501966023"><ele>562.6666666666666</ele><time>2026-04-11T08:39:33Z</time></trkpt><trkpt lat="39.83838898244418" lon="9.219128409802417"><ele>564.3333333333334</ele><time>2026-04-11T08:39:34Z</time></trkpt><trkpt lat="39.83845799083604" lon="9.219159453134122"><ele>566.0</ele><time>2026-04-11T08:39:35Z</time></trkpt><trkpt lat="39.83853787339362" lon="9.219166804078581"><ele>567.6666666666667</ele><time>2026-04-11T08:39:36Z</time></trkpt><trkpt lat="39.838623303263475" lon="9.219158774354625"><ele>569.3333333333334</ele><time>2026-04-11T08:39:37Z</time></trkpt><trkpt lat="39.83871534361545" lon="9.219152196595937"><ele>571.0</ele><time>2026-04-11T08:39:38Z</time></trkpt><trkpt lat="39.83881042815348" lon="9.219145434351818"><ele>571.0</ele><time>2026-04-11T08:39:39Z</time></trkpt><trkpt lat="39.8389108823887" lon="9.219141348784378"><ele>571.0</ele><time>2026-04-11T08:39:40Z</time></trkpt><trkpt lat="39.83900817555406" lon="9.21913600908188"><ele>571.0</ele><time>2026-04-11T08:39:41Z</time></trkpt><trkpt lat="39.83909584614721" lon="9.21914707378439"><ele>571.0</ele><time>2026-04-11T08:39:42Z</time></trkpt><trkpt lat="39.839166650994756" lon="9.219185113767923"><ele>571.0</ele><time>2026-04-11T08:39:43Z</time></trkpt><trkpt lat="39.83922274288034" lon="9.219250395227235"><ele>571.0</ele><time>2026-04-11T08:39:44Z</time></trkpt><trkpt lat="39.839258212888346" lon="9.21934014745686"><ele>571.0</ele><time>2026-04-11T08:39:45Z</time></trkpt><trkpt lat="39.83926915457466" lon="9.219446016042353"><ele>571.0</ele><time>2026-04-11T08:39:46Z</time></trkpt><trkpt lat="39.83926835977492" lon="9.21955789960034"><ele>571.0</ele><time>2026-04-11T08:39:47Z</time></trkpt><trkpt lat="39.83927337105008" lon="9.219666897830292"><ele>571.0</ele><time>2026-04-11T08:39:48Z</time></trkpt><trkpt lat="39.83930178596642" lon="9.219771785696075"><ele>571.0</ele><time>2026-04-11T08:39:49Z</time></trkpt><trkpt lat="39.83935491084934" lon="9.21986797099374"><ele>571.0</ele><time>2026-04-11T08:39:50Z</time></trkpt><trkpt lat="39.83941966269849" lon="9.219956290391313"><ele>575.4</ele><time>2026-04-11T08:39:51Z</time></trkpt><trkpt lat="39.839481341971265" lon="9.220056913667703"><ele>579.8</ele><time>2026-04-11T08:39:52Z</time></trkpt><trkpt lat="39.839541067647495" lon="9.220165192688338"><ele>584.1999999999999</ele><time>2026-04-11T08:39:53Z</time></trkpt><trkpt lat="39.83959253443792" lon="9.220283830130013"><ele>588.6</ele><time>2026-04-11T08:39:54Z</time></trkpt><trkpt lat="39.83964771571175" lon="9.220407616649236"><ele>593.0</ele><time>2026-04-11T08:39:55Z</time></trkpt><trkpt lat="39.83970889145385" lon="9.220528340384973"><ele>593.0</ele><time>2026-04-11T08:39:56Z</time></trkpt><trkpt lat="39.83977817156205" lon="9.220645455643135"><ele>593.0</ele><time>2026-04-11T08:39:57Z</time></trkpt><trkpt lat="39.83986172596138" lon="9.220753026015549"><ele>593.0</ele><time>2026-04-11T08:39:58Z</time></trkpt><trkpt lat="39.83995882424905" lon="9.2208452365044"><ele>593.0</ele><time>2026-04-11T08:39:59Z</time></trkpt><trkpt lat="39.84005931083007" lon="9.220932418258064"><ele>593.1999999999999</ele><time>2026-04-11T08:40:00Z</time></trkpt><trkpt lat="39.84015523163922" lon="9.22101592294075"><ele>593.4</ele><time>2026-04-11T08:40:01Z</time></trkpt><trkpt lat="39.840246060594914" lon="9.221088871259573"><ele>593.5999999999999</ele><time>2026-04-11T08:40:02Z</time></trkpt><trkpt lat="39.840332022515526" lon="9.221128798848671"><ele>593.8</ele><time>2026-04-11T08:40:03Z</time></trkpt><trkpt lat="39.840420773816405" lon="9.221134442174375"><ele>594.0</ele><time>2026-04-11T08:40:04Z</time></trkpt><trkpt lat="39.840511629519966" lon="9.221103810848401"><ele>594.0</ele><time>2026-04-11T08:40:05Z</time></trkpt><trkpt lat="39.840606070929496" lon="9.221042761017541"><ele>594.0</ele><time>2026-04-11T08:40:06Z</time></trkpt><trkpt lat="39.84071008875236" lon="9.220984476981778"><ele>594.0</ele><time>2026-04-11T08:40:07Z</time></trkpt><trkpt lat="39.84081748171469" lon="9.220941109225599"><ele>594.0</ele><time>2026-04-11T08:40:08Z</time></trkpt><trkpt lat="39.84093209929417" lon="9.220903168154482"><ele>594.0</ele><time>2026-04-11T08:40:09Z</time></trkpt><trkpt lat="39.84105115391144" lon="9.220870086380936"><ele>595.75</ele><time>2026-04-11T08:40:10Z</time></trkpt><trkpt lat="39.8411727321983" lon="9.220854241315232"><ele>597.5</ele><time>2026-04-11T08:40:11Z</time></trkpt><trkpt lat="39.84129302756255" lon="9.220858462450199"><ele>599.25</ele><time>2026-04-11T08:40:12Z</time></trkpt><trkpt lat="39.84140680721588" lon="9.220904395510825"><ele>601.0</ele><time>2026-04-11T08:40:13Z</time></trkpt><trkpt lat="39.84150548854258" lon="9.220989022429317"><ele>601.0</ele><time>2026-04-11T08:40:14Z</time></trkpt><trkpt lat="39.841595538478465" lon="9.221084695849754"><ele>601.0</ele><time>2026-04-11T08:40:15Z</time></trkpt><trkpt lat="39.84168195365035" lon="9.221163100269997"><ele>601.0</ele><time>2026-04-11T08:40:16Z</time></trkpt><trkpt lat="39.84176156758364" lon="9.221226441287314"><ele>601.0</ele><time>2026-04-11T08:40:17Z</time></trkpt><trkpt lat="39.84183879750864" lon="9.221276027130921"><ele>601.0</ele><time>2026-04-11T08:40:18Z</time></trkpt><trkpt lat="39.84192329341555" lon="9.221317834054632"><ele>602.8</ele><time>2026-04-11T08:40:19Z</time></trkpt><trkpt lat="39.84201808186193" lon="9.22135705241681"><ele>604.6</ele><time>2026-04-11T08:40:20Z</time></trkpt><trkpt lat="39.84212364400076" lon="9.221379578784216"><ele>606.4</ele><time>2026-04-11T08:40:21Z</time></trkpt><trkpt lat="39.842237914376796" lon="9.221399309387687"><ele>608.2</ele><time>2026-04-11T08:40:22Z</time></trkpt><trkpt lat="39.84235847422974" lon="9.221425237480036"><ele>610.0</ele><time>2026-04-11T08:40:23Z</time></trkpt><trkpt lat="39.84248373756051" lon="9.221443098425603"><ele>610.0</ele><time>2026-04-11T08:40:24Z</time></trkpt><trkpt lat="39.84261194830189" lon="9.221434982559156"><ele>610.0</ele><time>2026-04-11T08:40:25Z</time></trkpt><trkpt lat="39.8427419657691" lon="9.221399231168395"><ele>610.0</ele><time>2026-04-11T08:40:26Z</time></trkpt><trkpt lat="39.842872905418695" lon="9.221358541522154"><ele>610.0</ele><time>2026-04-11T08:40:27Z</time></trkpt><trkpt lat="39.843000089161826" lon="9.221324485211499"><ele>609.5</ele><time>2026-04-11T08:40:28Z</time></trkpt><trkpt lat="39.843122727958026" lon="9.221295218511566"><ele>609.0</ele><time>2026-04-11T08:40:29Z</time></trkpt><trkpt lat="39.843241876510724" lon="9.221279071795298"><ele>608.5</ele><time>2026-04-11T08:40:30Z</time></trkpt><trkpt lat="39.84335638137612" lon="9.221276332572021"><ele>608.0</ele><time>2026-04-11T08:40:31Z</time></trkpt><trkpt lat="39.8434643304115" lon="9.221287250799604"><ele>609.25</ele><time>2026-04-11T08:40:32Z</time></trkpt><trkpt lat="39.843564791368706" lon="9.22133475437006"><ele>610.5</ele><time>2026-04-11T08:40:33Z</time></trkpt><trkpt lat="39.843664925668115" lon="9.221417890496188"><ele>611.75</ele><time>2026-04-11T08:40:34Z</time></trkpt><trkpt lat="39.843760919177214" lon="9.221525494461147"><ele>613.0</ele><time>2026-04-11T08:40:35Z</time></trkpt><trkpt lat="39.84385779833092" lon="9.221641279024746"><ele>613.0</ele><time>2026-04-11T08:40:36Z</time></trkpt><trkpt lat="39.8439572002088" lon="9.221762852806428"><ele>613.0</ele><time>2026-04-11T08:40:37Z</time></trkpt><trkpt lat="39.8440454325509" lon="9.22190323822216"><ele>613.0</ele><time>2026-04-11T08:40:38Z</time></trkpt><trkpt lat="39.844122295961974" lon="9.222060921921882"><ele>613.0</ele><time>2026-04-11T08:40:39Z</time></trkpt><trkpt lat="39.84420460734779" lon="9.222217428689296"><ele>608.0</ele><time>2026-04-11T08:40:40Z</time></trkpt><trkpt lat="39.844294733335076" lon="9.222366605771553"><ele>603.0</ele><time>2026-04-11T08:40:41Z</time></trkpt><trkpt lat="39.84439244364355" lon="9.222510171186379"><ele>598.0</ele><time>2026-04-11T08:40:42Z</time></trkpt><trkpt lat="39.84448332872431" lon="9.22265899379486"><ele>593.0</ele><time>2026-04-11T08:40:43Z</time></trkpt><trkpt lat="39.844557139155775" lon="9.222815040178688"><ele>597.25</ele><time>2026-04-11T08:40:44Z</time></trkpt><trkpt lat="39.844630387700015" lon="9.222959682302884"><ele>601.5</ele><time>2026-04-11T08:40:45Z</time></trkpt><trkpt lat="39.84472125907063" lon="9.223082147384925"><ele>605.75</ele><time>2026-04-11T08:40:46Z</time></trkpt><trkpt lat="39.84482963171222" lon="9.223180835431387"><ele>610.0</ele><time>2026-04-11T08:40:47Z</time></trkpt><trkpt lat="39.84494428756511" lon="9.223264756040118"><ele>610.0</ele><time>2026-04-11T08:40:48Z</time></trkpt><trkpt lat="39.84506399872107" lon="9.223340951763868"><ele>610.0</ele><time>2026-04-11T08:40:49Z</time></trkpt><trkpt lat="39.84517043705011" lon="9.223440179997016"><ele>610.0</ele><time>2026-04-11T08:40:50Z</time></trkpt><trkpt lat="39.84526014219289" lon="9.223574536979624"><ele>610.0</ele><time>2026-04-11T08:40:51Z</time></trkpt><trkpt lat="39.84534924936211" lon="9.223714149292963"><ele>612.75</ele><time>2026-04-11T08:40:52Z</time></trkpt><trkpt lat="39.8454580451716" lon="9.223832141108877"><ele>615.5</ele><time>2026-04-11T08:40:53Z</time></trkpt><trkpt lat="39.8455720199277" lon="9.223935759088938"><ele>618.25</ele><time>2026-04-11T08:40:54Z</time></trkpt><trkpt lat="39.845680034512036" lon="9.224041335058747"><ele>621.0</ele><time>2026-04-11T08:40:55Z</time></trkpt><trkpt lat="39.845787439687335" lon="9.224136451747155"><ele>621.0</ele><time>2026-04-11T08:40:56Z</time></trkpt><trkpt lat="39.84589284146797" lon="9.224221376590092"><ele>621.0</ele><time>2026-04-11T08:40:57Z</time></trkpt><trkpt lat="39.84599689754148" lon="9.224277770444266"><ele>621.0</ele><time>2026-04-11T08:40:58Z</time></trkpt><trkpt lat="39.846104677345025" lon="9.224288801058275"><ele>621.0</ele><time>2026-04-11T08:40:59Z</time></trkpt><trkpt lat="39.846225139364655" lon="9.224249883638615"><ele>623.25</ele><time>2026-04-11T08:41:00Z</time></trkpt><trkpt lat="39.84635590771747" lon="9.224176204963397"><ele>625.5</ele><time>2026-04-11T08:41:01Z</time></trkpt><trkpt lat="39.84649072884716" lon="9.224106578731359"><ele>627.75</ele><time>2026-04-11T08:41:02Z</time></trkpt><trkpt lat="39.84663869718406" lon="9.224059571591125"><ele>630.0</ele><time>2026-04-11T08:41:03Z</time></trkpt><trkpt lat="39.84679274783913" lon="9.224026245695011"><ele>630.75</ele><time>2026-04-11T08:41:04Z</time></trkpt><trkpt lat="39.846943879558054" lon="9.223993049892147"><ele>631.5</ele><time>2026-04-11T08:41:05Z</time></trkpt><trkpt lat="39.84708285798709" lon="9.22396296485899"><ele>632.25</ele><time>2026-04-11T08:41:06Z</time></trkpt><trkpt lat="39.84720889571061" lon="9.2239502552532"><ele>633.0</ele><time>2026-04-11T08:41:07Z</time></trkpt><trkpt lat="39.84733944995101" lon="9.223954858868696"><ele>633.0</ele><time>2026-04-11T08:41:08Z</time></trkpt><trkpt lat="39.84746179923498" lon="9.223978381017073"><ele>633.0</ele><time>2026-04-11T08:41:09Z</time></trkpt><trkpt lat="39.847583091565006" lon="9.224028962512994"><ele>633.0</ele><time>2026-04-11T08:41:10Z</time></trkpt><trkpt lat="39.84770812386317" lon="9.224107756979231"><ele>633.0</ele><time>2026-04-11T08:41:11Z</time></trkpt><trkpt lat="39.84783911617794" lon="9.224187311627484"><ele>637.0</ele><time>2026-04-11T08:41:12Z</time></trkpt><trkpt lat="39.84798320592733" lon="9.224255205504956"><ele>641.0</ele><time>2026-04-11T08:41:13Z</time></trkpt><trkpt lat="39.84813822297788" lon="9.224307074689612"><ele>645.0</ele><time>2026-04-11T08:41:14Z</time></trkpt><trkpt lat="39.84830392535101" lon="9.224340215355474"><ele>650.6666666666666</ele><time>2026-04-11T08:41:15Z</time></trkpt><trkpt lat="39.848466366883116" lon="9.224366809772185"><ele>656.3333333333333</ele><time>2026-04-11T08:41:16Z</time></trkpt><trkpt lat="39.8486196159728" lon="9.224394789414502"><ele>662.0</ele><time>2026-04-11T08:41:17Z</time></trkpt><trkpt lat="39.84876284007283" lon="9.224423496258837"><ele>662.0</ele><time>2026-04-11T08:41:18Z</time></trkpt><trkpt lat="39.848898612232944" lon="9.224459799186587"><ele>662.0</ele><time>2026-04-11T08:41:19Z</time></trkpt><trkpt lat="39.84902432879788" lon="9.224511120811044"><ele>662.0</ele><time>2026-04-11T08:41:20Z</time></trkpt><trkpt lat="39.84914446114312" lon="9.224567865494238"><ele>662.0</ele><time>2026-04-11T08:41:21Z</time></trkpt><trkpt lat="39.849264886414595" lon="9.2246313390059"><ele>659.25</ele><time>2026-04-11T08:41:22Z</time></trkpt><trkpt lat="39.84938372257753" lon="9.224701875042982"><ele>656.5</ele><time>2026-04-11T08:41:23Z</time></trkpt><trkpt lat="39.8494949415586" lon="9.224776519166182"><ele>653.75</ele><time>2026-04-11T08:41:24Z</time></trkpt><trkpt lat="39.849607743642736" lon="9.224840603609207"><ele>651.0</ele><time>2026-04-11T08:41:25Z</time></trkpt><trkpt lat="39.8497249868221" lon="9.224901329686691"><ele>651.0</ele><time>2026-04-11T08:41:26Z</time></trkpt><trkpt lat="39.84984671543857" lon="9.22495068703908"><ele>651.0</ele><time>2026-04-11T08:41:27Z</time></trkpt><trkpt lat="39.84998149573039" lon="9.224980333988041"><ele>651.0</ele><time>2026-04-11T08:41:28Z</time></trkpt><trkpt lat="39.850122791439865" lon="9.224995042925698"><ele>651.0</ele><time>2026-04-11T08:41:29Z</time></trkpt><trkpt lat="39.85026232023283" lon="9.225013449787246"><ele>651.75</ele><time>2026-04-11T08:41:30Z</time></trkpt><trkpt lat="39.85039298857145" lon="9.225044550087501"><ele>652.5</ele><time>2026-04-11T08:41:31Z</time></trkpt><trkpt lat="39.850504781296216" lon="9.225093615058737"><ele>653.25</ele><time>2026-04-11T08:41:32Z</time></trkpt><trkpt lat="39.85059050038707" lon="9.225177234710639"><ele>654.0</ele><time>2026-04-11T08:41:33Z</time></trkpt><trkpt lat="39.85067553964312" lon="9.225231634014433"><ele>654.0</ele><time>2026-04-11T08:41:34Z</time></trkpt><trkpt lat="39.85075481266023" lon="9.225242240174683"><ele>654.0</ele><time>2026-04-11T08:41:35Z</time></trkpt><trkpt lat="39.85083520374533" lon="9.225162894080011"><ele>654.0</ele><time>2026-04-11T08:41:36Z</time></trkpt><trkpt lat="39.85091474477517" lon="9.225075345202614"><ele>654.0</ele><time>2026-04-11T08:41:37Z</time></trkpt><trkpt lat="39.85099961223618" lon="9.224982668121738"><ele>654.0</ele><time>2026-04-11T08:41:38Z</time></trkpt><trkpt lat="39.85109341621226" lon="9.224917075950863"><ele>654.5</ele><time>2026-04-11T08:41:39Z</time></trkpt><trkpt lat="39.85119163569538" lon="9.224914876214575"><ele>655.0</ele><time>2026-04-11T08:41:40Z</time></trkpt><trkpt lat="39.85127078380428" lon="9.224927011263256"><ele>655.5</ele><time>2026-04-11T08:41:41Z</time></trkpt><trkpt lat="39.85133465131439" lon="9.224969054322301"><ele>656.0</ele><time>2026-04-11T08:41:42Z</time></trkpt><trkpt lat="39.851395366493804" lon="9.225020376799266"><ele>656.5</ele><time>2026-04-11T08:41:43Z</time></trkpt><trkpt lat="39.851404776199836" lon="9.225124341073816"><ele>657.0</ele><time>2026-04-11T08:41:44Z</time></trkpt><trkpt lat="39.851400339793294" lon="9.225235969426125"><ele>657.0</ele><time>2026-04-11T08:41:45Z</time></trkpt><trkpt lat="39.85139941293125" lon="9.225363590880473"><ele>657.0</ele><time>2026-04-11T08:41:46Z</time></trkpt><trkpt lat="39.851421087508925" lon="9.225504914064759"><ele>657.0</ele><time>2026-04-11T08:41:47Z</time></trkpt><trkpt lat="39.85147873747429" lon="9.225633423221648"><ele>657.0</ele><time>2026-04-11T08:41:48Z</time></trkpt><trkpt lat="39.85153603149687" lon="9.225764134595968"><ele>657.0</ele><time>2026-04-11T08:41:49Z</time></trkpt><trkpt lat="39.851590727425666" lon="9.225909294390261"><ele>655.75</ele><time>2026-04-11T08:41:50Z</time></trkpt><trkpt lat="39.8516634707899" lon="9.226044908342338"><ele>654.5</ele><time>2026-04-11T08:41:51Z</time></trkpt><trkpt lat="39.851742186629046" lon="9.226175190243778"><ele>653.25</ele><time>2026-04-11T08:41:52Z</time></trkpt><trkpt lat="39.851827909784035" lon="9.22630281850655"><ele>652.0</ele><time>2026-04-11T08:41:53Z</time></trkpt><trkpt lat="39.851915714027356" lon="9.226423149517164"><ele>654.75</ele><time>2026-04-11T08:41:54Z</time></trkpt><trkpt lat="39.8520301077856" lon="9.226514068124844"><ele>657.5</ele><time>2026-04-11T08:41:55Z</time></trkpt><trkpt lat="39.85213810288864" lon="9.226592315947359"><ele>660.25</ele><time>2026-04-11T08:41:56Z</time></trkpt><trkpt lat="39.85223736656581" lon="9.226663630095766"><ele>663.0</ele><time>2026-04-11T08:41:57Z</time></trkpt><trkpt lat="39.852326162113066" lon="9.226741079869745"><ele>663.0</ele><time>2026-04-11T08:41:58Z</time></trkpt><trkpt lat="39.852399550097935" lon="9.226835965629608"><ele>663.0</ele><time>2026-04-11T08:41:59Z</time></trkpt><trkpt lat="39.852442773231836" lon="9.226950009566599"><ele>663.0</ele><time>2026-04-11T08:42:00Z</time></trkpt><trkpt lat="39.85246723644332" lon="9.227081584363551"><ele>663.0</ele><time>2026-04-11T08:42:01Z</time></trkpt><trkpt lat="39.85249141224928" lon="9.227224783056585"><ele>663.0</ele><time>2026-04-11T08:42:02Z</time></trkpt><trkpt lat="39.852509119271325" lon="9.227374635321269"><ele>661.5999999999999</ele><time>2026-04-11T08:42:03Z</time></trkpt><trkpt lat="39.85252775385313" lon="9.227518596861021"><ele>660.1999999999999</ele><time>2026-04-11T08:42:04Z</time></trkpt><trkpt lat="39.85256485808814" lon="9.227640177758333"><ele>658.8</ele><time>2026-04-11T08:42:05Z</time></trkpt><trkpt lat="39.852628677106004" lon="9.227734117003715"><ele>657.4</ele><time>2026-04-11T08:42:06Z</time></trkpt><trkpt lat="39.85272838233696" lon="9.227775441023569"><ele>656.0</ele><time>2026-04-11T08:42:07Z</time></trkpt><trkpt lat="39.8528321094022" lon="9.227806926016742"><ele>661.25</ele><time>2026-04-11T08:42:08Z</time></trkpt><trkpt lat="39.852940319356335" lon="9.227861553756558"><ele>666.5</ele><time>2026-04-11T08:42:09Z</time></trkpt><trkpt lat="39.853058041954505" lon="9.227901050333687"><ele>671.75</ele><time>2026-04-11T08:42:10Z</time></trkpt><trkpt lat="39.853181282543254" lon="9.22794496083618"><ele>677.0</ele><time>2026-04-11T08:42:11Z</time></trkpt><trkpt lat="39.85330747558468" lon="9.227971966709433"><ele>677.0</ele><time>2026-04-11T08:42:12Z</time></trkpt><trkpt lat="39.85343153767958" lon="9.22803236818621"><ele>677.0</ele><time>2026-04-11T08:42:13Z</time></trkpt><trkpt lat="39.853556774330364" lon="9.228103141347836"><ele>677.0</ele><time>2026-04-11T08:42:14Z</time></trkpt><trkpt lat="39.85367906901107" lon="9.228169592924907"><ele>677.0</ele><time>2026-04-11T08:42:15Z</time></trkpt><trkpt lat="39.853800513315996" lon="9.228224853437078"><ele>677.25</ele><time>2026-04-11T08:42:16Z</time></trkpt><trkpt lat="39.85392096111556" lon="9.228263184692059"><ele>677.5</ele><time>2026-04-11T08:42:17Z</time></trkpt><trkpt lat="39.854045554822626" lon="9.228282035392892"><ele>677.75</ele><time>2026-04-11T08:42:18Z</time></trkpt><trkpt lat="39.85417664761372" lon="9.228280649202311"><ele>678.0</ele><time>2026-04-11T08:42:19Z</time></trkpt><trkpt lat="39.85430411464569" lon="9.22826341608678"><ele>680.25</ele><time>2026-04-11T08:42:20Z</time></trkpt><trkpt lat="39.85442495024196" lon="9.228260410704818"><ele>682.5</ele><time>2026-04-11T08:42:21Z</time></trkpt><trkpt lat="39.854543475257735" lon="9.22830999879931"><ele>684.75</ele><time>2026-04-11T08:42:22Z</time></trkpt><trkpt lat="39.85467010718042" lon="9.228364940489579"><ele>687.0</ele><time>2026-04-11T08:42:23Z</time></trkpt><trkpt lat="39.8548032709323" lon="9.228429612626112"><ele>687.0</ele><time>2026-04-11T08:42:24Z</time></trkpt><trkpt lat="39.854942111049276" lon="9.228499108938015"><ele>687.0</ele><time>2026-04-11T08:42:25Z</time></trkpt><trkpt lat="39.85507819737214" lon="9.22856410519308"><ele>687.0</ele><time>2026-04-11T08:42:26Z</time></trkpt><trkpt lat="39.85520094365172" lon="9.22862668536737"><ele>687.0</ele><time>2026-04-11T08:42:27Z</time></trkpt><trkpt lat="39.8553077428678" lon="9.228705860912656"><ele>687.75</ele><time>2026-04-11T08:42:28Z</time></trkpt><trkpt lat="39.85540014391256" lon="9.228809760794878"><ele>688.5</ele><time>2026-04-11T08:42:29Z</time></trkpt><trkpt lat="39.85549135378526" lon="9.228913437485765"><ele>689.25</ele><time>2026-04-11T08:42:30Z</time></trkpt><trkpt lat="39.85558796607634" lon="9.228996981621817"><ele>690.0</ele><time>2026-04-11T08:42:31Z</time></trkpt><trkpt lat="39.855696925360036" lon="9.22906366195173"><ele>690.0</ele><time>2026-04-11T08:42:32Z</time></trkpt><trkpt lat="39.8558200226851" lon="9.229105453238866"><ele>690.0</ele><time>2026-04-11T08:42:33Z</time></trkpt><trkpt lat="39.85595108598081" lon="9.229105058189383"><ele>690.0</ele><time>2026-04-11T08:42:34Z</time></trkpt><trkpt lat="39.85606179689166" lon="9.229165482149455"><ele>690.0</ele><time>2026-04-11T08:42:35Z</time></trkpt><trkpt lat="39.856154078586805" lon="9.229229556634737"><ele>694.2</ele><time>2026-04-11T08:42:36Z</time></trkpt><trkpt lat="39.85621750411185" lon="9.22931566702409"><ele>698.4</ele><time>2026-04-11T08:42:37Z</time></trkpt><trkpt lat="39.856262621149114" lon="9.22942969955194"><ele>702.5999999999999</ele><time>2026-04-11T08:42:38Z</time></trkpt><trkpt lat="39.856313476510834" lon="9.229560716489054"><ele>706.8</ele><time>2026-04-11T08:42:39Z</time></trkpt><trkpt lat="39.856372395363124" lon="9.229680060764982"><ele>711.0</ele><time>2026-04-11T08:42:40Z</time></trkpt><trkpt lat="39.85646137453935" lon="9.229762153099177"><ele>711.0</ele><time>2026-04-11T08:42:41Z</time></trkpt><trkpt lat="39.85656793687262" lon="9.229805384497173"><ele>711.0</ele><time>2026-04-11T08:42:42Z</time></trkpt><trkpt lat="39.85669353793584" lon="9.229774586978499"><ele>711.0</ele><time>2026-04-11T08:42:43Z</time></trkpt><trkpt lat="39.856813698663004" lon="9.229790741419116"><ele>711.0</ele><time>2026-04-11T08:42:44Z</time></trkpt><trkpt lat="39.85693034339066" lon="9.229783370489967"><ele>712.4</ele><time>2026-04-11T08:42:45Z</time></trkpt><trkpt lat="39.85702893344556" lon="9.229803671478695"><ele>713.8</ele><time>2026-04-11T08:42:46Z</time></trkpt><trkpt lat="39.85710242566621" lon="9.229877889946318"><ele>715.1999999999999</ele><time>2026-04-11T08:42:47Z</time></trkpt><trkpt lat="39.857177488535534" lon="9.2299580725605"><ele>716.5999999999999</ele><time>2026-04-11T08:42:48Z</time></trkpt><trkpt lat="39.85726629976952" lon="9.230006447597383"><ele>718.0</ele><time>2026-04-11T08:42:49Z</time></trkpt><trkpt lat="39.85733333129242" lon="9.230054290544947"><ele>718.0</ele><time>2026-04-11T08:42:50Z</time></trkpt><trkpt lat="39.85742619980637" lon="9.229972327299846"><ele>718.0</ele><time>2026-04-11T08:42:51Z</time></trkpt><trkpt lat="39.85749317149979" lon="9.229879999493198"><ele>718.0</ele><time>2026-04-11T08:42:52Z</time></trkpt><trkpt lat="39.85756484943288" lon="9.22978798906805"><ele>718.0</ele><time>2026-04-11T08:42:53Z</time></trkpt><trkpt lat="39.85764682711205" lon="9.229709134677428"><ele>718.0</ele><time>2026-04-11T08:42:54Z</time></trkpt><trkpt lat="39.85773913831188" lon="9.22965590357298"><ele>720.4</ele><time>2026-04-11T08:42:55Z</time></trkpt><trkpt lat="39.85784217477285" lon="9.229632248668771"><ele>722.8</ele><time>2026-04-11T08:42:56Z</time></trkpt><trkpt lat="39.85794995203232" lon="9.229629247525368"><ele>725.2</ele><time>2026-04-11T08:42:57Z</time></trkpt><trkpt lat="39.858060037785236" lon="9.22962225580647"><ele>727.6</ele><time>2026-04-11T08:42:58Z</time></trkpt><trkpt lat="39.85816870097768" lon="9.229595221328786"><ele>730.0</ele><time>2026-04-11T08:42:59Z</time></trkpt><trkpt lat="39.8582756389215" lon="9.229543790815162"><ele>730.0</ele><time>2026-04-11T08:43:00Z</time></trkpt><trkpt lat="39.8583796208023" lon="9.229469762262399"><ele>730.0</ele><time>2026-04-11T08:43:01Z</time></trkpt><trkpt lat="39.85848614831022" lon="9.229397372438248"><ele>730.0</ele><time>2026-04-11T08:43:02Z</time></trkpt><trkpt lat="39.85860226075096" lon="9.229339378022917"><ele>730.0</ele><time>2026-04-11T08:43:03Z</time></trkpt><trkpt lat="39.85872697391905" lon="9.229282189491704"><ele>728.75</ele><time>2026-04-11T08:43:04Z</time></trkpt><trkpt lat="39.858858859558374" lon="9.229228397450495"><ele>727.5</ele><time>2026-04-11T08:43:05Z</time></trkpt><trkpt lat="39.85899506488691" lon="9.229188393391228"><ele>726.25</ele><time>2026-04-11T08:43:06Z</time></trkpt><trkpt lat="39.85913073076977" lon="9.229154374140878"><ele>725.0</ele><time>2026-04-11T08:43:07Z</time></trkpt><trkpt lat="39.85925990835959" lon="9.229124093173143"><ele>723.0</ele><time>2026-04-11T08:43:08Z</time></trkpt><trkpt lat="39.859385759660725" lon="9.229092732736959"><ele>721.0</ele><time>2026-04-11T08:43:09Z</time></trkpt><trkpt lat="39.859513179963386" lon="9.229085592505289"><ele>719.0</ele><time>2026-04-11T08:43:10Z</time></trkpt><trkpt lat="39.85964337991262" lon="9.2290587716075"><ele>717.0</ele><time>2026-04-11T08:43:11Z</time></trkpt><trkpt lat="39.8597777532463" lon="9.22903027386965"><ele>717.0</ele><time>2026-04-11T08:43:12Z</time></trkpt><trkpt lat="39.8599144816781" lon="9.229000741936328"><ele>717.0</ele><time>2026-04-11T08:43:13Z</time></trkpt><trkpt lat="39.860055557584886" lon="9.228970270999612"><ele>717.0</ele><time>2026-04-11T08:43:14Z</time></trkpt><trkpt lat="39.86019773840139" lon="9.22893899422118"><ele>717.0</ele><time>2026-04-11T08:43:15Z</time></trkpt><trkpt lat="39.860341466010745" lon="9.22889988690093"><ele>718.3333333333334</ele><time>2026-04-11T08:43:16Z</time></trkpt><trkpt lat="39.860481410359" lon="9.228831934371193"><ele>719.6666666666667</ele><time>2026-04-11T08:43:17Z</time></trkpt><trkpt lat="39.86062726358498" lon="9.228782109356315"><ele>721.0</ele><time>2026-04-11T08:43:18Z</time></trkpt><trkpt lat="39.860778899152244" lon="9.228753833984232"><ele>721.0</ele><time>2026-04-11T08:43:19Z</time></trkpt><trkpt lat="39.860924092573036" lon="9.228703609133175"><ele>721.0</ele><time>2026-04-11T08:43:20Z</time></trkpt><trkpt lat="39.86106649755388" lon="9.228653848135044"><ele>721.0</ele><time>2026-04-11T08:43:21Z</time></trkpt><trkpt lat="39.86120874437775" lon="9.228607465317053"><ele>721.0</ele><time>2026-04-11T08:43:22Z</time></trkpt><trkpt lat="39.86134922053715" lon="9.22856459751818"><ele>721.5</ele><time>2026-04-11T08:43:23Z</time></trkpt><trkpt lat="39.86148599449446" lon="9.228525108086432"><ele>722.0</ele><time>2026-04-11T08:43:24Z</time></trkpt><trkpt lat="39.86162415210369" lon="9.22849101743691"><ele>722.5</ele><time>2026-04-11T08:43:25Z</time></trkpt><trkpt lat="39.861759956404086" lon="9.228458733393689"><ele>723.0</ele><time>2026-04-11T08:43:26Z</time></trkpt><trkpt lat="39.86189595205986" lon="9.228426403861263"><ele>725.0</ele><time>2026-04-11T08:43:27Z</time></trkpt><trkpt lat="39.862032464326134" lon="9.228381677971399"><ele>727.0</ele><time>2026-04-11T08:43:28Z</time></trkpt><trkpt lat="39.86216075666591" lon="9.228308853937296"><ele>729.0</ele><time>2026-04-11T08:43:29Z</time></trkpt><trkpt lat="39.86228657479065" lon="9.228255529186669"><ele>731.0</ele><time>2026-04-11T08:43:30Z</time></trkpt><trkpt lat="39.862408411060855" lon="9.22819373752834"><ele>731.25</ele><time>2026-04-11T08:43:31Z</time></trkpt><trkpt lat="39.86252621248717" lon="9.228122657607873"><ele>731.5</ele><time>2026-04-11T08:43:32Z</time></trkpt><trkpt lat="39.86264668502593" lon="9.22805557049791"><ele>731.75</ele><time>2026-04-11T08:43:33Z</time></trkpt><trkpt lat="39.8627696888464" lon="9.227987883862678"><ele>732.0</ele><time>2026-04-11T08:43:34Z</time></trkpt><trkpt lat="39.86289026593368" lon="9.227907471407818"><ele>735.5</ele><time>2026-04-11T08:43:35Z</time></trkpt><trkpt lat="39.86300875178214" lon="9.227811100236703"><ele>739.0</ele><time>2026-04-11T08:43:36Z</time></trkpt><trkpt lat="39.86312753531685" lon="9.227704503469841"><ele>742.5</ele><time>2026-04-11T08:43:37Z</time></trkpt><trkpt lat="39.863243326749675" lon="9.227595090628181"><ele>746.0</ele><time>2026-04-11T08:43:38Z</time></trkpt><trkpt lat="39.86335953646906" lon="9.227487859577828"><ele>749.5</ele><time>2026-04-11T08:43:39Z</time></trkpt><trkpt lat="39.86347818143984" lon="9.227384322112776"><ele>753.0</ele><time>2026-04-11T08:43:40Z</time></trkpt><trkpt lat="39.8635936720367" lon="9.227277928692391"><ele>756.5</ele><time>2026-04-11T08:43:41Z</time></trkpt><trkpt lat="39.863709403694784" lon="9.227161434324024"><ele>760.0</ele><time>2026-04-11T08:43:42Z</time></trkpt><trkpt lat="39.86382993446477" lon="9.227049265305276"><ele>760.0</ele><time>2026-04-11T08:43:43Z</time></trkpt><trkpt lat="39.86395880277715" lon="9.226952813648548"><ele>760.0</ele><time>2026-04-11T08:43:44Z</time></trkpt><trkpt lat="39.864098573558" lon="9.226869279871915"><ele>760.0</ele><time>2026-04-11T08:43:45Z</time></trkpt><trkpt lat="39.8642387764511" lon="9.226785663915804"><ele>764.0</ele><time>2026-04-11T08:43:46Z</time></trkpt><trkpt lat="39.86438022654084" lon="9.22669590605796"><ele>768.0</ele><time>2026-04-11T08:43:47Z</time></trkpt><trkpt lat="39.864522183447306" lon="9.226604190680208"><ele>772.0</ele><time>2026-04-11T08:43:48Z</time></trkpt><trkpt lat="39.86466677174546" lon="9.226513302674716"><ele>771.0</ele><time>2026-04-11T08:43:49Z</time></trkpt><trkpt lat="39.86481095373895" lon="9.226427362790677"><ele>770.0</ele><time>2026-04-11T08:43:50Z</time></trkpt><trkpt lat="39.86495166729449" lon="9.226341590025593"><ele>769.0</ele><time>2026-04-11T08:43:51Z</time></trkpt><trkpt lat="39.865085580796055" lon="9.226257525754814"><ele>770.5</ele><time>2026-04-11T08:43:52Z</time></trkpt><trkpt lat="39.865216556465484" lon="9.226175607198902"><ele>772.0</ele><time>2026-04-11T08:43:53Z</time></trkpt><trkpt lat="39.865341324172384" lon="9.226104749394977"><ele>773.5</ele><time>2026-04-11T08:43:54Z</time></trkpt><trkpt lat="39.8654678231194" lon="9.226044910090161"><ele>775.0</ele><time>2026-04-11T08:43:55Z</time></trkpt><trkpt lat="39.86559653461757" lon="9.226001961320405"><ele>775.0</ele><time>2026-04-11T08:43:56Z</time></trkpt><trkpt lat="39.865732350958325" lon="9.225990852290366"><ele>775.0</ele><time>2026-04-11T08:43:57Z</time></trkpt><trkpt lat="39.865863029670386" lon="9.225999217684562"><ele>775.0</ele><time>2026-04-11T08:43:58Z</time></trkpt><trkpt lat="39.8659839816475" lon="9.226010445157963"><ele>775.0</ele><time>2026-04-11T08:43:59Z</time></trkpt><trkpt lat="39.86609947643621" lon="9.226007046584686"><ele>775.5</ele><time>2026-04-11T08:44:00Z</time></trkpt><trkpt lat="39.86621759144432" lon="9.225975041958451"><ele>776.0</ele><time>2026-04-11T08:44:01Z</time></trkpt><trkpt lat="39.86633883932223" lon="9.225931567945151"><ele>776.5</ele><time>2026-04-11T08:44:02Z</time></trkpt><trkpt lat="39.86646490158483" lon="9.22588105716072"><ele>777.0</ele><time>2026-04-11T08:44:03Z</time></trkpt><trkpt lat="39.866595523954416" lon="9.225830739847497"><ele>777.0</ele><time>2026-04-11T08:44:04Z</time></trkpt><trkpt lat="39.866726086665416" lon="9.225784411584076"><ele>777.0</ele><time>2026-04-11T08:44:05Z</time></trkpt><trkpt lat="39.8668510833064" lon="9.225738510603048"><ele>777.0</ele><time>2026-04-11T08:44:06Z</time></trkpt><trkpt lat="39.866965979522256" lon="9.225695227751363"><ele>777.0</ele><time>2026-04-11T08:44:07Z</time></trkpt><trkpt lat="39.86706738521643" lon="9.225652523849904"><ele>776.8333333333334</ele><time>2026-04-11T08:44:08Z</time></trkpt><trkpt lat="39.86715871626323" lon="9.225612157492579"><ele>776.6666666666667</ele><time>2026-04-11T08:44:09Z</time></trkpt><trkpt lat="39.86723063421221" lon="9.225558290477412"><ele>776.5</ele><time>2026-04-11T08:44:10Z</time></trkpt><trkpt lat="39.86728388522007" lon="9.225487384289266"><ele>776.3333333333334</ele><time>2026-04-11T08:44:11Z</time></trkpt><trkpt lat="39.867327813080685" lon="9.225395411540001"><ele>776.1666666666667</ele><time>2026-04-11T08:44:12Z</time></trkpt><trkpt lat="39.867356671654704" lon="9.225280350995256"><ele>776.0</ele><time>2026-04-11T08:44:13Z</time></trkpt><trkpt lat="39.86736889188618" lon="9.225143855139807"><ele>776.0</ele><time>2026-04-11T08:44:14Z</time></trkpt><trkpt lat="39.86737553225766" lon="9.224993314731883"><ele>776.0</ele><time>2026-04-11T08:44:15Z</time></trkpt><trkpt lat="39.867384109519215" lon="9.224837061216334"><ele>776.0</ele><time>2026-04-11T08:44:16Z</time></trkpt><trkpt lat="39.86739203543259" lon="9.224684764306422"><ele>776.0</ele><time>2026-04-11T08:44:17Z</time></trkpt><trkpt lat="39.867403122516805" lon="9.224547734767778"><ele>775.6666666666667</ele><time>2026-04-11T08:44:18Z</time></trkpt><trkpt lat="39.86741933324291" lon="9.22443100432321"><ele>775.3333333333334</ele><time>2026-04-11T08:44:19Z</time></trkpt><trkpt lat="39.86745150073585" lon="9.224337000942766"><ele>775.0</ele><time>2026-04-11T08:44:20Z</time></trkpt><trkpt lat="39.86749517608983" lon="9.224276522296242"><ele>774.6666666666667</ele><time>2026-04-11T08:44:21Z</time></trkpt><trkpt lat="39.86760910666247" lon="9.224231616630625"><ele>774.3333333333334</ele><time>2026-04-11T08:44:23Z</time></trkpt><trkpt lat="39.86768074282818" lon="9.224243037016942"><ele>774.0</ele><time>2026-04-11T08:44:24Z</time></trkpt><trkpt lat="39.86775812744669" lon="9.224272474533338"><ele>773.8000000000001</ele><time>2026-04-11T08:44:25Z</time></trkpt><trkpt lat="39.86784069255343" lon="9.224311366254321"><ele>773.6</ele><time>2026-04-11T08:44:26Z</time></trkpt><trkpt lat="39.867928831520544" lon="9.22434558164797"><ele>773.4</ele><time>2026-04-11T08:44:27Z</time></trkpt><trkpt lat="39.868026178955006" lon="9.224369712671464"><ele>773.2</ele><time>2026-04-11T08:44:28Z</time></trkpt><trkpt lat="39.86812913827687" lon="9.224378605844578"><ele>773.0</ele><time>2026-04-11T08:44:29Z</time></trkpt><trkpt lat="39.868235101219874" lon="9.224376849775046"><ele>773.0</ele><time>2026-04-11T08:44:30Z</time></trkpt><trkpt lat="39.868334306360524" lon="9.224369985370197"><ele>773.0</ele><time>2026-04-11T08:44:31Z</time></trkpt><trkpt lat="39.86842894665225" lon="9.224359651813824"><ele>773.0</ele><time>2026-04-11T08:44:32Z</time></trkpt><trkpt lat="39.86852098246791" lon="9.224345664905353"><ele>773.0</ele><time>2026-04-11T08:44:33Z</time></trkpt><trkpt lat="39.86861289381309" lon="9.22432959641953"><ele>773.0</ele><time>2026-04-11T08:44:34Z</time></trkpt><trkpt lat="39.86870350350433" lon="9.224317323110238"><ele>773.6666666666667</ele><time>2026-04-11T08:44:35Z</time></trkpt><trkpt lat="39.86879426313925" lon="9.22431567851715"><ele>774.3333333333334</ele><time>2026-04-11T08:44:36Z</time></trkpt><trkpt lat="39.86887907307541" lon="9.224329445087516"><ele>775.0</ele><time>2026-04-11T08:44:37Z</time></trkpt><trkpt lat="39.8689468594719" lon="9.224382381246498"><ele>775.6666666666667</ele><time>2026-04-11T08:44:38Z</time></trkpt><trkpt lat="39.86902062621807" lon="9.224414947003572"><ele>776.3333333333334</ele><time>2026-04-11T08:44:39Z</time></trkpt><trkpt lat="39.86908747133345" lon="9.224471856266929"><ele>777.0</ele><time>2026-04-11T08:44:40Z</time></trkpt><trkpt lat="39.86915206134908" lon="9.224524583299127"><ele>777.0</ele><time>2026-04-11T08:44:41Z</time></trkpt><trkpt lat="39.869216589272426" lon="9.224572778200427"><ele>777.0</ele><time>2026-04-11T08:44:42Z</time></trkpt><trkpt lat="39.869288954175325" lon="9.224615692373773"><ele>777.0</ele><time>2026-04-11T08:44:43Z</time></trkpt><trkpt lat="39.86935800820824" lon="9.224646291288717"><ele>777.0</ele><time>2026-04-11T08:44:44Z</time></trkpt><trkpt lat="39.86946298194102" lon="9.224648843933823"><ele>777.0</ele><time>2026-04-11T08:44:46Z</time></trkpt><trkpt lat="39.86954843189436" lon="9.224558675087886"><ele>777.0</ele><time>2026-04-11T08:44:48Z</time></trkpt><trkpt lat="39.869572436125715" lon="9.22448052186147"><ele>778.2</ele><time>2026-04-11T08:44:49Z</time></trkpt><trkpt lat="39.86960129620656" lon="9.224374001785844"><ele>779.4000000000001</ele><time>2026-04-11T08:44:50Z</time></trkpt><trkpt lat="39.86964231666888" lon="9.224263087543942"><ele>780.5999999999999</ele><time>2026-04-11T08:44:51Z</time></trkpt><trkpt lat="39.86970713115437" lon="9.224153443363285"><ele>781.8</ele><time>2026-04-11T08:44:52Z</time></trkpt><trkpt lat="39.86978926321548" lon="9.224038682761353"><ele>783.0</ele><time>2026-04-11T08:44:53Z</time></trkpt><trkpt lat="39.86987247273759" lon="9.223905610896978"><ele>784.0</ele><time>2026-04-11T08:44:54Z</time></trkpt><trkpt lat="39.86995851588598" lon="9.223765415862507"><ele>785.0</ele><time>2026-04-11T08:44:55Z</time></trkpt><trkpt lat="39.87005014636043" lon="9.223619039367422"><ele>786.0</ele><time>2026-04-11T08:44:56Z</time></trkpt><trkpt lat="39.870143375923085" lon="9.223459570998887"><ele>787.0</ele><time>2026-04-11T08:44:57Z</time></trkpt><trkpt lat="39.870235987069684" lon="9.22328818868202"><ele>782.0</ele><time>2026-04-11T08:44:58Z</time></trkpt><trkpt lat="39.8703308766962" lon="9.223106212219438"><ele>777.0</ele><time>2026-04-11T08:44:59Z</time></trkpt><trkpt lat="39.87042638881138" lon="9.22292150757336"><ele>772.0</ele><time>2026-04-11T08:45:00Z</time></trkpt><trkpt lat="39.870520719510274" lon="9.222739725605075"><ele>772.0</ele><time>2026-04-11T08:45:01Z</time></trkpt><trkpt lat="39.87061714434133" lon="9.222559533595865"><ele>772.0</ele><time>2026-04-11T08:45:02Z</time></trkpt><trkpt lat="39.870720541156324" lon="9.222390795056677"><ele>772.0</ele><time>2026-04-11T08:45:03Z</time></trkpt><trkpt lat="39.870841395407254" lon="9.222239588816143"><ele>770.6666666666666</ele><time>2026-04-11T08:45:04Z</time></trkpt><trkpt lat="39.87097711190271" lon="9.222105288644928"><ele>769.3333333333333</ele><time>2026-04-11T08:45:05Z</time></trkpt><trkpt lat="39.87111704466198" lon="9.2219659882218"><ele>768.0</ele><time>2026-04-11T08:45:06Z</time></trkpt><trkpt lat="39.871259489756696" lon="9.22182335305651"><ele>768.0</ele><time>2026-04-11T08:45:07Z</time></trkpt><trkpt lat="39.8714044565089" lon="9.221674960106464"><ele>768.0</ele><time>2026-04-11T08:45:08Z</time></trkpt><trkpt lat="39.871554124642834" lon="9.221519050296704"><ele>768.0</ele><time>2026-04-11T08:45:09Z</time></trkpt><trkpt lat="39.8717070149542" lon="9.221362977074394"><ele>766.6666666666666</ele><time>2026-04-11T08:45:10Z</time></trkpt><trkpt lat="39.87186472391845" lon="9.221209285731048"><ele>765.3333333333333</ele><time>2026-04-11T08:45:11Z</time></trkpt><trkpt lat="39.87202400398336" lon="9.221057026514616"><ele>764.0</ele><time>2026-04-11T08:45:12Z</time></trkpt><trkpt lat="39.87218557082558" lon="9.22090281470434"><ele>764.0</ele><time>2026-04-11T08:45:13Z</time></trkpt><trkpt lat="39.87234847049922" lon="9.22074640637141"><ele>764.0</ele><time>2026-04-11T08:45:14Z</time></trkpt><trkpt lat="39.87251398304088" lon="9.220601455119683"><ele>764.0</ele><time>2026-04-11T08:45:15Z</time></trkpt><trkpt lat="39.87268359689558" lon="9.220473508667924"><ele>762.3333333333333</ele><time>2026-04-11T08:45:16Z</time></trkpt><trkpt lat="39.87285007799314" lon="9.220357648207285"><ele>760.6666666666666</ele><time>2026-04-11T08:45:17Z</time></trkpt><trkpt lat="39.87300713324116" lon="9.220237465791609"><ele>759.0</ele><time>2026-04-11T08:45:18Z</time></trkpt><trkpt lat="39.87314629439028" lon="9.220113221981375"><ele>759.0</ele><time>2026-04-11T08:45:19Z</time></trkpt><trkpt lat="39.87326729700835" lon="9.219984525751771"><ele>759.0</ele><time>2026-04-11T08:45:20Z</time></trkpt><trkpt lat="39.87336597376183" lon="9.219830763733638"><ele>759.0</ele><time>2026-04-11T08:45:21Z</time></trkpt><trkpt lat="39.87343007969093" lon="9.219657107554037"><ele>755.6666666666666</ele><time>2026-04-11T08:45:22Z</time></trkpt><trkpt lat="39.87345138999733" lon="9.219465256713159"><ele>752.3333333333333</ele><time>2026-04-11T08:45:23Z</time></trkpt><trkpt lat="39.87344732996571" lon="9.219267146196906"><ele>749.0</ele><time>2026-04-11T08:45:24Z</time></trkpt><trkpt lat="39.87343481108218" lon="9.219072660253829"><ele>752.3333333333333</ele><time>2026-04-11T08:45:25Z</time></trkpt><trkpt lat="39.87342417768589" lon="9.21889773624543"><ele>755.6666666666666</ele><time>2026-04-11T08:45:26Z</time></trkpt><trkpt lat="39.87323526640197" lon="9.218761210184637"><ele>759.0</ele><time>2026-04-11T08:45:27Z</time></trkpt><trkpt lat="39.8731093969236" lon="9.218631752475966"><ele>759.0</ele><time>2026-04-11T08:45:28Z</time></trkpt><trkpt lat="39.87296240807189" lon="9.21852701416858"><ele>759.0</ele><time>2026-04-11T08:45:29Z</time></trkpt><trkpt lat="39.87280988830627" lon="9.218417781134875"><ele>759.0</ele><time>2026-04-11T08:45:30Z</time></trkpt><trkpt lat="39.872671158661866" lon="9.218296014974594"><ele>753.0</ele><time>2026-04-11T08:45:31Z</time></trkpt><trkpt lat="39.87254353820601" lon="9.218161988010818"><ele>747.0</ele><time>2026-04-11T08:45:32Z</time></trkpt><trkpt lat="39.872436291287215" lon="9.218002961606"><ele>741.0</ele><time>2026-04-11T08:45:33Z</time></trkpt><trkpt lat="39.87236257098887" lon="9.217819073798864"><ele>741.0</ele><time>2026-04-11T08:45:34Z</time></trkpt><trkpt lat="39.872328613599535" lon="9.217619340457293"><ele>741.0</ele><time>2026-04-11T08:45:35Z</time></trkpt><trkpt lat="39.872328762201924" lon="9.217397746705238"><ele>741.0</ele><time>2026-04-11T08:45:36Z</time></trkpt><trkpt lat="39.87233797893651" lon="9.217170258285046"><ele>740.6666666666666</ele><time>2026-04-11T08:45:37Z</time></trkpt><trkpt lat="39.87234071211733" lon="9.216934524055585"><ele>740.3333333333333</ele><time>2026-04-11T08:45:38Z</time></trkpt><trkpt lat="39.8723392138987" lon="9.216696514590694"><ele>740.0</ele><time>2026-04-11T08:45:39Z</time></trkpt><trkpt lat="39.87234067295392" lon="9.216457836335385"><ele>737.6666666666666</ele><time>2026-04-11T08:45:40Z</time></trkpt><trkpt lat="39.872347733968134" lon="9.216220187630375"><ele>735.3333333333334</ele><time>2026-04-11T08:45:41Z</time></trkpt><trkpt lat="39.872361778420434" lon="9.215984746749227"><ele>733.0</ele><time>2026-04-11T08:45:42Z</time></trkpt><trkpt lat="39.87239074067731" lon="9.215755168285689"><ele>730.0</ele><time>2026-04-11T08:45:43Z</time></trkpt><trkpt lat="39.872437947205476" lon="9.215531920680824"><ele>727.0</ele><time>2026-04-11T08:45:44Z</time></trkpt><trkpt lat="39.872500479377244" lon="9.215326179133779"><ele>724.0</ele><time>2026-04-11T08:45:45Z</time></trkpt><trkpt lat="39.87258096444609" lon="9.215141399237632"><ele>727.0</ele><time>2026-04-11T08:45:46Z</time></trkpt><trkpt lat="39.872680448605664" lon="9.214989845900025"><ele>730.0</ele><time>2026-04-11T08:45:47Z</time></trkpt><trkpt lat="39.87280283876378" lon="9.214878934797978"><ele>733.0</ele><time>2026-04-11T08:45:48Z</time></trkpt><trkpt lat="39.87295055978998" lon="9.214796695420892"><ele>725.6666666666667</ele><time>2026-04-11T08:45:49Z</time></trkpt><trkpt lat="39.87311461464908" lon="9.214734644529258"><ele>718.3333333333334</ele><time>2026-04-11T08:45:50Z</time></trkpt><trkpt lat="39.87327558441442" lon="9.214667662813621"><ele>711.0</ele><time>2026-04-11T08:45:51Z</time></trkpt><trkpt lat="39.87342827622138" lon="9.214585139756041"><ele>714.75</ele><time>2026-04-11T08:45:52Z</time></trkpt><trkpt lat="39.873561041836616" lon="9.214485300849384"><ele>718.5</ele><time>2026-04-11T08:45:53Z</time></trkpt><trkpt lat="39.87366409789163" lon="9.21434926428548"><ele>722.25</ele><time>2026-04-11T08:45:54Z</time></trkpt><trkpt lat="39.87373836099584" lon="9.214194457559977"><ele>726.0</ele><time>2026-04-11T08:45:55Z</time></trkpt><trkpt lat="39.873789269776196" lon="9.214042742070502"><ele>724.0</ele><time>2026-04-11T08:45:56Z</time></trkpt><trkpt lat="39.87380835807845" lon="9.213882613160228"><ele>722.0</ele><time>2026-04-11T08:45:57Z</time></trkpt><trkpt lat="39.87379392462545" lon="9.213715790228472"><ele>720.0</ele><time>2026-04-11T08:45:58Z</time></trkpt><trkpt lat="39.873756980662726" lon="9.213544934708013"><ele>718.0</ele><time>2026-04-11T08:45:59Z</time></trkpt><trkpt lat="39.87369599545375" lon="9.213373364315338"><ele>718.0</ele><time>2026-04-11T08:46:00Z</time></trkpt><trkpt lat="39.87361289765403" lon="9.213209008139463"><ele>718.0</ele><time>2026-04-11T08:46:01Z</time></trkpt><trkpt lat="39.87350140612778" lon="9.213082673970083"><ele>718.0</ele><time>2026-04-11T08:46:02Z</time></trkpt><trkpt lat="39.87337097409458" lon="9.212994466483744"><ele>718.0</ele><time>2026-04-11T08:46:03Z</time></trkpt><trkpt lat="39.873224718194805" lon="9.212935495377076"><ele>724.0</ele><time>2026-04-11T08:46:04Z</time></trkpt><trkpt lat="39.87307029769166" lon="9.212894950255226"><ele>730.0</ele><time>2026-04-11T08:46:05Z</time></trkpt><trkpt lat="39.87291559840628" lon="9.212838442547937"><ele>736.0</ele><time>2026-04-11T08:46:06Z</time></trkpt><trkpt lat="39.87276914725876" lon="9.212752129321357"><ele>736.0</ele><time>2026-04-11T08:46:07Z</time></trkpt><trkpt lat="39.872625445298986" lon="9.21263965739042"><ele>736.0</ele><time>2026-04-11T08:46:08Z</time></trkpt><trkpt lat="39.87248791111858" lon="9.212513226762809"><ele>736.0</ele><time>2026-04-11T08:46:09Z</time></trkpt><trkpt lat="39.87235679322396" lon="9.21236527098121"><ele>737.6666666666667</ele><time>2026-04-11T08:46:10Z</time></trkpt><trkpt lat="39.87223234801311" lon="9.212199351066081"><ele>739.3333333333334</ele><time>2026-04-11T08:46:11Z</time></trkpt><trkpt lat="39.87210590977425" lon="9.21202696828728"><ele>741.0</ele><time>2026-04-11T08:46:12Z</time></trkpt><trkpt lat="39.87197673568308" lon="9.21185440754905"><ele>741.0</ele><time>2026-04-11T08:46:13Z</time></trkpt><trkpt lat="39.87184728177534" lon="9.211682409576225"><ele>741.0</ele><time>2026-04-11T08:46:14Z</time></trkpt><trkpt lat="39.87172460678843" lon="9.211511430841586"><ele>741.0</ele><time>2026-04-11T08:46:15Z</time></trkpt><trkpt lat="39.87161229507735" lon="9.211337801591178"><ele>734.0</ele><time>2026-04-11T08:46:16Z</time></trkpt><trkpt lat="39.871499615061055" lon="9.21116810229375"><ele>727.0</ele><time>2026-04-11T08:46:17Z</time></trkpt><trkpt lat="39.871398899987504" lon="9.210989192867627"><ele>720.0</ele><time>2026-04-11T08:46:18Z</time></trkpt><trkpt lat="39.87132355397843" lon="9.210783800803359"><ele>727.3333333333334</ele><time>2026-04-11T08:46:19Z</time></trkpt><trkpt lat="39.87126638808902" lon="9.21056644913505"><ele>734.6666666666667</ele><time>2026-04-11T08:46:20Z</time></trkpt><trkpt lat="39.87119350205065" lon="9.21035691862206"><ele>742.0</ele><time>2026-04-11T08:46:21Z</time></trkpt><trkpt lat="39.87108712836892" lon="9.210157724064631"><ele>742.0</ele><time>2026-04-11T08:46:22Z</time></trkpt><trkpt lat="39.870958227434365" lon="9.2099768947523"><ele>742.0</ele><time>2026-04-11T08:46:23Z</time></trkpt><trkpt lat="39.870806890018194" lon="9.20981734906827"><ele>742.0</ele><time>2026-04-11T08:46:24Z</time></trkpt><trkpt lat="39.870645824169245" lon="9.209671288194556"><ele>739.0</ele><time>2026-04-11T08:46:25Z</time></trkpt><trkpt lat="39.87048771917933" lon="9.209531339201442"><ele>736.0</ele><time>2026-04-11T08:46:26Z</time></trkpt><trkpt lat="39.87033592722856" lon="9.209387581319751"><ele>733.0</ele><time>2026-04-11T08:46:27Z</time></trkpt><trkpt lat="39.870199784744514" lon="9.209242070041189"><ele>723.6666666666667</ele><time>2026-04-11T08:46:28Z</time></trkpt><trkpt lat="39.87007956636354" lon="9.209082233954097"><ele>714.3333333333334</ele><time>2026-04-11T08:46:29Z</time></trkpt><trkpt lat="39.86997593271341" lon="9.208896765790907"><ele>705.0</ele><time>2026-04-11T08:46:30Z</time></trkpt><trkpt lat="39.86989735514602" lon="9.208677759803793"><ele>705.0</ele><time>2026-04-11T08:46:31Z</time></trkpt><trkpt lat="39.86983945275651" lon="9.208439016190225"><ele>705.0</ele><time>2026-04-11T08:46:32Z</time></trkpt><trkpt lat="39.86977778940125" lon="9.208198223060172"><ele>705.0</ele><time>2026-04-11T08:46:33Z</time></trkpt><trkpt lat="39.86968355224718" lon="9.207971461295557"><ele>709.6666666666666</ele><time>2026-04-11T08:46:34Z</time></trkpt><trkpt lat="39.869572022619174" lon="9.20776794606342"><ele>714.3333333333333</ele><time>2026-04-11T08:46:35Z</time></trkpt><trkpt lat="39.86946659447013" lon="9.207564608638585"><ele>719.0</ele><time>2026-04-11T08:46:36Z</time></trkpt><trkpt lat="39.869375887739324" lon="9.207353479744759"><ele>718.0</ele><time>2026-04-11T08:46:37Z</time></trkpt><trkpt lat="39.86930635861531" lon="9.207136948609289"><ele>717.0</ele><time>2026-04-11T08:46:38Z</time></trkpt><trkpt lat="39.8692674503077" lon="9.206916216088045"><ele>716.0</ele><time>2026-04-11T08:46:39Z</time></trkpt><trkpt lat="39.86926729488747" lon="9.206693250060692"><ele>707.3333333333333</ele><time>2026-04-11T08:46:40Z</time></trkpt><trkpt lat="39.86930151049707" lon="9.206465968312433"><ele>698.6666666666666</ele><time>2026-04-11T08:46:41Z</time></trkpt><trkpt lat="39.869348423503865" lon="9.206250762809388"><ele>690.0</ele><time>2026-04-11T08:46:42Z</time></trkpt><trkpt lat="39.86941395735059" lon="9.206049250379616"><ele>690.0</ele><time>2026-04-11T08:46:43Z</time></trkpt><trkpt lat="39.86943045873828" lon="9.205848486151679"><ele>690.0</ele><time>2026-04-11T08:46:44Z</time></trkpt><trkpt lat="39.86964084251687" lon="9.205712439526263"><ele>690.0</ele><time>2026-04-11T08:46:45Z</time></trkpt><trkpt lat="39.869794506331026" lon="9.205589187985108"><ele>684.0</ele><time>2026-04-11T08:46:46Z</time></trkpt><trkpt lat="39.86996990056027" lon="9.205494274362275"><ele>678.0</ele><time>2026-04-11T08:46:47Z</time></trkpt><trkpt lat="39.87014663567675" lon="9.205414364833516"><ele>672.0</ele><time>2026-04-11T08:46:48Z</time></trkpt><trkpt lat="39.87032893040368" lon="9.20533277163431"><ele>672.0</ele><time>2026-04-11T08:46:49Z</time></trkpt><trkpt lat="39.87051311628144" lon="9.205241533630266"><ele>672.0</ele><time>2026-04-11T08:46:50Z</time></trkpt><trkpt lat="39.870698119955456" lon="9.205143834895736"><ele>672.0</ele><time>2026-04-11T08:46:51Z</time></trkpt><trkpt lat="39.87087815357828" lon="9.205024987834902"><ele>670.0</ele><time>2026-04-11T08:46:52Z</time></trkpt><trkpt lat="39.8710570377058" lon="9.204882996014263"><ele>668.0</ele><time>2026-04-11T08:46:53Z</time></trkpt><trkpt lat="39.87123365984097" lon="9.204729484512676"><ele>666.0</ele><time>2026-04-11T08:46:54Z</time></trkpt><trkpt lat="39.87141148955368" lon="9.204569667729347"><ele>666.0</ele><time>2026-04-11T08:46:55Z</time></trkpt><trkpt lat="39.87159142950623" lon="9.204409091468435"><ele>666.0</ele><time>2026-04-11T08:46:56Z</time></trkpt><trkpt lat="39.87177091356034" lon="9.204247467300242"><ele>666.0</ele><time>2026-04-11T08:46:57Z</time></trkpt><trkpt lat="39.87195142304269" lon="9.20408594543456"><ele>666.3333333333334</ele><time>2026-04-11T08:46:58Z</time></trkpt><trkpt lat="39.87212784140771" lon="9.203928863887427"><ele>666.6666666666667</ele><time>2026-04-11T08:46:59Z</time></trkpt><trkpt lat="39.87229785176791" lon="9.203772864822017"><ele>667.0</ele><time>2026-04-11T08:47:00Z</time></trkpt><trkpt lat="39.87245961322194" lon="9.203622948124478"><ele>669.0</ele><time>2026-04-11T08:47:01Z</time></trkpt><trkpt lat="39.87261692744072" lon="9.203482947229377"><ele>671.0</ele><time>2026-04-11T08:47:02Z</time></trkpt><trkpt lat="39.87278113554978" lon="9.203353795444027"><ele>673.0</ele><time>2026-04-11T08:47:03Z</time></trkpt><trkpt lat="39.87295845995361" lon="9.203237458262945"><ele>666.6666666666667</ele><time>2026-04-11T08:47:04Z</time></trkpt><trkpt lat="39.87314828928513" lon="9.203131755005014"><ele>660.3333333333334</ele><time>2026-04-11T08:47:05Z</time></trkpt><trkpt lat="39.8733397190449" lon="9.203023988764066"><ele>654.0</ele><time>2026-04-11T08:47:06Z</time></trkpt><trkpt lat="39.8735305718681" lon="9.202911477891137"><ele>654.0</ele><time>2026-04-11T08:47:07Z</time></trkpt><trkpt lat="39.87371748450112" lon="9.20280120901309"><ele>654.0</ele><time>2026-04-11T08:47:08Z</time></trkpt><trkpt lat="39.87389913519413" lon="9.202696581335262"><ele>654.0</ele><time>2026-04-11T08:47:09Z</time></trkpt><trkpt lat="39.8740726852413" lon="9.202594191454871"><ele>654.0</ele><time>2026-04-11T08:47:10Z</time></trkpt><trkpt lat="39.87424055886343" lon="9.202505792132307"><ele>654.0</ele><time>2026-04-11T08:47:11Z</time></trkpt><trkpt lat="39.8744060087361" lon="9.202451892530082"><ele>654.0</ele><time>2026-04-11T08:47:12Z</time></trkpt><trkpt lat="39.87457545690238" lon="9.202451572547991"><ele>653.6666666666666</ele><time>2026-04-11T08:47:13Z</time></trkpt><trkpt lat="39.87475447725913" lon="9.202501960367526"><ele>653.3333333333333</ele><time>2026-04-11T08:47:14Z</time></trkpt><trkpt lat="39.87494346724553" lon="9.202557376711109"><ele>653.0</ele><time>2026-04-11T08:47:15Z</time></trkpt><trkpt lat="39.87514297120439" lon="9.202597445436766"><ele>652.0</ele><time>2026-04-11T08:47:16Z</time></trkpt><trkpt lat="39.87534580218052" lon="9.202621705745113"><ele>651.0</ele><time>2026-04-11T08:47:17Z</time></trkpt><trkpt lat="39.875560300443546" lon="9.202621772393178"><ele>650.0</ele><time>2026-04-11T08:47:18Z</time></trkpt><trkpt lat="39.87578338525738" lon="9.202594208799786"><ele>650.0</ele><time>2026-04-11T08:47:19Z</time></trkpt><trkpt lat="39.87600615864901" lon="9.202551005156739"><ele>650.0</ele><time>2026-04-11T08:47:20Z</time></trkpt><trkpt lat="39.87622962968723" lon="9.20250959826372"><ele>650.0</ele><time>2026-04-11T08:47:21Z</time></trkpt><trkpt lat="39.876450777415016" lon="9.20247390984767"><ele>650.0</ele><time>2026-04-11T08:47:22Z</time></trkpt><trkpt lat="39.876667028994014" lon="9.202443379131719"><ele>650.0</ele><time>2026-04-11T08:47:23Z</time></trkpt><trkpt lat="39.87687469684973" lon="9.202403146257486"><ele>650.6666666666666</ele><time>2026-04-11T08:47:24Z</time></trkpt><trkpt lat="39.87707243243855" lon="9.202350248060633"><ele>651.3333333333334</ele><time>2026-04-11T08:47:25Z</time></trkpt><trkpt lat="39.877263796196715" lon="9.202290591783353"><ele>652.0</ele><time>2026-04-11T08:47:26Z</time></trkpt><trkpt lat="39.8774479161152" lon="9.202229286461518"><ele>640.0</ele><time>2026-04-11T08:47:27Z</time></trkpt><trkpt lat="39.87762578911911" lon="9.202160898117592"><ele>628.0</ele><time>2026-04-11T08:47:28Z</time></trkpt><trkpt lat="39.87779542046794" lon="9.202084897536173"><ele>616.0</ele><time>2026-04-11T08:47:29Z</time></trkpt><trkpt lat="39.87795817890027" lon="9.202013010931102"><ele>616.0</ele><time>2026-04-11T08:47:30Z</time></trkpt><trkpt lat="39.87812071270355" lon="9.201964189193546"><ele>616.0</ele><time>2026-04-11T08:47:31Z</time></trkpt><trkpt lat="39.87829147895598" lon="9.201959146085008"><ele>616.0</ele><time>2026-04-11T08:47:32Z</time></trkpt><trkpt lat="39.87846975167077" lon="9.201999847819941"><ele>612.6666666666667</ele><time>2026-04-11T08:47:33Z</time></trkpt><trkpt lat="39.87865289019641" lon="9.20206782398537"><ele>609.3333333333334</ele><time>2026-04-11T08:47:34Z</time></trkpt><trkpt lat="39.87883685403697" lon="9.202139808894477"><ele>606.0</ele><time>2026-04-11T08:47:35Z</time></trkpt><trkpt lat="39.87900821968509" lon="9.20223895044651"><ele>604.6666666666666</ele><time>2026-04-11T08:47:36Z</time></trkpt><trkpt lat="39.8791711314006" lon="9.202335121019084"><ele>603.3333333333333</ele><time>2026-04-11T08:47:37Z</time></trkpt><trkpt lat="39.87931655933675" lon="9.202411598921278"><ele>602.0</ele><time>2026-04-11T08:47:38Z</time></trkpt><trkpt lat="39.879431168957936" lon="9.202533370944446"><ele>602.0</ele><time>2026-04-11T08:47:39Z</time></trkpt><trkpt lat="39.87952094754309" lon="9.202688274762936"><ele>602.0</ele><time>2026-04-11T08:47:40Z</time></trkpt><trkpt lat="39.87958193761967" lon="9.202877170081965"><ele>602.0</ele><time>2026-04-11T08:47:41Z</time></trkpt><trkpt lat="39.879596366991024" lon="9.203094416348561"><ele>603.3333333333333</ele><time>2026-04-11T08:47:42Z</time></trkpt><trkpt lat="39.879624474759304" lon="9.203321014187688"><ele>604.6666666666666</ele><time>2026-04-11T08:47:43Z</time></trkpt><trkpt lat="39.879646800540876" lon="9.203560338556048"><ele>606.0</ele><time>2026-04-11T08:47:44Z</time></trkpt><trkpt lat="39.87967581211843" lon="9.203798381579574"><ele>608.3333333333334</ele><time>2026-04-11T08:47:45Z</time></trkpt><trkpt lat="39.87970442072902" lon="9.204025499001983"><ele>610.6666666666667</ele><time>2026-04-11T08:47:46Z</time></trkpt><trkpt lat="39.87973740993321" lon="9.204239583807725"><ele>613.0</ele><time>2026-04-11T08:47:47Z</time></trkpt><trkpt lat="39.87978014359738" lon="9.204444069195779"><ele>613.0</ele><time>2026-04-11T08:47:48Z</time></trkpt><trkpt lat="39.87982582137126" lon="9.204645016889605"><ele>613.0</ele><time>2026-04-11T08:47:49Z</time></trkpt><trkpt lat="39.87987388220111" lon="9.20484909193867"><ele>613.0</ele><time>2026-04-11T08:47:50Z</time></trkpt><trkpt lat="39.87993435088772" lon="9.20506519531723"><ele>615.3333333333334</ele><time>2026-04-11T08:47:51Z</time></trkpt><trkpt lat="39.88000661143328" lon="9.205280581415956"><ele>617.6666666666666</ele><time>2026-04-11T08:47:52Z</time></trkpt><trkpt lat="39.880080148184526" lon="9.205498603066415"><ele>620.0</ele><time>2026-04-11T08:47:53Z</time></trkpt><trkpt lat="39.88016289287001" lon="9.205716519400841"><ele>610.0</ele><time>2026-04-11T08:47:54Z</time></trkpt><trkpt lat="39.8802645600488" lon="9.205920218092006"><ele>600.0</ele><time>2026-04-11T08:47:55Z</time></trkpt><trkpt lat="39.880372881066265" lon="9.206102855757093"><ele>590.0</ele><time>2026-04-11T08:47:56Z</time></trkpt><trkpt lat="39.88047769348437" lon="9.20629394143797"><ele>590.0</ele><time>2026-04-11T08:47:57Z</time></trkpt><trkpt lat="39.88057877899911" lon="9.206473330454038"><ele>590.0</ele><time>2026-04-11T08:47:58Z</time></trkpt><trkpt lat="39.88069113244565" lon="9.206629146124836"><ele>590.0</ele><time>2026-04-11T08:47:59Z</time></trkpt><trkpt lat="39.88081989556277" lon="9.206749425831239"><ele>593.3333333333333</ele><time>2026-04-11T08:48:00Z</time></trkpt><trkpt lat="39.88097567295814" lon="9.206836631018527"><ele>596.6666666666666</ele><time>2026-04-11T08:48:01Z</time></trkpt><trkpt lat="39.88114744595722" lon="9.206900745468948"><ele>600.0</ele><time>2026-04-11T08:48:02Z</time></trkpt><trkpt lat="39.88132314995857" lon="9.206957549067628"><ele>600.0</ele><time>2026-04-11T08:48:03Z</time></trkpt><trkpt lat="39.88149964770193" lon="9.207008331143818"><ele>600.0</ele><time>2026-04-11T08:48:04Z</time></trkpt><trkpt lat="39.881675165126005" lon="9.207036143780899"><ele>600.0</ele><time>2026-04-11T08:48:05Z</time></trkpt><trkpt lat="39.88185095813685" lon="9.207022547258044"><ele>601.0</ele><time>2026-04-11T08:48:06Z</time></trkpt><trkpt lat="39.882029184997954" lon="9.206960982292664"><ele>602.0</ele><time>2026-04-11T08:48:07Z</time></trkpt><trkpt lat="39.88220883507695" lon="9.206866688389528"><ele>603.0</ele><time>2026-04-11T08:48:08Z</time></trkpt><trkpt lat="39.88239377925058" lon="9.20677153631922"><ele>603.0</ele><time>2026-04-11T08:48:09Z</time></trkpt><trkpt lat="39.88257690722328" lon="9.206687007035663"><ele>603.0</ele><time>2026-04-11T08:48:10Z</time></trkpt><trkpt lat="39.88275182054724" lon="9.206610565674849"><ele>603.0</ele><time>2026-04-11T08:48:11Z</time></trkpt><trkpt lat="39.88291051364551" lon="9.206534368122728"><ele>603.6666666666666</ele><time>2026-04-11T08:48:12Z</time></trkpt><trkpt lat="39.88305126833466" lon="9.206436232724002"><ele>604.3333333333333</ele><time>2026-04-11T08:48:13Z</time></trkpt><trkpt lat="39.88317147857647" lon="9.20630005644999"><ele>605.0</ele><time>2026-04-11T08:48:14Z</time></trkpt><trkpt lat="39.88326223643098" lon="9.206119932443428"><ele>605.0</ele><time>2026-04-11T08:48:15Z</time></trkpt><trkpt lat="39.883330423467164" lon="9.20590763012273"><ele>605.0</ele><time>2026-04-11T08:48:16Z</time></trkpt><trkpt lat="39.88337133777827" lon="9.205676767442334"><ele>605.0</ele><time>2026-04-11T08:48:17Z</time></trkpt><trkpt lat="39.88337548777407" lon="9.205441397130478"><ele>605.3333333333333</ele><time>2026-04-11T08:48:18Z</time></trkpt><trkpt lat="39.88334664857751" lon="9.205194600243004"><ele>605.6666666666666</ele><time>2026-04-11T08:48:19Z</time></trkpt><trkpt lat="39.883301405473034" lon="9.204940894436714"><ele>606.0</ele><time>2026-04-11T08:48:20Z</time></trkpt><trkpt lat="39.883256592597796" lon="9.20468024830988"><ele>606.0</ele><time>2026-04-11T08:48:21Z</time></trkpt><trkpt lat="39.88321552706704" lon="9.204410541432281"><ele>606.0</ele><time>2026-04-11T08:48:22Z</time></trkpt><trkpt lat="39.88317327460246" lon="9.204143683430742"><ele>606.0</ele><time>2026-04-11T08:48:23Z</time></trkpt><trkpt lat="39.88313117220089" lon="9.203887478744257"><ele>605.6666666666666</ele><time>2026-04-11T08:48:24Z</time></trkpt><trkpt lat="39.88309158228655" lon="9.203641022321898"><ele>605.3333333333333</ele><time>2026-04-11T08:48:25Z</time></trkpt><trkpt lat="39.88305834456582" lon="9.203404055957428"><ele>605.0</ele><time>2026-04-11T08:48:26Z</time></trkpt><trkpt lat="39.88303074015119" lon="9.203177287780358"><ele>602.3333333333333</ele><time>2026-04-11T08:48:27Z</time></trkpt><trkpt lat="39.88301791233508" lon="9.202958153542465"><ele>599.6666666666666</ele><time>2026-04-11T08:48:28Z</time></trkpt><trkpt lat="39.883040699882635" lon="9.202740068239248"><ele>597.0</ele><time>2026-04-11T08:48:29Z</time></trkpt><trkpt lat="39.88309941322239" lon="9.202508524495924"><ele>589.6666666666666</ele><time>2026-04-11T08:48:30Z</time></trkpt><trkpt lat="39.88318794970004" lon="9.202270539193583"><ele>582.3333333333333</ele><time>2026-04-11T08:48:31Z</time></trkpt><trkpt lat="39.88328899659745" lon="9.202022585852278"><ele>575.0</ele><time>2026-04-11T08:48:32Z</time></trkpt><trkpt lat="39.8833844537776" lon="9.201783996464611"><ele>590.3333333333333</ele><time>2026-04-11T08:48:33Z</time></trkpt><trkpt lat="39.88347143892441" lon="9.20155098295138"><ele>605.6666666666666</ele><time>2026-04-11T08:48:34Z</time></trkpt><trkpt lat="39.88354978876244" lon="9.20132001317226"><ele>621.0</ele><time>2026-04-11T08:48:35Z</time></trkpt><trkpt lat="39.88360739160309" lon="9.20108164466344"><ele>621.0</ele><time>2026-04-11T08:48:36Z</time></trkpt><trkpt lat="39.88362713318371" lon="9.200845997154461"><ele>621.0</ele><time>2026-04-11T08:48:37Z</time></trkpt><trkpt lat="39.88360592264732" lon="9.20061550573977"><ele>621.0</ele><time>2026-04-11T08:48:38Z</time></trkpt><trkpt lat="39.88356521086778" lon="9.200389318751716"><ele>617.3333333333334</ele><time>2026-04-11T08:48:39Z</time></trkpt><trkpt lat="39.88354006664751" lon="9.200155836764361"><ele>613.6666666666667</ele><time>2026-04-11T08:48:40Z</time></trkpt><trkpt lat="39.883548803007734" lon="9.199908351318088"><ele>610.0</ele><time>2026-04-11T08:48:41Z</time></trkpt><trkpt lat="39.88358646931464" lon="9.199655995149966"><ele>604.3333333333334</ele><time>2026-04-11T08:48:42Z</time></trkpt><trkpt lat="39.88364938730279" lon="9.199412062370973"><ele>598.6666666666666</ele><time>2026-04-11T08:48:43Z</time></trkpt><trkpt lat="39.883724415263494" lon="9.199187493154747"><ele>593.0</ele><time>2026-04-11T08:48:44Z</time></trkpt><trkpt lat="39.88378831871164" lon="9.198967082361653"><ele>589.6666666666666</ele><time>2026-04-11T08:48:45Z</time></trkpt><trkpt lat="39.88381726160765" lon="9.19873919617576"><ele>586.3333333333334</ele><time>2026-04-11T08:48:46Z</time></trkpt><trkpt lat="39.883808259344164" lon="9.198512382839299"><ele>583.0</ele><time>2026-04-11T08:48:47Z</time></trkpt><trkpt lat="39.883770869565915" lon="9.198287161935351"><ele>578.6666666666667</ele><time>2026-04-11T08:48:48Z</time></trkpt><trkpt lat="39.88373707434905" lon="9.198065714262082"><ele>574.3333333333334</ele><time>2026-04-11T08:48:49Z</time></trkpt><trkpt lat="39.88372863561601" lon="9.19785667366004"><ele>570.0</ele><time>2026-04-11T08:48:50Z</time></trkpt><trkpt lat="39.88373397570031" lon="9.19766090012268"><ele>570.0</ele><time>2026-04-11T08:48:51Z</time></trkpt><trkpt lat="39.8837623534387" lon="9.197479264637218"><ele>570.0</ele><time>2026-04-11T08:48:52Z</time></trkpt><trkpt lat="39.88383406283408" lon="9.197312042226887"><ele>570.0</ele><time>2026-04-11T08:48:53Z</time></trkpt><trkpt lat="39.883938523373644" lon="9.197165646128612"><ele>570.0</ele><time>2026-04-11T08:48:54Z</time></trkpt><trkpt lat="39.88407601067105" lon="9.197048989103365"><ele>563.0</ele><time>2026-04-11T08:48:55Z</time></trkpt><trkpt lat="39.88423757480638" lon="9.196937736978981"><ele>556.0</ele><time>2026-04-11T08:48:56Z</time></trkpt><trkpt lat="39.88440663770392" lon="9.196811985816653"><ele>549.0</ele><time>2026-04-11T08:48:57Z</time></trkpt><trkpt lat="39.88457815907308" lon="9.196675533957537"><ele>549.0</ele><time>2026-04-11T08:48:58Z</time></trkpt><trkpt lat="39.884756224815376" lon="9.196534187616429"><ele>549.0</ele><time>2026-04-11T08:48:59Z</time></trkpt><trkpt lat="39.88494074640282" lon="9.196394853368245"><ele>549.0</ele><time>2026-04-11T08:49:00Z</time></trkpt><trkpt lat="39.885128378034466" lon="9.196255787884137"><ele>546.6666666666666</ele><time>2026-04-11T08:49:01Z</time></trkpt><trkpt lat="39.885309441103864" lon="9.196119621127622"><ele>544.3333333333333</ele><time>2026-04-11T08:49:02Z</time></trkpt><trkpt lat="39.88548366294021" lon="9.195989357531335"><ele>542.0</ele><time>2026-04-11T08:49:03Z</time></trkpt><trkpt lat="39.88565097722577" lon="9.195862239229866"><ele>542.0</ele><time>2026-04-11T08:49:04Z</time></trkpt><trkpt lat="39.88581357738528" lon="9.195734497354367"><ele>542.0</ele><time>2026-04-11T08:49:05Z</time></trkpt><trkpt lat="39.88596684025175" lon="9.195611239313438"><ele>542.0</ele><time>2026-04-11T08:49:06Z</time></trkpt><trkpt lat="39.88611431624582" lon="9.195509920347037"><ele>534.3333333333333</ele><time>2026-04-11T08:49:07Z</time></trkpt><trkpt lat="39.88627290361364" lon="9.19544638838385"><ele>526.6666666666666</ele><time>2026-04-11T08:49:08Z</time></trkpt><trkpt lat="39.88644627038568" lon="9.195426151924442"><ele>519.0</ele><time>2026-04-11T08:49:09Z</time></trkpt><trkpt lat="39.886617221089544" lon="9.195443454194567"><ele>520.6666666666666</ele><time>2026-04-11T08:49:10Z</time></trkpt><trkpt lat="39.88678517379817" lon="9.195495017376386"><ele>522.3333333333333</ele><time>2026-04-11T08:49:11Z</time></trkpt><trkpt lat="39.88695195274515" lon="9.195606763106953"><ele>524.0</ele><time>2026-04-11T08:49:12Z</time></trkpt><trkpt lat="39.887137709691096" lon="9.1957024636369"><ele>524.0</ele><time>2026-04-11T08:49:13Z</time></trkpt><trkpt lat="39.887321602548255" lon="9.195820142878697"><ele>524.0</ele><time>2026-04-11T08:49:14Z</time></trkpt><trkpt lat="39.88750162132813" lon="9.195928894091342"><ele>524.0</ele><time>2026-04-11T08:49:15Z</time></trkpt><trkpt lat="39.887669906986666" lon="9.196053975280837"><ele>515.0</ele><time>2026-04-11T08:49:16Z</time></trkpt><trkpt lat="39.88783620660446" lon="9.19615797544666"><ele>506.0</ele><time>2026-04-11T08:49:17Z</time></trkpt><trkpt lat="39.88798816170634" lon="9.196257655355467"><ele>497.0</ele><time>2026-04-11T08:49:18Z</time></trkpt><trkpt lat="39.888084582510004" lon="9.196429574836875"><ele>501.25</ele><time>2026-04-11T08:49:19Z</time></trkpt><trkpt lat="39.88814668922436" lon="9.196604710292597"><ele>505.5</ele><time>2026-04-11T08:49:20Z</time></trkpt><trkpt lat="39.88818155670023" lon="9.196797804947877"><ele>509.75</ele><time>2026-04-11T08:49:21Z</time></trkpt><trkpt lat="39.88824701152402" lon="9.19696136697184"><ele>514.0</ele><time>2026-04-11T08:49:22Z</time></trkpt><trkpt lat="39.888312052103025" lon="9.197124099381677"><ele>514.75</ele><time>2026-04-11T08:49:23Z</time></trkpt><trkpt lat="39.888442119442615" lon="9.197218805749072"><ele>515.5</ele><time>2026-04-11T08:49:24Z</time></trkpt><trkpt lat="39.88857052790255" lon="9.197275001443327"><ele>516.25</ele><time>2026-04-11T08:49:25Z</time></trkpt><trkpt lat="39.888704480766734" lon="9.197307557247852"><ele>517.0</ele><time>2026-04-11T08:49:26Z</time></trkpt><trkpt lat="39.88884270139729" lon="9.197262888546698"><ele>517.0</ele><time>2026-04-11T08:49:27Z</time></trkpt><trkpt lat="39.88896658208479" lon="9.197159032624786"><ele>517.0</ele><time>2026-04-11T08:49:28Z</time></trkpt><trkpt lat="39.889083491524886" lon="9.197039034942142"><ele>517.0</ele><time>2026-04-11T08:49:29Z</time></trkpt><trkpt lat="39.8891958005583" lon="9.196904948289504"><ele>517.0</ele><time>2026-04-11T08:49:30Z</time></trkpt><trkpt lat="39.88929670977182" lon="9.196755360654784"><ele>528.0</ele><time>2026-04-11T08:49:31Z</time></trkpt><trkpt lat="39.88936870875979" lon="9.196581710880654"><ele>539.0</ele><time>2026-04-11T08:49:32Z</time></trkpt><trkpt lat="39.88941558964658" lon="9.19638410849404"><ele>550.0</ele><time>2026-04-11T08:49:33Z</time></trkpt><trkpt lat="39.8894280153658" lon="9.19618140685621"><ele>550.0</ele><time>2026-04-11T08:49:34Z</time></trkpt><trkpt lat="39.88940619984324" lon="9.195978061798959"><ele>550.0</ele><time>2026-04-11T08:49:35Z</time></trkpt><trkpt lat="39.88934965706127" lon="9.19576963303748"><ele>550.0</ele><time>2026-04-11T08:49:36Z</time></trkpt><trkpt lat="39.88928605590277" lon="9.195556568145827"><ele>536.6666666666667</ele><time>2026-04-11T08:49:37Z</time></trkpt><trkpt lat="39.88922810959688" lon="9.195338638901013"><ele>523.3333333333334</ele><time>2026-04-11T08:49:38Z</time></trkpt><trkpt lat="39.889175542960324" lon="9.195127399460993"><ele>510.0</ele><time>2026-04-11T08:49:39Z</time></trkpt><trkpt lat="39.8891270619362" lon="9.194929013666982"><ele>506.0</ele><time>2026-04-11T08:49:40Z</time></trkpt><trkpt lat="39.889085659996525" lon="9.194746398721158"><ele>502.0</ele><time>2026-04-11T08:49:41Z</time></trkpt><trkpt lat="39.88906204301701" lon="9.194562795982856"><ele>498.0</ele><time>2026-04-11T08:49:42Z</time></trkpt><trkpt lat="39.88907287734895" lon="9.194387364488321"><ele>494.0</ele><time>2026-04-11T08:49:43Z</time></trkpt><trkpt lat="39.88912352080061" lon="9.194229660560827"><ele>494.0</ele><time>2026-04-11T08:49:44Z</time></trkpt><trkpt lat="39.88921462993313" lon="9.194101295246709"><ele>494.0</ele><time>2026-04-11T08:49:45Z</time></trkpt><trkpt lat="39.88934079854161" lon="9.19399583627364"><ele>494.0</ele><time>2026-04-11T08:49:46Z</time></trkpt><trkpt lat="39.8894751819108" lon="9.193883525646166"><ele>494.0</ele><time>2026-04-11T08:49:47Z</time></trkpt><trkpt lat="39.88961159470928" lon="9.193764519465683"><ele>492.0</ele><time>2026-04-11T08:49:48Z</time></trkpt><trkpt lat="39.889756829761666" lon="9.193637429625959"><ele>490.0</ele><time>2026-04-11T08:49:49Z</time></trkpt><trkpt lat="39.88990935909574" lon="9.193502737179932"><ele>488.0</ele><time>2026-04-11T08:49:50Z</time></trkpt><trkpt lat="39.89006654464542" lon="9.193361680456615"><ele>484.3333333333333</ele><time>2026-04-11T08:49:51Z</time></trkpt><trkpt lat="39.89023304986484" lon="9.193220180945907"><ele>480.66666666666663</ele><time>2026-04-11T08:49:52Z</time></trkpt><trkpt lat="39.890405088303055" lon="9.193081869227392"><ele>477.0</ele><time>2026-04-11T08:49:53Z</time></trkpt><trkpt lat="39.89058435628845" lon="9.192941281149585"><ele>477.0</ele><time>2026-04-11T08:49:54Z</time></trkpt><trkpt lat="39.89076029905825" lon="9.192810520899165"><ele>477.0</ele><time>2026-04-11T08:49:55Z</time></trkpt><trkpt lat="39.89093564380584" lon="9.19268356417834"><ele>477.0</ele><time>2026-04-11T08:49:56Z</time></trkpt><trkpt lat="39.891107147535266" lon="9.192560849559472"><ele>481.33333333333337</ele><time>2026-04-11T08:49:57Z</time></trkpt><trkpt lat="39.89127619614955" lon="9.192442777131234"><ele>485.6666666666667</ele><time>2026-04-11T08:49:58Z</time></trkpt><trkpt lat="39.89143894873018" lon="9.192328124375669"><ele>490.0</ele><time>2026-04-11T08:49:59Z</time></trkpt><trkpt lat="39.89159134488829" lon="9.192227940448936"><ele>481.0</ele><time>2026-04-11T08:50:00Z</time></trkpt><trkpt lat="39.891739998270296" lon="9.192155035626614"><ele>472.0</ele><time>2026-04-11T08:50:01Z</time></trkpt><trkpt lat="39.89189954632684" lon="9.192118433621554"><ele>463.0</ele><time>2026-04-11T08:50:02Z</time></trkpt><trkpt lat="39.89207092082307" lon="9.1921203701714"><ele>460.33333333333337</ele><time>2026-04-11T08:50:03Z</time></trkpt><trkpt lat="39.89224198869981" lon="9.19219359909379"><ele>457.66666666666663</ele><time>2026-04-11T08:50:04Z</time></trkpt><trkpt lat="39.89241768169137" lon="9.192264046713113"><ele>455.0</ele><time>2026-04-11T08:50:05Z</time></trkpt><trkpt lat="39.892601331505354" lon="9.192323472086287"><ele>443.3333333333333</ele><time>2026-04-11T08:50:06Z</time></trkpt><trkpt lat="39.892786885616175" lon="9.192397856727794"><ele>431.66666666666663</ele><time>2026-04-11T08:50:07Z</time></trkpt><trkpt lat="39.892976953243846" lon="9.1924698750358"><ele>420.0</ele><time>2026-04-11T08:50:08Z</time></trkpt><trkpt lat="39.89317288972345" lon="9.19254507113868"><ele>420.0</ele><time>2026-04-11T08:50:09Z</time></trkpt><trkpt lat="39.89337430234492" lon="9.192624608918083"><ele>420.0</ele><time>2026-04-11T08:50:10Z</time></trkpt><trkpt lat="39.89357919315428" lon="9.192709459401442"><ele>420.0</ele><time>2026-04-11T08:50:11Z</time></trkpt><trkpt lat="39.893787162123765" lon="9.192794129016214"><ele>410.66666666666663</ele><time>2026-04-11T08:50:12Z</time></trkpt><trkpt lat="39.8939964058099" lon="9.192875991883628"><ele>401.3333333333333</ele><time>2026-04-11T08:50:13Z</time></trkpt><trkpt lat="39.894208502808695" lon="9.192980018744436"><ele>392.0</ele><time>2026-04-11T08:50:14Z</time></trkpt><trkpt lat="39.89442074087031" lon="9.193066619956921"><ele>392.0</ele><time>2026-04-11T08:50:15Z</time></trkpt><trkpt lat="39.89463470925008" lon="9.193128620466847"><ele>392.0</ele><time>2026-04-11T08:50:16Z</time></trkpt><trkpt lat="39.894840058279435" lon="9.193213526172638"><ele>392.0</ele><time>2026-04-11T08:50:17Z</time></trkpt><trkpt lat="39.895041960680686" lon="9.193296806027856"><ele>396.0</ele><time>2026-04-11T08:50:18Z</time></trkpt><trkpt lat="39.895238480597655" lon="9.19337774753257"><ele>400.0</ele><time>2026-04-11T08:50:19Z</time></trkpt><trkpt lat="39.89542995420452" lon="9.193453537355271"><ele>404.0</ele><time>2026-04-11T08:50:20Z</time></trkpt><trkpt lat="39.89561680841902" lon="9.193525408391519"><ele>404.0</ele><time>2026-04-11T08:50:21Z</time></trkpt><trkpt lat="39.895797782399576" lon="9.19359546915582"><ele>404.0</ele><time>2026-04-11T08:50:22Z</time></trkpt><trkpt lat="39.89597592108601" lon="9.193665961570877"><ele>404.0</ele><time>2026-04-11T08:50:23Z</time></trkpt><trkpt lat="39.896155253772854" lon="9.193736680177675"><ele>410.0</ele><time>2026-04-11T08:50:24Z</time></trkpt><trkpt lat="39.89633219639585" lon="9.193813181749258"><ele>416.0</ele><time>2026-04-11T08:50:25Z</time></trkpt><trkpt lat="39.896505527878034" lon="9.193889880183994"><ele>422.0</ele><time>2026-04-11T08:50:26Z</time></trkpt><trkpt lat="39.89667911235217" lon="9.193957026254907"><ele>439.0</ele><time>2026-04-11T08:50:27Z</time></trkpt><trkpt lat="39.89684971309856" lon="9.19400586697589"><ele>456.0</ele><time>2026-04-11T08:50:28Z</time></trkpt><trkpt lat="39.89702101064212" lon="9.194031937766741"><ele>473.0</ele><time>2026-04-11T08:50:29Z</time></trkpt><trkpt lat="39.89719423444231" lon="9.194021893075671"><ele>472.0</ele><time>2026-04-11T08:50:30Z</time></trkpt><trkpt lat="39.89736232501345" lon="9.193969066071817"><ele>471.0</ele><time>2026-04-11T08:50:31Z</time></trkpt><trkpt lat="39.897533122599" lon="9.193873699833599"><ele>470.0</ele><time>2026-04-11T08:50:32Z</time></trkpt><trkpt lat="39.89770213207858" lon="9.193746970810345"><ele>470.0</ele><time>2026-04-11T08:50:33Z</time></trkpt><trkpt lat="39.897874757377245" lon="9.193612682315814"><ele>470.0</ele><time>2026-04-11T08:50:34Z</time></trkpt><trkpt lat="39.89805239180586" lon="9.193482642790704"><ele>470.0</ele><time>2026-04-11T08:50:35Z</time></trkpt><trkpt lat="39.89823488575537" lon="9.19335167593952"><ele>470.0</ele><time>2026-04-11T08:50:36Z</time></trkpt><trkpt lat="39.89841731405923" lon="9.193215834243208"><ele>470.0</ele><time>2026-04-11T08:50:37Z</time></trkpt><trkpt lat="39.89859914197343" lon="9.19307796683151"><ele>470.0</ele><time>2026-04-11T08:50:38Z</time></trkpt><trkpt lat="39.898779784159316" lon="9.192947827032269"><ele>467.0</ele><time>2026-04-11T08:50:39Z</time></trkpt><trkpt lat="39.898953635967516" lon="9.192827208313988"><ele>464.0</ele><time>2026-04-11T08:50:40Z</time></trkpt><trkpt lat="39.89912587559866" lon="9.192699313363985"><ele>461.0</ele><time>2026-04-11T08:50:41Z</time></trkpt><trkpt lat="39.89928899787034" lon="9.192568104692219"><ele>467.3333333333333</ele><time>2026-04-11T08:50:42Z</time></trkpt><trkpt lat="39.89943179749137" lon="9.192409603677644"><ele>473.66666666666663</ele><time>2026-04-11T08:50:43Z</time></trkpt><trkpt lat="39.899560858819044" lon="9.192224341077877"><ele>480.0</ele><time>2026-04-11T08:50:44Z</time></trkpt><trkpt lat="39.8996733842597" lon="9.192018824147327"><ele>480.0</ele><time>2026-04-11T08:50:45Z</time></trkpt><trkpt lat="39.899764955891406" lon="9.191792790664858"><ele>480.0</ele><time>2026-04-11T08:50:46Z</time></trkpt><trkpt lat="39.89983798180164" lon="9.19154648075751"><ele>480.0</ele><time>2026-04-11T08:50:47Z</time></trkpt><trkpt lat="39.89992569663494" lon="9.191300495077478"><ele>482.66666666666663</ele><time>2026-04-11T08:50:48Z</time></trkpt><trkpt lat="39.89998270065359" lon="9.191049812920776"><ele>485.3333333333333</ele><time>2026-04-11T08:50:49Z</time></trkpt><trkpt lat="39.9000597611483" lon="9.190828608107388"><ele>488.0</ele><time>2026-04-11T08:50:50Z</time></trkpt><trkpt lat="39.90014206824755" lon="9.19062503636752"><ele>488.0</ele><time>2026-04-11T08:50:51Z</time></trkpt><trkpt lat="39.900262110577735" lon="9.19044910049806"><ele>488.0</ele><time>2026-04-11T08:50:52Z</time></trkpt><trkpt lat="39.90040236244497" lon="9.190305707570824"><ele>488.0</ele><time>2026-04-11T08:50:53Z</time></trkpt><trkpt lat="39.90054568790751" lon="9.190177811162757"><ele>488.0</ele><time>2026-04-11T08:50:54Z</time></trkpt><trkpt lat="39.90065381904189" lon="9.190025514273877"><ele>488.0</ele><time>2026-04-11T08:50:55Z</time></trkpt><trkpt lat="39.90074054879041" lon="9.189828493402336"><ele>488.0</ele><time>2026-04-11T08:50:56Z</time></trkpt><trkpt lat="39.90080997523019" lon="9.189607073176427"><ele>485.0</ele><time>2026-04-11T08:50:57Z</time></trkpt><trkpt lat="39.900873149127875" lon="9.189370059734511"><ele>482.0</ele><time>2026-04-11T08:50:58Z</time></trkpt><trkpt lat="39.900936255229915" lon="9.189136042432006"><ele>479.0</ele><time>2026-04-11T08:50:59Z</time></trkpt><trkpt lat="39.9009988362306" lon="9.188895271880204"><ele>488.3333333333333</ele><time>2026-04-11T08:51:00Z</time></trkpt><trkpt lat="39.90106033580026" lon="9.188652131620193"><ele>497.66666666666663</ele><time>2026-04-11T08:51:01Z</time></trkpt><trkpt lat="39.90111789853192" lon="9.18842605246321"><ele>507.0</ele><time>2026-04-11T08:51:02Z</time></trkpt><trkpt lat="39.90116673222742" lon="9.188214959073377"><ele>508.66666666666663</ele><time>2026-04-11T08:51:03Z</time></trkpt><trkpt lat="39.901185278160874" lon="9.188015290382149"><ele>510.3333333333333</ele><time>2026-04-11T08:51:04Z</time></trkpt><trkpt lat="39.9011542362663" lon="9.187813719594407"><ele>512.0</ele><time>2026-04-11T08:51:05Z</time></trkpt><trkpt lat="39.901097651112565" lon="9.187613359739276"><ele>512.0</ele><time>2026-04-11T08:51:06Z</time></trkpt><trkpt lat="39.90106184315045" lon="9.187423219184053"><ele>512.0</ele><time>2026-04-11T08:51:07Z</time></trkpt><trkpt lat="39.901050280989736" lon="9.187267529429645"><ele>512.0</ele><time>2026-04-11T08:51:08Z</time></trkpt><trkpt lat="39.901065613674255" lon="9.187157793549549"><ele>512.0</ele><time>2026-04-11T08:51:09Z</time></trkpt><trkpt lat="39.90111706261085" lon="9.18709259222539"><ele>512.0</ele><time>2026-04-11T08:51:10Z</time></trkpt><trkpt lat="39.90119192870217" lon="9.187074606990459"><ele>512.0</ele><time>2026-04-11T08:51:11Z</time></trkpt><trkpt lat="39.90126983826545" lon="9.187111154394568"><ele>512.0</ele><time>2026-04-11T08:51:12Z</time></trkpt><trkpt lat="39.901314511863426" lon="9.187228386211581"><ele>512.0</ele><time>2026-04-11T08:51:13Z</time></trkpt><trkpt lat="39.901366065498074" lon="9.18735028559162"><ele>512.0</ele><time>2026-04-11T08:51:14Z</time></trkpt><trkpt lat="39.90139962002513" lon="9.187507763686114"><ele>512.0</ele><time>2026-04-11T08:51:15Z</time></trkpt><trkpt lat="39.901449078615805" lon="9.187684079140817"><ele>512.0</ele><time>2026-04-11T08:51:16Z</time></trkpt><trkpt lat="39.90150663848385" lon="9.187882560654641"><ele>512.0</ele><time>2026-04-11T08:51:17Z</time></trkpt><trkpt lat="39.9015629361542" lon="9.188079168556538"><ele>512.0</ele><time>2026-04-11T08:51:18Z</time></trkpt><trkpt lat="39.901606171250585" lon="9.18829799694729"><ele>510.3333333333333</ele><time>2026-04-11T08:51:19Z</time></trkpt><trkpt lat="39.90166780712308" lon="9.18851680225951"><ele>508.66666666666663</ele><time>2026-04-11T08:51:20Z</time></trkpt><trkpt lat="39.90172501469535" lon="9.18873945801311"><ele>507.0</ele><time>2026-04-11T08:51:21Z</time></trkpt><trkpt lat="39.90176529106849" lon="9.188959874400215"><ele>506.33333333333337</ele><time>2026-04-11T08:51:22Z</time></trkpt><trkpt lat="39.90178559556356" lon="9.189193657285095"><ele>505.6666666666667</ele><time>2026-04-11T08:51:23Z</time></trkpt><trkpt lat="39.90176808400186" lon="9.189434424184164"><ele>505.0</ele><time>2026-04-11T08:51:24Z</time></trkpt><trkpt lat="39.901741593197436" lon="9.18968344436873"><ele>508.33333333333337</ele><time>2026-04-11T08:51:25Z</time></trkpt><trkpt lat="39.901702357309354" lon="9.189925470295487"><ele>511.66666666666663</ele><time>2026-04-11T08:51:26Z</time></trkpt><trkpt lat="39.90164186796017" lon="9.190156687277293"><ele>515.0</ele><time>2026-04-11T08:51:27Z</time></trkpt><trkpt lat="39.90155093765366" lon="9.190375932861087"><ele>515.0</ele><time>2026-04-11T08:51:28Z</time></trkpt><trkpt lat="39.9014463289424" lon="9.190578653976818"><ele>515.0</ele><time>2026-04-11T08:51:29Z</time></trkpt><trkpt lat="39.90135460553356" lon="9.190764243099903"><ele>515.0</ele><time>2026-04-11T08:51:30Z</time></trkpt><trkpt lat="39.90126902405201" lon="9.190926880116695"><ele>517.6</ele><time>2026-04-11T08:51:31Z</time></trkpt><trkpt lat="39.901190792125455" lon="9.191057142673113"><ele>520.2</ele><time>2026-04-11T08:51:32Z</time></trkpt><trkpt lat="39.90113981316641" lon="9.191177813335154"><ele>522.8</ele><time>2026-04-11T08:51:33Z</time></trkpt><trkpt lat="39.901128960624995" lon="9.191294264837996"><ele>525.4</ele><time>2026-04-11T08:51:34Z</time></trkpt><trkpt lat="39.90114651078375" lon="9.191392915629493"><ele>528.0</ele><time>2026-04-11T08:51:35Z</time></trkpt><trkpt lat="39.90121991633291" lon="9.191454557180478"><ele>528.0</ele><time>2026-04-11T08:51:36Z</time></trkpt><trkpt lat="39.90130865078253" lon="9.191432398779297"><ele>528.0</ele><time>2026-04-11T08:51:37Z</time></trkpt><trkpt lat="39.901386782904176" lon="9.191356480167812"><ele>528.0</ele><time>2026-04-11T08:51:38Z</time></trkpt><trkpt lat="39.90145449772453" lon="9.191224173611461"><ele>528.0</ele><time>2026-04-11T08:51:39Z</time></trkpt><trkpt lat="39.901518620535896" lon="9.191058470173243"><ele>528.0</ele><time>2026-04-11T08:51:40Z</time></trkpt><trkpt lat="39.901586459486424" lon="9.190888168148351"><ele>528.0</ele><time>2026-04-11T08:51:41Z</time></trkpt><trkpt lat="39.9016717144734" lon="9.190699588166575"><ele>528.0</ele><time>2026-04-11T08:51:42Z</time></trkpt><trkpt lat="39.901765050211836" lon="9.190501668075493"><ele>532.0</ele><time>2026-04-11T08:51:43Z</time></trkpt><trkpt lat="39.90187404239643" lon="9.190318615319319"><ele>536.0</ele><time>2026-04-11T08:51:44Z</time></trkpt><trkpt lat="39.901973911386264" lon="9.190110468174842"><ele>540.0</ele><time>2026-04-11T08:51:45Z</time></trkpt><trkpt lat="39.90207813890784" lon="9.189906664303702"><ele>536.3333333333334</ele><time>2026-04-11T08:51:46Z</time></trkpt><trkpt lat="39.902179142337225" lon="9.189700876647827"><ele>532.6666666666667</ele><time>2026-04-11T08:51:47Z</time></trkpt><trkpt lat="39.90231861021219" lon="9.189533741548805"><ele>529.0</ele><time>2026-04-11T08:51:48Z</time></trkpt><trkpt lat="39.90245887440782" lon="9.189392212680147"><ele>540.0</ele><time>2026-04-11T08:51:49Z</time></trkpt><trkpt lat="39.90259105461816" lon="9.189257069782778"><ele>551.0</ele><time>2026-04-11T08:51:50Z</time></trkpt><trkpt lat="39.902713332217104" lon="9.189126013119333"><ele>562.0</ele><time>2026-04-11T08:51:51Z</time></trkpt><trkpt lat="39.902808855585285" lon="9.188993178960615"><ele>562.0</ele><time>2026-04-11T08:51:52Z</time></trkpt><trkpt lat="39.90286435308972" lon="9.188841490483618"><ele>562.0</ele><time>2026-04-11T08:51:53Z</time></trkpt><trkpt lat="39.902873590582075" lon="9.188680746781623"><ele>562.0</ele><time>2026-04-11T08:51:54Z</time></trkpt><trkpt lat="39.90284213799974" lon="9.188515949593729"><ele>562.0</ele><time>2026-04-11T08:51:55Z</time></trkpt><trkpt lat="39.902776309840384" lon="9.188350662247961"><ele>562.0</ele><time>2026-04-11T08:51:56Z</time></trkpt><trkpt lat="39.902678358966966" lon="9.1881885378579"><ele>562.0</ele><time>2026-04-11T08:51:57Z</time></trkpt><trkpt lat="39.90258611286374" lon="9.188002840847247"><ele>562.0</ele><time>2026-04-11T08:51:58Z</time></trkpt><trkpt lat="39.9025169301651" lon="9.187806280688504"><ele>558.0</ele><time>2026-04-11T08:51:59Z</time></trkpt><trkpt lat="39.902446259062046" lon="9.187602095950448"><ele>554.0</ele><time>2026-04-11T08:52:00Z</time></trkpt><trkpt lat="39.90238109709532" lon="9.187420604736465"><ele>550.0</ele><time>2026-04-11T08:52:01Z</time></trkpt><trkpt lat="39.90233141982676" lon="9.18725949747582"><ele>550.0</ele><time>2026-04-11T08:52:02Z</time></trkpt><trkpt lat="39.902316110418404" lon="9.187114343147348"><ele>550.0</ele><time>2026-04-11T08:52:03Z</time></trkpt><trkpt lat="39.902346194516426" lon="9.186990129575031"><ele>550.0</ele><time>2026-04-11T08:52:04Z</time></trkpt><trkpt lat="39.902413384192236" lon="9.186913414302087"><ele>550.0</ele><time>2026-04-11T08:52:05Z</time></trkpt><trkpt lat="39.90250662034133" lon="9.18688698402505"><ele>550.0</ele><time>2026-04-11T08:52:06Z</time></trkpt><trkpt lat="39.90259153848286" lon="9.186947982728277"><ele>554.8</ele><time>2026-04-11T08:52:07Z</time></trkpt><trkpt lat="39.90265254017146" lon="9.187042174623203"><ele>559.6</ele><time>2026-04-11T08:52:08Z</time></trkpt><trkpt lat="39.902671417624894" lon="9.187170408952277"><ele>564.4</ele><time>2026-04-11T08:52:09Z</time></trkpt><trkpt lat="39.90269065743045" lon="9.18731793651215"><ele>569.2</ele><time>2026-04-11T08:52:10Z</time></trkpt><trkpt lat="39.9027086153282" lon="9.187493513480165"><ele>574.0</ele><time>2026-04-11T08:52:11Z</time></trkpt><trkpt lat="39.90275383591753" lon="9.187670156946606"><ele>574.6666666666667</ele><time>2026-04-11T08:52:12Z</time></trkpt><trkpt lat="39.90282143429109" lon="9.187869920771421"><ele>575.3333333333334</ele><time>2026-04-11T08:52:13Z</time></trkpt><trkpt lat="39.9028979189341" lon="9.188061660941793"><ele>576.0</ele><time>2026-04-11T08:52:14Z</time></trkpt><trkpt lat="39.9029825933389" lon="9.188256049047999"><ele>572.5</ele><time>2026-04-11T08:52:15Z</time></trkpt><trkpt lat="39.903082370847294" lon="9.1884127006826"><ele>569.0</ele><time>2026-04-11T08:52:16Z</time></trkpt><trkpt lat="39.90317062130792" lon="9.188565372217996"><ele>565.5</ele><time>2026-04-11T08:52:17Z</time></trkpt><trkpt lat="39.90323181964394" lon="9.188718444814148"><ele>562.0</ele><time>2026-04-11T08:52:18Z</time></trkpt><trkpt lat="39.90323398756086" lon="9.188897173103117"><ele>562.0</ele><time>2026-04-11T08:52:19Z</time></trkpt><trkpt lat="39.90317250602189" lon="9.189085291384144"><ele>562.0</ele><time>2026-04-11T08:52:20Z</time></trkpt><trkpt lat="39.90313743626604" lon="9.189303348609158"><ele>562.0</ele><time>2026-04-11T08:52:21Z</time></trkpt><trkpt lat="39.903088160096935" lon="9.189532570644086"><ele>562.0</ele><time>2026-04-11T08:52:22Z</time></trkpt><trkpt lat="39.90301618584736" lon="9.1897610437783"><ele>562.0</ele><time>2026-04-11T08:52:23Z</time></trkpt><trkpt lat="39.902959655272895" lon="9.18998263804092"><ele>562.0</ele><time>2026-04-11T08:52:24Z</time></trkpt><trkpt lat="39.90286741689561" lon="9.190168041248201"><ele>565.0</ele><time>2026-04-11T08:52:25Z</time></trkpt><trkpt lat="39.90277106031599" lon="9.190331112277532"><ele>568.0</ele><time>2026-04-11T08:52:26Z</time></trkpt><trkpt lat="39.90269220208199" lon="9.190467345439203"><ele>571.0</ele><time>2026-04-11T08:52:27Z</time></trkpt><trkpt lat="39.90264726554936" lon="9.190590886371062"><ele>574.0</ele><time>2026-04-11T08:52:28Z</time></trkpt><trkpt lat="39.902643378991144" lon="9.190713791207857"><ele>574.0</ele><time>2026-04-11T08:52:29Z</time></trkpt><trkpt lat="39.90266879528106" lon="9.190830616625563"><ele>574.0</ele><time>2026-04-11T08:52:30Z</time></trkpt><trkpt lat="39.90275890761986" lon="9.190897300683472"><ele>574.0</ele><time>2026-04-11T08:52:31Z</time></trkpt><trkpt lat="39.90286859186656" lon="9.19089341631297"><ele>574.0</ele><time>2026-04-11T08:52:32Z</time></trkpt><trkpt lat="39.90295715237075" lon="9.19078090383499"><ele>574.0</ele><time>2026-04-11T08:52:33Z</time></trkpt><trkpt lat="39.90300256583051" lon="9.190662913337032"><ele>574.0</ele><time>2026-04-11T08:52:34Z</time></trkpt><trkpt lat="39.9030434640408" lon="9.190486178793066"><ele>574.0</ele><time>2026-04-11T08:52:35Z</time></trkpt><trkpt lat="39.9030998111382" lon="9.190316883954937"><ele>574.0</ele><time>2026-04-11T08:52:36Z</time></trkpt><trkpt lat="39.90317811497758" lon="9.190125079464075"><ele>574.0</ele><time>2026-04-11T08:52:37Z</time></trkpt><trkpt lat="39.90326185123499" lon="9.189920042549774"><ele>574.0</ele><time>2026-04-11T08:52:38Z</time></trkpt><trkpt lat="39.90334764104004" lon="9.189709128251174"><ele>574.0</ele><time>2026-04-11T08:52:39Z</time></trkpt><trkpt lat="39.903444447780956" lon="9.189484490591312"><ele>582.0</ele><time>2026-04-11T08:52:40Z</time></trkpt><trkpt lat="39.90353881863452" lon="9.189273653670678"><ele>590.0</ele><time>2026-04-11T08:52:41Z</time></trkpt><trkpt lat="39.903622482082916" lon="9.189080137562478"><ele>598.0</ele><time>2026-04-11T08:52:42Z</time></trkpt><trkpt lat="39.90368945712086" lon="9.188892727156695"><ele>598.0</ele><time>2026-04-11T08:52:43Z</time></trkpt><trkpt lat="39.90372461443313" lon="9.188714057303057"><ele>598.0</ele><time>2026-04-11T08:52:44Z</time></trkpt><trkpt lat="39.90370453326172" lon="9.18854964956851"><ele>598.0</ele><time>2026-04-11T08:52:45Z</time></trkpt><trkpt lat="39.90363817937797" lon="9.188413291862538"><ele>598.0</ele><time>2026-04-11T08:52:46Z</time></trkpt><trkpt lat="39.90353623409351" lon="9.188305073886436"><ele>598.0</ele><time>2026-04-11T08:52:47Z</time></trkpt><trkpt lat="39.90342317380242" lon="9.188191945946475"><ele>598.0</ele><time>2026-04-11T08:52:48Z</time></trkpt><trkpt lat="39.90333153518193" lon="9.188047593878858"><ele>598.0</ele><time>2026-04-11T08:52:49Z</time></trkpt><trkpt lat="39.90326531207603" lon="9.187854657543115"><ele>598.0</ele><time>2026-04-11T08:52:50Z</time></trkpt><trkpt lat="39.90322182700786" lon="9.187635952814654"><ele>590.6666666666667</ele><time>2026-04-11T08:52:51Z</time></trkpt><trkpt lat="39.9032126295659" lon="9.187414565436615"><ele>583.3333333333334</ele><time>2026-04-11T08:52:52Z</time></trkpt><trkpt lat="39.90323183923428" lon="9.187185593059883"><ele>576.0</ele><time>2026-04-11T08:52:53Z</time></trkpt><trkpt lat="39.903285623687225" lon="9.186984904779083"><ele>575.5</ele><time>2026-04-11T08:52:54Z</time></trkpt><trkpt lat="39.90337608553966" lon="9.186837256634131"><ele>575.0</ele><time>2026-04-11T08:52:55Z</time></trkpt><trkpt lat="39.9034829654215" lon="9.186728385107557"><ele>574.5</ele><time>2026-04-11T08:52:56Z</time></trkpt><trkpt lat="39.90360510120194" lon="9.186641149197634"><ele>574.0</ele><time>2026-04-11T08:52:57Z</time></trkpt><trkpt lat="39.90375352619273" lon="9.186621620306601"><ele>578.25</ele><time>2026-04-11T08:52:58Z</time></trkpt><trkpt lat="39.90389770405724" lon="9.186595237917821"><ele>582.5</ele><time>2026-04-11T08:52:59Z</time></trkpt><trkpt lat="39.904007285651694" lon="9.186518841216003"><ele>586.75</ele><time>2026-04-11T08:53:00Z</time></trkpt><trkpt lat="39.90407983415786" lon="9.186393021373478"><ele>591.0</ele><time>2026-04-11T08:53:01Z</time></trkpt><trkpt lat="39.904133402528096" lon="9.18622011918088"><ele>591.0</ele><time>2026-04-11T08:53:02Z</time></trkpt><trkpt lat="39.90414746013293" lon="9.186030110810128"><ele>591.0</ele><time>2026-04-11T08:53:03Z</time></trkpt><trkpt lat="39.9041224645466" lon="9.185830133179191"><ele>591.0</ele><time>2026-04-11T08:53:04Z</time></trkpt><trkpt lat="39.904086917241365" lon="9.185631622892167"><ele>590.6</ele><time>2026-04-11T08:53:05Z</time></trkpt><trkpt lat="39.90406764622152" lon="9.185461069930916"><ele>590.2</ele><time>2026-04-11T08:53:06Z</time></trkpt><trkpt lat="39.9040863521795" lon="9.185314276198765"><ele>589.8</ele><time>2026-04-11T08:53:07Z</time></trkpt><trkpt lat="39.90413974621314" lon="9.185227497063385"><ele>589.4</ele><time>2026-04-11T08:53:08Z</time></trkpt><trkpt lat="39.9042232906862" lon="9.185222535566467"><ele>589.0</ele><time>2026-04-11T08:53:09Z</time></trkpt><trkpt lat="39.90429509683886" lon="9.185244667191181"><ele>593.6</ele><time>2026-04-11T08:53:10Z</time></trkpt><trkpt lat="39.904314881193756" lon="9.18536560860444"><ele>598.2</ele><time>2026-04-11T08:53:11Z</time></trkpt><trkpt lat="39.904324178861245" lon="9.185490163209781"><ele>602.8000000000001</ele><time>2026-04-11T08:53:12Z</time></trkpt><trkpt lat="39.904295753034766" lon="9.185643557800901"><ele>607.4</ele><time>2026-04-11T08:53:13Z</time></trkpt><trkpt lat="39.904290703377534" lon="9.185807174118809"><ele>612.0</ele><time>2026-04-11T08:53:14Z</time></trkpt><trkpt lat="39.90430161997304" lon="9.185992383777952"><ele>618.0</ele><time>2026-04-11T08:53:15Z</time></trkpt><trkpt lat="39.90432525279827" lon="9.186196840733315"><ele>624.0</ele><time>2026-04-11T08:53:16Z</time></trkpt><trkpt lat="39.90432878609928" lon="9.186402373185185"><ele>630.0</ele><time>2026-04-11T08:53:17Z</time></trkpt><trkpt lat="39.90429171992194" lon="9.18659809236811"><ele>619.3333333333334</ele><time>2026-04-11T08:53:18Z</time></trkpt><trkpt lat="39.90421812423933" lon="9.186788608785092"><ele>608.6666666666667</ele><time>2026-04-11T08:53:19Z</time></trkpt><trkpt lat="39.9041228359368" lon="9.186967655031104"><ele>598.0</ele><time>2026-04-11T08:53:20Z</time></trkpt><trkpt lat="39.90403526889857" lon="9.187139386027265"><ele>598.0</ele><time>2026-04-11T08:53:21Z</time></trkpt><trkpt lat="39.90397433895611" lon="9.187299687330192"><ele>598.0</ele><time>2026-04-11T08:53:22Z</time></trkpt><trkpt lat="39.90394737578333" lon="9.187465816217442"><ele>598.0</ele><time>2026-04-11T08:53:23Z</time></trkpt><trkpt lat="39.9039552467221" lon="9.18763617508106"><ele>598.0</ele><time>2026-04-11T08:53:24Z</time></trkpt><trkpt lat="39.90400189329226" lon="9.187784393200502"><ele>600.5</ele><time>2026-04-11T08:53:25Z</time></trkpt><trkpt lat="39.90408233997761" lon="9.187896390011456"><ele>603.0</ele><time>2026-04-11T08:53:26Z</time></trkpt><trkpt lat="39.904198702129676" lon="9.187969857240263"><ele>605.5</ele><time>2026-04-11T08:53:27Z</time></trkpt><trkpt lat="39.90431621194404" lon="9.1880595040715"><ele>608.0</ele><time>2026-04-11T08:53:28Z</time></trkpt><trkpt lat="39.904413189289535" lon="9.1881379933449"><ele>612.0</ele><time>2026-04-11T08:53:29Z</time></trkpt><trkpt lat="39.904459634182594" lon="9.188282415396161"><ele>616.0</ele><time>2026-04-11T08:53:30Z</time></trkpt><trkpt lat="39.904458239050136" lon="9.188437690499281"><ele>620.0</ele><time>2026-04-11T08:53:31Z</time></trkpt><trkpt lat="39.90447898613696" lon="9.188564423456485"><ele>624.0</ele><time>2026-04-11T08:53:32Z</time></trkpt><trkpt lat="39.90454826577312" lon="9.188642354138866"><ele>628.0</ele><time>2026-04-11T08:53:33Z</time></trkpt><trkpt lat="39.90463971117819" lon="9.188651482560093"><ele>628.0</ele><time>2026-04-11T08:53:34Z</time></trkpt><trkpt lat="39.904728208564094" lon="9.18859474537148"><ele>628.0</ele><time>2026-04-11T08:53:35Z</time></trkpt><trkpt lat="39.90477960394861" lon="9.188482639298961"><ele>628.0</ele><time>2026-04-11T08:53:36Z</time></trkpt><trkpt lat="39.904785014316715" lon="9.188336029773398"><ele>628.0</ele><time>2026-04-11T08:53:37Z</time></trkpt><trkpt lat="39.90476818395217" lon="9.18818037481163"><ele>628.0</ele><time>2026-04-11T08:53:38Z</time></trkpt><trkpt lat="39.90470840868952" lon="9.1880285334289"><ele>629.5</ele><time>2026-04-11T08:53:39Z</time></trkpt><trkpt lat="39.904605904911826" lon="9.187902177794653"><ele>631.0</ele><time>2026-04-11T08:53:40Z</time></trkpt><trkpt lat="39.90450887636645" lon="9.187779553427943"><ele>632.5</ele><time>2026-04-11T08:53:41Z</time></trkpt><trkpt lat="39.9044473019045" lon="9.187637590890468"><ele>634.0</ele><time>2026-04-11T08:53:42Z</time></trkpt><trkpt lat="39.90442995542756" lon="9.187473546710837"><ele>633.75</ele><time>2026-04-11T08:53:43Z</time></trkpt><trkpt lat="39.90446635324332" lon="9.187317554873987"><ele>633.5</ele><time>2026-04-11T08:53:44Z</time></trkpt><trkpt lat="39.904550357554925" lon="9.187180533651048"><ele>633.25</ele><time>2026-04-11T08:53:45Z</time></trkpt><trkpt lat="39.904667970986814" lon="9.187057649705624"><ele>633.0</ele><time>2026-04-11T08:53:46Z</time></trkpt><trkpt lat="39.90477458554064" lon="9.186898185939764"><ele>633.0</ele><time>2026-04-11T08:53:47Z</time></trkpt><trkpt lat="39.9048605314305" lon="9.186721050598425"><ele>633.0</ele><time>2026-04-11T08:53:48Z</time></trkpt><trkpt lat="39.90491935027129" lon="9.1865247367279"><ele>633.0</ele><time>2026-04-11T08:53:49Z</time></trkpt><trkpt lat="39.90493980900123" lon="9.186311683731878"><ele>632.0</ele><time>2026-04-11T08:53:50Z</time></trkpt><trkpt lat="39.904927364606095" lon="9.186089636736453"><ele>631.0</ele><time>2026-04-11T08:53:51Z</time></trkpt><trkpt lat="39.90491536154749" lon="9.185869646204907"><ele>630.0</ele><time>2026-04-11T08:53:52Z</time></trkpt><trkpt lat="39.90494331699546" lon="9.185674233453906"><ele>628.75</ele><time>2026-04-11T08:53:53Z</time></trkpt><trkpt lat="39.90501799513895" lon="9.185515350493771"><ele>627.5</ele><time>2026-04-11T08:53:54Z</time></trkpt><trkpt lat="39.905135341449174" lon="9.185393715580009"><ele>626.25</ele><time>2026-04-11T08:53:55Z</time></trkpt><trkpt lat="39.90528044421574" lon="9.185319569853544"><ele>625.0</ele><time>2026-04-11T08:53:56Z</time></trkpt><trkpt lat="39.90544557162996" lon="9.185323946895291"><ele>625.0</ele><time>2026-04-11T08:53:57Z</time></trkpt><trkpt lat="39.905631765940996" lon="9.185289079382514"><ele>625.0</ele><time>2026-04-11T08:53:58Z</time></trkpt><trkpt lat="39.90581486011772" lon="9.18526645446018"><ele>625.0</ele><time>2026-04-11T08:53:59Z</time></trkpt><trkpt lat="39.905982394455414" lon="9.185222320559209"><ele>628.6666666666667</ele><time>2026-04-11T08:54:00Z</time></trkpt><trkpt lat="39.90614615766698" lon="9.185154577252733"><ele>632.3333333333334</ele><time>2026-04-11T08:54:01Z</time></trkpt><trkpt lat="39.906295648744916" lon="9.185097776023591"><ele>636.0</ele><time>2026-04-11T08:54:02Z</time></trkpt><trkpt lat="39.906439081189156" lon="9.18508561568775"><ele>636.0</ele><time>2026-04-11T08:54:03Z</time></trkpt><trkpt lat="39.90658634064648" lon="9.1851323915772"><ele>636.0</ele><time>2026-04-11T08:54:04Z</time></trkpt><trkpt lat="39.906721657120606" lon="9.185254912582845"><ele>636.0</ele><time>2026-04-11T08:54:05Z</time></trkpt><trkpt lat="39.90687902416003" lon="9.185353033254207"><ele>634.0</ele><time>2026-04-11T08:54:06Z</time></trkpt><trkpt lat="39.9070373834859" lon="9.185470485079057"><ele>632.0</ele><time>2026-04-11T08:54:07Z</time></trkpt><trkpt lat="39.9071897355071" lon="9.185607246793785"><ele>630.0</ele><time>2026-04-11T08:54:08Z</time></trkpt><trkpt lat="39.907349241027326" lon="9.185722969277032"><ele>638.3333333333334</ele><time>2026-04-11T08:54:09Z</time></trkpt><trkpt lat="39.9074896629395" lon="9.185846735634536"><ele>646.6666666666667</ele><time>2026-04-11T08:54:10Z</time></trkpt><trkpt lat="39.90762391556651" lon="9.18595552684849"><ele>655.0</ele><time>2026-04-11T08:54:11Z</time></trkpt><trkpt lat="39.90772927818777" lon="9.186066255286644"><ele>658.4</ele><time>2026-04-11T08:54:12Z</time></trkpt><trkpt lat="39.90782343115561" lon="9.186143115813527"><ele>661.8</ele><time>2026-04-11T08:54:13Z</time></trkpt><trkpt lat="39.90790668377261" lon="9.186200249121939"><ele>665.2</ele><time>2026-04-11T08:54:14Z</time></trkpt><trkpt lat="39.90800241112428" lon="9.186172078004224"><ele>668.6</ele><time>2026-04-11T08:54:15Z</time></trkpt><trkpt lat="39.908059656634" lon="9.186068440518895"><ele>672.0</ele><time>2026-04-11T08:54:16Z</time></trkpt><trkpt lat="39.908079845882774" lon="9.185965673036891"><ele>672.0</ele><time>2026-04-11T08:54:17Z</time></trkpt><trkpt lat="39.9080681113697" lon="9.18583068085151"><ele>672.0</ele><time>2026-04-11T08:54:18Z</time></trkpt><trkpt lat="39.90807566519177" lon="9.185670410025603"><ele>672.0</ele><time>2026-04-11T08:54:19Z</time></trkpt><trkpt lat="39.90810754930375" lon="9.185523311953608"><ele>672.0</ele><time>2026-04-11T08:54:20Z</time></trkpt><trkpt lat="39.908143151377374" lon="9.185374443084944"><ele>669.25</ele><time>2026-04-11T08:54:21Z</time></trkpt><trkpt lat="39.90818120726492" lon="9.185215725229426"><ele>666.5</ele><time>2026-04-11T08:54:22Z</time></trkpt><trkpt lat="39.90823356763319" lon="9.1850713125258"><ele>663.75</ele><time>2026-04-11T08:54:23Z</time></trkpt><trkpt lat="39.90830279266753" lon="9.184936534822086"><ele>661.0</ele><time>2026-04-11T08:54:24Z</time></trkpt><trkpt lat="39.90840166823507" lon="9.184826933276836"><ele>663.0</ele><time>2026-04-11T08:54:25Z</time></trkpt><trkpt lat="39.90848495151039" lon="9.184693544400854"><ele>665.0</ele><time>2026-04-11T08:54:26Z</time></trkpt><trkpt lat="39.9086080499048" lon="9.184610946337182"><ele>667.0</ele><time>2026-04-11T08:54:27Z</time></trkpt><trkpt lat="39.908715471023335" lon="9.184495237133511"><ele>669.0</ele><time>2026-04-11T08:54:28Z</time></trkpt><trkpt lat="39.908824759760336" lon="9.184397646956207"><ele>669.0</ele><time>2026-04-11T08:54:29Z</time></trkpt><trkpt lat="39.908919881005566" lon="9.184286056585156"><ele>669.0</ele><time>2026-04-11T08:54:30Z</time></trkpt><trkpt lat="39.90900391183479" lon="9.184173460534701"><ele>669.0</ele><time>2026-04-11T08:54:31Z</time></trkpt><trkpt lat="39.90908447499903" lon="9.184080260552689"><ele>669.0</ele><time>2026-04-11T08:54:32Z</time></trkpt><trkpt lat="39.90917300592009" lon="9.184031129906664"><ele>669.0</ele><time>2026-04-11T08:54:33Z</time></trkpt><trkpt lat="39.90925633884282" lon="9.183996853725638"><ele>669.0</ele><time>2026-04-11T08:54:34Z</time></trkpt><trkpt lat="39.909352395841786" lon="9.184013518477778"><ele>669.0</ele><time>2026-04-11T08:54:35Z</time></trkpt><trkpt lat="39.909455567316556" lon="9.184038551834227"><ele>669.0</ele><time>2026-04-11T08:54:36Z</time></trkpt><trkpt lat="39.90956502740874" lon="9.184078536468933"><ele>669.0</ele><time>2026-04-11T08:54:37Z</time></trkpt><trkpt lat="39.909663543824585" lon="9.184143087433512"><ele>669.0</ele><time>2026-04-11T08:54:38Z</time></trkpt><trkpt lat="39.909752079724214" lon="9.18423503094356"><ele>669.0</ele><time>2026-04-11T08:54:39Z</time></trkpt><trkpt lat="39.909844922656795" lon="9.184334676942374"><ele>669.0</ele><time>2026-04-11T08:54:40Z</time></trkpt><trkpt lat="39.90993773296006" lon="9.18443403817401"><ele>669.0</ele><time>2026-04-11T08:54:41Z</time></trkpt><trkpt lat="39.91003165746043" lon="9.184534592293675"><ele>668.0</ele><time>2026-04-11T08:54:42Z</time></trkpt><trkpt lat="39.910132601356175" lon="9.18461657193991"><ele>667.0</ele><time>2026-04-11T08:54:43Z</time></trkpt><trkpt lat="39.9102194598683" lon="9.184711633423975"><ele>666.0</ele><time>2026-04-11T08:54:44Z</time></trkpt><trkpt lat="39.91029697389191" lon="9.184810611166096"><ele>665.0</ele><time>2026-04-11T08:54:45Z</time></trkpt><trkpt lat="39.91039060466345" lon="9.18487816876413"><ele>664.0</ele><time>2026-04-11T08:54:46Z</time></trkpt><trkpt lat="39.910501748367615" lon="9.184900536693508"><ele>668.8000000000001</ele><time>2026-04-11T08:54:47Z</time></trkpt><trkpt lat="39.91060923237985" lon="9.184930783712954"><ele>673.6</ele><time>2026-04-11T08:54:48Z</time></trkpt><trkpt lat="39.91072255591308" lon="9.184940736411887"><ele>678.4</ele><time>2026-04-11T08:54:49Z</time></trkpt><trkpt lat="39.910833137797844" lon="9.184917723527077"><ele>683.2</ele><time>2026-04-11T08:54:50Z</time></trkpt><trkpt lat="39.910943324983805" lon="9.184907029086546"><ele>688.0</ele><time>2026-04-11T08:54:51Z</time></trkpt><trkpt lat="39.91105003659574" lon="9.184877906564546"><ele>686.0</ele><time>2026-04-11T08:54:52Z</time></trkpt><trkpt lat="39.911149913844554" lon="9.184843998317188"><ele>684.0</ele><time>2026-04-11T08:54:53Z</time></trkpt><trkpt lat="39.91125920317826" lon="9.18480293714705"><ele>682.0</ele><time>2026-04-11T08:54:54Z</time></trkpt><trkpt lat="39.91136547465268" lon="9.184761097419644"><ele>680.0</ele><time>2026-04-11T08:54:55Z</time></trkpt><trkpt lat="39.91146834524423" lon="9.184723993072572"><ele>678.0</ele><time>2026-04-11T08:54:56Z</time></trkpt><trkpt lat="39.91156281940771" lon="9.184694198499004"><ele>678.0</ele><time>2026-04-11T08:54:57Z</time></trkpt><trkpt lat="39.911651593944995" lon="9.18467005183596"><ele>678.0</ele><time>2026-04-11T08:54:58Z</time></trkpt><trkpt lat="39.91173094724795" lon="9.184654952399107"><ele>678.0</ele><time>2026-04-11T08:54:59Z</time></trkpt><trkpt lat="39.91180364975543" lon="9.184658873006915"><ele>678.0</ele><time>2026-04-11T08:55:00Z</time></trkpt><trkpt lat="39.91187273773597" lon="9.1846740150012"><ele>678.0</ele><time>2026-04-11T08:55:01Z</time></trkpt><trkpt lat="39.911939719150865" lon="9.184700774181952"><ele>678.0</ele><time>2026-04-11T08:55:02Z</time></trkpt><trkpt lat="39.912002206596796" lon="9.18473852234422"><ele>680.6666666666666</ele><time>2026-04-11T08:55:03Z</time></trkpt><trkpt lat="39.91206824497846" lon="9.184764484706003"><ele>683.3333333333334</ele><time>2026-04-11T08:55:04Z</time></trkpt><trkpt lat="39.91212460427414" lon="9.1848010966903"><ele>686.0</ele><time>2026-04-11T08:55:05Z</time></trkpt><trkpt lat="39.91227308728641" lon="9.184777737821921"><ele>688.6666666666667</ele><time>2026-04-11T08:55:07Z</time></trkpt><trkpt lat="39.91234281412104" lon="9.184737574752726"><ele>691.3333333333334</ele><time>2026-04-11T08:55:08Z</time></trkpt><trkpt lat="39.91240793434683" lon="9.184693900496377"><ele>694.0</ele><time>2026-04-11T08:55:09Z</time></trkpt><trkpt lat="39.91247652868906" lon="9.184652361131581"><ele>694.0</ele><time>2026-04-11T08:55:10Z</time></trkpt><trkpt lat="39.91254669531126" lon="9.184607164041"><ele>694.0</ele><time>2026-04-11T08:55:11Z</time></trkpt><trkpt lat="39.912615832664386" lon="9.18456280078613"><ele>694.0</ele><time>2026-04-11T08:55:12Z</time></trkpt><trkpt lat="39.912685271620624" lon="9.184515555305426"><ele>694.0</ele><time>2026-04-11T08:55:13Z</time></trkpt><trkpt lat="39.91275705512348" lon="9.184468143510372"><ele>694.0</ele><time>2026-04-11T08:55:14Z</time></trkpt><trkpt lat="39.91283793499476" lon="9.184426134382552"><ele>694.0</ele><time>2026-04-11T08:55:15Z</time></trkpt><trkpt lat="39.91291257662546" lon="9.184387041234498"><ele>693.6666666666667</ele><time>2026-04-11T08:55:16Z</time></trkpt><trkpt lat="39.91298696965943" lon="9.184350685011054"><ele>693.3333333333334</ele><time>2026-04-11T08:55:17Z</time></trkpt><trkpt lat="39.9130516697306" lon="9.18433701927555"><ele>693.0</ele><time>2026-04-11T08:55:18Z</time></trkpt><trkpt lat="39.91311176730737" lon="9.184392185681778"><ele>692.6666666666666</ele><time>2026-04-11T08:55:19Z</time></trkpt><trkpt lat="39.91320419976617" lon="9.184508037499992"><ele>692.3333333333333</ele><time>2026-04-11T08:55:21Z</time></trkpt><trkpt lat="39.91325359638459" lon="9.184586071963166"><ele>692.0</ele><time>2026-04-11T08:55:22Z</time></trkpt><trkpt lat="39.913320433776235" lon="9.184668157317786"><ele>692.0</ele><time>2026-04-11T08:55:23Z</time></trkpt><trkpt lat="39.913384504419284" lon="9.184746844194086"><ele>692.0</ele><time>2026-04-11T08:55:24Z</time></trkpt><trkpt lat="39.913454123164215" lon="9.184805061512114"><ele>692.0</ele><time>2026-04-11T08:55:25Z</time></trkpt><trkpt lat="39.913504926471674" lon="9.184884256136854"><ele>692.0</ele><time>2026-04-11T08:55:26Z</time></trkpt><trkpt lat="39.91355607114818" lon="9.184951855956998"><ele>692.0</ele><time>2026-04-11T08:55:27Z</time></trkpt><trkpt lat="39.913613600574415" lon="9.185010485964796"><ele>692.0</ele><time>2026-04-11T08:55:28Z</time></trkpt><trkpt lat="39.91368609670065" lon="9.185036525370284"><ele>693.2</ele><time>2026-04-11T08:55:29Z</time></trkpt><trkpt lat="39.91376823940842" lon="9.185072547025108"><ele>694.4000000000001</ele><time>2026-04-11T08:55:30Z</time></trkpt><trkpt lat="39.913843859406185" lon="9.18512963662426"><ele>695.5999999999999</ele><time>2026-04-11T08:55:31Z</time></trkpt><trkpt lat="39.91392214384096" lon="9.18519177520917"><ele>696.8</ele><time>2026-04-11T08:55:32Z</time></trkpt><trkpt lat="39.91399849196249" lon="9.185264031612977"><ele>698.0</ele><time>2026-04-11T08:55:33Z</time></trkpt><trkpt lat="39.91407604872692" lon="9.185338427134027"><ele>698.0</ele><time>2026-04-11T08:55:34Z</time></trkpt><trkpt lat="39.9141588645427" lon="9.185408711511927"><ele>698.0</ele><time>2026-04-11T08:55:35Z</time></trkpt><trkpt lat="39.91424741068546" lon="9.185468107802691"><ele>698.0</ele><time>2026-04-11T08:55:36Z</time></trkpt><trkpt lat="39.91433905011149" lon="9.185519320604538"><ele>698.0</ele><time>2026-04-11T08:55:37Z</time></trkpt><trkpt lat="39.914434995271876" lon="9.185553690411853"><ele>698.0</ele><time>2026-04-11T08:55:38Z</time></trkpt><trkpt lat="39.91453489118125" lon="9.185574852188216"><ele>696.0</ele><time>2026-04-11T08:55:39Z</time></trkpt><trkpt lat="39.91463180957797" lon="9.185588296960198"><ele>694.0</ele><time>2026-04-11T08:55:40Z</time></trkpt><trkpt lat="39.914730963926615" lon="9.185597894941717"><ele>692.0</ele><time>2026-04-11T08:55:41Z</time></trkpt><trkpt lat="39.9148337711313" lon="9.185605957774657"><ele>690.0</ele><time>2026-04-11T08:55:42Z</time></trkpt><trkpt lat="39.914942199969104" lon="9.185622640599556"><ele>688.0</ele><time>2026-04-11T08:55:43Z</time></trkpt><trkpt lat="39.91505146553748" lon="9.185647145039624"><ele>688.8</ele><time>2026-04-11T08:55:44Z</time></trkpt><trkpt lat="39.915162702743274" lon="9.18567425322515"><ele>689.5999999999999</ele><time>2026-04-11T08:55:45Z</time></trkpt><trkpt lat="39.915275235499166" lon="9.185693195331726"><ele>690.4000000000001</ele><time>2026-04-11T08:55:46Z</time></trkpt><trkpt lat="39.91538457130345" lon="9.1857001831479"><ele>691.2</ele><time>2026-04-11T08:55:47Z</time></trkpt><trkpt lat="39.91549769219822" lon="9.185703245393999"><ele>692.0</ele><time>2026-04-11T08:55:48Z</time></trkpt><trkpt lat="39.91560916211238" lon="9.185707310361721"><ele>693.75</ele><time>2026-04-11T08:55:49Z</time></trkpt><trkpt lat="39.91572236236883" lon="9.185702651911733"><ele>695.5</ele><time>2026-04-11T08:55:50Z</time></trkpt><trkpt lat="39.915833794649586" lon="9.185681182114898"><ele>697.25</ele><time>2026-04-11T08:55:51Z</time></trkpt><trkpt lat="39.915945685989975" lon="9.185655475760147"><ele>699.0</ele><time>2026-04-11T08:55:52Z</time></trkpt><trkpt lat="39.91605831308247" lon="9.185631026112942"><ele>699.0</ele><time>2026-04-11T08:55:53Z</time></trkpt><trkpt lat="39.91617080140339" lon="9.185604593493462"><ele>699.0</ele><time>2026-04-11T08:55:54Z</time></trkpt><trkpt lat="39.916281516628445" lon="9.185572337319371"><ele>699.0</ele><time>2026-04-11T08:55:55Z</time></trkpt><trkpt lat="39.91639691935306" lon="9.185537439786266"><ele>699.0</ele><time>2026-04-11T08:55:56Z</time></trkpt><trkpt lat="39.91651551591245" lon="9.185505250755059"><ele>699.0</ele><time>2026-04-11T08:55:57Z</time></trkpt><trkpt lat="39.91663523958147" lon="9.185474285301007"><ele>699.0</ele><time>2026-04-11T08:55:58Z</time></trkpt><trkpt lat="39.916750372106435" lon="9.18544040249079"><ele>699.0</ele><time>2026-04-11T08:55:59Z</time></trkpt><trkpt lat="39.91686454713732" lon="9.185395743220148"><ele>699.0</ele><time>2026-04-11T08:56:00Z</time></trkpt><trkpt lat="39.91697385504311" lon="9.185337572878671"><ele>702.0</ele><time>2026-04-11T08:56:01Z</time></trkpt><trkpt lat="39.91708255907942" lon="9.18528213870582"><ele>705.0</ele><time>2026-04-11T08:56:02Z</time></trkpt><trkpt lat="39.917189863848364" lon="9.18521900590667"><ele>708.0</ele><time>2026-04-11T08:56:03Z</time></trkpt><trkpt lat="39.91730063205764" lon="9.185148145183826"><ele>711.0</ele><time>2026-04-11T08:56:04Z</time></trkpt><trkpt lat="39.91741712527802" lon="9.185080621238013"><ele>711.0</ele><time>2026-04-11T08:56:05Z</time></trkpt><trkpt lat="39.91753914497956" lon="9.185023107454331"><ele>711.0</ele><time>2026-04-11T08:56:06Z</time></trkpt><trkpt lat="39.91766790514596" lon="9.18499212101791"><ele>711.0</ele><time>2026-04-11T08:56:07Z</time></trkpt><trkpt lat="39.917797543447975" lon="9.184984461994421"><ele>711.0</ele><time>2026-04-11T08:56:08Z</time></trkpt><trkpt lat="39.917916319746055" lon="9.185035828179155"><ele>711.5</ele><time>2026-04-11T08:56:09Z</time></trkpt><trkpt lat="39.91801704977848" lon="9.185117773564768"><ele>712.0</ele><time>2026-04-11T08:56:10Z</time></trkpt><trkpt lat="39.918107629975665" lon="9.185220180101897"><ele>712.5</ele><time>2026-04-11T08:56:11Z</time></trkpt><trkpt lat="39.91819897950113" lon="9.185337282975754"><ele>713.0</ele><time>2026-04-11T08:56:12Z</time></trkpt><trkpt lat="39.918309331086306" lon="9.185430287011009"><ele>711.0</ele><time>2026-04-11T08:56:13Z</time></trkpt><trkpt lat="39.91842654946447" lon="9.185502487921768"><ele>709.0</ele><time>2026-04-11T08:56:14Z</time></trkpt><trkpt lat="39.91855869050149" lon="9.185543220189631"><ele>707.0</ele><time>2026-04-11T08:56:15Z</time></trkpt><trkpt lat="39.91868929806728" lon="9.185575857585604"><ele>705.0</ele><time>2026-04-11T08:56:16Z</time></trkpt><trkpt lat="39.918811949609214" lon="9.185615955112873"><ele>705.0</ele><time>2026-04-11T08:56:17Z</time></trkpt><trkpt lat="39.91893744769269" lon="9.185653460487964"><ele>705.0</ele><time>2026-04-11T08:56:18Z</time></trkpt><trkpt lat="39.91906553943782" lon="9.185683524313134"><ele>705.0</ele><time>2026-04-11T08:56:19Z</time></trkpt><trkpt lat="39.9191992931056" lon="9.185703091795773"><ele>705.0</ele><time>2026-04-11T08:56:20Z</time></trkpt><trkpt lat="39.91933369801739" lon="9.18573872339883"><ele>709.5</ele><time>2026-04-11T08:56:21Z</time></trkpt><trkpt lat="39.919471326014325" lon="9.185774776588243"><ele>714.0</ele><time>2026-04-11T08:56:22Z</time></trkpt><trkpt lat="39.91960999267587" lon="9.185814733000374"><ele>718.5</ele><time>2026-04-11T08:56:23Z</time></trkpt><trkpt lat="39.91975162632389" lon="9.185870477521183"><ele>723.0</ele><time>2026-04-11T08:56:24Z</time></trkpt><trkpt lat="39.91989544273011" lon="9.185915210969295"><ele>723.0</ele><time>2026-04-11T08:56:25Z</time></trkpt><trkpt lat="39.92004504099021" lon="9.185973334076273"><ele>723.0</ele><time>2026-04-11T08:56:26Z</time></trkpt><trkpt lat="39.92020946121651" lon="9.186029037438422"><ele>723.0</ele><time>2026-04-11T08:56:27Z</time></trkpt><trkpt lat="39.92037133614957" lon="9.186105614805564"><ele>721.6666666666666</ele><time>2026-04-11T08:56:28Z</time></trkpt><trkpt lat="39.92054197455181" lon="9.186182615300881"><ele>720.3333333333333</ele><time>2026-04-11T08:56:29Z</time></trkpt><trkpt lat="39.9207120792235" lon="9.186260862550984"><ele>719.0</ele><time>2026-04-11T08:56:30Z</time></trkpt><trkpt lat="39.920886197019804" lon="9.18632798599692"><ele>717.3333333333333</ele><time>2026-04-11T08:56:31Z</time></trkpt><trkpt lat="39.92106432914402" lon="9.186412611995403"><ele>715.6666666666666</ele><time>2026-04-11T08:56:32Z</time></trkpt><trkpt lat="39.92125176142228" lon="9.186442918096338"><ele>714.0</ele><time>2026-04-11T08:56:33Z</time></trkpt><trkpt lat="39.92142673283479" lon="9.186509440538918"><ele>716.6666666666666</ele><time>2026-04-11T08:56:34Z</time></trkpt><trkpt lat="39.92159116737173" lon="9.186552190196165"><ele>719.3333333333333</ele><time>2026-04-11T08:56:35Z</time></trkpt><trkpt lat="39.921741443039295" lon="9.186591725707432"><ele>722.0</ele><time>2026-04-11T08:56:36Z</time></trkpt><trkpt lat="39.92187215415697" lon="9.186632657434558"><ele>722.0</ele><time>2026-04-11T08:56:37Z</time></trkpt><trkpt lat="39.92198451692422" lon="9.186695026516597"><ele>722.0</ele><time>2026-04-11T08:56:38Z</time></trkpt><trkpt lat="39.92206222300052" lon="9.18680681486613"><ele>722.0</ele><time>2026-04-11T08:56:39Z</time></trkpt><trkpt lat="39.92213203073353" lon="9.186953169645637"><ele>722.0</ele><time>2026-04-11T08:56:40Z</time></trkpt><trkpt lat="39.922212060826546" lon="9.187124409971632"><ele>722.0</ele><time>2026-04-11T08:56:41Z</time></trkpt><trkpt lat="39.92230096460894" lon="9.187286561492416"><ele>722.0</ele><time>2026-04-11T08:56:42Z</time></trkpt><trkpt lat="39.92240162593273" lon="9.18741454748364"><ele>722.0</ele><time>2026-04-11T08:56:43Z</time></trkpt><trkpt lat="39.92253001478046" lon="9.1875086730519"><ele>722.0</ele><time>2026-04-11T08:56:44Z</time></trkpt><trkpt lat="39.92268467401123" lon="9.18756929974799"><ele>721.6666666666666</ele><time>2026-04-11T08:56:45Z</time></trkpt><trkpt lat="39.92283611655791" lon="9.187658877914382"><ele>721.3333333333334</ele><time>2026-04-11T08:56:46Z</time></trkpt><trkpt lat="39.92298144789754" lon="9.187759540490282"><ele>721.0</ele><time>2026-04-11T08:56:47Z</time></trkpt><trkpt lat="39.92311915452585" lon="9.18788567685008"><ele>721.0</ele><time>2026-04-11T08:56:48Z</time></trkpt><trkpt lat="39.9232312882641" lon="9.188032510476411"><ele>721.0</ele><time>2026-04-11T08:56:49Z</time></trkpt><trkpt lat="39.923333502393646" lon="9.188195577349482"><ele>721.0</ele><time>2026-04-11T08:56:50Z</time></trkpt><trkpt lat="39.923448945153034" lon="9.188364727428635"><ele>720.3333333333334</ele><time>2026-04-11T08:56:51Z</time></trkpt><trkpt lat="39.923549581738094" lon="9.188544888901975"><ele>719.6666666666666</ele><time>2026-04-11T08:56:52Z</time></trkpt><trkpt lat="39.92365976583042" lon="9.188716508080704"><ele>719.0</ele><time>2026-04-11T08:56:53Z</time></trkpt><trkpt lat="39.92378479590542" lon="9.188855305613387"><ele>719.0</ele><time>2026-04-11T08:56:54Z</time></trkpt><trkpt lat="39.923926989269525" lon="9.188978203554795"><ele>719.0</ele><time>2026-04-11T08:56:55Z</time></trkpt><trkpt lat="39.92408788227929" lon="9.189077644384268"><ele>719.0</ele><time>2026-04-11T08:56:56Z</time></trkpt><trkpt lat="39.9242497922022" lon="9.18920041457996"><ele>723.3333333333333</ele><time>2026-04-11T08:56:57Z</time></trkpt><trkpt lat="39.92443158936931" lon="9.18930406702035"><ele>727.6666666666666</ele><time>2026-04-11T08:56:58Z</time></trkpt><trkpt lat="39.92461649965411" lon="9.189397562345755"><ele>732.0</ele><time>2026-04-11T08:56:59Z</time></trkpt><trkpt lat="39.92480555788673" lon="9.18949225199242"><ele>732.0</ele><time>2026-04-11T08:57:00Z</time></trkpt><trkpt lat="39.92499052743405" lon="9.189584067373373"><ele>732.0</ele><time>2026-04-11T08:57:01Z</time></trkpt><trkpt lat="39.92516618875056" lon="9.189670744047232"><ele>732.0</ele><time>2026-04-11T08:57:02Z</time></trkpt><trkpt lat="39.92532814909987" lon="9.18975537460734"><ele>735.0</ele><time>2026-04-11T08:57:03Z</time></trkpt><trkpt lat="39.925477646029" lon="9.189830941076172"><ele>738.0</ele><time>2026-04-11T08:57:04Z</time></trkpt><trkpt lat="39.925612878260324" lon="9.189888626759565"><ele>741.0</ele><time>2026-04-11T08:57:05Z</time></trkpt><trkpt lat="39.92576070880235" lon="9.18989304032259"><ele>748.0</ele><time>2026-04-11T08:57:06Z</time></trkpt><trkpt lat="39.925898859280615" lon="9.189870219234631"><ele>755.0</ele><time>2026-04-11T08:57:07Z</time></trkpt><trkpt lat="39.92602807330076" lon="9.18982542650929"><ele>762.0</ele><time>2026-04-11T08:57:08Z</time></trkpt><trkpt lat="39.92613711825824" lon="9.189755976269256"><ele>769.0</ele><time>2026-04-11T08:57:09Z</time></trkpt><trkpt lat="39.92621328129865" lon="9.189670498218737"><ele>770.75</ele><time>2026-04-11T08:57:10Z</time></trkpt><trkpt lat="39.926251112959484" lon="9.189544408255694"><ele>772.5</ele><time>2026-04-11T08:57:11Z</time></trkpt><trkpt lat="39.9262411044778" lon="9.189399784765792"><ele>774.25</ele><time>2026-04-11T08:57:12Z</time></trkpt><trkpt lat="39.92617943966159" lon="9.18925334080153"><ele>776.0</ele><time>2026-04-11T08:57:13Z</time></trkpt><trkpt lat="39.926078411748755" lon="9.189118406771302"><ele>770.6666666666667</ele><time>2026-04-11T08:57:14Z</time></trkpt><trkpt lat="39.925969317574854" lon="9.188969073703712"><ele>765.3333333333334</ele><time>2026-04-11T08:57:15Z</time></trkpt><trkpt lat="39.92587181748379" lon="9.188805117362659"><ele>760.0</ele><time>2026-04-11T08:57:16Z</time></trkpt><trkpt lat="39.92577158256428" lon="9.188631903691116"><ele>760.0</ele><time>2026-04-11T08:57:17Z</time></trkpt><trkpt lat="39.92566508045584" lon="9.188458233432181"><ele>760.0</ele><time>2026-04-11T08:57:18Z</time></trkpt><trkpt lat="39.9255606437848" lon="9.188285506673305"><ele>760.0</ele><time>2026-04-11T08:57:19Z</time></trkpt><trkpt lat="39.92546952412739" lon="9.188091291948158"><ele>763.6666666666667</ele><time>2026-04-11T08:57:20Z</time></trkpt><trkpt lat="39.92539272946178" lon="9.187871745508982"><ele>767.3333333333334</ele><time>2026-04-11T08:57:21Z</time></trkpt><trkpt lat="39.925325648079294" lon="9.1876426501648"><ele>771.0</ele><time>2026-04-11T08:57:22Z</time></trkpt><trkpt lat="39.92526407545712" lon="9.187427443718427"><ele>771.0</ele><time>2026-04-11T08:57:23Z</time></trkpt><trkpt lat="39.92521325242669" lon="9.187236712830439"><ele>771.0</ele><time>2026-04-11T08:57:24Z</time></trkpt><trkpt lat="39.9251761823108" lon="9.187068880068956"><ele>771.0</ele><time>2026-04-11T08:57:25Z</time></trkpt><trkpt lat="39.92519611040661" lon="9.186915265962925"><ele>771.0</ele><time>2026-04-11T08:57:26Z</time></trkpt><trkpt lat="39.92523738388131" lon="9.186786877672764"><ele>771.0</ele><time>2026-04-11T08:57:27Z</time></trkpt><trkpt lat="39.92530977348238" lon="9.186679298186153"><ele>771.0</ele><time>2026-04-11T08:57:28Z</time></trkpt><trkpt lat="39.92542189007622" lon="9.18659242375091"><ele>771.0</ele><time>2026-04-11T08:57:29Z</time></trkpt><trkpt lat="39.92555309685035" lon="9.186475079036857"><ele>771.0</ele><time>2026-04-11T08:57:30Z</time></trkpt><trkpt lat="39.925683033139265" lon="9.186340350671244"><ele>771.6666666666667</ele><time>2026-04-11T08:57:31Z</time></trkpt><trkpt lat="39.92579052119477" lon="9.186170366181704"><ele>772.3333333333334</ele><time>2026-04-11T08:57:32Z</time></trkpt><trkpt lat="39.92588931713243" lon="9.18598973982444"><ele>773.0</ele><time>2026-04-11T08:57:33Z</time></trkpt><trkpt lat="39.92601381123373" lon="9.185834943364798"><ele>773.0</ele><time>2026-04-11T08:57:34Z</time></trkpt><trkpt lat="39.92615009916076" lon="9.18568376369725"><ele>773.0</ele><time>2026-04-11T08:57:35Z</time></trkpt><trkpt lat="39.9262937439998" lon="9.185543826926489"><ele>773.0</ele><time>2026-04-11T08:57:36Z</time></trkpt><trkpt lat="39.92643938943202" lon="9.185420453659932"><ele>770.3333333333334</ele><time>2026-04-11T08:57:37Z</time></trkpt><trkpt lat="39.92658975306188" lon="9.185322892405747"><ele>767.6666666666667</ele><time>2026-04-11T08:57:38Z</time></trkpt><trkpt lat="39.926757755896475" lon="9.185256627136841"><ele>765.0</ele><time>2026-04-11T08:57:39Z</time></trkpt><trkpt lat="39.92693413348102" lon="9.185193593539331"><ele>765.0</ele><time>2026-04-11T08:57:40Z</time></trkpt><trkpt lat="39.92710906001439" lon="9.185127018675633"><ele>765.0</ele><time>2026-04-11T08:57:41Z</time></trkpt><trkpt lat="39.92728368381866" lon="9.18502897866572"><ele>765.0</ele><time>2026-04-11T08:57:42Z</time></trkpt><trkpt lat="39.927448154675474" lon="9.184902357484297"><ele>767.6666666666667</ele><time>2026-04-11T08:57:43Z</time></trkpt><trkpt lat="39.927601086459326" lon="9.184768611779045"><ele>770.3333333333334</ele><time>2026-04-11T08:57:44Z</time></trkpt><trkpt lat="39.9277524482205" lon="9.18464747932479"><ele>773.0</ele><time>2026-04-11T08:57:45Z</time></trkpt><trkpt lat="39.92788797873679" lon="9.184534673801966"><ele>773.0</ele><time>2026-04-11T08:57:46Z</time></trkpt><trkpt lat="39.92800708644922" lon="9.18443586968888"><ele>773.0</ele><time>2026-04-11T08:57:47Z</time></trkpt><trkpt lat="39.92810222465308" lon="9.184345451451323"><ele>773.0</ele><time>2026-04-11T08:57:48Z</time></trkpt><trkpt lat="39.9281501961766" lon="9.184221818442527"><ele>773.0</ele><time>2026-04-11T08:57:49Z</time></trkpt><trkpt lat="39.928138737988746" lon="9.184079179784632"><ele>779.5</ele><time>2026-04-11T08:57:50Z</time></trkpt><trkpt lat="39.92810141710225" lon="9.183951598946358"><ele>786.0</ele><time>2026-04-11T08:57:51Z</time></trkpt><trkpt lat="39.92803144257672" lon="9.183844642026703"><ele>792.5</ele><time>2026-04-11T08:57:52Z</time></trkpt><trkpt lat="39.92788221182917" lon="9.183818495952226"><ele>799.0</ele><time>2026-04-11T08:57:53Z</time></trkpt><trkpt lat="39.92772566672112" lon="9.183791119718292"><ele>793.3333333333333</ele><time>2026-04-11T08:57:54Z</time></trkpt><trkpt lat="39.92755038690688" lon="9.183782876274387"><ele>787.6666666666667</ele><time>2026-04-11T08:57:55Z</time></trkpt><trkpt lat="39.9273741743763" lon="9.183759166490871"><ele>782.0</ele><time>2026-04-11T08:57:56Z</time></trkpt><trkpt lat="39.92718898144106" lon="9.183724211332772"><ele>782.0</ele><time>2026-04-11T08:57:57Z</time></trkpt><trkpt lat="39.926993134309484" lon="9.183659899926472"><ele>782.0</ele><time>2026-04-11T08:57:58Z</time></trkpt><trkpt lat="39.926790880993316" lon="9.183587763283766"><ele>782.0</ele><time>2026-04-11T08:57:59Z</time></trkpt><trkpt lat="39.92658733728526" lon="9.183512117407334"><ele>777.0</ele><time>2026-04-11T08:58:00Z</time></trkpt><trkpt lat="39.92638662337713" lon="9.183440579895741"><ele>772.0</ele><time>2026-04-11T08:58:01Z</time></trkpt><trkpt lat="39.926188528604605" lon="9.183365292158472"><ele>767.0</ele><time>2026-04-11T08:58:02Z</time></trkpt><trkpt lat="39.925997533415675" lon="9.183293251649754"><ele>765.0</ele><time>2026-04-11T08:58:03Z</time></trkpt><trkpt lat="39.92581539366055" lon="9.183230432063061"><ele>763.0</ele><time>2026-04-11T08:58:04Z</time></trkpt><trkpt lat="39.92564562496379" lon="9.183153182331656"><ele>761.0</ele><time>2026-04-11T08:58:05Z</time></trkpt><trkpt lat="39.925514483946635" lon="9.18306020996908"><ele>768.3333333333333</ele><time>2026-04-11T08:58:06Z</time></trkpt><trkpt lat="39.92540507838921" lon="9.18291620190193"><ele>775.6666666666666</ele><time>2026-04-11T08:58:07Z</time></trkpt><trkpt lat="39.92530086561645" lon="9.182744514181431"><ele>783.0</ele><time>2026-04-11T08:58:08Z</time></trkpt><trkpt lat="39.92518681951335" lon="9.182562397397794"><ele>784.3333333333333</ele><time>2026-04-11T08:58:09Z</time></trkpt><trkpt lat="39.92505821141967" lon="9.182405440591992"><ele>785.6666666666666</ele><time>2026-04-11T08:58:10Z</time></trkpt><trkpt lat="39.92491955191974" lon="9.182270064210014"><ele>787.0</ele><time>2026-04-11T08:58:11Z</time></trkpt><trkpt lat="39.92474004630926" lon="9.182189851422457"><ele>787.0</ele><time>2026-04-11T08:58:12Z</time></trkpt><trkpt lat="39.9245508870348" lon="9.182143277669068"><ele>787.0</ele><time>2026-04-11T08:58:13Z</time></trkpt><trkpt lat="39.924361671580876" lon="9.182109240537416"><ele>787.0</ele><time>2026-04-11T08:58:14Z</time></trkpt><trkpt lat="39.92419747949265" lon="9.182050125462606"><ele>783.0</ele><time>2026-04-11T08:58:15Z</time></trkpt><trkpt lat="39.92404837483086" lon="9.181998239613488"><ele>779.0</ele><time>2026-04-11T08:58:16Z</time></trkpt><trkpt lat="39.92392753582626" lon="9.181928793566012"><ele>775.0</ele><time>2026-04-11T08:58:17Z</time></trkpt><trkpt lat="39.92385237457373" lon="9.181808195973138"><ele>771.0</ele><time>2026-04-11T08:58:18Z</time></trkpt><trkpt lat="39.92382645479041" lon="9.181640878980506"><ele>768.0</ele><time>2026-04-11T08:58:19Z</time></trkpt><trkpt lat="39.92388236100951" lon="9.181479252916875"><ele>765.0</ele><time>2026-04-11T08:58:20Z</time></trkpt><trkpt lat="39.92396462614666" lon="9.181332249149149"><ele>762.0</ele><time>2026-04-11T08:58:21Z</time></trkpt><trkpt lat="39.924063050242395" lon="9.181166932510433"><ele>759.0</ele><time>2026-04-11T08:58:22Z</time></trkpt><trkpt lat="39.92420270926952" lon="9.181037846601109"><ele>760.0</ele><time>2026-04-11T08:58:23Z</time></trkpt><trkpt lat="39.92435857071689" lon="9.18090640202628"><ele>761.0</ele><time>2026-04-11T08:58:24Z</time></trkpt><trkpt lat="39.92452355640778" lon="9.180762583963213"><ele>762.0</ele><time>2026-04-11T08:58:25Z</time></trkpt><trkpt lat="39.92469454868883" lon="9.180633560746292"><ele>762.0</ele><time>2026-04-11T08:58:26Z</time></trkpt><trkpt lat="39.924860411540614" lon="9.180500676875182"><ele>762.0</ele><time>2026-04-11T08:58:27Z</time></trkpt><trkpt lat="39.925011369180524" lon="9.180350075433028"><ele>762.0</ele><time>2026-04-11T08:58:28Z</time></trkpt><trkpt lat="39.925139385161664" lon="9.180147315563481"><ele>766.0</ele><time>2026-04-11T08:58:29Z</time></trkpt><trkpt lat="39.92525379504838" lon="9.179918498691828"><ele>770.0</ele><time>2026-04-11T08:58:30Z</time></trkpt><trkpt lat="39.92538122049938" lon="9.179705938924073"><ele>774.0</ele><time>2026-04-11T08:58:31Z</time></trkpt><trkpt lat="39.92555904590617" lon="9.179558982779426"><ele>774.0</ele><time>2026-04-11T08:58:32Z</time></trkpt><trkpt lat="39.92572091720822" lon="9.17938480271367"><ele>774.0</ele><time>2026-04-11T08:58:33Z</time></trkpt><trkpt lat="39.925872524408845" lon="9.179213580736143"><ele>774.0</ele><time>2026-04-11T08:58:34Z</time></trkpt><trkpt lat="39.92598898138568" lon="9.178998945817584"><ele>773.0</ele><time>2026-04-11T08:58:35Z</time></trkpt><trkpt lat="39.92609056692354" lon="9.178780932434513"><ele>772.0</ele><time>2026-04-11T08:58:36Z</time></trkpt><trkpt lat="39.926229579668366" lon="9.17863282086344"><ele>771.0</ele><time>2026-04-11T08:58:37Z</time></trkpt><trkpt lat="39.92637416790233" lon="9.178499302175616"><ele>771.0</ele><time>2026-04-11T08:58:38Z</time></trkpt><trkpt lat="39.926536968104536" lon="9.178405289957642"><ele>771.0</ele><time>2026-04-11T08:58:39Z</time></trkpt><trkpt lat="39.92671149795513" lon="9.178330587954505"><ele>771.0</ele><time>2026-04-11T08:58:40Z</time></trkpt><trkpt lat="39.92687785128143" lon="9.178260097214194"><ele>773.0</ele><time>2026-04-11T08:58:41Z</time></trkpt><trkpt lat="39.92703128504908" lon="9.178198359066384"><ele>775.0</ele><time>2026-04-11T08:58:42Z</time></trkpt><trkpt lat="39.92716359778052" lon="9.178102096374603"><ele>777.0</ele><time>2026-04-11T08:58:43Z</time></trkpt><trkpt lat="39.927265468896024" lon="9.17796216575431"><ele>777.0</ele><time>2026-04-11T08:58:44Z</time></trkpt><trkpt lat="39.92733721463244" lon="9.177781930406733"><ele>777.0</ele><time>2026-04-11T08:58:45Z</time></trkpt><trkpt lat="39.92736648314364" lon="9.177574135305036"><ele>777.0</ele><time>2026-04-11T08:58:46Z</time></trkpt><trkpt lat="39.92736196494212" lon="9.177376715835564"><ele>774.75</ele><time>2026-04-11T08:58:47Z</time></trkpt><trkpt lat="39.92740421918348" lon="9.177212315428758"><ele>772.5</ele><time>2026-04-11T08:58:48Z</time></trkpt><trkpt lat="39.92750185447979" lon="9.177100404321711"><ele>770.25</ele><time>2026-04-11T08:58:49Z</time></trkpt><trkpt lat="39.92762248897915" lon="9.177032211535204"><ele>768.0</ele><time>2026-04-11T08:58:50Z</time></trkpt><trkpt lat="39.9277715209321" lon="9.17701271598443"><ele>768.0</ele><time>2026-04-11T08:58:51Z</time></trkpt><trkpt lat="39.92794803210885" lon="9.177001160799879"><ele>768.0</ele><time>2026-04-11T08:58:52Z</time></trkpt><trkpt lat="39.92811935843937" lon="9.176957809405346"><ele>768.0</ele><time>2026-04-11T08:58:53Z</time></trkpt><trkpt lat="39.92829290720315" lon="9.176875411006751"><ele>770.3333333333333</ele><time>2026-04-11T08:58:54Z</time></trkpt><trkpt lat="39.92845960099928" lon="9.176751517205416"><ele>772.6666666666666</ele><time>2026-04-11T08:58:55Z</time></trkpt><trkpt lat="39.92862816197941" lon="9.176653818515678"><ele>775.0</ele><time>2026-04-11T08:58:56Z</time></trkpt><trkpt lat="39.928793407405394" lon="9.176582194437515"><ele>775.0</ele><time>2026-04-11T08:58:57Z</time></trkpt><trkpt lat="39.928957532282766" lon="9.176548560798432"><ele>775.0</ele><time>2026-04-11T08:58:58Z</time></trkpt><trkpt lat="39.92910337816277" lon="9.176590061923601"><ele>775.0</ele><time>2026-04-11T08:58:59Z</time></trkpt><trkpt lat="39.9292236432859" lon="9.176682560133324"><ele>771.0</ele><time>2026-04-11T08:59:00Z</time></trkpt><trkpt lat="39.92933247734566" lon="9.176836494286261"><ele>767.0</ele><time>2026-04-11T08:59:01Z</time></trkpt><trkpt lat="39.92945637228676" lon="9.177014421784063"><ele>763.0</ele><time>2026-04-11T08:59:02Z</time></trkpt><trkpt lat="39.92955261930805" lon="9.177188773491332"><ele>763.0</ele><time>2026-04-11T08:59:03Z</time></trkpt><trkpt lat="39.92965021777541" lon="9.177328395739636"><ele>763.0</ele><time>2026-04-11T08:59:04Z</time></trkpt><trkpt lat="39.929761914546866" lon="9.177431817386907"><ele>763.0</ele><time>2026-04-11T08:59:05Z</time></trkpt><trkpt lat="39.92989942152276" lon="9.17745410377167"><ele>763.0</ele><time>2026-04-11T08:59:06Z</time></trkpt><trkpt lat="39.93005013088115" lon="9.177422926937123"><ele>765.0</ele><time>2026-04-11T08:59:07Z</time></trkpt><trkpt lat="39.930220632618685" lon="9.177353091087546"><ele>767.0</ele><time>2026-04-11T08:59:08Z</time></trkpt><trkpt lat="39.93039972302313" lon="9.17730174991029"><ele>769.0</ele><time>2026-04-11T08:59:09Z</time></trkpt><trkpt lat="39.93059166058842" lon="9.177270711766806"><ele>769.0</ele><time>2026-04-11T08:59:10Z</time></trkpt><trkpt lat="39.93078515026315" lon="9.177259835707108"><ele>769.0</ele><time>2026-04-11T08:59:11Z</time></trkpt><trkpt lat="39.93098691317328" lon="9.177252268573076"><ele>769.0</ele><time>2026-04-11T08:59:12Z</time></trkpt><trkpt lat="39.931197026373255" lon="9.177242088373434"><ele>768.3333333333333</ele><time>2026-04-11T08:59:13Z</time></trkpt><trkpt lat="39.9314053130813" lon="9.177229861964568"><ele>767.6666666666666</ele><time>2026-04-11T08:59:14Z</time></trkpt><trkpt lat="39.931598931681144" lon="9.177220131754142"><ele>767.0</ele><time>2026-04-11T08:59:15Z</time></trkpt><trkpt lat="39.93176816407372" lon="9.177243595477956"><ele>767.0</ele><time>2026-04-11T08:59:16Z</time></trkpt><trkpt lat="39.931902959647644" lon="9.177293449831371"><ele>767.0</ele><time>2026-04-11T08:59:17Z</time></trkpt><trkpt lat="39.93200495209531" lon="9.177388728725784"><ele>767.0</ele><time>2026-04-11T08:59:18Z</time></trkpt><trkpt lat="39.93208693382302" lon="9.177523001898567"><ele>767.0</ele><time>2026-04-11T08:59:19Z</time></trkpt><trkpt lat="39.932195117991185" lon="9.1776599843134"><ele>768.25</ele><time>2026-04-11T08:59:20Z</time></trkpt><trkpt lat="39.932307156385285" lon="9.177769716771854"><ele>769.5</ele><time>2026-04-11T08:59:21Z</time></trkpt><trkpt lat="39.93244691958689" lon="9.177816772373976"><ele>770.75</ele><time>2026-04-11T08:59:22Z</time></trkpt><trkpt lat="39.93258973029052" lon="9.177802033314483"><ele>772.0</ele><time>2026-04-11T08:59:23Z</time></trkpt><trkpt lat="39.93273935720581" lon="9.177828623694879"><ele>772.0</ele><time>2026-04-11T08:59:24Z</time></trkpt><trkpt lat="39.93285668286689" lon="9.177898538232135"><ele>772.0</ele><time>2026-04-11T08:59:25Z</time></trkpt><trkpt lat="39.93296364386771" lon="9.178017274746757"><ele>772.0</ele><time>2026-04-11T08:59:26Z</time></trkpt><trkpt lat="39.933043166068565" lon="9.178189347430013"><ele>772.0</ele><time>2026-04-11T08:59:27Z</time></trkpt><trkpt lat="39.93312992653156" lon="9.178398932608822"><ele>777.3333333333333</ele><time>2026-04-11T08:59:28Z</time></trkpt><trkpt lat="39.93321413102625" lon="9.178608404704988"><ele>782.6666666666667</ele><time>2026-04-11T08:59:29Z</time></trkpt><trkpt lat="39.9333045531733" lon="9.178798024569476"><ele>788.0</ele><time>2026-04-11T08:59:30Z</time></trkpt><trkpt lat="39.933333740706985" lon="9.178994077355366"><ele>790.5</ele><time>2026-04-11T08:59:31Z</time></trkpt><trkpt lat="39.9333608176904" lon="9.179160565690541"><ele>793.0</ele><time>2026-04-11T08:59:32Z</time></trkpt><trkpt lat="39.93340791089155" lon="9.179292144241412"><ele>795.5</ele><time>2026-04-11T08:59:33Z</time></trkpt><trkpt lat="39.933477349069186" lon="9.179402024562366"><ele>798.0</ele><time>2026-04-11T08:59:34Z</time></trkpt><trkpt lat="39.93359857904434" lon="9.179482738624417"><ele>798.0</ele><time>2026-04-11T08:59:35Z</time></trkpt><trkpt lat="39.93374132146513" lon="9.179517250652305"><ele>798.0</ele><time>2026-04-11T08:59:36Z</time></trkpt><trkpt lat="39.93388177620774" lon="9.179495723749074"><ele>798.0</ele><time>2026-04-11T08:59:37Z</time></trkpt><trkpt lat="39.93401182048587" lon="9.179453156571702"><ele>798.0</ele><time>2026-04-11T08:59:38Z</time></trkpt><trkpt lat="39.93412088338976" lon="9.179374135155376"><ele>798.0</ele><time>2026-04-11T08:59:39Z</time></trkpt><trkpt lat="39.93421073230842" lon="9.179240822308401"><ele>798.0</ele><time>2026-04-11T08:59:40Z</time></trkpt><trkpt lat="39.934276481153006" lon="9.179059999197037"><ele>798.0</ele><time>2026-04-11T08:59:41Z</time></trkpt><trkpt lat="39.93432269427627" lon="9.178853021554223"><ele>805.3333333333333</ele><time>2026-04-11T08:59:42Z</time></trkpt><trkpt lat="39.93436977171334" lon="9.178632462369768"><ele>812.6666666666666</ele><time>2026-04-11T08:59:43Z</time></trkpt><trkpt lat="39.93442614987229" lon="9.178420559538104"><ele>820.0</ele><time>2026-04-11T08:59:44Z</time></trkpt><trkpt lat="39.93448953994203" lon="9.17819915413775"><ele>817.0</ele><time>2026-04-11T08:59:45Z</time></trkpt><trkpt lat="39.93454905511552" lon="9.177969132532029"><ele>814.0</ele><time>2026-04-11T08:59:46Z</time></trkpt><trkpt lat="39.934597504622324" lon="9.177724863299373"><ele>811.0</ele><time>2026-04-11T08:59:47Z</time></trkpt><trkpt lat="39.93464532854532" lon="9.177485887642097"><ele>805.6666666666666</ele><time>2026-04-11T08:59:48Z</time></trkpt><trkpt lat="39.93469266447856" lon="9.177264765797448"><ele>800.3333333333333</ele><time>2026-04-11T08:59:49Z</time></trkpt><trkpt lat="39.93473724226864" lon="9.17706413842323"><ele>795.0</ele><time>2026-04-11T08:59:50Z</time></trkpt><trkpt lat="39.93481373441682" lon="9.176911339088408"><ele>795.0</ele><time>2026-04-11T08:59:51Z</time></trkpt><trkpt lat="39.93490599858731" lon="9.176779889658627"><ele>795.0</ele><time>2026-04-11T08:59:52Z</time></trkpt><trkpt lat="39.935037994563366" lon="9.176711416429418"><ele>795.0</ele><time>2026-04-11T08:59:53Z</time></trkpt><trkpt lat="39.93518757084112" lon="9.176670383623733"><ele>795.0</ele><time>2026-04-11T08:59:54Z</time></trkpt><trkpt lat="39.93535974126772" lon="9.176657793970485"><ele>796.0</ele><time>2026-04-11T08:59:55Z</time></trkpt><trkpt lat="39.93552475420181" lon="9.17664369761218"><ele>797.0</ele><time>2026-04-11T08:59:56Z</time></trkpt><trkpt lat="39.935671968209135" lon="9.17670030255429"><ele>798.0</ele><time>2026-04-11T08:59:57Z</time></trkpt><trkpt lat="39.935822502087696" lon="9.176783867733805"><ele>793.3333333333333</ele><time>2026-04-11T08:59:58Z</time></trkpt><trkpt lat="39.935968432880934" lon="9.176900596860014"><ele>788.6666666666666</ele><time>2026-04-11T08:59:59Z</time></trkpt><trkpt lat="39.93610547462785" lon="9.177051864670185"><ele>784.0</ele><time>2026-04-11T09:00:00Z</time></trkpt><trkpt lat="39.93624704539546" lon="9.177226003296125"><ele>791.0</ele><time>2026-04-11T09:00:01Z</time></trkpt><trkpt lat="39.93637562548759" lon="9.177428765398878"><ele>798.0</ele><time>2026-04-11T09:00:02Z</time></trkpt><trkpt lat="39.93650729476471" lon="9.177626636476731"><ele>805.0</ele><time>2026-04-11T09:00:03Z</time></trkpt><trkpt lat="39.936649175399054" lon="9.177798808856117"><ele>804.0</ele><time>2026-04-11T09:00:04Z</time></trkpt><trkpt lat="39.93681130081084" lon="9.177938925971077"><ele>803.0</ele><time>2026-04-11T09:00:05Z</time></trkpt><trkpt lat="39.936974259922934" lon="9.178056529437002"><ele>802.0</ele><time>2026-04-11T09:00:06Z</time></trkpt><trkpt lat="39.9371183400111" lon="9.178195306702033"><ele>802.0</ele><time>2026-04-11T09:00:07Z</time></trkpt><trkpt lat="39.937227992515986" lon="9.178388420085582"><ele>802.0</ele><time>2026-04-11T09:00:08Z</time></trkpt><trkpt lat="39.93733062692229" lon="9.178596480784616"><ele>802.0</ele><time>2026-04-11T09:00:09Z</time></trkpt><trkpt lat="39.93742205328925" lon="9.178806031650492"><ele>806.0</ele><time>2026-04-11T09:00:10Z</time></trkpt><trkpt lat="39.937477242544496" lon="9.179033759441113"><ele>810.0</ele><time>2026-04-11T09:00:11Z</time></trkpt><trkpt lat="39.937505910433906" lon="9.179266085110447"><ele>814.0</ele><time>2026-04-11T09:00:12Z</time></trkpt><trkpt lat="39.93755172311277" lon="9.179471848548022"><ele>811.3333333333333</ele><time>2026-04-11T09:00:13Z</time></trkpt><trkpt lat="39.937618096996154" lon="9.179640775346574"><ele>808.6666666666667</ele><time>2026-04-11T09:00:14Z</time></trkpt><trkpt lat="39.937736871558755" lon="9.17977410839783"><ele>806.0</ele><time>2026-04-11T09:00:15Z</time></trkpt><trkpt lat="39.937881942954895" lon="9.179877522793094"><ele>806.0</ele><time>2026-04-11T09:00:16Z</time></trkpt><trkpt lat="39.93801055223757" lon="9.179997833407613"><ele>806.0</ele><time>2026-04-11T09:00:17Z</time></trkpt><trkpt lat="39.93807352371451" lon="9.180167755900465"><ele>806.0</ele><time>2026-04-11T09:00:18Z</time></trkpt><trkpt lat="39.93809003903249" lon="9.180347161579807"><ele>806.0</ele><time>2026-04-11T09:00:19Z</time></trkpt><trkpt lat="39.93806980976479" lon="9.180552995173816"><ele>808.25</ele><time>2026-04-11T09:00:20Z</time></trkpt><trkpt lat="39.93808109935007" lon="9.180748799525825"><ele>810.5</ele><time>2026-04-11T09:00:21Z</time></trkpt><trkpt lat="39.93809061360306" lon="9.18090821002542"><ele>812.75</ele><time>2026-04-11T09:00:22Z</time></trkpt><trkpt lat="39.93815786898958" lon="9.18105027456571"><ele>815.0</ele><time>2026-04-11T09:00:23Z</time></trkpt><trkpt lat="39.93827616761261" lon="9.181170827496572"><ele>811.0</ele><time>2026-04-11T09:00:24Z</time></trkpt><trkpt lat="39.93841140504962" lon="9.181254867565876"><ele>807.0</ele><time>2026-04-11T09:00:25Z</time></trkpt><trkpt lat="39.938548741008056" lon="9.181310796502052"><ele>803.0</ele><time>2026-04-11T09:00:26Z</time></trkpt><trkpt lat="39.93869358364221" lon="9.181311370962256"><ele>799.0</ele><time>2026-04-11T09:00:27Z</time></trkpt><trkpt lat="39.93883717140918" lon="9.181311076084562"><ele>799.0</ele><time>2026-04-11T09:00:28Z</time></trkpt><trkpt lat="39.93896228488939" lon="9.181377586071724"><ele>799.0</ele><time>2026-04-11T09:00:29Z</time></trkpt><trkpt lat="39.93906600453136" lon="9.181506707494847"><ele>799.0</ele><time>2026-04-11T09:00:30Z</time></trkpt><trkpt lat="39.93912290470749" lon="9.18167006972837"><ele>799.0</ele><time>2026-04-11T09:00:31Z</time></trkpt><trkpt lat="39.93912051561948" lon="9.181846757119237"><ele>803.5</ele><time>2026-04-11T09:00:32Z</time></trkpt><trkpt lat="39.93906559730737" lon="9.182024142426572"><ele>808.0</ele><time>2026-04-11T09:00:33Z</time></trkpt><trkpt lat="39.938999438929045" lon="9.182189853566566"><ele>812.5</ele><time>2026-04-11T09:00:34Z</time></trkpt><trkpt lat="39.93895138790025" lon="9.182340167692397"><ele>817.0</ele><time>2026-04-11T09:00:35Z</time></trkpt><trkpt lat="39.93892836134111" lon="9.182488964064353"><ele>816.25</ele><time>2026-04-11T09:00:36Z</time></trkpt><trkpt lat="39.93894433989002" lon="9.182643337180647"><ele>815.5</ele><time>2026-04-11T09:00:37Z</time></trkpt><trkpt lat="39.93901514178741" lon="9.182798781739246"><ele>814.75</ele><time>2026-04-11T09:00:38Z</time></trkpt><trkpt lat="39.93910941379989" lon="9.182929943896799"><ele>814.0</ele><time>2026-04-11T09:00:39Z</time></trkpt><trkpt lat="39.93925083217561" lon="9.182996232936222"><ele>814.0</ele><time>2026-04-11T09:00:40Z</time></trkpt><trkpt lat="39.939399587760896" lon="9.182982935891395"><ele>814.0</ele><time>2026-04-11T09:00:41Z</time></trkpt><trkpt lat="39.939543676418296" lon="9.182951531854748"><ele>814.0</ele><time>2026-04-11T09:00:42Z</time></trkpt><trkpt lat="39.93968941869562" lon="9.182918489156375"><ele>814.0</ele><time>2026-04-11T09:00:43Z</time></trkpt><trkpt lat="39.93983131882531" lon="9.182969306197798"><ele>814.0</ele><time>2026-04-11T09:00:44Z</time></trkpt><trkpt lat="39.93997433190212" lon="9.183060871587312"><ele>814.0</ele><time>2026-04-11T09:00:45Z</time></trkpt><trkpt lat="39.94011835819597" lon="9.183172535687428"><ele>814.0</ele><time>2026-04-11T09:00:46Z</time></trkpt><trkpt lat="39.94024197706176" lon="9.183290617404086"><ele>813.0</ele><time>2026-04-11T09:00:47Z</time></trkpt><trkpt lat="39.94033108560402" lon="9.18344870150533"><ele>812.0</ele><time>2026-04-11T09:00:48Z</time></trkpt><trkpt lat="39.94040424986525" lon="9.18364353152452"><ele>811.0</ele><time>2026-04-11T09:00:49Z</time></trkpt><trkpt lat="39.94043253603611" lon="9.183863115957948"><ele>814.0</ele><time>2026-04-11T09:00:50Z</time></trkpt><trkpt lat="39.94039224593711" lon="9.18408243707185"><ele>817.0</ele><time>2026-04-11T09:00:51Z</time></trkpt><trkpt lat="39.94037497083243" lon="9.184325680168033"><ele>820.0</ele><time>2026-04-11T09:00:52Z</time></trkpt><trkpt lat="39.94034388103654" lon="9.184566498270105"><ele>820.0</ele><time>2026-04-11T09:00:53Z</time></trkpt><trkpt lat="39.94031880586821" lon="9.18480237083353"><ele>820.0</ele><time>2026-04-11T09:00:54Z</time></trkpt><trkpt lat="39.940311577868684" lon="9.185019084133565"><ele>820.0</ele><time>2026-04-11T09:00:55Z</time></trkpt><trkpt lat="39.94034203942833" lon="9.185207374270153"><ele>821.75</ele><time>2026-04-11T09:00:56Z</time></trkpt><trkpt lat="39.94041794158566" lon="9.185365892539062"><ele>823.5</ele><time>2026-04-11T09:00:57Z</time></trkpt><trkpt lat="39.94053219499266" lon="9.185479811009849"><ele>825.25</ele><time>2026-04-11T09:00:58Z</time></trkpt><trkpt lat="39.94066291630552" lon="9.185525926636972"><ele>827.0</ele><time>2026-04-11T09:00:59Z</time></trkpt><trkpt lat="39.94080107783265" lon="9.185534305819758"><ele>825.6666666666667</ele><time>2026-04-11T09:01:00Z</time></trkpt><trkpt lat="39.940930257766276" lon="9.185610771336998"><ele>824.3333333333333</ele><time>2026-04-11T09:01:01Z</time></trkpt><trkpt lat="39.94104880251291" lon="9.185751704979774"><ele>823.0</ele><time>2026-04-11T09:01:02Z</time></trkpt><trkpt lat="39.941105142002854" lon="9.18593772385232"><ele>823.0</ele><time>2026-04-11T09:01:03Z</time></trkpt><trkpt lat="39.94116594299257" lon="9.186117762215718"><ele>823.0</ele><time>2026-04-11T09:01:04Z</time></trkpt><trkpt lat="39.9411529459168" lon="9.18630215657446"><ele>823.0</ele><time>2026-04-11T09:01:05Z</time></trkpt><trkpt lat="39.94110044846842" lon="9.186462677055266"><ele>823.0</ele><time>2026-04-11T09:01:06Z</time></trkpt><trkpt lat="39.94098218543728" lon="9.18659410774941"><ele>829.0</ele><time>2026-04-11T09:01:07Z</time></trkpt><trkpt lat="39.94084529237523" lon="9.186700058614344"><ele>835.0</ele><time>2026-04-11T09:01:08Z</time></trkpt><trkpt lat="39.94071300421962" lon="9.186812849727552"><ele>841.0</ele><time>2026-04-11T09:01:09Z</time></trkpt><trkpt lat="39.94059045446652" lon="9.186952555631407"><ele>841.0</ele><time>2026-04-11T09:01:10Z</time></trkpt><trkpt lat="39.94049047118237" lon="9.187133381665328"><ele>841.0</ele><time>2026-04-11T09:01:11Z</time></trkpt><trkpt lat="39.940414143327985" lon="9.187330462153984"><ele>841.0</ele><time>2026-04-11T09:01:12Z</time></trkpt><trkpt lat="39.940355029785195" lon="9.187518344119994"><ele>839.0</ele><time>2026-04-11T09:01:13Z</time></trkpt><trkpt lat="39.94031509193313" lon="9.187697993539869"><ele>837.0</ele><time>2026-04-11T09:01:14Z</time></trkpt><trkpt lat="39.94031824314934" lon="9.187862270411514"><ele>835.0</ele><time>2026-04-11T09:01:15Z</time></trkpt><trkpt lat="39.94037343215478" lon="9.188003783049028"><ele>833.0</ele><time>2026-04-11T09:01:16Z</time></trkpt><trkpt lat="39.94046850268921" lon="9.188109992707565"><ele>833.0</ele><time>2026-04-11T09:01:17Z</time></trkpt><trkpt lat="39.94058956298294" lon="9.188151859838039"><ele>833.0</ele><time>2026-04-11T09:01:18Z</time></trkpt><trkpt lat="39.94073254593461" lon="9.18811655767502"><ele>833.0</ele><time>2026-04-11T09:01:19Z</time></trkpt><trkpt lat="39.9408833095918" lon="9.18807275548035"><ele>833.0</ele><time>2026-04-11T09:01:20Z</time></trkpt><trkpt lat="39.941033502458794" lon="9.18801171495126"><ele>831.3333333333334</ele><time>2026-04-11T09:01:21Z</time></trkpt><trkpt lat="39.94118613991255" lon="9.18796658491343"><ele>829.6666666666667</ele><time>2026-04-11T09:01:22Z</time></trkpt><trkpt lat="39.94135022662379" lon="9.187960405524198"><ele>828.0</ele><time>2026-04-11T09:01:23Z</time></trkpt><trkpt lat="39.94152384435969" lon="9.187989974577068"><ele>828.0</ele><time>2026-04-11T09:01:24Z</time></trkpt><trkpt lat="39.94171021668525" lon="9.18802186504967"><ele>828.0</ele><time>2026-04-11T09:01:25Z</time></trkpt><trkpt lat="39.94189845798004" lon="9.188051426469494"><ele>828.0</ele><time>2026-04-11T09:01:26Z</time></trkpt><trkpt lat="39.942067628044995" lon="9.188080569173941"><ele>826.3333333333333</ele><time>2026-04-11T09:01:27Z</time></trkpt><trkpt lat="39.94221227910099" lon="9.188130325436251"><ele>824.6666666666666</ele><time>2026-04-11T09:01:28Z</time></trkpt><trkpt lat="39.94234521175798" lon="9.188225136433653"><ele>823.0</ele><time>2026-04-11T09:01:29Z</time></trkpt><trkpt lat="39.942477205883506" lon="9.18835484495063"><ele>829.6666666666666</ele><time>2026-04-11T09:01:30Z</time></trkpt><trkpt lat="39.94259224262352" lon="9.188520393210508"><ele>836.3333333333333</ele><time>2026-04-11T09:01:31Z</time></trkpt><trkpt lat="39.94270523638144" lon="9.188682033704357"><ele>843.0</ele><time>2026-04-11T09:01:32Z</time></trkpt><trkpt lat="39.942810900056344" lon="9.18882176412211"><ele>843.0</ele><time>2026-04-11T09:01:33Z</time></trkpt><trkpt lat="39.94290851032502" lon="9.188924287456823"><ele>843.0</ele><time>2026-04-11T09:01:34Z</time></trkpt><trkpt lat="39.94301286488853" lon="9.188973120839018"><ele>843.0</ele><time>2026-04-11T09:01:35Z</time></trkpt><trkpt lat="39.94312420505054" lon="9.188954673775141"><ele>843.0</ele><time>2026-04-11T09:01:36Z</time></trkpt><trkpt lat="39.94322213163644" lon="9.188869457135743"><ele>843.0</ele><time>2026-04-11T09:01:37Z</time></trkpt><trkpt lat="39.9432760388014" lon="9.188727429236753"><ele>843.0</ele><time>2026-04-11T09:01:38Z</time></trkpt><trkpt lat="39.94326643353694" lon="9.188546395502307"><ele>843.0</ele><time>2026-04-11T09:01:39Z</time></trkpt><trkpt lat="39.943242357200745" lon="9.188352306071021"><ele>843.0</ele><time>2026-04-11T09:01:40Z</time></trkpt><trkpt lat="39.943229339994986" lon="9.188153268096592"><ele>842.0</ele><time>2026-04-11T09:01:41Z</time></trkpt><trkpt lat="39.943232049833576" lon="9.187963621959108"><ele>841.0</ele><time>2026-04-11T09:01:42Z</time></trkpt><trkpt lat="39.94326654095727" lon="9.18779059738804"><ele>840.0</ele><time>2026-04-11T09:01:43Z</time></trkpt><trkpt lat="39.94334792181424" lon="9.187633982027055"><ele>839.0</ele><time>2026-04-11T09:01:44Z</time></trkpt><trkpt lat="39.94343127662927" lon="9.187476958773152"><ele>850.6666666666667</ele><time>2026-04-11T09:01:45Z</time></trkpt><trkpt lat="39.94346215891538" lon="9.187289056559553"><ele>862.3333333333333</ele><time>2026-04-11T09:01:46Z</time></trkpt><trkpt lat="39.943446661908474" lon="9.187070574124952"><ele>874.0</ele><time>2026-04-11T09:01:47Z</time></trkpt><trkpt lat="39.943421449493854" lon="9.186856776417757"><ele>874.0</ele><time>2026-04-11T09:01:48Z</time></trkpt><trkpt lat="39.943384737279985" lon="9.186633698876781"><ele>874.0</ele><time>2026-04-11T09:01:49Z</time></trkpt><trkpt lat="39.943329770752136" lon="9.186394511401174"><ele>874.0</ele><time>2026-04-11T09:01:50Z</time></trkpt><trkpt lat="39.94327631816068" lon="9.186168639124013"><ele>867.0</ele><time>2026-04-11T09:01:51Z</time></trkpt><trkpt lat="39.94325538593307" lon="9.18593317718157"><ele>860.0</ele><time>2026-04-11T09:01:52Z</time></trkpt><trkpt lat="39.94327281270041" lon="9.185688088760793"><ele>853.0</ele><time>2026-04-11T09:01:53Z</time></trkpt><trkpt lat="39.943302987658434" lon="9.185445532310837"><ele>853.0</ele><time>2026-04-11T09:01:54Z</time></trkpt><trkpt lat="39.94330699920922" lon="9.1852038883608"><ele>853.0</ele><time>2026-04-11T09:01:55Z</time></trkpt><trkpt lat="39.9432769656056" lon="9.184970504666346"><ele>853.0</ele><time>2026-04-11T09:01:56Z</time></trkpt><trkpt lat="39.943219860312816" lon="9.184750405359829"><ele>856.0</ele><time>2026-04-11T09:01:57Z</time></trkpt><trkpt lat="39.94312552892089" lon="9.184551997078469"><ele>859.0</ele><time>2026-04-11T09:01:58Z</time></trkpt><trkpt lat="39.9429908276957" lon="9.184415429023833"><ele>862.0</ele><time>2026-04-11T09:01:59Z</time></trkpt><trkpt lat="39.94285302881834" lon="9.184356587731795"><ele>862.0</ele><time>2026-04-11T09:02:00Z</time></trkpt><trkpt lat="39.94272358974498" lon="9.184320889395494"><ele>862.0</ele><time>2026-04-11T09:02:01Z</time></trkpt><trkpt lat="39.94260227669245" lon="9.184268118585747"><ele>862.0</ele><time>2026-04-11T09:02:02Z</time></trkpt><trkpt lat="39.94255570874526" lon="9.18411493487813"><ele>862.0</ele><time>2026-04-11T09:02:03Z</time></trkpt><trkpt lat="39.942528581137495" lon="9.18395455477786"><ele>864.5</ele><time>2026-04-11T09:02:04Z</time></trkpt><trkpt lat="39.94255625736155" lon="9.1837868877479"><ele>867.0</ele><time>2026-04-11T09:02:05Z</time></trkpt><trkpt lat="39.942617433333524" lon="9.183632615422944"><ele>869.5</ele><time>2026-04-11T09:02:06Z</time></trkpt><trkpt lat="39.94268617287909" lon="9.183461885623222"><ele>872.0</ele><time>2026-04-11T09:02:07Z</time></trkpt><trkpt lat="39.94276109519663" lon="9.183278242836924"><ele>870.6666666666667</ele><time>2026-04-11T09:02:08Z</time></trkpt><trkpt lat="39.9428131405059" lon="9.18308103014136"><ele>869.3333333333333</ele><time>2026-04-11T09:02:09Z</time></trkpt><trkpt lat="39.94288249293346" lon="9.182890960596893"><ele>868.0</ele><time>2026-04-11T09:02:10Z</time></trkpt><trkpt lat="39.9429251684631" lon="9.182692802589646"><ele>868.0</ele><time>2026-04-11T09:02:11Z</time></trkpt><trkpt lat="39.94295243368125" lon="9.182482014666254"><ele>868.0</ele><time>2026-04-11T09:02:12Z</time></trkpt><trkpt lat="39.94297677222568" lon="9.182267912376174"><ele>868.0</ele><time>2026-04-11T09:02:13Z</time></trkpt><trkpt lat="39.942995577627045" lon="9.182055327780326"><ele>866.0</ele><time>2026-04-11T09:02:14Z</time></trkpt><trkpt lat="39.94299685081473" lon="9.181864166856178"><ele>864.0</ele><time>2026-04-11T09:02:15Z</time></trkpt><trkpt lat="39.94297278465263" lon="9.181705702657647"><ele>862.0</ele><time>2026-04-11T09:02:16Z</time></trkpt><trkpt lat="39.942943328603924" lon="9.181575148532728"><ele>860.0</ele><time>2026-04-11T09:02:17Z</time></trkpt><trkpt lat="39.942916338078845" lon="9.181470083275135"><ele>860.0000000000001</ele><time>2026-04-11T09:02:18Z</time></trkpt><trkpt lat="39.94291806384059" lon="9.181359993988165"><ele>860.0</ele><time>2026-04-11T09:02:20Z</time></trkpt><trkpt lat="39.942981900019426" lon="9.181401436821464"><ele>860.0</ele><time>2026-04-11T09:02:53Z</time></trkpt><trkpt lat="39.94297282814213" lon="9.181501859896096"><ele>860.0</ele><time>2026-04-11T09:03:04Z</time></trkpt><trkpt lat="39.94298630483107" lon="9.181605259542957"><ele>860.0000000000001</ele><time>2026-04-11T09:03:06Z</time></trkpt><trkpt lat="39.94299901797891" lon="9.18170103453895"><ele>860.0</ele><time>2026-04-11T09:03:08Z</time></trkpt><trkpt lat="39.94301224816811" lon="9.18179600643244"><ele>860.0000000000001</ele><time>2026-04-11T09:03:10Z</time></trkpt><trkpt lat="39.94302632877256" lon="9.181897083877269"><ele>860.0</ele><time>2026-04-11T09:03:12Z</time></trkpt><trkpt lat="39.94307892709763" lon="9.181947682956533"><ele>860.0</ele><time>2026-04-11T09:03:13Z</time></trkpt><trkpt lat="39.94308508377519" lon="9.182047924029218"><ele>860.0</ele><time>2026-04-11T09:03:15Z</time></trkpt><trkpt lat="39.94311321132479" lon="9.18189133497115"><ele>860.0000000000001</ele><time>2026-04-11T09:03:22Z</time></trkpt><trkpt lat="39.94306794842556" lon="9.181783450402179"><ele>860.0</ele><time>2026-04-11T09:03:23Z</time></trkpt><trkpt lat="39.943043666534514" lon="9.181675914371551"><ele>860.0</ele><time>2026-04-11T09:03:24Z</time></trkpt><trkpt lat="39.94302413859741" lon="9.181570158738172"><ele>860.0</ele><time>2026-04-11T09:03:25Z</time></trkpt><trkpt lat="39.943014059372366" lon="9.181474392446384"><ele>860.0</ele><time>2026-04-11T09:03:26Z</time></trkpt><trkpt lat="39.94307175012799" lon="9.181370164427037"><ele>860.0</ele><time>2026-04-11T09:03:28Z</time></trkpt><trkpt lat="39.94315150338915" lon="9.181419949073788"><ele>860.0</ele><time>2026-04-11T09:03:30Z</time></trkpt><trkpt lat="39.94323813920239" lon="9.181510018858857"><ele>860.0</ele><time>2026-04-11T09:03:32Z</time></trkpt><trkpt lat="39.943306645453845" lon="9.181599794337421"><ele>860.0</ele><time>2026-04-11T09:03:33Z</time></trkpt><trkpt lat="39.94339169247992" lon="9.181716364082941"><ele>860.0</ele><time>2026-04-11T09:03:34Z</time></trkpt><trkpt lat="39.94348783468313" lon="9.18184606168247"><ele>860.0</ele><time>2026-04-11T09:03:35Z</time></trkpt><trkpt lat="39.94359467445395" lon="9.181980756102403"><ele>858.0</ele><time>2026-04-11T09:03:36Z</time></trkpt><trkpt lat="39.94372704239112" lon="9.182123539167497"><ele>856.0</ele><time>2026-04-11T09:03:37Z</time></trkpt><trkpt lat="39.94385144794827" lon="9.182271612119697"><ele>854.0</ele><time>2026-04-11T09:03:38Z</time></trkpt><trkpt lat="39.943947679640935" lon="9.182425893567494"><ele>854.0</ele><time>2026-04-11T09:03:39Z</time></trkpt><trkpt lat="39.9440083406618" lon="9.182596777268339"><ele>854.0</ele><time>2026-04-11T09:03:40Z</time></trkpt><trkpt lat="39.94402712277207" lon="9.182787838078587"><ele>854.0</ele><time>2026-04-11T09:03:41Z</time></trkpt><trkpt lat="39.944004301246395" lon="9.182996761556222"><ele>855.6666666666667</ele><time>2026-04-11T09:03:42Z</time></trkpt><trkpt lat="39.943971589141945" lon="9.183209923820115"><ele>857.3333333333333</ele><time>2026-04-11T09:03:43Z</time></trkpt><trkpt lat="39.943959305212594" lon="9.183420042171347"><ele>859.0</ele><time>2026-04-11T09:03:44Z</time></trkpt><trkpt lat="39.944003424404116" lon="9.183647089394176"><ele>859.0</ele><time>2026-04-11T09:03:45Z</time></trkpt><trkpt lat="39.9440746327117" lon="9.183871853209702"><ele>859.0</ele><time>2026-04-11T09:03:46Z</time></trkpt><trkpt lat="39.94413548127247" lon="9.184089142248045"><ele>859.0</ele><time>2026-04-11T09:03:47Z</time></trkpt><trkpt lat="39.94418368520485" lon="9.18429944268251"><ele>854.6666666666666</ele><time>2026-04-11T09:03:48Z</time></trkpt><trkpt lat="39.944239703643525" lon="9.184491323380312"><ele>850.3333333333333</ele><time>2026-04-11T09:03:49Z</time></trkpt><trkpt lat="39.944335069180546" lon="9.184650824528704"><ele>846.0</ele><time>2026-04-11T09:03:50Z</time></trkpt><trkpt lat="39.94447783011337" lon="9.184769732732684"><ele>851.0</ele><time>2026-04-11T09:03:51Z</time></trkpt><trkpt lat="39.9446468652942" lon="9.18485462138196"><ele>856.0</ele><time>2026-04-11T09:03:52Z</time></trkpt><trkpt lat="39.944824116486465" lon="9.184926862542339"><ele>861.0</ele><time>2026-04-11T09:03:53Z</time></trkpt><trkpt lat="39.94498988422814" lon="9.185000261908348"><ele>855.3333333333333</ele><time>2026-04-11T09:03:54Z</time></trkpt><trkpt lat="39.94514103701081" lon="9.185080628138492"><ele>849.6666666666666</ele><time>2026-04-11T09:03:55Z</time></trkpt><trkpt lat="39.945273270767586" lon="9.185195392161596"><ele>844.0</ele><time>2026-04-11T09:03:56Z</time></trkpt><trkpt lat="39.94538691783735" lon="9.18536835996004"><ele>844.0</ele><time>2026-04-11T09:03:57Z</time></trkpt><trkpt lat="39.94547934707288" lon="9.1855766300993"><ele>844.0</ele><time>2026-04-11T09:03:58Z</time></trkpt><trkpt lat="39.94557129284499" lon="9.185763713058378"><ele>844.0</ele><time>2026-04-11T09:03:59Z</time></trkpt><trkpt lat="39.94569380347477" lon="9.185883020554176"><ele>844.6666666666666</ele><time>2026-04-11T09:04:00Z</time></trkpt><trkpt lat="39.945848545422955" lon="9.185932396054223"><ele>845.3333333333333</ele><time>2026-04-11T09:04:01Z</time></trkpt><trkpt lat="39.94601104922276" lon="9.185919804427133"><ele>846.0</ele><time>2026-04-11T09:04:02Z</time></trkpt><trkpt lat="39.94617511627409" lon="9.185890368905552"><ele>846.0</ele><time>2026-04-11T09:04:03Z</time></trkpt><trkpt lat="39.94632367990527" lon="9.185931221772742"><ele>846.0</ele><time>2026-04-11T09:04:04Z</time></trkpt><trkpt lat="39.94645053423401" lon="9.186059212187464"><ele>846.0</ele><time>2026-04-11T09:04:05Z</time></trkpt><trkpt lat="39.946590955471756" lon="9.186159581258863"><ele>845.0</ele><time>2026-04-11T09:04:06Z</time></trkpt><trkpt lat="39.94672635279406" lon="9.18623332345739"><ele>844.0</ele><time>2026-04-11T09:04:07Z</time></trkpt><trkpt lat="39.946882046710314" lon="9.186220705070946"><ele>843.0</ele><time>2026-04-11T09:04:08Z</time></trkpt><trkpt lat="39.94703451323774" lon="9.186138306057753"><ele>843.0</ele><time>2026-04-11T09:04:09Z</time></trkpt><trkpt lat="39.94718613356244" lon="9.186028904780773"><ele>843.0</ele><time>2026-04-11T09:04:10Z</time></trkpt><trkpt lat="39.947340522491864" lon="9.185978209026601"><ele>843.0</ele><time>2026-04-11T09:04:11Z</time></trkpt><trkpt lat="39.947483659573216" lon="9.185948104669007"><ele>839.25</ele><time>2026-04-11T09:04:12Z</time></trkpt><trkpt lat="39.94759466796074" lon="9.186006881851197"><ele>835.5</ele><time>2026-04-11T09:04:13Z</time></trkpt><trkpt lat="39.947653739247905" lon="9.186122726988396"><ele>831.75</ele><time>2026-04-11T09:04:14Z</time></trkpt><trkpt lat="39.9476420822409" lon="9.186287269129844"><ele>828.0</ele><time>2026-04-11T09:04:15Z</time></trkpt><trkpt lat="39.947652646294756" lon="9.186459626250619"><ele>830.75</ele><time>2026-04-11T09:04:16Z</time></trkpt><trkpt lat="39.94767722937912" lon="9.18663171129077"><ele>833.5</ele><time>2026-04-11T09:04:17Z</time></trkpt><trkpt lat="39.94776760274233" lon="9.18677732254778"><ele>836.25</ele><time>2026-04-11T09:04:18Z</time></trkpt><trkpt lat="39.94790428779105" lon="9.18688873526425"><ele>839.0</ele><time>2026-04-11T09:04:19Z</time></trkpt><trkpt lat="39.94805347859157" lon="9.186978980493135"><ele>839.0</ele><time>2026-04-11T09:04:20Z</time></trkpt><trkpt lat="39.9482066687421" lon="9.187074907289192"><ele>839.0</ele><time>2026-04-11T09:04:21Z</time></trkpt><trkpt lat="39.94836238033144" lon="9.18718011789689"><ele>839.0</ele><time>2026-04-11T09:04:22Z</time></trkpt><trkpt lat="39.94851444819726" lon="9.18728930728661"><ele>838.0</ele><time>2026-04-11T09:04:23Z</time></trkpt><trkpt lat="39.948660998648045" lon="9.187411153000657"><ele>837.0</ele><time>2026-04-11T09:04:24Z</time></trkpt><trkpt lat="39.948802792196126" lon="9.1875454536637"><ele>836.0</ele><time>2026-04-11T09:04:25Z</time></trkpt><trkpt lat="39.948927696445196" lon="9.187686877227165"><ele>836.0</ele><time>2026-04-11T09:04:26Z</time></trkpt><trkpt lat="39.9490278335889" lon="9.18784785467171"><ele>836.0</ele><time>2026-04-11T09:04:27Z</time></trkpt><trkpt lat="39.94907698753612" lon="9.188056492004145"><ele>836.0</ele><time>2026-04-11T09:04:28Z</time></trkpt><trkpt lat="39.949168584739596" lon="9.188237668673258"><ele>832.3333333333334</ele><time>2026-04-11T09:04:29Z</time></trkpt><trkpt lat="39.94924905049775" lon="9.188430154814903"><ele>828.6666666666667</ele><time>2026-04-11T09:04:30Z</time></trkpt><trkpt lat="39.94931734733245" lon="9.188637473980037"><ele>825.0</ele><time>2026-04-11T09:04:31Z</time></trkpt><trkpt lat="39.94935163444616" lon="9.18886652542999"><ele>826.3333333333333</ele><time>2026-04-11T09:04:32Z</time></trkpt><trkpt lat="39.94938070761096" lon="9.189097532774946"><ele>827.6666666666666</ele><time>2026-04-11T09:04:33Z</time></trkpt><trkpt lat="39.94944897979117" lon="9.189315537623528"><ele>829.0</ele><time>2026-04-11T09:04:34Z</time></trkpt><trkpt lat="39.94955859944668" lon="9.189508703939168"><ele>829.0</ele><time>2026-04-11T09:04:35Z</time></trkpt><trkpt lat="39.949687794955054" lon="9.18968478968246"><ele>829.0</ele><time>2026-04-11T09:04:36Z</time></trkpt><trkpt lat="39.9498161987229" lon="9.189849005987822"><ele>829.0</ele><time>2026-04-11T09:04:37Z</time></trkpt><trkpt lat="39.94993775276325" lon="9.190002072343091"><ele>825.3333333333333</ele><time>2026-04-11T09:04:38Z</time></trkpt><trkpt lat="39.95005757112566" lon="9.190139838260455"><ele>821.6666666666667</ele><time>2026-04-11T09:04:39Z</time></trkpt><trkpt lat="39.950187840787095" lon="9.190247882409055"><ele>818.0</ele><time>2026-04-11T09:04:40Z</time></trkpt><trkpt lat="39.95031958270863" lon="9.190340305611967"><ele>818.0</ele><time>2026-04-11T09:04:41Z</time></trkpt><trkpt lat="39.950430599910526" lon="9.190458336083168"><ele>818.0</ele><time>2026-04-11T09:04:42Z</time></trkpt><trkpt lat="39.95047403320904" lon="9.19063352041782"><ele>818.0</ele><time>2026-04-11T09:04:43Z</time></trkpt><trkpt lat="39.950544895209035" lon="9.190790385423048"><ele>818.0</ele><time>2026-04-11T09:04:44Z</time></trkpt><trkpt lat="39.950601192504415" lon="9.190941098450423"><ele>817.75</ele><time>2026-04-11T09:04:45Z</time></trkpt><trkpt lat="39.950680360643354" lon="9.191065504457038"><ele>817.5</ele><time>2026-04-11T09:04:46Z</time></trkpt><trkpt lat="39.95077632734574" lon="9.19116200764477"><ele>817.25</ele><time>2026-04-11T09:04:47Z</time></trkpt><trkpt lat="39.95087113003571" lon="9.191254627290753"><ele>817.0</ele><time>2026-04-11T09:04:48Z</time></trkpt><trkpt lat="39.95095818513823" lon="9.191347189015982"><ele>817.0</ele><time>2026-04-11T09:04:49Z</time></trkpt><trkpt lat="39.951045032611404" lon="9.191436388103543"><ele>817.0</ele><time>2026-04-11T09:04:50Z</time></trkpt><trkpt lat="39.95112937835482" lon="9.191521797244425"><ele>817.0</ele><time>2026-04-11T09:04:51Z</time></trkpt><trkpt lat="39.95121114971032" lon="9.191610645917214"><ele>817.0</ele><time>2026-04-11T09:04:52Z</time></trkpt><trkpt lat="39.95128802509934" lon="9.191700593443043"><ele>817.0</ele><time>2026-04-11T09:04:53Z</time></trkpt><trkpt lat="39.9513680601659" lon="9.191783351826299"><ele>818.2</ele><time>2026-04-11T09:04:54Z</time></trkpt><trkpt lat="39.95145153442059" lon="9.1918528738934"><ele>819.4000000000001</ele><time>2026-04-11T09:04:55Z</time></trkpt><trkpt lat="39.95153279277987" lon="9.191922253965279"><ele>820.5999999999999</ele><time>2026-04-11T09:04:56Z</time></trkpt><trkpt lat="39.95161233274497" lon="9.191995073778937"><ele>821.8</ele><time>2026-04-11T09:04:57Z</time></trkpt><trkpt lat="39.95168217326695" lon="9.192076366903915"><ele>823.0</ele><time>2026-04-11T09:04:58Z</time></trkpt><trkpt lat="39.95174437165861" lon="9.19217069745992"><ele>820.2</ele><time>2026-04-11T09:04:59Z</time></trkpt><trkpt lat="39.95179029416296" lon="9.192275575709385"><ele>817.4</ele><time>2026-04-11T09:05:00Z</time></trkpt><trkpt lat="39.951833522174276" lon="9.192380766688483"><ele>814.6</ele><time>2026-04-11T09:05:01Z</time></trkpt><trkpt lat="39.951879493260556" lon="9.19248563268439"><ele>811.8000000000001</ele><time>2026-04-11T09:05:02Z</time></trkpt><trkpt lat="39.95193288143369" lon="9.192582341563556"><ele>809.0</ele><time>2026-04-11T09:05:03Z</time></trkpt><trkpt lat="39.95199579557703" lon="9.192672744941015"><ele>809.0</ele><time>2026-04-11T09:05:04Z</time></trkpt><trkpt lat="39.95205801823401" lon="9.192768573343388"><ele>809.0</ele><time>2026-04-11T09:05:05Z</time></trkpt><trkpt lat="39.952112112450905" lon="9.192872825383914"><ele>809.0</ele><time>2026-04-11T09:05:06Z</time></trkpt><trkpt lat="39.95214903658257" lon="9.192990527251448"><ele>809.0</ele><time>2026-04-11T09:05:07Z</time></trkpt><trkpt lat="39.952165880388876" lon="9.193119722326138"><ele>809.0</ele><time>2026-04-11T09:05:08Z</time></trkpt><trkpt lat="39.95216646562352" lon="9.193247300440381"><ele>809.6</ele><time>2026-04-11T09:05:09Z</time></trkpt><trkpt lat="39.95216528524365" lon="9.193379551989675"><ele>810.2</ele><time>2026-04-11T09:05:10Z</time></trkpt><trkpt lat="39.952173470359874" lon="9.193505572149926"><ele>810.8000000000001</ele><time>2026-04-11T09:05:11Z</time></trkpt><trkpt lat="39.95219401933603" lon="9.193637673104135"><ele>811.4000000000001</ele><time>2026-04-11T09:05:12Z</time></trkpt><trkpt lat="39.95221748090535" lon="9.193772968873208"><ele>812.0</ele><time>2026-04-11T09:05:13Z</time></trkpt><trkpt lat="39.95223934932661" lon="9.19391152899997"><ele>812.2</ele><time>2026-04-11T09:05:14Z</time></trkpt><trkpt lat="39.952252268601626" lon="9.194050842739836"><ele>812.4000000000001</ele><time>2026-04-11T09:05:15Z</time></trkpt><trkpt lat="39.9522588953317" lon="9.194194780425645"><ele>812.5999999999999</ele><time>2026-04-11T09:05:16Z</time></trkpt><trkpt lat="39.95225460426228" lon="9.194340363739553"><ele>812.8</ele><time>2026-04-11T09:05:17Z</time></trkpt><trkpt lat="39.95224302237518" lon="9.19448632393308"><ele>813.0</ele><time>2026-04-11T09:05:18Z</time></trkpt><trkpt lat="39.95224163719701" lon="9.194627006849046"><ele>813.0</ele><time>2026-04-11T09:05:19Z</time></trkpt><trkpt lat="39.952273485055585" lon="9.194760301607102"><ele>813.0</ele><time>2026-04-11T09:05:20Z</time></trkpt><trkpt lat="39.95235096666013" lon="9.194854478902368"><ele>813.0</ele><time>2026-04-11T09:05:21Z</time></trkpt><trkpt lat="39.95244894251489" lon="9.194904522249207"><ele>813.0</ele><time>2026-04-11T09:05:22Z</time></trkpt><trkpt lat="39.95253528539638" lon="9.194950985583697"><ele>813.0</ele><time>2026-04-11T09:05:23Z</time></trkpt><trkpt lat="39.9526168084052" lon="9.195014923065395"><ele>810.0</ele><time>2026-04-11T09:05:24Z</time></trkpt><trkpt lat="39.952685209543354" lon="9.195096036267605"><ele>807.0</ele><time>2026-04-11T09:05:25Z</time></trkpt><trkpt lat="39.952750700617116" lon="9.195181041722325"><ele>804.0</ele><time>2026-04-11T09:05:26Z</time></trkpt><trkpt lat="39.95280656865342" lon="9.195271387213815"><ele>801.0</ele><time>2026-04-11T09:05:27Z</time></trkpt><trkpt lat="39.952845311945936" lon="9.195376554134068"><ele>798.0</ele><time>2026-04-11T09:05:28Z</time></trkpt><trkpt lat="39.95286436734607" lon="9.195494967889632"><ele>798.0</ele><time>2026-04-11T09:05:29Z</time></trkpt><trkpt lat="39.95286225704043" lon="9.19561772389745"><ele>798.0</ele><time>2026-04-11T09:05:30Z</time></trkpt><trkpt lat="39.95283170012986" lon="9.195734908294614"><ele>798.0</ele><time>2026-04-11T09:05:31Z</time></trkpt><trkpt lat="39.952796096035925" lon="9.195850097730888"><ele>798.0</ele><time>2026-04-11T09:05:32Z</time></trkpt><trkpt lat="39.9527908847664" lon="9.195969771206363"><ele>798.0</ele><time>2026-04-11T09:05:33Z</time></trkpt><trkpt lat="39.95283055675095" lon="9.196085381110361"><ele>798.5999999999999</ele><time>2026-04-11T09:05:34Z</time></trkpt><trkpt lat="39.95286267857177" lon="9.196208705616474"><ele>799.1999999999999</ele><time>2026-04-11T09:05:35Z</time></trkpt><trkpt lat="39.95291262878769" lon="9.19631467081223"><ele>799.8</ele><time>2026-04-11T09:05:36Z</time></trkpt><trkpt lat="39.95293739574266" lon="9.196439894567398"><ele>800.4</ele><time>2026-04-11T09:05:37Z</time></trkpt><trkpt lat="39.95294049820166" lon="9.196572297430196"><ele>801.0</ele><time>2026-04-11T09:05:38Z</time></trkpt><trkpt lat="39.95292768631121" lon="9.196704440708345"><ele>801.5999999999999</ele><time>2026-04-11T09:05:39Z</time></trkpt><trkpt lat="39.95291431248521" lon="9.196834839783355"><ele>802.2</ele><time>2026-04-11T09:05:40Z</time></trkpt><trkpt lat="39.952917504585656" lon="9.196959205466657"><ele>802.8</ele><time>2026-04-11T09:05:41Z</time></trkpt><trkpt lat="39.95296290741236" lon="9.197071066084822"><ele>803.4000000000001</ele><time>2026-04-11T09:05:42Z</time></trkpt><trkpt lat="39.95303878300584" lon="9.197148533539748"><ele>804.0</ele><time>2026-04-11T09:05:43Z</time></trkpt><trkpt lat="39.953134642881665" lon="9.197206634115162"><ele>804.0</ele><time>2026-04-11T09:05:44Z</time></trkpt><trkpt lat="39.95323039084653" lon="9.197272886876414"><ele>804.0</ele><time>2026-04-11T09:05:45Z</time></trkpt><trkpt lat="39.953323235124195" lon="9.197352937249839"><ele>804.0</ele><time>2026-04-11T09:05:46Z</time></trkpt><trkpt lat="39.9533973243917" lon="9.197463632005773"><ele>804.0</ele><time>2026-04-11T09:05:47Z</time></trkpt><trkpt lat="39.95347842210025" lon="9.197560766903294"><ele>804.0</ele><time>2026-04-11T09:05:48Z</time></trkpt><trkpt lat="39.953559320449884" lon="9.19765828702268"><ele>803.6</ele><time>2026-04-11T09:05:49Z</time></trkpt><trkpt lat="39.953641634793335" lon="9.19775438620426"><ele>803.2</ele><time>2026-04-11T09:05:50Z</time></trkpt><trkpt lat="39.95372373608566" lon="9.197846536034154"><ele>802.8000000000001</ele><time>2026-04-11T09:05:51Z</time></trkpt><trkpt lat="39.953805836801806" lon="9.197933293205276"><ele>802.4000000000001</ele><time>2026-04-11T09:05:52Z</time></trkpt><trkpt lat="39.953884321263835" lon="9.198017846134379"><ele>802.0</ele><time>2026-04-11T09:05:53Z</time></trkpt><trkpt lat="39.95395753414574" lon="9.198102558255478"><ele>804.2</ele><time>2026-04-11T09:05:54Z</time></trkpt><trkpt lat="39.95401226599981" lon="9.198194008841964"><ele>806.4000000000001</ele><time>2026-04-11T09:05:55Z</time></trkpt><trkpt lat="39.954072014184625" lon="9.198291944063334"><ele>808.5999999999999</ele><time>2026-04-11T09:05:56Z</time></trkpt><trkpt lat="39.954105784669885" lon="9.19840492935994"><ele>810.8</ele><time>2026-04-11T09:05:57Z</time></trkpt><trkpt lat="39.95415515863682" lon="9.19850052875219"><ele>813.0</ele><time>2026-04-11T09:05:58Z</time></trkpt><trkpt lat="39.954212910120475" lon="9.198582788068512"><ele>816.2</ele><time>2026-04-11T09:05:59Z</time></trkpt><trkpt lat="39.95432062743552" lon="9.1985907462153"><ele>819.4</ele><time>2026-04-11T09:06:00Z</time></trkpt><trkpt lat="39.954408753706595" lon="9.198546120776548"><ele>822.6</ele><time>2026-04-11T09:06:01Z</time></trkpt><trkpt lat="39.954473154352414" lon="9.198485597355619"><ele>825.8000000000001</ele><time>2026-04-11T09:06:02Z</time></trkpt><trkpt lat="39.954570824604055" lon="9.198395079581472"><ele>829.0</ele><time>2026-04-11T09:06:04Z</time></trkpt><trkpt lat="39.95456725478666" lon="9.198272667426597"><ele>829.0</ele><time>2026-04-11T09:06:05Z</time></trkpt><trkpt lat="39.954598749354105" lon="9.198194123347058"><ele>829.0</ele><time>2026-04-11T09:06:06Z</time></trkpt><trkpt lat="39.95463251049583" lon="9.19811402716149"><ele>829.0</ele><time>2026-04-11T09:06:07Z</time></trkpt><trkpt lat="39.95466846709768" lon="9.198029127882196"><ele>829.0</ele><time>2026-04-11T09:06:08Z</time></trkpt><trkpt lat="39.95470550425758" lon="9.197948404946025"><ele>829.0</ele><time>2026-04-11T09:06:09Z</time></trkpt><trkpt lat="39.95475414652648" lon="9.197872223914676"><ele>829.0</ele><time>2026-04-11T09:06:10Z</time></trkpt><trkpt lat="39.954788833869564" lon="9.197793266763425"><ele>829.0</ele><time>2026-04-11T09:06:11Z</time></trkpt><trkpt lat="39.95482275821886" lon="9.197674175197408"><ele>826.1666666666666</ele><time>2026-04-11T09:06:13Z</time></trkpt><trkpt lat="39.954867769792614" lon="9.197595534007574"><ele>823.3333333333333</ele><time>2026-04-11T09:06:15Z</time></trkpt><trkpt lat="39.95491732606317" lon="9.197484243078257"><ele>820.5</ele><time>2026-04-11T09:06:17Z</time></trkpt><trkpt lat="39.954995803465984" lon="9.197361319469039"><ele>817.6666666666667</ele><time>2026-04-11T09:06:19Z</time></trkpt><trkpt lat="39.9550442985115" lon="9.197301498941377"><ele>814.8333333333334</ele><time>2026-04-11T09:06:20Z</time></trkpt><trkpt lat="39.95509308714234" lon="9.197238014324528"><ele>812.0</ele><time>2026-04-11T09:06:21Z</time></trkpt><trkpt lat="39.95514097040003" lon="9.197181544886007"><ele>809.0</ele><time>2026-04-11T09:06:22Z</time></trkpt><trkpt lat="39.95524965021227" lon="9.197110273177405"><ele>806.0</ele><time>2026-04-11T09:06:24Z</time></trkpt><trkpt lat="39.95535251414752" lon="9.197032255790221"><ele>803.0</ele><time>2026-04-11T09:06:26Z</time></trkpt><trkpt lat="39.95544955129619" lon="9.19698044194233"><ele>800.0</ele><time>2026-04-11T09:06:28Z</time></trkpt><trkpt lat="39.95554856678478" lon="9.196934559025795"><ele>800.0000000000001</ele><time>2026-04-11T09:06:30Z</time></trkpt><trkpt lat="39.955614005269254" lon="9.196904264559466"><ele>800.0</ele><time>2026-04-11T09:06:32Z</time></trkpt><trkpt lat="39.95567283055187" lon="9.196844810072015"><ele>800.0</ele><time>2026-04-11T09:06:34Z</time></trkpt><trkpt lat="39.955732766076316" lon="9.196819307195408"><ele>800.0</ele><time>2026-04-11T09:06:37Z</time></trkpt><trkpt lat="39.95579465747276" lon="9.19678082252641"><ele>800.0</ele><time>2026-04-11T09:06:41Z</time></trkpt><trkpt lat="39.95586502975419" lon="9.19675243661995"><ele>800.0000000000001</ele><time>2026-04-11T09:06:54Z</time></trkpt><trkpt lat="39.9559447551905" lon="9.19669277965001"><ele>800.0</ele><time>2026-04-11T09:06:56Z</time></trkpt><trkpt lat="39.95603814352063" lon="9.196622149656939"><ele>800.6</ele><time>2026-04-11T09:06:58Z</time></trkpt><trkpt lat="39.95615297814462" lon="9.196565865288164"><ele>801.2</ele><time>2026-04-11T09:07:00Z</time></trkpt><trkpt lat="39.95627612436571" lon="9.196524102684364"><ele>801.8</ele><time>2026-04-11T09:07:02Z</time></trkpt><trkpt lat="39.956343137674295" lon="9.196504683304168"><ele>802.4</ele><time>2026-04-11T09:07:03Z</time></trkpt><trkpt lat="39.956412866240115" lon="9.196486648480628"><ele>803.0</ele><time>2026-04-11T09:07:04Z</time></trkpt><trkpt lat="39.956477537214276" lon="9.19647554289374"><ele>799.3333333333334</ele><time>2026-04-11T09:07:05Z</time></trkpt><trkpt lat="39.95655808316394" lon="9.196462794664555"><ele>795.6666666666667</ele><time>2026-04-11T09:07:07Z</time></trkpt><trkpt lat="39.95664880223313" lon="9.196451139794064"><ele>792.0</ele><time>2026-04-11T09:07:10Z</time></trkpt><trkpt lat="39.956754420990265" lon="9.196441715921075"><ele>788.3333333333333</ele><time>2026-04-11T09:07:12Z</time></trkpt><trkpt lat="39.95682557128563" lon="9.196441378107025"><ele>784.6666666666666</ele><time>2026-04-11T09:07:13Z</time></trkpt><trkpt lat="39.9568923311359" lon="9.196446124876696"><ele>781.0</ele><time>2026-04-11T09:07:14Z</time></trkpt><trkpt lat="39.95696016503989" lon="9.196452507216659"><ele>779.9999999999999</ele><time>2026-04-11T09:07:15Z</time></trkpt><trkpt lat="39.957032207523156" lon="9.196458007361764"><ele>779.0</ele><time>2026-04-11T09:07:16Z</time></trkpt><trkpt lat="39.95710970659112" lon="9.19646151826248"><ele>778.0</ele><time>2026-04-11T09:07:17Z</time></trkpt><trkpt lat="39.95718919026023" lon="9.19645954773398"><ele>777.0</ele><time>2026-04-11T09:07:18Z</time></trkpt><trkpt lat="39.95726670961594" lon="9.19641297662414"><ele>775.9999999999999</ele><time>2026-04-11T09:07:19Z</time></trkpt><trkpt lat="39.95734320466218" lon="9.196417631712826"><ele>775.0</ele><time>2026-04-11T09:07:20Z</time></trkpt><trkpt lat="39.95741764269092" lon="9.196423493103968"><ele>774.9999999999999</ele><time>2026-04-11T09:07:21Z</time></trkpt><trkpt lat="39.957491413536175" lon="9.19642636429994"><ele>775.0</ele><time>2026-04-11T09:07:22Z</time></trkpt><trkpt lat="39.95756183159197" lon="9.196431702125494"><ele>775.0</ele><time>2026-04-11T09:07:23Z</time></trkpt><trkpt lat="39.957629593552255" lon="9.196449760862828"><ele>775.0</ele><time>2026-04-11T09:07:24Z</time></trkpt><trkpt lat="39.957694199081324" lon="9.196479601348488"><ele>775.0</ele><time>2026-04-11T09:07:25Z</time></trkpt><trkpt lat="39.957761664228954" lon="9.196518402392174"><ele>774.9999999999999</ele><time>2026-04-11T09:07:26Z</time></trkpt><trkpt lat="39.95782639006829" lon="9.196570104018235"><ele>775.0</ele><time>2026-04-11T09:07:27Z</time></trkpt><trkpt lat="39.95789025880295" lon="9.19662914904463"><ele>775.9999999999999</ele><time>2026-04-11T09:07:28Z</time></trkpt><trkpt lat="39.95795073530615" lon="9.19669173226539"><ele>777.0</ele><time>2026-04-11T09:07:29Z</time></trkpt><trkpt lat="39.958011709379804" lon="9.19676203503614"><ele>778.0</ele><time>2026-04-11T09:07:30Z</time></trkpt><trkpt lat="39.958074042152774" lon="9.19683466512514"><ele>779.0</ele><time>2026-04-11T09:07:31Z</time></trkpt><trkpt lat="39.95813685068781" lon="9.196905952016825"><ele>779.9999999999999</ele><time>2026-04-11T09:07:32Z</time></trkpt><trkpt lat="39.95820742421914" lon="9.196981050649"><ele>781.0</ele><time>2026-04-11T09:07:33Z</time></trkpt><trkpt lat="39.95828019687262" lon="9.197059101092758"><ele>781.0</ele><time>2026-04-11T09:07:34Z</time></trkpt><trkpt lat="39.958350442310596" lon="9.19714244395605"><ele>781.0</ele><time>2026-04-11T09:07:35Z</time></trkpt><trkpt lat="39.95842139485422" lon="9.197233525842089"><ele>781.0</ele><time>2026-04-11T09:07:36Z</time></trkpt><trkpt lat="39.95849464272828" lon="9.197325299185739"><ele>781.0</ele><time>2026-04-11T09:07:37Z</time></trkpt><trkpt lat="39.95857462824337" lon="9.19740725769294"><ele>781.0</ele><time>2026-04-11T09:07:38Z</time></trkpt><trkpt lat="39.9586610989174" lon="9.197477260555962"><ele>782.4</ele><time>2026-04-11T09:07:39Z</time></trkpt><trkpt lat="39.95875591441896" lon="9.197524940460998"><ele>783.8</ele><time>2026-04-11T09:07:40Z</time></trkpt><trkpt lat="39.95886099226919" lon="9.19752992462194"><ele>785.1999999999999</ele><time>2026-04-11T09:07:41Z</time></trkpt><trkpt lat="39.95896480763659" lon="9.19748353191909"><ele>786.5999999999999</ele><time>2026-04-11T09:07:42Z</time></trkpt><trkpt lat="39.959052248695166" lon="9.197392678307258"><ele>788.0</ele><time>2026-04-11T09:07:43Z</time></trkpt><trkpt lat="39.9591321091676" lon="9.197277304346503"><ele>790.5</ele><time>2026-04-11T09:07:44Z</time></trkpt><trkpt lat="39.959210562839324" lon="9.197152925395217"><ele>793.0</ele><time>2026-04-11T09:07:45Z</time></trkpt><trkpt lat="39.95928677782166" lon="9.19702417616643"><ele>795.5</ele><time>2026-04-11T09:07:46Z</time></trkpt><trkpt lat="39.95936735333503" lon="9.196894774284411"><ele>798.0</ele><time>2026-04-11T09:07:47Z</time></trkpt><trkpt lat="39.959451407174484" lon="9.196764174097805"><ele>798.0</ele><time>2026-04-11T09:07:48Z</time></trkpt><trkpt lat="39.95953306143892" lon="9.196627497691434"><ele>798.0</ele><time>2026-04-11T09:07:49Z</time></trkpt><trkpt lat="39.95960707431697" lon="9.196487761375902"><ele>798.0</ele><time>2026-04-11T09:07:50Z</time></trkpt><trkpt lat="39.95967210977508" lon="9.196341047396967"><ele>798.0</ele><time>2026-04-11T09:07:51Z</time></trkpt><trkpt lat="39.95971269158934" lon="9.196183973293577"><ele>796.0</ele><time>2026-04-11T09:07:52Z</time></trkpt><trkpt lat="39.959722446348955" lon="9.196019445377795"><ele>794.0</ele><time>2026-04-11T09:07:53Z</time></trkpt><trkpt lat="39.959687332675806" lon="9.195860407910287"><ele>792.0</ele><time>2026-04-11T09:07:54Z</time></trkpt><trkpt lat="39.95962203162139" lon="9.195719951831425"><ele>790.0</ele><time>2026-04-11T09:07:55Z</time></trkpt><trkpt lat="39.95954014247672" lon="9.195590099358508"><ele>790.0</ele><time>2026-04-11T09:07:56Z</time></trkpt><trkpt lat="39.95944474463858" lon="9.195465759148254"><ele>790.0</ele><time>2026-04-11T09:07:57Z</time></trkpt><trkpt lat="39.95934922648282" lon="9.195334877454295"><ele>790.0</ele><time>2026-04-11T09:07:58Z</time></trkpt><trkpt lat="39.9592566030541" lon="9.19519929057823"><ele>790.0</ele><time>2026-04-11T09:07:59Z</time></trkpt><trkpt lat="39.95917217537863" lon="9.195054796996965"><ele>788.0</ele><time>2026-04-11T09:08:00Z</time></trkpt><trkpt lat="39.959098818595116" lon="9.194898478532227"><ele>786.0</ele><time>2026-04-11T09:08:01Z</time></trkpt><trkpt lat="39.95901817103979" lon="9.194743578071721"><ele>784.0</ele><time>2026-04-11T09:08:02Z</time></trkpt><trkpt lat="39.95892419999035" lon="9.194602815811601"><ele>782.0</ele><time>2026-04-11T09:08:03Z</time></trkpt><trkpt lat="39.95882134025029" lon="9.194471262403997"><ele>782.0</ele><time>2026-04-11T09:08:04Z</time></trkpt><trkpt lat="39.958713915365735" lon="9.19434659673937"><ele>782.0</ele><time>2026-04-11T09:08:05Z</time></trkpt><trkpt lat="39.958608051888376" lon="9.194224792983906"><ele>782.0</ele><time>2026-04-11T09:08:06Z</time></trkpt><trkpt lat="39.958501099534345" lon="9.19410294520691"><ele>782.0</ele><time>2026-04-11T09:08:07Z</time></trkpt><trkpt lat="39.95839186265011" lon="9.193981544586556"><ele>779.75</ele><time>2026-04-11T09:08:08Z</time></trkpt><trkpt lat="39.958281500744384" lon="9.193863472445637"><ele>777.5</ele><time>2026-04-11T09:08:09Z</time></trkpt><trkpt lat="39.95817029305046" lon="9.193747311389412"><ele>775.25</ele><time>2026-04-11T09:08:10Z</time></trkpt><trkpt lat="39.95805970172234" lon="9.193629655571812"><ele>773.0</ele><time>2026-04-11T09:08:11Z</time></trkpt><trkpt lat="39.95794823871081" lon="9.193513618237096"><ele>773.0</ele><time>2026-04-11T09:08:12Z</time></trkpt><trkpt lat="39.95783145117396" lon="9.193404574671263"><ele>773.0</ele><time>2026-04-11T09:08:13Z</time></trkpt><trkpt lat="39.95771402752116" lon="9.19329593048086"><ele>773.0</ele><time>2026-04-11T09:08:14Z</time></trkpt><trkpt lat="39.95760902011681" lon="9.193167401028147"><ele>773.0</ele><time>2026-04-11T09:08:15Z</time></trkpt><trkpt lat="39.95752452654067" lon="9.193010669056621"><ele>766.6666666666667</ele><time>2026-04-11T09:08:16Z</time></trkpt><trkpt lat="39.95745406405279" lon="9.192826944828255"><ele>760.3333333333334</ele><time>2026-04-11T09:08:17Z</time></trkpt><trkpt lat="39.957394793220544" lon="9.192627015153535"><ele>754.0</ele><time>2026-04-11T09:08:18Z</time></trkpt><trkpt lat="39.95733305059216" lon="9.1924216760876"><ele>756.3333333333334</ele><time>2026-04-11T09:08:19Z</time></trkpt><trkpt lat="39.95726924554658" lon="9.192219724287988"><ele>758.6666666666666</ele><time>2026-04-11T09:08:20Z</time></trkpt><trkpt lat="39.957200218627285" lon="9.192039800562252"><ele>761.0</ele><time>2026-04-11T09:08:21Z</time></trkpt><trkpt lat="39.957101191017316" lon="9.191883405833517"><ele>761.0</ele><time>2026-04-11T09:08:22Z</time></trkpt><trkpt lat="39.95697814764352" lon="9.191767952649126"><ele>761.0</ele><time>2026-04-11T09:08:23Z</time></trkpt><trkpt lat="39.9568484727456" lon="9.191693413005057"><ele>761.0</ele><time>2026-04-11T09:08:24Z</time></trkpt><trkpt lat="39.95673030289586" lon="9.191631252280294"><ele>761.0</ele><time>2026-04-11T09:08:25Z</time></trkpt><trkpt lat="39.95664123765095" lon="9.191538817589866"><ele>755.5</ele><time>2026-04-11T09:08:26Z</time></trkpt><trkpt lat="39.956585066905326" lon="9.191408636831481"><ele>750.0</ele><time>2026-04-11T09:08:27Z</time></trkpt><trkpt lat="39.9565706254645" lon="9.191251311657599"><ele>744.5</ele><time>2026-04-11T09:08:28Z</time></trkpt><trkpt lat="39.9566019808186" lon="9.191080069427343"><ele>739.0</ele><time>2026-04-11T09:08:29Z</time></trkpt><trkpt lat="39.956648685163955" lon="9.190929636825745"><ele>739.0</ele><time>2026-04-11T09:08:30Z</time></trkpt><trkpt lat="39.95666978668708" lon="9.190790333350524"><ele>739.0</ele><time>2026-04-11T09:08:31Z</time></trkpt><trkpt lat="39.95664299172685" lon="9.190657445111636"><ele>739.0</ele><time>2026-04-11T09:08:32Z</time></trkpt><trkpt lat="39.95657480631962" lon="9.190544544766588"><ele>739.0</ele><time>2026-04-11T09:08:33Z</time></trkpt><trkpt lat="39.95649982796587" lon="9.19043400362926"><ele>739.0</ele><time>2026-04-11T09:08:34Z</time></trkpt><trkpt lat="39.95646287194104" lon="9.190293470274764"><ele>740.25</ele><time>2026-04-11T09:08:35Z</time></trkpt><trkpt lat="39.956473289896515" lon="9.190125317310976"><ele>741.5</ele><time>2026-04-11T09:08:36Z</time></trkpt><trkpt lat="39.956435413308235" lon="9.18996798124766"><ele>742.75</ele><time>2026-04-11T09:08:37Z</time></trkpt><trkpt lat="39.95638888580355" lon="9.189818976865476"><ele>744.0</ele><time>2026-04-11T09:08:38Z</time></trkpt><trkpt lat="39.956347340613384" lon="9.189668778211116"><ele>744.0</ele><time>2026-04-11T09:08:39Z</time></trkpt><trkpt lat="39.95632557357773" lon="9.189496773749198"><ele>744.0</ele><time>2026-04-11T09:08:40Z</time></trkpt><trkpt lat="39.95631632585" lon="9.189315879229255"><ele>744.0</ele><time>2026-04-11T09:08:41Z</time></trkpt><trkpt lat="39.95631030982075" lon="9.189098360386373"><ele>744.0</ele><time>2026-04-11T09:08:42Z</time></trkpt><trkpt lat="39.95632549411414" lon="9.18884614531882"><ele>744.0</ele><time>2026-04-11T09:08:43Z</time></trkpt><trkpt lat="39.95630009842795" lon="9.188571643013997"><ele>744.0</ele><time>2026-04-11T09:08:44Z</time></trkpt><trkpt lat="39.9562771771365" lon="9.188303852091686"><ele>744.0</ele><time>2026-04-11T09:08:45Z</time></trkpt><trkpt lat="39.95623532326759" lon="9.18805060805994"><ele>744.0</ele><time>2026-04-11T09:08:46Z</time></trkpt><trkpt lat="39.95619908506671" lon="9.187807517059817"><ele>744.0</ele><time>2026-04-11T09:08:47Z</time></trkpt><trkpt lat="39.95611731698055" lon="9.187593505837238"><ele>744.0</ele><time>2026-04-11T09:08:48Z</time></trkpt><trkpt lat="39.956057905806816" lon="9.187384149730855"><ele>743.3333333333334</ele><time>2026-04-11T09:08:49Z</time></trkpt><trkpt lat="39.95601769032924" lon="9.187176975219879"><ele>742.6666666666667</ele><time>2026-04-11T09:08:50Z</time></trkpt><trkpt lat="39.95600503038461" lon="9.186952191239289"><ele>742.0</ele><time>2026-04-11T09:08:51Z</time></trkpt><trkpt lat="39.956023746047045" lon="9.186747114428742"><ele>742.0</ele><time>2026-04-11T09:08:52Z</time></trkpt><trkpt lat="39.956076273701115" lon="9.186541766091745"><ele>742.0</ele><time>2026-04-11T09:08:53Z</time></trkpt><trkpt lat="39.956135846405395" lon="9.186354761239025"><ele>742.0</ele><time>2026-04-11T09:08:54Z</time></trkpt><trkpt lat="39.95616896219719" lon="9.186170107352845"><ele>741.5</ele><time>2026-04-11T09:08:55Z</time></trkpt><trkpt lat="39.9561671735194" lon="9.185994165123475"><ele>741.0</ele><time>2026-04-11T09:08:56Z</time></trkpt><trkpt lat="39.95611448823329" lon="9.185822685418831"><ele>740.5</ele><time>2026-04-11T09:08:57Z</time></trkpt><trkpt lat="39.95604447664559" lon="9.18564544668068"><ele>740.0</ele><time>2026-04-11T09:08:58Z</time></trkpt><trkpt lat="39.95600304580189" lon="9.185457370195362"><ele>738.25</ele><time>2026-04-11T09:08:59Z</time></trkpt><trkpt lat="39.95599877708169" lon="9.185281690468777"><ele>736.5</ele><time>2026-04-11T09:09:00Z</time></trkpt><trkpt lat="39.95599452383894" lon="9.185127939469423"><ele>734.75</ele><time>2026-04-11T09:09:01Z</time></trkpt><trkpt lat="39.95597802398052" lon="9.18498911901878"><ele>733.0</ele><time>2026-04-11T09:09:02Z</time></trkpt><trkpt lat="39.95596048899931" lon="9.184855723568301"><ele>730.2</ele><time>2026-04-11T09:09:03Z</time></trkpt><trkpt lat="39.95594215951924" lon="9.184721522862452"><ele>727.4</ele><time>2026-04-11T09:09:04Z</time></trkpt><trkpt lat="39.95593374781466" lon="9.184592563228293"><ele>724.6</ele><time>2026-04-11T09:09:05Z</time></trkpt><trkpt lat="39.955973661550274" lon="9.184468018301416"><ele>721.8000000000001</ele><time>2026-04-11T09:09:06Z</time></trkpt><trkpt lat="39.956017574521375" lon="9.184344676177309"><ele>719.0</ele><time>2026-04-11T09:09:07Z</time></trkpt><trkpt lat="39.956058019789175" lon="9.184216094266674"><ele>719.0</ele><time>2026-04-11T09:09:08Z</time></trkpt><trkpt lat="39.95614434126926" lon="9.184128869560773"><ele>719.0</ele><time>2026-04-11T09:09:09Z</time></trkpt><trkpt lat="39.95622790029807" lon="9.184056593394905"><ele>719.0</ele><time>2026-04-11T09:09:10Z</time></trkpt><trkpt lat="39.95630519434754" lon="9.183977457879505"><ele>719.0</ele><time>2026-04-11T09:09:11Z</time></trkpt><trkpt lat="39.95638603699059" lon="9.183913059447972"><ele>719.0</ele><time>2026-04-11T09:09:12Z</time></trkpt><trkpt lat="39.95645443387976" lon="9.183814205472236"><ele>716.6</ele><time>2026-04-11T09:09:13Z</time></trkpt><trkpt lat="39.956504273882274" lon="9.183695201500838"><ele>714.2</ele><time>2026-04-11T09:09:14Z</time></trkpt><trkpt lat="39.95653287943541" lon="9.18357575976001"><ele>711.8000000000001</ele><time>2026-04-11T09:09:15Z</time></trkpt><trkpt lat="39.95654626621061" lon="9.183442838303728"><ele>709.4000000000001</ele><time>2026-04-11T09:09:16Z</time></trkpt><trkpt lat="39.9565503752904" lon="9.183303994565078"><ele>707.0</ele><time>2026-04-11T09:09:17Z</time></trkpt><trkpt lat="39.95654689485011" lon="9.183171830292581"><ele>705.4000000000001</ele><time>2026-04-11T09:09:18Z</time></trkpt><trkpt lat="39.95652888897405" lon="9.183041190452894"><ele>703.8000000000001</ele><time>2026-04-11T09:09:19Z</time></trkpt><trkpt lat="39.95649794803761" lon="9.182922178876206"><ele>702.2</ele><time>2026-04-11T09:09:20Z</time></trkpt><trkpt lat="39.9564668818794" lon="9.182812795261718"><ele>700.6</ele><time>2026-04-11T09:09:21Z</time></trkpt><trkpt lat="39.95644543972109" lon="9.182710097088885"><ele>699.0</ele><time>2026-04-11T09:09:22Z</time></trkpt><trkpt lat="39.956441244181555" lon="9.182603236139569"><ele>699.0</ele><time>2026-04-11T09:09:23Z</time></trkpt><trkpt lat="39.9564631213077" lon="9.182494005375561"><ele>699.0</ele><time>2026-04-11T09:09:24Z</time></trkpt><trkpt lat="39.95651589434927" lon="9.18238606785724"><ele>699.0</ele><time>2026-04-11T09:09:25Z</time></trkpt><trkpt lat="39.95659087743402" lon="9.18229728268837"><ele>699.0</ele><time>2026-04-11T09:09:26Z</time></trkpt><trkpt lat="39.95666286918192" lon="9.18222793999242"><ele>699.0</ele><time>2026-04-11T09:09:27Z</time></trkpt><trkpt lat="39.95674041555525" lon="9.182162002778286"><ele>696.6</ele><time>2026-04-11T09:09:28Z</time></trkpt><trkpt lat="39.95681747727402" lon="9.18209735804443"><ele>694.2</ele><time>2026-04-11T09:09:29Z</time></trkpt><trkpt lat="39.95689540158541" lon="9.182028996206244"><ele>691.8000000000001</ele><time>2026-04-11T09:09:30Z</time></trkpt><trkpt lat="39.956974699294804" lon="9.181961079290366"><ele>689.4000000000001</ele><time>2026-04-11T09:09:31Z</time></trkpt><trkpt lat="39.95705313151349" lon="9.181893373137656"><ele>687.0</ele><time>2026-04-11T09:09:32Z</time></trkpt><trkpt lat="39.9571278271975" lon="9.18184099599189"><ele>687.0</ele><time>2026-04-11T09:09:33Z</time></trkpt><trkpt lat="39.95720532047681" lon="9.18181151623996"><ele>687.0</ele><time>2026-04-11T09:09:34Z</time></trkpt><trkpt lat="39.95728648953229" lon="9.181804288146818"><ele>687.0</ele><time>2026-04-11T09:09:35Z</time></trkpt><trkpt lat="39.95736275797206" lon="9.181829500166316"><ele>687.0</ele><time>2026-04-11T09:09:36Z</time></trkpt><trkpt lat="39.957428887243275" lon="9.181872549913924"><ele>687.0</ele><time>2026-04-11T09:09:37Z</time></trkpt><trkpt lat="39.957485965650996" lon="9.181926465565233"><ele>687.0</ele><time>2026-04-11T09:09:38Z</time></trkpt><trkpt lat="39.957532416761126" lon="9.181991045727688"><ele>685.0</ele><time>2026-04-11T09:09:39Z</time></trkpt><trkpt lat="39.95756563765167" lon="9.182066745135545"><ele>683.0</ele><time>2026-04-11T09:09:40Z</time></trkpt><trkpt lat="39.95759238703241" lon="9.182146645057692"><ele>681.0</ele><time>2026-04-11T09:09:41Z</time></trkpt><trkpt lat="39.957619317352474" lon="9.182222953212612"><ele>679.0</ele><time>2026-04-11T09:09:42Z</time></trkpt><trkpt lat="39.957642391542144" lon="9.182302749048551"><ele>677.0</ele><time>2026-04-11T09:09:43Z</time></trkpt><trkpt lat="39.957663027978164" lon="9.1823848124876"><ele>675.0</ele><time>2026-04-11T09:09:44Z</time></trkpt><trkpt lat="39.957693503228775" lon="9.182466717649659"><ele>673.0</ele><time>2026-04-11T09:09:45Z</time></trkpt><trkpt lat="39.95773359119932" lon="9.182545992936513"><ele>673.0</ele><time>2026-04-11T09:09:46Z</time></trkpt><trkpt lat="39.95779767821" lon="9.182610353343575"><ele>673.0</ele><time>2026-04-11T09:09:47Z</time></trkpt><trkpt lat="39.957877915720616" lon="9.182668771338456"><ele>673.0</ele><time>2026-04-11T09:09:48Z</time></trkpt><trkpt lat="39.95795599795699" lon="9.182732123937207"><ele>673.0</ele><time>2026-04-11T09:09:49Z</time></trkpt><trkpt lat="39.95803088154541" lon="9.18279866441568"><ele>673.0</ele><time>2026-04-11T09:09:50Z</time></trkpt><trkpt lat="39.958098812432745" lon="9.182881384335621"><ele>673.0</ele><time>2026-04-11T09:09:51Z</time></trkpt><trkpt lat="39.95815796889779" lon="9.182983135187694"><ele>673.0</ele><time>2026-04-11T09:09:52Z</time></trkpt><trkpt lat="39.95822404173115" lon="9.183078791005123"><ele>673.0</ele><time>2026-04-11T09:09:53Z</time></trkpt><trkpt lat="39.958294634951166" lon="9.183167901983774"><ele>673.0</ele><time>2026-04-11T09:09:54Z</time></trkpt><trkpt lat="39.9583943607442" lon="9.183231903000204"><ele>673.0</ele><time>2026-04-11T09:09:55Z</time></trkpt><trkpt lat="39.95849412004759" lon="9.183254634513617"><ele>673.0</ele><time>2026-04-11T09:09:56Z</time></trkpt><trkpt lat="39.958582778225704" lon="9.183286650572638"><ele>673.4</ele><time>2026-04-11T09:09:57Z</time></trkpt><trkpt lat="39.95867265905137" lon="9.183306140709965"><ele>673.8</ele><time>2026-04-11T09:09:58Z</time></trkpt><trkpt lat="39.958762003880736" lon="9.183319715876488"><ele>674.2</ele><time>2026-04-11T09:09:59Z</time></trkpt><trkpt lat="39.958857280674295" lon="9.183322147709642"><ele>674.6</ele><time>2026-04-11T09:10:00Z</time></trkpt><trkpt lat="39.958953585437385" lon="9.183314601484378"><ele>675.0</ele><time>2026-04-11T09:10:01Z</time></trkpt><trkpt lat="39.959047919515875" lon="9.18331441664957"><ele>675.0</ele><time>2026-04-11T09:10:02Z</time></trkpt><trkpt lat="39.959132122869164" lon="9.183332312329537"><ele>675.0</ele><time>2026-04-11T09:10:03Z</time></trkpt><trkpt lat="39.95920717554225" lon="9.183366200455229"><ele>675.0</ele><time>2026-04-11T09:10:04Z</time></trkpt><trkpt lat="39.95927409925084" lon="9.183419763688697"><ele>675.0</ele><time>2026-04-11T09:10:05Z</time></trkpt><trkpt lat="39.9593371057054" lon="9.183473532378073"><ele>675.0</ele><time>2026-04-11T09:10:06Z</time></trkpt><trkpt lat="39.9594090548209" lon="9.183525448583737"><ele>675.0</ele><time>2026-04-11T09:10:07Z</time></trkpt><trkpt lat="39.95948644771881" lon="9.183560617568544"><ele>672.6666666666666</ele><time>2026-04-11T09:10:08Z</time></trkpt><trkpt lat="39.959550421462936" lon="9.183587921818509"><ele>670.3333333333334</ele><time>2026-04-11T09:10:09Z</time></trkpt><trkpt lat="39.95963566043525" lon="9.18364044877311"><ele>668.0</ele><time>2026-04-11T09:10:11Z</time></trkpt><trkpt lat="39.9597114883167" lon="9.18366728039825"><ele>665.6666666666667</ele><time>2026-04-11T09:10:13Z</time></trkpt><trkpt lat="39.95981073895263" lon="9.18373022596002"><ele>663.3333333333334</ele><time>2026-04-11T09:10:15Z</time></trkpt><trkpt lat="39.95986781772103" lon="9.183773010992837"><ele>661.0</ele><time>2026-04-11T09:10:16Z</time></trkpt><trkpt lat="39.95992339271792" lon="9.18383526807287"><ele>661.0</ele><time>2026-04-11T09:10:17Z</time></trkpt><trkpt lat="39.959981272522725" lon="9.183914952619077"><ele>661.0</ele><time>2026-04-11T09:10:18Z</time></trkpt><trkpt lat="39.96004158433315" lon="9.184008782961888"><ele>661.0</ele><time>2026-04-11T09:10:19Z</time></trkpt><trkpt lat="39.96009999489138" lon="9.18411099961114"><ele>661.0</ele><time>2026-04-11T09:10:20Z</time></trkpt><trkpt lat="39.96015557263032" lon="9.184194690130283"><ele>661.0</ele><time>2026-04-11T09:10:21Z</time></trkpt><trkpt lat="39.96021941157994" lon="9.184258427366618"><ele>661.0</ele><time>2026-04-11T09:10:22Z</time></trkpt><trkpt lat="39.96028405742995" lon="9.184302676779163"><ele>661.1666666666667</ele><time>2026-04-11T09:10:23Z</time></trkpt><trkpt lat="39.96036700837411" lon="9.184321232238464"><ele>661.3333333333334</ele><time>2026-04-11T09:10:24Z</time></trkpt><trkpt lat="39.960453930232575" lon="9.184333094884371"><ele>661.5</ele><time>2026-04-11T09:10:25Z</time></trkpt><trkpt lat="39.96054505309634" lon="9.184351027090113"><ele>661.6666666666666</ele><time>2026-04-11T09:10:26Z</time></trkpt><trkpt lat="39.960638040367556" lon="9.184364058315358"><ele>661.8333333333333</ele><time>2026-04-11T09:10:27Z</time></trkpt><trkpt lat="39.960723136537375" lon="9.184396044286965"><ele>662.0</ele><time>2026-04-11T09:10:28Z</time></trkpt><trkpt lat="39.96079627837983" lon="9.184447794053904"><ele>662.0</ele><time>2026-04-11T09:10:29Z</time></trkpt><trkpt lat="39.9608627195798" lon="9.184490388275806"><ele>662.0</ele><time>2026-04-11T09:10:30Z</time></trkpt><trkpt lat="39.96092334020653" lon="9.18452738803286"><ele>662.0</ele><time>2026-04-11T09:10:31Z</time></trkpt><trkpt lat="39.96098798069588" lon="9.184544397232731"><ele>662.0</ele><time>2026-04-11T09:10:32Z</time></trkpt><trkpt lat="39.96109745626907" lon="9.184614893338235"><ele>662.0</ele><time>2026-04-11T09:10:34Z</time></trkpt><trkpt lat="39.961190033464646" lon="9.184676556113976"><ele>662.0</ele><time>2026-04-11T09:10:36Z</time></trkpt><trkpt lat="39.961268670003825" lon="9.184728835114722"><ele>662.8333333333333</ele><time>2026-04-11T09:10:38Z</time></trkpt><trkpt lat="39.96133364194914" lon="9.18475666643155"><ele>663.6666666666666</ele><time>2026-04-11T09:10:41Z</time></trkpt><trkpt lat="39.9613838061295" lon="9.184808918896675"><ele>664.5</ele><time>2026-04-11T09:10:43Z</time></trkpt><trkpt lat="39.961456663385775" lon="9.184852109742328"><ele>665.3333333333334</ele><time>2026-04-11T09:10:45Z</time></trkpt><trkpt lat="39.96154360308334" lon="9.184904024227572"><ele>666.1666666666667</ele><time>2026-04-11T09:10:48Z</time></trkpt><trkpt lat="39.96161398724426" lon="9.184981785954378"><ele>667.0</ele><time>2026-04-11T09:10:50Z</time></trkpt><trkpt lat="39.961694739207566" lon="9.184936932202628"><ele>666.8</ele><time>2026-04-11T09:10:51Z</time></trkpt><trkpt lat="39.9617847735331" lon="9.184945809754069"><ele>666.6</ele><time>2026-04-11T09:10:53Z</time></trkpt><trkpt lat="39.96186413682692" lon="9.1849327749469"><ele>666.4</ele><time>2026-04-11T09:10:54Z</time></trkpt><trkpt lat="39.96196027960453" lon="9.184946119169574"><ele>666.1999999999999</ele><time>2026-04-11T09:10:55Z</time></trkpt><trkpt lat="39.962076603494964" lon="9.184967483241374"><ele>666.0</ele><time>2026-04-11T09:10:56Z</time></trkpt><trkpt lat="39.96220054323672" lon="9.184968747507002"><ele>666.0</ele><time>2026-04-11T09:10:57Z</time></trkpt><trkpt lat="39.96233916905791" lon="9.184960772553568"><ele>666.0</ele><time>2026-04-11T09:10:58Z</time></trkpt><trkpt lat="39.962479782279" lon="9.184949600368972"><ele>666.0</ele><time>2026-04-11T09:10:59Z</time></trkpt><trkpt lat="39.96261559135336" lon="9.184920388935197"><ele>666.0</ele><time>2026-04-11T09:11:00Z</time></trkpt><trkpt lat="39.9627419048712" lon="9.184854873110437"><ele>662.0</ele><time>2026-04-11T09:11:01Z</time></trkpt><trkpt lat="39.96285377404421" lon="9.184762653951136"><ele>658.0</ele><time>2026-04-11T09:11:02Z</time></trkpt><trkpt lat="39.96296421798815" lon="9.18466917511509"><ele>654.0</ele><time>2026-04-11T09:11:03Z</time></trkpt><trkpt lat="39.96305145281989" lon="9.184546823740938"><ele>650.0</ele><time>2026-04-11T09:11:04Z</time></trkpt><trkpt lat="39.96314591132494" lon="9.18445306738908"><ele>650.0</ele><time>2026-04-11T09:11:05Z</time></trkpt><trkpt lat="39.963245290976445" lon="9.184368363637718"><ele>650.0</ele><time>2026-04-11T09:11:06Z</time></trkpt><trkpt lat="39.96337361059034" lon="9.184366869874273"><ele>650.0</ele><time>2026-04-11T09:11:07Z</time></trkpt><trkpt lat="39.963489880610695" lon="9.184334170822325"><ele>650.0</ele><time>2026-04-11T09:11:08Z</time></trkpt><trkpt lat="39.963604803982435" lon="9.18431565652695"><ele>650.4</ele><time>2026-04-11T09:11:09Z</time></trkpt><trkpt lat="39.963719080222916" lon="9.184317096618832"><ele>650.8</ele><time>2026-04-11T09:11:10Z</time></trkpt><trkpt lat="39.96382759999654" lon="9.18430172720332"><ele>651.2</ele><time>2026-04-11T09:11:11Z</time></trkpt><trkpt lat="39.96393215586691" lon="9.18427361135169"><ele>651.6</ele><time>2026-04-11T09:11:12Z</time></trkpt><trkpt lat="39.96403172625791" lon="9.184306017445577"><ele>652.0</ele><time>2026-04-11T09:11:13Z</time></trkpt><trkpt lat="39.964127416525876" lon="9.184384886674161"><ele>651.75</ele><time>2026-04-11T09:11:14Z</time></trkpt><trkpt lat="39.96423982016365" lon="9.184415786425484"><ele>651.5</ele><time>2026-04-11T09:11:15Z</time></trkpt><trkpt lat="39.96437627883698" lon="9.18440157621229"><ele>651.25</ele><time>2026-04-11T09:11:16Z</time></trkpt><trkpt lat="39.96448735067522" lon="9.184309508993959"><ele>651.0</ele><time>2026-04-11T09:11:17Z</time></trkpt><trkpt lat="39.96460288570297" lon="9.1842765102311"><ele>651.0</ele><time>2026-04-11T09:11:18Z</time></trkpt><trkpt lat="39.96471221715379" lon="9.18425266862661"><ele>651.0</ele><time>2026-04-11T09:11:19Z</time></trkpt><trkpt lat="39.96483057446705" lon="9.184308227677228"><ele>651.0</ele><time>2026-04-11T09:11:20Z</time></trkpt><trkpt lat="39.96495146520231" lon="9.184360096208886"><ele>651.0</ele><time>2026-04-11T09:11:21Z</time></trkpt><trkpt lat="39.96508544755283" lon="9.184357468740806"><ele>649.5</ele><time>2026-04-11T09:11:22Z</time></trkpt><trkpt lat="39.965218050465865" lon="9.184314438232809"><ele>648.0</ele><time>2026-04-11T09:11:23Z</time></trkpt><trkpt lat="39.96535027160662" lon="9.184264541967327"><ele>646.5</ele><time>2026-04-11T09:11:24Z</time></trkpt><trkpt lat="39.96547854469608" lon="9.184220977031652"><ele>645.0</ele><time>2026-04-11T09:11:25Z</time></trkpt><trkpt lat="39.96560626184266" lon="9.184205629055405"><ele>645.0</ele><time>2026-04-11T09:11:26Z</time></trkpt><trkpt lat="39.965728293673045" lon="9.184253755322235"><ele>645.0</ele><time>2026-04-11T09:11:27Z</time></trkpt><trkpt lat="39.96586160997767" lon="9.184318859230448"><ele>645.0</ele><time>2026-04-11T09:11:28Z</time></trkpt><trkpt lat="39.965987474762045" lon="9.184405009565609"><ele>645.0</ele><time>2026-04-11T09:11:29Z</time></trkpt><trkpt lat="39.966111860723" lon="9.184491555424554"><ele>645.0</ele><time>2026-04-11T09:11:30Z</time></trkpt><trkpt lat="39.966226606278084" lon="9.184611794681334"><ele>645.0</ele><time>2026-04-11T09:11:31Z</time></trkpt><trkpt lat="39.96631550250421" lon="9.184766243618748"><ele>645.0</ele><time>2026-04-11T09:11:32Z</time></trkpt><trkpt lat="39.96639976591618" lon="9.184930487857537"><ele>645.0</ele><time>2026-04-11T09:11:33Z</time></trkpt><trkpt lat="39.96648742169132" lon="9.185094697220306"><ele>645.0</ele><time>2026-04-11T09:11:34Z</time></trkpt><trkpt lat="39.96655762103267" lon="9.185258010043086"><ele>645.0</ele><time>2026-04-11T09:11:35Z</time></trkpt><trkpt lat="39.966597526744344" lon="9.185428508315828"><ele>645.0</ele><time>2026-04-11T09:11:36Z</time></trkpt><trkpt lat="39.96662603252445" lon="9.1855858492213"><ele>645.0</ele><time>2026-04-11T09:11:37Z</time></trkpt><trkpt lat="39.96669802052018" lon="9.185724255889616"><ele>641.5</ele><time>2026-04-11T09:11:38Z</time></trkpt><trkpt lat="39.966805362611" lon="9.185843527406988"><ele>638.0</ele><time>2026-04-11T09:11:39Z</time></trkpt><trkpt lat="39.966897158233884" lon="9.185974501942603"><ele>634.5</ele><time>2026-04-11T09:11:40Z</time></trkpt><trkpt lat="39.96695682862583" lon="9.186121910329328"><ele>631.0</ele><time>2026-04-11T09:11:41Z</time></trkpt><trkpt lat="39.966986835316476" lon="9.186289996839218"><ele>631.0</ele><time>2026-04-11T09:11:42Z</time></trkpt><trkpt lat="39.96698167558838" lon="9.186457953946343"><ele>631.0</ele><time>2026-04-11T09:11:43Z</time></trkpt><trkpt lat="39.96697212539395" lon="9.186601465735716"><ele>631.0</ele><time>2026-04-11T09:11:44Z</time></trkpt><trkpt lat="39.96701391935615" lon="9.18671845470617"><ele>631.0</ele><time>2026-04-11T09:11:45Z</time></trkpt><trkpt lat="39.96710277327528" lon="9.186780062894664"><ele>631.0</ele><time>2026-04-11T09:11:46Z</time></trkpt><trkpt lat="39.96721750735029" lon="9.18678884091083"><ele>632.25</ele><time>2026-04-11T09:11:47Z</time></trkpt><trkpt lat="39.967351291458165" lon="9.186768710323516"><ele>633.5</ele><time>2026-04-11T09:11:48Z</time></trkpt><trkpt lat="39.96747033121245" lon="9.186724528766838"><ele>634.75</ele><time>2026-04-11T09:11:49Z</time></trkpt><trkpt lat="39.96757983444133" lon="9.18668739785908"><ele>636.0</ele><time>2026-04-11T09:11:50Z</time></trkpt><trkpt lat="39.96767710419175" lon="9.186720613738776"><ele>631.75</ele><time>2026-04-11T09:11:51Z</time></trkpt><trkpt lat="39.96774736075582" lon="9.18681855999059"><ele>627.5</ele><time>2026-04-11T09:11:52Z</time></trkpt><trkpt lat="39.96777061328996" lon="9.186968664196781"><ele>623.25</ele><time>2026-04-11T09:11:53Z</time></trkpt><trkpt lat="39.96774347619503" lon="9.187138550496037"><ele>619.0</ele><time>2026-04-11T09:11:54Z</time></trkpt><trkpt lat="39.96768542720765" lon="9.18730278748179"><ele>618.0</ele><time>2026-04-11T09:11:55Z</time></trkpt><trkpt lat="39.96762669883469" lon="9.187476256187795"><ele>617.0</ele><time>2026-04-11T09:11:56Z</time></trkpt><trkpt lat="39.9675622175373" lon="9.187652969646432"><ele>616.0</ele><time>2026-04-11T09:11:57Z</time></trkpt><trkpt lat="39.967473106846626" lon="9.187810586097259"><ele>615.0</ele><time>2026-04-11T09:11:58Z</time></trkpt><trkpt lat="39.96735569598007" lon="9.187940087329237"><ele>618.3333333333334</ele><time>2026-04-11T09:11:59Z</time></trkpt><trkpt lat="39.967214049661905" lon="9.18802829567962"><ele>621.6666666666667</ele><time>2026-04-11T09:12:00Z</time></trkpt><trkpt lat="39.96707429978879" lon="9.18810683737867"><ele>625.0</ele><time>2026-04-11T09:12:01Z</time></trkpt><trkpt lat="39.96695344663266" lon="9.188228372232572"><ele>625.0</ele><time>2026-04-11T09:12:02Z</time></trkpt><trkpt lat="39.96686882787308" lon="9.188388927092706"><ele>625.0</ele><time>2026-04-11T09:12:03Z</time></trkpt><trkpt lat="39.96681490902499" lon="9.188566561027196"><ele>625.0</ele><time>2026-04-11T09:12:04Z</time></trkpt><trkpt lat="39.96675971997607" lon="9.188733379176197"><ele>625.0</ele><time>2026-04-11T09:12:05Z</time></trkpt><trkpt lat="39.966658586128446" lon="9.188851829502163"><ele>631.3333333333334</ele><time>2026-04-11T09:12:06Z</time></trkpt><trkpt lat="39.96651294357667" lon="9.188906900867458"><ele>637.6666666666666</ele><time>2026-04-11T09:12:07Z</time></trkpt><trkpt lat="39.966358483240654" lon="9.188935173879315"><ele>644.0</ele><time>2026-04-11T09:12:08Z</time></trkpt><trkpt lat="39.96620198400866" lon="9.18898894824347"><ele>642.75</ele><time>2026-04-11T09:12:09Z</time></trkpt><trkpt lat="39.96605777123829" lon="9.189082996052798"><ele>641.5</ele><time>2026-04-11T09:12:10Z</time></trkpt><trkpt lat="39.965938527980754" lon="9.189171665417444"><ele>640.25</ele><time>2026-04-11T09:12:11Z</time></trkpt><trkpt lat="39.96586399077879" lon="9.189257903071345"><ele>639.0</ele><time>2026-04-11T09:12:12Z</time></trkpt><trkpt lat="39.965845950637686" lon="9.189374305742408"><ele>636.25</ele><time>2026-04-11T09:12:13Z</time></trkpt><trkpt lat="39.96586462019682" lon="9.189492291693384"><ele>633.5</ele><time>2026-04-11T09:12:14Z</time></trkpt><trkpt lat="39.965973908765875" lon="9.189547149681994"><ele>630.75</ele><time>2026-04-11T09:12:15Z</time></trkpt><trkpt lat="39.96608964445641" lon="9.189558404776575"><ele>628.0</ele><time>2026-04-11T09:12:16Z</time></trkpt><trkpt lat="39.96621550737614" lon="9.189564848757145"><ele>628.0</ele><time>2026-04-11T09:12:17Z</time></trkpt><trkpt lat="39.96635441671345" lon="9.189585368355829"><ele>628.0</ele><time>2026-04-11T09:12:18Z</time></trkpt><trkpt lat="39.966498227454004" lon="9.189621703201743"><ele>628.0</ele><time>2026-04-11T09:12:19Z</time></trkpt><trkpt lat="39.96664238088915" lon="9.189688319902467"><ele>628.0</ele><time>2026-04-11T09:12:20Z</time></trkpt><trkpt lat="39.96678137131664" lon="9.189802307282207"><ele>625.3333333333334</ele><time>2026-04-11T09:12:21Z</time></trkpt><trkpt lat="39.96691113222041" lon="9.189943922181286"><ele>622.6666666666666</ele><time>2026-04-11T09:12:22Z</time></trkpt><trkpt lat="39.9670673745931" lon="9.190028879837202"><ele>620.0</ele><time>2026-04-11T09:12:23Z</time></trkpt><trkpt lat="39.967232480364366" lon="9.190037874169116"><ele>620.0</ele><time>2026-04-11T09:12:24Z</time></trkpt><trkpt lat="39.96738206412603" lon="9.190085019486858"><ele>620.0</ele><time>2026-04-11T09:12:25Z</time></trkpt><trkpt lat="39.96750540471098" lon="9.190207875493178"><ele>620.0</ele><time>2026-04-11T09:12:26Z</time></trkpt><trkpt lat="39.96762163013442" lon="9.19035406896718"><ele>618.75</ele><time>2026-04-11T09:12:27Z</time></trkpt><trkpt lat="39.967753335792295" lon="9.190476652688906"><ele>617.5</ele><time>2026-04-11T09:12:28Z</time></trkpt><trkpt lat="39.967875670985464" lon="9.190580831000442"><ele>616.25</ele><time>2026-04-11T09:12:29Z</time></trkpt><trkpt lat="39.967987912375776" lon="9.190636883873948"><ele>615.0</ele><time>2026-04-11T09:12:30Z</time></trkpt><trkpt lat="39.96809078164107" lon="9.190626368255595"><ele>615.0</ele><time>2026-04-11T09:12:31Z</time></trkpt><trkpt lat="39.968178578849056" lon="9.190537185600224"><ele>615.0</ele><time>2026-04-11T09:12:32Z</time></trkpt><trkpt lat="39.96823200464579" lon="9.190391830589851"><ele>615.0</ele><time>2026-04-11T09:12:33Z</time></trkpt><trkpt lat="39.96828025247002" lon="9.190228299075983"><ele>615.0</ele><time>2026-04-11T09:12:34Z</time></trkpt><trkpt lat="39.96835640407662" lon="9.190074584230839"><ele>614.3333333333334</ele><time>2026-04-11T09:12:35Z</time></trkpt><trkpt lat="39.96846276646937" lon="9.189927341062191"><ele>613.6666666666667</ele><time>2026-04-11T09:12:36Z</time></trkpt><trkpt lat="39.96857983875633" lon="9.189772600175514"><ele>613.0</ele><time>2026-04-11T09:12:37Z</time></trkpt><trkpt lat="39.96870471978436" lon="9.189610472924825"><ele>613.0</ele><time>2026-04-11T09:12:38Z</time></trkpt><trkpt lat="39.96883385536821" lon="9.189471287841542"><ele>613.0</ele><time>2026-04-11T09:12:39Z</time></trkpt><trkpt lat="39.96898598883279" lon="9.189358670714618"><ele>613.0</ele><time>2026-04-11T09:12:40Z</time></trkpt><trkpt lat="39.96914404966546" lon="9.18926936443584"><ele>612.6666666666667</ele><time>2026-04-11T09:12:41Z</time></trkpt><trkpt lat="39.96930894499843" lon="9.189242329572407"><ele>612.3333333333334</ele><time>2026-04-11T09:12:42Z</time></trkpt><trkpt lat="39.969474725651445" lon="9.189249538816686"><ele>612.0</ele><time>2026-04-11T09:12:43Z</time></trkpt><trkpt lat="39.969653391141485" lon="9.189263481847002"><ele>612.0</ele><time>2026-04-11T09:12:44Z</time></trkpt><trkpt lat="39.969834175267884" lon="9.189299891141044"><ele>612.0</ele><time>2026-04-11T09:12:45Z</time></trkpt><trkpt lat="39.97001173956487" lon="9.189298804186416"><ele>612.0</ele><time>2026-04-11T09:12:46Z</time></trkpt><trkpt lat="39.970189547044086" lon="9.189246219714898"><ele>612.3333333333334</ele><time>2026-04-11T09:12:47Z</time></trkpt><trkpt lat="39.970362123938266" lon="9.189141293330334"><ele>612.6666666666667</ele><time>2026-04-11T09:12:48Z</time></trkpt><trkpt lat="39.970531637239944" lon="9.189030452602582"><ele>613.0</ele><time>2026-04-11T09:12:49Z</time></trkpt><trkpt lat="39.97068234281928" lon="9.188954335747761"><ele>614.0</ele><time>2026-04-11T09:12:50Z</time></trkpt><trkpt lat="39.97082166833266" lon="9.188936724623613"><ele>615.0</ele><time>2026-04-11T09:12:51Z</time></trkpt><trkpt lat="39.97093933462307" lon="9.188983108154547"><ele>616.0</ele><time>2026-04-11T09:12:52Z</time></trkpt><trkpt lat="39.97101979855203" lon="9.189117078816357"><ele>617.0</ele><time>2026-04-11T09:12:53Z</time></trkpt><trkpt lat="39.9711213075552" lon="9.189247245631895"><ele>617.0</ele><time>2026-04-11T09:12:54Z</time></trkpt><trkpt lat="39.97121507321042" lon="9.189369124299642"><ele>617.0</ele><time>2026-04-11T09:12:55Z</time></trkpt><trkpt lat="39.97130443201658" lon="9.189452807328708"><ele>617.0</ele><time>2026-04-11T09:12:56Z</time></trkpt><trkpt lat="39.971412475159866" lon="9.18946893515101"><ele>617.0</ele><time>2026-04-11T09:12:57Z</time></trkpt><trkpt lat="39.97150189570273" lon="9.18935807918264"><ele>617.0</ele><time>2026-04-11T09:12:58Z</time></trkpt><trkpt lat="39.97154861131483" lon="9.18922534272551"><ele>617.0</ele><time>2026-04-11T09:12:59Z</time></trkpt><trkpt lat="39.97153910947981" lon="9.189055196598432"><ele>617.0</ele><time>2026-04-11T09:13:00Z</time></trkpt><trkpt lat="39.971520519632534" lon="9.188872297917184"><ele>617.0</ele><time>2026-04-11T09:13:01Z</time></trkpt><trkpt lat="39.97151987809962" lon="9.188679582847346"><ele>613.3333333333333</ele><time>2026-04-11T09:13:02Z</time></trkpt><trkpt lat="39.97152847525008" lon="9.188468456755334"><ele>609.6666666666666</ele><time>2026-04-11T09:13:03Z</time></trkpt><trkpt lat="39.97154878886481" lon="9.18826835828494"><ele>606.0</ele><time>2026-04-11T09:13:04Z</time></trkpt><trkpt lat="39.97160677892115" lon="9.188086048951584"><ele>605.3333333333334</ele><time>2026-04-11T09:13:05Z</time></trkpt><trkpt lat="39.97169464632832" lon="9.187916366167093"><ele>604.6666666666667</ele><time>2026-04-11T09:13:06Z</time></trkpt><trkpt lat="39.97180114979433" lon="9.18777597202262"><ele>604.0</ele><time>2026-04-11T09:13:07Z</time></trkpt><trkpt lat="39.971952616569524" lon="9.187690560626102"><ele>604.0</ele><time>2026-04-11T09:13:08Z</time></trkpt><trkpt lat="39.97210591079013" lon="9.18757782319536"><ele>604.0</ele><time>2026-04-11T09:13:09Z</time></trkpt><trkpt lat="39.97226844050267" lon="9.187468780422547"><ele>604.0</ele><time>2026-04-11T09:13:10Z</time></trkpt><trkpt lat="39.97242992727253" lon="9.187354299872784"><ele>598.0</ele><time>2026-04-11T09:13:11Z</time></trkpt><trkpt lat="39.97259693571409" lon="9.187263843362866"><ele>592.0</ele><time>2026-04-11T09:13:12Z</time></trkpt><trkpt lat="39.972756884659546" lon="9.187163245615647"><ele>586.0</ele><time>2026-04-11T09:13:13Z</time></trkpt><trkpt lat="39.9729213978178" lon="9.187113175661036"><ele>586.0</ele><time>2026-04-11T09:13:14Z</time></trkpt><trkpt lat="39.97307246733251" lon="9.187096737020038"><ele>586.0</ele><time>2026-04-11T09:13:15Z</time></trkpt><trkpt lat="39.97320650931437" lon="9.187114582949844"><ele>586.0</ele><time>2026-04-11T09:13:16Z</time></trkpt><trkpt lat="39.973332759348466" lon="9.187162481730844"><ele>586.0</ele><time>2026-04-11T09:13:17Z</time></trkpt><trkpt lat="39.97342930599552" lon="9.187261415226283"><ele>586.8</ele><time>2026-04-11T09:13:18Z</time></trkpt><trkpt lat="39.973513167188976" lon="9.187315118916034"><ele>587.6</ele><time>2026-04-11T09:13:19Z</time></trkpt><trkpt lat="39.97360254885488" lon="9.187303106038788"><ele>588.4</ele><time>2026-04-11T09:13:20Z</time></trkpt><trkpt lat="39.973676781420174" lon="9.18722240986938"><ele>589.2</ele><time>2026-04-11T09:13:21Z</time></trkpt><trkpt lat="39.973727978596955" lon="9.187088704263793"><ele>590.0</ele><time>2026-04-11T09:13:22Z</time></trkpt><trkpt lat="39.97375842178861" lon="9.186932293204626"><ele>590.0</ele><time>2026-04-11T09:13:23Z</time></trkpt><trkpt lat="39.97380688962199" lon="9.18681720648104"><ele>590.0</ele><time>2026-04-11T09:13:24Z</time></trkpt><trkpt lat="39.973905300880034" lon="9.1867708803739"><ele>590.0</ele><time>2026-04-11T09:13:25Z</time></trkpt><trkpt lat="39.97402486690757" lon="9.18671262172017"><ele>590.0</ele><time>2026-04-11T09:13:26Z</time></trkpt><trkpt lat="39.97415948678047" lon="9.186629262907134"><ele>590.3333333333333</ele><time>2026-04-11T09:13:27Z</time></trkpt><trkpt lat="39.9743115150751" lon="9.186544136538366"><ele>590.6666666666666</ele><time>2026-04-11T09:13:28Z</time></trkpt><trkpt lat="39.974464558896365" lon="9.18645649046071"><ele>591.0</ele><time>2026-04-11T09:13:29Z</time></trkpt><trkpt lat="39.974623746284564" lon="9.186411946608247"><ele>584.6666666666666</ele><time>2026-04-11T09:13:30Z</time></trkpt><trkpt lat="39.97478490208638" lon="9.186399953110518"><ele>578.3333333333333</ele><time>2026-04-11T09:13:31Z</time></trkpt><trkpt lat="39.974959998799015" lon="9.186423178670127"><ele>572.0</ele><time>2026-04-11T09:13:32Z</time></trkpt><trkpt lat="39.97514068745708" lon="9.186430937306055"><ele>571.3333333333333</ele><time>2026-04-11T09:13:33Z</time></trkpt><trkpt lat="39.97531749587028" lon="9.186494620762371"><ele>570.6666666666666</ele><time>2026-04-11T09:13:34Z</time></trkpt><trkpt lat="39.97549969123369" lon="9.186549727166048"><ele>570.0</ele><time>2026-04-11T09:13:35Z</time></trkpt><trkpt lat="39.97567859528909" lon="9.186633131476917"><ele>574.0</ele><time>2026-04-11T09:13:36Z</time></trkpt><trkpt lat="39.97585661241251" lon="9.186683335371"><ele>578.0</ele><time>2026-04-11T09:13:37Z</time></trkpt><trkpt lat="39.97603883595252" lon="9.18671565213889"><ele>582.0</ele><time>2026-04-11T09:13:38Z</time></trkpt><trkpt lat="39.976224554233" lon="9.18666625486077"><ele>582.0</ele><time>2026-04-11T09:13:39Z</time></trkpt><trkpt lat="39.97640886924242" lon="9.186663336018755"><ele>582.0</ele><time>2026-04-11T09:13:40Z</time></trkpt><trkpt lat="39.976586973289535" lon="9.186675999194586"><ele>582.0</ele><time>2026-04-11T09:13:41Z</time></trkpt><trkpt lat="39.97677453187968" lon="9.186702923338464"><ele>579.6666666666666</ele><time>2026-04-11T09:13:42Z</time></trkpt><trkpt lat="39.97695705532202" lon="9.186763392408725"><ele>577.3333333333333</ele><time>2026-04-11T09:13:43Z</time></trkpt><trkpt lat="39.97713356350461" lon="9.186809423825483"><ele>575.0</ele><time>2026-04-11T09:13:44Z</time></trkpt><trkpt lat="39.97730106778984" lon="9.186839961178421"><ele>575.0</ele><time>2026-04-11T09:13:45Z</time></trkpt><trkpt lat="39.977454232502716" lon="9.1868089637027"><ele>575.0</ele><time>2026-04-11T09:13:46Z</time></trkpt><trkpt lat="39.977582540659185" lon="9.186721639966372"><ele>575.0</ele><time>2026-04-11T09:13:47Z</time></trkpt><trkpt lat="39.9776945511361" lon="9.186704445211753"><ele>575.0</ele><time>2026-04-11T09:13:48Z</time></trkpt><trkpt lat="39.9777837090972" lon="9.18674401010551"><ele>573.2</ele><time>2026-04-11T09:13:49Z</time></trkpt><trkpt lat="39.9778375278577" lon="9.186841099917947"><ele>571.4</ele><time>2026-04-11T09:13:50Z</time></trkpt><trkpt lat="39.97784094622169" lon="9.186966624225393"><ele>569.6</ele><time>2026-04-11T09:13:51Z</time></trkpt><trkpt lat="39.97779592231083" lon="9.187099562413831"><ele>567.8</ele><time>2026-04-11T09:13:52Z</time></trkpt><trkpt lat="39.97775041678182" lon="9.187256344794909"><ele>566.0</ele><time>2026-04-11T09:13:53Z</time></trkpt><trkpt lat="39.97771818819829" lon="9.187431038592052"><ele>566.0</ele><time>2026-04-11T09:13:54Z</time></trkpt><trkpt lat="39.977697717031965" lon="9.187629707777544"><ele>566.0</ele><time>2026-04-11T09:13:55Z</time></trkpt><trkpt lat="39.977700912208554" lon="9.187834133918484"><ele>566.0</ele><time>2026-04-11T09:13:56Z</time></trkpt><trkpt lat="39.97773810408062" lon="9.188032600939772"><ele>568.0</ele><time>2026-04-11T09:13:57Z</time></trkpt><trkpt lat="39.977811183563624" lon="9.188209237485712"><ele>570.0</ele><time>2026-04-11T09:13:58Z</time></trkpt><trkpt lat="39.97790911512641" lon="9.18836460138934"><ele>572.0</ele><time>2026-04-11T09:13:59Z</time></trkpt><trkpt lat="39.97801421537114" lon="9.188494395791777"><ele>572.0</ele><time>2026-04-11T09:14:00Z</time></trkpt><trkpt lat="39.97813696057901" lon="9.188588304114875"><ele>572.0</ele><time>2026-04-11T09:14:01Z</time></trkpt><trkpt lat="39.9782846781305" lon="9.188640073234744"><ele>572.0</ele><time>2026-04-11T09:14:02Z</time></trkpt><trkpt lat="39.978434227170936" lon="9.188679843410009"><ele>572.0</ele><time>2026-04-11T09:14:03Z</time></trkpt><trkpt lat="39.9785614034998" lon="9.188713653953684"><ele>576.75</ele><time>2026-04-11T09:14:04Z</time></trkpt><trkpt lat="39.97867324143211" lon="9.188745660379649"><ele>581.5</ele><time>2026-04-11T09:14:05Z</time></trkpt><trkpt lat="39.978784081734" lon="9.18869980044715"><ele>586.25</ele><time>2026-04-11T09:14:06Z</time></trkpt><trkpt lat="39.978857090167054" lon="9.188563471820085"><ele>591.0</ele><time>2026-04-11T09:14:07Z</time></trkpt><trkpt lat="39.978909604357945" lon="9.188402285130014"><ele>591.0</ele><time>2026-04-11T09:14:08Z</time></trkpt><trkpt lat="39.97894866858973" lon="9.18822166443122"><ele>591.0</ele><time>2026-04-11T09:14:09Z</time></trkpt><trkpt lat="39.978947218708775" lon="9.18803231589461"><ele>591.0</ele><time>2026-04-11T09:14:10Z</time></trkpt><trkpt lat="39.978910470135425" lon="9.187829084668147"><ele>591.0</ele><time>2026-04-11T09:14:11Z</time></trkpt><trkpt lat="39.97887970616634" lon="9.187622737759318"><ele>587.0</ele><time>2026-04-11T09:14:12Z</time></trkpt><trkpt lat="39.97888333531361" lon="9.187409789890788"><ele>583.0</ele><time>2026-04-11T09:14:13Z</time></trkpt><trkpt lat="39.9789283911313" lon="9.187214288043466"><ele>579.0</ele><time>2026-04-11T09:14:14Z</time></trkpt><trkpt lat="39.978979757441046" lon="9.187032703950305"><ele>579.3333333333334</ele><time>2026-04-11T09:14:15Z</time></trkpt><trkpt lat="39.979061591673904" lon="9.186869021804494"><ele>579.6666666666667</ele><time>2026-04-11T09:14:16Z</time></trkpt><trkpt lat="39.979181259953904" lon="9.1867349538995"><ele>580.0</ele><time>2026-04-11T09:14:17Z</time></trkpt><trkpt lat="39.97932036038862" lon="9.18659520706069"><ele>575.0</ele><time>2026-04-11T09:14:18Z</time></trkpt><trkpt lat="39.979451542484505" lon="9.186438736970526"><ele>570.0</ele><time>2026-04-11T09:14:19Z</time></trkpt><trkpt lat="39.97961150604971" lon="9.18629838364869"><ele>565.0</ele><time>2026-04-11T09:14:20Z</time></trkpt><trkpt lat="39.97976843239087" lon="9.186135250341849"><ele>565.0</ele><time>2026-04-11T09:14:21Z</time></trkpt><trkpt lat="39.97992342906663" lon="9.18597011424326"><ele>565.0</ele><time>2026-04-11T09:14:22Z</time></trkpt><trkpt lat="39.98007352343321" lon="9.185810805412464"><ele>565.0</ele><time>2026-04-11T09:14:23Z</time></trkpt><trkpt lat="39.98021381900263" lon="9.18566189812118"><ele>562.75</ele><time>2026-04-11T09:14:24Z</time></trkpt><trkpt lat="39.98034599016815" lon="9.18552161284551"><ele>560.5</ele><time>2026-04-11T09:14:25Z</time></trkpt><trkpt lat="39.98046501619179" lon="9.185402498066804"><ele>558.25</ele><time>2026-04-11T09:14:26Z</time></trkpt><trkpt lat="39.980565601456" lon="9.185311208527171"><ele>556.0</ele><time>2026-04-11T09:14:27Z</time></trkpt><trkpt lat="39.98068245653538" lon="9.185290354015585"><ele>556.0</ele><time>2026-04-11T09:14:28Z</time></trkpt><trkpt lat="39.980797571438416" lon="9.185363037782237"><ele>556.0</ele><time>2026-04-11T09:14:29Z</time></trkpt><trkpt lat="39.98093116331694" lon="9.18544181883931"><ele>556.0</ele><time>2026-04-11T09:14:30Z</time></trkpt><trkpt lat="39.98108381721734" lon="9.1855049860344"><ele>556.0</ele><time>2026-04-11T09:14:31Z</time></trkpt><trkpt lat="39.9812549331714" lon="9.185551662803265"><ele>555.0</ele><time>2026-04-11T09:14:32Z</time></trkpt><trkpt lat="39.98144983625101" lon="9.18556585547535"><ele>554.0</ele><time>2026-04-11T09:14:33Z</time></trkpt><trkpt lat="39.98164835969622" lon="9.185586810842421"><ele>553.0</ele><time>2026-04-11T09:14:34Z</time></trkpt><trkpt lat="39.98183706072214" lon="9.185584296365832"><ele>552.6666666666667</ele><time>2026-04-11T09:14:35Z</time></trkpt><trkpt lat="39.982018414420516" lon="9.185545666023657"><ele>552.3333333333334</ele><time>2026-04-11T09:14:36Z</time></trkpt><trkpt lat="39.982186287457544" lon="9.185470071316832"><ele>552.0</ele><time>2026-04-11T09:14:37Z</time></trkpt><trkpt lat="39.98233147700559" lon="9.185402600472266"><ele>552.0</ele><time>2026-04-11T09:14:38Z</time></trkpt><trkpt lat="39.982463356863704" lon="9.185369471257276"><ele>552.0</ele><time>2026-04-11T09:14:39Z</time></trkpt><trkpt lat="39.98259922468669" lon="9.18539683083252"><ele>552.0</ele><time>2026-04-11T09:14:40Z</time></trkpt><trkpt lat="39.98273165808846" lon="9.18546988336118"><ele>552.0</ele><time>2026-04-11T09:14:41Z</time></trkpt><trkpt lat="39.98286576834568" lon="9.185507863227658"><ele>552.0</ele><time>2026-04-11T09:14:42Z</time></trkpt><trkpt lat="39.98299251697356" lon="9.18543879882528"><ele>552.0</ele><time>2026-04-11T09:14:43Z</time></trkpt><trkpt lat="39.983101633164424" lon="9.185337429807412"><ele>552.0</ele><time>2026-04-11T09:14:44Z</time></trkpt><trkpt lat="39.983224597654015" lon="9.185232676487958"><ele>552.0</ele><time>2026-04-11T09:14:45Z</time></trkpt><trkpt lat="39.98334558662899" lon="9.185117743455482"><ele>553.0</ele><time>2026-04-11T09:14:46Z</time></trkpt><trkpt lat="39.98347386803934" lon="9.185031312811752"><ele>554.0</ele><time>2026-04-11T09:14:47Z</time></trkpt><trkpt lat="39.983621604553974" lon="9.184987521141565"><ele>555.0</ele><time>2026-04-11T09:14:48Z</time></trkpt><trkpt lat="39.98379233544001" lon="9.18498273218292"><ele>555.0</ele><time>2026-04-11T09:14:49Z</time></trkpt><trkpt lat="39.98398111024305" lon="9.184986960840464"><ele>555.0</ele><time>2026-04-11T09:14:50Z</time></trkpt><trkpt lat="39.98417970515814" lon="9.184993126778178"><ele>555.0</ele><time>2026-04-11T09:14:51Z</time></trkpt><trkpt lat="39.98437782054507" lon="9.184999592738599"><ele>555.0</ele><time>2026-04-11T09:14:52Z</time></trkpt><trkpt lat="39.9845788692366" lon="9.184979202411185"><ele>555.0</ele><time>2026-04-11T09:14:53Z</time></trkpt><trkpt lat="39.98477445534396" lon="9.184985293934226"><ele>555.0</ele><time>2026-04-11T09:14:54Z</time></trkpt><trkpt lat="39.984961648539105" lon="9.184994977667513"><ele>552.6666666666666</ele><time>2026-04-11T09:14:55Z</time></trkpt><trkpt lat="39.98514658388929" lon="9.185031485951757"><ele>550.3333333333333</ele><time>2026-04-11T09:14:56Z</time></trkpt><trkpt lat="39.98533547484875" lon="9.185105790801657"><ele>548.0</ele><time>2026-04-11T09:14:57Z</time></trkpt><trkpt lat="39.98550141843091" lon="9.185211106189374"><ele>548.0</ele><time>2026-04-11T09:14:58Z</time></trkpt><trkpt lat="39.985645630733764" lon="9.185302213841792"><ele>548.0</ele><time>2026-04-11T09:14:59Z</time></trkpt><trkpt lat="39.985775294846746" lon="9.18539175234605"><ele>548.0</ele><time>2026-04-11T09:15:00Z</time></trkpt><trkpt lat="39.985863360558746" lon="9.185563601181821"><ele>548.6666666666666</ele><time>2026-04-11T09:15:01Z</time></trkpt><trkpt lat="39.98595937156325" lon="9.185754026787412"><ele>549.3333333333334</ele><time>2026-04-11T09:15:02Z</time></trkpt><trkpt lat="39.986046171338536" lon="9.185959123572783"><ele>550.0</ele><time>2026-04-11T09:15:03Z</time></trkpt><trkpt lat="39.98613122947984" lon="9.186163408535473"><ele>550.0</ele><time>2026-04-11T09:15:04Z</time></trkpt><trkpt lat="39.98620857063285" lon="9.186360724950182"><ele>550.0</ele><time>2026-04-11T09:15:05Z</time></trkpt><trkpt lat="39.98628513527108" lon="9.186535706655706"><ele>550.0</ele><time>2026-04-11T09:15:06Z</time></trkpt><trkpt lat="39.98635367993337" lon="9.186666296325763"><ele>550.0</ele><time>2026-04-11T09:15:07Z</time></trkpt><trkpt lat="39.98641610496751" lon="9.18677253529341"><ele>551.2</ele><time>2026-04-11T09:15:08Z</time></trkpt><trkpt lat="39.98652300788318" lon="9.186810544059059"><ele>552.4</ele><time>2026-04-11T09:15:09Z</time></trkpt><trkpt lat="39.98663104532329" lon="9.18674617086044"><ele>553.6</ele><time>2026-04-11T09:15:10Z</time></trkpt><trkpt lat="39.986724992719424" lon="9.186707409144262"><ele>554.8</ele><time>2026-04-11T09:15:11Z</time></trkpt><trkpt lat="39.98680313355469" lon="9.186588058370358"><ele>556.0</ele><time>2026-04-11T09:15:12Z</time></trkpt><trkpt lat="39.986805168236806" lon="9.186410542197464"><ele>558.5</ele><time>2026-04-11T09:15:13Z</time></trkpt><trkpt lat="39.98681621429298" lon="9.18623423551967"><ele>561.0</ele><time>2026-04-11T09:15:14Z</time></trkpt><trkpt lat="39.98687663120565" lon="9.18605511867379"><ele>563.5</ele><time>2026-04-11T09:15:15Z</time></trkpt><trkpt lat="39.98695820039745" lon="9.185884147705346"><ele>566.0</ele><time>2026-04-11T09:15:16Z</time></trkpt><trkpt lat="39.98703944629776" lon="9.18570708702491"><ele>562.0</ele><time>2026-04-11T09:15:17Z</time></trkpt><trkpt lat="39.98713996174519" lon="9.185537071302486"><ele>558.0</ele><time>2026-04-11T09:15:18Z</time></trkpt><trkpt lat="39.98725401324927" lon="9.185392899723778"><ele>554.0</ele><time>2026-04-11T09:15:19Z</time></trkpt><trkpt lat="39.987398731469824" lon="9.185275674257982"><ele>555.3333333333333</ele><time>2026-04-11T09:15:20Z</time></trkpt><trkpt lat="39.9875530931399" lon="9.185144887232868"><ele>556.6666666666666</ele><time>2026-04-11T09:15:21Z</time></trkpt><trkpt lat="39.98770157150303" lon="9.184974741256658"><ele>558.0</ele><time>2026-04-11T09:15:22Z</time></trkpt><trkpt lat="39.987846535454054" lon="9.18480006180695"><ele>558.0</ele><time>2026-04-11T09:15:23Z</time></trkpt><trkpt lat="39.988004887216434" lon="9.184640441705932"><ele>558.0</ele><time>2026-04-11T09:15:24Z</time></trkpt><trkpt lat="39.9881790925645" lon="9.184498537252871"><ele>558.0</ele><time>2026-04-11T09:15:25Z</time></trkpt><trkpt lat="39.98834498834648" lon="9.184361315310111"><ele>561.3333333333334</ele><time>2026-04-11T09:15:26Z</time></trkpt><trkpt lat="39.98849848345057" lon="9.184234370796727"><ele>564.6666666666667</ele><time>2026-04-11T09:15:27Z</time></trkpt><trkpt lat="39.988641567747756" lon="9.184116307122746"><ele>568.0</ele><time>2026-04-11T09:15:28Z</time></trkpt><trkpt lat="39.988772960437814" lon="9.184019361448101"><ele>568.0</ele><time>2026-04-11T09:15:29Z</time></trkpt><trkpt lat="39.988900001789574" lon="9.183965124465706"><ele>568.0</ele><time>2026-04-11T09:15:30Z</time></trkpt><trkpt lat="39.989039039390306" lon="9.18402605599247"><ele>568.0</ele><time>2026-04-11T09:15:31Z</time></trkpt><trkpt lat="39.989194975972616" lon="9.1840415217922"><ele>568.0</ele><time>2026-04-11T09:15:32Z</time></trkpt><trkpt lat="39.98935595740532" lon="9.184018102793807"><ele>567.0</ele><time>2026-04-11T09:15:33Z</time></trkpt><trkpt lat="39.98952085673342" lon="9.183949738694539"><ele>566.0</ele><time>2026-04-11T09:15:34Z</time></trkpt><trkpt lat="39.98968471366118" lon="9.183902526353107"><ele>565.0</ele><time>2026-04-11T09:15:35Z</time></trkpt><trkpt lat="39.98984796723271" lon="9.183906179787867"><ele>565.0</ele><time>2026-04-11T09:15:36Z</time></trkpt><trkpt lat="39.98998925873577" lon="9.183917037474217"><ele>565.0</ele><time>2026-04-11T09:15:37Z</time></trkpt><trkpt lat="39.990095933882806" lon="9.183846798308112"><ele>565.0</ele><time>2026-04-11T09:15:38Z</time></trkpt><trkpt lat="39.990163576340684" lon="9.183715639407072"><ele>565.0</ele><time>2026-04-11T09:15:39Z</time></trkpt><trkpt lat="39.99024079628645" lon="9.1835547477162"><ele>564.75</ele><time>2026-04-11T09:15:40Z</time></trkpt><trkpt lat="39.990319084134725" lon="9.183397855166861"><ele>564.5</ele><time>2026-04-11T09:15:41Z</time></trkpt><trkpt lat="39.99041726213065" lon="9.183261041330278"><ele>564.25</ele><time>2026-04-11T09:15:42Z</time></trkpt><trkpt lat="39.99053001874427" lon="9.183185449253905"><ele>564.0</ele><time>2026-04-11T09:15:43Z</time></trkpt><trkpt lat="39.990669648263946" lon="9.18315061971167"><ele>564.0</ele><time>2026-04-11T09:15:44Z</time></trkpt><trkpt lat="39.99082611697457" lon="9.183092541505243"><ele>564.0</ele><time>2026-04-11T09:15:45Z</time></trkpt><trkpt lat="39.99096725888677" lon="9.182995948311287"><ele>564.0</ele><time>2026-04-11T09:15:46Z</time></trkpt><trkpt lat="39.99109700140546" lon="9.182892451745989"><ele>566.5</ele><time>2026-04-11T09:15:47Z</time></trkpt><trkpt lat="39.9912195665005" lon="9.182835515050384"><ele>569.0</ele><time>2026-04-11T09:15:48Z</time></trkpt><trkpt lat="39.991349849187905" lon="9.182830859286382"><ele>571.5</ele><time>2026-04-11T09:15:49Z</time></trkpt><trkpt lat="39.99147675152422" lon="9.1828770000565"><ele>574.0</ele><time>2026-04-11T09:15:50Z</time></trkpt><trkpt lat="39.99160154761579" lon="9.18295877516595"><ele>577.5</ele><time>2026-04-11T09:15:51Z</time></trkpt><trkpt lat="39.99170493962117" lon="9.183071960292837"><ele>581.0</ele><time>2026-04-11T09:15:52Z</time></trkpt><trkpt lat="39.99180321798012" lon="9.183168950722015"><ele>584.5</ele><time>2026-04-11T09:15:53Z</time></trkpt><trkpt lat="39.99191019218122" lon="9.18326284275275"><ele>588.0</ele><time>2026-04-11T09:15:54Z</time></trkpt><trkpt lat="39.99200958045239" lon="9.183324708405355"><ele>588.0</ele><time>2026-04-11T09:15:55Z</time></trkpt><trkpt lat="39.99210806870845" lon="9.18334865927497"><ele>588.0</ele><time>2026-04-11T09:15:56Z</time></trkpt><trkpt lat="39.99220140405566" lon="9.183275930509694"><ele>588.0</ele><time>2026-04-11T09:15:57Z</time></trkpt><trkpt lat="39.99223273885073" lon="9.18311858557049"><ele>588.0</ele><time>2026-04-11T09:15:58Z</time></trkpt><trkpt lat="39.99225139477608" lon="9.182954786100577"><ele>588.0</ele><time>2026-04-11T09:15:59Z</time></trkpt><trkpt lat="39.992256349047786" lon="9.182766273424132"><ele>588.0</ele><time>2026-04-11T09:16:00Z</time></trkpt><trkpt lat="39.99228413072519" lon="9.182587038036479"><ele>588.0</ele><time>2026-04-11T09:16:01Z</time></trkpt><trkpt lat="39.992346878580754" lon="9.182420150533346"><ele>588.0</ele><time>2026-04-11T09:16:02Z</time></trkpt><trkpt lat="39.99245800842711" lon="9.182305757291871"><ele>587.75</ele><time>2026-04-11T09:16:03Z</time></trkpt><trkpt lat="39.992573026123175" lon="9.182227977929204"><ele>587.5</ele><time>2026-04-11T09:16:04Z</time></trkpt><trkpt lat="39.992682010172224" lon="9.182137207751328"><ele>587.25</ele><time>2026-04-11T09:16:05Z</time></trkpt><trkpt lat="39.992799562686294" lon="9.18205669901178"><ele>587.0</ele><time>2026-04-11T09:16:06Z</time></trkpt><trkpt lat="39.99293673644243" lon="9.18199307755972"><ele>587.0</ele><time>2026-04-11T09:16:07Z</time></trkpt><trkpt lat="39.993070847337954" lon="9.181915243837997"><ele>587.0</ele><time>2026-04-11T09:16:08Z</time></trkpt><trkpt lat="39.993220535412526" lon="9.181858554369962"><ele>587.0</ele><time>2026-04-11T09:16:09Z</time></trkpt><trkpt lat="39.99339264830705" lon="9.181831636121787"><ele>588.6666666666666</ele><time>2026-04-11T09:16:10Z</time></trkpt><trkpt lat="39.9935717304011" lon="9.181814760588985"><ele>590.3333333333334</ele><time>2026-04-11T09:16:11Z</time></trkpt><trkpt lat="39.993760642614085" lon="9.181799557725169"><ele>592.0</ele><time>2026-04-11T09:16:12Z</time></trkpt><trkpt lat="39.993932093423254" lon="9.181792016813406"><ele>592.0</ele><time>2026-04-11T09:16:13Z</time></trkpt><trkpt lat="39.99410044056394" lon="9.181823093860576"><ele>592.0</ele><time>2026-04-11T09:16:14Z</time></trkpt><trkpt lat="39.99425633561636" lon="9.181909729910807"><ele>592.0</ele><time>2026-04-11T09:16:15Z</time></trkpt><trkpt lat="39.99441230026079" lon="9.182031101839527"><ele>593.0</ele><time>2026-04-11T09:16:16Z</time></trkpt><trkpt lat="39.99455510425184" lon="9.182160741875544"><ele>594.0</ele><time>2026-04-11T09:16:17Z</time></trkpt><trkpt lat="39.99468517824442" lon="9.182263207376812"><ele>595.0</ele><time>2026-04-11T09:16:18Z</time></trkpt><trkpt lat="39.99477150653685" lon="9.182394578144692"><ele>598.4</ele><time>2026-04-11T09:16:19Z</time></trkpt><trkpt lat="39.994810224597465" lon="9.182535662300804"><ele>601.8</ele><time>2026-04-11T09:16:20Z</time></trkpt><trkpt lat="39.99484555503556" lon="9.182638622579812"><ele>605.2</ele><time>2026-04-11T09:16:21Z</time></trkpt><trkpt lat="39.99491361831216" lon="9.182692917654055"><ele>608.6</ele><time>2026-04-11T09:16:22Z</time></trkpt><trkpt lat="39.99499888209687" lon="9.182700188591252"><ele>612.0</ele><time>2026-04-11T09:16:23Z</time></trkpt><trkpt lat="39.99507955513897" lon="9.18258483427452"><ele>610.75</ele><time>2026-04-11T09:16:24Z</time></trkpt><trkpt lat="39.99515025054018" lon="9.182449287489714"><ele>609.5</ele><time>2026-04-11T09:16:25Z</time></trkpt><trkpt lat="39.995242713443126" lon="9.18230597411261"><ele>608.25</ele><time>2026-04-11T09:16:26Z</time></trkpt><trkpt lat="39.995316071601394" lon="9.18215249671831"><ele>607.0</ele><time>2026-04-11T09:16:27Z</time></trkpt><trkpt lat="39.995355737534084" lon="9.181971241270613"><ele>607.0</ele><time>2026-04-11T09:16:28Z</time></trkpt><trkpt lat="39.995421926001626" lon="9.181831425605562"><ele>607.0</ele><time>2026-04-11T09:16:29Z</time></trkpt><trkpt lat="39.9954798008793" lon="9.181716380582573"><ele>607.0</ele><time>2026-04-11T09:16:30Z</time></trkpt><trkpt lat="39.995585394832965" lon="9.181716027851696"><ele>607.0</ele><time>2026-04-11T09:16:31Z</time></trkpt><trkpt lat="39.995692887835666" lon="9.18171482323829"><ele>607.0</ele><time>2026-04-11T09:16:32Z</time></trkpt><trkpt lat="39.99581286011477" lon="9.181803687344264"><ele>608.25</ele><time>2026-04-11T09:16:33Z</time></trkpt><trkpt lat="39.99591835907004" lon="9.181933561717404"><ele>609.5</ele><time>2026-04-11T09:16:34Z</time></trkpt><trkpt lat="39.99602712183175" lon="9.182016948349464"><ele>610.75</ele><time>2026-04-11T09:16:35Z</time></trkpt><trkpt lat="39.99616319133812" lon="9.182032185272414"><ele>612.0</ele><time>2026-04-11T09:16:36Z</time></trkpt><trkpt lat="39.996318670246026" lon="9.18198595527508"><ele>612.0</ele><time>2026-04-11T09:16:37Z</time></trkpt><trkpt lat="39.99648304669618" lon="9.181948242867731"><ele>612.0</ele><time>2026-04-11T09:16:38Z</time></trkpt><trkpt lat="39.99664920078971" lon="9.181911489622888"><ele>612.0</ele><time>2026-04-11T09:16:39Z</time></trkpt><trkpt lat="39.996799313279496" lon="9.181886167330351"><ele>611.75</ele><time>2026-04-11T09:16:40Z</time></trkpt><trkpt lat="39.996938151107415" lon="9.181873326313042"><ele>611.5</ele><time>2026-04-11T09:16:41Z</time></trkpt><trkpt lat="39.99706493264506" lon="9.181904103904563"><ele>611.25</ele><time>2026-04-11T09:16:42Z</time></trkpt><trkpt lat="39.99719936645066" lon="9.182003933366161"><ele>611.0</ele><time>2026-04-11T09:16:43Z</time></trkpt><trkpt lat="39.997347073892904" lon="9.182091845838364"><ele>610.3333333333333</ele><time>2026-04-11T09:16:44Z</time></trkpt><trkpt lat="39.99750718712192" lon="9.182164116780324"><ele>609.6666666666666</ele><time>2026-04-11T09:16:45Z</time></trkpt><trkpt lat="39.99767332155573" lon="9.182239270060032"><ele>609.0</ele><time>2026-04-11T09:16:46Z</time></trkpt><trkpt lat="39.99784007648822" lon="9.182321777270987"><ele>615.3333333333334</ele><time>2026-04-11T09:16:47Z</time></trkpt><trkpt lat="39.99799657135208" lon="9.18244727370661"><ele>621.6666666666667</ele><time>2026-04-11T09:16:48Z</time></trkpt><trkpt lat="39.99813236955523" lon="9.18259482260017"><ele>628.0</ele><time>2026-04-11T09:16:49Z</time></trkpt><trkpt lat="39.99825073146826" lon="9.182731873275031"><ele>633.5</ele><time>2026-04-11T09:16:50Z</time></trkpt><trkpt lat="39.99835210146145" lon="9.182850454274076"><ele>639.0</ele><time>2026-04-11T09:16:51Z</time></trkpt><trkpt lat="39.99843260448921" lon="9.182933361700384"><ele>644.5</ele><time>2026-04-11T09:16:52Z</time></trkpt><trkpt lat="39.99853075764603" lon="9.182968336585146"><ele>650.0</ele><time>2026-04-11T09:16:53Z</time></trkpt><trkpt lat="39.99863651219556" lon="9.182895065529586"><ele>650.0</ele><time>2026-04-11T09:16:54Z</time></trkpt><trkpt lat="39.99870951341231" lon="9.182740776090913"><ele>650.0</ele><time>2026-04-11T09:16:55Z</time></trkpt><trkpt lat="39.99879979370876" lon="9.182589308523934"><ele>650.0</ele><time>2026-04-11T09:16:56Z</time></trkpt><trkpt lat="39.99890474216628" lon="9.182430417496391"><ele>650.0</ele><time>2026-04-11T09:16:57Z</time></trkpt><trkpt lat="39.99895469836849" lon="9.182217857410906"><ele>646.25</ele><time>2026-04-11T09:16:58Z</time></trkpt><trkpt lat="39.99898502474587" lon="9.182004206965376"><ele>642.5</ele><time>2026-04-11T09:16:59Z</time></trkpt><trkpt lat="39.998994824950785" lon="9.181815949641125"><ele>638.75</ele><time>2026-04-11T09:17:00Z</time></trkpt><trkpt lat="39.99905151815767" lon="9.181669346516687"><ele>635.0</ele><time>2026-04-11T09:17:01Z</time></trkpt><trkpt lat="39.99910939730345" lon="9.181555500988399"><ele>638.25</ele><time>2026-04-11T09:17:02Z</time></trkpt><trkpt lat="39.999213014185415" lon="9.181527689958072"><ele>641.5</ele><time>2026-04-11T09:17:03Z</time></trkpt><trkpt lat="39.999333516687884" lon="9.1815566710237"><ele>644.75</ele><time>2026-04-11T09:17:04Z</time></trkpt><trkpt lat="39.99948402828031" lon="9.18155536212961"><ele>648.0</ele><time>2026-04-11T09:17:05Z</time></trkpt><trkpt lat="39.9996495819177" lon="9.181531908404272"><ele>640.6666666666666</ele><time>2026-04-11T09:17:06Z</time></trkpt><trkpt lat="39.99982145830533" lon="9.18150799351786"><ele>633.3333333333333</ele><time>2026-04-11T09:17:07Z</time></trkpt><trkpt lat="39.99999517456464" lon="9.181460359579102"><ele>626.0</ele><time>2026-04-11T09:17:08Z</time></trkpt><trkpt lat="40.00018418274215" lon="9.181442875327082"><ele>626.0</ele><time>2026-04-11T09:17:09Z</time></trkpt><trkpt lat="40.00038356645689" lon="9.181407627474586"><ele>626.0</ele><time>2026-04-11T09:17:10Z</time></trkpt><trkpt lat="40.00058379162852" lon="9.181363693801686"><ele>626.0</ele><time>2026-04-11T09:17:11Z</time></trkpt><trkpt lat="40.000779570440415" lon="9.181386516916024"><ele>628.0</ele><time>2026-04-11T09:17:12Z</time></trkpt><trkpt lat="40.00095886253468" lon="9.181385030837564"><ele>630.0</ele><time>2026-04-11T09:17:13Z</time></trkpt><trkpt lat="40.00110630710422" lon="9.181445663586882"><ele>632.0</ele><time>2026-04-11T09:17:14Z</time></trkpt><trkpt lat="40.001227986514074" lon="9.181523102015573"><ele>637.25</ele><time>2026-04-11T09:17:15Z</time></trkpt><trkpt lat="40.00130230155891" lon="9.181681921482399"><ele>642.5</ele><time>2026-04-11T09:17:16Z</time></trkpt><trkpt lat="40.0013789673244" lon="9.181835980845669"><ele>647.75</ele><time>2026-04-11T09:17:17Z</time></trkpt><trkpt lat="40.001430168027014" lon="9.18203632975003"><ele>653.0</ele><time>2026-04-11T09:17:18Z</time></trkpt><trkpt lat="40.001504329446206" lon="9.182248947826182"><ele>659.6666666666666</ele><time>2026-04-11T09:17:19Z</time></trkpt><trkpt lat="40.001585903782015" lon="9.182451880548339"><ele>666.3333333333334</ele><time>2026-04-11T09:17:20Z</time></trkpt><trkpt lat="40.00162170747549" lon="9.182659651062755"><ele>673.0</ele><time>2026-04-11T09:17:21Z</time></trkpt><trkpt lat="40.001647604139656" lon="9.182841475561734"><ele>668.25</ele><time>2026-04-11T09:17:22Z</time></trkpt><trkpt lat="40.0016932262799" lon="9.182981207764374"><ele>663.5</ele><time>2026-04-11T09:17:23Z</time></trkpt><trkpt lat="40.001784673491045" lon="9.183073480022012"><ele>658.75</ele><time>2026-04-11T09:17:24Z</time></trkpt><trkpt lat="40.001906210240136" lon="9.183148200887006"><ele>654.0</ele><time>2026-04-11T09:17:25Z</time></trkpt><trkpt lat="40.00205181147643" lon="9.183104112518746"><ele>654.0</ele><time>2026-04-11T09:17:26Z</time></trkpt><trkpt lat="40.00218969451289" lon="9.183044198897948"><ele>654.0</ele><time>2026-04-11T09:17:27Z</time></trkpt><trkpt lat="40.002316225741325" lon="9.18292685307784"><ele>654.0</ele><time>2026-04-11T09:17:28Z</time></trkpt><trkpt lat="40.00243251011206" lon="9.182780755128098"><ele>653.8000000000001</ele><time>2026-04-11T09:17:29Z</time></trkpt><trkpt lat="40.002510962271906" lon="9.182640586296527"><ele>653.6</ele><time>2026-04-11T09:17:30Z</time></trkpt><trkpt lat="40.00258990936863" lon="9.18254433063109"><ele>653.4</ele><time>2026-04-11T09:17:31Z</time></trkpt><trkpt lat="40.00268519860856" lon="9.182549799006583"><ele>653.2</ele><time>2026-04-11T09:17:32Z</time></trkpt><trkpt lat="40.00276928488014" lon="9.182578647778891"><ele>653.0</ele><time>2026-04-11T09:17:33Z</time></trkpt><trkpt lat="40.00282255665405" lon="9.182703116328325"><ele>653.0</ele><time>2026-04-11T09:17:34Z</time></trkpt><trkpt lat="40.00284132708554" lon="9.182887468019109"><ele>653.0</ele><time>2026-04-11T09:17:35Z</time></trkpt><trkpt lat="40.00287137541158" lon="9.183063792896487"><ele>653.0</ele><time>2026-04-11T09:17:36Z</time></trkpt><trkpt lat="40.00291546340759" lon="9.183261230180497"><ele>653.0</ele><time>2026-04-11T09:17:37Z</time></trkpt><trkpt lat="40.00297043127345" lon="9.183454390304135"><ele>659.0</ele><time>2026-04-11T09:17:38Z</time></trkpt><trkpt lat="40.00304518109304" lon="9.18364583336687"><ele>665.0</ele><time>2026-04-11T09:17:39Z</time></trkpt><trkpt lat="40.00315173444971" lon="9.183872620347161"><ele>671.0</ele><time>2026-04-11T09:17:40Z</time></trkpt><trkpt lat="40.00327968806029" lon="9.184117696670642"><ele>671.6666666666666</ele><time>2026-04-11T09:17:41Z</time></trkpt><trkpt lat="40.0033990932821" lon="9.184291334684355"><ele>672.3333333333334</ele><time>2026-04-11T09:17:42Z</time></trkpt><trkpt lat="40.003532394440164" lon="9.18445569356662"><ele>673.0</ele><time>2026-04-11T09:17:43Z</time></trkpt><trkpt lat="40.00368931755465" lon="9.18458195561377"><ele>673.0</ele><time>2026-04-11T09:17:44Z</time></trkpt><trkpt lat="40.00382583855368" lon="9.184700411401902"><ele>673.0</ele><time>2026-04-11T09:17:45Z</time></trkpt><trkpt lat="40.00394228817975" lon="9.184824860106227"><ele>673.0</ele><time>2026-04-11T09:17:46Z</time></trkpt><trkpt lat="40.004013288839715" lon="9.18499380937943"><ele>680.3333333333334</ele><time>2026-04-11T09:17:47Z</time></trkpt><trkpt lat="40.0040297793232" lon="9.185207215326914"><ele>687.6666666666666</ele><time>2026-04-11T09:17:48Z</time></trkpt><trkpt lat="40.004064373750936" lon="9.185434955981297"><ele>695.0</ele><time>2026-04-11T09:17:49Z</time></trkpt><trkpt lat="40.004092623757" lon="9.185671654254158"><ele>690.75</ele><time>2026-04-11T09:17:50Z</time></trkpt><trkpt lat="40.004122073098294" lon="9.18587926572739"><ele>686.5</ele><time>2026-04-11T09:17:51Z</time></trkpt><trkpt lat="40.0041631329458" lon="9.186044337985384"><ele>682.25</ele><time>2026-04-11T09:17:52Z</time></trkpt><trkpt lat="40.004250305203385" lon="9.186179664054023"><ele>678.0</ele><time>2026-04-11T09:17:53Z</time></trkpt><trkpt lat="40.00438742698647" lon="9.186283306983913"><ele>678.0</ele><time>2026-04-11T09:17:54Z</time></trkpt><trkpt lat="40.00451578441295" lon="9.18640268385834"><ele>678.0</ele><time>2026-04-11T09:17:55Z</time></trkpt><trkpt lat="40.004630950912116" lon="9.186541344813943"><ele>678.0</ele><time>2026-04-11T09:17:56Z</time></trkpt><trkpt lat="40.004728095108746" lon="9.186718643219606"><ele>686.0</ele><time>2026-04-11T09:17:57Z</time></trkpt><trkpt lat="40.00481490876436" lon="9.186914575935774"><ele>694.0</ele><time>2026-04-11T09:17:58Z</time></trkpt><trkpt lat="40.00490952853405" lon="9.1871200505373"><ele>702.0</ele><time>2026-04-11T09:17:59Z</time></trkpt><trkpt lat="40.00498438034434" lon="9.187326975915662"><ele>695.6666666666666</ele><time>2026-04-11T09:18:00Z</time></trkpt><trkpt lat="40.005070223025506" lon="9.187503493863506"><ele>689.3333333333333</ele><time>2026-04-11T09:18:01Z</time></trkpt><trkpt lat="40.00510733873041" lon="9.187697351071805"><ele>683.0</ele><time>2026-04-11T09:18:02Z</time></trkpt><trkpt lat="40.00510943468231" lon="9.187920538235543"><ele>683.0</ele><time>2026-04-11T09:18:03Z</time></trkpt><trkpt lat="40.005094823821246" lon="9.188161646104376"><ele>683.0</ele><time>2026-04-11T09:18:04Z</time></trkpt><trkpt lat="40.00509720364002" lon="9.18840289251764"><ele>683.0</ele><time>2026-04-11T09:18:05Z</time></trkpt><trkpt lat="40.0051191173053" lon="9.188663582325589"><ele>687.0</ele><time>2026-04-11T09:18:06Z</time></trkpt><trkpt lat="40.00514357626047" lon="9.18893639748607"><ele>691.0</ele><time>2026-04-11T09:18:07Z</time></trkpt><trkpt lat="40.00516855632402" lon="9.189217758557886"><ele>695.0</ele><time>2026-04-11T09:18:08Z</time></trkpt><trkpt lat="40.00519565031842" lon="9.189505252635643"><ele>698.5</ele><time>2026-04-11T09:18:09Z</time></trkpt><trkpt lat="40.00522149984689" lon="9.189796564106445"><ele>702.0</ele><time>2026-04-11T09:18:10Z</time></trkpt><trkpt lat="40.00524653010888" lon="9.190089210291447"><ele>703.6666666666666</ele><time>2026-04-11T09:18:11Z</time></trkpt><trkpt lat="40.00527074739865" lon="9.190374843703745"><ele>705.3333333333333</ele><time>2026-04-11T09:18:12Z</time></trkpt><trkpt lat="40.00529632553331" lon="9.190652321119455"><ele>707.0</ele><time>2026-04-11T09:18:13Z</time></trkpt><trkpt lat="40.0053219131552" lon="9.190919885818836"><ele>711.3333333333333</ele><time>2026-04-11T09:18:14Z</time></trkpt><trkpt lat="40.005346878748654" lon="9.19118371079185"><ele>715.6666666666666</ele><time>2026-04-11T09:18:15Z</time></trkpt><trkpt lat="40.00537361703321" lon="9.191450192742114"><ele>720.0</ele><time>2026-04-11T09:18:16Z</time></trkpt><trkpt lat="40.00539936320513" lon="9.191720559356614"><ele>723.6666666666666</ele><time>2026-04-11T09:18:17Z</time></trkpt><trkpt lat="40.005421040619126" lon="9.191978707088133"><ele>727.3333333333333</ele><time>2026-04-11T09:18:18Z</time></trkpt><trkpt lat="40.005442421320886" lon="9.192216072181433"><ele>731.0</ele><time>2026-04-11T09:18:19Z</time></trkpt><trkpt lat="40.00547210918453" lon="9.192441737125655"><ele>734.75</ele><time>2026-04-11T09:18:20Z</time></trkpt><trkpt lat="40.00550884958814" lon="9.192650099855225"><ele>738.5</ele><time>2026-04-11T09:18:21Z</time></trkpt><trkpt lat="40.00555164464533" lon="9.19283057398044"><ele>742.25</ele><time>2026-04-11T09:18:22Z</time></trkpt><trkpt lat="40.00560345575453" lon="9.192984282977774"><ele>746.0</ele><time>2026-04-11T09:18:23Z</time></trkpt><trkpt lat="40.00565136161153" lon="9.193113404039195"><ele>743.4</ele><time>2026-04-11T09:18:24Z</time></trkpt><trkpt lat="40.0057061353678" lon="9.19320587846851"><ele>740.8</ele><time>2026-04-11T09:18:25Z</time></trkpt><trkpt lat="40.00577221608645" lon="9.19326947288716"><ele>738.1999999999999</ele><time>2026-04-11T09:18:26Z</time></trkpt><trkpt lat="40.00586420386317" lon="9.193249940848222"><ele>735.5999999999999</ele><time>2026-04-11T09:18:27Z</time></trkpt><trkpt lat="40.00592485333066" lon="9.193148274290609"><ele>733.0</ele><time>2026-04-11T09:18:28Z</time></trkpt><trkpt lat="40.00594865470587" lon="9.193022281755558"><ele>728.75</ele><time>2026-04-11T09:18:29Z</time></trkpt><trkpt lat="40.005952499036574" lon="9.192860303199689"><ele>724.5</ele><time>2026-04-11T09:18:30Z</time></trkpt><trkpt lat="40.00596865147226" lon="9.19267579501813"><ele>720.25</ele><time>2026-04-11T09:18:31Z</time></trkpt><trkpt lat="40.0060060106109" lon="9.192468227230364"><ele>716.0</ele><time>2026-04-11T09:18:32Z</time></trkpt><trkpt lat="40.00605053954633" lon="9.192236294083832"><ele>711.6666666666666</ele><time>2026-04-11T09:18:33Z</time></trkpt><trkpt lat="40.006097567214454" lon="9.191997340703455"><ele>707.3333333333334</ele><time>2026-04-11T09:18:34Z</time></trkpt><trkpt lat="40.00614784610923" lon="9.191741711126753"><ele>703.0</ele><time>2026-04-11T09:18:35Z</time></trkpt><trkpt lat="40.00619967915105" lon="9.19146996060577"><ele>700.3333333333334</ele><time>2026-04-11T09:18:36Z</time></trkpt><trkpt lat="40.00625123160525" lon="9.191192729585376"><ele>697.6666666666666</ele><time>2026-04-11T09:18:37Z</time></trkpt><trkpt lat="40.00630473870014" lon="9.190930396228476"><ele>695.0</ele><time>2026-04-11T09:18:38Z</time></trkpt><trkpt lat="40.0063733694635" lon="9.190676356873468"><ele>690.3333333333333</ele><time>2026-04-11T09:18:39Z</time></trkpt><trkpt lat="40.00647073176351" lon="9.19042809177784"><ele>685.6666666666666</ele><time>2026-04-11T09:18:40Z</time></trkpt><trkpt lat="40.006565414032465" lon="9.190201826407156"><ele>681.0</ele><time>2026-04-11T09:18:41Z</time></trkpt><trkpt lat="40.00665019604175" lon="9.190003323359784"><ele>686.25</ele><time>2026-04-11T09:18:42Z</time></trkpt><trkpt lat="40.00674726613824" lon="9.189850463100429"><ele>691.5</ele><time>2026-04-11T09:18:43Z</time></trkpt><trkpt lat="40.00688341387664" lon="9.189797666742002"><ele>696.75</ele><time>2026-04-11T09:18:44Z</time></trkpt><trkpt lat="40.006981291473565" lon="9.18970136396327"><ele>702.0</ele><time>2026-04-11T09:18:45Z</time></trkpt><trkpt lat="40.00702600236892" lon="9.189546402725126"><ele>702.0</ele><time>2026-04-11T09:18:46Z</time></trkpt><trkpt lat="40.007031788668314" lon="9.189372017936812"><ele>702.0</ele><time>2026-04-11T09:18:47Z</time></trkpt><trkpt lat="40.007019771046004" lon="9.189188605218995"><ele>702.0</ele><time>2026-04-11T09:18:48Z</time></trkpt><trkpt lat="40.0070247118219" lon="9.188988601765406"><ele>702.0</ele><time>2026-04-11T09:18:49Z</time></trkpt><trkpt lat="40.007097706687176" lon="9.188802533004816"><ele>697.6666666666666</ele><time>2026-04-11T09:18:50Z</time></trkpt><trkpt lat="40.007173296751006" lon="9.188616137025152"><ele>693.3333333333333</ele><time>2026-04-11T09:18:51Z</time></trkpt><trkpt lat="40.00720709696125" lon="9.188410713769452"><ele>689.0</ele><time>2026-04-11T09:18:52Z</time></trkpt><trkpt lat="40.00728129272272" lon="9.188242170419548"><ele>684.5</ele><time>2026-04-11T09:18:53Z</time></trkpt><trkpt lat="40.00736690851714" lon="9.188108294877567"><ele>680.0</ele><time>2026-04-11T09:18:54Z</time></trkpt><trkpt lat="40.007475392342556" lon="9.188049945973363"><ele>675.5</ele><time>2026-04-11T09:18:55Z</time></trkpt><trkpt lat="40.00760718552149" lon="9.188007366102232"><ele>671.0</ele><time>2026-04-11T09:18:56Z</time></trkpt><trkpt lat="40.00773925458882" lon="9.187990763321965"><ele>680.5</ele><time>2026-04-11T09:18:57Z</time></trkpt><trkpt lat="40.00786715953437" lon="9.188030185644488"><ele>690.0</ele><time>2026-04-11T09:18:58Z</time></trkpt><trkpt lat="40.00798114583402" lon="9.18809860579884"><ele>699.5</ele><time>2026-04-11T09:18:59Z</time></trkpt><trkpt lat="40.00808330726526" lon="9.188131549610551"><ele>709.0</ele><time>2026-04-11T09:19:00Z</time></trkpt><trkpt lat="40.00818027964822" lon="9.188107301512122"><ele>709.0</ele><time>2026-04-11T09:19:01Z</time></trkpt><trkpt lat="40.008244632667186" lon="9.187969342214679"><ele>709.0</ele><time>2026-04-11T09:19:02Z</time></trkpt><trkpt lat="40.00823060156128" lon="9.187797848546671"><ele>709.0</ele><time>2026-04-11T09:19:03Z</time></trkpt><trkpt lat="40.008196922798724" lon="9.187612079837262"><ele>709.0</ele><time>2026-04-11T09:19:04Z</time></trkpt><trkpt lat="40.00816808683916" lon="9.187429194742005"><ele>710.75</ele><time>2026-04-11T09:19:05Z</time></trkpt><trkpt lat="40.00815978358432" lon="9.187236834711452"><ele>712.5</ele><time>2026-04-11T09:19:06Z</time></trkpt><trkpt lat="40.00818714447888" lon="9.18704122588269"><ele>714.25</ele><time>2026-04-11T09:19:07Z</time></trkpt><trkpt lat="40.0082574015649" lon="9.186896022175231"><ele>716.0</ele><time>2026-04-11T09:19:08Z</time></trkpt><trkpt lat="40.00827205390597" lon="9.186753722020693"><ele>716.0</ele><time>2026-04-11T09:19:09Z</time></trkpt><trkpt lat="40.00825405232057" lon="9.18664306309248"><ele>716.0</ele><time>2026-04-11T09:19:10Z</time></trkpt><trkpt lat="40.00819970524387" lon="9.186539261239112"><ele>716.0</ele><time>2026-04-11T09:19:11Z</time></trkpt><trkpt lat="40.008098998660316" lon="9.186451434758473"><ele>716.0</ele><time>2026-04-11T09:19:12Z</time></trkpt><trkpt lat="40.007960995132606" lon="9.186377204659314"><ele>720.25</ele><time>2026-04-11T09:19:13Z</time></trkpt><trkpt lat="40.007827736337546" lon="9.186313799683878"><ele>724.5</ele><time>2026-04-11T09:19:14Z</time></trkpt><trkpt lat="40.0077161100966" lon="9.18622676627402"><ele>728.75</ele><time>2026-04-11T09:19:15Z</time></trkpt><trkpt lat="40.007643667425896" lon="9.186090306394851"><ele>733.0</ele><time>2026-04-11T09:19:16Z</time></trkpt><trkpt lat="40.00761891407921" lon="9.185924697389542"><ele>733.0</ele><time>2026-04-11T09:19:17Z</time></trkpt><trkpt lat="40.007642431574666" lon="9.185742726114976"><ele>733.0</ele><time>2026-04-11T09:19:18Z</time></trkpt><trkpt lat="40.00769596573917" lon="9.18555455184815"><ele>733.0</ele><time>2026-04-11T09:19:19Z</time></trkpt><trkpt lat="40.007742931909895" lon="9.185375549640458"><ele>733.0</ele><time>2026-04-11T09:19:20Z</time></trkpt><trkpt lat="40.00774683002449" lon="9.185174706703814"><ele>735.3333333333334</ele><time>2026-04-11T09:19:21Z</time></trkpt><trkpt lat="40.007693740424855" lon="9.184962026826774"><ele>737.6666666666666</ele><time>2026-04-11T09:19:22Z</time></trkpt><trkpt lat="40.00760520815433" lon="9.184762429830249"><ele>740.0</ele><time>2026-04-11T09:19:23Z</time></trkpt><trkpt lat="40.00752560417161" lon="9.184580359487468"><ele>741.6</ele><time>2026-04-11T09:19:24Z</time></trkpt><trkpt lat="40.00745424447767" lon="9.184428329958024"><ele>743.2</ele><time>2026-04-11T09:19:25Z</time></trkpt><trkpt lat="40.00740876700666" lon="9.18430390535933"><ele>744.8</ele><time>2026-04-11T09:19:26Z</time></trkpt><trkpt lat="40.00741607957369" lon="9.184188287597928"><ele>746.4</ele><time>2026-04-11T09:19:27Z</time></trkpt><trkpt lat="40.00748675890897" lon="9.184100782731349"><ele>748.0</ele><time>2026-04-11T09:19:28Z</time></trkpt><trkpt lat="40.007597374898765" lon="9.184033650507644"><ele>743.5</ele><time>2026-04-11T09:19:29Z</time></trkpt><trkpt lat="40.00771996127996" lon="9.183951552502899"><ele>739.0</ele><time>2026-04-11T09:19:30Z</time></trkpt><trkpt lat="40.00784495565495" lon="9.18386583312184"><ele>734.5</ele><time>2026-04-11T09:19:31Z</time></trkpt><trkpt lat="40.007992986172646" lon="9.18377578895082"><ele>730.0</ele><time>2026-04-11T09:19:32Z</time></trkpt><trkpt lat="40.00815794723204" lon="9.183691788390366"><ele>730.0</ele><time>2026-04-11T09:19:33Z</time></trkpt><trkpt lat="40.008318487971806" lon="9.18360818723397"><ele>730.0</ele><time>2026-04-11T09:19:34Z</time></trkpt><trkpt lat="40.008477215684074" lon="9.183497003417227"><ele>730.0</ele><time>2026-04-11T09:19:35Z</time></trkpt><trkpt lat="40.00864000647157" lon="9.183417698925169"><ele>736.0</ele><time>2026-04-11T09:19:36Z</time></trkpt><trkpt lat="40.0088050499224" lon="9.183350707600312"><ele>742.0</ele><time>2026-04-11T09:19:37Z</time></trkpt><trkpt lat="40.00896901408787" lon="9.1833255293705"><ele>748.0</ele><time>2026-04-11T09:19:38Z</time></trkpt><trkpt lat="40.00912997589318" lon="9.18333872527274"><ele>751.6666666666667</ele><time>2026-04-11T09:19:39Z</time></trkpt><trkpt lat="40.00930217167104" lon="9.18337130765196"><ele>755.3333333333334</ele><time>2026-04-11T09:19:40Z</time></trkpt><trkpt lat="40.00947290174982" lon="9.183413461963584"><ele>759.0</ele><time>2026-04-11T09:19:41Z</time></trkpt><trkpt lat="40.00962840917512" lon="9.183418582242975"><ele>759.0</ele><time>2026-04-11T09:19:42Z</time></trkpt><trkpt lat="40.00977898034195" lon="9.183352912102896"><ele>759.0</ele><time>2026-04-11T09:19:43Z</time></trkpt><trkpt lat="40.009923731337864" lon="9.183240579643819"><ele>759.0</ele><time>2026-04-11T09:19:44Z</time></trkpt><trkpt lat="40.01008146532208" lon="9.183137306928767"><ele>751.6666666666666</ele><time>2026-04-11T09:19:45Z</time></trkpt><trkpt lat="40.010260897174554" lon="9.183072254679159"><ele>744.3333333333333</ele><time>2026-04-11T09:19:46Z</time></trkpt><trkpt lat="40.01042168562141" lon="9.182981586983878"><ele>737.0</ele><time>2026-04-11T09:19:47Z</time></trkpt><trkpt lat="40.0105735056513" lon="9.182923584781774"><ele>737.0</ele><time>2026-04-11T09:19:48Z</time></trkpt><trkpt lat="40.01072032025395" lon="9.182881658668231"><ele>737.0</ele><time>2026-04-11T09:19:49Z</time></trkpt><trkpt lat="40.0108852328469" lon="9.182895475295345"><ele>737.0</ele><time>2026-04-11T09:19:50Z</time></trkpt><trkpt lat="40.01106108527832" lon="9.182957719427664"><ele>741.6666666666666</ele><time>2026-04-11T09:19:51Z</time></trkpt><trkpt lat="40.01125563280061" lon="9.182999086787884"><ele>746.3333333333334</ele><time>2026-04-11T09:19:52Z</time></trkpt><trkpt lat="40.01145536357547" lon="9.183051654568384"><ele>751.0</ele><time>2026-04-11T09:19:53Z</time></trkpt><trkpt lat="40.01165034040798" lon="9.18312174850404"><ele>751.0</ele><time>2026-04-11T09:19:54Z</time></trkpt><trkpt lat="40.01182522457465" lon="9.183170430486799"><ele>751.0</ele><time>2026-04-11T09:19:55Z</time></trkpt><trkpt lat="40.01198595178921" lon="9.18320263797014"><ele>751.0</ele><time>2026-04-11T09:19:56Z</time></trkpt><trkpt lat="40.012123165287065" lon="9.183286602300496"><ele>757.75</ele><time>2026-04-11T09:19:57Z</time></trkpt><trkpt lat="40.01222159215087" lon="9.18343576233709"><ele>764.5</ele><time>2026-04-11T09:19:58Z</time></trkpt><trkpt lat="40.01234879378257" lon="9.183498472676812"><ele>771.25</ele><time>2026-04-11T09:19:59Z</time></trkpt><trkpt lat="40.01249502279288" lon="9.183515985618957"><ele>778.0</ele><time>2026-04-11T09:20:00Z</time></trkpt><trkpt lat="40.01264340158096" lon="9.183510733188836"><ele>778.0</ele><time>2026-04-11T09:20:01Z</time></trkpt><trkpt lat="40.012768640757514" lon="9.183396245607533"><ele>778.0</ele><time>2026-04-11T09:20:02Z</time></trkpt><trkpt lat="40.01289679978058" lon="9.183310503385805"><ele>778.0</ele><time>2026-04-11T09:20:03Z</time></trkpt><trkpt lat="40.01301477245665" lon="9.183285937641338"><ele>778.0</ele><time>2026-04-11T09:20:04Z</time></trkpt><trkpt lat="40.01311492937096" lon="9.183349191163014"><ele>778.0</ele><time>2026-04-11T09:20:05Z</time></trkpt><trkpt lat="40.013215209673014" lon="9.183443369956366"><ele>778.0</ele><time>2026-04-11T09:20:06Z</time></trkpt><trkpt lat="40.0133000320965" lon="9.183585578855492"><ele>778.0</ele><time>2026-04-11T09:20:07Z</time></trkpt><trkpt lat="40.01339582638218" lon="9.183688252457282"><ele>778.0</ele><time>2026-04-11T09:20:08Z</time></trkpt><trkpt lat="40.01350678924028" lon="9.18373259626165"><ele>779.25</ele><time>2026-04-11T09:20:09Z</time></trkpt><trkpt lat="40.013610541100995" lon="9.18373255639955"><ele>780.5</ele><time>2026-04-11T09:20:10Z</time></trkpt><trkpt lat="40.013696831597166" lon="9.1836363329764"><ele>781.75</ele><time>2026-04-11T09:20:11Z</time></trkpt><trkpt lat="40.01372507861605" lon="9.183448398670746"><ele>783.0</ele><time>2026-04-11T09:20:12Z</time></trkpt><trkpt lat="40.013797239885704" lon="9.18329112462077"><ele>776.5</ele><time>2026-04-11T09:20:13Z</time></trkpt><trkpt lat="40.013859737166854" lon="9.183116649374147"><ele>770.0</ele><time>2026-04-11T09:20:14Z</time></trkpt><trkpt lat="40.01392943458476" lon="9.182982093067091"><ele>763.5</ele><time>2026-04-11T09:20:15Z</time></trkpt><trkpt lat="40.01402641370629" lon="9.182906311487525"><ele>757.0</ele><time>2026-04-11T09:20:16Z</time></trkpt><trkpt lat="40.01413804392017" lon="9.182886837803686"><ele>761.3333333333334</ele><time>2026-04-11T09:20:17Z</time></trkpt><trkpt lat="40.01427001585419" lon="9.182912931135002"><ele>765.6666666666667</ele><time>2026-04-11T09:20:18Z</time></trkpt><trkpt lat="40.014424925254026" lon="9.182936815563188"><ele>770.0</ele><time>2026-04-11T09:20:19Z</time></trkpt><trkpt lat="40.014595815768836" lon="9.183001958513167"><ele>770.0</ele><time>2026-04-11T09:20:20Z</time></trkpt><trkpt lat="40.014760457817275" lon="9.18304696911341"><ele>770.0</ele><time>2026-04-11T09:20:21Z</time></trkpt><trkpt lat="40.01493436460541" lon="9.183093981760456"><ele>770.0</ele><time>2026-04-11T09:20:22Z</time></trkpt><trkpt lat="40.01510764299568" lon="9.183140765906348"><ele>779.25</ele><time>2026-04-11T09:20:23Z</time></trkpt><trkpt lat="40.015259073931695" lon="9.18318887313031"><ele>788.5</ele><time>2026-04-11T09:20:24Z</time></trkpt><trkpt lat="40.01538422377737" lon="9.183251141634669"><ele>797.75</ele><time>2026-04-11T09:20:25Z</time></trkpt><trkpt lat="40.015500975603466" lon="9.183275708196653"><ele>807.0</ele><time>2026-04-11T09:20:26Z</time></trkpt><trkpt lat="40.015616138323864" lon="9.183286288318461"><ele>807.0</ele><time>2026-04-11T09:20:27Z</time></trkpt><trkpt lat="40.015709156651404" lon="9.183209330144692"><ele>807.0</ele><time>2026-04-11T09:20:28Z</time></trkpt><trkpt lat="40.01574354300967" lon="9.183051935822812"><ele>807.0</ele><time>2026-04-11T09:20:29Z</time></trkpt><trkpt lat="40.015731458343105" lon="9.182883393716427"><ele>807.0</ele><time>2026-04-11T09:20:30Z</time></trkpt><trkpt lat="40.01568015315874" lon="9.182700910751919"><ele>802.25</ele><time>2026-04-11T09:20:31Z</time></trkpt><trkpt lat="40.015640574855915" lon="9.182541438758866"><ele>797.5</ele><time>2026-04-11T09:20:32Z</time></trkpt><trkpt lat="40.015650302633276" lon="9.182396888940808"><ele>792.75</ele><time>2026-04-11T09:20:33Z</time></trkpt><trkpt lat="40.015716734743684" lon="9.182271239103123"><ele>788.0</ele><time>2026-04-11T09:20:34Z</time></trkpt><trkpt lat="40.01584373911111" lon="9.182204403136401"><ele>788.0</ele><time>2026-04-11T09:20:35Z</time></trkpt><trkpt lat="40.01594109307615" lon="9.182062608936999"><ele>788.0</ele><time>2026-04-11T09:20:36Z</time></trkpt><trkpt lat="40.016013824321206" lon="9.18189810033688"><ele>788.0</ele><time>2026-04-11T09:20:37Z</time></trkpt><trkpt lat="40.016074852951654" lon="9.181744586055459"><ele>788.0</ele><time>2026-04-11T09:20:38Z</time></trkpt><trkpt lat="40.016175880416554" lon="9.181685453869836"><ele>788.0</ele><time>2026-04-11T09:20:39Z</time></trkpt><trkpt lat="40.016285074783845" lon="9.181694289243639"><ele>788.0</ele><time>2026-04-11T09:20:40Z</time></trkpt><trkpt lat="40.01643823708211" lon="9.18167811606791"><ele>788.0</ele><time>2026-04-11T09:20:41Z</time></trkpt><trkpt lat="40.01660365085258" lon="9.181687365250582"><ele>788.0</ele><time>2026-04-11T09:20:42Z</time></trkpt><trkpt lat="40.016787386015494" lon="9.181686145238462"><ele>793.0</ele><time>2026-04-11T09:20:43Z</time></trkpt><trkpt lat="40.01697337587176" lon="9.181689180727773"><ele>798.0</ele><time>2026-04-11T09:20:44Z</time></trkpt><trkpt lat="40.017168507787" lon="9.181677299202306"><ele>803.0</ele><time>2026-04-11T09:20:45Z</time></trkpt><trkpt lat="40.017354807287354" lon="9.181694608055484"><ele>803.25</ele><time>2026-04-11T09:20:46Z</time></trkpt><trkpt lat="40.01751763412723" lon="9.181696631367103"><ele>803.5</ele><time>2026-04-11T09:20:47Z</time></trkpt><trkpt lat="40.017660633705894" lon="9.181719398422615"><ele>803.75</ele><time>2026-04-11T09:20:48Z</time></trkpt><trkpt lat="40.01777238849605" lon="9.181812703166308"><ele>804.0</ele><time>2026-04-11T09:20:49Z</time></trkpt><trkpt lat="40.01785304158597" lon="9.18195667568054"><ele>804.0</ele><time>2026-04-11T09:20:50Z</time></trkpt><trkpt lat="40.01792894137438" lon="9.18208245199285"><ele>804.0</ele><time>2026-04-11T09:20:51Z</time></trkpt><trkpt lat="40.01802602846754" lon="9.182151316348788"><ele>804.0</ele><time>2026-04-11T09:20:52Z</time></trkpt><trkpt lat="40.01812958877114" lon="9.182177002813136"><ele>804.0</ele><time>2026-04-11T09:20:53Z</time></trkpt><trkpt lat="40.01822334797288" lon="9.18216085713688"><ele>804.0</ele><time>2026-04-11T09:20:54Z</time></trkpt><trkpt lat="40.01830521065259" lon="9.182124133085559"><ele>802.8000000000001</ele><time>2026-04-11T09:20:55Z</time></trkpt><trkpt lat="40.01839439749304" lon="9.182128117613814"><ele>801.6</ele><time>2026-04-11T09:20:56Z</time></trkpt><trkpt lat="40.01847280651829" lon="9.182135981478686"><ele>800.4</ele><time>2026-04-11T09:20:57Z</time></trkpt><trkpt lat="40.018554999679665" lon="9.182205267744944"><ele>799.2</ele><time>2026-04-11T09:20:58Z</time></trkpt><trkpt lat="40.01865453783012" lon="9.182279479119593"><ele>798.0</ele><time>2026-04-11T09:20:59Z</time></trkpt><trkpt lat="40.01876093059823" lon="9.182378353515837"><ele>806.0</ele><time>2026-04-11T09:21:00Z</time></trkpt><trkpt lat="40.018903455678256" lon="9.18242859151134"><ele>814.0</ele><time>2026-04-11T09:21:01Z</time></trkpt><trkpt lat="40.019064112742676" lon="9.182458082960805"><ele>822.0</ele><time>2026-04-11T09:21:02Z</time></trkpt><trkpt lat="40.01922406438457" lon="9.18250831884373"><ele>822.0</ele><time>2026-04-11T09:21:03Z</time></trkpt><trkpt lat="40.01939821232483" lon="9.182514928499875"><ele>822.0</ele><time>2026-04-11T09:21:04Z</time></trkpt><trkpt lat="40.01956986083201" lon="9.182541566440317"><ele>822.0</ele><time>2026-04-11T09:21:05Z</time></trkpt><trkpt lat="40.01972732612138" lon="9.18260413124616"><ele>822.0</ele><time>2026-04-11T09:21:06Z</time></trkpt><trkpt lat="40.01987835301391" lon="9.18257910351667"><ele>822.0</ele><time>2026-04-11T09:21:07Z</time></trkpt><trkpt lat="40.02002498780105" lon="9.182607766425084"><ele>822.0</ele><time>2026-04-11T09:21:08Z</time></trkpt><trkpt lat="40.02016577913641" lon="9.182687216431265"><ele>820.3333333333333</ele><time>2026-04-11T09:21:09Z</time></trkpt><trkpt lat="40.02027657424036" lon="9.182838818279135"><ele>818.6666666666666</ele><time>2026-04-11T09:21:10Z</time></trkpt><trkpt lat="40.020399580906954" lon="9.182975107313162"><ele>817.0</ele><time>2026-04-11T09:21:11Z</time></trkpt><trkpt lat="40.02050008670267" lon="9.183131172668707"><ele>820.25</ele><time>2026-04-11T09:21:12Z</time></trkpt><trkpt lat="40.020565520786015" lon="9.18328775215882"><ele>823.5</ele><time>2026-04-11T09:21:13Z</time></trkpt><trkpt lat="40.020654300467925" lon="9.183412483689725"><ele>826.75</ele><time>2026-04-11T09:21:14Z</time></trkpt><trkpt lat="40.020761418901046" lon="9.183509647807675"><ele>830.0</ele><time>2026-04-11T09:21:15Z</time></trkpt><trkpt lat="40.02089303497574" lon="9.183512267512032"><ele>830.0</ele><time>2026-04-11T09:21:16Z</time></trkpt><trkpt lat="40.021002809859276" lon="9.183401836271196"><ele>830.0</ele><time>2026-04-11T09:21:17Z</time></trkpt><trkpt lat="40.021123940325424" lon="9.18334539498514"><ele>830.0</ele><time>2026-04-11T09:21:18Z</time></trkpt><trkpt lat="40.02125574459508" lon="9.18330847266878"><ele>830.0</ele><time>2026-04-11T09:21:19Z</time></trkpt><trkpt lat="40.021399302453716" lon="9.183342387921595"><ele>830.0</ele><time>2026-04-11T09:21:20Z</time></trkpt><trkpt lat="40.02154171186273" lon="9.183406990881528"><ele>830.0</ele><time>2026-04-11T09:21:21Z</time></trkpt><trkpt lat="40.02165489483437" lon="9.183509640965763"><ele>830.0</ele><time>2026-04-11T09:21:22Z</time></trkpt><trkpt lat="40.021772591636356" lon="9.183526845354422"><ele>830.0</ele><time>2026-04-11T09:21:23Z</time></trkpt><trkpt lat="40.02187321802173" lon="9.183481492680594"><ele>831.75</ele><time>2026-04-11T09:21:24Z</time></trkpt><trkpt lat="40.02194583695192" lon="9.183349845670607"><ele>833.5</ele><time>2026-04-11T09:21:25Z</time></trkpt><trkpt lat="40.02194326742069" lon="9.183169627511822"><ele>835.25</ele><time>2026-04-11T09:21:26Z</time></trkpt><trkpt lat="40.021944074145175" lon="9.182994418655106"><ele>837.0</ele><time>2026-04-11T09:21:27Z</time></trkpt><trkpt lat="40.02194858362928" lon="9.182812672534565"><ele>832.25</ele><time>2026-04-11T09:21:28Z</time></trkpt><trkpt lat="40.02194986918953" lon="9.182652458335605"><ele>827.5</ele><time>2026-04-11T09:21:29Z</time></trkpt><trkpt lat="40.02198291051118" lon="9.182521191928785"><ele>822.75</ele><time>2026-04-11T09:21:30Z</time></trkpt><trkpt lat="40.022066011692054" lon="9.182409609365585"><ele>818.0</ele><time>2026-04-11T09:21:31Z</time></trkpt><trkpt lat="40.022179681413995" lon="9.182322445248667"><ele>814.5</ele><time>2026-04-11T09:21:32Z</time></trkpt><trkpt lat="40.022285770463874" lon="9.182212582334204"><ele>811.0</ele><time>2026-04-11T09:21:33Z</time></trkpt><trkpt lat="40.02238319791677" lon="9.182055656699054"><ele>807.5</ele><time>2026-04-11T09:21:34Z</time></trkpt><trkpt lat="40.02244742179206" lon="9.181870694065232"><ele>804.0</ele><time>2026-04-11T09:21:35Z</time></trkpt><trkpt lat="40.022495147492755" lon="9.181685145326844"><ele>809.0</ele><time>2026-04-11T09:21:36Z</time></trkpt><trkpt lat="40.02254870419194" lon="9.181513060924061"><ele>814.0</ele><time>2026-04-11T09:21:37Z</time></trkpt><trkpt lat="40.0226419069114" lon="9.181369296469727"><ele>819.0</ele><time>2026-04-11T09:21:38Z</time></trkpt><trkpt lat="40.022776403065784" lon="9.181250479040022"><ele>824.0</ele><time>2026-04-11T09:21:39Z</time></trkpt><trkpt lat="40.0229193189236" lon="9.181133817147682"><ele>824.0</ele><time>2026-04-11T09:21:40Z</time></trkpt><trkpt lat="40.02305285386494" lon="9.180981311434888"><ele>824.0</ele><time>2026-04-11T09:21:41Z</time></trkpt><trkpt lat="40.023164839219376" lon="9.180784674701897"><ele>824.0</ele><time>2026-04-11T09:21:42Z</time></trkpt><trkpt lat="40.02326088288435" lon="9.180568512821282"><ele>830.3333333333334</ele><time>2026-04-11T09:21:43Z</time></trkpt><trkpt lat="40.02336998284897" lon="9.180381912372374"><ele>836.6666666666667</ele><time>2026-04-11T09:21:44Z</time></trkpt><trkpt lat="40.023459097435214" lon="9.180187031380996"><ele>843.0</ele><time>2026-04-11T09:21:45Z</time></trkpt><trkpt lat="40.02357267776516" lon="9.180022241994157"><ele>843.0</ele><time>2026-04-11T09:21:46Z</time></trkpt><trkpt lat="40.023679609166024" lon="9.17987620740019"><ele>843.0</ele><time>2026-04-11T09:21:47Z</time></trkpt><trkpt lat="40.023764464283026" lon="9.179725172136331"><ele>843.0</ele><time>2026-04-11T09:21:48Z</time></trkpt><trkpt lat="40.02381373042546" lon="9.179553132197334"><ele>843.0</ele><time>2026-04-11T09:21:49Z</time></trkpt><trkpt lat="40.023829075146004" lon="9.179368874034896"><ele>840.5</ele><time>2026-04-11T09:21:50Z</time></trkpt><trkpt lat="40.023867621091355" lon="9.179197565440932"><ele>838.0</ele><time>2026-04-11T09:21:51Z</time></trkpt><trkpt lat="40.02387637379372" lon="9.179017989287301"><ele>835.5</ele><time>2026-04-11T09:21:52Z</time></trkpt><trkpt lat="40.02391811920311" lon="9.178848270665767"><ele>833.0</ele><time>2026-04-11T09:21:53Z</time></trkpt><trkpt lat="40.02396749102743" lon="9.178683021126673"><ele>831.0</ele><time>2026-04-11T09:21:54Z</time></trkpt><trkpt lat="40.02402031691311" lon="9.178518436482753"><ele>829.0</ele><time>2026-04-11T09:21:55Z</time></trkpt><trkpt lat="40.02407495869483" lon="9.178352070929957"><ele>827.0</ele><time>2026-04-11T09:21:56Z</time></trkpt><trkpt lat="40.02414532919238" lon="9.178192039654888"><ele>825.0</ele><time>2026-04-11T09:21:57Z</time></trkpt><trkpt lat="40.02418917205795" lon="9.178016971307265"><ele>832.5</ele><time>2026-04-11T09:21:58Z</time></trkpt><trkpt lat="40.02424793214411" lon="9.177857774037118"><ele>840.0</ele><time>2026-04-11T09:21:59Z</time></trkpt><trkpt lat="40.02430626990507" lon="9.177706562499614"><ele>847.5</ele><time>2026-04-11T09:22:00Z</time></trkpt><trkpt lat="40.02435924706485" lon="9.177557307522243"><ele>855.0</ele><time>2026-04-11T09:22:01Z</time></trkpt><trkpt lat="40.0244057803257" lon="9.177406392264281"><ele>853.5</ele><time>2026-04-11T09:22:02Z</time></trkpt><trkpt lat="40.024449886800866" lon="9.177256121819495"><ele>852.0</ele><time>2026-04-11T09:22:03Z</time></trkpt><trkpt lat="40.02451602152439" lon="9.177122347871231"><ele>850.5</ele><time>2026-04-11T09:22:04Z</time></trkpt><trkpt lat="40.02457787357545" lon="9.176991780118929"><ele>849.0</ele><time>2026-04-11T09:22:05Z</time></trkpt><trkpt lat="40.02465696513677" lon="9.17688226669927"><ele>849.0</ele><time>2026-04-11T09:22:06Z</time></trkpt><trkpt lat="40.02474424591692" lon="9.176774741316542"><ele>849.0</ele><time>2026-04-11T09:22:07Z</time></trkpt><trkpt lat="40.024852174951626" lon="9.176694266909923"><ele>849.0</ele><time>2026-04-11T09:22:08Z</time></trkpt><trkpt lat="40.02492974189772" lon="9.176563379179436"><ele>849.0</ele><time>2026-04-11T09:22:09Z</time></trkpt><trkpt lat="40.024949291712566" lon="9.176394215527912"><ele>847.75</ele><time>2026-04-11T09:22:10Z</time></trkpt><trkpt lat="40.024978070738086" lon="9.176243975784415"><ele>846.5</ele><time>2026-04-11T09:22:11Z</time></trkpt><trkpt lat="40.02499572756865" lon="9.176094928794559"><ele>845.25</ele><time>2026-04-11T09:22:12Z</time></trkpt><trkpt lat="40.025007275554096" lon="9.175941729027615"><ele>844.0</ele><time>2026-04-11T09:22:13Z</time></trkpt><trkpt lat="40.02502283133187" lon="9.175787221874561"><ele>851.0</ele><time>2026-04-11T09:22:14Z</time></trkpt><trkpt lat="40.02504285257071" lon="9.175632200995613"><ele>858.0</ele><time>2026-04-11T09:22:15Z</time></trkpt><trkpt lat="40.02506626040249" lon="9.175475538951181"><ele>865.0</ele><time>2026-04-11T09:22:16Z</time></trkpt><trkpt lat="40.0250962902231" lon="9.175316719617843"><ele>872.0</ele><time>2026-04-11T09:22:17Z</time></trkpt><trkpt lat="40.02514132183127" lon="9.175163721683093"><ele>872.0</ele><time>2026-04-11T09:22:18Z</time></trkpt><trkpt lat="40.02518915051794" lon="9.175028139811257"><ele>872.0</ele><time>2026-04-11T09:22:19Z</time></trkpt><trkpt lat="40.025212840539645" lon="9.174890507418642"><ele>872.0</ele><time>2026-04-11T09:22:20Z</time></trkpt><trkpt lat="40.02518486170035" lon="9.174754056361909"><ele>872.0</ele><time>2026-04-11T09:22:21Z</time></trkpt><trkpt lat="40.02510779872188" lon="9.174650980483046"><ele>872.0</ele><time>2026-04-11T09:22:22Z</time></trkpt><trkpt lat="40.025002711071465" lon="9.174583793962123"><ele>871.75</ele><time>2026-04-11T09:22:23Z</time></trkpt><trkpt lat="40.02489454770887" lon="9.174514830119286"><ele>871.5</ele><time>2026-04-11T09:22:24Z</time></trkpt><trkpt lat="40.02478690437198" lon="9.174436486053606"><ele>871.25</ele><time>2026-04-11T09:22:25Z</time></trkpt><trkpt lat="40.02468183193481" lon="9.174354669963488"><ele>871.0</ele><time>2026-04-11T09:22:26Z</time></trkpt><trkpt lat="40.02457463962617" lon="9.1742696070526"><ele>871.0</ele><time>2026-04-11T09:22:27Z</time></trkpt><trkpt lat="40.02446816488926" lon="9.174193604780084"><ele>870.9999999999999</ele><time>2026-04-11T09:22:28Z</time></trkpt><trkpt lat="40.0243696434246" lon="9.174118679181289"><ele>870.9999999999999</ele><time>2026-04-11T09:22:29Z</time></trkpt><trkpt lat="40.02428798447285" lon="9.174043887402444"><ele>871.0</ele><time>2026-04-11T09:22:30Z</time></trkpt><trkpt lat="40.02424097142492" lon="9.17394220026425"><ele>871.0</ele><time>2026-04-11T09:22:31Z</time></trkpt><trkpt lat="40.02423902604207" lon="9.173804127844596"><ele>869.5999999999999</ele><time>2026-04-11T09:22:32Z</time></trkpt><trkpt lat="40.02427372941899" lon="9.173675505705958"><ele>868.1999999999999</ele><time>2026-04-11T09:22:33Z</time></trkpt><trkpt lat="40.02429103805257" lon="9.173551050160777"><ele>866.8000000000001</ele><time>2026-04-11T09:22:34Z</time></trkpt><trkpt lat="40.024262542643854" lon="9.17343010088812"><ele>865.4000000000001</ele><time>2026-04-11T09:22:35Z</time></trkpt><trkpt lat="40.02420928844715" lon="9.173343477355786"><ele>864.0</ele><time>2026-04-11T09:22:36Z</time></trkpt><trkpt lat="40.02413198439727" lon="9.173280580023663"><ele>864.0</ele><time>2026-04-11T09:22:37Z</time></trkpt><trkpt lat="40.02404158054144" lon="9.17324331218411"><ele>864.0</ele><time>2026-04-11T09:22:38Z</time></trkpt><trkpt lat="40.023970145151566" lon="9.173192359658703"><ele>864.0</ele><time>2026-04-11T09:22:39Z</time></trkpt><trkpt lat="40.02392452798539" lon="9.173121940681016"><ele>864.0</ele><time>2026-04-11T09:22:40Z</time></trkpt><trkpt lat="40.023914066411436" lon="9.173032995869185"><ele>864.0</ele><time>2026-04-11T09:22:41Z</time></trkpt><trkpt lat="40.02393954679296" lon="9.172940489168198"><ele>864.0</ele><time>2026-04-11T09:22:42Z</time></trkpt><trkpt lat="40.02399063085428" lon="9.172852984717874"><ele>864.4000000000001</ele><time>2026-04-11T09:22:43Z</time></trkpt><trkpt lat="40.024052572892614" lon="9.172765440766659"><ele>864.8000000000001</ele><time>2026-04-11T09:22:44Z</time></trkpt><trkpt lat="40.02410909652941" lon="9.172677755726628"><ele>865.1999999999999</ele><time>2026-04-11T09:22:45Z</time></trkpt><trkpt lat="40.02417697795569" lon="9.172582310554473"><ele>865.5999999999999</ele><time>2026-04-11T09:22:46Z</time></trkpt><trkpt lat="40.024250600756304" lon="9.172485446221959"><ele>866.0</ele><time>2026-04-11T09:22:47Z</time></trkpt><trkpt lat="40.024324540379716" lon="9.172389157523867"><ele>871.1999999999999</ele><time>2026-04-11T09:22:48Z</time></trkpt><trkpt lat="40.02439165687394" lon="9.172287846991225"><ele>876.3999999999999</ele><time>2026-04-11T09:22:49Z</time></trkpt><trkpt lat="40.024432427687024" lon="9.172178066174602"><ele>881.6</ele><time>2026-04-11T09:22:50Z</time></trkpt><trkpt lat="40.02443812092119" lon="9.172058840041846"><ele>886.8</ele><time>2026-04-11T09:22:51Z</time></trkpt><trkpt lat="40.02439875216841" lon="9.171961122047644"><ele>892.0</ele><time>2026-04-11T09:22:52Z</time></trkpt><trkpt lat="40.02432104528669" lon="9.171893171533334"><ele>892.0</ele><time>2026-04-11T09:22:53Z</time></trkpt><trkpt lat="40.0242283403413" lon="9.171843065325199"><ele>892.0</ele><time>2026-04-11T09:22:54Z</time></trkpt><trkpt lat="40.02412873625658" lon="9.171792894166934"><ele>892.0</ele><time>2026-04-11T09:22:55Z</time></trkpt><trkpt lat="40.02402905891317" lon="9.171735302169036"><ele>892.0</ele><time>2026-04-11T09:22:56Z</time></trkpt><trkpt lat="40.0239430237099" lon="9.17165911732415"><ele>892.0</ele><time>2026-04-11T09:22:57Z</time></trkpt><trkpt lat="40.02388839321542" lon="9.171550147035308"><ele>892.8333333333333</ele><time>2026-04-11T09:22:58Z</time></trkpt><trkpt lat="40.023884867598426" lon="9.171430297988962"><ele>893.6666666666666</ele><time>2026-04-11T09:22:59Z</time></trkpt><trkpt lat="40.023915739957836" lon="9.171327024404814"><ele>894.5</ele><time>2026-04-11T09:23:00Z</time></trkpt><trkpt lat="40.02396508753512" lon="9.171233993042256"><ele>895.3333333333333</ele><time>2026-04-11T09:23:01Z</time></trkpt><trkpt lat="40.02401066419037" lon="9.171143934570024"><ele>896.1666666666666</ele><time>2026-04-11T09:23:02Z</time></trkpt><trkpt lat="40.024044550560646" lon="9.171040622049851"><ele>897.0</ele><time>2026-04-11T09:23:03Z</time></trkpt><trkpt lat="40.02408331787047" lon="9.170965575815936"><ele>897.0</ele><time>2026-04-11T09:23:04Z</time></trkpt><trkpt lat="40.02413625097382" lon="9.1708900123415"><ele>897.0</ele><time>2026-04-11T09:23:06Z</time></trkpt><trkpt lat="40.02417583757986" lon="9.170802439977571"><ele>897.0</ele><time>2026-04-11T09:23:08Z</time></trkpt><trkpt lat="40.024205539620205" lon="9.170686043363329"><ele>897.0</ele><time>2026-04-11T09:23:10Z</time></trkpt><trkpt lat="40.02416905176872" lon="9.170504886709075"><ele>897.0</ele><time>2026-04-11T09:23:12Z</time></trkpt><trkpt lat="40.02413247371883" lon="9.170402677280853"><ele>896.0</ele><time>2026-04-11T09:23:13Z</time></trkpt><trkpt lat="40.02409775453028" lon="9.170289841592812"><ele>895.0</ele><time>2026-04-11T09:23:14Z</time></trkpt><trkpt lat="40.02406462453425" lon="9.170168599225837"><ele>894.0</ele><time>2026-04-11T09:23:15Z</time></trkpt><trkpt lat="40.024023139425154" lon="9.170048678704024"><ele>893.0</ele><time>2026-04-11T09:23:16Z</time></trkpt><trkpt lat="40.02397850300835" lon="9.169927844355914"><ele>892.0</ele><time>2026-04-11T09:23:17Z</time></trkpt><trkpt lat="40.02393878361873" lon="9.169811762752014"><ele>891.4000000000001</ele><time>2026-04-11T09:23:18Z</time></trkpt><trkpt lat="40.023900399221525" lon="9.169695670604275"><ele>890.8000000000001</ele><time>2026-04-11T09:23:19Z</time></trkpt><trkpt lat="40.02386466411061" lon="9.169585056770027"><ele>890.2</ele><time>2026-04-11T09:23:20Z</time></trkpt><trkpt lat="40.023825978167096" lon="9.169479790999025"><ele>889.6</ele><time>2026-04-11T09:23:21Z</time></trkpt><trkpt lat="40.023790048935474" lon="9.169374362686066"><ele>889.0</ele><time>2026-04-11T09:23:22Z</time></trkpt><trkpt lat="40.02376278509175" lon="9.169266978164929"><ele>889.0</ele><time>2026-04-11T09:23:23Z</time></trkpt><trkpt lat="40.023745783421234" lon="9.16915249832362"><ele>889.0000000000001</ele><time>2026-04-11T09:23:24Z</time></trkpt><trkpt lat="40.02374074848802" lon="9.16902888345822"><ele>889.0000000000001</ele><time>2026-04-11T09:23:25Z</time></trkpt><trkpt lat="40.023754967607445" lon="9.168903406787454"><ele>889.0</ele><time>2026-04-11T09:23:26Z</time></trkpt><trkpt lat="40.02380604707284" lon="9.168797954939809"><ele>889.0</ele><time>2026-04-11T09:23:27Z</time></trkpt><trkpt lat="40.02384502109996" lon="9.168688532823998"><ele>889.4000000000001</ele><time>2026-04-11T09:23:28Z</time></trkpt><trkpt lat="40.02390625954028" lon="9.16859692573764"><ele>889.8000000000001</ele><time>2026-04-11T09:23:29Z</time></trkpt><trkpt lat="40.02396493410435" lon="9.168503847025553"><ele>890.1999999999999</ele><time>2026-04-11T09:23:30Z</time></trkpt><trkpt lat="40.02401960422111" lon="9.1684010555646"><ele>890.5999999999999</ele><time>2026-04-11T09:23:31Z</time></trkpt><trkpt lat="40.024074659435556" lon="9.168294567328635"><ele>891.0</ele><time>2026-04-11T09:23:32Z</time></trkpt><trkpt lat="40.02411801188466" lon="9.168177901195312"><ele>890.0</ele><time>2026-04-11T09:23:33Z</time></trkpt><trkpt lat="40.02414039277785" lon="9.168059953779682"><ele>888.9999999999999</ele><time>2026-04-11T09:23:34Z</time></trkpt><trkpt lat="40.02414073760958" lon="9.167939727381391"><ele>887.9999999999999</ele><time>2026-04-11T09:23:35Z</time></trkpt><trkpt lat="40.024117598315435" lon="9.16782579275524"><ele>887.0</ele><time>2026-04-11T09:23:36Z</time></trkpt><trkpt lat="40.024049874811915" lon="9.167731853746732"><ele>886.0</ele><time>2026-04-11T09:23:37Z</time></trkpt><trkpt lat="40.023958053311674" lon="9.167659445053983"><ele>886.0</ele><time>2026-04-11T09:23:38Z</time></trkpt><trkpt lat="40.023862082483866" lon="9.167588892154917"><ele>886.0</ele><time>2026-04-11T09:23:39Z</time></trkpt><trkpt lat="40.02376741151592" lon="9.167508581701085"><ele>886.0</ele><time>2026-04-11T09:23:40Z</time></trkpt><trkpt lat="40.02367273808466" lon="9.16742256456649"><ele>886.0</ele><time>2026-04-11T09:23:41Z</time></trkpt><trkpt lat="40.023576874315715" lon="9.167334274505205"><ele>884.75</ele><time>2026-04-11T09:23:42Z</time></trkpt><trkpt lat="40.02347902820712" lon="9.167247132721934"><ele>883.5</ele><time>2026-04-11T09:23:43Z</time></trkpt><trkpt lat="40.023379080691065" lon="9.167159813770581"><ele>882.25</ele><time>2026-04-11T09:23:44Z</time></trkpt><trkpt lat="40.02327379172634" lon="9.167072070731846"><ele>881.0</ele><time>2026-04-11T09:23:45Z</time></trkpt><trkpt lat="40.02316724206143" lon="9.166977767630307"><ele>881.0</ele><time>2026-04-11T09:23:46Z</time></trkpt><trkpt lat="40.023059067464075" lon="9.16687974478387"><ele>881.0</ele><time>2026-04-11T09:23:47Z</time></trkpt><trkpt lat="40.02295442825348" lon="9.166782711385794"><ele>881.0</ele><time>2026-04-11T09:23:48Z</time></trkpt><trkpt lat="40.02285333572392" lon="9.166699310357146"><ele>881.0</ele><time>2026-04-11T09:23:49Z</time></trkpt><trkpt lat="40.02274784347892" lon="9.166634110019126"><ele>881.0</ele><time>2026-04-11T09:23:50Z</time></trkpt><trkpt lat="40.02264135935144" lon="9.166580606794376"><ele>880.9999999999999</ele><time>2026-04-11T09:23:51Z</time></trkpt><trkpt lat="40.022537484195176" lon="9.166520257554597"><ele>880.9999999999999</ele><time>2026-04-11T09:23:52Z</time></trkpt><trkpt lat="40.02245251297851" lon="9.16643103826092"><ele>881.0</ele><time>2026-04-11T09:23:53Z</time></trkpt><trkpt lat="40.022384123795" lon="9.1663142173858"><ele>881.0</ele><time>2026-04-11T09:23:54Z</time></trkpt><trkpt lat="40.02235535133621" lon="9.16617131495597"><ele>881.5</ele><time>2026-04-11T09:23:55Z</time></trkpt><trkpt lat="40.02237681964057" lon="9.166023851397796"><ele>882.0</ele><time>2026-04-11T09:23:56Z</time></trkpt><trkpt lat="40.02244079975907" lon="9.165902243128764"><ele>882.5</ele><time>2026-04-11T09:23:57Z</time></trkpt><trkpt lat="40.0225274856448" lon="9.165790491727813"><ele>883.0</ele><time>2026-04-11T09:23:58Z</time></trkpt><trkpt lat="40.02261645804212" lon="9.165684686427173"><ele>883.0</ele><time>2026-04-11T09:23:59Z</time></trkpt><trkpt lat="40.0226822235684" lon="9.16554979995424"><ele>883.0</ele><time>2026-04-11T09:24:00Z</time></trkpt><trkpt lat="40.022757674439056" lon="9.165442351910684"><ele>883.0</ele><time>2026-04-11T09:24:01Z</time></trkpt><trkpt lat="40.022831242672275" lon="9.165363980020155"><ele>883.0</ele><time>2026-04-11T09:24:02Z</time></trkpt><trkpt lat="40.02292300947399" lon="9.165339262779662"><ele>883.0</ele><time>2026-04-11T09:24:03Z</time></trkpt><trkpt lat="40.02300046929687" lon="9.165390847332171"><ele>883.0</ele><time>2026-04-11T09:24:04Z</time></trkpt><trkpt lat="40.02304590270863" lon="9.165497974349478"><ele>883.0</ele><time>2026-04-11T09:24:05Z</time></trkpt><trkpt lat="40.02309084766553" lon="9.165624965983085"><ele>883.0</ele><time>2026-04-11T09:24:06Z</time></trkpt><trkpt lat="40.02315489304332" lon="9.16573620674665"><ele>883.0</ele><time>2026-04-11T09:24:07Z</time></trkpt><trkpt lat="40.023254847069126" lon="9.165822871510573"><ele>883.0</ele><time>2026-04-11T09:24:08Z</time></trkpt><trkpt lat="40.02337337670154" lon="9.165852096622363"><ele>878.25</ele><time>2026-04-11T09:24:09Z</time></trkpt><trkpt lat="40.023504275150714" lon="9.16584204400261"><ele>873.5</ele><time>2026-04-11T09:24:10Z</time></trkpt><trkpt lat="40.02363123607966" lon="9.165828734836499"><ele>868.75</ele><time>2026-04-11T09:24:11Z</time></trkpt><trkpt lat="40.02376533761988" lon="9.165843769993984"><ele>864.0</ele><time>2026-04-11T09:24:12Z</time></trkpt><trkpt lat="40.02388772914613" lon="9.165951216891127"><ele>864.0</ele><time>2026-04-11T09:24:13Z</time></trkpt><trkpt lat="40.02399388719673" lon="9.166078064484724"><ele>864.0</ele><time>2026-04-11T09:24:14Z</time></trkpt><trkpt lat="40.024114234868854" lon="9.166171884985694"><ele>864.0</ele><time>2026-04-11T09:24:15Z</time></trkpt><trkpt lat="40.024272098623115" lon="9.166178486795"><ele>864.0</ele><time>2026-04-11T09:24:16Z</time></trkpt><trkpt lat="40.02442723068868" lon="9.166203396065514"><ele>863.6666666666667</ele><time>2026-04-11T09:24:17Z</time></trkpt><trkpt lat="40.02457724877911" lon="9.166220981422986"><ele>863.3333333333334</ele><time>2026-04-11T09:24:18Z</time></trkpt><trkpt lat="40.024728921161135" lon="9.16620859285665"><ele>863.0</ele><time>2026-04-11T09:24:19Z</time></trkpt><trkpt lat="40.0248849827576" lon="9.166179801503741"><ele>862.0</ele><time>2026-04-11T09:24:20Z</time></trkpt><trkpt lat="40.02504486877912" lon="9.166158909135309"><ele>861.0</ele><time>2026-04-11T09:24:21Z</time></trkpt><trkpt lat="40.02520829866225" lon="9.166144155924217"><ele>860.0</ele><time>2026-04-11T09:24:22Z</time></trkpt><trkpt lat="40.02537531248657" lon="9.166127399101534"><ele>860.0</ele><time>2026-04-11T09:24:23Z</time></trkpt><trkpt lat="40.02554603234041" lon="9.166113776663009"><ele>860.0</ele><time>2026-04-11T09:24:24Z</time></trkpt><trkpt lat="40.02571614134862" lon="9.166025934826779"><ele>860.0</ele><time>2026-04-11T09:24:25Z</time></trkpt><trkpt lat="40.02587526770717" lon="9.165916063361484"><ele>858.0</ele><time>2026-04-11T09:24:26Z</time></trkpt><trkpt lat="40.026024491344415" lon="9.165799431536975"><ele>856.0</ele><time>2026-04-11T09:24:27Z</time></trkpt><trkpt lat="40.026198551732534" lon="9.16578787448231"><ele>854.0</ele><time>2026-04-11T09:24:28Z</time></trkpt><trkpt lat="40.02636683790448" lon="9.165762797735345"><ele>854.0</ele><time>2026-04-11T09:24:29Z</time></trkpt><trkpt lat="40.02653298767405" lon="9.16575059613598"><ele>854.0</ele><time>2026-04-11T09:24:30Z</time></trkpt><trkpt lat="40.02669837358537" lon="9.165708352641927"><ele>854.0</ele><time>2026-04-11T09:24:31Z</time></trkpt><trkpt lat="40.026820993187144" lon="9.16557538326458"><ele>854.25</ele><time>2026-04-11T09:24:32Z</time></trkpt><trkpt lat="40.02694289030474" lon="9.165467650483256"><ele>854.5</ele><time>2026-04-11T09:24:33Z</time></trkpt><trkpt lat="40.02707072613111" lon="9.165389142435734"><ele>854.75</ele><time>2026-04-11T09:24:34Z</time></trkpt><trkpt lat="40.02722050825374" lon="9.16537021755175"><ele>855.0</ele><time>2026-04-11T09:24:35Z</time></trkpt><trkpt lat="40.02737965586972" lon="9.165409218558125"><ele>854.0</ele><time>2026-04-11T09:24:36Z</time></trkpt><trkpt lat="40.02754391377914" lon="9.165448523335245"><ele>853.0</ele><time>2026-04-11T09:24:37Z</time></trkpt><trkpt lat="40.027695651645026" lon="9.165511661947827"><ele>852.0</ele><time>2026-04-11T09:24:38Z</time></trkpt><trkpt lat="40.02784756050041" lon="9.16555272248039"><ele>852.0</ele><time>2026-04-11T09:24:39Z</time></trkpt><trkpt lat="40.027992969901" lon="9.16556228374375"><ele>852.0</ele><time>2026-04-11T09:24:40Z</time></trkpt><trkpt lat="40.028124717068344" lon="9.165507474006153"><ele>852.0</ele><time>2026-04-11T09:24:41Z</time></trkpt><trkpt lat="40.0282331034696" lon="9.165396459833808"><ele>852.0</ele><time>2026-04-11T09:24:42Z</time></trkpt><trkpt lat="40.02830239283143" lon="9.165247267710958"><ele>848.0</ele><time>2026-04-11T09:24:43Z</time></trkpt><trkpt lat="40.028337853145075" lon="9.16506711608112"><ele>844.0</ele><time>2026-04-11T09:24:44Z</time></trkpt><trkpt lat="40.02835284015539" lon="9.164874478552052"><ele>840.0</ele><time>2026-04-11T09:24:45Z</time></trkpt><trkpt lat="40.0283683057225" lon="9.164687985985243"><ele>836.0</ele><time>2026-04-11T09:24:46Z</time></trkpt><trkpt lat="40.028359492691145" lon="9.164513494305528"><ele>836.3333333333334</ele><time>2026-04-11T09:24:47Z</time></trkpt><trkpt lat="40.028315628647924" lon="9.164326478847526"><ele>836.6666666666667</ele><time>2026-04-11T09:24:48Z</time></trkpt><trkpt lat="40.02824405440236" lon="9.164144717641422"><ele>837.0</ele><time>2026-04-11T09:24:49Z</time></trkpt><trkpt lat="40.02819607861545" lon="9.163946352901158"><ele>837.0</ele><time>2026-04-11T09:24:50Z</time></trkpt><trkpt lat="40.028161675389555" lon="9.163762334072285"><ele>837.0</ele><time>2026-04-11T09:24:51Z</time></trkpt><trkpt lat="40.02808897143206" lon="9.163618062362314"><ele>837.0</ele><time>2026-04-11T09:24:52Z</time></trkpt><trkpt lat="40.02797522482316" lon="9.163512762184201"><ele>837.0</ele><time>2026-04-11T09:24:53Z</time></trkpt><trkpt lat="40.02783859967207" lon="9.16344731106547"><ele>837.0</ele><time>2026-04-11T09:24:54Z</time></trkpt><trkpt lat="40.02771502357886" lon="9.163359686953756"><ele>837.0</ele><time>2026-04-11T09:24:55Z</time></trkpt><trkpt lat="40.027640977316544" lon="9.163188809468206"><ele>837.0</ele><time>2026-04-11T09:24:56Z</time></trkpt><trkpt lat="40.027547259394325" lon="9.163011158006752"><ele>833.75</ele><time>2026-04-11T09:24:57Z</time></trkpt><trkpt lat="40.0274761648717" lon="9.16283381179482"><ele>830.5</ele><time>2026-04-11T09:24:58Z</time></trkpt><trkpt lat="40.02739036646383" lon="9.162700340837414"><ele>827.25</ele><time>2026-04-11T09:24:59Z</time></trkpt><trkpt lat="40.02727504687105" lon="9.162622807795218"><ele>824.0</ele><time>2026-04-11T09:25:00Z</time></trkpt><trkpt lat="40.027131965391305" lon="9.162585747980188"><ele>824.0</ele><time>2026-04-11T09:25:01Z</time></trkpt><trkpt lat="40.026974240933335" lon="9.162560204799789"><ele>824.0</ele><time>2026-04-11T09:25:02Z</time></trkpt><trkpt lat="40.02681767749468" lon="9.162507296230446"><ele>824.0</ele><time>2026-04-11T09:25:03Z</time></trkpt><trkpt lat="40.02665853557081" lon="9.16244372648169"><ele>823.6666666666667</ele><time>2026-04-11T09:25:04Z</time></trkpt><trkpt lat="40.02649758758697" lon="9.162392420166052"><ele>823.3333333333333</ele><time>2026-04-11T09:25:05Z</time></trkpt><trkpt lat="40.0263404876222" lon="9.162367803592264"><ele>823.0</ele><time>2026-04-11T09:25:06Z</time></trkpt><trkpt lat="40.0261957441314" lon="9.162359871774392"><ele>823.0</ele><time>2026-04-11T09:25:07Z</time></trkpt><trkpt lat="40.026066961599334" lon="9.162339484660748"><ele>823.0</ele><time>2026-04-11T09:25:08Z</time></trkpt><trkpt lat="40.025969698629204" lon="9.16228182404296"><ele>823.0</ele><time>2026-04-11T09:25:09Z</time></trkpt><trkpt lat="40.0259144170403" lon="9.162184496719144"><ele>823.0</ele><time>2026-04-11T09:25:10Z</time></trkpt><trkpt lat="40.02591110814728" lon="9.162064514539493"><ele>823.0</ele><time>2026-04-11T09:25:11Z</time></trkpt><trkpt lat="40.02597412049661" lon="9.161958937559541"><ele>823.0</ele><time>2026-04-11T09:25:12Z</time></trkpt><trkpt lat="40.026045983620314" lon="9.161852277807942"><ele>823.0</ele><time>2026-04-11T09:25:13Z</time></trkpt><trkpt lat="40.026159067258256" lon="9.161767106495935"><ele>823.0</ele><time>2026-04-11T09:25:14Z</time></trkpt><trkpt lat="40.02628079375689" lon="9.161695451641501"><ele>823.0</ele><time>2026-04-11T09:25:15Z</time></trkpt><trkpt lat="40.026427171923295" lon="9.161664029530192"><ele>823.0</ele><time>2026-04-11T09:25:16Z</time></trkpt><trkpt lat="40.02658722594302" lon="9.161664039979675"><ele>823.0</ele><time>2026-04-11T09:25:17Z</time></trkpt><trkpt lat="40.026744965522674" lon="9.161691786894991"><ele>823.0</ele><time>2026-04-11T09:25:18Z</time></trkpt><trkpt lat="40.02688695938906" lon="9.161770260181953"><ele>822.75</ele><time>2026-04-11T09:25:19Z</time></trkpt><trkpt lat="40.02701254034016" lon="9.161862644374212"><ele>822.5</ele><time>2026-04-11T09:25:20Z</time></trkpt><trkpt lat="40.02714319629076" lon="9.161890232894917"><ele>822.25</ele><time>2026-04-11T09:25:21Z</time></trkpt><trkpt lat="40.027286349092314" lon="9.161867002834805"><ele>822.0</ele><time>2026-04-11T09:25:22Z</time></trkpt><trkpt lat="40.027430305542374" lon="9.161877638500455"><ele>823.3333333333333</ele><time>2026-04-11T09:25:23Z</time></trkpt><trkpt lat="40.02757598071959" lon="9.161955751800447"><ele>824.6666666666666</ele><time>2026-04-11T09:25:24Z</time></trkpt><trkpt lat="40.02770409487375" lon="9.1620749579229"><ele>826.0</ele><time>2026-04-11T09:25:25Z</time></trkpt><trkpt lat="40.027809368906965" lon="9.162230234305174"><ele>824.0</ele><time>2026-04-11T09:25:26Z</time></trkpt><trkpt lat="40.02790753977416" lon="9.162380899710184"><ele>822.0</ele><time>2026-04-11T09:25:27Z</time></trkpt><trkpt lat="40.028032615289234" lon="9.162483982324787"><ele>820.0</ele><time>2026-04-11T09:25:28Z</time></trkpt><trkpt lat="40.028180468506505" lon="9.162543513428504"><ele>818.5</ele><time>2026-04-11T09:25:29Z</time></trkpt><trkpt lat="40.028326485966225" lon="9.162565065671963"><ele>817.0</ele><time>2026-04-11T09:25:30Z</time></trkpt><trkpt lat="40.02846933124923" lon="9.162527407973315"><ele>815.5</ele><time>2026-04-11T09:25:31Z</time></trkpt><trkpt lat="40.02860654487951" lon="9.162434368768546"><ele>814.0</ele><time>2026-04-11T09:25:32Z</time></trkpt><trkpt lat="40.02874903929583" lon="9.162347132256025"><ele>819.6666666666666</ele><time>2026-04-11T09:25:33Z</time></trkpt><trkpt lat="40.028891379888506" lon="9.16227037155292"><ele>825.3333333333333</ele><time>2026-04-11T09:25:34Z</time></trkpt><trkpt lat="40.029014280931946" lon="9.162164533317409"><ele>831.0</ele><time>2026-04-11T09:25:35Z</time></trkpt><trkpt lat="40.02910893140375" lon="9.162012229530383"><ele>828.75</ele><time>2026-04-11T09:25:36Z</time></trkpt><trkpt lat="40.029189551122286" lon="9.161845426362731"><ele>826.5</ele><time>2026-04-11T09:25:37Z</time></trkpt><trkpt lat="40.02926682233965" lon="9.161692318764697"><ele>824.25</ele><time>2026-04-11T09:25:38Z</time></trkpt><trkpt lat="40.029345411486716" lon="9.161568617364741"><ele>822.0</ele><time>2026-04-11T09:25:39Z</time></trkpt><trkpt lat="40.02944596945161" lon="9.161502479182921"><ele>822.0</ele><time>2026-04-11T09:25:40Z</time></trkpt><trkpt lat="40.029579717743815" lon="9.161483317468413"><ele>822.0</ele><time>2026-04-11T09:25:41Z</time></trkpt><trkpt lat="40.02971312079822" lon="9.161507274515913"><ele>822.0</ele><time>2026-04-11T09:25:42Z</time></trkpt><trkpt lat="40.029841219357806" lon="9.161577499905965"><ele>822.0</ele><time>2026-04-11T09:25:43Z</time></trkpt><trkpt lat="40.02995625966645" lon="9.161672239374779"><ele>819.25</ele><time>2026-04-11T09:25:44Z</time></trkpt><trkpt lat="40.030066517881494" lon="9.161742932893388"><ele>816.5</ele><time>2026-04-11T09:25:45Z</time></trkpt><trkpt lat="40.0301797393092" lon="9.161767501474369"><ele>813.75</ele><time>2026-04-11T09:25:46Z</time></trkpt><trkpt lat="40.03030481941474" lon="9.161749634708231"><ele>811.0</ele><time>2026-04-11T09:25:47Z</time></trkpt><trkpt lat="40.03043506281375" lon="9.161724716578487"><ele>811.0</ele><time>2026-04-11T09:25:48Z</time></trkpt><trkpt lat="40.03056804001166" lon="9.161725139427094"><ele>811.0</ele><time>2026-04-11T09:25:49Z</time></trkpt><trkpt lat="40.03070124338916" lon="9.161754923557787"><ele>811.0</ele><time>2026-04-11T09:25:50Z</time></trkpt><trkpt lat="40.03083104221661" lon="9.16182149932664"><ele>811.0</ele><time>2026-04-11T09:25:51Z</time></trkpt><trkpt lat="40.030957499982215" lon="9.161916217843435"><ele>812.25</ele><time>2026-04-11T09:25:52Z</time></trkpt><trkpt lat="40.03107034156861" lon="9.162033126111215"><ele>813.5</ele><time>2026-04-11T09:25:53Z</time></trkpt><trkpt lat="40.03115587674133" lon="9.162161340733604"><ele>814.75</ele><time>2026-04-11T09:25:54Z</time></trkpt><trkpt lat="40.03124830092628" lon="9.16225527820594"><ele>816.0</ele><time>2026-04-11T09:25:55Z</time></trkpt><trkpt lat="40.03136678952479" lon="9.162296940947776"><ele>816.0</ele><time>2026-04-11T09:25:56Z</time></trkpt><trkpt lat="40.03150275271297" lon="9.16229523660969"><ele>816.0</ele><time>2026-04-11T09:25:57Z</time></trkpt><trkpt lat="40.03164152853127" lon="9.16228306026774"><ele>816.0</ele><time>2026-04-11T09:25:58Z</time></trkpt><trkpt lat="40.03177924566965" lon="9.162283595444176"><ele>816.0</ele><time>2026-04-11T09:25:59Z</time></trkpt><trkpt lat="40.031902985444304" lon="9.162291606281052"><ele>818.0</ele><time>2026-04-11T09:26:00Z</time></trkpt><trkpt lat="40.0320180845813" lon="9.16228745837024"><ele>820.0</ele><time>2026-04-11T09:26:01Z</time></trkpt><trkpt lat="40.03212353286233" lon="9.162271233894769"><ele>822.0</ele><time>2026-04-11T09:26:02Z</time></trkpt><trkpt lat="40.03221423206309" lon="9.162246433327036"><ele>824.0</ele><time>2026-04-11T09:26:03Z</time></trkpt><trkpt lat="40.032300562480756" lon="9.162230372814406"><ele>826.0</ele><time>2026-04-11T09:26:04Z</time></trkpt><trkpt lat="40.03238219047197" lon="9.162249189801289"><ele>826.0</ele><time>2026-04-11T09:26:05Z</time></trkpt><trkpt lat="40.03245534904983" lon="9.162241247099978"><ele>826.0</ele><time>2026-04-11T09:26:06Z</time></trkpt><trkpt lat="40.032535998226024" lon="9.162405906250024"><ele>826.0</ele><time>2026-04-11T09:26:07Z</time></trkpt><trkpt lat="40.03259975933265" lon="9.162529144504314"><ele>826.0</ele><time>2026-04-11T09:26:08Z</time></trkpt><trkpt lat="40.03267490020422" lon="9.162631124366696"><ele>826.0</ele><time>2026-04-11T09:26:09Z</time></trkpt><trkpt lat="40.032780593980036" lon="9.162689518615723"><ele>822.5</ele><time>2026-04-11T09:26:10Z</time></trkpt><trkpt lat="40.032897152903786" lon="9.162678613348758"><ele>819.0</ele><time>2026-04-11T09:26:11Z</time></trkpt><trkpt lat="40.033006283076446" lon="9.162604678172581"><ele>815.5</ele><time>2026-04-11T09:26:12Z</time></trkpt><trkpt lat="40.03310915006145" lon="9.162485036828198"><ele>812.0</ele><time>2026-04-11T09:26:13Z</time></trkpt><trkpt lat="40.03319161206646" lon="9.162320595579354"><ele>812.0</ele><time>2026-04-11T09:26:14Z</time></trkpt><trkpt lat="40.0332597790735" lon="9.162128314581485"><ele>812.0</ele><time>2026-04-11T09:26:15Z</time></trkpt><trkpt lat="40.03335680216493" lon="9.161954345222949"><ele>812.0</ele><time>2026-04-11T09:26:16Z</time></trkpt><trkpt lat="40.03345282869158" lon="9.161782821206096"><ele>808.0</ele><time>2026-04-11T09:26:17Z</time></trkpt><trkpt lat="40.033583649369426" lon="9.16165725551314"><ele>804.0</ele><time>2026-04-11T09:26:18Z</time></trkpt><trkpt lat="40.033736542230955" lon="9.16157015101737"><ele>800.0</ele><time>2026-04-11T09:26:19Z</time></trkpt><trkpt lat="40.03391219128222" lon="9.161562711921468"><ele>801.6666666666667</ele><time>2026-04-11T09:26:20Z</time></trkpt><trkpt lat="40.03407726803712" lon="9.161476076725933"><ele>803.3333333333333</ele><time>2026-04-11T09:26:21Z</time></trkpt><trkpt lat="40.03424303857014" lon="9.161384381662378"><ele>805.0</ele><time>2026-04-11T09:26:22Z</time></trkpt><trkpt lat="40.034434121574904" lon="9.161283657834902"><ele>805.0</ele><time>2026-04-11T09:26:23Z</time></trkpt><trkpt lat="40.034634644416954" lon="9.161159580188972"><ele>805.0</ele><time>2026-04-11T09:26:24Z</time></trkpt><trkpt lat="40.03484720355484" lon="9.161028055100726"><ele>804.0</ele><time>2026-04-11T09:26:25Z</time></trkpt><trkpt lat="40.035062902389484" lon="9.16089355270181"><ele>803.0</ele><time>2026-04-11T09:26:26Z</time></trkpt><trkpt lat="40.035267469380024" lon="9.160760699303275"><ele>801.3333333333334</ele><time>2026-04-11T09:26:27Z</time></trkpt><trkpt lat="40.035450731530375" lon="9.160610513099604"><ele>799.6666666666667</ele><time>2026-04-11T09:26:28Z</time></trkpt><trkpt lat="40.035612796894235" lon="9.16046912228089"><ele>798.0</ele><time>2026-04-11T09:26:29Z</time></trkpt><trkpt lat="40.03575932706744" lon="9.160347615728496"><ele>796.0</ele><time>2026-04-11T09:26:30Z</time></trkpt><trkpt lat="40.0359067552178" lon="9.160256015909654"><ele>794.0</ele><time>2026-04-11T09:26:31Z</time></trkpt><trkpt lat="40.03607451799617" lon="9.160245094452257"><ele>792.0</ele><time>2026-04-11T09:26:32Z</time></trkpt><trkpt lat="40.03625472121086" lon="9.160294702327379"><ele>792.0</ele><time>2026-04-11T09:26:33Z</time></trkpt><trkpt lat="40.03642275096325" lon="9.160306598385567"><ele>792.0</ele><time>2026-04-11T09:26:34Z</time></trkpt><trkpt lat="40.036562115009474" lon="9.160383455698689"><ele>792.0</ele><time>2026-04-11T09:26:35Z</time></trkpt><trkpt lat="40.03667130043991" lon="9.160508222102498"><ele>792.2</ele><time>2026-04-11T09:26:36Z</time></trkpt><trkpt lat="40.036763545944915" lon="9.160608669864569"><ele>792.4000000000001</ele><time>2026-04-11T09:26:37Z</time></trkpt><trkpt lat="40.036855511342345" lon="9.16062064735814"><ele>792.5999999999999</ele><time>2026-04-11T09:26:38Z</time></trkpt><trkpt lat="40.036933527264395" lon="9.160558558941103"><ele>792.8</ele><time>2026-04-11T09:26:39Z</time></trkpt><trkpt lat="40.03700623449782" lon="9.160424450673426"><ele>793.0</ele><time>2026-04-11T09:26:40Z</time></trkpt><trkpt lat="40.03709954044472" lon="9.160274853242376"><ele>793.0</ele><time>2026-04-11T09:26:41Z</time></trkpt><trkpt lat="40.03721062087793" lon="9.160117943780536"><ele>793.0</ele><time>2026-04-11T09:26:42Z</time></trkpt><trkpt lat="40.03731608452744" lon="9.159971569375982"><ele>793.0</ele><time>2026-04-11T09:26:43Z</time></trkpt><trkpt lat="40.037425582966506" lon="9.159847497145504"><ele>789.3333333333333</ele><time>2026-04-11T09:26:44Z</time></trkpt><trkpt lat="40.03756127233321" lon="9.15977635108252"><ele>785.6666666666667</ele><time>2026-04-11T09:26:45Z</time></trkpt><trkpt lat="40.03772471283126" lon="9.159748956401955"><ele>782.0</ele><time>2026-04-11T09:26:46Z</time></trkpt><trkpt lat="40.03787480186286" lon="9.159653683588681"><ele>782.0</ele><time>2026-04-11T09:26:47Z</time></trkpt><trkpt lat="40.03800313369588" lon="9.159491976970633"><ele>782.0</ele><time>2026-04-11T09:26:48Z</time></trkpt><trkpt lat="40.03813955042165" lon="9.159317980379715"><ele>782.0</ele><time>2026-04-11T09:26:49Z</time></trkpt><trkpt lat="40.03831159416906" lon="9.15918246524486"><ele>779.3333333333334</ele><time>2026-04-11T09:26:50Z</time></trkpt><trkpt lat="40.03847807331859" lon="9.159025182459748"><ele>776.6666666666667</ele><time>2026-04-11T09:26:51Z</time></trkpt><trkpt lat="40.03863866289293" lon="9.158899106222767"><ele>774.0</ele><time>2026-04-11T09:26:52Z</time></trkpt><trkpt lat="40.03879031873654" lon="9.158749780596686"><ele>774.0</ele><time>2026-04-11T09:26:53Z</time></trkpt><trkpt lat="40.03892433692831" lon="9.158572034610236"><ele>774.0</ele><time>2026-04-11T09:26:54Z</time></trkpt><trkpt lat="40.039035817471806" lon="9.158366989201555"><ele>774.0</ele><time>2026-04-11T09:26:55Z</time></trkpt><trkpt lat="40.03913578680736" lon="9.158159935697967"><ele>774.6666666666667</ele><time>2026-04-11T09:26:56Z</time></trkpt><trkpt lat="40.03922842806296" lon="9.157940515866306"><ele>775.3333333333334</ele><time>2026-04-11T09:26:57Z</time></trkpt><trkpt lat="40.03930573620646" lon="9.15772664895015"><ele>776.0</ele><time>2026-04-11T09:26:58Z</time></trkpt><trkpt lat="40.039377518284866" lon="9.15753421251785"><ele>772.6666666666667</ele><time>2026-04-11T09:26:59Z</time></trkpt><trkpt lat="40.039470888039524" lon="9.157366108953536"><ele>769.3333333333334</ele><time>2026-04-11T09:27:00Z</time></trkpt><trkpt lat="40.0396126234865" lon="9.157236881641754"><ele>766.0</ele><time>2026-04-11T09:27:01Z</time></trkpt><trkpt lat="40.03976590802533" lon="9.157107342346679"><ele>766.0</ele><time>2026-04-11T09:27:02Z</time></trkpt><trkpt lat="40.03991960347272" lon="9.156956932729033"><ele>766.0</ele><time>2026-04-11T09:27:03Z</time></trkpt><trkpt lat="40.04006181679694" lon="9.15683117170277"><ele>766.0</ele><time>2026-04-11T09:27:04Z</time></trkpt><trkpt lat="40.040186350690355" lon="9.156718148117243"><ele>767.75</ele><time>2026-04-11T09:27:05Z</time></trkpt><trkpt lat="40.04030091223184" lon="9.156636310117511"><ele>769.5</ele><time>2026-04-11T09:27:06Z</time></trkpt><trkpt lat="40.04040786969241" lon="9.156614024870128"><ele>771.25</ele><time>2026-04-11T09:27:07Z</time></trkpt><trkpt lat="40.04051034102418" lon="9.156652013599627"><ele>773.0</ele><time>2026-04-11T09:27:08Z</time></trkpt><trkpt lat="40.04060784023836" lon="9.156786180479836"><ele>773.0</ele><time>2026-04-11T09:27:09Z</time></trkpt><trkpt lat="40.04074356700843" lon="9.156893930985458"><ele>773.0</ele><time>2026-04-11T09:27:10Z</time></trkpt><trkpt lat="40.04089718144658" lon="9.156984061763682"><ele>773.0</ele><time>2026-04-11T09:27:11Z</time></trkpt><trkpt lat="40.04105944362105" lon="9.15709932358173"><ele>772.3333333333334</ele><time>2026-04-11T09:27:12Z</time></trkpt><trkpt lat="40.041221004943154" lon="9.157230091992325"><ele>771.6666666666667</ele><time>2026-04-11T09:27:13Z</time></trkpt><trkpt lat="40.041363354545034" lon="9.157380604243485"><ele>771.0</ele><time>2026-04-11T09:27:14Z</time></trkpt><trkpt lat="40.041473746001905" lon="9.157531990606692"><ele>777.5</ele><time>2026-04-11T09:27:15Z</time></trkpt><trkpt lat="40.04153874344014" lon="9.157698895462056"><ele>784.0</ele><time>2026-04-11T09:27:16Z</time></trkpt><trkpt lat="40.04154900980254" lon="9.157880081987537"><ele>790.5</ele><time>2026-04-11T09:27:17Z</time></trkpt><trkpt lat="40.04151214594145" lon="9.158071628908726"><ele>797.0</ele><time>2026-04-11T09:27:18Z</time></trkpt><trkpt lat="40.04144232240097" lon="9.158271553140684"><ele>801.25</ele><time>2026-04-11T09:27:19Z</time></trkpt><trkpt lat="40.041375563017816" lon="9.158463083106216"><ele>805.5</ele><time>2026-04-11T09:27:20Z</time></trkpt><trkpt lat="40.0413419819498" lon="9.158653141832309"><ele>809.75</ele><time>2026-04-11T09:27:21Z</time></trkpt><trkpt lat="40.041337116510995" lon="9.15882092970522"><ele>814.0</ele><time>2026-04-11T09:27:22Z</time></trkpt><trkpt lat="40.04137439555473" lon="9.158949794271024"><ele>814.0</ele><time>2026-04-11T09:27:23Z</time></trkpt><trkpt lat="40.041450655911554" lon="9.159020781188431"><ele>814.0</ele><time>2026-04-11T09:27:24Z</time></trkpt><trkpt lat="40.04154940204347" lon="9.159030167510792"><ele>814.0</ele><time>2026-04-11T09:27:25Z</time></trkpt><trkpt lat="40.041660539868374" lon="9.15898350592721"><ele>814.0</ele><time>2026-04-11T09:27:26Z</time></trkpt><trkpt lat="40.04176793746341" lon="9.158864561714804"><ele>801.0</ele><time>2026-04-11T09:27:27Z</time></trkpt><trkpt lat="40.04186184572464" lon="9.158696379044889"><ele>788.0</ele><time>2026-04-11T09:27:28Z</time></trkpt><trkpt lat="40.04196162690401" lon="9.1585065863128"><ele>775.0</ele><time>2026-04-11T09:27:29Z</time></trkpt><trkpt lat="40.042054266924616" lon="9.158360542003946"><ele>775.0</ele><time>2026-04-11T09:27:30Z</time></trkpt><trkpt lat="40.04215854525802" lon="9.158261062989217"><ele>775.0</ele><time>2026-04-11T09:27:31Z</time></trkpt><trkpt lat="40.042289703084414" lon="9.15824310573832"><ele>775.0</ele><time>2026-04-11T09:27:32Z</time></trkpt><trkpt lat="40.04242334955602" lon="9.15827086084127"><ele>775.0</ele><time>2026-04-11T09:27:33Z</time></trkpt><trkpt lat="40.04257118750281" lon="9.15835482303533"><ele>772.6666666666666</ele><time>2026-04-11T09:27:34Z</time></trkpt><trkpt lat="40.042748594823266" lon="9.158423690796745"><ele>770.3333333333333</ele><time>2026-04-11T09:27:35Z</time></trkpt><trkpt lat="40.04294080426385" lon="9.15850044912108"><ele>768.0</ele><time>2026-04-11T09:27:36Z</time></trkpt><trkpt lat="40.043144117472934" lon="9.158587059769106"><ele>766.0</ele><time>2026-04-11T09:27:37Z</time></trkpt><trkpt lat="40.0433455629366" lon="9.158639352378428"><ele>764.0</ele><time>2026-04-11T09:27:38Z</time></trkpt><trkpt lat="40.043529367223385" lon="9.158696876382514"><ele>762.0</ele><time>2026-04-11T09:27:39Z</time></trkpt><trkpt lat="40.043699304830824" lon="9.158782124291218"><ele>762.0</ele><time>2026-04-11T09:27:40Z</time></trkpt><trkpt lat="40.043846551331555" lon="9.158921050952006"><ele>762.0</ele><time>2026-04-11T09:27:41Z</time></trkpt><trkpt lat="40.043987623595754" lon="9.159112008047101"><ele>762.0</ele><time>2026-04-11T09:27:42Z</time></trkpt><trkpt lat="40.04412745776333" lon="9.15931739797784"><ele>761.0</ele><time>2026-04-11T09:27:43Z</time></trkpt><trkpt lat="40.04426598018277" lon="9.159511373739369"><ele>760.0</ele><time>2026-04-11T09:27:44Z</time></trkpt><trkpt lat="40.04441301071545" lon="9.15966778775019"><ele>759.0</ele><time>2026-04-11T09:27:45Z</time></trkpt><trkpt lat="40.044552725110826" lon="9.159796592362744"><ele>765.0</ele><time>2026-04-11T09:27:46Z</time></trkpt><trkpt lat="40.044677072903994" lon="9.159929039754427"><ele>771.0</ele><time>2026-04-11T09:27:47Z</time></trkpt><trkpt lat="40.04472355834104" lon="9.160117709268194"><ele>777.0</ele><time>2026-04-11T09:27:48Z</time></trkpt><trkpt lat="40.04476044580981" lon="9.16031075799017"><ele>777.0</ele><time>2026-04-11T09:27:49Z</time></trkpt><trkpt lat="40.04480862319292" lon="9.16047605265012"><ele>777.0</ele><time>2026-04-11T09:27:50Z</time></trkpt><trkpt lat="40.04488825084944" lon="9.160589971714131"><ele>777.0</ele><time>2026-04-11T09:27:51Z</time></trkpt><trkpt lat="40.04498059289396" lon="9.16063863738781"><ele>777.0</ele><time>2026-04-11T09:27:52Z</time></trkpt><trkpt lat="40.04507889034979" lon="9.160652354001767"><ele>771.5</ele><time>2026-04-11T09:27:53Z</time></trkpt><trkpt lat="40.04518473558956" lon="9.160550158923646"><ele>766.0</ele><time>2026-04-11T09:27:54Z</time></trkpt><trkpt lat="40.045234317066914" lon="9.160373972727799"><ele>760.5</ele><time>2026-04-11T09:27:55Z</time></trkpt><trkpt lat="40.04529151814788" lon="9.160188687163222"><ele>755.0</ele><time>2026-04-11T09:27:56Z</time></trkpt><trkpt lat="40.0453620411522" lon="9.160049291542162"><ele>755.0</ele><time>2026-04-11T09:27:57Z</time></trkpt><trkpt lat="40.04546667890801" lon="9.159922298625185"><ele>755.0</ele><time>2026-04-11T09:27:58Z</time></trkpt><trkpt lat="40.045612698463934" lon="9.159906392247375"><ele>755.0</ele><time>2026-04-11T09:27:59Z</time></trkpt><trkpt lat="40.04577405185985" lon="9.159820836655019"><ele>753.6666666666666</ele><time>2026-04-11T09:28:00Z</time></trkpt><trkpt lat="40.0459222105947" lon="9.159693314584882"><ele>752.3333333333334</ele><time>2026-04-11T09:28:01Z</time></trkpt><trkpt lat="40.046079849851616" lon="9.159558933579422"><ele>751.0</ele><time>2026-04-11T09:28:02Z</time></trkpt><trkpt lat="40.0462458421108" lon="9.159433036284076"><ele>751.0</ele><time>2026-04-11T09:28:03Z</time></trkpt><trkpt lat="40.046420909643764" lon="9.159326587844262"><ele>751.0</ele><time>2026-04-11T09:28:04Z</time></trkpt><trkpt lat="40.04659656904854" lon="9.159242272293634"><ele>751.0</ele><time>2026-04-11T09:28:05Z</time></trkpt><trkpt lat="40.04675484959671" lon="9.15915661387707"><ele>751.5</ele><time>2026-04-11T09:28:06Z</time></trkpt><trkpt lat="40.04690227614373" lon="9.159140182242238"><ele>752.0</ele><time>2026-04-11T09:28:07Z</time></trkpt><trkpt lat="40.0470272367232" lon="9.159088341767466"><ele>752.5</ele><time>2026-04-11T09:28:08Z</time></trkpt><trkpt lat="40.04712520832591" lon="9.159008167398397"><ele>753.0</ele><time>2026-04-11T09:28:09Z</time></trkpt><trkpt lat="40.04715115406625" lon="9.158804722588991"><ele>751.3333333333334</ele><time>2026-04-11T09:28:10Z</time></trkpt><trkpt lat="40.04716492615895" lon="9.158610131122236"><ele>749.6666666666667</ele><time>2026-04-11T09:28:11Z</time></trkpt><trkpt lat="40.04717325912854" lon="9.15840260001721"><ele>748.0</ele><time>2026-04-11T09:28:12Z</time></trkpt><trkpt lat="40.04716119729219" lon="9.158186657623785"><ele>748.0</ele><time>2026-04-11T09:28:13Z</time></trkpt><trkpt lat="40.04712473866194" lon="9.15799653355832"><ele>748.0</ele><time>2026-04-11T09:28:14Z</time></trkpt><trkpt lat="40.04710906463531" lon="9.15783007569735"><ele>748.0</ele><time>2026-04-11T09:28:15Z</time></trkpt><trkpt lat="40.047173986549126" lon="9.15768922609725"><ele>748.0</ele><time>2026-04-11T09:28:16Z</time></trkpt><trkpt lat="40.04725657274835" lon="9.157515561772252"><ele>749.3333333333334</ele><time>2026-04-11T09:28:17Z</time></trkpt><trkpt lat="40.04731192417244" lon="9.157309648613923"><ele>750.6666666666666</ele><time>2026-04-11T09:28:18Z</time></trkpt><trkpt lat="40.047367844906105" lon="9.15706696344946"><ele>752.0</ele><time>2026-04-11T09:28:19Z</time></trkpt><trkpt lat="40.04739172202938" lon="9.156799512201022"><ele>752.0</ele><time>2026-04-11T09:28:20Z</time></trkpt><trkpt lat="40.04737237934326" lon="9.15653973421656"><ele>752.0</ele><time>2026-04-11T09:28:21Z</time></trkpt><trkpt lat="40.04733582123167" lon="9.156295302176858"><ele>752.0</ele><time>2026-04-11T09:28:22Z</time></trkpt><trkpt lat="40.04731820168475" lon="9.15605912778424"><ele>752.3333333333333</ele><time>2026-04-11T09:28:23Z</time></trkpt><trkpt lat="40.04734791359792" lon="9.155822620880908"><ele>752.6666666666666</ele><time>2026-04-11T09:28:24Z</time></trkpt><trkpt lat="40.04744320439765" lon="9.155602007188582"><ele>753.0</ele><time>2026-04-11T09:28:25Z</time></trkpt><trkpt lat="40.04752075810104" lon="9.155346058042351"><ele>748.6666666666666</ele><time>2026-04-11T09:28:26Z</time></trkpt><trkpt lat="40.04760040236111" lon="9.155090270817464"><ele>744.3333333333333</ele><time>2026-04-11T09:28:27Z</time></trkpt><trkpt lat="40.0476342059738" lon="9.15483001078591"><ele>740.0</ele><time>2026-04-11T09:28:28Z</time></trkpt><trkpt lat="40.0476349851884" lon="9.154573270315392"><ele>738.0</ele><time>2026-04-11T09:28:29Z</time></trkpt><trkpt lat="40.04762213227426" lon="9.154334663237307"><ele>736.0</ele><time>2026-04-11T09:28:30Z</time></trkpt><trkpt lat="40.04762326390643" lon="9.154112692422231"><ele>734.0</ele><time>2026-04-11T09:28:31Z</time></trkpt><trkpt lat="40.04769609650253" lon="9.153903319672759"><ele>731.3333333333333</ele><time>2026-04-11T09:28:32Z</time></trkpt><trkpt lat="40.04777626571623" lon="9.15366442397624"><ele>728.6666666666666</ele><time>2026-04-11T09:28:33Z</time></trkpt><trkpt lat="40.047851956793366" lon="9.1534030705934"><ele>726.0</ele><time>2026-04-11T09:28:34Z</time></trkpt><trkpt lat="40.04794029737101" lon="9.153123096440309"><ele>726.0</ele><time>2026-04-11T09:28:35Z</time></trkpt><trkpt lat="40.04803901100732" lon="9.152864037769035"><ele>726.0</ele><time>2026-04-11T09:28:36Z</time></trkpt><trkpt lat="40.04810504160325" lon="9.152613829378124"><ele>726.0</ele><time>2026-04-11T09:28:37Z</time></trkpt><trkpt lat="40.048177530333334" lon="9.152396609676115"><ele>725.3333333333334</ele><time>2026-04-11T09:28:38Z</time></trkpt><trkpt lat="40.04824992638612" lon="9.152214466186006"><ele>724.6666666666667</ele><time>2026-04-11T09:28:39Z</time></trkpt><trkpt lat="40.04835369886832" lon="9.152075869005035"><ele>724.0</ele><time>2026-04-11T09:28:40Z</time></trkpt><trkpt lat="40.04849043938908" lon="9.151958276693152"><ele>722.6666666666667</ele><time>2026-04-11T09:28:41Z</time></trkpt><trkpt lat="40.048670352988864" lon="9.151881515253878"><ele>721.3333333333334</ele><time>2026-04-11T09:28:42Z</time></trkpt><trkpt lat="40.04882806859602" lon="9.151773616936826"><ele>720.0</ele><time>2026-04-11T09:28:43Z</time></trkpt><trkpt lat="40.048963045094574" lon="9.151616590011548"><ele>717.0</ele><time>2026-04-11T09:28:44Z</time></trkpt><trkpt lat="40.04907351110715" lon="9.151415568857935"><ele>714.0</ele><time>2026-04-11T09:28:45Z</time></trkpt><trkpt lat="40.04917967701195" lon="9.151213857063459"><ele>711.0</ele><time>2026-04-11T09:28:46Z</time></trkpt><trkpt lat="40.0492909929703" lon="9.151040293048219"><ele>711.0</ele><time>2026-04-11T09:28:47Z</time></trkpt><trkpt lat="40.049424767953695" lon="9.150902153145138"><ele>711.0</ele><time>2026-04-11T09:28:48Z</time></trkpt><trkpt lat="40.04959639279954" lon="9.15080169707479"><ele>711.0</ele><time>2026-04-11T09:28:49Z</time></trkpt><trkpt lat="40.04976773104297" lon="9.15071427871199"><ele>711.6666666666666</ele><time>2026-04-11T09:28:50Z</time></trkpt><trkpt lat="40.0499191476167" lon="9.150575843486951"><ele>712.3333333333333</ele><time>2026-04-11T09:28:51Z</time></trkpt><trkpt lat="40.0500424670567" lon="9.150369746734874"><ele>713.0</ele><time>2026-04-11T09:28:52Z</time></trkpt><trkpt lat="40.050164124105144" lon="9.15013566716203"><ele>713.0</ele><time>2026-04-11T09:28:53Z</time></trkpt><trkpt lat="40.05029536491471" lon="9.149909692430933"><ele>713.0</ele><time>2026-04-11T09:28:54Z</time></trkpt><trkpt lat="40.05043376332914" lon="9.149686579799843"><ele>713.0</ele><time>2026-04-11T09:28:55Z</time></trkpt><trkpt lat="40.050578247186685" lon="9.149475025741298"><ele>714.3333333333333</ele><time>2026-04-11T09:28:56Z</time></trkpt><trkpt lat="40.05073098941644" lon="9.149303434598359"><ele>715.6666666666666</ele><time>2026-04-11T09:28:57Z</time></trkpt><trkpt lat="40.05087592250591" lon="9.149168664121593"><ele>717.0</ele><time>2026-04-11T09:28:58Z</time></trkpt><trkpt lat="40.051006061354876" lon="9.149058034917111"><ele>705.0</ele><time>2026-04-11T09:28:59Z</time></trkpt><trkpt lat="40.05114285266345" lon="9.148992476554243"><ele>693.0</ele><time>2026-04-11T09:29:00Z</time></trkpt><trkpt lat="40.05130246185533" lon="9.14898946853037"><ele>681.0</ele><time>2026-04-11T09:29:01Z</time></trkpt><trkpt lat="40.05147312006588" lon="9.148981370088565"><ele>682.3333333333334</ele><time>2026-04-11T09:29:02Z</time></trkpt><trkpt lat="40.05163496450188" lon="9.14891934689689"><ele>683.6666666666667</ele><time>2026-04-11T09:29:03Z</time></trkpt><trkpt lat="40.0517930167079" lon="9.14888108360024"><ele>685.0</ele><time>2026-04-11T09:29:04Z</time></trkpt><trkpt lat="40.05194018341662" lon="9.148918954999393"><ele>685.0</ele><time>2026-04-11T09:29:05Z</time></trkpt><trkpt lat="40.052093930968965" lon="9.149011922677726"><ele>685.0</ele><time>2026-04-11T09:29:06Z</time></trkpt><trkpt lat="40.052247207158665" lon="9.149124028512121"><ele>685.0</ele><time>2026-04-11T09:29:07Z</time></trkpt><trkpt lat="40.052376047652004" lon="9.149187050624093"><ele>684.5</ele><time>2026-04-11T09:29:08Z</time></trkpt><trkpt lat="40.05249419173712" lon="9.149186885733746"><ele>684.0</ele><time>2026-04-11T09:29:09Z</time></trkpt><trkpt lat="40.05260368036341" lon="9.149105311384943"><ele>683.5</ele><time>2026-04-11T09:29:10Z</time></trkpt><trkpt lat="40.05271601721165" lon="9.148959994405281"><ele>683.0</ele><time>2026-04-11T09:29:11Z</time></trkpt><trkpt lat="40.05283044104431" lon="9.148808638082079"><ele>683.0</ele><time>2026-04-11T09:29:12Z</time></trkpt><trkpt lat="40.05296088409675" lon="9.14866863538114"><ele>683.0</ele><time>2026-04-11T09:29:13Z</time></trkpt><trkpt lat="40.05310609985165" lon="9.148539373116684"><ele>683.0</ele><time>2026-04-11T09:29:14Z</time></trkpt><trkpt lat="40.05324198159196" lon="9.148403369047477"><ele>686.6666666666666</ele><time>2026-04-11T09:29:15Z</time></trkpt><trkpt lat="40.053357713867584" lon="9.148222579132785"><ele>690.3333333333334</ele><time>2026-04-11T09:29:16Z</time></trkpt><trkpt lat="40.053452219684104" lon="9.148008627915566"><ele>694.0</ele><time>2026-04-11T09:29:17Z</time></trkpt><trkpt lat="40.05352337906856" lon="9.14776423348198"><ele>694.0</ele><time>2026-04-11T09:29:18Z</time></trkpt><trkpt lat="40.05359288863369" lon="9.147512244072125"><ele>694.0</ele><time>2026-04-11T09:29:19Z</time></trkpt><trkpt lat="40.05368179664699" lon="9.147282773260226"><ele>694.0</ele><time>2026-04-11T09:29:20Z</time></trkpt><trkpt lat="40.053767107038574" lon="9.14706332768316"><ele>691.0</ele><time>2026-04-11T09:29:21Z</time></trkpt><trkpt lat="40.05380888148795" lon="9.146824242458122"><ele>688.0</ele><time>2026-04-11T09:29:22Z</time></trkpt><trkpt lat="40.053815336709235" lon="9.14656539452948"><ele>685.0</ele><time>2026-04-11T09:29:23Z</time></trkpt><trkpt lat="40.053808382386784" lon="9.146310186056878"><ele>682.0</ele><time>2026-04-11T09:29:24Z</time></trkpt><trkpt lat="40.053796662278536" lon="9.146077678981419"><ele>679.0</ele><time>2026-04-11T09:29:25Z</time></trkpt><trkpt lat="40.05379048145181" lon="9.14585905955138"><ele>676.0</ele><time>2026-04-11T09:29:26Z</time></trkpt><trkpt lat="40.05380842865855" lon="9.145645424467864"><ele>671.0</ele><time>2026-04-11T09:29:27Z</time></trkpt><trkpt lat="40.05387460359397" lon="9.145426587488823"><ele>666.0</ele><time>2026-04-11T09:29:28Z</time></trkpt><trkpt lat="40.05396623430903" lon="9.145217674660786"><ele>661.0</ele><time>2026-04-11T09:29:29Z</time></trkpt><trkpt lat="40.054050701825524" lon="9.145038022403035"><ele>661.5</ele><time>2026-04-11T09:29:30Z</time></trkpt><trkpt lat="40.054142911473654" lon="9.144905051155632"><ele>662.0</ele><time>2026-04-11T09:29:31Z</time></trkpt><trkpt lat="40.05426318141642" lon="9.144830206753051"><ele>662.5</ele><time>2026-04-11T09:29:32Z</time></trkpt><trkpt lat="40.05441305485211" lon="9.144803045914626"><ele>663.0</ele><time>2026-04-11T09:29:33Z</time></trkpt><trkpt lat="40.054572441162556" lon="9.144739812431318"><ele>663.0</ele><time>2026-04-11T09:29:34Z</time></trkpt><trkpt lat="40.05473169141717" lon="9.144615704484815"><ele>663.0</ele><time>2026-04-11T09:29:35Z</time></trkpt><trkpt lat="40.05489902575681" lon="9.144478987914669"><ele>663.0</ele><time>2026-04-11T09:29:36Z</time></trkpt><trkpt lat="40.05506353316825" lon="9.14433978856022"><ele>659.0</ele><time>2026-04-11T09:29:37Z</time></trkpt><trkpt lat="40.05521238796493" lon="9.144172442434108"><ele>655.0</ele><time>2026-04-11T09:29:38Z</time></trkpt><trkpt lat="40.05533710103076" lon="9.143982594317016"><ele>651.0</ele><time>2026-04-11T09:29:39Z</time></trkpt><trkpt lat="40.05544910804411" lon="9.143791712442502"><ele>651.0</ele><time>2026-04-11T09:29:40Z</time></trkpt><trkpt lat="40.0555778753058" lon="9.143634486045801"><ele>651.0</ele><time>2026-04-11T09:29:41Z</time></trkpt><trkpt lat="40.05573652706383" lon="9.143520328786195"><ele>651.0</ele><time>2026-04-11T09:29:42Z</time></trkpt><trkpt lat="40.05591732107008" lon="9.143447939207286"><ele>647.6666666666666</ele><time>2026-04-11T09:29:43Z</time></trkpt><trkpt lat="40.05608642717918" lon="9.14335052292804"><ele>644.3333333333333</ele><time>2026-04-11T09:29:44Z</time></trkpt><trkpt lat="40.056234885130266" lon="9.14319290681329"><ele>641.0</ele><time>2026-04-11T09:29:45Z</time></trkpt><trkpt lat="40.056373480361366" lon="9.143026225387283"><ele>641.0</ele><time>2026-04-11T09:29:46Z</time></trkpt><trkpt lat="40.056507702372315" lon="9.142872499662841"><ele>641.0</ele><time>2026-04-11T09:29:47Z</time></trkpt><trkpt lat="40.05662327329229" lon="9.142744823615084"><ele>641.0</ele><time>2026-04-11T09:29:48Z</time></trkpt><trkpt lat="40.05672642224306" lon="9.142658030846489"><ele>646.25</ele><time>2026-04-11T09:29:49Z</time></trkpt><trkpt lat="40.056827115693274" lon="9.14263448202379"><ele>651.5</ele><time>2026-04-11T09:29:50Z</time></trkpt><trkpt lat="40.0569209698807" lon="9.142694067776377"><ele>656.75</ele><time>2026-04-11T09:29:51Z</time></trkpt><trkpt lat="40.056994015102624" lon="9.142826901649936"><ele>662.0</ele><time>2026-04-11T09:29:52Z</time></trkpt><trkpt lat="40.05704976021173" lon="9.14300456367988"><ele>662.0</ele><time>2026-04-11T09:29:53Z</time></trkpt><trkpt lat="40.05709546400455" lon="9.143206241182728"><ele>662.0</ele><time>2026-04-11T09:29:54Z</time></trkpt><trkpt lat="40.057100921410594" lon="9.14342564140485"><ele>662.0</ele><time>2026-04-11T09:29:55Z</time></trkpt><trkpt lat="40.0570829369541" lon="9.143611203671028"><ele>665.75</ele><time>2026-04-11T09:29:56Z</time></trkpt><trkpt lat="40.05703121381987" lon="9.143763972081407"><ele>669.5</ele><time>2026-04-11T09:29:57Z</time></trkpt><trkpt lat="40.0569346468216" lon="9.143884721113809"><ele>673.25</ele><time>2026-04-11T09:29:58Z</time></trkpt><trkpt lat="40.05681972133469" lon="9.14401530007347"><ele>677.0</ele><time>2026-04-11T09:29:59Z</time></trkpt><trkpt lat="40.05671987195172" lon="9.144186196619659"><ele>677.0</ele><time>2026-04-11T09:30:00Z</time></trkpt><trkpt lat="40.05662583152738" lon="9.14438101368629"><ele>677.0</ele><time>2026-04-11T09:30:01Z</time></trkpt><trkpt lat="40.056532434959095" lon="9.144560837836053"><ele>677.0</ele><time>2026-04-11T09:30:02Z</time></trkpt><trkpt lat="40.05647511048111" lon="9.144756727364571"><ele>685.0</ele><time>2026-04-11T09:30:03Z</time></trkpt><trkpt lat="40.05645323217908" lon="9.144957130720561"><ele>693.0</ele><time>2026-04-11T09:30:04Z</time></trkpt><trkpt lat="40.056474067876884" lon="9.145150120863596"><ele>701.0</ele><time>2026-04-11T09:30:05Z</time></trkpt><trkpt lat="40.05654486036619" lon="9.145344579542536"><ele>690.6666666666666</ele><time>2026-04-11T09:30:06Z</time></trkpt><trkpt lat="40.05665729563599" lon="9.145542514756393"><ele>680.3333333333334</ele><time>2026-04-11T09:30:07Z</time></trkpt><trkpt lat="40.05680029267975" lon="9.1457376814492"><ele>670.0</ele><time>2026-04-11T09:30:08Z</time></trkpt><trkpt lat="40.05696427177905" lon="9.145937584723214"><ele>670.0</ele><time>2026-04-11T09:30:09Z</time></trkpt><trkpt lat="40.05713064058352" lon="9.146138022135977"><ele>670.0</ele><time>2026-04-11T09:30:10Z</time></trkpt><trkpt lat="40.057284894141375" lon="9.146318030219586"><ele>670.0</ele><time>2026-04-11T09:30:11Z</time></trkpt><trkpt lat="40.05741281450135" lon="9.146478775508115"><ele>665.75</ele><time>2026-04-11T09:30:12Z</time></trkpt><trkpt lat="40.057547139214364" lon="9.14657933372884"><ele>661.5</ele><time>2026-04-11T09:30:13Z</time></trkpt><trkpt lat="40.05767383541208" lon="9.146634986432025"><ele>657.25</ele><time>2026-04-11T09:30:14Z</time></trkpt><trkpt lat="40.05777096427074" lon="9.14673381963636"><ele>653.0</ele><time>2026-04-11T09:30:15Z</time></trkpt><trkpt lat="40.05781649554386" lon="9.1468666617688"><ele>653.0</ele><time>2026-04-11T09:30:16Z</time></trkpt><trkpt lat="40.05777934405225" lon="9.147009251777545"><ele>653.0</ele><time>2026-04-11T09:30:17Z</time></trkpt><trkpt lat="40.05772611830896" lon="9.147184587056465"><ele>653.0</ele><time>2026-04-11T09:30:18Z</time></trkpt><trkpt lat="40.05763401031324" lon="9.147370575192598"><ele>653.0</ele><time>2026-04-11T09:30:19Z</time></trkpt><trkpt lat="40.05753229551136" lon="9.147566012741661"><ele>658.3333333333333</ele><time>2026-04-11T09:30:20Z</time></trkpt><trkpt lat="40.0574197073125" lon="9.147764507934154"><ele>663.6666666666666</ele><time>2026-04-11T09:30:21Z</time></trkpt><trkpt lat="40.05732660010173" lon="9.147978737688117"><ele>669.0</ele><time>2026-04-11T09:30:22Z</time></trkpt><trkpt lat="40.05725994320003" lon="9.148225856841588"><ele>669.0</ele><time>2026-04-11T09:30:23Z</time></trkpt><trkpt lat="40.057199299667474" lon="9.148487952538774"><ele>669.0</ele><time>2026-04-11T09:30:24Z</time></trkpt><trkpt lat="40.0571373537462" lon="9.148742539815766"><ele>669.0</ele><time>2026-04-11T09:30:25Z</time></trkpt><trkpt lat="40.057052160194445" lon="9.148992838583869"><ele>664.0</ele><time>2026-04-11T09:30:26Z</time></trkpt><trkpt lat="40.05693491329385" lon="9.149229761397724"><ele>659.0</ele><time>2026-04-11T09:30:27Z</time></trkpt><trkpt lat="40.05681268583647" lon="9.14946677796991"><ele>654.0</ele><time>2026-04-11T09:30:28Z</time></trkpt><trkpt lat="40.05670978726061" lon="9.149732489558044"><ele>668.0</ele><time>2026-04-11T09:30:29Z</time></trkpt><trkpt lat="40.05661787436279" lon="9.150018851250644"><ele>682.0</ele><time>2026-04-11T09:30:30Z</time></trkpt><trkpt lat="40.05653234127545" lon="9.150314813836655"><ele>682.0</ele><time>2026-04-11T09:30:31Z</time></trkpt><trkpt lat="40.05645587604872" lon="9.150595657541468"><ele>682.0</ele><time>2026-04-11T09:30:32Z</time></trkpt><trkpt lat="40.05640343262987" lon="9.150863524617941"><ele>682.0</ele><time>2026-04-11T09:30:33Z</time></trkpt><trkpt lat="40.05635141981593" lon="9.151114643625347"><ele>677.0</ele><time>2026-04-11T09:30:34Z</time></trkpt><trkpt lat="40.056263634800295" lon="9.151338435432132"><ele>672.0</ele><time>2026-04-11T09:30:35Z</time></trkpt><trkpt lat="40.0561523425726" lon="9.151532244058028"><ele>667.0</ele><time>2026-04-11T09:30:36Z</time></trkpt><trkpt lat="40.05609324713595" lon="9.151731677009652"><ele>662.0</ele><time>2026-04-11T09:30:37Z</time></trkpt><trkpt lat="40.05608419459737" lon="9.151976243122185"><ele>657.0</ele><time>2026-04-11T09:30:38Z</time></trkpt><trkpt lat="40.05607045338312" lon="9.152238331155127"><ele>652.0</ele><time>2026-04-11T09:30:39Z</time></trkpt><trkpt lat="40.05602590743469" lon="9.152482861494795"><ele>647.0</ele><time>2026-04-11T09:30:40Z</time></trkpt><trkpt lat="40.05593811623962" lon="9.152733829540825"><ele>642.0</ele><time>2026-04-11T09:30:41Z</time></trkpt><trkpt lat="40.05585949852671" lon="9.15297297600851"><ele>637.0</ele><time>2026-04-11T09:30:42Z</time></trkpt><trkpt lat="40.05578616963782" lon="9.153194252104509"><ele>644.0</ele><time>2026-04-11T09:30:43Z</time></trkpt><trkpt lat="40.055699239742786" lon="9.153401712421028"><ele>651.0</ele><time>2026-04-11T09:30:44Z</time></trkpt><trkpt lat="40.055577947763055" lon="9.153597853287486"><ele>658.0</ele><time>2026-04-11T09:30:45Z</time></trkpt><trkpt lat="40.05542130164462" lon="9.153780433276015"><ele>658.0</ele><time>2026-04-11T09:30:46Z</time></trkpt><trkpt lat="40.05524020185616" lon="9.153941745199145"><ele>658.0</ele><time>2026-04-11T09:30:47Z</time></trkpt><trkpt lat="40.055063216630096" lon="9.154076763005857"><ele>658.0</ele><time>2026-04-11T09:30:48Z</time></trkpt><trkpt lat="40.05490726583058" lon="9.15423872637918"><ele>655.3333333333334</ele><time>2026-04-11T09:30:49Z</time></trkpt><trkpt lat="40.0547823419958" lon="9.154441230787025"><ele>652.6666666666666</ele><time>2026-04-11T09:30:50Z</time></trkpt><trkpt lat="40.05467840353358" lon="9.154632840494749"><ele>650.0</ele><time>2026-04-11T09:30:51Z</time></trkpt><trkpt lat="40.05456880452517" lon="9.154800779548562"><ele>641.3333333333333</ele><time>2026-04-11T09:30:52Z</time></trkpt><trkpt lat="40.05443303487918" lon="9.154946324243076"><ele>632.6666666666666</ele><time>2026-04-11T09:30:53Z</time></trkpt><trkpt lat="40.05427875581525" lon="9.155054860042874"><ele>624.0</ele><time>2026-04-11T09:30:54Z</time></trkpt><trkpt lat="40.05414483366373" lon="9.15514334055633"><ele>628.2</ele><time>2026-04-11T09:30:55Z</time></trkpt><trkpt lat="40.05404002321871" lon="9.15523456777981"><ele>632.4</ele><time>2026-04-11T09:30:56Z</time></trkpt><trkpt lat="40.05395987640043" lon="9.155320903572354"><ele>636.6</ele><time>2026-04-11T09:30:57Z</time></trkpt><trkpt lat="40.05394875781801" lon="9.155451493533764"><ele>640.8</ele><time>2026-04-11T09:30:58Z</time></trkpt><trkpt lat="40.05401879124223" lon="9.155555649894055"><ele>645.0</ele><time>2026-04-11T09:30:59Z</time></trkpt><trkpt lat="40.05412127049471" lon="9.155613681679982"><ele>638.0</ele><time>2026-04-11T09:31:00Z</time></trkpt><trkpt lat="40.05425969756671" lon="9.155648292020835"><ele>631.0</ele><time>2026-04-11T09:31:01Z</time></trkpt><trkpt lat="40.05440887717815" lon="9.155723664233294"><ele>624.0</ele><time>2026-04-11T09:31:02Z</time></trkpt><trkpt lat="40.05458238430262" lon="9.155789924586502"><ele>623.6666666666666</ele><time>2026-04-11T09:31:03Z</time></trkpt><trkpt lat="40.05474255101119" lon="9.155880456963619"><ele>623.3333333333333</ele><time>2026-04-11T09:31:04Z</time></trkpt><trkpt lat="40.05487983595554" lon="9.155992944890375"><ele>623.0</ele><time>2026-04-11T09:31:05Z</time></trkpt><trkpt lat="40.05498825372507" lon="9.156142810089474"><ele>617.25</ele><time>2026-04-11T09:31:06Z</time></trkpt><trkpt lat="40.05511697173381" lon="9.156225764417103"><ele>611.5</ele><time>2026-04-11T09:31:07Z</time></trkpt><trkpt lat="40.05525389893315" lon="9.15624674103406"><ele>605.75</ele><time>2026-04-11T09:31:08Z</time></trkpt><trkpt lat="40.05538620453363" lon="9.156220609685013"><ele>600.0</ele><time>2026-04-11T09:31:09Z</time></trkpt><trkpt lat="40.055502399790456" lon="9.156258131969741"><ele>600.0</ele><time>2026-04-11T09:31:10Z</time></trkpt><trkpt lat="40.055595431501736" lon="9.15637437520995"><ele>600.0</ele><time>2026-04-11T09:31:11Z</time></trkpt><trkpt lat="40.05563177154827" lon="9.156557762691348"><ele>600.0</ele><time>2026-04-11T09:31:12Z</time></trkpt><trkpt lat="40.05568521274729" lon="9.156759526525956"><ele>600.0</ele><time>2026-04-11T09:31:13Z</time></trkpt><trkpt lat="40.05572224688069" lon="9.156984902055147"><ele>598.0</ele><time>2026-04-11T09:31:14Z</time></trkpt><trkpt lat="40.055765282591764" lon="9.157230109649205"><ele>596.0</ele><time>2026-04-11T09:31:15Z</time></trkpt><trkpt lat="40.05579902596468" lon="9.15746908374811"><ele>594.0</ele><time>2026-04-11T09:31:16Z</time></trkpt><trkpt lat="40.05580449606761" lon="9.157709996842879"><ele>594.0</ele><time>2026-04-11T09:31:17Z</time></trkpt><trkpt lat="40.055790054975056" lon="9.15795498007199"><ele>594.0</ele><time>2026-04-11T09:31:18Z</time></trkpt><trkpt lat="40.0558014484527" lon="9.158189952050728"><ele>594.0</ele><time>2026-04-11T09:31:19Z</time></trkpt><trkpt lat="40.05583409356675" lon="9.158390127516158"><ele>596.0</ele><time>2026-04-11T09:31:20Z</time></trkpt><trkpt lat="40.05587120936676" lon="9.158550306842452"><ele>598.0</ele><time>2026-04-11T09:31:21Z</time></trkpt><trkpt lat="40.055928806053274" lon="9.158653232690328"><ele>600.0</ele><time>2026-04-11T09:31:22Z</time></trkpt><trkpt lat="40.055994252409086" lon="9.158724024866519"><ele>602.0</ele><time>2026-04-11T09:31:23Z</time></trkpt><trkpt lat="40.05611194898226" lon="9.158695892253995"><ele>604.0</ele><time>2026-04-11T09:31:24Z</time></trkpt><trkpt lat="40.05623355511961" lon="9.158611801549094"><ele>604.0</ele><time>2026-04-11T09:31:25Z</time></trkpt><trkpt lat="40.056360084124734" lon="9.158501481553648"><ele>604.0</ele><time>2026-04-11T09:31:26Z</time></trkpt><trkpt lat="40.05649328483059" lon="9.158362533242208"><ele>604.0</ele><time>2026-04-11T09:31:27Z</time></trkpt><trkpt lat="40.05661134096112" lon="9.158172620819402"><ele>596.6666666666667</ele><time>2026-04-11T09:31:28Z</time></trkpt><trkpt lat="40.056728448889494" lon="9.157960101272828"><ele>589.3333333333334</ele><time>2026-04-11T09:31:29Z</time></trkpt><trkpt lat="40.05685398399024" lon="9.157728991652215"><ele>582.0</ele><time>2026-04-11T09:31:30Z</time></trkpt><trkpt lat="40.056968293182194" lon="9.157475217280535"><ele>579.6666666666666</ele><time>2026-04-11T09:31:31Z</time></trkpt><trkpt lat="40.05706497214226" lon="9.157214979451833"><ele>577.3333333333333</ele><time>2026-04-11T09:31:32Z</time></trkpt><trkpt lat="40.057148045290106" lon="9.156972597618749"><ele>575.0</ele><time>2026-04-11T09:31:33Z</time></trkpt><trkpt lat="40.05721955333034" lon="9.156755173189035"><ele>572.6666666666666</ele><time>2026-04-11T09:31:34Z</time></trkpt><trkpt lat="40.057247479874576" lon="9.156534071580323"><ele>570.3333333333334</ele><time>2026-04-11T09:31:35Z</time></trkpt><trkpt lat="40.057244733640395" lon="9.156321118262058"><ele>568.0</ele><time>2026-04-11T09:31:36Z</time></trkpt><trkpt lat="40.05725077158312" lon="9.1561290687471"><ele>568.0</ele><time>2026-04-11T09:31:37Z</time></trkpt><trkpt lat="40.05732138300609" lon="9.155976804775733"><ele>568.0</ele><time>2026-04-11T09:31:38Z</time></trkpt><trkpt lat="40.05744001022476" lon="9.155867207403562"><ele>568.0</ele><time>2026-04-11T09:31:39Z</time></trkpt><trkpt lat="40.05750329968706" lon="9.155742490140494"><ele>568.0</ele><time>2026-04-11T09:31:40Z</time></trkpt><trkpt lat="40.05751621361713" lon="9.155586259019735"><ele>567.5</ele><time>2026-04-11T09:31:41Z</time></trkpt><trkpt lat="40.057497899531214" lon="9.155401637534975"><ele>567.0</ele><time>2026-04-11T09:31:42Z</time></trkpt><trkpt lat="40.057450567400494" lon="9.155211042527558"><ele>566.5</ele><time>2026-04-11T09:31:43Z</time></trkpt><trkpt lat="40.05741846961198" lon="9.155029907944023"><ele>566.0</ele><time>2026-04-11T09:31:44Z</time></trkpt><trkpt lat="40.05743093512712" lon="9.154859063083029"><ele>567.3333333333333</ele><time>2026-04-11T09:31:45Z</time></trkpt><trkpt lat="40.05754122902933" lon="9.154716587248117"><ele>568.6666666666666</ele><time>2026-04-11T09:31:46Z</time></trkpt><trkpt lat="40.057652631067306" lon="9.154521527642142"><ele>570.0</ele><time>2026-04-11T09:31:47Z</time></trkpt><trkpt lat="40.05775278050382" lon="9.154303071859777"><ele>570.0</ele><time>2026-04-11T09:31:48Z</time></trkpt><trkpt lat="40.05785892109595" lon="9.15406073883558"><ele>570.0</ele><time>2026-04-11T09:31:49Z</time></trkpt><trkpt lat="40.05796780950239" lon="9.153811890368434"><ele>570.0</ele><time>2026-04-11T09:31:50Z</time></trkpt><trkpt lat="40.058092466892894" lon="9.15356083448492"><ele>564.5</ele><time>2026-04-11T09:31:51Z</time></trkpt><trkpt lat="40.058258284899395" lon="9.153328619790305"><ele>559.0</ele><time>2026-04-11T09:31:52Z</time></trkpt><trkpt lat="40.058405190091975" lon="9.153134640747785"><ele>557.0</ele><time>2026-04-11T09:31:53Z</time></trkpt><trkpt lat="40.05852491236852" lon="9.152977322543382"><ele>555.0</ele><time>2026-04-11T09:31:54Z</time></trkpt><trkpt lat="40.058632094743835" lon="9.152835927736975"><ele>553.0</ele><time>2026-04-11T09:31:55Z</time></trkpt><trkpt lat="40.058728497598224" lon="9.152701487776508"><ele>553.0</ele><time>2026-04-11T09:31:56Z</time></trkpt><trkpt lat="40.05882027594123" lon="9.152555549127197"><ele>553.0</ele><time>2026-04-11T09:31:57Z</time></trkpt><trkpt lat="40.05890733034468" lon="9.152411442520757"><ele>553.0</ele><time>2026-04-11T09:31:58Z</time></trkpt><trkpt lat="40.058997704476496" lon="9.152261840545089"><ele>553.0</ele><time>2026-04-11T09:31:59Z</time></trkpt><trkpt lat="40.05908776097146" lon="9.152104741154488"><ele>554.0</ele><time>2026-04-11T09:32:00Z</time></trkpt><trkpt lat="40.059179961964624" lon="9.151979055243165"><ele>555.0</ele><time>2026-04-11T09:32:01Z</time></trkpt><trkpt lat="40.059305051105916" lon="9.151911884655668"><ele>556.0</ele><time>2026-04-11T09:32:02Z</time></trkpt><trkpt lat="40.05945102004999" lon="9.15187011893538"><ele>557.0</ele><time>2026-04-11T09:32:03Z</time></trkpt><trkpt lat="40.05960555509455" lon="9.15177843153728"><ele>557.0</ele><time>2026-04-11T09:32:04Z</time></trkpt><trkpt lat="40.0597475317017" lon="9.151642605042705"><ele>557.0</ele><time>2026-04-11T09:32:05Z</time></trkpt><trkpt lat="40.059873384560134" lon="9.15143895223926"><ele>557.0</ele><time>2026-04-11T09:32:06Z</time></trkpt><trkpt lat="40.060036013304284" lon="9.151303993684264"><ele>554.0</ele><time>2026-04-11T09:32:07Z</time></trkpt><trkpt lat="40.060224486912404" lon="9.151203848144602"><ele>551.0</ele><time>2026-04-11T09:32:08Z</time></trkpt><trkpt lat="40.06042228151134" lon="9.151104815799394"><ele>548.0</ele><time>2026-04-11T09:32:09Z</time></trkpt><trkpt lat="40.06061053260182" lon="9.150991275307167"><ele>554.0</ele><time>2026-04-11T09:32:10Z</time></trkpt><trkpt lat="40.06079064378538" lon="9.150919669859178"><ele>560.0</ele><time>2026-04-11T09:32:11Z</time></trkpt><trkpt lat="40.06095557489916" lon="9.1508880116011"><ele>566.0</ele><time>2026-04-11T09:32:12Z</time></trkpt><trkpt lat="40.061092092166874" lon="9.150799830705187"><ele>558.0</ele><time>2026-04-11T09:32:13Z</time></trkpt><trkpt lat="40.06121939777229" lon="9.150696927374216"><ele>550.0</ele><time>2026-04-11T09:32:14Z</time></trkpt><trkpt lat="40.06134463201744" lon="9.150540920372043"><ele>542.0</ele><time>2026-04-11T09:32:15Z</time></trkpt><trkpt lat="40.061508787482346" lon="9.150438932052243"><ele>548.3333333333333</ele><time>2026-04-11T09:32:16Z</time></trkpt><trkpt lat="40.06168273828949" lon="9.150326214977701"><ele>554.6666666666666</ele><time>2026-04-11T09:32:17Z</time></trkpt><trkpt lat="40.061850172642785" lon="9.15020496649259"><ele>561.0</ele><time>2026-04-11T09:32:18Z</time></trkpt><trkpt lat="40.061980968079055" lon="9.150042096192408"><ele>561.0</ele><time>2026-04-11T09:32:19Z</time></trkpt><trkpt lat="40.062121014141184" lon="9.149908102601346"><ele>561.0</ele><time>2026-04-11T09:32:20Z</time></trkpt><trkpt lat="40.06224919665113" lon="9.149808466176038"><ele>561.0</ele><time>2026-04-11T09:32:21Z</time></trkpt><trkpt lat="40.06240072436642" lon="9.14974838933902"><ele>557.0</ele><time>2026-04-11T09:32:22Z</time></trkpt><trkpt lat="40.0625738329567" lon="9.14975868014811"><ele>553.0</ele><time>2026-04-11T09:32:23Z</time></trkpt><trkpt lat="40.06277003170298" lon="9.149775876588008"><ele>549.0</ele><time>2026-04-11T09:32:24Z</time></trkpt><trkpt lat="40.06297644573325" lon="9.14979598467258"><ele>549.0</ele><time>2026-04-11T09:32:25Z</time></trkpt><trkpt lat="40.06316752855325" lon="9.149814599251018"><ele>549.0</ele><time>2026-04-11T09:32:26Z</time></trkpt><trkpt lat="40.06333209580911" lon="9.149828173492097"><ele>549.0</ele><time>2026-04-11T09:32:27Z</time></trkpt><trkpt lat="40.063502553733855" lon="9.149864743568171"><ele>557.6666666666666</ele><time>2026-04-11T09:32:28Z</time></trkpt><trkpt lat="40.06366688170939" lon="9.14994703913562"><ele>566.3333333333333</ele><time>2026-04-11T09:32:29Z</time></trkpt><trkpt lat="40.063828461263384" lon="9.15002386446165"><ele>575.0</ele><time>2026-04-11T09:32:30Z</time></trkpt><trkpt lat="40.06398557883737" lon="9.150063253991076"><ele>573.5</ele><time>2026-04-11T09:32:31Z</time></trkpt><trkpt lat="40.064126280717595" lon="9.150093483081852"><ele>572.0</ele><time>2026-04-11T09:32:32Z</time></trkpt><trkpt lat="40.06424651577789" lon="9.150129691730388"><ele>570.5</ele><time>2026-04-11T09:32:33Z</time></trkpt><trkpt lat="40.06433745159072" lon="9.150162388108294"><ele>569.0</ele><time>2026-04-11T09:32:34Z</time></trkpt><trkpt lat="40.064397887280414" lon="9.150273317476977"><ele>569.0</ele><time>2026-04-11T09:32:35Z</time></trkpt><trkpt lat="40.06441101376067" lon="9.150439903702006"><ele>569.0</ele><time>2026-04-11T09:32:36Z</time></trkpt><trkpt lat="40.06447278184581" lon="9.150600208915575"><ele>569.0</ele><time>2026-04-11T09:32:37Z</time></trkpt><trkpt lat="40.06451210955913" lon="9.150785843765457"><ele>569.0</ele><time>2026-04-11T09:32:38Z</time></trkpt><trkpt lat="40.06455437773318" lon="9.150967541275875"><ele>571.5</ele><time>2026-04-11T09:32:39Z</time></trkpt><trkpt lat="40.06459858318283" lon="9.151125382904294"><ele>574.0</ele><time>2026-04-11T09:32:40Z</time></trkpt><trkpt lat="40.06467115673358" lon="9.151260935427558"><ele>576.5</ele><time>2026-04-11T09:32:41Z</time></trkpt><trkpt lat="40.06477052077372" lon="9.151380535431258"><ele>579.0</ele><time>2026-04-11T09:32:42Z</time></trkpt><trkpt lat="40.064862689808585" lon="9.151458427965375"><ele>576.0</ele><time>2026-04-11T09:32:43Z</time></trkpt><trkpt lat="40.064960342214505" lon="9.151500520906133"><ele>573.0</ele><time>2026-04-11T09:32:44Z</time></trkpt><trkpt lat="40.065069230393085" lon="9.151416609747812"><ele>570.0</ele><time>2026-04-11T09:32:45Z</time></trkpt><trkpt lat="40.06514809246919" lon="9.151287247660436"><ele>567.0</ele><time>2026-04-11T09:32:46Z</time></trkpt><trkpt lat="40.06520058163941" lon="9.15111937941836"><ele>567.0</ele><time>2026-04-11T09:32:47Z</time></trkpt><trkpt lat="40.065255670946634" lon="9.150948359125627"><ele>567.0</ele><time>2026-04-11T09:32:48Z</time></trkpt><trkpt lat="40.06534324147053" lon="9.150798061157396"><ele>567.0</ele><time>2026-04-11T09:32:49Z</time></trkpt><trkpt lat="40.06542115757437" lon="9.150642781377417"><ele>567.0</ele><time>2026-04-11T09:32:50Z</time></trkpt><trkpt lat="40.06550552625855" lon="9.150502525457242"><ele>567.25</ele><time>2026-04-11T09:32:51Z</time></trkpt><trkpt lat="40.06561213289454" lon="9.150404627438894"><ele>567.5</ele><time>2026-04-11T09:32:52Z</time></trkpt><trkpt lat="40.06573320777369" lon="9.15034541372498"><ele>567.75</ele><time>2026-04-11T09:32:53Z</time></trkpt><trkpt lat="40.06585054716293" lon="9.15027576495222"><ele>568.0</ele><time>2026-04-11T09:32:54Z</time></trkpt><trkpt lat="40.06593461963909" lon="9.150136192378472"><ele>568.0</ele><time>2026-04-11T09:32:55Z</time></trkpt><trkpt lat="40.066006380237305" lon="9.149983060766724"><ele>568.0</ele><time>2026-04-11T09:32:56Z</time></trkpt><trkpt lat="40.066084593969" lon="9.149860019703796"><ele>568.0</ele><time>2026-04-11T09:32:57Z</time></trkpt><trkpt lat="40.06618277025444" lon="9.14978342854114"><ele>568.0</ele><time>2026-04-11T09:32:58Z</time></trkpt><trkpt lat="40.06629035432709" lon="9.14969443338583"><ele>567.0</ele><time>2026-04-11T09:32:59Z</time></trkpt><trkpt lat="40.066382070873" lon="9.149587511559561"><ele>566.0</ele><time>2026-04-11T09:33:00Z</time></trkpt><trkpt lat="40.06647745696226" lon="9.149510664242626"><ele>565.0</ele><time>2026-04-11T09:33:01Z</time></trkpt><trkpt lat="40.06656722711978" lon="9.149449614241712"><ele>564.0</ele><time>2026-04-11T09:33:02Z</time></trkpt><trkpt lat="40.06666460325738" lon="9.149435371792359"><ele>563.0</ele><time>2026-04-11T09:33:03Z</time></trkpt><trkpt lat="40.0667698730363" lon="9.149500936416928"><ele>563.0</ele><time>2026-04-11T09:33:04Z</time></trkpt><trkpt lat="40.0668940684923" lon="9.14952656035634"><ele>563.0</ele><time>2026-04-11T09:33:05Z</time></trkpt><trkpt lat="40.06701474155635" lon="9.149583408349352"><ele>563.0</ele><time>2026-04-11T09:33:06Z</time></trkpt><trkpt lat="40.0671234912396" lon="9.149617268111346"><ele>563.0</ele><time>2026-04-11T09:33:07Z</time></trkpt><trkpt lat="40.06721674502125" lon="9.149586476397378"><ele>563.0</ele><time>2026-04-11T09:33:08Z</time></trkpt><trkpt lat="40.06728979114095" lon="9.149505668161378"><ele>563.0</ele><time>2026-04-11T09:33:09Z</time></trkpt><trkpt lat="40.067291172456464" lon="9.14934441871428"><ele>563.0</ele><time>2026-04-11T09:33:10Z</time></trkpt><trkpt lat="40.067266794419915" lon="9.149204913191207"><ele>563.0</ele><time>2026-04-11T09:33:11Z</time></trkpt><trkpt lat="40.06724767356827" lon="9.149081722211601"><ele>563.0</ele><time>2026-04-11T09:33:12Z</time></trkpt><trkpt lat="40.06727172995647" lon="9.148972091579715"><ele>562.6</ele><time>2026-04-11T09:33:13Z</time></trkpt><trkpt lat="40.06735458392945" lon="9.148906504201632"><ele>562.1999999999999</ele><time>2026-04-11T09:33:14Z</time></trkpt><trkpt lat="40.067420949908495" lon="9.148807987423044"><ele>561.8</ele><time>2026-04-11T09:33:15Z</time></trkpt><trkpt lat="40.0675332944706" lon="9.148759550171667"><ele>561.4</ele><time>2026-04-11T09:33:16Z</time></trkpt><trkpt lat="40.067623644775246" lon="9.148653942732244"><ele>561.0</ele><time>2026-04-11T09:33:17Z</time></trkpt><trkpt lat="40.06770156766784" lon="9.148523702976272"><ele>561.0</ele><time>2026-04-11T09:33:18Z</time></trkpt><trkpt lat="40.067791447279625" lon="9.148401179384132"><ele>561.0</ele><time>2026-04-11T09:33:19Z</time></trkpt><trkpt lat="40.067881076437665" lon="9.148284965186406"><ele>561.0</ele><time>2026-04-11T09:33:20Z</time></trkpt><trkpt lat="40.067969243500876" lon="9.14817812094003"><ele>561.0</ele><time>2026-04-11T09:33:21Z</time></trkpt><trkpt lat="40.06804796752613" lon="9.148072557625559"><ele>560.8</ele><time>2026-04-11T09:33:22Z</time></trkpt><trkpt lat="40.06808145661379" lon="9.147935632840538"><ele>560.6</ele><time>2026-04-11T09:33:23Z</time></trkpt><trkpt lat="40.068122326702294" lon="9.147822136724251"><ele>560.4</ele><time>2026-04-11T09:33:24Z</time></trkpt><trkpt lat="40.06816605968246" lon="9.14771857944036"><ele>560.2</ele><time>2026-04-11T09:33:25Z</time></trkpt><trkpt lat="40.06822058809338" lon="9.147638515554355"><ele>560.0</ele><time>2026-04-11T09:33:26Z</time></trkpt><trkpt lat="40.068303176473734" lon="9.147628647403213"><ele>560.0</ele><time>2026-04-11T09:33:27Z</time></trkpt><trkpt lat="40.06837473348629" lon="9.147623540736772"><ele>560.0</ele><time>2026-04-11T09:33:28Z</time></trkpt><trkpt lat="40.068440129937336" lon="9.147663610258192"><ele>560.0</ele><time>2026-04-11T09:33:29Z</time></trkpt><trkpt lat="40.06851611607686" lon="9.147706192066801"><ele>560.0</ele><time>2026-04-11T09:33:30Z</time></trkpt><trkpt lat="40.06859190628447" lon="9.147749117505994"><ele>560.0</ele><time>2026-04-11T09:33:31Z</time></trkpt><trkpt lat="40.06866258516068" lon="9.14778444335402"><ele>560.0</ele><time>2026-04-11T09:33:32Z</time></trkpt><trkpt lat="40.06873452889909" lon="9.147806637733876"><ele>560.0</ele><time>2026-04-11T09:33:33Z</time></trkpt><trkpt lat="40.06881053251647" lon="9.147794100152192"><ele>560.0</ele><time>2026-04-11T09:33:34Z</time></trkpt><trkpt lat="40.06888734568289" lon="9.147762777908858"><ele>560.0</ele><time>2026-04-11T09:33:35Z</time></trkpt><trkpt lat="40.06895080771763" lon="9.14770228183066"><ele>560.0</ele><time>2026-04-11T09:33:36Z</time></trkpt><trkpt lat="40.06900777546262" lon="9.147666464427815"><ele>560.0</ele><time>2026-04-11T09:33:37Z</time></trkpt><trkpt lat="40.06906693321326" lon="9.147628317178706"><ele>560.0</ele><time>2026-04-11T09:33:39Z</time></trkpt><trkpt lat="40.06917883777291" lon="9.14757710599651"><ele>560.8333333333333</ele><time>2026-04-11T09:33:42Z</time></trkpt><trkpt lat="40.06923657109108" lon="9.147520106560364"><ele>561.6666666666666</ele><time>2026-04-11T09:33:43Z</time></trkpt><trkpt lat="40.06931148342772" lon="9.147505501795763"><ele>562.5</ele><time>2026-04-11T09:33:44Z</time></trkpt><trkpt lat="40.06939180898901" lon="9.147553330488508"><ele>563.3333333333334</ele><time>2026-04-11T09:33:45Z</time></trkpt><trkpt lat="40.06947948315142" lon="9.147583815726005"><ele>564.1666666666667</ele><time>2026-04-11T09:33:46Z</time></trkpt><trkpt lat="40.06957052173428" lon="9.147618193106393"><ele>565.0</ele><time>2026-04-11T09:33:47Z</time></trkpt><trkpt lat="40.06966280867556" lon="9.147655160320758"><ele>565.0</ele><time>2026-04-11T09:33:48Z</time></trkpt><trkpt lat="40.069757838280005" lon="9.147696728721103"><ele>565.0</ele><time>2026-04-11T09:33:49Z</time></trkpt><trkpt lat="40.06985739380572" lon="9.147741943700344"><ele>565.0</ele><time>2026-04-11T09:33:50Z</time></trkpt><trkpt lat="40.06996433487871" lon="9.147781014712466"><ele>565.0</ele><time>2026-04-11T09:33:51Z</time></trkpt><trkpt lat="40.07007145957338" lon="9.147832539518314"><ele>565.0</ele><time>2026-04-11T09:33:52Z</time></trkpt><trkpt lat="40.0701791393318" lon="9.147888776281507"><ele>565.5</ele><time>2026-04-11T09:33:53Z</time></trkpt><trkpt lat="40.07028570514176" lon="9.147946284537756"><ele>566.0</ele><time>2026-04-11T09:33:54Z</time></trkpt><trkpt lat="40.070404339982105" lon="9.147962040150114"><ele>566.5</ele><time>2026-04-11T09:33:55Z</time></trkpt><trkpt lat="40.070522300702834" lon="9.147895408724626"><ele>567.0</ele><time>2026-04-11T09:33:56Z</time></trkpt><trkpt lat="40.07063166970129" lon="9.147828447151086"><ele>567.0</ele><time>2026-04-11T09:33:57Z</time></trkpt><trkpt lat="40.070734873944915" lon="9.147766862688123"><ele>567.0</ele><time>2026-04-11T09:33:58Z</time></trkpt><trkpt lat="40.070849792831694" lon="9.147705342628347"><ele>567.0</ele><time>2026-04-11T09:33:59Z</time></trkpt><trkpt lat="40.07096719754339" lon="9.147651247398244"><ele>567.0</ele><time>2026-04-11T09:34:00Z</time></trkpt><trkpt lat="40.071088974079885" lon="9.147604128252311"><ele>568.25</ele><time>2026-04-11T09:34:01Z</time></trkpt><trkpt lat="40.0712154848427" lon="9.147561213205451"><ele>569.5</ele><time>2026-04-11T09:34:02Z</time></trkpt><trkpt lat="40.07134232075922" lon="9.14752291759264"><ele>570.75</ele><time>2026-04-11T09:34:03Z</time></trkpt><trkpt lat="40.07147521900468" lon="9.14749360047252"><ele>572.0</ele><time>2026-04-11T09:34:04Z</time></trkpt><trkpt lat="40.071619025021675" lon="9.147474902319523"><ele>568.0</ele><time>2026-04-11T09:34:05Z</time></trkpt><trkpt lat="40.07176937273423" lon="9.14745064777589"><ele>564.0</ele><time>2026-04-11T09:34:06Z</time></trkpt><trkpt lat="40.0719224935365" lon="9.147405603247204"><ele>560.0</ele><time>2026-04-11T09:34:07Z</time></trkpt><trkpt lat="40.072076566472056" lon="9.147353859469405"><ele>560.0</ele><time>2026-04-11T09:34:08Z</time></trkpt><trkpt lat="40.072226299116046" lon="9.147302447255973"><ele>560.0</ele><time>2026-04-11T09:34:09Z</time></trkpt><trkpt lat="40.072374865056844" lon="9.147251435656813"><ele>560.0</ele><time>2026-04-11T09:34:10Z</time></trkpt><trkpt lat="40.072526657277365" lon="9.147199316282551"><ele>563.6666666666666</ele><time>2026-04-11T09:34:11Z</time></trkpt><trkpt lat="40.072679895883226" lon="9.147146618275427"><ele>567.3333333333334</ele><time>2026-04-11T09:34:12Z</time></trkpt><trkpt lat="40.07283608830636" lon="9.14710697709115"><ele>571.0</ele><time>2026-04-11T09:34:13Z</time></trkpt><trkpt lat="40.072998333085685" lon="9.147084103718012"><ele>571.0</ele><time>2026-04-11T09:34:14Z</time></trkpt><trkpt lat="40.07316109724767" lon="9.147076797427808"><ele>571.0</ele><time>2026-04-11T09:34:15Z</time></trkpt><trkpt lat="40.07331899244139" lon="9.147020164571327"><ele>571.0</ele><time>2026-04-11T09:34:16Z</time></trkpt><trkpt lat="40.07347039027592" lon="9.146944852959844"><ele>574.3333333333334</ele><time>2026-04-11T09:34:17Z</time></trkpt><trkpt lat="40.073630194932626" lon="9.146862258428829"><ele>577.6666666666666</ele><time>2026-04-11T09:34:18Z</time></trkpt><trkpt lat="40.07378496379403" lon="9.146768582703745"><ele>581.0</ele><time>2026-04-11T09:34:19Z</time></trkpt><trkpt lat="40.073937957199334" lon="9.146674403493009"><ele>581.0</ele><time>2026-04-11T09:34:20Z</time></trkpt><trkpt lat="40.07407689637526" lon="9.14659219250216"><ele>581.0</ele><time>2026-04-11T09:34:21Z</time></trkpt><trkpt lat="40.07420742481309" lon="9.14650888669017"><ele>581.0</ele><time>2026-04-11T09:34:22Z</time></trkpt><trkpt lat="40.07436868428182" lon="9.146492526616546"><ele>579.0</ele><time>2026-04-11T09:34:23Z</time></trkpt><trkpt lat="40.07453623454001" lon="9.1465157089792"><ele>577.0</ele><time>2026-04-11T09:34:24Z</time></trkpt><trkpt lat="40.074687949541314" lon="9.146552619511306"><ele>575.0</ele><time>2026-04-11T09:34:25Z</time></trkpt><trkpt lat="40.07481884984697" lon="9.146593658566866"><ele>580.75</ele><time>2026-04-11T09:34:26Z</time></trkpt><trkpt lat="40.074935398933484" lon="9.1466795267648"><ele>586.5</ele><time>2026-04-11T09:34:27Z</time></trkpt><trkpt lat="40.07502875084288" lon="9.146813743633462"><ele>592.25</ele><time>2026-04-11T09:34:28Z</time></trkpt><trkpt lat="40.075113246867765" lon="9.146931873978513"><ele>598.0</ele><time>2026-04-11T09:34:29Z</time></trkpt><trkpt lat="40.0752151041987" lon="9.146984391612643"><ele>599.5</ele><time>2026-04-11T09:34:30Z</time></trkpt><trkpt lat="40.07533153782747" lon="9.146971489305948"><ele>601.0</ele><time>2026-04-11T09:34:31Z</time></trkpt><trkpt lat="40.07544082919232" lon="9.146927421731062"><ele>602.5</ele><time>2026-04-11T09:34:32Z</time></trkpt><trkpt lat="40.0754941121293" lon="9.14677007271155"><ele>604.0</ele><time>2026-04-11T09:34:33Z</time></trkpt><trkpt lat="40.07553503308915" lon="9.146610017692122"><ele>601.25</ele><time>2026-04-11T09:34:34Z</time></trkpt><trkpt lat="40.07560207830514" lon="9.14648703375741"><ele>598.5</ele><time>2026-04-11T09:34:35Z</time></trkpt><trkpt lat="40.07570561795031" lon="9.146398750447617"><ele>595.75</ele><time>2026-04-11T09:34:36Z</time></trkpt><trkpt lat="40.07583737249734" lon="9.146380878550792"><ele>593.0</ele><time>2026-04-11T09:34:37Z</time></trkpt><trkpt lat="40.07598008742965" lon="9.146382317724491"><ele>593.0</ele><time>2026-04-11T09:34:38Z</time></trkpt><trkpt lat="40.07613152793815" lon="9.146359584463223"><ele>593.0</ele><time>2026-04-11T09:34:39Z</time></trkpt><trkpt lat="40.076283819393886" lon="9.146377810656107"><ele>593.0</ele><time>2026-04-11T09:34:40Z</time></trkpt><trkpt lat="40.07644711849907" lon="9.146374868613469"><ele>595.0</ele><time>2026-04-11T09:34:41Z</time></trkpt><trkpt lat="40.07661187233235" lon="9.146371900357032"><ele>597.0</ele><time>2026-04-11T09:34:42Z</time></trkpt><trkpt lat="40.076785654308786" lon="9.146368769451511"><ele>599.0</ele><time>2026-04-11T09:34:43Z</time></trkpt><trkpt lat="40.07695892659853" lon="9.146366687224836"><ele>599.0</ele><time>2026-04-11T09:34:44Z</time></trkpt><trkpt lat="40.07713070288009" lon="9.146364687669713"><ele>599.0</ele><time>2026-04-11T09:34:45Z</time></trkpt><trkpt lat="40.07729910187727" lon="9.146363186380936"><ele>599.0</ele><time>2026-04-11T09:34:46Z</time></trkpt><trkpt lat="40.07745954956449" lon="9.146374377836093"><ele>599.0</ele><time>2026-04-11T09:34:47Z</time></trkpt><trkpt lat="40.07761664384239" lon="9.146456905168398"><ele>599.0</ele><time>2026-04-11T09:34:48Z</time></trkpt><trkpt lat="40.07776423895969" lon="9.14658032182322"><ele>599.0</ele><time>2026-04-11T09:34:49Z</time></trkpt><trkpt lat="40.0778875440759" lon="9.146731756427526"><ele>603.0</ele><time>2026-04-11T09:34:50Z</time></trkpt><trkpt lat="40.07798912753655" lon="9.146881347876018"><ele>607.0</ele><time>2026-04-11T09:34:51Z</time></trkpt><trkpt lat="40.07809459302216" lon="9.146998349582177"><ele>611.0</ele><time>2026-04-11T09:34:52Z</time></trkpt><trkpt lat="40.07820828645549" lon="9.14708162865307"><ele>615.0</ele><time>2026-04-11T09:34:53Z</time></trkpt><trkpt lat="40.07834865831704" lon="9.14704561158802"><ele>615.0</ele><time>2026-04-11T09:34:54Z</time></trkpt><trkpt lat="40.07848633875769" lon="9.146965850049934"><ele>615.0</ele><time>2026-04-11T09:34:55Z</time></trkpt><trkpt lat="40.078625059248104" lon="9.146894629702617"><ele>615.0</ele><time>2026-04-11T09:34:56Z</time></trkpt><trkpt lat="40.07877441620566" lon="9.146852844397898"><ele>615.0</ele><time>2026-04-11T09:34:57Z</time></trkpt><trkpt lat="40.07893431353711" lon="9.146865539964427"><ele>615.0</ele><time>2026-04-11T09:34:58Z</time></trkpt><trkpt lat="40.07909841422809" lon="9.146889047992442"><ele>615.0</ele><time>2026-04-11T09:34:59Z</time></trkpt><trkpt lat="40.079253560949425" lon="9.14693742330336"><ele>616.0</ele><time>2026-04-11T09:35:00Z</time></trkpt><trkpt lat="40.079415612603334" lon="9.146915665599254"><ele>617.0</ele><time>2026-04-11T09:35:01Z</time></trkpt><trkpt lat="40.07957213393165" lon="9.146831791594309"><ele>618.0</ele><time>2026-04-11T09:35:02Z</time></trkpt><trkpt lat="40.07971427648769" lon="9.146710381916288"><ele>618.0</ele><time>2026-04-11T09:35:03Z</time></trkpt><trkpt lat="40.07985875243655" lon="9.146630135182123"><ele>618.0</ele><time>2026-04-11T09:35:04Z</time></trkpt><trkpt lat="40.080020938768016" lon="9.146598378505917"><ele>618.0</ele><time>2026-04-11T09:35:05Z</time></trkpt><trkpt lat="40.08017585229201" lon="9.146618525815187"><ele>622.0</ele><time>2026-04-11T09:35:06Z</time></trkpt><trkpt lat="40.08031770551357" lon="9.146683387340628"><ele>626.0</ele><time>2026-04-11T09:35:07Z</time></trkpt><trkpt lat="40.08045437663992" lon="9.146800943010645"><ele>630.0</ele><time>2026-04-11T09:35:08Z</time></trkpt><trkpt lat="40.08060601411624" lon="9.14692783911296"><ele>628.6666666666666</ele><time>2026-04-11T09:35:09Z</time></trkpt><trkpt lat="40.08077268462393" lon="9.14702265609909"><ele>627.3333333333333</ele><time>2026-04-11T09:35:10Z</time></trkpt><trkpt lat="40.08094008880241" lon="9.147095157018162"><ele>626.0</ele><time>2026-04-11T09:35:11Z</time></trkpt><trkpt lat="40.08110249797208" lon="9.14715363659499"><ele>626.0</ele><time>2026-04-11T09:35:12Z</time></trkpt><trkpt lat="40.08126691667477" lon="9.147145604088195"><ele>626.0</ele><time>2026-04-11T09:35:13Z</time></trkpt><trkpt lat="40.081416859548575" lon="9.147097233728418"><ele>626.0</ele><time>2026-04-11T09:35:14Z</time></trkpt><trkpt lat="40.08155737870622" lon="9.147044018775924"><ele>626.0</ele><time>2026-04-11T09:35:15Z</time></trkpt><trkpt lat="40.08170047221063" lon="9.147030006134438"><ele>626.0</ele><time>2026-04-11T09:35:16Z</time></trkpt><trkpt lat="40.081855616838226" lon="9.147070683574633"><ele>626.0</ele><time>2026-04-11T09:35:17Z</time></trkpt><trkpt lat="40.08200993646358" lon="9.147161196550258"><ele>626.0</ele><time>2026-04-11T09:35:18Z</time></trkpt><trkpt lat="40.08216409138039" lon="9.147231277268762"><ele>626.0</ele><time>2026-04-11T09:35:19Z</time></trkpt><trkpt lat="40.08233884229436" lon="9.147236686492938"><ele>626.0</ele><time>2026-04-11T09:35:20Z</time></trkpt><trkpt lat="40.08250593067069" lon="9.14719390916636"><ele>629.3333333333333</ele><time>2026-04-11T09:35:21Z</time></trkpt><trkpt lat="40.082653101018884" lon="9.147133506856601"><ele>632.6666666666666</ele><time>2026-04-11T09:35:22Z</time></trkpt><trkpt lat="40.08276501093845" lon="9.146980005840474"><ele>636.0</ele><time>2026-04-11T09:35:23Z</time></trkpt><trkpt lat="40.0828529768865" lon="9.14679384807303"><ele>636.0</ele><time>2026-04-11T09:35:24Z</time></trkpt><trkpt lat="40.082914929174" lon="9.146602583447594"><ele>636.0</ele><time>2026-04-11T09:35:25Z</time></trkpt><trkpt lat="40.083020601137285" lon="9.146447428357703"><ele>636.0</ele><time>2026-04-11T09:35:26Z</time></trkpt><trkpt lat="40.08316361755851" lon="9.146313321554771"><ele>637.6666666666666</ele><time>2026-04-11T09:35:27Z</time></trkpt><trkpt lat="40.08332823617739" lon="9.146199938193291"><ele>639.3333333333333</ele><time>2026-04-11T09:35:28Z</time></trkpt><trkpt lat="40.08349193238078" lon="9.14606832042472"><ele>641.0</ele><time>2026-04-11T09:35:29Z</time></trkpt><trkpt lat="40.083643700260936" lon="9.145921234563762"><ele>641.0</ele><time>2026-04-11T09:35:30Z</time></trkpt><trkpt lat="40.08379228358476" lon="9.145769266858544"><ele>641.0</ele><time>2026-04-11T09:35:31Z</time></trkpt><trkpt lat="40.083939671687595" lon="9.145618846326764"><ele>641.0</ele><time>2026-04-11T09:35:32Z</time></trkpt><trkpt lat="40.08407963407929" lon="9.145483438783005"><ele>639.3333333333333</ele><time>2026-04-11T09:35:33Z</time></trkpt><trkpt lat="40.08422640893247" lon="9.145386759137745"><ele>637.6666666666666</ele><time>2026-04-11T09:35:34Z</time></trkpt><trkpt lat="40.08439139738986" lon="9.145338643236949"><ele>636.0</ele><time>2026-04-11T09:35:35Z</time></trkpt><trkpt lat="40.08456618368033" lon="9.14535499470809"><ele>636.0</ele><time>2026-04-11T09:35:36Z</time></trkpt><trkpt lat="40.084738466216095" lon="9.145415992953549"><ele>636.0</ele><time>2026-04-11T09:35:37Z</time></trkpt><trkpt lat="40.08491657736436" lon="9.145430032305695"><ele>636.0</ele><time>2026-04-11T09:35:38Z</time></trkpt><trkpt lat="40.08509225919338" lon="9.14538962053362"><ele>636.6666666666666</ele><time>2026-04-11T09:35:39Z</time></trkpt><trkpt lat="40.08525409691151" lon="9.145379173513604"><ele>637.3333333333333</ele><time>2026-04-11T09:35:40Z</time></trkpt><trkpt lat="40.085417960031805" lon="9.145448120102936"><ele>638.0</ele><time>2026-04-11T09:35:41Z</time></trkpt><trkpt lat="40.08558269925439" lon="9.145561723114504"><ele>638.0</ele><time>2026-04-11T09:35:42Z</time></trkpt><trkpt lat="40.0857521623358" lon="9.145661391064952"><ele>638.0</ele><time>2026-04-11T09:35:43Z</time></trkpt><trkpt lat="40.08591953464821" lon="9.145747703371228"><ele>638.0</ele><time>2026-04-11T09:35:44Z</time></trkpt><trkpt lat="40.08607831353848" lon="9.145834979264697"><ele>648.3333333333333</ele><time>2026-04-11T09:35:45Z</time></trkpt><trkpt lat="40.08622476431412" lon="9.145962467547294"><ele>658.6666666666666</ele><time>2026-04-11T09:35:46Z</time></trkpt><trkpt lat="40.08636423341731" lon="9.14610445220444"><ele>669.0</ele><time>2026-04-11T09:35:47Z</time></trkpt><trkpt lat="40.08648626262711" lon="9.14625502295423"><ele>661.6666666666666</ele><time>2026-04-11T09:35:48Z</time></trkpt><trkpt lat="40.0866638097213" lon="9.146318856146538"><ele>654.3333333333333</ele><time>2026-04-11T09:35:49Z</time></trkpt><trkpt lat="40.08684815249259" lon="9.146371955759445"><ele>647.0</ele><time>2026-04-11T09:35:50Z</time></trkpt><trkpt lat="40.0870109344576" lon="9.146434961533862"><ele>647.0</ele><time>2026-04-11T09:35:51Z</time></trkpt><trkpt lat="40.0871528489077" lon="9.14651621016079"><ele>647.0</ele><time>2026-04-11T09:35:52Z</time></trkpt><trkpt lat="40.08730297805223" lon="9.146506440090349"><ele>647.0</ele><time>2026-04-11T09:35:53Z</time></trkpt><trkpt lat="40.08743662663978" lon="9.146393281032937"><ele>648.6666666666666</ele><time>2026-04-11T09:35:54Z</time></trkpt><trkpt lat="40.08756330803981" lon="9.146257242469474"><ele>650.3333333333334</ele><time>2026-04-11T09:35:55Z</time></trkpt><trkpt lat="40.087712294965115" lon="9.146156364132503"><ele>652.0</ele><time>2026-04-11T09:35:56Z</time></trkpt><trkpt lat="40.08786821829852" lon="9.146080469544692"><ele>652.0</ele><time>2026-04-11T09:35:57Z</time></trkpt><trkpt lat="40.08802238284108" lon="9.146043580042434"><ele>652.0</ele><time>2026-04-11T09:35:58Z</time></trkpt><trkpt lat="40.088177399753235" lon="9.146055941881503"><ele>652.0</ele><time>2026-04-11T09:35:59Z</time></trkpt><trkpt lat="40.08832705839111" lon="9.146126490816593"><ele>655.6666666666667</ele><time>2026-04-11T09:36:00Z</time></trkpt><trkpt lat="40.088474950376614" lon="9.14623066054152"><ele>659.3333333333334</ele><time>2026-04-11T09:36:01Z</time></trkpt><trkpt lat="40.08861939741007" lon="9.146337541897443"><ele>663.0</ele><time>2026-04-11T09:36:02Z</time></trkpt><trkpt lat="40.08875452231794" lon="9.146464645283373"><ele>674.0</ele><time>2026-04-11T09:36:03Z</time></trkpt><trkpt lat="40.0888667325511" lon="9.146632010310041"><ele>685.0</ele><time>2026-04-11T09:36:04Z</time></trkpt><trkpt lat="40.088967661225624" lon="9.146815440818523"><ele>696.0</ele><time>2026-04-11T09:36:05Z</time></trkpt><trkpt lat="40.08909110670373" lon="9.146974320098076"><ele>690.6666666666666</ele><time>2026-04-11T09:36:06Z</time></trkpt><trkpt lat="40.08922830213398" lon="9.147110605731857"><ele>685.3333333333333</ele><time>2026-04-11T09:36:07Z</time></trkpt><trkpt lat="40.089376099110716" lon="9.147237281848891"><ele>680.0</ele><time>2026-04-11T09:36:08Z</time></trkpt><trkpt lat="40.08954420053134" lon="9.14731498057318"><ele>684.0</ele><time>2026-04-11T09:36:09Z</time></trkpt><trkpt lat="40.08971117617146" lon="9.147380309345992"><ele>688.0</ele><time>2026-04-11T09:36:10Z</time></trkpt><trkpt lat="40.08987185638847" lon="9.147448509225567"><ele>692.0</ele><time>2026-04-11T09:36:11Z</time></trkpt><trkpt lat="40.09001828714447" lon="9.147543393627226"><ele>692.0</ele><time>2026-04-11T09:36:12Z</time></trkpt><trkpt lat="40.09015480502061" lon="9.14765216387639"><ele>692.0</ele><time>2026-04-11T09:36:13Z</time></trkpt><trkpt lat="40.09027815527665" lon="9.147758374029507"><ele>692.0</ele><time>2026-04-11T09:36:14Z</time></trkpt><trkpt lat="40.090377041993214" lon="9.147869896339829"><ele>692.0</ele><time>2026-04-11T09:36:15Z</time></trkpt><trkpt lat="40.09045065003642" lon="9.14799999963475"><ele>692.0</ele><time>2026-04-11T09:36:16Z</time></trkpt><trkpt lat="40.090500841879724" lon="9.148150810554311"><ele>692.0</ele><time>2026-04-11T09:36:17Z</time></trkpt><trkpt lat="40.09053772880069" lon="9.148307068717223"><ele>692.0</ele><time>2026-04-11T09:36:18Z</time></trkpt><trkpt lat="40.090526473717325" lon="9.148480502095424"><ele>692.0</ele><time>2026-04-11T09:36:19Z</time></trkpt><trkpt lat="40.09049144685758" lon="9.148654070105527"><ele>695.5</ele><time>2026-04-11T09:36:20Z</time></trkpt><trkpt lat="40.0904535010256" lon="9.148833046575852"><ele>699.0</ele><time>2026-04-11T09:36:21Z</time></trkpt><trkpt lat="40.09044005729882" lon="9.149020223925532"><ele>702.5</ele><time>2026-04-11T09:36:22Z</time></trkpt><trkpt lat="40.09045893328699" lon="9.149216281342186"><ele>706.0</ele><time>2026-04-11T09:36:23Z</time></trkpt><trkpt lat="40.09049802086205" lon="9.149409063042356"><ele>707.3333333333334</ele><time>2026-04-11T09:36:24Z</time></trkpt><trkpt lat="40.09055074899724" lon="9.149597994307742"><ele>708.6666666666666</ele><time>2026-04-11T09:36:25Z</time></trkpt><trkpt lat="40.09060126403988" lon="9.149792809693391"><ele>710.0</ele><time>2026-04-11T09:36:26Z</time></trkpt><trkpt lat="40.090677936924656" lon="9.14997339474194"><ele>705.3333333333333</ele><time>2026-04-11T09:36:27Z</time></trkpt><trkpt lat="40.09076347024712" lon="9.150140774352947"><ele>700.6666666666666</ele><time>2026-04-11T09:36:28Z</time></trkpt><trkpt lat="40.090842978265925" lon="9.150306228143075"><ele>696.0</ele><time>2026-04-11T09:36:29Z</time></trkpt><trkpt lat="40.09090824853411" lon="9.150477660531779"><ele>696.0</ele><time>2026-04-11T09:36:30Z</time></trkpt><trkpt lat="40.09093181320066" lon="9.150667714173572"><ele>696.0</ele><time>2026-04-11T09:36:31Z</time></trkpt><trkpt lat="40.090925619519304" lon="9.150847641878784"><ele>696.0</ele><time>2026-04-11T09:36:32Z</time></trkpt><trkpt lat="40.09087033543208" lon="9.151008087839053"><ele>696.0</ele><time>2026-04-11T09:36:33Z</time></trkpt><trkpt lat="40.090764208805716" lon="9.151138672556696"><ele>705.0</ele><time>2026-04-11T09:36:34Z</time></trkpt><trkpt lat="40.090637775215306" lon="9.151245280061238"><ele>714.0</ele><time>2026-04-11T09:36:35Z</time></trkpt><trkpt lat="40.09049837567426" lon="9.151351908522388"><ele>723.0</ele><time>2026-04-11T09:36:36Z</time></trkpt><trkpt lat="40.09035009028962" lon="9.15147017843814"><ele>721.3333333333334</ele><time>2026-04-11T09:36:37Z</time></trkpt><trkpt lat="40.09020046331305" lon="9.15158974665513"><ele>719.6666666666667</ele><time>2026-04-11T09:36:38Z</time></trkpt><trkpt lat="40.090040759424454" lon="9.151707972134076"><ele>718.0</ele><time>2026-04-11T09:36:39Z</time></trkpt><trkpt lat="40.08987310935975" lon="9.151828374829867"><ele>718.0</ele><time>2026-04-11T09:36:40Z</time></trkpt><trkpt lat="40.08970217336059" lon="9.151950899106435"><ele>718.0</ele><time>2026-04-11T09:36:41Z</time></trkpt><trkpt lat="40.0895299102705" lon="9.152074913552322"><ele>718.0</ele><time>2026-04-11T09:36:42Z</time></trkpt><trkpt lat="40.08936119200577" lon="9.152192326450733"><ele>718.0</ele><time>2026-04-11T09:36:43Z</time></trkpt><trkpt lat="40.08919421819913" lon="9.152310684677417"><ele>718.0</ele><time>2026-04-11T09:36:44Z</time></trkpt><trkpt lat="40.0890376986774" lon="9.152441660427233"><ele>718.0</ele><time>2026-04-11T09:36:45Z</time></trkpt><trkpt lat="40.08889901785615" lon="9.152603542610438"><ele>717.6666666666667</ele><time>2026-04-11T09:36:46Z</time></trkpt><trkpt lat="40.08877279893263" lon="9.15278266301271"><ele>717.3333333333334</ele><time>2026-04-11T09:36:47Z</time></trkpt><trkpt lat="40.08864964386818" lon="9.152944513673779"><ele>717.0</ele><time>2026-04-11T09:36:48Z</time></trkpt><trkpt lat="40.088532579568785" lon="9.15309267576179"><ele>713.3333333333334</ele><time>2026-04-11T09:36:49Z</time></trkpt><trkpt lat="40.08843918341671" lon="9.153252532405958"><ele>709.6666666666667</ele><time>2026-04-11T09:36:50Z</time></trkpt><trkpt lat="40.08837651147086" lon="9.15343867194023"><ele>706.0</ele><time>2026-04-11T09:36:51Z</time></trkpt><trkpt lat="40.08835570128611" lon="9.153658983228"><ele>706.0</ele><time>2026-04-11T09:36:52Z</time></trkpt><trkpt lat="40.08835809934018" lon="9.153899065664708"><ele>706.0</ele><time>2026-04-11T09:36:53Z</time></trkpt><trkpt lat="40.08835843663148" lon="9.154125364725662"><ele>706.0</ele><time>2026-04-11T09:36:54Z</time></trkpt><trkpt lat="40.088360968587175" lon="9.154340937243916"><ele>705.0</ele><time>2026-04-11T09:36:55Z</time></trkpt><trkpt lat="40.08834217271902" lon="9.15454066831102"><ele>704.0</ele><time>2026-04-11T09:36:56Z</time></trkpt><trkpt lat="40.088350788078266" lon="9.15472835573769"><ele>703.0</ele><time>2026-04-11T09:36:57Z</time></trkpt><trkpt lat="40.08830041005614" lon="9.154885422753463"><ele>702.0</ele><time>2026-04-11T09:36:58Z</time></trkpt><trkpt lat="40.08820516175534" lon="9.155012800762595"><ele>704.5</ele><time>2026-04-11T09:36:59Z</time></trkpt><trkpt lat="40.08807761503396" lon="9.155080861041336"><ele>707.0</ele><time>2026-04-11T09:37:00Z</time></trkpt><trkpt lat="40.087937716880965" lon="9.155112812277116"><ele>709.5</ele><time>2026-04-11T09:37:01Z</time></trkpt><trkpt lat="40.08782800015665" lon="9.155197997210571"><ele>712.0</ele><time>2026-04-11T09:37:02Z</time></trkpt><trkpt lat="40.08776070689618" lon="9.155330206850477"><ele>712.0</ele><time>2026-04-11T09:37:03Z</time></trkpt><trkpt lat="40.0877452297947" lon="9.15549026713223"><ele>712.0</ele><time>2026-04-11T09:37:04Z</time></trkpt><trkpt lat="40.08778190099305" lon="9.155665498304254"><ele>712.0</ele><time>2026-04-11T09:37:05Z</time></trkpt><trkpt lat="40.08785356970087" lon="9.155846248833376"><ele>712.0</ele><time>2026-04-11T09:37:06Z</time></trkpt><trkpt lat="40.0879280457019" lon="9.15603281319164"><ele>711.0</ele><time>2026-04-11T09:37:07Z</time></trkpt><trkpt lat="40.08800208721291" lon="9.156234595337962"><ele>710.0</ele><time>2026-04-11T09:37:08Z</time></trkpt><trkpt lat="40.08810784672865" lon="9.1564082200608"><ele>709.0</ele><time>2026-04-11T09:37:09Z</time></trkpt><trkpt lat="40.08822698170138" lon="9.156534146039075"><ele>707.25</ele><time>2026-04-11T09:37:10Z</time></trkpt><trkpt lat="40.088296320023154" lon="9.15669175600839"><ele>705.5</ele><time>2026-04-11T09:37:11Z</time></trkpt><trkpt lat="40.0883466456493" lon="9.156843661605253"><ele>703.75</ele><time>2026-04-11T09:37:12Z</time></trkpt><trkpt lat="40.08842437311611" lon="9.156958187758129"><ele>702.0</ele><time>2026-04-11T09:37:13Z</time></trkpt><trkpt lat="40.08853150934519" lon="9.156995190844201"><ele>702.0</ele><time>2026-04-11T09:37:14Z</time></trkpt><trkpt lat="40.088642783340084" lon="9.15696759317173"><ele>702.0</ele><time>2026-04-11T09:37:15Z</time></trkpt><trkpt lat="40.088760444633884" lon="9.156872550099951"><ele>702.0</ele><time>2026-04-11T09:37:16Z</time></trkpt><trkpt lat="40.08889367740433" lon="9.156786247547998"><ele>702.0</ele><time>2026-04-11T09:37:17Z</time></trkpt><trkpt lat="40.089032944711725" lon="9.156700118693552"><ele>701.3333333333334</ele><time>2026-04-11T09:37:18Z</time></trkpt><trkpt lat="40.08917987824759" lon="9.156647414787185"><ele>700.6666666666667</ele><time>2026-04-11T09:37:19Z</time></trkpt><trkpt lat="40.089326991213795" lon="9.156636273481237"><ele>700.0</ele><time>2026-04-11T09:37:20Z</time></trkpt><trkpt lat="40.08948190496086" lon="9.15667021391435"><ele>700.0</ele><time>2026-04-11T09:37:21Z</time></trkpt><trkpt lat="40.08964129059355" lon="9.156721835458645"><ele>700.0</ele><time>2026-04-11T09:37:22Z</time></trkpt><trkpt lat="40.08981856449062" lon="9.156754786979958"><ele>700.0</ele><time>2026-04-11T09:37:23Z</time></trkpt><trkpt lat="40.089999119529026" lon="9.15682266788883"><ele>699.0</ele><time>2026-04-11T09:37:24Z</time></trkpt><trkpt lat="40.090190320336724" lon="9.156859297800025"><ele>698.0</ele><time>2026-04-11T09:37:25Z</time></trkpt><trkpt lat="40.09038678082443" lon="9.156862830577595"><ele>697.0</ele><time>2026-04-11T09:37:26Z</time></trkpt><trkpt lat="40.09058438636585" lon="9.156889760925301"><ele>697.6666666666667</ele><time>2026-04-11T09:37:27Z</time></trkpt><trkpt lat="40.090781242047846" lon="9.156876040225752"><ele>698.3333333333334</ele><time>2026-04-11T09:37:28Z</time></trkpt><trkpt lat="40.09096056609768" lon="9.156826764185258"><ele>699.0</ele><time>2026-04-11T09:37:29Z</time></trkpt><trkpt lat="40.09112353228504" lon="9.156779613701366"><ele>699.0</ele><time>2026-04-11T09:37:30Z</time></trkpt><trkpt lat="40.09128028796088" lon="9.156784607910867"><ele>699.0</ele><time>2026-04-11T09:37:31Z</time></trkpt><trkpt lat="40.09143768325538" lon="9.156837134765636"><ele>699.0</ele><time>2026-04-11T09:37:32Z</time></trkpt><trkpt lat="40.09158733864571" lon="9.156886868395697"><ele>698.75</ele><time>2026-04-11T09:37:33Z</time></trkpt><trkpt lat="40.09172841744063" lon="9.156933751776489"><ele>698.5</ele><time>2026-04-11T09:37:34Z</time></trkpt><trkpt lat="40.09186951937249" lon="9.156975247820444"><ele>698.25</ele><time>2026-04-11T09:37:35Z</time></trkpt><trkpt lat="40.09200897317882" lon="9.157006188028577"><ele>698.0</ele><time>2026-04-11T09:37:36Z</time></trkpt><trkpt lat="40.0921471971427" lon="9.157026202970222"><ele>698.0</ele><time>2026-04-11T09:37:37Z</time></trkpt><trkpt lat="40.09228307048893" lon="9.157037485892218"><ele>698.0</ele><time>2026-04-11T09:37:38Z</time></trkpt><trkpt lat="40.09241538281126" lon="9.157052869232276"><ele>698.0</ele><time>2026-04-11T09:37:39Z</time></trkpt><trkpt lat="40.092546617216925" lon="9.157066909229263"><ele>698.0</ele><time>2026-04-11T09:37:40Z</time></trkpt><trkpt lat="40.09267773176238" lon="9.157068936712415"><ele>698.0</ele><time>2026-04-11T09:37:41Z</time></trkpt><trkpt lat="40.09281249369365" lon="9.157039865632202"><ele>698.0</ele><time>2026-04-11T09:37:42Z</time></trkpt><trkpt lat="40.0929389902719" lon="9.156963929530706"><ele>698.0</ele><time>2026-04-11T09:37:43Z</time></trkpt><trkpt lat="40.093041367288535" lon="9.156852488522762"><ele>698.0</ele><time>2026-04-11T09:37:44Z</time></trkpt><trkpt lat="40.09315825097313" lon="9.156775559511814"><ele>699.0</ele><time>2026-04-11T09:37:45Z</time></trkpt><trkpt lat="40.09328313516758" lon="9.15671786118342"><ele>700.0</ele><time>2026-04-11T09:37:46Z</time></trkpt><trkpt lat="40.09341560539477" lon="9.156704455630154"><ele>701.0</ele><time>2026-04-11T09:37:47Z</time></trkpt><trkpt lat="40.093546724445126" lon="9.156713842655286"><ele>702.0</ele><time>2026-04-11T09:37:48Z</time></trkpt><trkpt lat="40.09367387357415" lon="9.156733320894388"><ele>702.0</ele><time>2026-04-11T09:37:49Z</time></trkpt><trkpt lat="40.093792766225675" lon="9.156784281575902"><ele>702.0</ele><time>2026-04-11T09:37:50Z</time></trkpt><trkpt lat="40.09389970311651" lon="9.156865979751176"><ele>702.0</ele><time>2026-04-11T09:37:51Z</time></trkpt><trkpt lat="40.09399902849079" lon="9.156959471435961"><ele>702.0</ele><time>2026-04-11T09:37:52Z</time></trkpt><trkpt lat="40.09410215781929" lon="9.157044656180199"><ele>700.25</ele><time>2026-04-11T09:37:53Z</time></trkpt><trkpt lat="40.094210394796974" lon="9.157109800818658"><ele>698.5</ele><time>2026-04-11T09:37:54Z</time></trkpt><trkpt lat="40.094321090727604" lon="9.157151973595104"><ele>696.75</ele><time>2026-04-11T09:37:55Z</time></trkpt><trkpt lat="40.094422841928946" lon="9.15720343746223"><ele>695.0</ele><time>2026-04-11T09:37:56Z</time></trkpt><trkpt lat="40.09450391183565" lon="9.157296814651446"><ele>698.0</ele><time>2026-04-11T09:37:57Z</time></trkpt><trkpt lat="40.094547980507855" lon="9.157420287965051"><ele>701.0</ele><time>2026-04-11T09:37:58Z</time></trkpt><trkpt lat="40.09457083969988" lon="9.157540825830463"><ele>704.0</ele><time>2026-04-11T09:37:59Z</time></trkpt><trkpt lat="40.094589034185915" lon="9.157654180228038"><ele>707.0</ele><time>2026-04-11T09:38:00Z</time></trkpt><trkpt lat="40.09458761962691" lon="9.157766006156963"><ele>710.0</ele><time>2026-04-11T09:38:01Z</time></trkpt><trkpt lat="40.094597753528845" lon="9.157878496146601"><ele>710.0</ele><time>2026-04-11T09:38:02Z</time></trkpt><trkpt lat="40.09459900733027" lon="9.157994153714796"><ele>710.0</ele><time>2026-04-11T09:38:03Z</time></trkpt><trkpt lat="40.09459287612932" lon="9.158115012167723"><ele>710.0</ele><time>2026-04-11T09:38:04Z</time></trkpt><trkpt lat="40.0945820145906" lon="9.158240775279783"><ele>710.0</ele><time>2026-04-11T09:38:05Z</time></trkpt><trkpt lat="40.09458003658588" lon="9.15837085212943"><ele>710.0</ele><time>2026-04-11T09:38:06Z</time></trkpt><trkpt lat="40.09454780943394" lon="9.158487221637396"><ele>709.8333333333333</ele><time>2026-04-11T09:38:07Z</time></trkpt><trkpt lat="40.094531981570334" lon="9.15859897467033"><ele>709.6666666666666</ele><time>2026-04-11T09:38:08Z</time></trkpt><trkpt lat="40.09451545883765" lon="9.158715634001911"><ele>709.5</ele><time>2026-04-11T09:38:09Z</time></trkpt><trkpt lat="40.094514098093995" lon="9.158835227817974"><ele>709.3333333333334</ele><time>2026-04-11T09:38:10Z</time></trkpt><trkpt lat="40.094494999037785" lon="9.158938132461643"><ele>709.1666666666667</ele><time>2026-04-11T09:38:11Z</time></trkpt><trkpt lat="40.09448580523319" lon="9.159034637471034"><ele>709.0</ele><time>2026-04-11T09:38:12Z</time></trkpt><trkpt lat="40.0944891598533" lon="9.159139357510465"><ele>709.0</ele><time>2026-04-11T09:38:13Z</time></trkpt><trkpt lat="40.09449196712428" lon="9.159249280599706"><ele>709.0</ele><time>2026-04-11T09:38:14Z</time></trkpt><trkpt lat="40.09452442986685" lon="9.159351996268951"><ele>709.0</ele><time>2026-04-11T09:38:15Z</time></trkpt><trkpt lat="40.09456492247558" lon="9.159455559797188"><ele>709.0</ele><time>2026-04-11T09:38:16Z</time></trkpt><trkpt lat="40.094603844437486" lon="9.159547388190575"><ele>709.0</ele><time>2026-04-11T09:38:17Z</time></trkpt><trkpt lat="40.09463773484231" lon="9.159624819094955"><ele>709.0</ele><time>2026-04-11T09:38:18Z</time></trkpt><trkpt lat="40.094669006353534" lon="9.159696266529243"><ele>709.0</ele><time>2026-04-11T09:38:19Z</time></trkpt><trkpt lat="40.09470060911851" lon="9.15976847079348"><ele>709.0</ele><time>2026-04-11T09:38:20Z</time></trkpt><trkpt lat="40.094733394631795" lon="9.159843375539554"><ele>709.0</ele><time>2026-04-11T09:38:21Z</time></trkpt><trkpt lat="40.09476661667272" lon="9.159919276554179"><ele>709.0</ele><time>2026-04-11T09:38:22Z</time></trkpt><trkpt lat="40.09481504359562" lon="9.159990264811075"><ele>709.0</ele><time>2026-04-11T09:38:23Z</time></trkpt><trkpt lat="40.09484012616094" lon="9.160082228899812"><ele>709.0</ele><time>2026-04-11T09:38:24Z</time></trkpt><trkpt lat="40.094896044053876" lon="9.160226950705566"><ele>710.3333333333334</ele><time>2026-04-11T09:38:26Z</time></trkpt><trkpt lat="40.094926624319896" lon="9.16031264106347"><ele>711.6666666666667</ele><time>2026-04-11T09:38:27Z</time></trkpt><trkpt lat="40.094949246645925" lon="9.160406391566546"><ele>713.0</ele><time>2026-04-11T09:38:28Z</time></trkpt><trkpt lat="40.09496644628978" lon="9.160499788674718"><ele>714.3333333333334</ele><time>2026-04-11T09:38:29Z</time></trkpt><trkpt lat="40.094979210937524" lon="9.160592556670876"><ele>715.6666666666666</ele><time>2026-04-11T09:38:30Z</time></trkpt><trkpt lat="40.0949877395844" lon="9.160684498640668"><ele>717.0</ele><time>2026-04-11T09:38:31Z</time></trkpt><trkpt lat="40.09501455190257" lon="9.160837483318863"><ele>716.6666666666666</ele><time>2026-04-11T09:38:33Z</time></trkpt><trkpt lat="40.09496560609681" lon="9.16090405409629"><ele>716.3333333333334</ele><time>2026-04-11T09:38:34Z</time></trkpt><trkpt lat="40.09493008921639" lon="9.161063553650735"><ele>716.0</ele><time>2026-04-11T09:38:36Z</time></trkpt><trkpt lat="40.09490692602147" lon="9.161151599647926"><ele>715.6666666666667</ele><time>2026-04-11T09:38:37Z</time></trkpt><trkpt lat="40.094877190353735" lon="9.161242930410129"><ele>715.3333333333334</ele><time>2026-04-11T09:38:38Z</time></trkpt><trkpt lat="40.094846625011805" lon="9.161346300224864"><ele>715.0</ele><time>2026-04-11T09:38:39Z</time></trkpt><trkpt lat="40.09482034312375" lon="9.1614531335467"><ele>715.4</ele><time>2026-04-11T09:38:40Z</time></trkpt><trkpt lat="40.09479248548499" lon="9.161563195149304"><ele>715.8</ele><time>2026-04-11T09:38:41Z</time></trkpt><trkpt lat="40.094764714513445" lon="9.161677747195734"><ele>716.2</ele><time>2026-04-11T09:38:42Z</time></trkpt><trkpt lat="40.094742746552285" lon="9.161798595787301"><ele>716.6</ele><time>2026-04-11T09:38:43Z</time></trkpt><trkpt lat="40.09473175095317" lon="9.161923226028993"><ele>717.0</ele><time>2026-04-11T09:38:44Z</time></trkpt><trkpt lat="40.09472409329517" lon="9.162044489315674"><ele>717.0</ele><time>2026-04-11T09:38:45Z</time></trkpt><trkpt lat="40.09474310283999" lon="9.162172889212837"><ele>717.0</ele><time>2026-04-11T09:38:46Z</time></trkpt><trkpt lat="40.09477392196279" lon="9.16229579217935"><ele>717.0</ele><time>2026-04-11T09:38:47Z</time></trkpt><trkpt lat="40.09480009282254" lon="9.162404501997933"><ele>717.0</ele><time>2026-04-11T09:38:48Z</time></trkpt><trkpt lat="40.09482626713352" lon="9.162502531491462"><ele>717.0</ele><time>2026-04-11T09:38:49Z</time></trkpt><trkpt lat="40.0948506248314" lon="9.1625921660883"><ele>717.0</ele><time>2026-04-11T09:38:50Z</time></trkpt><trkpt lat="40.094871689326695" lon="9.162674009690058"><ele>717.3333333333334</ele><time>2026-04-11T09:38:51Z</time></trkpt><trkpt lat="40.09491088779169" lon="9.162828444966697"><ele>717.6666666666666</ele><time>2026-04-11T09:38:53Z</time></trkpt><trkpt lat="40.09493202446416" lon="9.162911719757462"><ele>718.0</ele><time>2026-04-11T09:38:54Z</time></trkpt><trkpt lat="40.09495544791182" lon="9.16300149235608"><ele>718.3333333333333</ele><time>2026-04-11T09:38:55Z</time></trkpt><trkpt lat="40.09497902621427" lon="9.163091324703759"><ele>718.6666666666666</ele><time>2026-04-11T09:38:56Z</time></trkpt><trkpt lat="40.09500338538367" lon="9.163184131894443"><ele>719.0</ele><time>2026-04-11T09:38:57Z</time></trkpt><trkpt lat="40.09502860207129" lon="9.163280206227073"><ele>721.0</ele><time>2026-04-11T09:38:58Z</time></trkpt><trkpt lat="40.095053892169624" lon="9.163376560296246"><ele>723.0</ele><time>2026-04-11T09:38:59Z</time></trkpt><trkpt lat="40.09507905590439" lon="9.163472432915732"><ele>725.0</ele><time>2026-04-11T09:39:00Z</time></trkpt><trkpt lat="40.095104036614345" lon="9.163572327737064"><ele>727.0</ele><time>2026-04-11T09:39:01Z</time></trkpt><trkpt lat="40.095128653494015" lon="9.163671115489958"><ele>729.0</ele><time>2026-04-11T09:39:02Z</time></trkpt><trkpt lat="40.09515369680333" lon="9.163771612510976"><ele>731.0</ele><time>2026-04-11T09:39:03Z</time></trkpt><trkpt lat="40.09517690536138" lon="9.163867332811549"><ele>731.0</ele><time>2026-04-11T09:39:04Z</time></trkpt><trkpt lat="40.09520916977352" lon="9.163962320012818"><ele>731.0</ele><time>2026-04-11T09:39:05Z</time></trkpt><trkpt lat="40.09520615136513" lon="9.164071359260692"><ele>731.0</ele><time>2026-04-11T09:39:06Z</time></trkpt><trkpt lat="40.095194907712504" lon="9.164158272925933"><ele>731.0</ele><time>2026-04-11T09:39:07Z</time></trkpt><trkpt lat="40.095147787985056" lon="9.164278631433538"><ele>731.0</ele><time>2026-04-11T09:39:09Z</time></trkpt><trkpt lat="40.095115757099215" lon="9.164377637674765"><ele>731.0</ele><time>2026-04-11T09:39:10Z</time></trkpt><trkpt lat="40.09505515234697" lon="9.16445975640065"><ele>731.1999999999999</ele><time>2026-04-11T09:39:11Z</time></trkpt><trkpt lat="40.09499465117924" lon="9.164559505034884"><ele>731.4</ele><time>2026-04-11T09:39:12Z</time></trkpt><trkpt lat="40.09493453238304" lon="9.164680131563966"><ele>731.6</ele><time>2026-04-11T09:39:13Z</time></trkpt><trkpt lat="40.094889837396025" lon="9.164797129822047"><ele>731.8</ele><time>2026-04-11T09:39:14Z</time></trkpt><trkpt lat="40.09483760228216" lon="9.164915687021608"><ele>732.0</ele><time>2026-04-11T09:39:15Z</time></trkpt><trkpt lat="40.0948041204003" lon="9.165050086400386"><ele>734.0</ele><time>2026-04-11T09:39:16Z</time></trkpt><trkpt lat="40.094787059722975" lon="9.165202620972615"><ele>736.0</ele><time>2026-04-11T09:39:17Z</time></trkpt><trkpt lat="40.094747507998015" lon="9.165348539356721"><ele>738.0</ele><time>2026-04-11T09:39:18Z</time></trkpt><trkpt lat="40.0946966279965" lon="9.16548674863816"><ele>740.0</ele><time>2026-04-11T09:39:19Z</time></trkpt><trkpt lat="40.094621283996915" lon="9.16560589273797"><ele>740.0</ele><time>2026-04-11T09:39:20Z</time></trkpt><trkpt lat="40.094522017552194" lon="9.165694039805564"><ele>740.0</ele><time>2026-04-11T09:39:21Z</time></trkpt><trkpt lat="40.09441364189345" lon="9.165764562905402"><ele>740.0</ele><time>2026-04-11T09:39:22Z</time></trkpt><trkpt lat="40.09430782056114" lon="9.165836734239534"><ele>740.0</ele><time>2026-04-11T09:39:23Z</time></trkpt><trkpt lat="40.094222304315196" lon="9.165922337667148"><ele>741.0</ele><time>2026-04-11T09:39:24Z</time></trkpt><trkpt lat="40.09415157463517" lon="9.166014568540664"><ele>742.0</ele><time>2026-04-11T09:39:25Z</time></trkpt><trkpt lat="40.094149947463926" lon="9.166168313036918"><ele>743.0</ele><time>2026-04-11T09:39:26Z</time></trkpt><trkpt lat="40.09416896382199" lon="9.166316386593229"><ele>744.0</ele><time>2026-04-11T09:39:27Z</time></trkpt><trkpt lat="40.09416748036788" lon="9.166470786789928"><ele>744.5</ele><time>2026-04-11T09:39:28Z</time></trkpt><trkpt lat="40.094177076068284" lon="9.166631045173405"><ele>745.0</ele><time>2026-04-11T09:39:29Z</time></trkpt><trkpt lat="40.094141329496" lon="9.16680186011212"><ele>745.5</ele><time>2026-04-11T09:39:30Z</time></trkpt><trkpt lat="40.094099307944255" lon="9.166977225052017"><ele>746.0</ele><time>2026-04-11T09:39:31Z</time></trkpt><trkpt lat="40.09406164979221" lon="9.167154967890353"><ele>746.0</ele><time>2026-04-11T09:39:32Z</time></trkpt><trkpt lat="40.09406220251085" lon="9.1673388216631"><ele>746.0</ele><time>2026-04-11T09:39:33Z</time></trkpt><trkpt lat="40.094065774777974" lon="9.16752704025002"><ele>746.0</ele><time>2026-04-11T09:39:34Z</time></trkpt><trkpt lat="40.09409000228881" lon="9.167693325750523"><ele>746.0</ele><time>2026-04-11T09:39:35Z</time></trkpt><trkpt lat="40.09410810428945" lon="9.167840087021988"><ele>747.75</ele><time>2026-04-11T09:39:36Z</time></trkpt><trkpt lat="40.09406032580782" lon="9.167989214574712"><ele>749.5</ele><time>2026-04-11T09:39:37Z</time></trkpt><trkpt lat="40.09396812888901" lon="9.168114661707419"><ele>751.25</ele><time>2026-04-11T09:39:38Z</time></trkpt><trkpt lat="40.09385485893804" lon="9.168229116019997"><ele>753.0</ele><time>2026-04-11T09:39:39Z</time></trkpt><trkpt lat="40.093756840871215" lon="9.168354599634108"><ele>753.25</ele><time>2026-04-11T09:39:40Z</time></trkpt><trkpt lat="40.09368169411809" lon="9.168500816639673"><ele>753.5</ele><time>2026-04-11T09:39:41Z</time></trkpt><trkpt lat="40.09364905999041" lon="9.168673311565033"><ele>753.75</ele><time>2026-04-11T09:39:42Z</time></trkpt><trkpt lat="40.093664988543146" lon="9.168863374111114"><ele>754.0</ele><time>2026-04-11T09:39:43Z</time></trkpt><trkpt lat="40.09370747356146" lon="9.169063938713949"><ele>754.0</ele><time>2026-04-11T09:39:44Z</time></trkpt><trkpt lat="40.09375641701893" lon="9.169269798485288"><ele>754.0</ele><time>2026-04-11T09:39:45Z</time></trkpt><trkpt lat="40.09380289448335" lon="9.169473618523323"><ele>754.0</ele><time>2026-04-11T09:39:46Z</time></trkpt><trkpt lat="40.0938551615866" lon="9.16970101454275"><ele>753.0</ele><time>2026-04-11T09:39:47Z</time></trkpt><trkpt lat="40.09394137602084" lon="9.169921930780731"><ele>752.0</ele><time>2026-04-11T09:39:48Z</time></trkpt><trkpt lat="40.09404575547969" lon="9.170123750133655"><ele>751.0</ele><time>2026-04-11T09:39:49Z</time></trkpt><trkpt lat="40.09412793467701" lon="9.170326646196452"><ele>755.3333333333334</ele><time>2026-04-11T09:39:50Z</time></trkpt><trkpt lat="40.09422319054465" lon="9.17051065472014"><ele>759.6666666666666</ele><time>2026-04-11T09:39:51Z</time></trkpt><trkpt lat="40.09433642519535" lon="9.170673587338586"><ele>764.0</ele><time>2026-04-11T09:39:52Z</time></trkpt><trkpt lat="40.094473302675574" lon="9.170810500293626"><ele>764.0</ele><time>2026-04-11T09:39:53Z</time></trkpt><trkpt lat="40.094621647072124" lon="9.170934160312548"><ele>764.0</ele><time>2026-04-11T09:39:54Z</time></trkpt><trkpt lat="40.09477441181997" lon="9.17104539324639"><ele>764.0</ele><time>2026-04-11T09:39:55Z</time></trkpt><trkpt lat="40.09493129745364" lon="9.17113692108948"><ele>769.3333333333333</ele><time>2026-04-11T09:39:56Z</time></trkpt><trkpt lat="40.09510397907385" lon="9.171184133402042"><ele>774.6666666666666</ele><time>2026-04-11T09:39:57Z</time></trkpt><trkpt lat="40.09528202420984" lon="9.171231779762604"><ele>780.0</ele><time>2026-04-11T09:39:58Z</time></trkpt><trkpt lat="40.09545640508653" lon="9.171250652486489"><ele>780.0</ele><time>2026-04-11T09:39:59Z</time></trkpt><trkpt lat="40.09562385731634" lon="9.17131846046855"><ele>780.0</ele><time>2026-04-11T09:40:00Z</time></trkpt><trkpt lat="40.09578737328694" lon="9.171420485818237"><ele>780.0</ele><time>2026-04-11T09:40:01Z</time></trkpt><trkpt lat="40.09594435356364" lon="9.171550906375813"><ele>780.6666666666667</ele><time>2026-04-11T09:40:02Z</time></trkpt><trkpt lat="40.0960952812235" lon="9.171678329310453"><ele>781.3333333333334</ele><time>2026-04-11T09:40:03Z</time></trkpt><trkpt lat="40.096222995465396" lon="9.171812168219855"><ele>782.0</ele><time>2026-04-11T09:40:04Z</time></trkpt><trkpt lat="40.09634665063625" lon="9.17192526947392"><ele>782.0</ele><time>2026-04-11T09:40:05Z</time></trkpt><trkpt lat="40.09640419533907" lon="9.172097289243617"><ele>782.0</ele><time>2026-04-11T09:40:06Z</time></trkpt><trkpt lat="40.09643427420606" lon="9.17227556059676"><ele>782.0</ele><time>2026-04-11T09:40:07Z</time></trkpt><trkpt lat="40.096520009735535" lon="9.17242978637227"><ele>782.0</ele><time>2026-04-11T09:40:08Z</time></trkpt><trkpt lat="40.096620160675556" lon="9.172570769263508"><ele>783.75</ele><time>2026-04-11T09:40:09Z</time></trkpt><trkpt lat="40.096712321431454" lon="9.17272892695754"><ele>785.5</ele><time>2026-04-11T09:40:10Z</time></trkpt><trkpt lat="40.096792316746004" lon="9.17289219179899"><ele>787.25</ele><time>2026-04-11T09:40:11Z</time></trkpt><trkpt lat="40.09678649237713" lon="9.173081204116631"><ele>789.0</ele><time>2026-04-11T09:40:12Z</time></trkpt><trkpt lat="40.096749540130766" lon="9.17326354745031"><ele>789.6666666666667</ele><time>2026-04-11T09:40:13Z</time></trkpt><trkpt lat="40.09671215937583" lon="9.1734675349348"><ele>790.3333333333334</ele><time>2026-04-11T09:40:14Z</time></trkpt><trkpt lat="40.09665564004101" lon="9.173669731960656"><ele>791.0</ele><time>2026-04-11T09:40:15Z</time></trkpt><trkpt lat="40.09659450011028" lon="9.173873727756119"><ele>790.25</ele><time>2026-04-11T09:40:16Z</time></trkpt><trkpt lat="40.09648960413968" lon="9.174029858998002"><ele>789.5</ele><time>2026-04-11T09:40:17Z</time></trkpt><trkpt lat="40.09639521421134" lon="9.174171784597114"><ele>788.75</ele><time>2026-04-11T09:40:18Z</time></trkpt><trkpt lat="40.09630773792978" lon="9.174295386878574"><ele>788.0</ele><time>2026-04-11T09:40:19Z</time></trkpt><trkpt lat="40.096244119278666" lon="9.174423809423043"><ele>788.0</ele><time>2026-04-11T09:40:20Z</time></trkpt><trkpt lat="40.09629739625394" lon="9.174611228837001"><ele>788.0</ele><time>2026-04-11T09:40:21Z</time></trkpt><trkpt lat="40.09637594903336" lon="9.174765254394979"><ele>788.0</ele><time>2026-04-11T09:40:22Z</time></trkpt><trkpt lat="40.0964928153022" lon="9.174900156640906"><ele>790.75</ele><time>2026-04-11T09:40:23Z</time></trkpt><trkpt lat="40.096639945974715" lon="9.17498820813913"><ele>793.5</ele><time>2026-04-11T09:40:24Z</time></trkpt><trkpt lat="40.096775102420736" lon="9.175084146549327"><ele>796.25</ele><time>2026-04-11T09:40:25Z</time></trkpt><trkpt lat="40.09687161139905" lon="9.175198764914038"><ele>799.0</ele><time>2026-04-11T09:40:26Z</time></trkpt><trkpt lat="40.09691563303107" lon="9.175346902467124"><ele>799.0</ele><time>2026-04-11T09:40:27Z</time></trkpt><trkpt lat="40.09691909907521" lon="9.175523140168302"><ele>799.0</ele><time>2026-04-11T09:40:28Z</time></trkpt><trkpt lat="40.09694136014525" lon="9.175701846064163"><ele>799.0</ele><time>2026-04-11T09:40:29Z</time></trkpt><trkpt lat="40.09696666105444" lon="9.175867083013747"><ele>799.0</ele><time>2026-04-11T09:40:30Z</time></trkpt><trkpt lat="40.09702284857294" lon="9.176006040757274"><ele>799.6666666666666</ele><time>2026-04-11T09:40:31Z</time></trkpt><trkpt lat="40.09715749911087" lon="9.176072582343753"><ele>800.3333333333333</ele><time>2026-04-11T09:40:32Z</time></trkpt><trkpt lat="40.09730832759285" lon="9.176120877205335"><ele>801.0</ele><time>2026-04-11T09:40:33Z</time></trkpt><trkpt lat="40.09746216637329" lon="9.176186017529561"><ele>804.0</ele><time>2026-04-11T09:40:34Z</time></trkpt><trkpt lat="40.0976198137229" lon="9.176233064319437"><ele>807.0</ele><time>2026-04-11T09:40:35Z</time></trkpt><trkpt lat="40.09778383470075" lon="9.176282524275944"><ele>810.0</ele><time>2026-04-11T09:40:36Z</time></trkpt><trkpt lat="40.09795251761733" lon="9.176333390082743"><ele>810.0</ele><time>2026-04-11T09:40:37Z</time></trkpt><trkpt lat="40.098130386635084" lon="9.17636151430369"><ele>810.0</ele><time>2026-04-11T09:40:38Z</time></trkpt><trkpt lat="40.09828541798494" lon="9.176477126669143"><ele>810.0</ele><time>2026-04-11T09:40:39Z</time></trkpt><trkpt lat="40.098426457441164" lon="9.17661389435667"><ele>811.0</ele><time>2026-04-11T09:40:40Z</time></trkpt><trkpt lat="40.09857199248273" lon="9.176745884209467"><ele>812.0</ele><time>2026-04-11T09:40:41Z</time></trkpt><trkpt lat="40.09873747383979" lon="9.176830009161838"><ele>813.0</ele><time>2026-04-11T09:40:42Z</time></trkpt><trkpt lat="40.09891546004507" lon="9.176860397897848"><ele>814.6666666666667</ele><time>2026-04-11T09:40:43Z</time></trkpt><trkpt lat="40.09909637813105" lon="9.17685393423087"><ele>816.3333333333334</ele><time>2026-04-11T09:40:44Z</time></trkpt><trkpt lat="40.099249361232204" lon="9.176936115861453"><ele>818.0</ele><time>2026-04-11T09:40:45Z</time></trkpt><trkpt lat="40.099390238068054" lon="9.1770296234261"><ele>818.0</ele><time>2026-04-11T09:40:46Z</time></trkpt><trkpt lat="40.09952856698129" lon="9.177082010253121"><ele>818.0</ele><time>2026-04-11T09:40:47Z</time></trkpt><trkpt lat="40.099653946644665" lon="9.177097427040863"><ele>818.0</ele><time>2026-04-11T09:40:48Z</time></trkpt><trkpt lat="40.099774156274755" lon="9.177058732580699"><ele>818.0</ele><time>2026-04-11T09:40:49Z</time></trkpt><trkpt lat="40.099890649356496" lon="9.176979060081683"><ele>816.5</ele><time>2026-04-11T09:40:50Z</time></trkpt><trkpt lat="40.10001491695784" lon="9.176919670002993"><ele>815.0</ele><time>2026-04-11T09:40:51Z</time></trkpt><trkpt lat="40.10014861325996" lon="9.176925210007447"><ele>813.5</ele><time>2026-04-11T09:40:52Z</time></trkpt><trkpt lat="40.10027946480684" lon="9.177002801195288"><ele>812.0</ele><time>2026-04-11T09:40:53Z</time></trkpt><trkpt lat="40.100406314143456" lon="9.177115123985702"><ele>812.0</ele><time>2026-04-11T09:40:54Z</time></trkpt><trkpt lat="40.10055232272095" lon="9.17718598675445"><ele>812.0</ele><time>2026-04-11T09:40:55Z</time></trkpt><trkpt lat="40.10071910386944" lon="9.17718805334645"><ele>812.0</ele><time>2026-04-11T09:40:56Z</time></trkpt><trkpt lat="40.10088708544864" lon="9.177176816717365"><ele>812.0</ele><time>2026-04-11T09:40:57Z</time></trkpt><trkpt lat="40.10104382873744" lon="9.17720541653877"><ele>812.0</ele><time>2026-04-11T09:40:58Z</time></trkpt><trkpt lat="40.10118405818212" lon="9.177218974552448"><ele>812.0</ele><time>2026-04-11T09:40:59Z</time></trkpt><trkpt lat="40.101321242671425" lon="9.177253798252938"><ele>812.0</ele><time>2026-04-11T09:41:00Z</time></trkpt><trkpt lat="40.101432846414454" lon="9.17740118075987"><ele>813.6666666666667</ele><time>2026-04-11T09:41:01Z</time></trkpt><trkpt lat="40.10155380841393" lon="9.177557202659859"><ele>815.3333333333333</ele><time>2026-04-11T09:41:02Z</time></trkpt><trkpt lat="40.101684810380824" lon="9.177700956132787"><ele>817.0</ele><time>2026-04-11T09:41:03Z</time></trkpt><trkpt lat="40.1018029114042" lon="9.17784020503507"><ele>817.0</ele><time>2026-04-11T09:41:04Z</time></trkpt><trkpt lat="40.10190419366984" lon="9.177970088487669"><ele>817.0</ele><time>2026-04-11T09:41:05Z</time></trkpt><trkpt lat="40.10203164428802" lon="9.177993110755246"><ele>817.0</ele><time>2026-04-11T09:41:06Z</time></trkpt><trkpt lat="40.10215929975283" lon="9.177948359876176"><ele>817.0</ele><time>2026-04-11T09:41:07Z</time></trkpt><trkpt lat="40.10228345270635" lon="9.177844237623686"><ele>817.0</ele><time>2026-04-11T09:41:08Z</time></trkpt><trkpt lat="40.10239834627458" lon="9.1777086294781"><ele>817.0</ele><time>2026-04-11T09:41:09Z</time></trkpt><trkpt lat="40.102514675433234" lon="9.177584109780868"><ele>817.0</ele><time>2026-04-11T09:41:10Z</time></trkpt><trkpt lat="40.10262739938036" lon="9.177475134598476"><ele>817.0</ele><time>2026-04-11T09:41:11Z</time></trkpt><trkpt lat="40.102743375891286" lon="9.177383101055321"><ele>816.75</ele><time>2026-04-11T09:41:12Z</time></trkpt><trkpt lat="40.10286802189816" lon="9.17738860513336"><ele>816.5</ele><time>2026-04-11T09:41:13Z</time></trkpt><trkpt lat="40.10298741299775" lon="9.177439776669779"><ele>816.25</ele><time>2026-04-11T09:41:14Z</time></trkpt><trkpt lat="40.10312931802666" lon="9.177510504860583"><ele>816.0</ele><time>2026-04-11T09:41:15Z</time></trkpt><trkpt lat="40.10327145563949" lon="9.177602114299141"><ele>816.6666666666667</ele><time>2026-04-11T09:41:16Z</time></trkpt><trkpt lat="40.10342412448387" lon="9.177690221094878"><ele>817.3333333333334</ele><time>2026-04-11T09:41:17Z</time></trkpt><trkpt lat="40.10358194756282" lon="9.177751401482654"><ele>818.0</ele><time>2026-04-11T09:41:18Z</time></trkpt><trkpt lat="40.10373280694565" lon="9.177792009866277"><ele>818.0</ele><time>2026-04-11T09:41:19Z</time></trkpt><trkpt lat="40.10386847975574" lon="9.177814088005295"><ele>818.0</ele><time>2026-04-11T09:41:20Z</time></trkpt><trkpt lat="40.10398641237549" lon="9.177772571454863"><ele>818.0</ele><time>2026-04-11T09:41:21Z</time></trkpt><trkpt lat="40.10407276377684" lon="9.177655292517082"><ele>818.0</ele><time>2026-04-11T09:41:22Z</time></trkpt><trkpt lat="40.104120766198776" lon="9.177494202141961"><ele>816.0</ele><time>2026-04-11T09:41:23Z</time></trkpt><trkpt lat="40.10417281630437" lon="9.177339369922922"><ele>814.0</ele><time>2026-04-11T09:41:24Z</time></trkpt><trkpt lat="40.10425871632999" lon="9.177235768877143"><ele>812.0</ele><time>2026-04-11T09:41:25Z</time></trkpt><trkpt lat="40.104367998354036" lon="9.177193981384987"><ele>810.0</ele><time>2026-04-11T09:41:26Z</time></trkpt><trkpt lat="40.10447355255996" lon="9.177261636432748"><ele>810.0</ele><time>2026-04-11T09:41:27Z</time></trkpt><trkpt lat="40.10459380708655" lon="9.177324794796247"><ele>810.0</ele><time>2026-04-11T09:41:28Z</time></trkpt><trkpt lat="40.10473061972669" lon="9.177388504725977"><ele>810.0</ele><time>2026-04-11T09:41:29Z</time></trkpt><trkpt lat="40.104853814418796" lon="9.177507836232987"><ele>810.0</ele><time>2026-04-11T09:41:30Z</time></trkpt><trkpt lat="40.10497887153813" lon="9.177642154446088"><ele>812.3333333333333</ele><time>2026-04-11T09:41:31Z</time></trkpt><trkpt lat="40.105087336581605" lon="9.17781432885085"><ele>814.6666666666666</ele><time>2026-04-11T09:41:32Z</time></trkpt><trkpt lat="40.10518890758604" lon="9.178008947791865"><ele>817.0</ele><time>2026-04-11T09:41:33Z</time></trkpt><trkpt lat="40.105280097158946" lon="9.178220611873064"><ele>820.3333333333333</ele><time>2026-04-11T09:41:34Z</time></trkpt><trkpt lat="40.10535296069988" lon="9.178445579191418"><ele>823.6666666666667</ele><time>2026-04-11T09:41:35Z</time></trkpt><trkpt lat="40.10543158710213" lon="9.17865601432877"><ele>827.0</ele><time>2026-04-11T09:41:36Z</time></trkpt><trkpt lat="40.105511438643966" lon="9.178845198402271"><ele>829.3333333333334</ele><time>2026-04-11T09:41:37Z</time></trkpt><trkpt lat="40.10560351853659" lon="9.17902343224986"><ele>831.6666666666667</ele><time>2026-04-11T09:41:38Z</time></trkpt><trkpt lat="40.10564909341878" lon="9.179220273046683"><ele>834.0</ele><time>2026-04-11T09:41:39Z</time></trkpt><trkpt lat="40.105697143037936" lon="9.17942879607148"><ele>831.6666666666667</ele><time>2026-04-11T09:41:40Z</time></trkpt><trkpt lat="40.10577355877931" lon="9.179638629931983"><ele>829.3333333333334</ele><time>2026-04-11T09:41:41Z</time></trkpt><trkpt lat="40.10589407605007" lon="9.179815255597244"><ele>827.0</ele><time>2026-04-11T09:41:42Z</time></trkpt><trkpt lat="40.106006892156394" lon="9.180001136193924"><ele>827.0</ele><time>2026-04-11T09:41:43Z</time></trkpt><trkpt lat="40.10613908342723" lon="9.180177034468256"><ele>827.0</ele><time>2026-04-11T09:41:44Z</time></trkpt><trkpt lat="40.106284260333865" lon="9.18034037589532"><ele>827.0</ele><time>2026-04-11T09:41:45Z</time></trkpt><trkpt lat="40.1064075686325" lon="9.180514801562216"><ele>827.0</ele><time>2026-04-11T09:41:46Z</time></trkpt><trkpt lat="40.10651706386641" lon="9.180681434551142"><ele>827.0</ele><time>2026-04-11T09:41:47Z</time></trkpt><trkpt lat="40.1066480378253" lon="9.180812946108508"><ele>827.0</ele><time>2026-04-11T09:41:48Z</time></trkpt><trkpt lat="40.10680172032776" lon="9.180872761847924"><ele>826.25</ele><time>2026-04-11T09:41:49Z</time></trkpt><trkpt lat="40.10695634259472" lon="9.180881084432594"><ele>825.5</ele><time>2026-04-11T09:41:50Z</time></trkpt><trkpt lat="40.107091845197154" lon="9.180822036058705"><ele>824.75</ele><time>2026-04-11T09:41:51Z</time></trkpt><trkpt lat="40.107194527965156" lon="9.18069350959305"><ele>824.0</ele><time>2026-04-11T09:41:52Z</time></trkpt><trkpt lat="40.10727047534952" lon="9.180524361927766"><ele>821.0</ele><time>2026-04-11T09:41:53Z</time></trkpt><trkpt lat="40.10736699335324" lon="9.180355857436025"><ele>818.0</ele><time>2026-04-11T09:41:54Z</time></trkpt><trkpt lat="40.10749728211513" lon="9.180216649507154"><ele>815.0</ele><time>2026-04-11T09:41:55Z</time></trkpt><trkpt lat="40.10764449713087" lon="9.1801104272276"><ele>815.0</ele><time>2026-04-11T09:41:56Z</time></trkpt><trkpt lat="40.10780073596464" lon="9.180073680040662"><ele>815.0</ele><time>2026-04-11T09:41:57Z</time></trkpt><trkpt lat="40.10793291412847" lon="9.180073340021547"><ele>815.0</ele><time>2026-04-11T09:41:58Z</time></trkpt><trkpt lat="40.10802828051671" lon="9.180150560168643"><ele>815.0</ele><time>2026-04-11T09:41:59Z</time></trkpt><trkpt lat="40.10808767367329" lon="9.180266925971248"><ele>815.0</ele><time>2026-04-11T09:42:00Z</time></trkpt><trkpt lat="40.10812498505051" lon="9.180408782131833"><ele>815.0</ele><time>2026-04-11T09:42:01Z</time></trkpt><trkpt lat="40.10821197126345" lon="9.180519102883279"><ele>815.0</ele><time>2026-04-11T09:42:02Z</time></trkpt><trkpt lat="40.10832260178012" lon="9.180584397157608"><ele>815.0</ele><time>2026-04-11T09:42:03Z</time></trkpt><trkpt lat="40.10845153191444" lon="9.180573702591385"><ele>815.6666666666667</ele><time>2026-04-11T09:42:04Z</time></trkpt><trkpt lat="40.10856882084155" lon="9.180490228874609"><ele>816.3333333333333</ele><time>2026-04-11T09:42:05Z</time></trkpt><trkpt lat="40.10866052025422" lon="9.180337844860453"><ele>817.0</ele><time>2026-04-11T09:42:06Z</time></trkpt><trkpt lat="40.10875905162701" lon="9.180152908617508"><ele>817.0</ele><time>2026-04-11T09:42:07Z</time></trkpt><trkpt lat="40.10886533564389" lon="9.179999436945241"><ele>817.0</ele><time>2026-04-11T09:42:08Z</time></trkpt><trkpt lat="40.10899700947696" lon="9.17985216268809"><ele>817.0</ele><time>2026-04-11T09:42:09Z</time></trkpt><trkpt lat="40.10914527419837" lon="9.179698099693912"><ele>814.6666666666666</ele><time>2026-04-11T09:42:10Z</time></trkpt><trkpt lat="40.10931089256108" lon="9.179563902112696"><ele>812.3333333333333</ele><time>2026-04-11T09:42:11Z</time></trkpt><trkpt lat="40.10947762905175" lon="9.179420210993781"><ele>810.0</ele><time>2026-04-11T09:42:12Z</time></trkpt><trkpt lat="40.10964478173488" lon="9.179257080231741"><ele>810.0</ele><time>2026-04-11T09:42:13Z</time></trkpt><trkpt lat="40.10982780923647" lon="9.179108525627912"><ele>810.0</ele><time>2026-04-11T09:42:14Z</time></trkpt><trkpt lat="40.11001802297146" lon="9.178971339784805"><ele>810.0</ele><time>2026-04-11T09:42:15Z</time></trkpt><trkpt lat="40.11019831539112" lon="9.178827906441692"><ele>808.3333333333333</ele><time>2026-04-11T09:42:16Z</time></trkpt><trkpt lat="40.11038585313043" lon="9.178698535760505"><ele>806.6666666666666</ele><time>2026-04-11T09:42:17Z</time></trkpt><trkpt lat="40.1105894204017" lon="9.178611684708724"><ele>805.0</ele><time>2026-04-11T09:42:18Z</time></trkpt><trkpt lat="40.11079295794855" lon="9.178537619213875"><ele>810.3333333333333</ele><time>2026-04-11T09:42:19Z</time></trkpt><trkpt lat="40.11098407283111" lon="9.178468967971872"><ele>815.6666666666667</ele><time>2026-04-11T09:42:20Z</time></trkpt><trkpt lat="40.11116381795531" lon="9.178408122452915"><ele>821.0</ele><time>2026-04-11T09:42:21Z</time></trkpt><trkpt lat="40.11133421020498" lon="9.178378992465394"><ele>821.0</ele><time>2026-04-11T09:42:22Z</time></trkpt><trkpt lat="40.111478911804426" lon="9.17838231445339"><ele>821.0</ele><time>2026-04-11T09:42:23Z</time></trkpt><trkpt lat="40.11159950211706" lon="9.178406282429071"><ele>821.0</ele><time>2026-04-11T09:42:24Z</time></trkpt><trkpt lat="40.11166334512708" lon="9.178524631710886"><ele>821.0</ele><time>2026-04-11T09:42:25Z</time></trkpt><trkpt lat="40.11171693703306" lon="9.178649767957358"><ele>821.5</ele><time>2026-04-11T09:42:26Z</time></trkpt><trkpt lat="40.11173479172135" lon="9.178824855082992"><ele>822.0</ele><time>2026-04-11T09:42:27Z</time></trkpt><trkpt lat="40.111759643020086" lon="9.179008135119822"><ele>822.5</ele><time>2026-04-11T09:42:28Z</time></trkpt><trkpt lat="40.11180385656421" lon="9.179201127513707"><ele>823.0</ele><time>2026-04-11T09:42:29Z</time></trkpt><trkpt lat="40.111879319763155" lon="9.179394239525827"><ele>824.3333333333333</ele><time>2026-04-11T09:42:30Z</time></trkpt><trkpt lat="40.11197978315676" lon="9.17958239137183"><ele>825.6666666666667</ele><time>2026-04-11T09:42:31Z</time></trkpt><trkpt lat="40.11207849027292" lon="9.17976960076279"><ele>827.0</ele><time>2026-04-11T09:42:32Z</time></trkpt><trkpt lat="40.112159571390244" lon="9.179943580706112"><ele>827.3333333333334</ele><time>2026-04-11T09:42:33Z</time></trkpt><trkpt lat="40.1122744955149" lon="9.18006768446224"><ele>827.6666666666667</ele><time>2026-04-11T09:42:34Z</time></trkpt><trkpt lat="40.11242495735758" lon="9.180131557959058"><ele>828.0</ele><time>2026-04-11T09:42:35Z</time></trkpt><trkpt lat="40.11259020219573" lon="9.18017860964214"><ele>828.0</ele><time>2026-04-11T09:42:36Z</time></trkpt><trkpt lat="40.11274726277368" lon="9.180202588182052"><ele>828.0</ele><time>2026-04-11T09:42:37Z</time></trkpt><trkpt lat="40.112875968140365" lon="9.180255489277954"><ele>828.0</ele><time>2026-04-11T09:42:38Z</time></trkpt><trkpt lat="40.11298015588595" lon="9.180357813325367"><ele>828.0</ele><time>2026-04-11T09:42:39Z</time></trkpt><trkpt lat="40.1130753684404" lon="9.180507067769216"><ele>828.0</ele><time>2026-04-11T09:42:40Z</time></trkpt><trkpt lat="40.113174321557565" lon="9.180673351106163"><ele>828.0</ele><time>2026-04-11T09:42:41Z</time></trkpt><trkpt lat="40.11325916391548" lon="9.180824489335839"><ele>828.0</ele><time>2026-04-11T09:42:42Z</time></trkpt><trkpt lat="40.1133143354548" lon="9.180976649369638"><ele>828.0</ele><time>2026-04-11T09:42:43Z</time></trkpt><trkpt lat="40.11330577413679" lon="9.181153836126246"><ele>827.5</ele><time>2026-04-11T09:42:44Z</time></trkpt><trkpt lat="40.11325470664217" lon="9.181331258606086"><ele>827.0</ele><time>2026-04-11T09:42:45Z</time></trkpt><trkpt lat="40.11320344301423" lon="9.181509722149308"><ele>826.5</ele><time>2026-04-11T09:42:46Z</time></trkpt><trkpt lat="40.11320042984379" lon="9.181713254693944"><ele>826.0</ele><time>2026-04-11T09:42:47Z</time></trkpt><trkpt lat="40.11323303859873" lon="9.18193111935523"><ele>827.0</ele><time>2026-04-11T09:42:48Z</time></trkpt><trkpt lat="40.11327361077271" lon="9.18214268219902"><ele>828.0</ele><time>2026-04-11T09:42:49Z</time></trkpt><trkpt lat="40.113343292709146" lon="9.182327270006327"><ele>829.0</ele><time>2026-04-11T09:42:50Z</time></trkpt><trkpt lat="40.11343671009025" lon="9.182513767147894"><ele>832.3333333333333</ele><time>2026-04-11T09:42:51Z</time></trkpt><trkpt lat="40.11358283049377" lon="9.182667011724872"><ele>835.6666666666667</ele><time>2026-04-11T09:42:52Z</time></trkpt><trkpt lat="40.11372825824158" lon="9.182828091014935"><ele>839.0</ele><time>2026-04-11T09:42:53Z</time></trkpt><trkpt lat="40.11385519947766" lon="9.182997564022907"><ele>835.0</ele><time>2026-04-11T09:42:54Z</time></trkpt><trkpt lat="40.11397654452486" lon="9.183187442651114"><ele>831.0</ele><time>2026-04-11T09:42:55Z</time></trkpt><trkpt lat="40.11409644426665" lon="9.183375408236966"><ele>827.0</ele><time>2026-04-11T09:42:56Z</time></trkpt><trkpt lat="40.1142033159929" lon="9.18356374909188"><ele>827.0</ele><time>2026-04-11T09:42:57Z</time></trkpt><trkpt lat="40.114291212425876" lon="9.18376516203143"><ele>827.0</ele><time>2026-04-11T09:42:58Z</time></trkpt><trkpt lat="40.11435358481211" lon="9.18399113396683"><ele>827.0</ele><time>2026-04-11T09:42:59Z</time></trkpt><trkpt lat="40.11438482454441" lon="9.184221040354352"><ele>830.0</ele><time>2026-04-11T09:43:00Z</time></trkpt><trkpt lat="40.11442226656073" lon="9.184433812951145"><ele>833.0</ele><time>2026-04-11T09:43:01Z</time></trkpt><trkpt lat="40.11446998742416" lon="9.18462353647115"><ele>836.0</ele><time>2026-04-11T09:43:02Z</time></trkpt><trkpt lat="40.114543812011206" lon="9.184797438528431"><ele>838.6666666666667</ele><time>2026-04-11T09:43:03Z</time></trkpt><trkpt lat="40.11466524004325" lon="9.184900217901475"><ele>841.3333333333333</ele><time>2026-04-11T09:43:04Z</time></trkpt><trkpt lat="40.114811095661636" lon="9.18492105369172"><ele>844.0</ele><time>2026-04-11T09:43:05Z</time></trkpt><trkpt lat="40.11497487669292" lon="9.184915173886615"><ele>838.3333333333333</ele><time>2026-04-11T09:43:06Z</time></trkpt><trkpt lat="40.1151437795622" lon="9.18490794484725"><ele>832.6666666666667</ele><time>2026-04-11T09:43:07Z</time></trkpt><trkpt lat="40.11532474655447" lon="9.184902784353326"><ele>827.0</ele><time>2026-04-11T09:43:08Z</time></trkpt><trkpt lat="40.115506863570126" lon="9.184902985887083"><ele>827.0</ele><time>2026-04-11T09:43:09Z</time></trkpt><trkpt lat="40.11568095012882" lon="9.184890782177145"><ele>827.0</ele><time>2026-04-11T09:43:10Z</time></trkpt><trkpt lat="40.115843252623044" lon="9.184878147526897"><ele>827.0</ele><time>2026-04-11T09:43:11Z</time></trkpt><trkpt lat="40.115971938351905" lon="9.184768045760459"><ele>822.6666666666667</ele><time>2026-04-11T09:43:12Z</time></trkpt><trkpt lat="40.11608051603727" lon="9.184632815306966"><ele>818.3333333333333</ele><time>2026-04-11T09:43:13Z</time></trkpt><trkpt lat="40.116172358179064" lon="9.18445137329051"><ele>814.0</ele><time>2026-04-11T09:43:14Z</time></trkpt><trkpt lat="40.11629429924633" lon="9.184289838686356"><ele>814.0</ele><time>2026-04-11T09:43:15Z</time></trkpt><trkpt lat="40.11644402474419" lon="9.184144863596538"><ele>814.0</ele><time>2026-04-11T09:43:16Z</time></trkpt><trkpt lat="40.11659380910336" lon="9.18400281971711"><ele>814.0</ele><time>2026-04-11T09:43:17Z</time></trkpt><trkpt lat="40.11672575655454" lon="9.18386032531505"><ele>815.3333333333333</ele><time>2026-04-11T09:43:18Z</time></trkpt><trkpt lat="40.1168202178785" lon="9.183673400661053"><ele>816.6666666666667</ele><time>2026-04-11T09:43:19Z</time></trkpt><trkpt lat="40.116901774698505" lon="9.183464599681507"><ele>818.0</ele><time>2026-04-11T09:43:20Z</time></trkpt><trkpt lat="40.11696276392508" lon="9.183238067636703"><ele>816.3333333333334</ele><time>2026-04-11T09:43:21Z</time></trkpt><trkpt lat="40.11701435705537" lon="9.182988691121942"><ele>814.6666666666667</ele><time>2026-04-11T09:43:22Z</time></trkpt><trkpt lat="40.117072784228284" lon="9.182739764502054"><ele>813.0</ele><time>2026-04-11T09:43:23Z</time></trkpt><trkpt lat="40.1171316928336" lon="9.182502495286732"><ele>813.0</ele><time>2026-04-11T09:43:24Z</time></trkpt><trkpt lat="40.117194617576814" lon="9.182273851091098"><ele>813.0</ele><time>2026-04-11T09:43:25Z</time></trkpt><trkpt lat="40.11727302153064" lon="9.182060625901626"><ele>813.0</ele><time>2026-04-11T09:43:26Z</time></trkpt><trkpt lat="40.117377873664196" lon="9.181875537430487"><ele>814.6666666666667</ele><time>2026-04-11T09:43:27Z</time></trkpt><trkpt lat="40.117511763072116" lon="9.181706008113578"><ele>816.3333333333334</ele><time>2026-04-11T09:43:28Z</time></trkpt><trkpt lat="40.11765587032099" lon="9.181559770206427"><ele>818.0</ele><time>2026-04-11T09:43:29Z</time></trkpt><trkpt lat="40.11779196976881" lon="9.181438728988617"><ele>815.5</ele><time>2026-04-11T09:43:30Z</time></trkpt><trkpt lat="40.11791444685415" lon="9.181352477145328"><ele>813.0</ele><time>2026-04-11T09:43:31Z</time></trkpt><trkpt lat="40.1180471371667" lon="9.181347960623201"><ele>810.5</ele><time>2026-04-11T09:43:32Z</time></trkpt><trkpt lat="40.11815714932206" lon="9.18138808791583"><ele>808.0</ele><time>2026-04-11T09:43:33Z</time></trkpt><trkpt lat="40.1182802454947" lon="9.181436396437553"><ele>808.0</ele><time>2026-04-11T09:43:34Z</time></trkpt><trkpt lat="40.11841664362875" lon="9.181479392402057"><ele>808.0</ele><time>2026-04-11T09:43:35Z</time></trkpt><trkpt lat="40.118561108159355" lon="9.181456169456368"><ele>808.0</ele><time>2026-04-11T09:43:36Z</time></trkpt><trkpt lat="40.118696715719075" lon="9.181386640703325"><ele>808.0</ele><time>2026-04-11T09:43:37Z</time></trkpt><trkpt lat="40.11881649828463" lon="9.181243785371347"><ele>808.0</ele><time>2026-04-11T09:43:38Z</time></trkpt><trkpt lat="40.11892530547724" lon="9.18106070097158"><ele>808.0</ele><time>2026-04-11T09:43:39Z</time></trkpt><trkpt lat="40.11903952938175" lon="9.180875230271768"><ele>808.0</ele><time>2026-04-11T09:43:40Z</time></trkpt><trkpt lat="40.11915265608059" lon="9.18068624258705"><ele>806.0</ele><time>2026-04-11T09:43:41Z</time></trkpt><trkpt lat="40.11925543189982" lon="9.180502939974128"><ele>804.0</ele><time>2026-04-11T09:43:42Z</time></trkpt><trkpt lat="40.119370953050044" lon="9.180350458590812"><ele>802.0</ele><time>2026-04-11T09:43:43Z</time></trkpt><trkpt lat="40.119524263596844" lon="9.180257024431416"><ele>802.0</ele><time>2026-04-11T09:43:44Z</time></trkpt><trkpt lat="40.119682725571415" lon="9.180145559994813"><ele>802.0</ele><time>2026-04-11T09:43:45Z</time></trkpt><trkpt lat="40.11984735959668" lon="9.180053106564834"><ele>802.0</ele><time>2026-04-11T09:43:46Z</time></trkpt><trkpt lat="40.119991489816954" lon="9.17996038177418"><ele>803.5</ele><time>2026-04-11T09:43:47Z</time></trkpt><trkpt lat="40.120101986404926" lon="9.179860786692464"><ele>805.0</ele><time>2026-04-11T09:43:48Z</time></trkpt><trkpt lat="40.12020353562399" lon="9.179759252588017"><ele>806.5</ele><time>2026-04-11T09:43:49Z</time></trkpt><trkpt lat="40.120289906430976" lon="9.179663822651682"><ele>808.0</ele><time>2026-04-11T09:43:50Z</time></trkpt><trkpt lat="40.12019834621422" lon="9.179343357376096"><ele>808.0</ele><time>2026-04-11T09:43:51Z</time></trkpt><trkpt lat="40.120158086553964" lon="9.179134710516404"><ele>808.0</ele><time>2026-04-11T09:43:52Z</time></trkpt><trkpt lat="40.120139821311085" lon="9.17893703122268"><ele>808.0</ele><time>2026-04-11T09:43:53Z</time></trkpt><trkpt lat="40.120161551015705" lon="9.178743367434636"><ele>806.3333333333333</ele><time>2026-04-11T09:43:54Z</time></trkpt><trkpt lat="40.12022839231474" lon="9.17853725021506"><ele>804.6666666666667</ele><time>2026-04-11T09:43:55Z</time></trkpt><trkpt lat="40.12030321281113" lon="9.178309987679047"><ele>803.0</ele><time>2026-04-11T09:43:56Z</time></trkpt><trkpt lat="40.120368641240724" lon="9.178086521043268"><ele>802.6666666666667</ele><time>2026-04-11T09:43:57Z</time></trkpt><trkpt lat="40.1204258458923" lon="9.177872332290011"><ele>802.3333333333333</ele><time>2026-04-11T09:43:58Z</time></trkpt><trkpt lat="40.120469071452554" lon="9.177655682984167"><ele>802.0</ele><time>2026-04-11T09:43:59Z</time></trkpt><trkpt lat="40.12047167925671" lon="9.177423756985897"><ele>802.3333333333333</ele><time>2026-04-11T09:44:00Z</time></trkpt><trkpt lat="40.12044981093207" lon="9.17719052161712"><ele>802.6666666666667</ele><time>2026-04-11T09:44:01Z</time></trkpt><trkpt lat="40.12043249844447" lon="9.176960170913194"><ele>803.0</ele><time>2026-04-11T09:44:02Z</time></trkpt><trkpt lat="40.12042114375689" lon="9.176748683763076"><ele>803.0</ele><time>2026-04-11T09:44:03Z</time></trkpt><trkpt lat="40.12041311656544" lon="9.176564843176113"><ele>803.0</ele><time>2026-04-11T09:44:04Z</time></trkpt><trkpt lat="40.12041379149173" lon="9.176415764682963"><ele>803.0</ele><time>2026-04-11T09:44:05Z</time></trkpt><trkpt lat="40.120445780516775" lon="9.176275686425692"><ele>803.0</ele><time>2026-04-11T09:44:06Z</time></trkpt><trkpt lat="40.120523495023946" lon="9.176165606425801"><ele>803.25</ele><time>2026-04-11T09:44:07Z</time></trkpt><trkpt lat="40.1206436042926" lon="9.176105578113331"><ele>803.5</ele><time>2026-04-11T09:44:08Z</time></trkpt><trkpt lat="40.12078810363394" lon="9.176062839960556"><ele>803.75</ele><time>2026-04-11T09:44:09Z</time></trkpt><trkpt lat="40.12093610530186" lon="9.175996761752172"><ele>804.0</ele><time>2026-04-11T09:44:10Z</time></trkpt><trkpt lat="40.12109155828882" lon="9.17590078723059"><ele>804.0</ele><time>2026-04-11T09:44:11Z</time></trkpt><trkpt lat="40.121252924499565" lon="9.175784960127064"><ele>804.0</ele><time>2026-04-11T09:44:12Z</time></trkpt><trkpt lat="40.12140955688213" lon="9.175668193189603"><ele>804.0</ele><time>2026-04-11T09:44:13Z</time></trkpt><trkpt lat="40.12155683057705" lon="9.175564113314108"><ele>802.5</ele><time>2026-04-11T09:44:14Z</time></trkpt><trkpt lat="40.12169804663715" lon="9.175488804833114"><ele>801.0</ele><time>2026-04-11T09:44:15Z</time></trkpt><trkpt lat="40.1218259846531" lon="9.175461001236135"><ele>799.5</ele><time>2026-04-11T09:44:16Z</time></trkpt><trkpt lat="40.121934219157325" lon="9.17551445413732"><ele>798.0</ele><time>2026-04-11T09:44:17Z</time></trkpt><trkpt lat="40.12200998689116" lon="9.175616521085475"><ele>801.0</ele><time>2026-04-11T09:44:18Z</time></trkpt><trkpt lat="40.12203150025519" lon="9.175756042195221"><ele>804.0</ele><time>2026-04-11T09:44:19Z</time></trkpt><trkpt lat="40.122007193756" lon="9.175926396696708"><ele>807.0</ele><time>2026-04-11T09:44:20Z</time></trkpt><trkpt lat="40.12198112370979" lon="9.176106704834837"><ele>810.0</ele><time>2026-04-11T09:44:21Z</time></trkpt><trkpt lat="40.122000734651884" lon="9.176310380481988"><ele>810.0</ele><time>2026-04-11T09:44:22Z</time></trkpt><trkpt lat="40.122066511755634" lon="9.176502206065535"><ele>810.0</ele><time>2026-04-11T09:44:23Z</time></trkpt><trkpt lat="40.12217570461817" lon="9.176651861486405"><ele>810.0</ele><time>2026-04-11T09:44:24Z</time></trkpt><trkpt lat="40.12231650905219" lon="9.176761896815663"><ele>805.0</ele><time>2026-04-11T09:44:25Z</time></trkpt><trkpt lat="40.122461110499636" lon="9.176886034818668"><ele>800.0</ele><time>2026-04-11T09:44:26Z</time></trkpt><trkpt lat="40.12259284734248" lon="9.17704063298843"><ele>795.0</ele><time>2026-04-11T09:44:27Z</time></trkpt><trkpt lat="40.12270888856119" lon="9.177218866489918"><ele>800.0</ele><time>2026-04-11T09:44:28Z</time></trkpt><trkpt lat="40.122801140430475" lon="9.177424667162212"><ele>805.0</ele><time>2026-04-11T09:44:29Z</time></trkpt><trkpt lat="40.12287814080668" lon="9.177653676628772"><ele>810.0</ele><time>2026-04-11T09:44:30Z</time></trkpt><trkpt lat="40.122940720291595" lon="9.177897116163308"><ele>810.0</ele><time>2026-04-11T09:44:31Z</time></trkpt><trkpt lat="40.12303654181706" lon="9.17811707290675"><ele>810.0</ele><time>2026-04-11T09:44:32Z</time></trkpt><trkpt lat="40.12313485017785" lon="9.178326310294786"><ele>810.0</ele><time>2026-04-11T09:44:33Z</time></trkpt><trkpt lat="40.12321956413618" lon="9.178525714640019"><ele>811.25</ele><time>2026-04-11T09:44:34Z</time></trkpt><trkpt lat="40.12328743170556" lon="9.178709266131227"><ele>812.5</ele><time>2026-04-11T09:44:35Z</time></trkpt><trkpt lat="40.123293615402844" lon="9.178891197929882"><ele>813.75</ele><time>2026-04-11T09:44:36Z</time></trkpt><trkpt lat="40.123231323238606" lon="9.179060440895045"><ele>815.0</ele><time>2026-04-11T09:44:37Z</time></trkpt><trkpt lat="40.12318510092517" lon="9.17925637697747"><ele>815.0</ele><time>2026-04-11T09:44:38Z</time></trkpt><trkpt lat="40.123152990915365" lon="9.179455507996215"><ele>815.0</ele><time>2026-04-11T09:44:39Z</time></trkpt><trkpt lat="40.12316979581165" lon="9.179656583811816"><ele>815.0</ele><time>2026-04-11T09:44:40Z</time></trkpt><trkpt lat="40.12322728525586" lon="9.179846594407039"><ele>805.3333333333334</ele><time>2026-04-11T09:44:41Z</time></trkpt><trkpt lat="40.123311541442" lon="9.180016685040352"><ele>795.6666666666667</ele><time>2026-04-11T09:44:42Z</time></trkpt><trkpt lat="40.12342850296394" lon="9.180141882273178"><ele>786.0</ele><time>2026-04-11T09:44:43Z</time></trkpt><trkpt lat="40.12357394153387" lon="9.180213708853518"><ele>786.0</ele><time>2026-04-11T09:44:44Z</time></trkpt><trkpt lat="40.12373261867288" lon="9.180248234270223"><ele>786.0</ele><time>2026-04-11T09:44:45Z</time></trkpt><trkpt lat="40.12389303116914" lon="9.180309397657012"><ele>786.0</ele><time>2026-04-11T09:44:46Z</time></trkpt><trkpt lat="40.1240565740552" lon="9.180357720261068"><ele>787.0</ele><time>2026-04-11T09:44:47Z</time></trkpt><trkpt lat="40.12420400450154" lon="9.180448648301674"><ele>788.0</ele><time>2026-04-11T09:44:48Z</time></trkpt><trkpt lat="40.12434801974284" lon="9.18059486473193"><ele>789.0</ele><time>2026-04-11T09:44:49Z</time></trkpt><trkpt lat="40.124510432852944" lon="9.180738457629166"><ele>789.0</ele><time>2026-04-11T09:44:50Z</time></trkpt><trkpt lat="40.1246776447551" lon="9.180855416604093"><ele>789.0</ele><time>2026-04-11T09:44:51Z</time></trkpt><trkpt lat="40.12483480655823" lon="9.180977370793713"><ele>789.0</ele><time>2026-04-11T09:44:52Z</time></trkpt><trkpt lat="40.12496254922842" lon="9.181144300250637"><ele>787.6666666666667</ele><time>2026-04-11T09:44:53Z</time></trkpt><trkpt lat="40.12510368994339" lon="9.18131979277987"><ele>786.3333333333334</ele><time>2026-04-11T09:44:54Z</time></trkpt><trkpt lat="40.12523302084664" lon="9.18150600999645"><ele>785.0</ele><time>2026-04-11T09:44:55Z</time></trkpt><trkpt lat="40.12538726442969" lon="9.181673030765833"><ele>785.0</ele><time>2026-04-11T09:44:56Z</time></trkpt><trkpt lat="40.12555392759285" lon="9.181815931364733"><ele>785.0</ele><time>2026-04-11T09:44:57Z</time></trkpt><trkpt lat="40.12573566261996" lon="9.181928364151085"><ele>785.0</ele><time>2026-04-11T09:44:58Z</time></trkpt><trkpt lat="40.12591838954175" lon="9.182040402393744"><ele>784.6666666666667</ele><time>2026-04-11T09:44:59Z</time></trkpt><trkpt lat="40.126094912607726" lon="9.182143349451694"><ele>784.3333333333333</ele><time>2026-04-11T09:45:00Z</time></trkpt><trkpt lat="40.126257169493186" lon="9.182276481834998"><ele>784.0</ele><time>2026-04-11T09:45:01Z</time></trkpt><trkpt lat="40.12640691988598" lon="9.182434554317688"><ele>774.0</ele><time>2026-04-11T09:45:02Z</time></trkpt><trkpt lat="40.1265809645911" lon="9.182551350560567"><ele>764.0</ele><time>2026-04-11T09:45:03Z</time></trkpt><trkpt lat="40.12676278304196" lon="9.18264871142802"><ele>754.0</ele><time>2026-04-11T09:45:04Z</time></trkpt><trkpt lat="40.126933448050366" lon="9.182752961992778"><ele>754.0</ele><time>2026-04-11T09:45:05Z</time></trkpt><trkpt lat="40.12708799138732" lon="9.18284550117575"><ele>754.0</ele><time>2026-04-11T09:45:06Z</time></trkpt><trkpt lat="40.127217681082946" lon="9.182981452857566"><ele>754.0</ele><time>2026-04-11T09:45:07Z</time></trkpt><trkpt lat="40.12735684382588" lon="9.183148641026941"><ele>753.0</ele><time>2026-04-11T09:45:08Z</time></trkpt><trkpt lat="40.12747440684191" lon="9.183341749903844"><ele>752.0</ele><time>2026-04-11T09:45:09Z</time></trkpt><trkpt lat="40.12757117786397" lon="9.183547345471831"><ele>751.0</ele><time>2026-04-11T09:45:10Z</time></trkpt><trkpt lat="40.127682080952866" lon="9.183711977394891"><ele>751.0</ele><time>2026-04-11T09:45:11Z</time></trkpt><trkpt lat="40.12774557061944" lon="9.18389433733589"><ele>751.0</ele><time>2026-04-11T09:45:12Z</time></trkpt><trkpt lat="40.12774037107605" lon="9.184090759570601"><ele>751.0</ele><time>2026-04-11T09:45:13Z</time></trkpt><trkpt lat="40.1277374307997" lon="9.18430860230525"><ele>752.0</ele><time>2026-04-11T09:45:14Z</time></trkpt><trkpt lat="40.12771449258789" lon="9.184528025380207"><ele>753.0</ele><time>2026-04-11T09:45:15Z</time></trkpt><trkpt lat="40.12770788215325" lon="9.184748989683147"><ele>754.0</ele><time>2026-04-11T09:45:16Z</time></trkpt><trkpt lat="40.127728528627934" lon="9.184957583604174"><ele>754.0</ele><time>2026-04-11T09:45:17Z</time></trkpt><trkpt lat="40.12778881292453" lon="9.185159761304753"><ele>754.0</ele><time>2026-04-11T09:45:18Z</time></trkpt><trkpt lat="40.127865207109465" lon="9.185354325300317"><ele>754.0</ele><time>2026-04-11T09:45:19Z</time></trkpt><trkpt lat="40.12793575684566" lon="9.185524900087692"><ele>753.0</ele><time>2026-04-11T09:45:20Z</time></trkpt><trkpt lat="40.12793826345196" lon="9.185711065498696"><ele>752.0</ele><time>2026-04-11T09:45:21Z</time></trkpt><trkpt lat="40.12789419061635" lon="9.185864046725051"><ele>751.0</ele><time>2026-04-11T09:45:22Z</time></trkpt><trkpt lat="40.12780350333357" lon="9.185994888293276"><ele>750.0</ele><time>2026-04-11T09:45:23Z</time></trkpt><trkpt lat="40.127690285457405" lon="9.18611896719936"><ele>750.0</ele><time>2026-04-11T09:45:24Z</time></trkpt><trkpt lat="40.12761774061696" lon="9.186285451049567"><ele>750.0</ele><time>2026-04-11T09:45:25Z</time></trkpt><trkpt lat="40.12758692358281" lon="9.18650269905437"><ele>750.0</ele><time>2026-04-11T09:45:26Z</time></trkpt><trkpt lat="40.127536030746654" lon="9.186691793264036"><ele>748.75</ele><time>2026-04-11T09:45:27Z</time></trkpt><trkpt lat="40.1274362281086" lon="9.18683022417774"><ele>747.5</ele><time>2026-04-11T09:45:28Z</time></trkpt><trkpt lat="40.12735604197859" lon="9.186960991418827"><ele>746.25</ele><time>2026-04-11T09:45:29Z</time></trkpt><trkpt lat="40.12734478430153" lon="9.18712942834207"><ele>745.0</ele><time>2026-04-11T09:45:30Z</time></trkpt><trkpt lat="40.127385087997155" lon="9.18732012576409"><ele>743.6666666666667</ele><time>2026-04-11T09:45:31Z</time></trkpt><trkpt lat="40.12745019969054" lon="9.18751784914505"><ele>742.3333333333334</ele><time>2026-04-11T09:45:32Z</time></trkpt><trkpt lat="40.127483946380494" lon="9.187749435156306"><ele>741.0</ele><time>2026-04-11T09:45:33Z</time></trkpt><trkpt lat="40.12750498437163" lon="9.187989889850469"><ele>740.6666666666666</ele><time>2026-04-11T09:45:34Z</time></trkpt><trkpt lat="40.127532361555005" lon="9.188239988566476"><ele>740.3333333333333</ele><time>2026-04-11T09:45:35Z</time></trkpt><trkpt lat="40.1275587591136" lon="9.188487023656462"><ele>740.0</ele><time>2026-04-11T09:45:36Z</time></trkpt><trkpt lat="40.1275545829713" lon="9.188740359240356"><ele>740.0</ele><time>2026-04-11T09:45:37Z</time></trkpt><trkpt lat="40.12752858889245" lon="9.189003964473127"><ele>740.0</ele><time>2026-04-11T09:45:38Z</time></trkpt><trkpt lat="40.127523740811675" lon="9.189288844632067"><ele>740.0</ele><time>2026-04-11T09:45:39Z</time></trkpt><trkpt lat="40.12754348594053" lon="9.189578210075636"><ele>739.6666666666666</ele><time>2026-04-11T09:45:40Z</time></trkpt><trkpt lat="40.127581611027054" lon="9.189839371188183"><ele>739.3333333333334</ele><time>2026-04-11T09:45:41Z</time></trkpt><trkpt lat="40.12756458720337" lon="9.190086281102708"><ele>739.0</ele><time>2026-04-11T09:45:42Z</time></trkpt><trkpt lat="40.127536640025326" lon="9.190293348755109"><ele>737.3333333333334</ele><time>2026-04-11T09:45:43Z</time></trkpt><trkpt lat="40.127537012158214" lon="9.190476174948268"><ele>735.6666666666666</ele><time>2026-04-11T09:45:44Z</time></trkpt><trkpt lat="40.127593084970556" lon="9.190658857657398"><ele>734.0</ele><time>2026-04-11T09:45:45Z</time></trkpt><trkpt lat="40.127711846803656" lon="9.190829239286533"><ele>734.0</ele><time>2026-04-11T09:45:46Z</time></trkpt><trkpt lat="40.12785259519699" lon="9.191007231176082"><ele>734.0</ele><time>2026-04-11T09:45:47Z</time></trkpt><trkpt lat="40.12796848781304" lon="9.19122082531997"><ele>734.0</ele><time>2026-04-11T09:45:48Z</time></trkpt><trkpt lat="40.128089120213254" lon="9.191437727385534"><ele>729.3333333333333</ele><time>2026-04-11T09:45:49Z</time></trkpt><trkpt lat="40.12824556528683" lon="9.191636366450682"><ele>724.6666666666666</ele><time>2026-04-11T09:45:50Z</time></trkpt><trkpt lat="40.12841689245341" lon="9.191784072940338"><ele>720.0</ele><time>2026-04-11T09:45:51Z</time></trkpt><trkpt lat="40.12856117231573" lon="9.191950548095084"><ele>720.0</ele><time>2026-04-11T09:45:52Z</time></trkpt><trkpt lat="40.12867317650127" lon="9.192169687655502"><ele>720.0</ele><time>2026-04-11T09:45:53Z</time></trkpt><trkpt lat="40.12880126042634" lon="9.19240576596725"><ele>720.0</ele><time>2026-04-11T09:45:54Z</time></trkpt><trkpt lat="40.12896191035471" lon="9.192623205480942"><ele>719.0</ele><time>2026-04-11T09:45:55Z</time></trkpt><trkpt lat="40.129096323217865" lon="9.19285532858623"><ele>718.0</ele><time>2026-04-11T09:45:56Z</time></trkpt><trkpt lat="40.129231803108894" lon="9.193058693001865"><ele>717.0</ele><time>2026-04-11T09:45:57Z</time></trkpt><trkpt lat="40.129357454851075" lon="9.193224015088663"><ele>717.0</ele><time>2026-04-11T09:45:58Z</time></trkpt><trkpt lat="40.12943357027153" lon="9.193406877048659"><ele>717.0</ele><time>2026-04-11T09:45:59Z</time></trkpt><trkpt lat="40.12942687630648" lon="9.193601911314312"><ele>717.0</ele><time>2026-04-11T09:46:00Z</time></trkpt><trkpt lat="40.129438303010545" lon="9.19379029485199"><ele>717.0</ele><time>2026-04-11T09:46:01Z</time></trkpt><trkpt lat="40.129466129226564" lon="9.19397711312256"><ele>717.0</ele><time>2026-04-11T09:46:02Z</time></trkpt><trkpt lat="40.1295481543288" lon="9.194138455332714"><ele>717.0</ele><time>2026-04-11T09:46:03Z</time></trkpt><trkpt lat="40.12966668967497" lon="9.194250823473496"><ele>717.0</ele><time>2026-04-11T09:46:04Z</time></trkpt><trkpt lat="40.12981492451104" lon="9.194332686206485"><ele>710.0</ele><time>2026-04-11T09:46:05Z</time></trkpt><trkpt lat="40.12998148731678" lon="9.194380727083006"><ele>703.0</ele><time>2026-04-11T09:46:06Z</time></trkpt><trkpt lat="40.13013540228705" lon="9.194456578864655"><ele>696.0</ele><time>2026-04-11T09:46:07Z</time></trkpt><trkpt lat="40.130260051479475" lon="9.19456195468695"><ele>696.0</ele><time>2026-04-11T09:46:08Z</time></trkpt><trkpt lat="40.1303780132832" lon="9.194727768428212"><ele>696.0</ele><time>2026-04-11T09:46:09Z</time></trkpt><trkpt lat="40.130494520495006" lon="9.1949225122334"><ele>696.0</ele><time>2026-04-11T09:46:10Z</time></trkpt><trkpt lat="40.130562828663706" lon="9.195155610946292"><ele>700.6666666666666</ele><time>2026-04-11T09:46:11Z</time></trkpt><trkpt lat="40.13062884831043" lon="9.195373393399885"><ele>705.3333333333333</ele><time>2026-04-11T09:46:12Z</time></trkpt><trkpt lat="40.130646125949944" lon="9.195581869170013"><ele>710.0</ele><time>2026-04-11T09:46:13Z</time></trkpt><trkpt lat="40.13059578202946" lon="9.195786497820603"><ele>709.3333333333333</ele><time>2026-04-11T09:46:14Z</time></trkpt><trkpt lat="40.13053296629865" lon="9.196004302200244"><ele>708.6666666666666</ele><time>2026-04-11T09:46:15Z</time></trkpt><trkpt lat="40.130504443547096" lon="9.196252150655349"><ele>708.0</ele><time>2026-04-11T09:46:16Z</time></trkpt><trkpt lat="40.13049518330642" lon="9.196515693511854"><ele>708.0</ele><time>2026-04-11T09:46:17Z</time></trkpt><trkpt lat="40.13047033615409" lon="9.196786742575755"><ele>708.0</ele><time>2026-04-11T09:46:18Z</time></trkpt><trkpt lat="40.130421009191274" lon="9.197068770185135"><ele>708.0</ele><time>2026-04-11T09:46:19Z</time></trkpt><trkpt lat="40.13035788942525" lon="9.197362370592558"><ele>703.0</ele><time>2026-04-11T09:46:20Z</time></trkpt><trkpt lat="40.13028294963971" lon="9.197664905778119"><ele>698.0</ele><time>2026-04-11T09:46:21Z</time></trkpt><trkpt lat="40.13020437615446" lon="9.197957413884762"><ele>694.3333333333333</ele><time>2026-04-11T09:46:22Z</time></trkpt><trkpt lat="40.1301287931759" lon="9.198237235434961"><ele>690.6666666666666</ele><time>2026-04-11T09:46:23Z</time></trkpt><trkpt lat="40.13006043708603" lon="9.198499297396005"><ele>687.0</ele><time>2026-04-11T09:46:24Z</time></trkpt><trkpt lat="40.13000712526893" lon="9.198735478251274"><ele>687.0</ele><time>2026-04-11T09:46:25Z</time></trkpt><trkpt lat="40.12997613276076" lon="9.198962097659248"><ele>687.0</ele><time>2026-04-11T09:46:26Z</time></trkpt><trkpt lat="40.12997108073517" lon="9.199194632424305"><ele>687.0</ele><time>2026-04-11T09:46:27Z</time></trkpt><trkpt lat="40.13001573846328" lon="9.199442492588181"><ele>686.3333333333334</ele><time>2026-04-11T09:46:28Z</time></trkpt><trkpt lat="40.13008116619837" lon="9.199697770007628"><ele>685.6666666666667</ele><time>2026-04-11T09:46:29Z</time></trkpt><trkpt lat="40.130149482324576" lon="9.199950807060928"><ele>685.0</ele><time>2026-04-11T09:46:30Z</time></trkpt><trkpt lat="40.130218023225375" lon="9.200198744241254"><ele>685.0</ele><time>2026-04-11T09:46:31Z</time></trkpt><trkpt lat="40.13028001772723" lon="9.200431898836307"><ele>685.0</ele><time>2026-04-11T09:46:32Z</time></trkpt><trkpt lat="40.1303357653486" lon="9.200649145099675"><ele>685.0</ele><time>2026-04-11T09:46:33Z</time></trkpt><trkpt lat="40.13033440035172" lon="9.200873834525245"><ele>684.3333333333334</ele><time>2026-04-11T09:46:34Z</time></trkpt><trkpt lat="40.13030014223454" lon="9.201088099035953"><ele>683.6666666666666</ele><time>2026-04-11T09:46:35Z</time></trkpt><trkpt lat="40.13022886314004" lon="9.201278220764063"><ele>683.0</ele><time>2026-04-11T09:46:36Z</time></trkpt><trkpt lat="40.130114269276746" lon="9.201457384981937"><ele>682.0</ele><time>2026-04-11T09:46:37Z</time></trkpt><trkpt lat="40.12996194216282" lon="9.201606620115982"><ele>681.0</ele><time>2026-04-11T09:46:38Z</time></trkpt><trkpt lat="40.12977650894168" lon="9.201711735663684"><ele>680.0</ele><time>2026-04-11T09:46:39Z</time></trkpt><trkpt lat="40.12957002109123" lon="9.201778116687478"><ele>680.0</ele><time>2026-04-11T09:46:40Z</time></trkpt><trkpt lat="40.129370235903245" lon="9.201850900078416"><ele>680.0</ele><time>2026-04-11T09:46:41Z</time></trkpt><trkpt lat="40.12915701120702" lon="9.201933614207043"><ele>680.0</ele><time>2026-04-11T09:46:42Z</time></trkpt><trkpt lat="40.12893804817102" lon="9.202021271804627"><ele>686.0</ele><time>2026-04-11T09:46:43Z</time></trkpt><trkpt lat="40.12871356184875" lon="9.202113981364745"><ele>692.0</ele><time>2026-04-11T09:46:44Z</time></trkpt><trkpt lat="40.12848586370785" lon="9.202207045015077"><ele>692.0</ele><time>2026-04-11T09:46:45Z</time></trkpt><trkpt lat="40.12825061910892" lon="9.202290620844503"><ele>692.0</ele><time>2026-04-11T09:46:46Z</time></trkpt><trkpt lat="40.128008337744454" lon="9.202356323869113"><ele>681.5</ele><time>2026-04-11T09:46:47Z</time></trkpt><trkpt lat="40.127764277085774" lon="9.202416984289613"><ele>671.0</ele><time>2026-04-11T09:46:48Z</time></trkpt><trkpt lat="40.12752631708874" lon="9.202479740839767"><ele>673.0</ele><time>2026-04-11T09:46:49Z</time></trkpt><trkpt lat="40.1272915491971" lon="9.202541627557919"><ele>675.0</ele><time>2026-04-11T09:46:50Z</time></trkpt><trkpt lat="40.12706226208563" lon="9.202601531352084"><ele>675.0</ele><time>2026-04-11T09:46:51Z</time></trkpt><trkpt lat="40.126842044845404" lon="9.202657309335196"><ele>675.0</ele><time>2026-04-11T09:46:52Z</time></trkpt><trkpt lat="40.126630643002294" lon="9.202705886948001"><ele>675.0</ele><time>2026-04-11T09:46:53Z</time></trkpt><trkpt lat="40.12642337449489" lon="9.202739304761181"><ele>674.6666666666666</ele><time>2026-04-11T09:46:54Z</time></trkpt><trkpt lat="40.126211387873006" lon="9.20273688622814"><ele>674.3333333333333</ele><time>2026-04-11T09:46:55Z</time></trkpt><trkpt lat="40.125994345904594" lon="9.202676238706852"><ele>674.0</ele><time>2026-04-11T09:46:56Z</time></trkpt><trkpt lat="40.125772954733606" lon="9.202583251300027"><ele>670.5</ele><time>2026-04-11T09:46:57Z</time></trkpt><trkpt lat="40.12555444997279" lon="9.202485898492249"><ele>667.0</ele><time>2026-04-11T09:46:58Z</time></trkpt><trkpt lat="40.12534280620438" lon="9.202390357332451"><ele>670.3333333333334</ele><time>2026-04-11T09:46:59Z</time></trkpt><trkpt lat="40.12513510863193" lon="9.202304984332985"><ele>673.6666666666666</ele><time>2026-04-11T09:47:00Z</time></trkpt><trkpt lat="40.12492589630608" lon="9.20222859546187"><ele>677.0</ele><time>2026-04-11T09:47:01Z</time></trkpt><trkpt lat="40.12471228323515" lon="9.202182140138431"><ele>677.0</ele><time>2026-04-11T09:47:02Z</time></trkpt><trkpt lat="40.12448996627147" lon="9.202185670938869"><ele>677.0</ele><time>2026-04-11T09:47:03Z</time></trkpt><trkpt lat="40.124265075103835" lon="9.202235485259827"><ele>681.5</ele><time>2026-04-11T09:47:04Z</time></trkpt><trkpt lat="40.12403818151588" lon="9.202299049829374"><ele>686.0</ele><time>2026-04-11T09:47:05Z</time></trkpt><trkpt lat="40.1238091945974" lon="9.202352425132755"><ele>676.5</ele><time>2026-04-11T09:47:06Z</time></trkpt><trkpt lat="40.12358221476478" lon="9.20239837210933"><ele>667.0</ele><time>2026-04-11T09:47:07Z</time></trkpt><trkpt lat="40.12335727013841" lon="9.202439168469045"><ele>667.5</ele><time>2026-04-11T09:47:08Z</time></trkpt><trkpt lat="40.123132075230735" lon="9.202454648687628"><ele>668.0</ele><time>2026-04-11T09:47:09Z</time></trkpt><trkpt lat="40.12290569786656" lon="9.202432231108176"><ele>668.0</ele><time>2026-04-11T09:47:10Z</time></trkpt><trkpt lat="40.12268335641557" lon="9.20239494636607"><ele>668.0</ele><time>2026-04-11T09:47:11Z</time></trkpt><trkpt lat="40.12246715380583" lon="9.202375210401222"><ele>668.0</ele><time>2026-04-11T09:47:12Z</time></trkpt><trkpt lat="40.12224942913929" lon="9.202404958520084"><ele>668.6666666666666</ele><time>2026-04-11T09:47:13Z</time></trkpt><trkpt lat="40.122035131225545" lon="9.202484332653258"><ele>669.3333333333334</ele><time>2026-04-11T09:47:14Z</time></trkpt><trkpt lat="40.12182818537382" lon="9.202565917976507"><ele>670.0</ele><time>2026-04-11T09:47:15Z</time></trkpt><trkpt lat="40.12162370554957" lon="9.202603545605418"><ele>669.3333333333334</ele><time>2026-04-11T09:47:16Z</time></trkpt><trkpt lat="40.12141488266479" lon="9.202587552659141"><ele>668.6666666666666</ele><time>2026-04-11T09:47:17Z</time></trkpt><trkpt lat="40.12120652371728" lon="9.202517535995828"><ele>668.0</ele><time>2026-04-11T09:47:18Z</time></trkpt><trkpt lat="40.1209965433355" lon="9.202434119792272"><ele>668.0</ele><time>2026-04-11T09:47:19Z</time></trkpt><trkpt lat="40.120788550339824" lon="9.202378704155104"><ele>668.0</ele><time>2026-04-11T09:47:20Z</time></trkpt><trkpt lat="40.120567196177056" lon="9.202381670852853"><ele>668.0</ele><time>2026-04-11T09:47:21Z</time></trkpt><trkpt lat="40.12033803648887" lon="9.202447990802199"><ele>671.0</ele><time>2026-04-11T09:47:22Z</time></trkpt><trkpt lat="40.120112237936574" lon="9.202543464644311"><ele>674.0</ele><time>2026-04-11T09:47:23Z</time></trkpt><trkpt lat="40.11988552442966" lon="9.202644915619489"><ele>680.5</ele><time>2026-04-11T09:47:24Z</time></trkpt><trkpt lat="40.119659953784385" lon="9.20272716522098"><ele>687.0</ele><time>2026-04-11T09:47:25Z</time></trkpt><trkpt lat="40.1194696044795" lon="9.202921097190117"><ele>687.0</ele><time>2026-04-11T09:47:26Z</time></trkpt><trkpt lat="40.11927535919841" lon="9.203068377553294"><ele>687.0</ele><time>2026-04-11T09:47:27Z</time></trkpt><trkpt lat="40.11907878964497" lon="9.203183832277995"><ele>687.0</ele><time>2026-04-11T09:47:28Z</time></trkpt><trkpt lat="40.11887692641846" lon="9.203265319811491"><ele>679.0</ele><time>2026-04-11T09:47:29Z</time></trkpt><trkpt lat="40.11866611991343" lon="9.20330912413456"><ele>671.0</ele><time>2026-04-11T09:47:30Z</time></trkpt><trkpt lat="40.11845251336358" lon="9.203317946690944"><ele>663.0</ele><time>2026-04-11T09:47:31Z</time></trkpt><trkpt lat="40.11825270470189" lon="9.203313807546428"><ele>664.0</ele><time>2026-04-11T09:47:32Z</time></trkpt><trkpt lat="40.11807438019326" lon="9.203315199614178"><ele>665.0</ele><time>2026-04-11T09:47:33Z</time></trkpt><trkpt lat="40.11790437597385" lon="9.203343959253399"><ele>666.0</ele><time>2026-04-11T09:47:34Z</time></trkpt><trkpt lat="40.11774950145711" lon="9.203407908137885"><ele>666.0</ele><time>2026-04-11T09:47:35Z</time></trkpt><trkpt lat="40.11761743650221" lon="9.203538887370335"><ele>666.0</ele><time>2026-04-11T09:47:36Z</time></trkpt><trkpt lat="40.117503736690765" lon="9.20372078466396"><ele>666.0</ele><time>2026-04-11T09:47:37Z</time></trkpt><trkpt lat="40.11740249960889" lon="9.203915332710034"><ele>667.3333333333334</ele><time>2026-04-11T09:47:38Z</time></trkpt><trkpt lat="40.117309338618675" lon="9.20410706097519"><ele>668.6666666666667</ele><time>2026-04-11T09:47:39Z</time></trkpt><trkpt lat="40.11723314880923" lon="9.204287628266394"><ele>670.0</ele><time>2026-04-11T09:47:40Z</time></trkpt><trkpt lat="40.11718242402279" lon="9.204465457350988"><ele>670.0</ele><time>2026-04-11T09:47:41Z</time></trkpt><trkpt lat="40.11716558905334" lon="9.204643076716497"><ele>670.0</ele><time>2026-04-11T09:47:42Z</time></trkpt><trkpt lat="40.11719742405601" lon="9.204812851728848"><ele>670.0</ele><time>2026-04-11T09:47:43Z</time></trkpt><trkpt lat="40.11727342782816" lon="9.20497174252688"><ele>670.0</ele><time>2026-04-11T09:47:44Z</time></trkpt><trkpt lat="40.11735803107202" lon="9.205140794381483"><ele>664.75</ele><time>2026-04-11T09:47:45Z</time></trkpt><trkpt lat="40.11744226812858" lon="9.205302885041153"><ele>659.5</ele><time>2026-04-11T09:47:46Z</time></trkpt><trkpt lat="40.11751972444992" lon="9.20546077035497"><ele>654.25</ele><time>2026-04-11T09:47:47Z</time></trkpt><trkpt lat="40.11760011933126" lon="9.205610779755972"><ele>649.0</ele><time>2026-04-11T09:47:48Z</time></trkpt><trkpt lat="40.11767619495431" lon="9.20575705195666"><ele>646.25</ele><time>2026-04-11T09:47:49Z</time></trkpt><trkpt lat="40.11774699123439" lon="9.20589161296984"><ele>643.5</ele><time>2026-04-11T09:47:50Z</time></trkpt><trkpt lat="40.11781469359177" lon="9.206019380199782"><ele>640.75</ele><time>2026-04-11T09:47:51Z</time></trkpt><trkpt lat="40.117882984901925" lon="9.206145835895384"><ele>638.0</ele><time>2026-04-11T09:47:52Z</time></trkpt><trkpt lat="40.11795147877959" lon="9.206277796667067"><ele>638.0</ele><time>2026-04-11T09:47:53Z</time></trkpt><trkpt lat="40.118016959005175" lon="9.20641380572619"><ele>638.0</ele><time>2026-04-11T09:47:54Z</time></trkpt><trkpt lat="40.11808513790069" lon="9.20654836442124"><ele>638.0</ele><time>2026-04-11T09:47:55Z</time></trkpt><trkpt lat="40.11815686408441" lon="9.206682237236887"><ele>638.0</ele><time>2026-04-11T09:47:56Z</time></trkpt><trkpt lat="40.118231822645875" lon="9.206818493653019"><ele>640.0</ele><time>2026-04-11T09:47:57Z</time></trkpt><trkpt lat="40.1183071844989" lon="9.20696192101112"><ele>642.0</ele><time>2026-04-11T09:47:58Z</time></trkpt><trkpt lat="40.118383361943216" lon="9.207113584028887"><ele>644.0</ele><time>2026-04-11T09:47:59Z</time></trkpt><trkpt lat="40.11846145955549" lon="9.20726631887855"><ele>646.0</ele><time>2026-04-11T09:48:00Z</time></trkpt><trkpt lat="40.11854493847597" lon="9.207415373570134"><ele>647.75</ele><time>2026-04-11T09:48:01Z</time></trkpt><trkpt lat="40.118636769608095" lon="9.207558923272705"><ele>649.5</ele><time>2026-04-11T09:48:02Z</time></trkpt><trkpt lat="40.11874221690663" lon="9.207689124469459"><ele>651.25</ele><time>2026-04-11T09:48:03Z</time></trkpt><trkpt lat="40.1188513089618" lon="9.20781341646018"><ele>653.0</ele><time>2026-04-11T09:48:04Z</time></trkpt><trkpt lat="40.11895214016205" lon="9.207939384797383"><ele>653.0</ele><time>2026-04-11T09:48:05Z</time></trkpt><trkpt lat="40.119055528671055" lon="9.208064046776977"><ele>653.0</ele><time>2026-04-11T09:48:06Z</time></trkpt><trkpt lat="40.11916185023083" lon="9.208174557363636"><ele>653.0</ele><time>2026-04-11T09:48:07Z</time></trkpt><trkpt lat="40.11927894244555" lon="9.208262488636171"><ele>653.0</ele><time>2026-04-11T09:48:08Z</time></trkpt><trkpt lat="40.11941283034232" lon="9.20831180364133"><ele>654.75</ele><time>2026-04-11T09:48:09Z</time></trkpt><trkpt lat="40.11955735287365" lon="9.20832710844705"><ele>656.5</ele><time>2026-04-11T09:48:10Z</time></trkpt><trkpt lat="40.11970481673015" lon="9.20834357508103"><ele>658.25</ele><time>2026-04-11T09:48:11Z</time></trkpt><trkpt lat="40.11985752765938" lon="9.208381312572032"><ele>660.0</ele><time>2026-04-11T09:48:12Z</time></trkpt><trkpt lat="40.12001251156128" lon="9.20843818944718"><ele>660.3333333333334</ele><time>2026-04-11T09:48:13Z</time></trkpt><trkpt lat="40.12016815996351" lon="9.208514974238197"><ele>660.6666666666667</ele><time>2026-04-11T09:48:14Z</time></trkpt><trkpt lat="40.12032421583247" lon="9.208609376715144"><ele>661.0</ele><time>2026-04-11T09:48:15Z</time></trkpt><trkpt lat="40.12048161727136" lon="9.2087066574009"><ele>661.0</ele><time>2026-04-11T09:48:16Z</time></trkpt><trkpt lat="40.120633505970545" lon="9.208724080183892"><ele>661.0</ele><time>2026-04-11T09:48:17Z</time></trkpt><trkpt lat="40.120798399260664" lon="9.208807085430136"><ele>661.0</ele><time>2026-04-11T09:48:18Z</time></trkpt><trkpt lat="40.1209669058044" lon="9.208896298086703"><ele>658.3333333333334</ele><time>2026-04-11T09:48:19Z</time></trkpt><trkpt lat="40.1211386313646" lon="9.208990821763088"><ele>655.6666666666666</ele><time>2026-04-11T09:48:20Z</time></trkpt><trkpt lat="40.12131321684704" lon="9.209084745691007"><ele>653.0</ele><time>2026-04-11T09:48:21Z</time></trkpt><trkpt lat="40.12149216962764" lon="9.209176496874276"><ele>655.3333333333333</ele><time>2026-04-11T09:48:22Z</time></trkpt><trkpt lat="40.12166724545733" lon="9.209259711453429"><ele>657.6666666666666</ele><time>2026-04-11T09:48:23Z</time></trkpt><trkpt lat="40.12183058727827" lon="9.209338310810324"><ele>660.0</ele><time>2026-04-11T09:48:24Z</time></trkpt><trkpt lat="40.12199397246561" lon="9.20943798871809"><ele>660.0</ele><time>2026-04-11T09:48:25Z</time></trkpt><trkpt lat="40.1221286130532" lon="9.209549328161867"><ele>660.0</ele><time>2026-04-11T09:48:26Z</time></trkpt><trkpt lat="40.12222934386658" lon="9.20970351806768"><ele>660.0</ele><time>2026-04-11T09:48:27Z</time></trkpt><trkpt lat="40.12229390405351" lon="9.209885252767757"><ele>666.6666666666666</ele><time>2026-04-11T09:48:28Z</time></trkpt><trkpt lat="40.12231670471631" lon="9.21009930220348"><ele>673.3333333333333</ele><time>2026-04-11T09:48:29Z</time></trkpt><trkpt lat="40.122325728727326" lon="9.210320362712924"><ele>680.0</ele><time>2026-04-11T09:48:30Z</time></trkpt><trkpt lat="40.122338250127754" lon="9.210529137611855"><ele>677.25</ele><time>2026-04-11T09:48:31Z</time></trkpt><trkpt lat="40.1223707155525" lon="9.210723712630216"><ele>674.5</ele><time>2026-04-11T09:48:32Z</time></trkpt><trkpt lat="40.1224358214892" lon="9.210891608015913"><ele>671.75</ele><time>2026-04-11T09:48:33Z</time></trkpt><trkpt lat="40.12252826101889" lon="9.211037547090099"><ele>669.0</ele><time>2026-04-11T09:48:34Z</time></trkpt><trkpt lat="40.12265155276298" lon="9.211135026510213"><ele>669.0</ele><time>2026-04-11T09:48:35Z</time></trkpt><trkpt lat="40.12279764548799" lon="9.211186537629981"><ele>669.0</ele><time>2026-04-11T09:48:36Z</time></trkpt><trkpt lat="40.1229521309162" lon="9.211185149736485"><ele>669.0</ele><time>2026-04-11T09:48:37Z</time></trkpt><trkpt lat="40.12310409542761" lon="9.211118551445772"><ele>667.3333333333334</ele><time>2026-04-11T09:48:38Z</time></trkpt><trkpt lat="40.123237849722734" lon="9.210974880522325"><ele>665.6666666666667</ele><time>2026-04-11T09:48:39Z</time></trkpt><trkpt lat="40.123372234028565" lon="9.21082218350835"><ele>664.0</ele><time>2026-04-11T09:48:40Z</time></trkpt><trkpt lat="40.123510180216066" lon="9.210671447510483"><ele>659.6666666666667</ele><time>2026-04-11T09:48:41Z</time></trkpt><trkpt lat="40.123655568137025" lon="9.210519605702984"><ele>655.3333333333334</ele><time>2026-04-11T09:48:42Z</time></trkpt><trkpt lat="40.12379951681546" lon="9.21036697850228"><ele>651.0</ele><time>2026-04-11T09:48:43Z</time></trkpt><trkpt lat="40.12394235192083" lon="9.210223181146327"><ele>652.6666666666666</ele><time>2026-04-11T09:48:44Z</time></trkpt><trkpt lat="40.12410110748414" lon="9.21011041010664"><ele>654.3333333333333</ele><time>2026-04-11T09:48:45Z</time></trkpt><trkpt lat="40.12428464697339" lon="9.210040060900678"><ele>656.0</ele><time>2026-04-11T09:48:46Z</time></trkpt><trkpt lat="40.124482574014415" lon="9.20999578797514"><ele>656.0</ele><time>2026-04-11T09:48:47Z</time></trkpt><trkpt lat="40.12468619797744" lon="9.209951453246209"><ele>656.0</ele><time>2026-04-11T09:48:48Z</time></trkpt><trkpt lat="40.12489083046352" lon="9.2099209486161"><ele>656.0</ele><time>2026-04-11T09:48:49Z</time></trkpt><trkpt lat="40.1250963743178" lon="9.209845004175468"><ele>652.3333333333333</ele><time>2026-04-11T09:48:50Z</time></trkpt><trkpt lat="40.12529910972091" lon="9.209728932826739"><ele>648.6666666666666</ele><time>2026-04-11T09:48:51Z</time></trkpt><trkpt lat="40.125490436081584" lon="9.209582604890592"><ele>645.0</ele><time>2026-04-11T09:48:52Z</time></trkpt><trkpt lat="40.12568722129567" lon="9.209451513100412"><ele>648.0</ele><time>2026-04-11T09:48:53Z</time></trkpt><trkpt lat="40.12588256426027" lon="9.209329130229529"><ele>651.0</ele><time>2026-04-11T09:48:54Z</time></trkpt><trkpt lat="40.12608928592413" lon="9.209256553754635"><ele>654.0</ele><time>2026-04-11T09:48:55Z</time></trkpt><trkpt lat="40.12629864963213" lon="9.209193579314602"><ele>654.0</ele><time>2026-04-11T09:48:56Z</time></trkpt><trkpt lat="40.12651006731707" lon="9.209130948285152"><ele>654.0</ele><time>2026-04-11T09:48:57Z</time></trkpt><trkpt lat="40.12671914848521" lon="9.209069009418668"><ele>654.0</ele><time>2026-04-11T09:48:58Z</time></trkpt><trkpt lat="40.126927187141526" lon="9.209007379390675"><ele>652.0</ele><time>2026-04-11T09:48:59Z</time></trkpt><trkpt lat="40.12712770607312" lon="9.208950739332236"><ele>650.0</ele><time>2026-04-11T09:49:00Z</time></trkpt><trkpt lat="40.1273199476459" lon="9.208903540352809"><ele>648.0</ele><time>2026-04-11T09:49:01Z</time></trkpt><trkpt lat="40.12751194112311" lon="9.208869489275301"><ele>648.0</ele><time>2026-04-11T09:49:02Z</time></trkpt><trkpt lat="40.12770509063392" lon="9.2089320687188"><ele>648.0</ele><time>2026-04-11T09:49:03Z</time></trkpt><trkpt lat="40.12790054361623" lon="9.209022624598058"><ele>648.0</ele><time>2026-04-11T09:49:04Z</time></trkpt><trkpt lat="40.12810499679426" lon="9.20913096006228"><ele>651.6666666666666</ele><time>2026-04-11T09:49:05Z</time></trkpt><trkpt lat="40.12830853925578" lon="9.209242144440207"><ele>655.3333333333333</ele><time>2026-04-11T09:49:06Z</time></trkpt><trkpt lat="40.128509461367344" lon="9.209353493595147"><ele>659.0</ele><time>2026-04-11T09:49:07Z</time></trkpt><trkpt lat="40.12870131462224" lon="9.209459561572597"><ele>659.0</ele><time>2026-04-11T09:49:08Z</time></trkpt><trkpt lat="40.12887755553726" lon="9.209560194943187"><ele>659.0</ele><time>2026-04-11T09:49:09Z</time></trkpt><trkpt lat="40.1290384717034" lon="9.209672584251763"><ele>659.0</ele><time>2026-04-11T09:49:10Z</time></trkpt><trkpt lat="40.12913796473557" lon="9.209858653320996"><ele>659.0</ele><time>2026-04-11T09:49:11Z</time></trkpt><trkpt lat="40.12919763758223" lon="9.210058340592903"><ele>659.0</ele><time>2026-04-11T09:49:12Z</time></trkpt><trkpt lat="40.129215396177635" lon="9.21029502596621"><ele>659.0</ele><time>2026-04-11T09:49:13Z</time></trkpt><trkpt lat="40.12922197767567" lon="9.21054159315521"><ele>661.3333333333333</ele><time>2026-04-11T09:49:14Z</time></trkpt><trkpt lat="40.12920133012421" lon="9.210785926333172"><ele>663.6666666666666</ele><time>2026-04-11T09:49:15Z</time></trkpt><trkpt lat="40.1292053698279" lon="9.211016614213674"><ele>666.0</ele><time>2026-04-11T09:49:16Z</time></trkpt><trkpt lat="40.129244084202824" lon="9.211240294977877"><ele>666.0</ele><time>2026-04-11T09:49:17Z</time></trkpt><trkpt lat="40.12933123170025" lon="9.211433584391221"><ele>666.0</ele><time>2026-04-11T09:49:18Z</time></trkpt><trkpt lat="40.12945599446474" lon="9.211610116005643"><ele>666.0</ele><time>2026-04-11T09:49:19Z</time></trkpt><trkpt lat="40.12957385569652" lon="9.21177895990657"><ele>668.3333333333334</ele><time>2026-04-11T09:49:20Z</time></trkpt><trkpt lat="40.12968754206624" lon="9.211927023783549"><ele>670.6666666666667</ele><time>2026-04-11T09:49:21Z</time></trkpt><trkpt lat="40.1298213560276" lon="9.212052352628799"><ele>673.0</ele><time>2026-04-11T09:49:22Z</time></trkpt><trkpt lat="40.129995709117225" lon="9.212067415327178"><ele>666.6666666666667</ele><time>2026-04-11T09:49:23Z</time></trkpt><trkpt lat="40.13017548597546" lon="9.212049501051956"><ele>660.3333333333334</ele><time>2026-04-11T09:49:24Z</time></trkpt><trkpt lat="40.130365921692245" lon="9.212016807078683"><ele>654.0</ele><time>2026-04-11T09:49:25Z</time></trkpt><trkpt lat="40.13055270357244" lon="9.21198161686175"><ele>653.6666666666666</ele><time>2026-04-11T09:49:26Z</time></trkpt><trkpt lat="40.13075007560524" lon="9.211984416618323"><ele>653.3333333333333</ele><time>2026-04-11T09:49:27Z</time></trkpt><trkpt lat="40.130940844035536" lon="9.21204208977408"><ele>653.0</ele><time>2026-04-11T09:49:28Z</time></trkpt><trkpt lat="40.131108501010594" lon="9.212148973841"><ele>653.0</ele><time>2026-04-11T09:49:29Z</time></trkpt><trkpt lat="40.13126122310561" lon="9.212301101129066"><ele>653.0</ele><time>2026-04-11T09:49:30Z</time></trkpt><trkpt lat="40.131396491105136" lon="9.212479233211559"><ele>653.0</ele><time>2026-04-11T09:49:31Z</time></trkpt><trkpt lat="40.1315256569619" lon="9.212647280561777"><ele>653.6666666666666</ele><time>2026-04-11T09:49:32Z</time></trkpt><trkpt lat="40.13164120629622" lon="9.212818754974535"><ele>654.3333333333334</ele><time>2026-04-11T09:49:33Z</time></trkpt><trkpt lat="40.13175929195244" lon="9.212968008811231"><ele>655.0</ele><time>2026-04-11T09:49:34Z</time></trkpt><trkpt lat="40.13185584141275" lon="9.213115210235282"><ele>657.0</ele><time>2026-04-11T09:49:35Z</time></trkpt><trkpt lat="40.131980347233814" lon="9.213205611711972"><ele>659.0</ele><time>2026-04-11T09:49:36Z</time></trkpt><trkpt lat="40.13212443941438" lon="9.213219820028689"><ele>661.0</ele><time>2026-04-11T09:49:37Z</time></trkpt><trkpt lat="40.13225506795369" lon="9.213239140407808"><ele>663.0</ele><time>2026-04-11T09:49:38Z</time></trkpt><trkpt lat="40.13237777757367" lon="9.213235451277269"><ele>657.25</ele><time>2026-04-11T09:49:39Z</time></trkpt><trkpt lat="40.132499026219335" lon="9.213249926009006"><ele>651.5</ele><time>2026-04-11T09:49:40Z</time></trkpt><trkpt lat="40.132620368046936" lon="9.213286713058341"><ele>645.75</ele><time>2026-04-11T09:49:41Z</time></trkpt><trkpt lat="40.13274711279423" lon="9.21330306041168"><ele>640.0</ele><time>2026-04-11T09:49:42Z</time></trkpt><trkpt lat="40.13287798566676" lon="9.213301082270808"><ele>640.0</ele><time>2026-04-11T09:49:43Z</time></trkpt><trkpt lat="40.13301250185375" lon="9.213320201781988"><ele>640.0</ele><time>2026-04-11T09:49:44Z</time></trkpt><trkpt lat="40.13315110227951" lon="9.213338082519353"><ele>640.0</ele><time>2026-04-11T09:49:45Z</time></trkpt><trkpt lat="40.1332929010151" lon="9.213350961535001"><ele>640.0</ele><time>2026-04-11T09:49:46Z</time></trkpt><trkpt lat="40.13343405291192" lon="9.213392045584866"><ele>639.75</ele><time>2026-04-11T09:49:47Z</time></trkpt><trkpt lat="40.13357057383973" lon="9.213393096605518"><ele>639.5</ele><time>2026-04-11T09:49:48Z</time></trkpt><trkpt lat="40.133702957373636" lon="9.213394942488431"><ele>639.25</ele><time>2026-04-11T09:49:49Z</time></trkpt><trkpt lat="40.133835560083384" lon="9.21336892977657"><ele>639.0</ele><time>2026-04-11T09:49:50Z</time></trkpt><trkpt lat="40.13394306514111" lon="9.213226456268156"><ele>638.6666666666666</ele><time>2026-04-11T09:49:51Z</time></trkpt><trkpt lat="40.13403552747754" lon="9.21306431290461"><ele>638.3333333333333</ele><time>2026-04-11T09:49:52Z</time></trkpt><trkpt lat="40.134102091604554" lon="9.212876632585267"><ele>638.0</ele><time>2026-04-11T09:49:53Z</time></trkpt><trkpt lat="40.13415553462234" lon="9.212673025793972"><ele>641.3333333333333</ele><time>2026-04-11T09:49:54Z</time></trkpt><trkpt lat="40.13421347802534" lon="9.212468861084252"><ele>644.6666666666666</ele><time>2026-04-11T09:49:55Z</time></trkpt><trkpt lat="40.134290911106625" lon="9.212273081155551"><ele>648.0</ele><time>2026-04-11T09:49:56Z</time></trkpt><trkpt lat="40.13439543212073" lon="9.212084919583742"><ele>648.0</ele><time>2026-04-11T09:49:57Z</time></trkpt><trkpt lat="40.13451421027941" lon="9.211901659642665"><ele>648.0</ele><time>2026-04-11T09:49:58Z</time></trkpt><trkpt lat="40.13463694581586" lon="9.211709266893996"><ele>648.0</ele><time>2026-04-11T09:49:59Z</time></trkpt><trkpt lat="40.1347575731708" lon="9.211519955160519"><ele>647.6666666666666</ele><time>2026-04-11T09:50:00Z</time></trkpt><trkpt lat="40.13486364591636" lon="9.211343091023464"><ele>647.3333333333333</ele><time>2026-04-11T09:50:01Z</time></trkpt><trkpt lat="40.1349321540304" lon="9.211150395052615"><ele>647.0</ele><time>2026-04-11T09:50:02Z</time></trkpt><trkpt lat="40.134950889405694" lon="9.210933695500666"><ele>647.3333333333333</ele><time>2026-04-11T09:50:03Z</time></trkpt><trkpt lat="40.134929233007014" lon="9.21071019518234"><ele>647.6666666666666</ele><time>2026-04-11T09:50:04Z</time></trkpt><trkpt lat="40.134851770298496" lon="9.210496170949979"><ele>648.0</ele><time>2026-04-11T09:50:05Z</time></trkpt><trkpt lat="40.13473838624849" lon="9.210290640029461"><ele>648.0</ele><time>2026-04-11T09:50:06Z</time></trkpt><trkpt lat="40.13463243337203" lon="9.210080340688437"><ele>648.0</ele><time>2026-04-11T09:50:07Z</time></trkpt><trkpt lat="40.13454511336957" lon="9.209854331840017"><ele>648.0</ele><time>2026-04-11T09:50:08Z</time></trkpt><trkpt lat="40.13447605770241" lon="9.20961781735729"><ele>649.6666666666666</ele><time>2026-04-11T09:50:09Z</time></trkpt><trkpt lat="40.134404721965055" lon="9.2093748192805"><ele>651.3333333333333</ele><time>2026-04-11T09:50:10Z</time></trkpt><trkpt lat="40.134329223728116" lon="9.209137669921423"><ele>653.0</ele><time>2026-04-11T09:50:11Z</time></trkpt><trkpt lat="40.13426724372919" lon="9.208903795564547"><ele>653.0</ele><time>2026-04-11T09:50:12Z</time></trkpt><trkpt lat="40.1342285476097" lon="9.208677002428802"><ele>653.0</ele><time>2026-04-11T09:50:13Z</time></trkpt><trkpt lat="40.13422260265599" lon="9.20846212725023"><ele>653.0</ele><time>2026-04-11T09:50:14Z</time></trkpt><trkpt lat="40.13426216293071" lon="9.208265194351563"><ele>648.6666666666666</ele><time>2026-04-11T09:50:15Z</time></trkpt><trkpt lat="40.13436835783528" lon="9.208129759518476"><ele>644.3333333333334</ele><time>2026-04-11T09:50:16Z</time></trkpt><trkpt lat="40.13449449449325" lon="9.208027071225676"><ele>640.0</ele><time>2026-04-11T09:50:17Z</time></trkpt><trkpt lat="40.13464498264204" lon="9.207930785217021"><ele>640.0</ele><time>2026-04-11T09:50:18Z</time></trkpt><trkpt lat="40.13480070294213" lon="9.207811789437459"><ele>640.0</ele><time>2026-04-11T09:50:19Z</time></trkpt><trkpt lat="40.13498169595436" lon="9.207719925553123"><ele>640.0</ele><time>2026-04-11T09:50:20Z</time></trkpt><trkpt lat="40.13516282251649" lon="9.207605355785075"><ele>640.3333333333334</ele><time>2026-04-11T09:50:21Z</time></trkpt><trkpt lat="40.13534629740919" lon="9.207488426619394"><ele>640.6666666666666</ele><time>2026-04-11T09:50:22Z</time></trkpt><trkpt lat="40.135528096393344" lon="9.207370200339945"><ele>641.0</ele><time>2026-04-11T09:50:23Z</time></trkpt><trkpt lat="40.135695487899554" lon="9.207223158979225"><ele>644.6666666666666</ele><time>2026-04-11T09:50:24Z</time></trkpt><trkpt lat="40.13583168150615" lon="9.207026614980848"><ele>648.3333333333334</ele><time>2026-04-11T09:50:25Z</time></trkpt><trkpt lat="40.13596096785146" lon="9.2068251237497"><ele>652.0</ele><time>2026-04-11T09:50:26Z</time></trkpt><trkpt lat="40.136086643710634" lon="9.20662797081514"><ele>649.0</ele><time>2026-04-11T09:50:27Z</time></trkpt><trkpt lat="40.13620822064135" lon="9.206439854148142"><ele>646.0</ele><time>2026-04-11T09:50:28Z</time></trkpt><trkpt lat="40.13629874910579" lon="9.2062421965141"><ele>643.0</ele><time>2026-04-11T09:50:29Z</time></trkpt><trkpt lat="40.13633873575403" lon="9.206026152552054"><ele>643.0</ele><time>2026-04-11T09:50:30Z</time></trkpt><trkpt lat="40.13633652317921" lon="9.205829791616042"><ele>643.0</ele><time>2026-04-11T09:50:31Z</time></trkpt><trkpt lat="40.136361870916524" lon="9.20565618901386"><ele>643.0</ele><time>2026-04-11T09:50:32Z</time></trkpt><trkpt lat="40.13636974689717" lon="9.20548883927242"><ele>643.0</ele><time>2026-04-11T09:50:33Z</time></trkpt><trkpt lat="40.13640262228966" lon="9.2053524287597"><ele>642.25</ele><time>2026-04-11T09:50:34Z</time></trkpt><trkpt lat="40.136443258448594" lon="9.205202404791583"><ele>641.5</ele><time>2026-04-11T09:50:35Z</time></trkpt><trkpt lat="40.13650519999827" lon="9.205043939685874"><ele>640.75</ele><time>2026-04-11T09:50:36Z</time></trkpt><trkpt lat="40.13661312131218" lon="9.204915722911439"><ele>640.0</ele><time>2026-04-11T09:50:37Z</time></trkpt><trkpt lat="40.136701951728135" lon="9.204837079994721"><ele>640.75</ele><time>2026-04-11T09:50:38Z</time></trkpt><trkpt lat="40.136784414805874" lon="9.204771218694848"><ele>641.5</ele><time>2026-04-11T09:50:39Z</time></trkpt><trkpt lat="40.1368900429029" lon="9.204688328195347"><ele>642.25</ele><time>2026-04-11T09:50:40Z</time></trkpt><trkpt lat="40.13701170332953" lon="9.204595625394896"><ele>643.0</ele><time>2026-04-11T09:50:41Z</time></trkpt><trkpt lat="40.137144826965866" lon="9.204480975294137"><ele>643.0</ele><time>2026-04-11T09:50:42Z</time></trkpt><trkpt lat="40.137298904594424" lon="9.2043843230366"><ele>643.0</ele><time>2026-04-11T09:50:43Z</time></trkpt><trkpt lat="40.13747750147429" lon="9.204307315810667"><ele>643.0</ele><time>2026-04-11T09:50:44Z</time></trkpt><trkpt lat="40.137649801296284" lon="9.204214158088194"><ele>642.0</ele><time>2026-04-11T09:50:45Z</time></trkpt><trkpt lat="40.1378177783078" lon="9.204102755570323"><ele>641.0</ele><time>2026-04-11T09:50:46Z</time></trkpt><trkpt lat="40.13799745258214" lon="9.20400831447783"><ele>640.0</ele><time>2026-04-11T09:50:47Z</time></trkpt><trkpt lat="40.13817681074361" lon="9.203906279907091"><ele>642.6666666666667</ele><time>2026-04-11T09:50:48Z</time></trkpt><trkpt lat="40.13836730262666" lon="9.203822092870368"><ele>645.3333333333334</ele><time>2026-04-11T09:50:49Z</time></trkpt><trkpt lat="40.138549811621054" lon="9.203708625348934"><ele>648.0</ele><time>2026-04-11T09:50:50Z</time></trkpt><trkpt lat="40.13873172144867" lon="9.203584003503146"><ele>648.0</ele><time>2026-04-11T09:50:51Z</time></trkpt><trkpt lat="40.13891238849399" lon="9.20345514644147"><ele>648.0</ele><time>2026-04-11T09:50:52Z</time></trkpt><trkpt lat="40.13909522778339" lon="9.203324740065176"><ele>648.0</ele><time>2026-04-11T09:50:53Z</time></trkpt><trkpt lat="40.13927318771195" lon="9.203198077357904"><ele>649.0</ele><time>2026-04-11T09:50:54Z</time></trkpt><trkpt lat="40.13944328761433" lon="9.203083454618989"><ele>650.0</ele><time>2026-04-11T09:50:55Z</time></trkpt><trkpt lat="40.13960471806739" lon="9.202968937029485"><ele>651.0</ele><time>2026-04-11T09:50:56Z</time></trkpt><trkpt lat="40.139783225553856" lon="9.20291676239289"><ele>651.0</ele><time>2026-04-11T09:50:57Z</time></trkpt><trkpt lat="40.13998008231111" lon="9.202918931097832"><ele>651.0</ele><time>2026-04-11T09:50:58Z</time></trkpt><trkpt lat="40.14018779362969" lon="9.202915128942825"><ele>651.0</ele><time>2026-04-11T09:50:59Z</time></trkpt><trkpt lat="40.14040563560277" lon="9.20291110136033"><ele>651.0</ele><time>2026-04-11T09:51:00Z</time></trkpt><trkpt lat="40.140626081535096" lon="9.202907686069658"><ele>651.0</ele><time>2026-04-11T09:51:01Z</time></trkpt><trkpt lat="40.14084562167335" lon="9.202905570643658"><ele>651.0</ele><time>2026-04-11T09:51:02Z</time></trkpt><trkpt lat="40.141067482306134" lon="9.202902815072765"><ele>649.6666666666666</ele><time>2026-04-11T09:51:03Z</time></trkpt><trkpt lat="40.14128774507303" lon="9.20290007764923"><ele>648.3333333333333</ele><time>2026-04-11T09:51:04Z</time></trkpt><trkpt lat="40.14150579005473" lon="9.202899344440329"><ele>647.0</ele><time>2026-04-11T09:51:05Z</time></trkpt><trkpt lat="40.14171752963833" lon="9.202898199016351"><ele>647.0</ele><time>2026-04-11T09:51:06Z</time></trkpt><trkpt lat="40.14191401496297" lon="9.202895333013672"><ele>647.0</ele><time>2026-04-11T09:51:07Z</time></trkpt><trkpt lat="40.14209829331312" lon="9.202903076075675"><ele>647.0</ele><time>2026-04-11T09:51:08Z</time></trkpt><trkpt lat="40.14226867966126" lon="9.202930565842136"><ele>648.0</ele><time>2026-04-11T09:51:09Z</time></trkpt><trkpt lat="40.14242302998398" lon="9.202963169192337"><ele>649.0</ele><time>2026-04-11T09:51:10Z</time></trkpt><trkpt lat="40.14257078513347" lon="9.20293896118632"><ele>650.0</ele><time>2026-04-11T09:51:11Z</time></trkpt><trkpt lat="40.142696572197565" lon="9.20281698663373"><ele>650.0</ele><time>2026-04-11T09:51:12Z</time></trkpt><trkpt lat="40.142821836150155" lon="9.202680913119249"><ele>650.0</ele><time>2026-04-11T09:51:13Z</time></trkpt><trkpt lat="40.142943485411095" lon="9.202527439033588"><ele>650.0</ele><time>2026-04-11T09:51:14Z</time></trkpt><trkpt lat="40.143082555967425" lon="9.202387329167633"><ele>650.3333333333333</ele><time>2026-04-11T09:51:15Z</time></trkpt><trkpt lat="40.14321128073544" lon="9.202240187625133"><ele>650.6666666666666</ele><time>2026-04-11T09:51:16Z</time></trkpt><trkpt lat="40.14331051123496" lon="9.202087822093636"><ele>651.0</ele><time>2026-04-11T09:51:17Z</time></trkpt><trkpt lat="40.143369239276446" lon="9.201911036287754"><ele>651.0</ele><time>2026-04-11T09:51:18Z</time></trkpt><trkpt lat="40.143405693970095" lon="9.201703199093103"><ele>651.0</ele><time>2026-04-11T09:51:19Z</time></trkpt><trkpt lat="40.1434413278367" lon="9.201500719159663"><ele>651.0</ele><time>2026-04-11T09:51:20Z</time></trkpt><trkpt lat="40.1434902531321" lon="9.201319949474316"><ele>650.75</ele><time>2026-04-11T09:51:21Z</time></trkpt><trkpt lat="40.14356178046179" lon="9.20119484566354"><ele>650.5</ele><time>2026-04-11T09:51:22Z</time></trkpt><trkpt lat="40.14368349120434" lon="9.201125240255339"><ele>650.25</ele><time>2026-04-11T09:51:23Z</time></trkpt><trkpt lat="40.14380984900627" lon="9.201059749897967"><ele>650.0</ele><time>2026-04-11T09:51:24Z</time></trkpt><trkpt lat="40.14394549518968" lon="9.20102399411373"><ele>650.6666666666666</ele><time>2026-04-11T09:51:25Z</time></trkpt><trkpt lat="40.144087386162795" lon="9.201032723121573"><ele>651.3333333333334</ele><time>2026-04-11T09:51:26Z</time></trkpt><trkpt lat="40.14423398064675" lon="9.201080161241789"><ele>652.0</ele><time>2026-04-11T09:51:27Z</time></trkpt><trkpt lat="40.144385990415635" lon="9.201135240548872"><ele>652.0</ele><time>2026-04-11T09:51:28Z</time></trkpt><trkpt lat="40.144535280787416" lon="9.201187831622521"><ele>652.0</ele><time>2026-04-11T09:51:29Z</time></trkpt><trkpt lat="40.144674673538766" lon="9.201235493418048"><ele>652.0</ele><time>2026-04-11T09:51:30Z</time></trkpt><trkpt lat="40.14480311427856" lon="9.201279410876746"><ele>652.0</ele><time>2026-04-11T09:51:31Z</time></trkpt><trkpt lat="40.144915333654815" lon="9.201316996077663"><ele>651.0</ele><time>2026-04-11T09:51:32Z</time></trkpt><trkpt lat="40.14501212574893" lon="9.201326685363934"><ele>650.0</ele><time>2026-04-11T09:51:33Z</time></trkpt><trkpt lat="40.14511826211902" lon="9.201205228790858"><ele>649.0</ele><time>2026-04-11T09:51:34Z</time></trkpt><trkpt lat="40.14515501042965" lon="9.201041420314906"><ele>648.0</ele><time>2026-04-11T09:51:35Z</time></trkpt><trkpt lat="40.14519108382127" lon="9.200885057578922"><ele>648.0</ele><time>2026-04-11T09:51:36Z</time></trkpt><trkpt lat="40.14522704500678" lon="9.20071710161019"><ele>648.0</ele><time>2026-04-11T09:51:37Z</time></trkpt><trkpt lat="40.14526935842024" lon="9.20054273058396"><ele>648.0</ele><time>2026-04-11T09:51:38Z</time></trkpt><trkpt lat="40.145313214859044" lon="9.200361472844067"><ele>648.0</ele><time>2026-04-11T09:51:39Z</time></trkpt><trkpt lat="40.14536000474523" lon="9.200173974543521"><ele>647.75</ele><time>2026-04-11T09:51:40Z</time></trkpt><trkpt lat="40.14540868474266" lon="9.199985907450841"><ele>647.5</ele><time>2026-04-11T09:51:41Z</time></trkpt><trkpt lat="40.14547581138007" lon="9.1998238901447"><ele>647.25</ele><time>2026-04-11T09:51:42Z</time></trkpt><trkpt lat="40.14558596422253" lon="9.199728858768387"><ele>647.0</ele><time>2026-04-11T09:51:43Z</time></trkpt><trkpt lat="40.14571332847671" lon="9.19966502946176"><ele>651.6666666666666</ele><time>2026-04-11T09:51:44Z</time></trkpt><trkpt lat="40.14585376060516" lon="9.199606831966548"><ele>656.3333333333334</ele><time>2026-04-11T09:51:45Z</time></trkpt><trkpt lat="40.14599870015006" lon="9.19953907582583"><ele>661.0</ele><time>2026-04-11T09:51:46Z</time></trkpt><trkpt lat="40.1461502202473" lon="9.199481312464508"><ele>661.0</ele><time>2026-04-11T09:51:47Z</time></trkpt><trkpt lat="40.14630482025853" lon="9.199456893106884"><ele>661.0</ele><time>2026-04-11T09:51:48Z</time></trkpt><trkpt lat="40.146462815076454" lon="9.199470631885855"><ele>661.0</ele><time>2026-04-11T09:51:49Z</time></trkpt><trkpt lat="40.146621134939394" lon="9.19950742772342"><ele>662.0</ele><time>2026-04-11T09:51:50Z</time></trkpt><trkpt lat="40.14678070318226" lon="9.199529563323333"><ele>663.0</ele><time>2026-04-11T09:51:51Z</time></trkpt><trkpt lat="40.146944762315336" lon="9.199476710755514"><ele>664.0</ele><time>2026-04-11T09:51:52Z</time></trkpt><trkpt lat="40.147105781873734" lon="9.199421082990153"><ele>664.0</ele><time>2026-04-11T09:51:53Z</time></trkpt><trkpt lat="40.147251125572424" lon="9.199368079234867"><ele>664.0</ele><time>2026-04-11T09:51:54Z</time></trkpt><trkpt lat="40.147369291015245" lon="9.199313986965402"><ele>664.0</ele><time>2026-04-11T09:51:55Z</time></trkpt><trkpt lat="40.14740512211317" lon="9.199162626482849"><ele>664.0</ele><time>2026-04-11T09:51:56Z</time></trkpt><trkpt lat="40.147402877211896" lon="9.199022144922232"><ele>668.0</ele><time>2026-04-11T09:51:57Z</time></trkpt><trkpt lat="40.14735329004061" lon="9.198870940853501"><ele>672.0</ele><time>2026-04-11T09:51:58Z</time></trkpt><trkpt lat="40.14728652473168" lon="9.198712444782393"><ele>676.0</ele><time>2026-04-11T09:51:59Z</time></trkpt><trkpt lat="40.147249279022134" lon="9.198548614100908"><ele>680.0</ele><time>2026-04-11T09:52:00Z</time></trkpt><trkpt lat="40.147267387226" lon="9.198393677248438"><ele>680.0</ele><time>2026-04-11T09:52:01Z</time></trkpt><trkpt lat="40.147361896478394" lon="9.198294799555523"><ele>680.0</ele><time>2026-04-11T09:52:02Z</time></trkpt><trkpt lat="40.14744277526604" lon="9.198174125641778"><ele>680.0</ele><time>2026-04-11T09:52:03Z</time></trkpt><trkpt lat="40.147486828422565" lon="9.19802979290523"><ele>680.0</ele><time>2026-04-11T09:52:04Z</time></trkpt><trkpt lat="40.14745315046983" lon="9.197862607691293"><ele>681.6</ele><time>2026-04-11T09:52:05Z</time></trkpt><trkpt lat="40.14743480802452" lon="9.197713025503063"><ele>683.2</ele><time>2026-04-11T09:52:06Z</time></trkpt><trkpt lat="40.147479753150705" lon="9.197607170320216"><ele>684.8</ele><time>2026-04-11T09:52:07Z</time></trkpt><trkpt lat="40.14757543977112" lon="9.197603183452921"><ele>686.4</ele><time>2026-04-11T09:52:08Z</time></trkpt><trkpt lat="40.147685446316416" lon="9.197617904487817"><ele>688.0</ele><time>2026-04-11T09:52:09Z</time></trkpt><trkpt lat="40.14784072045711" lon="9.197613762536198"><ele>688.0</ele><time>2026-04-11T09:52:10Z</time></trkpt><trkpt lat="40.14796811415941" lon="9.197522739094344"><ele>688.0</ele><time>2026-04-11T09:52:11Z</time></trkpt><trkpt lat="40.148083321817744" lon="9.197439534912577"><ele>688.0</ele><time>2026-04-11T09:52:12Z</time></trkpt><trkpt lat="40.14821892524981" lon="9.197446459454879"><ele>688.0</ele><time>2026-04-11T09:52:13Z</time></trkpt><trkpt lat="40.14836270710803" lon="9.197498399608234"><ele>686.6666666666667</ele><time>2026-04-11T09:52:14Z</time></trkpt><trkpt lat="40.148515475568736" lon="9.197522489402207"><ele>685.3333333333334</ele><time>2026-04-11T09:52:15Z</time></trkpt><trkpt lat="40.148675713568956" lon="9.197510374130335"><ele>684.0</ele><time>2026-04-11T09:52:16Z</time></trkpt><trkpt lat="40.14884952076323" lon="9.197477887316886"><ele>684.0</ele><time>2026-04-11T09:52:17Z</time></trkpt><trkpt lat="40.14902408655913" lon="9.197394546034499"><ele>684.0</ele><time>2026-04-11T09:52:18Z</time></trkpt><trkpt lat="40.14919989676041" lon="9.197315712066285"><ele>684.0</ele><time>2026-04-11T09:52:19Z</time></trkpt><trkpt lat="40.14934785935932" lon="9.197225645618124"><ele>687.5</ele><time>2026-04-11T09:52:20Z</time></trkpt><trkpt lat="40.1494317169237" lon="9.19712452655797"><ele>691.0</ele><time>2026-04-11T09:52:21Z</time></trkpt><trkpt lat="40.149464032389275" lon="9.196985124856749"><ele>694.5</ele><time>2026-04-11T09:52:22Z</time></trkpt><trkpt lat="40.14945197773978" lon="9.196808729450195"><ele>698.0</ele><time>2026-04-11T09:52:23Z</time></trkpt><trkpt lat="40.14942374562772" lon="9.196613956420089"><ele>700.0</ele><time>2026-04-11T09:52:24Z</time></trkpt><trkpt lat="40.14941206298851" lon="9.196414280674553"><ele>702.0</ele><time>2026-04-11T09:52:25Z</time></trkpt><trkpt lat="40.14942460473339" lon="9.196233423279816"><ele>704.0</ele><time>2026-04-11T09:52:26Z</time></trkpt><trkpt lat="40.14948961323182" lon="9.196062160023512"><ele>706.0</ele><time>2026-04-11T09:52:27Z</time></trkpt><trkpt lat="40.14959190746577" lon="9.195920845426695"><ele>706.0</ele><time>2026-04-11T09:52:28Z</time></trkpt><trkpt lat="40.14973070384693" lon="9.195843193904915"><ele>706.0</ele><time>2026-04-11T09:52:29Z</time></trkpt><trkpt lat="40.14987886670077" lon="9.195800934192093"><ele>706.0</ele><time>2026-04-11T09:52:30Z</time></trkpt><trkpt lat="40.15002415040697" lon="9.195806866421686"><ele>706.0</ele><time>2026-04-11T09:52:31Z</time></trkpt><trkpt lat="40.15013480498944" lon="9.195883729495769"><ele>703.75</ele><time>2026-04-11T09:52:32Z</time></trkpt><trkpt lat="40.15025723750882" lon="9.195965589141574"><ele>701.5</ele><time>2026-04-11T09:52:33Z</time></trkpt><trkpt lat="40.150401719055914" lon="9.19599835116074"><ele>699.25</ele><time>2026-04-11T09:52:34Z</time></trkpt><trkpt lat="40.1505444214917" lon="9.195996997052097"><ele>697.0</ele><time>2026-04-11T09:52:35Z</time></trkpt><trkpt lat="40.15067631830938" lon="9.19591300765161"><ele>698.0</ele><time>2026-04-11T09:52:36Z</time></trkpt><trkpt lat="40.150798451563006" lon="9.195775387316827"><ele>699.0</ele><time>2026-04-11T09:52:37Z</time></trkpt><trkpt lat="40.15094503757384" lon="9.195743655887101"><ele>700.0</ele><time>2026-04-11T09:52:38Z</time></trkpt><trkpt lat="40.1510875030385" lon="9.195719677115482"><ele>704.5</ele><time>2026-04-11T09:52:39Z</time></trkpt><trkpt lat="40.15121551437328" lon="9.195637409904343"><ele>709.0</ele><time>2026-04-11T09:52:40Z</time></trkpt><trkpt lat="40.15129891679075" lon="9.19548006304358"><ele>713.5</ele><time>2026-04-11T09:52:41Z</time></trkpt><trkpt lat="40.15140283606574" lon="9.195407624544186"><ele>718.0</ele><time>2026-04-11T09:52:42Z</time></trkpt><trkpt lat="40.15151945876179" lon="9.195402158822406"><ele>717.75</ele><time>2026-04-11T09:52:43Z</time></trkpt><trkpt lat="40.1516289124649" lon="9.195471768397052"><ele>717.5</ele><time>2026-04-11T09:52:44Z</time></trkpt><trkpt lat="40.15168930838397" lon="9.19559930444673"><ele>717.25</ele><time>2026-04-11T09:52:45Z</time></trkpt><trkpt lat="40.15170306524141" lon="9.195741163602554"><ele>717.0</ele><time>2026-04-11T09:52:46Z</time></trkpt><trkpt lat="40.151730972919346" lon="9.195920154833997"><ele>714.75</ele><time>2026-04-11T09:52:47Z</time></trkpt><trkpt lat="40.15175485069811" lon="9.196103895325173"><ele>712.5</ele><time>2026-04-11T09:52:48Z</time></trkpt><trkpt lat="40.151778773800444" lon="9.196289420529185"><ele>710.25</ele><time>2026-04-11T09:52:49Z</time></trkpt><trkpt lat="40.151817075158746" lon="9.196454437580377"><ele>708.0</ele><time>2026-04-11T09:52:50Z</time></trkpt><trkpt lat="40.151842931024085" lon="9.196607811964126"><ele>706.75</ele><time>2026-04-11T09:52:51Z</time></trkpt><trkpt lat="40.151922344969535" lon="9.196745951718606"><ele>705.5</ele><time>2026-04-11T09:52:52Z</time></trkpt><trkpt lat="40.15205649449875" lon="9.196825994153235"><ele>704.25</ele><time>2026-04-11T09:52:53Z</time></trkpt><trkpt lat="40.1521876310871" lon="9.19689691038635"><ele>703.0</ele><time>2026-04-11T09:52:54Z</time></trkpt><trkpt lat="40.15233340704459" lon="9.19694120787104"><ele>707.0</ele><time>2026-04-11T09:52:55Z</time></trkpt><trkpt lat="40.15247877600251" lon="9.196906467551797"><ele>711.0</ele><time>2026-04-11T09:52:56Z</time></trkpt><trkpt lat="40.152620206225414" lon="9.196851159525295"><ele>715.0</ele><time>2026-04-11T09:52:57Z</time></trkpt><trkpt lat="40.152759423286966" lon="9.196775131728023"><ele>719.0</ele><time>2026-04-11T09:52:58Z</time></trkpt><trkpt lat="40.15288463900921" lon="9.196677473035711"><ele>719.0</ele><time>2026-04-11T09:52:59Z</time></trkpt><trkpt lat="40.152980399203926" lon="9.196542931390516"><ele>719.0</ele><time>2026-04-11T09:53:00Z</time></trkpt><trkpt lat="40.15306433458222" lon="9.19641424593447"><ele>719.0</ele><time>2026-04-11T09:53:01Z</time></trkpt><trkpt lat="40.15315866162751" lon="9.196301652569014"><ele>719.0</ele><time>2026-04-11T09:53:02Z</time></trkpt><trkpt lat="40.15327797025504" lon="9.196230343034589"><ele>723.5</ele><time>2026-04-11T09:53:03Z</time></trkpt><trkpt lat="40.15340078117193" lon="9.196168551491038"><ele>728.0</ele><time>2026-04-11T09:53:04Z</time></trkpt><trkpt lat="40.1535245823777" lon="9.196085491803608"><ele>732.5</ele><time>2026-04-11T09:53:05Z</time></trkpt><trkpt lat="40.15362990887421" lon="9.195974061596903"><ele>737.0</ele><time>2026-04-11T09:53:06Z</time></trkpt><trkpt lat="40.15373766857448" lon="9.195872326833399"><ele>737.0</ele><time>2026-04-11T09:53:07Z</time></trkpt><trkpt lat="40.15384860398501" lon="9.195769134452444"><ele>737.0</ele><time>2026-04-11T09:53:08Z</time></trkpt><trkpt lat="40.15396815997506" lon="9.195706338657976"><ele>737.0</ele><time>2026-04-11T09:53:09Z</time></trkpt><trkpt lat="40.1540837593331" lon="9.195650546544803"><ele>737.0</ele><time>2026-04-11T09:53:10Z</time></trkpt><trkpt lat="40.154192847993585" lon="9.195595930053747"><ele>737.8</ele><time>2026-04-11T09:53:11Z</time></trkpt><trkpt lat="40.15428289763647" lon="9.195541502887279"><ele>738.6</ele><time>2026-04-11T09:53:12Z</time></trkpt><trkpt lat="40.15435466179359" lon="9.195473350842782"><ele>739.4</ele><time>2026-04-11T09:53:13Z</time></trkpt><trkpt lat="40.154393321531884" lon="9.195396402062427"><ele>740.1999999999999</ele><time>2026-04-11T09:53:14Z</time></trkpt><trkpt lat="40.15443072455439" lon="9.195222797369464"><ele>741.0</ele><time>2026-04-11T09:53:16Z</time></trkpt><trkpt lat="40.154452887444336" lon="9.195101902692665"><ele>741.0</ele><time>2026-04-11T09:53:17Z</time></trkpt><trkpt lat="40.154491342707225" lon="9.19497184333287"><ele>741.0</ele><time>2026-04-11T09:53:18Z</time></trkpt><trkpt lat="40.15454859600017" lon="9.194838777747156"><ele>741.0</ele><time>2026-04-11T09:53:19Z</time></trkpt><trkpt lat="40.15461979353748" lon="9.194708049783117"><ele>741.0</ele><time>2026-04-11T09:53:20Z</time></trkpt><trkpt lat="40.15471954612183" lon="9.194615875596275"><ele>743.25</ele><time>2026-04-11T09:53:21Z</time></trkpt><trkpt lat="40.15481371094575" lon="9.194528812443169"><ele>745.5</ele><time>2026-04-11T09:53:22Z</time></trkpt><trkpt lat="40.15492198779463" lon="9.194491260347839"><ele>747.75</ele><time>2026-04-11T09:53:23Z</time></trkpt><trkpt lat="40.15503253733551" lon="9.194465872844475"><ele>750.0</ele><time>2026-04-11T09:53:24Z</time></trkpt><trkpt lat="40.155150876882594" lon="9.194471665356659"><ele>750.0</ele><time>2026-04-11T09:53:25Z</time></trkpt><trkpt lat="40.15526797471392" lon="9.194454642650735"><ele>750.0</ele><time>2026-04-11T09:53:26Z</time></trkpt><trkpt lat="40.155385190204505" lon="9.19443760277119"><ele>750.0</ele><time>2026-04-11T09:53:27Z</time></trkpt><trkpt lat="40.15550495253782" lon="9.194422643001108"><ele>750.0</ele><time>2026-04-11T09:53:28Z</time></trkpt><trkpt lat="40.155619906642464" lon="9.194406516292645"><ele>749.6</ele><time>2026-04-11T09:53:29Z</time></trkpt><trkpt lat="40.15572950386003" lon="9.194389232827987"><ele>749.2</ele><time>2026-04-11T09:53:30Z</time></trkpt><trkpt lat="40.15583190237093" lon="9.194376212086889"><ele>748.8</ele><time>2026-04-11T09:53:31Z</time></trkpt><trkpt lat="40.155936258559095" lon="9.194372033301278"><ele>748.4</ele><time>2026-04-11T09:53:32Z</time></trkpt><trkpt lat="40.15604117625135" lon="9.194371207175053"><ele>748.0</ele><time>2026-04-11T09:53:33Z</time></trkpt><trkpt lat="40.15615270482092" lon="9.194367312131835"><ele>748.0</ele><time>2026-04-11T09:53:34Z</time></trkpt><trkpt lat="40.156259608085726" lon="9.19432847762537"><ele>748.0</ele><time>2026-04-11T09:53:35Z</time></trkpt><trkpt lat="40.15634858232432" lon="9.194253243647404"><ele>748.0</ele><time>2026-04-11T09:53:36Z</time></trkpt><trkpt lat="40.15644169855853" lon="9.19417269589708"><ele>748.0</ele><time>2026-04-11T09:53:37Z</time></trkpt><trkpt lat="40.1565324686973" lon="9.194090068640358"><ele>748.0</ele><time>2026-04-11T09:53:38Z</time></trkpt><trkpt lat="40.156624222111105" lon="9.194004903423306"><ele>752.8</ele><time>2026-04-11T09:53:39Z</time></trkpt><trkpt lat="40.15671769728951" lon="9.19392564354669"><ele>757.5999999999999</ele><time>2026-04-11T09:53:40Z</time></trkpt><trkpt lat="40.156805739367655" lon="9.193852692921453"><ele>762.4000000000001</ele><time>2026-04-11T09:53:41Z</time></trkpt><trkpt lat="40.15689559792439" lon="9.193776112634975"><ele>767.2</ele><time>2026-04-11T09:53:42Z</time></trkpt><trkpt lat="40.15698961869907" lon="9.19371723831724"><ele>772.0</ele><time>2026-04-11T09:53:43Z</time></trkpt><trkpt lat="40.15708613742881" lon="9.193679072903837"><ele>772.0</ele><time>2026-04-11T09:53:44Z</time></trkpt><trkpt lat="40.15718974829209" lon="9.19368584853426"><ele>772.0</ele><time>2026-04-11T09:53:45Z</time></trkpt><trkpt lat="40.15729250194155" lon="9.193673529249311"><ele>772.0</ele><time>2026-04-11T09:53:46Z</time></trkpt><trkpt lat="40.15739183243862" lon="9.193666190269676"><ele>772.0</ele><time>2026-04-11T09:53:47Z</time></trkpt><trkpt lat="40.15749723368886" lon="9.19365590452464"><ele>772.0</ele><time>2026-04-11T09:53:48Z</time></trkpt><trkpt lat="40.15760506948685" lon="9.193644211242262"><ele>770.6666666666666</ele><time>2026-04-11T09:53:49Z</time></trkpt><trkpt lat="40.157705013082655" lon="9.193631047741674"><ele>769.3333333333333</ele><time>2026-04-11T09:53:50Z</time></trkpt><trkpt lat="40.15778870001128" lon="9.193568401975783"><ele>768.0</ele><time>2026-04-11T09:53:51Z</time></trkpt><trkpt lat="40.15785377307926" lon="9.193540954670425"><ele>766.6666666666666</ele><time>2026-04-11T09:53:52Z</time></trkpt><trkpt lat="40.157922903199456" lon="9.193485982910323"><ele>765.3333333333333</ele><time>2026-04-11T09:53:54Z</time></trkpt><trkpt lat="40.15797185292975" lon="9.19343283117037"><ele>764.0</ele><time>2026-04-11T09:53:56Z</time></trkpt><trkpt lat="40.15804973531827" lon="9.193387204061029"><ele>764.0</ele><time>2026-04-11T09:53:58Z</time></trkpt><trkpt lat="40.15811376351115" lon="9.193354493243952"><ele>764.0</ele><time>2026-04-11T09:54:00Z</time></trkpt><trkpt lat="40.15820767783323" lon="9.193333624275937"><ele>764.0</ele><time>2026-04-11T09:54:03Z</time></trkpt><trkpt lat="40.15829130881707" lon="9.193330415393543"><ele>764.0</ele><time>2026-04-11T09:54:05Z</time></trkpt><trkpt lat="40.15837776773631" lon="9.19340379695419"><ele>764.0</ele><time>2026-04-11T09:54:07Z</time></trkpt><trkpt lat="40.158448912062596" lon="9.193526548277639"><ele>764.75</ele><time>2026-04-11T09:54:09Z</time></trkpt><trkpt lat="40.158507856790315" lon="9.193662979666112"><ele>765.5</ele><time>2026-04-11T09:54:11Z</time></trkpt><trkpt lat="40.158573922880855" lon="9.193802519113309"><ele>766.25</ele><time>2026-04-11T09:54:13Z</time></trkpt><trkpt lat="40.158623778434134" lon="9.193953144935984"><ele>767.0</ele><time>2026-04-11T09:54:15Z</time></trkpt><trkpt lat="40.158651466505766" lon="9.194105388804061"><ele>765.2</ele><time>2026-04-11T09:54:17Z</time></trkpt><trkpt lat="40.158664057552535" lon="9.194186422952495"><ele>763.4000000000001</ele><time>2026-04-11T09:54:18Z</time></trkpt><trkpt lat="40.158665658020375" lon="9.194335523673919"><ele>761.5999999999999</ele><time>2026-04-11T09:54:20Z</time></trkpt><trkpt lat="40.15866401458969" lon="9.194487434276228"><ele>759.8</ele><time>2026-04-11T09:54:22Z</time></trkpt><trkpt lat="40.15866571304201" lon="9.19460113724576"><ele>758.0</ele><time>2026-04-11T09:54:24Z</time></trkpt><trkpt lat="40.158666823584994" lon="9.194705472340727"><ele>758.0</ele><time>2026-04-11T09:54:26Z</time></trkpt><trkpt lat="40.15868103718887" lon="9.194836067694226"><ele>758.0</ele><time>2026-04-11T09:54:28Z</time></trkpt><trkpt lat="40.158675492368445" lon="9.19497902940438"><ele>758.0</ele><time>2026-04-11T09:54:30Z</time></trkpt><trkpt lat="40.15868079789934" lon="9.19507561024563"><ele>758.0</ele><time>2026-04-11T09:54:32Z</time></trkpt><trkpt lat="40.15868558663406" lon="9.195164581897947"><ele>758.0</ele><time>2026-04-11T09:54:34Z</time></trkpt><trkpt lat="40.15869471142695" lon="9.195250096646982"><ele>758.0</ele><time>2026-04-11T09:54:36Z</time></trkpt><trkpt lat="40.15873161379379" lon="9.19534119494324"><ele>758.2</ele><time>2026-04-11T09:54:38Z</time></trkpt><trkpt lat="40.1588252419166" lon="9.195378037987657"><ele>758.4</ele><time>2026-04-11T09:54:40Z</time></trkpt><trkpt lat="40.15891551988606" lon="9.195375099476205"><ele>758.6</ele><time>2026-04-11T09:54:42Z</time></trkpt><trkpt lat="40.15899746284011" lon="9.19537063624551"><ele>758.8000000000001</ele><time>2026-04-11T09:54:44Z</time></trkpt><trkpt lat="40.15909740885522" lon="9.195363365100516"><ele>759.0</ele><time>2026-04-11T09:54:46Z</time></trkpt><trkpt lat="40.159211277290524" lon="9.195352653496748"><ele>761.5</ele><time>2026-04-11T09:54:48Z</time></trkpt><trkpt lat="40.159274715013154" lon="9.195342817563713"><ele>764.0</ele><time>2026-04-11T09:54:49Z</time></trkpt><trkpt lat="40.159390101573145" lon="9.195318126493758"><ele>766.5</ele><time>2026-04-11T09:54:51Z</time></trkpt><trkpt lat="40.15947253560479" lon="9.195298641776777"><ele>769.0</ele><time>2026-04-11T09:54:53Z</time></trkpt><trkpt lat="40.159557555212494" lon="9.195270641698363"><ele>771.5</ele><time>2026-04-11T09:54:56Z</time></trkpt><trkpt lat="40.159634455008344" lon="9.19524379900663"><ele>774.0</ele><time>2026-04-11T09:54:58Z</time></trkpt><trkpt lat="40.159724700640545" lon="9.195212143974222"><ele>774.0</ele><time>2026-04-11T09:55:00Z</time></trkpt><trkpt lat="40.159834595711644" lon="9.195170335173863"><ele>774.0</ele><time>2026-04-11T09:55:02Z</time></trkpt><trkpt lat="40.15995201913752" lon="9.195141320323717"><ele>774.0</ele><time>2026-04-11T09:55:04Z</time></trkpt><trkpt lat="40.1600778153909" lon="9.195126412525916"><ele>774.0</ele><time>2026-04-11T09:55:06Z</time></trkpt><trkpt lat="40.160144305927275" lon="9.19512900111731"><ele>774.0</ele><time>2026-04-11T09:55:07Z</time></trkpt><trkpt lat="40.16021569959443" lon="9.195135962745674"><ele>773.1428571428571</ele><time>2026-04-11T09:55:08Z</time></trkpt><trkpt lat="40.160287519651675" lon="9.195147577622828"><ele>772.2857142857143</ele><time>2026-04-11T09:55:09Z</time></trkpt><trkpt lat="40.160358166030086" lon="9.195163607234466"><ele>771.4285714285713</ele><time>2026-04-11T09:55:10Z</time></trkpt><trkpt lat="40.16043092362075" lon="9.195185073485339"><ele>770.5714285714286</ele><time>2026-04-11T09:55:11Z</time></trkpt><trkpt lat="40.16050203606488" lon="9.195210471715853"><ele>769.7142857142857</ele><time>2026-04-11T09:55:12Z</time></trkpt><trkpt lat="40.160571120636156" lon="9.195236347806379"><ele>768.8571428571428</ele><time>2026-04-11T09:55:13Z</time></trkpt><trkpt lat="40.160641147015" lon="9.195265238141241"><ele>768.0</ele><time>2026-04-11T09:55:14Z</time></trkpt><trkpt lat="40.16070381457918" lon="9.195291978896087"><ele>767.5999999999999</ele><time>2026-04-11T09:55:15Z</time></trkpt><trkpt lat="40.16077152989281" lon="9.19532087358133"><ele>767.1999999999999</ele><time>2026-04-11T09:55:16Z</time></trkpt><trkpt lat="40.16083182881206" lon="9.195348004983401"><ele>766.8</ele><time>2026-04-11T09:55:17Z</time></trkpt><trkpt lat="40.16094971517319" lon="9.195399521015286"><ele>766.4</ele><time>2026-04-11T09:55:19Z</time></trkpt><trkpt lat="40.1610570973363" lon="9.195446446743588"><ele>766.0</ele><time>2026-04-11T09:55:21Z</time></trkpt><trkpt lat="40.16116117285619" lon="9.1954919274539"><ele>766.0</ele><time>2026-04-11T09:55:23Z</time></trkpt><trkpt lat="40.161272135271204" lon="9.195540417697304"><ele>766.0</ele><time>2026-04-11T09:55:25Z</time></trkpt><trkpt lat="40.161366720102464" lon="9.195581244793367"><ele>766.0</ele><time>2026-04-11T09:55:27Z</time></trkpt><trkpt lat="40.161453215117916" lon="9.195619333268938"><ele>766.0</ele><time>2026-04-11T09:55:29Z</time></trkpt><trkpt lat="40.16153769948512" lon="9.195656536369016"><ele>766.0</ele><time>2026-04-11T09:55:31Z</time></trkpt><trkpt lat="40.16161949055905" lon="9.195691242151923"><ele>765.5</ele><time>2026-04-11T09:55:33Z</time></trkpt><trkpt lat="40.161689533088236" lon="9.1957195575083"><ele>765.0</ele><time>2026-04-11T09:55:35Z</time></trkpt><trkpt lat="40.161757364009496" lon="9.195728512712577"><ele>764.5</ele><time>2026-04-11T09:55:37Z</time></trkpt><trkpt lat="40.16184794538671" lon="9.195691730841633"><ele>764.0</ele><time>2026-04-11T09:55:46Z</time></trkpt><trkpt lat="40.16195330956945" lon="9.195679812899472"><ele>763.5</ele><time>2026-04-11T09:55:48Z</time></trkpt><trkpt lat="40.162047199842554" lon="9.19566058131258"><ele>763.0</ele><time>2026-04-11T09:55:50Z</time></trkpt><trkpt lat="40.162080226097814" lon="9.195790165611056"><ele>763.0</ele><time>2026-04-11T09:55:53Z</time></trkpt><trkpt lat="40.16218048432835" lon="9.195714072335969"><ele>763.0</ele><time>2026-04-11T09:55:55Z</time></trkpt><trkpt lat="40.16225354734351" lon="9.195729707520655"><ele>763.0</ele><time>2026-04-11T09:55:57Z</time></trkpt><trkpt lat="40.16235115499216" lon="9.195768422607145"><ele>763.0</ele><time>2026-04-11T09:56:00Z</time></trkpt><trkpt lat="40.16243044742986" lon="9.195816108014693"><ele>763.0</ele><time>2026-04-11T09:56:02Z</time></trkpt><trkpt lat="40.162493354683654" lon="9.195782588097916"><ele>763.0</ele><time>2026-04-11T09:56:05Z</time></trkpt><trkpt lat="40.162451246686715" lon="9.195706625538122"><ele>763.0</ele><time>2026-04-11T09:56:41Z</time></trkpt><trkpt lat="40.162371674939614" lon="9.195729013628474"><ele>763.0</ele><time>2026-04-11T10:00:21Z</time></trkpt><trkpt lat="40.16227163699633" lon="9.195733072543307"><ele>763.0</ele><time>2026-04-11T10:00:23Z</time></trkpt><trkpt lat="40.16215457071625" lon="9.19573213383694"><ele>763.0</ele><time>2026-04-11T10:00:25Z</time></trkpt><trkpt lat="40.162094551988524" lon="9.195705945797291"><ele>763.0</ele><time>2026-04-11T10:00:26Z</time></trkpt><trkpt lat="40.162040394980174" lon="9.195643488596918"><ele>763.0</ele><time>2026-04-11T10:00:28Z</time></trkpt><trkpt lat="40.162077858974136" lon="9.19557039188799"><ele>763.5999999999999</ele><time>2026-04-11T10:00:30Z</time></trkpt><trkpt lat="40.162162005827305" lon="9.195531386000525"><ele>764.1999999999999</ele><time>2026-04-11T10:00:33Z</time></trkpt><trkpt lat="40.162216589649525" lon="9.195462796374484"><ele>764.8</ele><time>2026-04-11T10:00:35Z</time></trkpt><trkpt lat="40.162316272728546" lon="9.195378510671498"><ele>765.4</ele><time>2026-04-11T10:00:37Z</time></trkpt><trkpt lat="40.16244442151274" lon="9.195332736494013"><ele>766.0</ele><time>2026-04-11T10:00:39Z</time></trkpt><trkpt lat="40.16251089867359" lon="9.195269533342598"><ele>766.0</ele><time>2026-04-11T10:00:40Z</time></trkpt><trkpt lat="40.162576689423034" lon="9.195184813471526"><ele>766.0</ele><time>2026-04-11T10:00:41Z</time></trkpt><trkpt lat="40.16263163273526" lon="9.195103542674504"><ele>766.0</ele><time>2026-04-11T10:00:42Z</time></trkpt><trkpt lat="40.16268525052967" lon="9.195007539146676"><ele>766.0</ele><time>2026-04-11T10:00:43Z</time></trkpt><trkpt lat="40.162758016245505" lon="9.194918228428698"><ele>766.0</ele><time>2026-04-11T10:00:44Z</time></trkpt><trkpt lat="40.162823212077676" lon="9.194810905878933"><ele>767.0</ele><time>2026-04-11T10:00:45Z</time></trkpt><trkpt lat="40.16288877012761" lon="9.19470775258236"><ele>768.0</ele><time>2026-04-11T10:00:46Z</time></trkpt><trkpt lat="40.162951858194226" lon="9.194599191021792"><ele>769.0</ele><time>2026-04-11T10:00:47Z</time></trkpt><trkpt lat="40.162992396103256" lon="9.194474599411729"><ele>770.0</ele><time>2026-04-11T10:00:48Z</time></trkpt><trkpt lat="40.163033076366624" lon="9.194346837188471"><ele>771.0</ele><time>2026-04-11T10:00:49Z</time></trkpt><trkpt lat="40.16306064862703" lon="9.194205918403041"><ele>771.0</ele><time>2026-04-11T10:00:50Z</time></trkpt><trkpt lat="40.163085873157435" lon="9.194064916015211"><ele>771.0</ele><time>2026-04-11T10:00:51Z</time></trkpt><trkpt lat="40.163107300447386" lon="9.193922295811785"><ele>771.0</ele><time>2026-04-11T10:00:52Z</time></trkpt><trkpt lat="40.16312709632953" lon="9.193778703657078"><ele>771.0</ele><time>2026-04-11T10:00:53Z</time></trkpt><trkpt lat="40.16313866840279" lon="9.193643337749034"><ele>771.0</ele><time>2026-04-11T10:00:54Z</time></trkpt><trkpt lat="40.16312902995718" lon="9.19351768726116"><ele>771.4</ele><time>2026-04-11T10:00:55Z</time></trkpt><trkpt lat="40.163100832671596" lon="9.193400343703393"><ele>771.8</ele><time>2026-04-11T10:00:56Z</time></trkpt><trkpt lat="40.16306748683471" lon="9.193283021126993"><ele>772.1999999999999</ele><time>2026-04-11T10:00:57Z</time></trkpt><trkpt lat="40.16303054715471" lon="9.193162900605293"><ele>772.5999999999999</ele><time>2026-04-11T10:00:58Z</time></trkpt><trkpt lat="40.162979994388934" lon="9.19304120923025"><ele>773.0</ele><time>2026-04-11T10:00:59Z</time></trkpt><trkpt lat="40.16292585493992" lon="9.192910098994899"><ele>773.0</ele><time>2026-04-11T10:01:00Z</time></trkpt><trkpt lat="40.16286478952736" lon="9.192777371548745"><ele>773.0</ele><time>2026-04-11T10:01:01Z</time></trkpt><trkpt lat="40.16279959056318" lon="9.19265566645367"><ele>773.0</ele><time>2026-04-11T10:01:02Z</time></trkpt><trkpt lat="40.16273978664079" lon="9.192544929699773"><ele>773.0</ele><time>2026-04-11T10:01:03Z</time></trkpt><trkpt lat="40.16273124626925" lon="9.192436418018167"><ele>773.0</ele><time>2026-04-11T10:01:04Z</time></trkpt><trkpt lat="40.16274388040566" lon="9.192346971219482"><ele>773.0</ele><time>2026-04-11T10:01:05Z</time></trkpt><trkpt lat="40.162826109663726" lon="9.192277303497946"><ele>773.0</ele><time>2026-04-11T10:01:06Z</time></trkpt><trkpt lat="40.16293314605626" lon="9.19222298736571"><ele>773.0</ele><time>2026-04-11T10:01:07Z</time></trkpt><trkpt lat="40.163046037808336" lon="9.192164195481489"><ele>773.0</ele><time>2026-04-11T10:01:08Z</time></trkpt><trkpt lat="40.163172002454026" lon="9.192126835420748"><ele>774.75</ele><time>2026-04-11T10:01:09Z</time></trkpt><trkpt lat="40.163307683883104" lon="9.192161188690456"><ele>776.5</ele><time>2026-04-11T10:01:10Z</time></trkpt><trkpt lat="40.163442250337404" lon="9.192193736169335"><ele>778.25</ele><time>2026-04-11T10:01:11Z</time></trkpt><trkpt lat="40.16357535856393" lon="9.192234267371772"><ele>780.0</ele><time>2026-04-11T10:01:12Z</time></trkpt><trkpt lat="40.16367763383952" lon="9.192355880287856"><ele>776.25</ele><time>2026-04-11T10:01:13Z</time></trkpt><trkpt lat="40.16377992789854" lon="9.192472126415094"><ele>772.5</ele><time>2026-04-11T10:01:14Z</time></trkpt><trkpt lat="40.16387414049608" lon="9.192586471888486"><ele>768.75</ele><time>2026-04-11T10:01:15Z</time></trkpt><trkpt lat="40.16398805758497" lon="9.192680912303045"><ele>765.0</ele><time>2026-04-11T10:01:16Z</time></trkpt><trkpt lat="40.16411273866778" lon="9.192738294473083"><ele>765.0</ele><time>2026-04-11T10:01:17Z</time></trkpt><trkpt lat="40.16425042779953" lon="9.192736485584183"><ele>765.0</ele><time>2026-04-11T10:01:18Z</time></trkpt><trkpt lat="40.16440099886308" lon="9.192700989332723"><ele>765.0</ele><time>2026-04-11T10:01:19Z</time></trkpt><trkpt lat="40.16454238086287" lon="9.192688953260943"><ele>765.0</ele><time>2026-04-11T10:01:20Z</time></trkpt><trkpt lat="40.16468035438271" lon="9.192673777514322"><ele>765.0</ele><time>2026-04-11T10:01:21Z</time></trkpt><trkpt lat="40.164806870903064" lon="9.192686271987762"><ele>765.0</ele><time>2026-04-11T10:01:22Z</time></trkpt><trkpt lat="40.16491071790035" lon="9.192734437179888"><ele>765.0</ele><time>2026-04-11T10:01:23Z</time></trkpt><trkpt lat="40.16501997562505" lon="9.192786175299005"><ele>765.0</ele><time>2026-04-11T10:01:24Z</time></trkpt><trkpt lat="40.16509875577218" lon="9.19292805404934"><ele>763.5</ele><time>2026-04-11T10:01:25Z</time></trkpt><trkpt lat="40.16505980452013" lon="9.19314872670141"><ele>762.0</ele><time>2026-04-11T10:01:26Z</time></trkpt><trkpt lat="40.16506151036514" lon="9.193337379565119"><ele>760.5</ele><time>2026-04-11T10:01:27Z</time></trkpt><trkpt lat="40.165088682423175" lon="9.193489224725624"><ele>759.0</ele><time>2026-04-11T10:01:28Z</time></trkpt><trkpt lat="40.165160897667896" lon="9.193592609419852"><ele>759.0</ele><time>2026-04-11T10:01:29Z</time></trkpt><trkpt lat="40.16527781803551" lon="9.193639751012688"><ele>759.0</ele><time>2026-04-11T10:01:30Z</time></trkpt><trkpt lat="40.165410890574286" lon="9.193647361970799"><ele>759.0</ele><time>2026-04-11T10:01:31Z</time></trkpt><trkpt lat="40.16554699888888" lon="9.193651109175494"><ele>759.0</ele><time>2026-04-11T10:01:32Z</time></trkpt><trkpt lat="40.16568383069503" lon="9.193648797066826"><ele>762.0</ele><time>2026-04-11T10:01:33Z</time></trkpt><trkpt lat="40.16581797404606" lon="9.193585239012423"><ele>765.0</ele><time>2026-04-11T10:01:34Z</time></trkpt><trkpt lat="40.16594162362684" lon="9.193467361961964"><ele>768.0</ele><time>2026-04-11T10:01:35Z</time></trkpt><trkpt lat="40.16604137543129" lon="9.193292862742943"><ele>773.3333333333333</ele><time>2026-04-11T10:01:36Z</time></trkpt><trkpt lat="40.16615795330753" lon="9.193140113833897"><ele>778.6666666666666</ele><time>2026-04-11T10:01:37Z</time></trkpt><trkpt lat="40.16628150707152" lon="9.193005342029599"><ele>784.0</ele><time>2026-04-11T10:01:38Z</time></trkpt><trkpt lat="40.16642204459131" lon="9.1929085058323"><ele>782.3333333333333</ele><time>2026-04-11T10:01:39Z</time></trkpt><trkpt lat="40.166587077291574" lon="9.192870141824631"><ele>780.6666666666667</ele><time>2026-04-11T10:01:40Z</time></trkpt><trkpt lat="40.166742793029464" lon="9.192804874698279"><ele>779.0</ele><time>2026-04-11T10:01:41Z</time></trkpt><trkpt lat="40.166883175845435" lon="9.192720066343027"><ele>779.0</ele><time>2026-04-11T10:01:42Z</time></trkpt><trkpt lat="40.16700271484344" lon="9.192574505559147"><ele>779.0</ele><time>2026-04-11T10:01:43Z</time></trkpt><trkpt lat="40.16710777075328" lon="9.192399821460672"><ele>779.0</ele><time>2026-04-11T10:01:44Z</time></trkpt><trkpt lat="40.167229226008935" lon="9.192270802189856"><ele>782.75</ele><time>2026-04-11T10:01:45Z</time></trkpt><trkpt lat="40.16734681785417" lon="9.192164762802298"><ele>786.5</ele><time>2026-04-11T10:01:46Z</time></trkpt><trkpt lat="40.16747235900973" lon="9.192125778842634"><ele>790.25</ele><time>2026-04-11T10:01:47Z</time></trkpt><trkpt lat="40.16759954377282" lon="9.19218124273058"><ele>794.0</ele><time>2026-04-11T10:01:48Z</time></trkpt><trkpt lat="40.16773962396651" lon="9.192247091131687"><ele>794.0</ele><time>2026-04-11T10:01:49Z</time></trkpt><trkpt lat="40.16788885817583" lon="9.192311188280696"><ele>794.0</ele><time>2026-04-11T10:01:50Z</time></trkpt><trkpt lat="40.16804297929386" lon="9.192367149944547"><ele>794.0</ele><time>2026-04-11T10:01:51Z</time></trkpt><trkpt lat="40.16820494183518" lon="9.192387774802928"><ele>794.3333333333334</ele><time>2026-04-11T10:01:52Z</time></trkpt><trkpt lat="40.16837152594662" lon="9.192364126926774"><ele>794.6666666666667</ele><time>2026-04-11T10:01:53Z</time></trkpt><trkpt lat="40.16853519714823" lon="9.192295701213025"><ele>795.0</ele><time>2026-04-11T10:01:54Z</time></trkpt><trkpt lat="40.1687002373887" lon="9.192207667868262"><ele>795.0</ele><time>2026-04-11T10:01:55Z</time></trkpt><trkpt lat="40.168864372410894" lon="9.1921366631666"><ele>795.0</ele><time>2026-04-11T10:01:56Z</time></trkpt><trkpt lat="40.169031047073105" lon="9.192079612851416"><ele>795.0</ele><time>2026-04-11T10:01:57Z</time></trkpt><trkpt lat="40.16919482047622" lon="9.19204299792751"><ele>793.6666666666667</ele><time>2026-04-11T10:01:58Z</time></trkpt><trkpt lat="40.169364469473784" lon="9.192042218710455"><ele>792.3333333333334</ele><time>2026-04-11T10:01:59Z</time></trkpt><trkpt lat="40.169537410188" lon="9.192106320964879"><ele>791.0</ele><time>2026-04-11T10:02:00Z</time></trkpt><trkpt lat="40.16971223126814" lon="9.192144579727891"><ele>790.6666666666667</ele><time>2026-04-11T10:02:01Z</time></trkpt><trkpt lat="40.16988126583466" lon="9.192194422665661"><ele>790.3333333333333</ele><time>2026-04-11T10:02:02Z</time></trkpt><trkpt lat="40.17005549069741" lon="9.19219723462708"><ele>790.0</ele><time>2026-04-11T10:02:03Z</time></trkpt><trkpt lat="40.170233342183664" lon="9.192136989009816"><ele>790.0</ele><time>2026-04-11T10:02:04Z</time></trkpt><trkpt lat="40.1704083780358" lon="9.192037974524489"><ele>790.0</ele><time>2026-04-11T10:02:05Z</time></trkpt><trkpt lat="40.170587505336535" lon="9.191988316279623"><ele>790.0</ele><time>2026-04-11T10:02:06Z</time></trkpt><trkpt lat="40.170769481399134" lon="9.191961622490139"><ele>788.6666666666666</ele><time>2026-04-11T10:02:07Z</time></trkpt><trkpt lat="40.170958634640435" lon="9.191935152770629"><ele>787.3333333333333</ele><time>2026-04-11T10:02:08Z</time></trkpt><trkpt lat="40.17115928729298" lon="9.191924904729117"><ele>786.0</ele><time>2026-04-11T10:02:09Z</time></trkpt><trkpt lat="40.17135722291194" lon="9.191908325275351"><ele>786.0</ele><time>2026-04-11T10:02:10Z</time></trkpt><trkpt lat="40.17154536503507" lon="9.1918912720795"><ele>786.0</ele><time>2026-04-11T10:02:11Z</time></trkpt><trkpt lat="40.1717163418668" lon="9.191865198763695"><ele>786.0</ele><time>2026-04-11T10:02:12Z</time></trkpt><trkpt lat="40.171881793963" lon="9.19179297453178"><ele>786.0</ele><time>2026-04-11T10:02:13Z</time></trkpt><trkpt lat="40.17202671121926" lon="9.191654404485984"><ele>786.0</ele><time>2026-04-11T10:02:14Z</time></trkpt><trkpt lat="40.17215721385905" lon="9.191471246705184"><ele>786.0</ele><time>2026-04-11T10:02:15Z</time></trkpt><trkpt lat="40.172298611650845" lon="9.191305589660935"><ele>789.3333333333333</ele><time>2026-04-11T10:02:16Z</time></trkpt><trkpt lat="40.17245347633352" lon="9.19116436363254"><ele>792.6666666666666</ele><time>2026-04-11T10:02:17Z</time></trkpt><trkpt lat="40.17262642951187" lon="9.191051467442362"><ele>796.0</ele><time>2026-04-11T10:02:18Z</time></trkpt><trkpt lat="40.17281570187981" lon="9.190981814406985"><ele>796.0</ele><time>2026-04-11T10:02:19Z</time></trkpt><trkpt lat="40.17301226065432" lon="9.190934454583221"><ele>796.0</ele><time>2026-04-11T10:02:20Z</time></trkpt><trkpt lat="40.17321559950177" lon="9.190875243983958"><ele>796.0</ele><time>2026-04-11T10:02:21Z</time></trkpt><trkpt lat="40.17342299572375" lon="9.190832459960818"><ele>795.3333333333333</ele><time>2026-04-11T10:02:22Z</time></trkpt><trkpt lat="40.17363076134149" lon="9.190776609226326"><ele>794.6666666666667</ele><time>2026-04-11T10:02:23Z</time></trkpt><trkpt lat="40.17384060533249" lon="9.190727390257209"><ele>794.0</ele><time>2026-04-11T10:02:24Z</time></trkpt><trkpt lat="40.17405428160151" lon="9.190682942520441"><ele>796.6666666666667</ele><time>2026-04-11T10:02:25Z</time></trkpt><trkpt lat="40.17426767164173" lon="9.190637074406494"><ele>799.3333333333333</ele><time>2026-04-11T10:02:26Z</time></trkpt><trkpt lat="40.17447778060448" lon="9.19059100911533"><ele>802.0</ele><time>2026-04-11T10:02:27Z</time></trkpt><trkpt lat="40.17468533865422" lon="9.190540882056515"><ele>801.6666666666666</ele><time>2026-04-11T10:02:28Z</time></trkpt><trkpt lat="40.17488712974135" lon="9.190478675433758"><ele>801.3333333333333</ele><time>2026-04-11T10:02:29Z</time></trkpt><trkpt lat="40.17508764624085" lon="9.190391800066019"><ele>801.0</ele><time>2026-04-11T10:02:30Z</time></trkpt><trkpt lat="40.17528742352776" lon="9.190280334855046"><ele>801.0</ele><time>2026-04-11T10:02:31Z</time></trkpt><trkpt lat="40.17548381210835" lon="9.19015443871975"><ele>801.0</ele><time>2026-04-11T10:02:32Z</time></trkpt><trkpt lat="40.17568271297013" lon="9.190022294918705"><ele>801.0</ele><time>2026-04-11T10:02:33Z</time></trkpt><trkpt lat="40.17588372362305" lon="9.189893596572787"><ele>804.5</ele><time>2026-04-11T10:02:34Z</time></trkpt><trkpt lat="40.17608734742691" lon="9.189769036541131"><ele>808.0</ele><time>2026-04-11T10:02:35Z</time></trkpt><trkpt lat="40.176291507868335" lon="9.189644574134403"><ele>808.0</ele><time>2026-04-11T10:02:36Z</time></trkpt><trkpt lat="40.176488055558515" lon="9.189527702646695"><ele>808.0</ele><time>2026-04-11T10:02:37Z</time></trkpt><trkpt lat="40.176669773046456" lon="9.189418472677918"><ele>808.0</ele><time>2026-04-11T10:02:38Z</time></trkpt><trkpt lat="40.17683961185088" lon="9.189318087878481"><ele>808.6666666666666</ele><time>2026-04-11T10:02:39Z</time></trkpt><trkpt lat="40.176997764348506" lon="9.189218649051075"><ele>809.3333333333333</ele><time>2026-04-11T10:02:40Z</time></trkpt><trkpt lat="40.17713498717718" lon="9.189087008591255"><ele>810.0</ele><time>2026-04-11T10:02:41Z</time></trkpt><trkpt lat="40.177245641078024" lon="9.188886078811233"><ele>810.0</ele><time>2026-04-11T10:02:42Z</time></trkpt><trkpt lat="40.17733317393494" lon="9.1886581712698"><ele>810.0</ele><time>2026-04-11T10:02:43Z</time></trkpt><trkpt lat="40.1773956862895" lon="9.188439474464493"><ele>810.0</ele><time>2026-04-11T10:02:44Z</time></trkpt><trkpt lat="40.17740525845351" lon="9.188235281954313"><ele>811.25</ele><time>2026-04-11T10:02:45Z</time></trkpt><trkpt lat="40.177359965142365" lon="9.188049335724708"><ele>812.5</ele><time>2026-04-11T10:02:46Z</time></trkpt><trkpt lat="40.17729549345775" lon="9.18787276061419"><ele>813.75</ele><time>2026-04-11T10:02:47Z</time></trkpt><trkpt lat="40.17723560058366" lon="9.18769326220056"><ele>815.0</ele><time>2026-04-11T10:02:48Z</time></trkpt><trkpt lat="40.177229227333626" lon="9.187504642366223"><ele>815.25</ele><time>2026-04-11T10:02:49Z</time></trkpt><trkpt lat="40.177249792406506" lon="9.187328906675635"><ele>815.5</ele><time>2026-04-11T10:02:50Z</time></trkpt><trkpt lat="40.17730568770912" lon="9.187165197311911"><ele>815.75</ele><time>2026-04-11T10:02:51Z</time></trkpt><trkpt lat="40.177364861909105" lon="9.187008712633439"><ele>816.0</ele><time>2026-04-11T10:02:52Z</time></trkpt><trkpt lat="40.177452579571415" lon="9.186866744472935"><ele>814.5</ele><time>2026-04-11T10:02:53Z</time></trkpt><trkpt lat="40.17755188329675" lon="9.18673248683305"><ele>813.0</ele><time>2026-04-11T10:02:54Z</time></trkpt><trkpt lat="40.17765812727634" lon="9.186607704097995"><ele>811.5</ele><time>2026-04-11T10:02:55Z</time></trkpt><trkpt lat="40.17777029046277" lon="9.186485061353517"><ele>810.0</ele><time>2026-04-11T10:02:56Z</time></trkpt><trkpt lat="40.17788140206556" lon="9.186360057172193"><ele>810.0</ele><time>2026-04-11T10:02:57Z</time></trkpt><trkpt lat="40.17799035957103" lon="9.186235822774595"><ele>810.0</ele><time>2026-04-11T10:02:58Z</time></trkpt><trkpt lat="40.17810047189935" lon="9.186120651556479"><ele>810.0</ele><time>2026-04-11T10:02:59Z</time></trkpt><trkpt lat="40.178221859410144" lon="9.186041223809609"><ele>810.0</ele><time>2026-04-11T10:03:00Z</time></trkpt><trkpt lat="40.17835143634888" lon="9.186004801693612"><ele>810.0</ele><time>2026-04-11T10:03:01Z</time></trkpt><trkpt lat="40.17848784979182" lon="9.186013408455398"><ele>810.0</ele><time>2026-04-11T10:03:02Z</time></trkpt><trkpt lat="40.17862839234411" lon="9.186054386394774"><ele>810.0</ele><time>2026-04-11T10:03:03Z</time></trkpt><trkpt lat="40.178747051049456" lon="9.186094760264263"><ele>810.0</ele><time>2026-04-11T10:03:04Z</time></trkpt><trkpt lat="40.178864858917265" lon="9.18612114450224"><ele>810.0</ele><time>2026-04-11T10:03:05Z</time></trkpt><trkpt lat="40.178986431249655" lon="9.186130457607746"><ele>810.0</ele><time>2026-04-11T10:03:06Z</time></trkpt><trkpt lat="40.17910963518663" lon="9.18609382940506"><ele>810.0</ele><time>2026-04-11T10:03:07Z</time></trkpt><trkpt lat="40.179224862961384" lon="9.186010926948809"><ele>810.0</ele><time>2026-04-11T10:03:08Z</time></trkpt><trkpt lat="40.1793206215018" lon="9.185905377026094"><ele>810.75</ele><time>2026-04-11T10:03:09Z</time></trkpt><trkpt lat="40.17939468181542" lon="9.185768829587474"><ele>811.5</ele><time>2026-04-11T10:03:10Z</time></trkpt><trkpt lat="40.17944199017682" lon="9.185612006144463"><ele>812.25</ele><time>2026-04-11T10:03:11Z</time></trkpt><trkpt lat="40.179469747908186" lon="9.185456518642539"><ele>813.0</ele><time>2026-04-11T10:03:12Z</time></trkpt><trkpt lat="40.17949570001468" lon="9.185306896304352"><ele>814.4</ele><time>2026-04-11T10:03:13Z</time></trkpt><trkpt lat="40.179544633410416" lon="9.185177717528848"><ele>815.8</ele><time>2026-04-11T10:03:14Z</time></trkpt><trkpt lat="40.17962976286406" lon="9.185078991129918"><ele>817.2</ele><time>2026-04-11T10:03:15Z</time></trkpt><trkpt lat="40.17972716753548" lon="9.185015619719467"><ele>818.6</ele><time>2026-04-11T10:03:16Z</time></trkpt><trkpt lat="40.179832456830155" lon="9.18498542863767"><ele>820.0</ele><time>2026-04-11T10:03:17Z</time></trkpt><trkpt lat="40.17994738556237" lon="9.184977572556177"><ele>820.0</ele><time>2026-04-11T10:03:18Z</time></trkpt><trkpt lat="40.1800681756824" lon="9.184975132517359"><ele>820.0</ele><time>2026-04-11T10:03:19Z</time></trkpt><trkpt lat="40.18018874693201" lon="9.184961880664531"><ele>820.0</ele><time>2026-04-11T10:03:20Z</time></trkpt><trkpt lat="40.18029963467384" lon="9.184943417394727"><ele>820.0</ele><time>2026-04-11T10:03:21Z</time></trkpt><trkpt lat="40.180414367963905" lon="9.18491727166527"><ele>820.0</ele><time>2026-04-11T10:03:22Z</time></trkpt><trkpt lat="40.18053068154367" lon="9.184873330372445"><ele>820.0</ele><time>2026-04-11T10:03:23Z</time></trkpt><trkpt lat="40.180645307919434" lon="9.18481541512375"><ele>820.0</ele><time>2026-04-11T10:03:24Z</time></trkpt><trkpt lat="40.18075952436825" lon="9.18475465479368"><ele>820.0</ele><time>2026-04-11T10:03:25Z</time></trkpt><trkpt lat="40.180874460865255" lon="9.18469686875851"><ele>822.25</ele><time>2026-04-11T10:03:26Z</time></trkpt><trkpt lat="40.18099046478888" lon="9.184639034336028"><ele>824.5</ele><time>2026-04-11T10:03:27Z</time></trkpt><trkpt lat="40.18110586433166" lon="9.184582212213336"><ele>826.75</ele><time>2026-04-11T10:03:28Z</time></trkpt><trkpt lat="40.18121668892432" lon="9.184528283437043"><ele>829.0</ele><time>2026-04-11T10:03:29Z</time></trkpt><trkpt lat="40.18132181931812" lon="9.184475998348766"><ele>829.0</ele><time>2026-04-11T10:03:30Z</time></trkpt><trkpt lat="40.181420597394116" lon="9.184407036673242"><ele>829.0</ele><time>2026-04-11T10:03:31Z</time></trkpt><trkpt lat="40.1815100012013" lon="9.184305127998787"><ele>829.0</ele><time>2026-04-11T10:03:32Z</time></trkpt><trkpt lat="40.181578300965484" lon="9.184175701953873"><ele>829.0</ele><time>2026-04-11T10:03:33Z</time></trkpt><trkpt lat="40.181630941712164" lon="9.184027656187048"><ele>830.0</ele><time>2026-04-11T10:03:34Z</time></trkpt><trkpt lat="40.18167767153036" lon="9.183874607907633"><ele>831.0</ele><time>2026-04-11T10:03:35Z</time></trkpt><trkpt lat="40.181731476970334" lon="9.183738993874348"><ele>832.0</ele><time>2026-04-11T10:03:36Z</time></trkpt><trkpt lat="40.181801333718965" lon="9.183631813875218"><ele>833.0</ele><time>2026-04-11T10:03:37Z</time></trkpt><trkpt lat="40.181888740582366" lon="9.183559266781716"><ele>833.0</ele><time>2026-04-11T10:03:38Z</time></trkpt><trkpt lat="40.181992664819674" lon="9.183551647977104"><ele>833.0</ele><time>2026-04-11T10:03:39Z</time></trkpt><trkpt lat="40.18209558443903" lon="9.183539700182397"><ele>833.0</ele><time>2026-04-11T10:03:40Z</time></trkpt><trkpt lat="40.18220453045977" lon="9.183594693697046"><ele>833.0</ele><time>2026-04-11T10:03:41Z</time></trkpt><trkpt lat="40.18231309449973" lon="9.183647345937558"><ele>833.0</ele><time>2026-04-11T10:03:42Z</time></trkpt><trkpt lat="40.18242574457011" lon="9.183676559396924"><ele>833.25</ele><time>2026-04-11T10:03:43Z</time></trkpt><trkpt lat="40.1825423382103" lon="9.183679304396291"><ele>833.5</ele><time>2026-04-11T10:03:44Z</time></trkpt><trkpt lat="40.18266263685735" lon="9.183662240101501"><ele>833.75</ele><time>2026-04-11T10:03:45Z</time></trkpt><trkpt lat="40.182783510265665" lon="9.183628837685976"><ele>834.0</ele><time>2026-04-11T10:03:46Z</time></trkpt><trkpt lat="40.182907258467374" lon="9.183582948964851"><ele>834.0</ele><time>2026-04-11T10:03:47Z</time></trkpt><trkpt lat="40.18303379565624" lon="9.18353838979224"><ele>834.0</ele><time>2026-04-11T10:03:48Z</time></trkpt><trkpt lat="40.18316358023516" lon="9.183510056724291"><ele>834.0</ele><time>2026-04-11T10:03:49Z</time></trkpt><trkpt lat="40.183294957629734" lon="9.183516797588256"><ele>834.0</ele><time>2026-04-11T10:03:50Z</time></trkpt><trkpt lat="40.183423512186955" lon="9.183560609492934"><ele>833.75</ele><time>2026-04-11T10:03:51Z</time></trkpt><trkpt lat="40.183543070474194" lon="9.183618179884256"><ele>833.5</ele><time>2026-04-11T10:03:52Z</time></trkpt><trkpt lat="40.183662610681765" lon="9.183666826546569"><ele>833.25</ele><time>2026-04-11T10:03:53Z</time></trkpt><trkpt lat="40.18378020468061" lon="9.18371545331298"><ele>833.0</ele><time>2026-04-11T10:03:54Z</time></trkpt><trkpt lat="40.18390226439075" lon="9.183772327209736"><ele>833.75</ele><time>2026-04-11T10:03:55Z</time></trkpt><trkpt lat="40.18402995841362" lon="9.183845090629651"><ele>834.5</ele><time>2026-04-11T10:03:56Z</time></trkpt><trkpt lat="40.18415782012327" lon="9.183921022295825"><ele>835.25</ele><time>2026-04-11T10:03:57Z</time></trkpt><trkpt lat="40.18429266869787" lon="9.183986313426994"><ele>836.0</ele><time>2026-04-11T10:03:58Z</time></trkpt><trkpt lat="40.184449070484234" lon="9.184047773786896"><ele>834.0</ele><time>2026-04-11T10:03:59Z</time></trkpt><trkpt lat="40.18461391686973" lon="9.184113167343103"><ele>832.0</ele><time>2026-04-11T10:04:00Z</time></trkpt><trkpt lat="40.18477379283536" lon="9.184183934037849"><ele>830.0</ele><time>2026-04-11T10:04:01Z</time></trkpt><trkpt lat="40.18492691951303" lon="9.184247119527384"><ele>830.0</ele><time>2026-04-11T10:04:02Z</time></trkpt><trkpt lat="40.185089905794584" lon="9.18430885676095"><ele>830.0</ele><time>2026-04-11T10:04:03Z</time></trkpt><trkpt lat="40.185278693010375" lon="9.184363442691565"><ele>830.0</ele><time>2026-04-11T10:04:04Z</time></trkpt><trkpt lat="40.18548417120248" lon="9.184428368451112"><ele>837.5</ele><time>2026-04-11T10:04:05Z</time></trkpt><trkpt lat="40.18570054956854" lon="9.184516143823632"><ele>845.0</ele><time>2026-04-11T10:04:06Z</time></trkpt><trkpt lat="40.185918376963926" lon="9.184617266925244"><ele>845.0</ele><time>2026-04-11T10:04:07Z</time></trkpt><trkpt lat="40.186126875941454" lon="9.184710015705427"><ele>845.0</ele><time>2026-04-11T10:04:08Z</time></trkpt><trkpt lat="40.186342413062846" lon="9.18478292635902"><ele>845.0</ele><time>2026-04-11T10:04:09Z</time></trkpt><trkpt lat="40.18655402396234" lon="9.184851953874718"><ele>843.6666666666667</ele><time>2026-04-11T10:04:10Z</time></trkpt><trkpt lat="40.18674974374525" lon="9.184933268296964"><ele>842.3333333333333</ele><time>2026-04-11T10:04:11Z</time></trkpt><trkpt lat="40.18692200031235" lon="9.18502186297266"><ele>841.0</ele><time>2026-04-11T10:04:12Z</time></trkpt><trkpt lat="40.18708723806867" lon="9.185070955630962"><ele>841.0</ele><time>2026-04-11T10:04:13Z</time></trkpt><trkpt lat="40.18726942505829" lon="9.185069343855824"><ele>841.0</ele><time>2026-04-11T10:04:14Z</time></trkpt><trkpt lat="40.187445701158616" lon="9.185027199232245"><ele>841.0</ele><time>2026-04-11T10:04:15Z</time></trkpt><trkpt lat="40.18760144212945" lon="9.184960294055793"><ele>841.0</ele><time>2026-04-11T10:04:16Z</time></trkpt><trkpt lat="40.187752916599074" lon="9.184875794342702"><ele>841.0</ele><time>2026-04-11T10:04:17Z</time></trkpt><trkpt lat="40.18790951873575" lon="9.184787769016594"><ele>841.0</ele><time>2026-04-11T10:04:18Z</time></trkpt><trkpt lat="40.18806041361791" lon="9.18472546269568"><ele>841.4</ele><time>2026-04-11T10:04:19Z</time></trkpt><trkpt lat="40.18819236613951" lon="9.18470850881333"><ele>841.8</ele><time>2026-04-11T10:04:20Z</time></trkpt><trkpt lat="40.18829387805394" lon="9.184722247959344"><ele>842.1999999999999</ele><time>2026-04-11T10:04:21Z</time></trkpt><trkpt lat="40.188382697802524" lon="9.184761087667749"><ele>842.5999999999999</ele><time>2026-04-11T10:04:22Z</time></trkpt><trkpt lat="40.188469515391205" lon="9.184829052184371"><ele>843.0</ele><time>2026-04-11T10:04:23Z</time></trkpt><trkpt lat="40.18854633357671" lon="9.184908977183873"><ele>843.0</ele><time>2026-04-11T10:04:24Z</time></trkpt><trkpt lat="40.18862624502128" lon="9.184948629603303"><ele>843.0</ele><time>2026-04-11T10:04:25Z</time></trkpt><trkpt lat="40.188705391887424" lon="9.18493250295805"><ele>843.0</ele><time>2026-04-11T10:04:26Z</time></trkpt><trkpt lat="40.18876542551145" lon="9.184851353369359"><ele>843.0</ele><time>2026-04-11T10:04:27Z</time></trkpt><trkpt lat="40.18881195357138" lon="9.184729773382813"><ele>843.0</ele><time>2026-04-11T10:04:28Z</time></trkpt><trkpt lat="40.1888745346646" lon="9.184609359037932"><ele>844.5</ele><time>2026-04-11T10:04:29Z</time></trkpt><trkpt lat="40.18897141305712" lon="9.184505722082385"><ele>846.0</ele><time>2026-04-11T10:04:30Z</time></trkpt><trkpt lat="40.18909374119525" lon="9.184420385486481"><ele>847.5</ele><time>2026-04-11T10:04:31Z</time></trkpt><trkpt lat="40.1892183163413" lon="9.184345104654692"><ele>849.0</ele><time>2026-04-11T10:04:32Z</time></trkpt><trkpt lat="40.18934832787436" lon="9.184269592573354"><ele>849.6666666666667</ele><time>2026-04-11T10:04:33Z</time></trkpt><trkpt lat="40.18948521975448" lon="9.184186612337877"><ele>850.3333333333334</ele><time>2026-04-11T10:04:34Z</time></trkpt><trkpt lat="40.18963161440285" lon="9.184092873767945"><ele>851.0</ele><time>2026-04-11T10:04:35Z</time></trkpt><trkpt lat="40.189783535556664" lon="9.183998414480309"><ele>850.6666666666667</ele><time>2026-04-11T10:04:36Z</time></trkpt><trkpt lat="40.18993847119466" lon="9.183907650197366"><ele>850.3333333333333</ele><time>2026-04-11T10:04:37Z</time></trkpt><trkpt lat="40.19009074230294" lon="9.183820030463478"><ele>850.0</ele><time>2026-04-11T10:04:38Z</time></trkpt><trkpt lat="40.19023748019279" lon="9.183736279913457"><ele>850.0</ele><time>2026-04-11T10:04:39Z</time></trkpt><trkpt lat="40.19038209711875" lon="9.183673412785733"><ele>850.0</ele><time>2026-04-11T10:04:40Z</time></trkpt><trkpt lat="40.19053784185283" lon="9.183640426325884"><ele>850.0</ele><time>2026-04-11T10:04:41Z</time></trkpt><trkpt lat="40.19070889162179" lon="9.18363751272184"><ele>846.0</ele><time>2026-04-11T10:04:42Z</time></trkpt><trkpt lat="40.19088365076468" lon="9.18366213704333"><ele>842.0</ele><time>2026-04-11T10:04:43Z</time></trkpt><trkpt lat="40.191056173909445" lon="9.183695207608661"><ele>838.0</ele><time>2026-04-11T10:04:44Z</time></trkpt><trkpt lat="40.1912174496916" lon="9.18371369930257"><ele>838.0</ele><time>2026-04-11T10:04:45Z</time></trkpt><trkpt lat="40.191354116317754" lon="9.183717887237181"><ele>838.0</ele><time>2026-04-11T10:04:46Z</time></trkpt><trkpt lat="40.191469771407306" lon="9.183699093133075"><ele>838.0</ele><time>2026-04-11T10:04:47Z</time></trkpt><trkpt lat="40.19155808093413" lon="9.183627807876594"><ele>838.0</ele><time>2026-04-11T10:04:48Z</time></trkpt><trkpt lat="40.19160195328323" lon="9.183507535698565"><ele>838.25</ele><time>2026-04-11T10:04:49Z</time></trkpt><trkpt lat="40.19160380541748" lon="9.183355029957328"><ele>838.5</ele><time>2026-04-11T10:04:50Z</time></trkpt><trkpt lat="40.191621758055625" lon="9.18320909399375"><ele>838.75</ele><time>2026-04-11T10:04:51Z</time></trkpt><trkpt lat="40.19169548449059" lon="9.183082729866323"><ele>839.0</ele><time>2026-04-11T10:04:52Z</time></trkpt><trkpt lat="40.191799865658126" lon="9.182996486781484"><ele>835.0</ele><time>2026-04-11T10:04:53Z</time></trkpt><trkpt lat="40.19193693777577" lon="9.18295755251474"><ele>831.0</ele><time>2026-04-11T10:04:54Z</time></trkpt><trkpt lat="40.1920963761243" lon="9.182939758205528"><ele>827.0</ele><time>2026-04-11T10:04:55Z</time></trkpt><trkpt lat="40.1922650116846" lon="9.182924295267712"><ele>823.6666666666667</ele><time>2026-04-11T10:04:56Z</time></trkpt><trkpt lat="40.19243709567514" lon="9.18292917357423"><ele>820.3333333333333</ele><time>2026-04-11T10:04:57Z</time></trkpt><trkpt lat="40.19260163447029" lon="9.18296485077226"><ele>817.0</ele><time>2026-04-11T10:04:58Z</time></trkpt><trkpt lat="40.192765329827914" lon="9.183031376565797"><ele>817.0</ele><time>2026-04-11T10:04:59Z</time></trkpt><trkpt lat="40.192914778717096" lon="9.183132533044125"><ele>817.0</ele><time>2026-04-11T10:05:00Z</time></trkpt><trkpt lat="40.19305424780433" lon="9.18324722868266"><ele>817.0</ele><time>2026-04-11T10:05:01Z</time></trkpt><trkpt lat="40.19318632313152" lon="9.183345632727237"><ele>821.6666666666666</ele><time>2026-04-11T10:05:02Z</time></trkpt><trkpt lat="40.19332335435418" lon="9.183395839282431"><ele>826.3333333333333</ele><time>2026-04-11T10:05:03Z</time></trkpt><trkpt lat="40.19347148147296" lon="9.183384703196332"><ele>831.0</ele><time>2026-04-11T10:05:04Z</time></trkpt><trkpt lat="40.19362197177527" lon="9.183291154951625"><ele>823.6666666666667</ele><time>2026-04-11T10:05:05Z</time></trkpt><trkpt lat="40.19376125032537" lon="9.183149065228429"><ele>816.3333333333334</ele><time>2026-04-11T10:05:06Z</time></trkpt><trkpt lat="40.19391326550702" lon="9.183058018067099"><ele>809.0</ele><time>2026-04-11T10:05:07Z</time></trkpt><trkpt lat="40.19408806278129" lon="9.18300350148943"><ele>807.6666666666667</ele><time>2026-04-11T10:05:08Z</time></trkpt><trkpt lat="40.194262466221225" lon="9.18296985816166"><ele>806.3333333333333</ele><time>2026-04-11T10:05:09Z</time></trkpt><trkpt lat="40.194423290852704" lon="9.182948159086841"><ele>805.0</ele><time>2026-04-11T10:05:10Z</time></trkpt><trkpt lat="40.19458386323088" lon="9.182946670206197"><ele>805.0</ele><time>2026-04-11T10:05:11Z</time></trkpt><trkpt lat="40.19473370937357" lon="9.182983323559503"><ele>805.0</ele><time>2026-04-11T10:05:12Z</time></trkpt><trkpt lat="40.19488953730246" lon="9.183051308910327"><ele>805.0</ele><time>2026-04-11T10:05:13Z</time></trkpt><trkpt lat="40.1950540154084" lon="9.183117547102675"><ele>803.6666666666666</ele><time>2026-04-11T10:05:14Z</time></trkpt><trkpt lat="40.19521896712511" lon="9.183123681738957"><ele>802.3333333333333</ele><time>2026-04-11T10:05:15Z</time></trkpt><trkpt lat="40.19539093005604" lon="9.18309964840365"><ele>801.0</ele><time>2026-04-11T10:05:16Z</time></trkpt><trkpt lat="40.19556743879385" lon="9.183024495031141"><ele>804.0</ele><time>2026-04-11T10:05:17Z</time></trkpt><trkpt lat="40.19572890587611" lon="9.182944274482715"><ele>807.0</ele><time>2026-04-11T10:05:18Z</time></trkpt><trkpt lat="40.195864086864034" lon="9.18284422337991"><ele>810.0</ele><time>2026-04-11T10:05:19Z</time></trkpt><trkpt lat="40.1959670836603" lon="9.182690563801591"><ele>810.0</ele><time>2026-04-11T10:05:20Z</time></trkpt><trkpt lat="40.19602439788195" lon="9.182477679134282"><ele>810.0</ele><time>2026-04-11T10:05:21Z</time></trkpt><trkpt lat="40.196038956400926" lon="9.182243207877875"><ele>810.0</ele><time>2026-04-11T10:05:22Z</time></trkpt><trkpt lat="40.19604937596844" lon="9.182025534840053"><ele>805.6666666666667</ele><time>2026-04-11T10:05:23Z</time></trkpt><trkpt lat="40.196099034659994" lon="9.181829997018601"><ele>801.3333333333334</ele><time>2026-04-11T10:05:24Z</time></trkpt><trkpt lat="40.19619708458387" lon="9.181664148734368"><ele>797.0</ele><time>2026-04-11T10:05:25Z</time></trkpt><trkpt lat="40.19632933932302" lon="9.181530800238273"><ele>793.0</ele><time>2026-04-11T10:05:26Z</time></trkpt><trkpt lat="40.19648652528161" lon="9.181428067649007"><ele>789.0</ele><time>2026-04-11T10:05:27Z</time></trkpt><trkpt lat="40.19667411374027" lon="9.181348089792648"><ele>785.0</ele><time>2026-04-11T10:05:28Z</time></trkpt><trkpt lat="40.19688143884333" lon="9.181313150851677"><ele>785.0</ele><time>2026-04-11T10:05:29Z</time></trkpt><trkpt lat="40.197094326376565" lon="9.181251586252072"><ele>785.0</ele><time>2026-04-11T10:05:30Z</time></trkpt><trkpt lat="40.197293425214724" lon="9.181122923395458"><ele>785.0</ele><time>2026-04-11T10:05:31Z</time></trkpt><trkpt lat="40.19750106882087" lon="9.181030031429714"><ele>792.0</ele><time>2026-04-11T10:05:32Z</time></trkpt><trkpt lat="40.197714212986405" lon="9.180866250520753"><ele>799.0</ele><time>2026-04-11T10:05:33Z</time></trkpt><trkpt lat="40.19792189865181" lon="9.180734477505503"><ele>792.6666666666666</ele><time>2026-04-11T10:05:34Z</time></trkpt><trkpt lat="40.19811954235286" lon="9.180620739570548"><ele>786.3333333333333</ele><time>2026-04-11T10:05:35Z</time></trkpt><trkpt lat="40.19831379675347" lon="9.180554751177434"><ele>780.0</ele><time>2026-04-11T10:05:36Z</time></trkpt><trkpt lat="40.19850227246486" lon="9.18051487853859"><ele>780.0</ele><time>2026-04-11T10:05:37Z</time></trkpt><trkpt lat="40.19870668835632" lon="9.180504383571055"><ele>780.0</ele><time>2026-04-11T10:05:38Z</time></trkpt><trkpt lat="40.19891969139655" lon="9.180518595194162"><ele>780.0</ele><time>2026-04-11T10:05:39Z</time></trkpt><trkpt lat="40.199134291687386" lon="9.180532273979372"><ele>780.3333333333333</ele><time>2026-04-11T10:05:40Z</time></trkpt><trkpt lat="40.19934467579479" lon="9.180537094015742"><ele>780.6666666666666</ele><time>2026-04-11T10:05:41Z</time></trkpt><trkpt lat="40.19954956692608" lon="9.180567724118736"><ele>781.0</ele><time>2026-04-11T10:05:42Z</time></trkpt><trkpt lat="40.19975402038809" lon="9.180639342892928"><ele>784.0</ele><time>2026-04-11T10:05:43Z</time></trkpt><trkpt lat="40.19995510366417" lon="9.18073949409555"><ele>787.0</ele><time>2026-04-11T10:05:44Z</time></trkpt><trkpt lat="40.20015490214016" lon="9.180854945482533"><ele>790.0</ele><time>2026-04-11T10:05:45Z</time></trkpt><trkpt lat="40.20034593763867" lon="9.180993314704088"><ele>790.0</ele><time>2026-04-11T10:05:46Z</time></trkpt><trkpt lat="40.20053350202234" lon="9.181163666454397"><ele>790.0</ele><time>2026-04-11T10:05:47Z</time></trkpt><trkpt lat="40.200703116544595" lon="9.181342015685619"><ele>790.0</ele><time>2026-04-11T10:05:48Z</time></trkpt><trkpt lat="40.20087015332477" lon="9.181518824964881"><ele>789.0</ele><time>2026-04-11T10:05:49Z</time></trkpt><trkpt lat="40.20102700658226" lon="9.18168593969212"><ele>788.0</ele><time>2026-04-11T10:05:50Z</time></trkpt><trkpt lat="40.20118978210745" lon="9.181833862431061"><ele>787.0</ele><time>2026-04-11T10:05:51Z</time></trkpt><trkpt lat="40.20132850098447" lon="9.181982731920645"><ele>787.0</ele><time>2026-04-11T10:05:52Z</time></trkpt><trkpt lat="40.20146002692769" lon="9.182099374560691"><ele>787.0</ele><time>2026-04-11T10:05:53Z</time></trkpt><trkpt lat="40.20161705418719" lon="9.18212148944109"><ele>787.0</ele><time>2026-04-11T10:05:54Z</time></trkpt><trkpt lat="40.201769488705324" lon="9.182077153250956"><ele>783.3333333333333</ele><time>2026-04-11T10:05:55Z</time></trkpt><trkpt lat="40.20190907009607" lon="9.181961941678773"><ele>779.6666666666667</ele><time>2026-04-11T10:05:56Z</time></trkpt><trkpt lat="40.20204078081394" lon="9.181809355062159"><ele>776.0</ele><time>2026-04-11T10:05:57Z</time></trkpt><trkpt lat="40.20213398245423" lon="9.181611459587382"><ele>772.3333333333334</ele><time>2026-04-11T10:05:58Z</time></trkpt><trkpt lat="40.202169722784376" lon="9.181376089451737"><ele>768.6666666666667</ele><time>2026-04-11T10:05:59Z</time></trkpt><trkpt lat="40.20215143881583" lon="9.18110434404445"><ele>765.0</ele><time>2026-04-11T10:06:00Z</time></trkpt><trkpt lat="40.202145508607735" lon="9.180840492636332"><ele>763.6666666666666</ele><time>2026-04-11T10:06:01Z</time></trkpt><trkpt lat="40.20214767218008" lon="9.180578363434465"><ele>762.3333333333333</ele><time>2026-04-11T10:06:02Z</time></trkpt><trkpt lat="40.20216036276959" lon="9.180326409580388"><ele>761.0</ele><time>2026-04-11T10:06:03Z</time></trkpt><trkpt lat="40.202173675700514" lon="9.180092706837929"><ele>761.0</ele><time>2026-04-11T10:06:04Z</time></trkpt><trkpt lat="40.202183897135896" lon="9.179879115043637"><ele>761.0</ele><time>2026-04-11T10:06:05Z</time></trkpt><trkpt lat="40.20224303721851" lon="9.179717537501684"><ele>761.0</ele><time>2026-04-11T10:06:06Z</time></trkpt><trkpt lat="40.20233265487497" lon="9.179584522167874"><ele>761.0</ele><time>2026-04-11T10:06:07Z</time></trkpt><trkpt lat="40.202450761010354" lon="9.179451596879929"><ele>761.0</ele><time>2026-04-11T10:06:08Z</time></trkpt><trkpt lat="40.20257796188584" lon="9.17938017327757"><ele>761.0</ele><time>2026-04-11T10:06:09Z</time></trkpt><trkpt lat="40.20272190298888" lon="9.179365532008935"><ele>761.0</ele><time>2026-04-11T10:06:10Z</time></trkpt><trkpt lat="40.202893791322666" lon="9.179387582139693"><ele>761.0</ele><time>2026-04-11T10:06:11Z</time></trkpt><trkpt lat="40.20308284128332" lon="9.179430299530235"><ele>761.0</ele><time>2026-04-11T10:06:12Z</time></trkpt><trkpt lat="40.203274639272564" lon="9.179495032754268"><ele>761.0</ele><time>2026-04-11T10:06:13Z</time></trkpt><trkpt lat="40.20344541144507" lon="9.179599876845192"><ele>761.6666666666666</ele><time>2026-04-11T10:06:14Z</time></trkpt><trkpt lat="40.20357905207085" lon="9.179739082820124"><ele>762.3333333333334</ele><time>2026-04-11T10:06:15Z</time></trkpt><trkpt lat="40.20368006400137" lon="9.17990540068168"><ele>763.0</ele><time>2026-04-11T10:06:16Z</time></trkpt><trkpt lat="40.20375119529213" lon="9.18010208809896"><ele>763.0</ele><time>2026-04-11T10:06:17Z</time></trkpt><trkpt lat="40.203763375072334" lon="9.180301087073127"><ele>763.0</ele><time>2026-04-11T10:06:18Z</time></trkpt><trkpt lat="40.20376981681434" lon="9.180556401504354"><ele>763.0</ele><time>2026-04-11T10:06:19Z</time></trkpt><trkpt lat="40.2037763679411" lon="9.18081573020178"><ele>764.6666666666667</ele><time>2026-04-11T10:06:20Z</time></trkpt><trkpt lat="40.20378301454342" lon="9.181078838769253"><ele>766.3333333333334</ele><time>2026-04-11T10:06:21Z</time></trkpt><trkpt lat="40.20378979561354" lon="9.181343966137913"><ele>768.0</ele><time>2026-04-11T10:06:22Z</time></trkpt><trkpt lat="40.20379066114512" lon="9.181593703550881"><ele>768.0</ele><time>2026-04-11T10:06:23Z</time></trkpt><trkpt lat="40.203762479984185" lon="9.181827333157452"><ele>768.0</ele><time>2026-04-11T10:06:24Z</time></trkpt><trkpt lat="40.203711068954355" lon="9.182039708512239"><ele>768.0</ele><time>2026-04-11T10:06:25Z</time></trkpt><trkpt lat="40.20364914839748" lon="9.182267276493343"><ele>766.3333333333334</ele><time>2026-04-11T10:06:26Z</time></trkpt><trkpt lat="40.2036478403902" lon="9.18248964658746"><ele>764.6666666666667</ele><time>2026-04-11T10:06:27Z</time></trkpt><trkpt lat="40.20365555533486" lon="9.182696757762834"><ele>763.0</ele><time>2026-04-11T10:06:28Z</time></trkpt><trkpt lat="40.20369323587883" lon="9.182925313810552"><ele>763.0</ele><time>2026-04-11T10:06:29Z</time></trkpt><trkpt lat="40.20382785703742" lon="9.183120972864621"><ele>763.0</ele><time>2026-04-11T10:06:30Z</time></trkpt><trkpt lat="40.20394184597938" lon="9.183331860566001"><ele>763.0</ele><time>2026-04-11T10:06:31Z</time></trkpt><trkpt lat="40.20404013246359" lon="9.18354943435541"><ele>756.0</ele><time>2026-04-11T10:06:32Z</time></trkpt><trkpt lat="40.20413560630247" lon="9.183757444046266"><ele>749.0</ele><time>2026-04-11T10:06:33Z</time></trkpt><trkpt lat="40.204234710056305" lon="9.183957045474024"><ele>742.0</ele><time>2026-04-11T10:06:34Z</time></trkpt><trkpt lat="40.20428490726624" lon="9.184157013990413"><ele>742.0</ele><time>2026-04-11T10:06:35Z</time></trkpt><trkpt lat="40.20428478964426" lon="9.184352886975939"><ele>742.0</ele><time>2026-04-11T10:06:36Z</time></trkpt><trkpt lat="40.204249615303894" lon="9.184526995085072"><ele>742.0</ele><time>2026-04-11T10:06:37Z</time></trkpt><trkpt lat="40.20422902043979" lon="9.184693253500718"><ele>742.0</ele><time>2026-04-11T10:06:38Z</time></trkpt><trkpt lat="40.204270272602166" lon="9.184858421952544"><ele>741.6666666666667</ele><time>2026-04-11T10:06:39Z</time></trkpt><trkpt lat="40.20437039960049" lon="9.184987193595909"><ele>741.3333333333334</ele><time>2026-04-11T10:06:40Z</time></trkpt><trkpt lat="40.20451361325913" lon="9.185091034914088"><ele>741.0</ele><time>2026-04-11T10:06:41Z</time></trkpt><trkpt lat="40.20463438767674" lon="9.185233964016096"><ele>741.0</ele><time>2026-04-11T10:06:42Z</time></trkpt><trkpt lat="40.20474341949005" lon="9.18542392628634"><ele>741.0</ele><time>2026-04-11T10:06:43Z</time></trkpt><trkpt lat="40.20483498732351" lon="9.185632036605822"><ele>741.0</ele><time>2026-04-11T10:06:44Z</time></trkpt><trkpt lat="40.20491366840446" lon="9.185831402986382"><ele>738.25</ele><time>2026-04-11T10:06:45Z</time></trkpt><trkpt lat="40.205000246774844" lon="9.185999049330368"><ele>735.5</ele><time>2026-04-11T10:06:46Z</time></trkpt><trkpt lat="40.20508923785839" lon="9.186137449158876"><ele>732.75</ele><time>2026-04-11T10:06:47Z</time></trkpt><trkpt lat="40.20523809447402" lon="9.186143135055763"><ele>730.0</ele><time>2026-04-11T10:06:48Z</time></trkpt><trkpt lat="40.2053848123134" lon="9.186107617504138"><ele>730.0</ele><time>2026-04-11T10:06:49Z</time></trkpt><trkpt lat="40.205526541504206" lon="9.186023412999324"><ele>730.0</ele><time>2026-04-11T10:06:50Z</time></trkpt><trkpt lat="40.20565696683087" lon="9.185897370376376"><ele>730.0</ele><time>2026-04-11T10:06:51Z</time></trkpt><trkpt lat="40.2057609795144" lon="9.185721655197602"><ele>729.3333333333334</ele><time>2026-04-11T10:06:52Z</time></trkpt><trkpt lat="40.2058086033511" lon="9.18550780686513"><ele>728.6666666666666</ele><time>2026-04-11T10:06:53Z</time></trkpt><trkpt lat="40.20582135238389" lon="9.185250081580028"><ele>728.0</ele><time>2026-04-11T10:06:54Z</time></trkpt><trkpt lat="40.205820149267865" lon="9.184972536304697"><ele>727.6666666666666</ele><time>2026-04-11T10:06:55Z</time></trkpt><trkpt lat="40.20582826343676" lon="9.184685253805094"><ele>727.3333333333334</ele><time>2026-04-11T10:06:56Z</time></trkpt><trkpt lat="40.20584596121619" lon="9.184392803165155"><ele>727.0</ele><time>2026-04-11T10:06:57Z</time></trkpt><trkpt lat="40.205866645340826" lon="9.184104360117189"><ele>726.0</ele><time>2026-04-11T10:06:58Z</time></trkpt><trkpt lat="40.20588953592" lon="9.18381200787722"><ele>725.0</ele><time>2026-04-11T10:06:59Z</time></trkpt><trkpt lat="40.20590910487562" lon="9.183518802289832"><ele>724.0</ele><time>2026-04-11T10:07:00Z</time></trkpt><trkpt lat="40.20592142727836" lon="9.18320922405709"><ele>722.0</ele><time>2026-04-11T10:07:01Z</time></trkpt><trkpt lat="40.20594449345426" lon="9.18289613114474"><ele>720.0</ele><time>2026-04-11T10:07:02Z</time></trkpt><trkpt lat="40.20596780994808" lon="9.182580829848035"><ele>718.0</ele><time>2026-04-11T10:07:03Z</time></trkpt><trkpt lat="40.20599004405179" lon="9.182261990453394"><ele>716.0</ele><time>2026-04-11T10:07:04Z</time></trkpt><trkpt lat="40.20600989941706" lon="9.181948568164419"><ele>716.0</ele><time>2026-04-11T10:07:05Z</time></trkpt><trkpt lat="40.206030307117494" lon="9.181650184123182"><ele>716.0</ele><time>2026-04-11T10:07:06Z</time></trkpt><trkpt lat="40.20605213975687" lon="9.181364604240882"><ele>716.0</ele><time>2026-04-11T10:07:07Z</time></trkpt><trkpt lat="40.20607489898895" lon="9.18109402661612"><ele>715.0</ele><time>2026-04-11T10:07:08Z</time></trkpt><trkpt lat="40.206094901948" lon="9.180838895618072"><ele>714.0</ele><time>2026-04-11T10:07:09Z</time></trkpt><trkpt lat="40.20612088320914" lon="9.18059526959178"><ele>713.0</ele><time>2026-04-11T10:07:10Z</time></trkpt><trkpt lat="40.20617149034491" lon="9.180373702986817"><ele>711.6666666666666</ele><time>2026-04-11T10:07:11Z</time></trkpt><trkpt lat="40.20624149244903" lon="9.180169362244635"><ele>710.3333333333334</ele><time>2026-04-11T10:07:12Z</time></trkpt><trkpt lat="40.20629977054394" lon="9.179968162561742"><ele>709.0</ele><time>2026-04-11T10:07:13Z</time></trkpt><trkpt lat="40.2063303651841" lon="9.17974294618993"><ele>708.3333333333334</ele><time>2026-04-11T10:07:14Z</time></trkpt><trkpt lat="40.20631455200917" lon="9.179500750830226"><ele>707.6666666666666</ele><time>2026-04-11T10:07:15Z</time></trkpt><trkpt lat="40.20628492730966" lon="9.179247158112231"><ele>707.0</ele><time>2026-04-11T10:07:16Z</time></trkpt><trkpt lat="40.2062602987036" lon="9.178983390169128"><ele>706.6666666666666</ele><time>2026-04-11T10:07:17Z</time></trkpt><trkpt lat="40.206246152396126" lon="9.178721061114127"><ele>706.3333333333334</ele><time>2026-04-11T10:07:18Z</time></trkpt><trkpt lat="40.206242254121754" lon="9.178467462985909"><ele>706.0</ele><time>2026-04-11T10:07:19Z</time></trkpt><trkpt lat="40.206257592395275" lon="9.1782076213041"><ele>705.0</ele><time>2026-04-11T10:07:20Z</time></trkpt><trkpt lat="40.206301401600555" lon="9.177931964706334"><ele>704.0</ele><time>2026-04-11T10:07:21Z</time></trkpt><trkpt lat="40.20635860675297" lon="9.177666490791317"><ele>703.0</ele><time>2026-04-11T10:07:22Z</time></trkpt><trkpt lat="40.206411341548915" lon="9.177417500803994"><ele>702.3333333333334</ele><time>2026-04-11T10:07:23Z</time></trkpt><trkpt lat="40.206441406474625" lon="9.177168496147688"><ele>701.6666666666666</ele><time>2026-04-11T10:07:24Z</time></trkpt><trkpt lat="40.20643073867566" lon="9.176903398832774"><ele>701.0</ele><time>2026-04-11T10:07:25Z</time></trkpt><trkpt lat="40.20639074735961" lon="9.176629482067838"><ele>699.6666666666666</ele><time>2026-04-11T10:07:26Z</time></trkpt><trkpt lat="40.206351662550766" lon="9.176359300096397"><ele>698.3333333333334</ele><time>2026-04-11T10:07:27Z</time></trkpt><trkpt lat="40.20632180452779" lon="9.176093202871753"><ele>697.0</ele><time>2026-04-11T10:07:28Z</time></trkpt><trkpt lat="40.2063237789453" lon="9.175839669719549"><ele>696.6666666666667</ele><time>2026-04-11T10:07:29Z</time></trkpt><trkpt lat="40.206358764229584" lon="9.175584719464382"><ele>696.3333333333334</ele><time>2026-04-11T10:07:30Z</time></trkpt><trkpt lat="40.206409836136196" lon="9.175351148859711"><ele>696.0</ele><time>2026-04-11T10:07:31Z</time></trkpt><trkpt lat="40.20648021118607" lon="9.175126040968673"><ele>695.6666666666666</ele><time>2026-04-11T10:07:32Z</time></trkpt><trkpt lat="40.206585384093785" lon="9.174894053065955"><ele>695.3333333333333</ele><time>2026-04-11T10:07:33Z</time></trkpt><trkpt lat="40.20669981658267" lon="9.174688791797847"><ele>695.0</ele><time>2026-04-11T10:07:34Z</time></trkpt><trkpt lat="40.20679779520836" lon="9.174500156093918"><ele>695.0</ele><time>2026-04-11T10:07:35Z</time></trkpt><trkpt lat="40.20689359740422" lon="9.17433830422741"><ele>695.0</ele><time>2026-04-11T10:07:36Z</time></trkpt><trkpt lat="40.20701146120578" lon="9.174222566630407"><ele>695.0</ele><time>2026-04-11T10:07:37Z</time></trkpt><trkpt lat="40.207164802540944" lon="9.174152347985768"><ele>692.3333333333333</ele><time>2026-04-11T10:07:38Z</time></trkpt><trkpt lat="40.207329902630896" lon="9.174086410539102"><ele>689.6666666666666</ele><time>2026-04-11T10:07:39Z</time></trkpt><trkpt lat="40.207479687768725" lon="9.173948221553799"><ele>687.0</ele><time>2026-04-11T10:07:40Z</time></trkpt><trkpt lat="40.207608437137786" lon="9.173751318193359"><ele>687.0</ele><time>2026-04-11T10:07:41Z</time></trkpt><trkpt lat="40.20772696552938" lon="9.173569927106838"><ele>687.0</ele><time>2026-04-11T10:07:42Z</time></trkpt><trkpt lat="40.20788420814804" lon="9.173435177345459"><ele>687.0</ele><time>2026-04-11T10:07:43Z</time></trkpt><trkpt lat="40.20808276901091" lon="9.173352876692597"><ele>689.6666666666666</ele><time>2026-04-11T10:07:44Z</time></trkpt><trkpt lat="40.208275478959024" lon="9.173264678201345"><ele>692.3333333333333</ele><time>2026-04-11T10:07:45Z</time></trkpt><trkpt lat="40.20845373088363" lon="9.173174682859711"><ele>695.0</ele><time>2026-04-11T10:07:46Z</time></trkpt><trkpt lat="40.20863204905629" lon="9.173085045393163"><ele>689.3333333333333</ele><time>2026-04-11T10:07:47Z</time></trkpt><trkpt lat="40.20883159454111" lon="9.173027097221027"><ele>683.6666666666666</ele><time>2026-04-11T10:07:48Z</time></trkpt><trkpt lat="40.20904314178114" lon="9.173000957446261"><ele>678.0</ele><time>2026-04-11T10:07:49Z</time></trkpt><trkpt lat="40.209262728150186" lon="9.172959417654347"><ele>676.5</ele><time>2026-04-11T10:07:50Z</time></trkpt><trkpt lat="40.20948345024093" lon="9.172874391856649"><ele>675.0</ele><time>2026-04-11T10:07:51Z</time></trkpt><trkpt lat="40.20969259007674" lon="9.172779168637502"><ele>674.3333333333334</ele><time>2026-04-11T10:07:52Z</time></trkpt><trkpt lat="40.209887359943544" lon="9.172693047218818"><ele>673.6666666666667</ele><time>2026-04-11T10:07:53Z</time></trkpt><trkpt lat="40.21006691069359" lon="9.172620873180835"><ele>673.0</ele><time>2026-04-11T10:07:54Z</time></trkpt><trkpt lat="40.210242025465156" lon="9.172576945602174"><ele>673.0</ele><time>2026-04-11T10:07:55Z</time></trkpt><trkpt lat="40.210420889260725" lon="9.172587483683184"><ele>673.0</ele><time>2026-04-11T10:07:56Z</time></trkpt><trkpt lat="40.210610391810164" lon="9.172646326754755"><ele>673.0</ele><time>2026-04-11T10:07:57Z</time></trkpt><trkpt lat="40.210801997212606" lon="9.172730523221446"><ele>673.3333333333334</ele><time>2026-04-11T10:07:58Z</time></trkpt><trkpt lat="40.210989833506645" lon="9.172786992112949"><ele>673.6666666666666</ele><time>2026-04-11T10:07:59Z</time></trkpt><trkpt lat="40.21118969360864" lon="9.172783020458539"><ele>674.0</ele><time>2026-04-11T10:08:00Z</time></trkpt><trkpt lat="40.211396336938016" lon="9.172736561777779"><ele>672.6666666666666</ele><time>2026-04-11T10:08:01Z</time></trkpt><trkpt lat="40.211586355024586" lon="9.172677350411094"><ele>671.3333333333334</ele><time>2026-04-11T10:08:02Z</time></trkpt><trkpt lat="40.211784644578344" lon="9.172670112285207"><ele>670.0</ele><time>2026-04-11T10:08:03Z</time></trkpt><trkpt lat="40.21198668224467" lon="9.17271160568844"><ele>670.0</ele><time>2026-04-11T10:08:04Z</time></trkpt><trkpt lat="40.21216635513479" lon="9.172810678412267"><ele>670.0</ele><time>2026-04-11T10:08:05Z</time></trkpt><trkpt lat="40.21234234150905" lon="9.172906453087657"><ele>670.0</ele><time>2026-04-11T10:08:06Z</time></trkpt><trkpt lat="40.21253015524746" lon="9.1730034871875"><ele>672.3333333333334</ele><time>2026-04-11T10:08:07Z</time></trkpt><trkpt lat="40.21270368480645" lon="9.17312357307529"><ele>674.6666666666666</ele><time>2026-04-11T10:08:08Z</time></trkpt><trkpt lat="40.212861895307114" lon="9.17319350823694"><ele>677.0</ele><time>2026-04-11T10:08:09Z</time></trkpt><trkpt lat="40.21303334010879" lon="9.173183127880744"><ele>670.0</ele><time>2026-04-11T10:08:10Z</time></trkpt><trkpt lat="40.21318530505808" lon="9.17311858048529"><ele>663.0</ele><time>2026-04-11T10:08:11Z</time></trkpt><trkpt lat="40.213324509745455" lon="9.172995996663257"><ele>656.0</ele><time>2026-04-11T10:08:12Z</time></trkpt><trkpt lat="40.21347087281887" lon="9.172886043243846"><ele>656.0</ele><time>2026-04-11T10:08:13Z</time></trkpt><trkpt lat="40.21358780794372" lon="9.172791091527847"><ele>656.0</ele><time>2026-04-11T10:08:14Z</time></trkpt><trkpt lat="40.21370050835065" lon="9.172740154739062"><ele>656.0</ele><time>2026-04-11T10:08:15Z</time></trkpt><trkpt lat="40.21380480629589" lon="9.172749872427648"><ele>656.0</ele><time>2026-04-11T10:08:16Z</time></trkpt><trkpt lat="40.21392222752354" lon="9.172805829454983"><ele>653.3333333333333</ele><time>2026-04-11T10:08:17Z</time></trkpt><trkpt lat="40.21406653911074" lon="9.172888707822851"><ele>650.6666666666666</ele><time>2026-04-11T10:08:18Z</time></trkpt><trkpt lat="40.21421545133787" lon="9.172996310287493"><ele>648.0</ele><time>2026-04-11T10:08:19Z</time></trkpt><trkpt lat="40.21437430045164" lon="9.17309304571564"><ele>648.0</ele><time>2026-04-11T10:08:20Z</time></trkpt><trkpt lat="40.2145343006478" lon="9.173169803311312"><ele>648.0</ele><time>2026-04-11T10:08:21Z</time></trkpt><trkpt lat="40.21466526837852" lon="9.173276369679074"><ele>648.0</ele><time>2026-04-11T10:08:22Z</time></trkpt><trkpt lat="40.214761146492" lon="9.173381769938075"><ele>652.75</ele><time>2026-04-11T10:08:23Z</time></trkpt><trkpt lat="40.21480880700289" lon="9.173522985393104"><ele>657.5</ele><time>2026-04-11T10:08:24Z</time></trkpt><trkpt lat="40.21478704086519" lon="9.173703989918053"><ele>662.25</ele><time>2026-04-11T10:08:25Z</time></trkpt><trkpt lat="40.21478771859628" lon="9.173899238913654"><ele>667.0</ele><time>2026-04-11T10:08:26Z</time></trkpt><trkpt lat="40.214814485855214" lon="9.174100094361163"><ele>664.75</ele><time>2026-04-11T10:08:27Z</time></trkpt><trkpt lat="40.21487050420364" lon="9.174282136726218"><ele>662.5</ele><time>2026-04-11T10:08:28Z</time></trkpt><trkpt lat="40.214942935574314" lon="9.174414389241065"><ele>660.25</ele><time>2026-04-11T10:08:29Z</time></trkpt><trkpt lat="40.21503733278748" lon="9.174508076962502"><ele>658.0</ele><time>2026-04-11T10:08:30Z</time></trkpt><trkpt lat="40.215148808751124" lon="9.174554217700374"><ele>658.0</ele><time>2026-04-11T10:08:31Z</time></trkpt><trkpt lat="40.21526566999925" lon="9.174534998544607"><ele>658.0</ele><time>2026-04-11T10:08:32Z</time></trkpt><trkpt lat="40.215372062978794" lon="9.17441753432835"><ele>658.0</ele><time>2026-04-11T10:08:33Z</time></trkpt><trkpt lat="40.215429624638716" lon="9.174252301335745"><ele>658.0</ele><time>2026-04-11T10:08:34Z</time></trkpt><trkpt lat="40.21543619273341" lon="9.174056665015254"><ele>656.5</ele><time>2026-04-11T10:08:35Z</time></trkpt><trkpt lat="40.215458756858915" lon="9.173859176474092"><ele>655.0</ele><time>2026-04-11T10:08:36Z</time></trkpt><trkpt lat="40.215499473028096" lon="9.17368469524834"><ele>653.5</ele><time>2026-04-11T10:08:37Z</time></trkpt><trkpt lat="40.215575568259524" lon="9.173548129198519"><ele>652.0</ele><time>2026-04-11T10:08:38Z</time></trkpt><trkpt lat="40.215683634570084" lon="9.173476810003661"><ele>652.0</ele><time>2026-04-11T10:08:39Z</time></trkpt><trkpt lat="40.215821054130195" lon="9.173432004383036"><ele>652.0</ele><time>2026-04-11T10:08:40Z</time></trkpt><trkpt lat="40.215962988024" lon="9.173353320293204"><ele>652.0</ele><time>2026-04-11T10:08:41Z</time></trkpt><trkpt lat="40.21608679207258" lon="9.173260788545534"><ele>652.0</ele><time>2026-04-11T10:08:42Z</time></trkpt><trkpt lat="40.21615116636553" lon="9.173103185717483"><ele>651.3333333333334</ele><time>2026-04-11T10:08:43Z</time></trkpt><trkpt lat="40.21615672182354" lon="9.172902860316528"><ele>650.6666666666666</ele><time>2026-04-11T10:08:44Z</time></trkpt><trkpt lat="40.2161411100046" lon="9.17269245455015"><ele>650.0</ele><time>2026-04-11T10:08:45Z</time></trkpt><trkpt lat="40.21614082880505" lon="9.172481077565193"><ele>652.5</ele><time>2026-04-11T10:08:46Z</time></trkpt><trkpt lat="40.21614672559051" lon="9.17227623028595"><ele>655.0</ele><time>2026-04-11T10:08:47Z</time></trkpt><trkpt lat="40.21613813327227" lon="9.172092396763755"><ele>657.5</ele><time>2026-04-11T10:08:48Z</time></trkpt><trkpt lat="40.216091716615466" lon="9.17194381696537"><ele>660.0</ele><time>2026-04-11T10:08:49Z</time></trkpt><trkpt lat="40.215987176855705" lon="9.171842303365557"><ele>660.0</ele><time>2026-04-11T10:08:50Z</time></trkpt><trkpt lat="40.21584247959143" lon="9.17181018396892"><ele>660.0</ele><time>2026-04-11T10:08:51Z</time></trkpt><trkpt lat="40.21569117730263" lon="9.171829201686988"><ele>660.0</ele><time>2026-04-11T10:08:52Z</time></trkpt><trkpt lat="40.21555953390329" lon="9.171810101463615"><ele>660.0</ele><time>2026-04-11T10:08:53Z</time></trkpt><trkpt lat="40.21545924424867" lon="9.171673995890302"><ele>662.3333333333334</ele><time>2026-04-11T10:08:54Z</time></trkpt><trkpt lat="40.215353126051134" lon="9.171504438874218"><ele>664.6666666666667</ele><time>2026-04-11T10:08:55Z</time></trkpt><trkpt lat="40.215216204725756" lon="9.171362697888474"><ele>667.0</ele><time>2026-04-11T10:08:56Z</time></trkpt><trkpt lat="40.21505537711291" lon="9.171238290628535"><ele>667.0</ele><time>2026-04-11T10:08:57Z</time></trkpt><trkpt lat="40.214894319780775" lon="9.17111043610569"><ele>667.0</ele><time>2026-04-11T10:08:58Z</time></trkpt><trkpt lat="40.21478059912014" lon="9.170942393921521"><ele>667.0</ele><time>2026-04-11T10:08:59Z</time></trkpt><trkpt lat="40.21469007884413" lon="9.170783066931081"><ele>662.5</ele><time>2026-04-11T10:09:00Z</time></trkpt><trkpt lat="40.21463879030062" lon="9.170609869939017"><ele>658.0</ele><time>2026-04-11T10:09:01Z</time></trkpt><trkpt lat="40.21461996923494" lon="9.170434115524062"><ele>653.5</ele><time>2026-04-11T10:09:02Z</time></trkpt><trkpt lat="40.21467470068178" lon="9.170279511656938"><ele>649.0</ele><time>2026-04-11T10:09:03Z</time></trkpt><trkpt lat="40.2147466001883" lon="9.170103505224722"><ele>649.0</ele><time>2026-04-11T10:09:04Z</time></trkpt><trkpt lat="40.21481648071151" lon="9.169912066485823"><ele>649.0</ele><time>2026-04-11T10:09:05Z</time></trkpt><trkpt lat="40.21490995244311" lon="9.169758069742796"><ele>649.0</ele><time>2026-04-11T10:09:06Z</time></trkpt><trkpt lat="40.21503196044658" lon="9.169697530290165"><ele>649.0</ele><time>2026-04-11T10:09:07Z</time></trkpt><trkpt lat="40.215174924999836" lon="9.169649421231249"><ele>649.3333333333334</ele><time>2026-04-11T10:09:08Z</time></trkpt><trkpt lat="40.21533496942182" lon="9.169580852871379"><ele>649.6666666666666</ele><time>2026-04-11T10:09:09Z</time></trkpt><trkpt lat="40.215519261562164" lon="9.16953625858208"><ele>650.0</ele><time>2026-04-11T10:09:10Z</time></trkpt><trkpt lat="40.21571478869427" lon="9.1694916244652"><ele>650.0</ele><time>2026-04-11T10:09:11Z</time></trkpt><trkpt lat="40.21591730139927" lon="9.169478499987138"><ele>650.0</ele><time>2026-04-11T10:09:12Z</time></trkpt><trkpt lat="40.21612432631379" lon="9.16951279373214"><ele>650.0</ele><time>2026-04-11T10:09:13Z</time></trkpt><trkpt lat="40.21632186978034" lon="9.169528472605224"><ele>649.3333333333333</ele><time>2026-04-11T10:09:14Z</time></trkpt><trkpt lat="40.21650013745769" lon="9.169569515778678"><ele>648.6666666666666</ele><time>2026-04-11T10:09:15Z</time></trkpt><trkpt lat="40.216680413124536" lon="9.169578239317586"><ele>648.0</ele><time>2026-04-11T10:09:16Z</time></trkpt><trkpt lat="40.216851698871494" lon="9.169563137433432"><ele>648.0</ele><time>2026-04-11T10:09:17Z</time></trkpt><trkpt lat="40.21702065437148" lon="9.169494095921314"><ele>648.0</ele><time>2026-04-11T10:09:18Z</time></trkpt><trkpt lat="40.217172376335895" lon="9.169355812457342"><ele>648.0</ele><time>2026-04-11T10:09:19Z</time></trkpt><trkpt lat="40.21729994649279" lon="9.169153100889346"><ele>648.0</ele><time>2026-04-11T10:09:20Z</time></trkpt><trkpt lat="40.217405811720496" lon="9.168902483815357"><ele>648.0</ele><time>2026-04-11T10:09:21Z</time></trkpt><trkpt lat="40.21749644427591" lon="9.168643171994171"><ele>648.0</ele><time>2026-04-11T10:09:22Z</time></trkpt><trkpt lat="40.217583836003804" lon="9.168400042532392"><ele>646.6666666666666</ele><time>2026-04-11T10:09:23Z</time></trkpt><trkpt lat="40.21766424655529" lon="9.168178012175158"><ele>645.3333333333333</ele><time>2026-04-11T10:09:24Z</time></trkpt><trkpt lat="40.2177280336202" lon="9.167965501669922"><ele>644.0</ele><time>2026-04-11T10:09:25Z</time></trkpt><trkpt lat="40.21774296589938" lon="9.16776866264332"><ele>644.0</ele><time>2026-04-11T10:09:26Z</time></trkpt><trkpt lat="40.21769568890583" lon="9.16757007558539"><ele>644.0</ele><time>2026-04-11T10:09:27Z</time></trkpt><trkpt lat="40.21758962489906" lon="9.167371984488332"><ele>644.0</ele><time>2026-04-11T10:09:28Z</time></trkpt><trkpt lat="40.21745590447052" lon="9.167169108506084"><ele>640.6666666666666</ele><time>2026-04-11T10:09:29Z</time></trkpt><trkpt lat="40.2173070174729" lon="9.16696950330871"><ele>637.3333333333334</ele><time>2026-04-11T10:09:30Z</time></trkpt><trkpt lat="40.21713054314572" lon="9.166780128718592"><ele>634.0</ele><time>2026-04-11T10:09:31Z</time></trkpt><trkpt lat="40.21693579895274" lon="9.166614487082779"><ele>636.5</ele><time>2026-04-11T10:09:32Z</time></trkpt><trkpt lat="40.216742267301214" lon="9.16644427282554"><ele>639.0</ele><time>2026-04-11T10:09:33Z</time></trkpt><trkpt lat="40.216565577064934" lon="9.166255374002066"><ele>633.3333333333334</ele><time>2026-04-11T10:09:34Z</time></trkpt><trkpt lat="40.21642694851416" lon="9.166029067967003"><ele>627.6666666666667</ele><time>2026-04-11T10:09:35Z</time></trkpt><trkpt lat="40.21629649648167" lon="9.165834317622059"><ele>622.0</ele><time>2026-04-11T10:09:36Z</time></trkpt><trkpt lat="40.21620013040937" lon="9.165662996854874"><ele>620.75</ele><time>2026-04-11T10:09:37Z</time></trkpt><trkpt lat="40.21615990562806" lon="9.165500042018875"><ele>619.5</ele><time>2026-04-11T10:09:38Z</time></trkpt><trkpt lat="40.21615996340478" lon="9.16536056686618"><ele>618.25</ele><time>2026-04-11T10:09:39Z</time></trkpt><trkpt lat="40.2162166531672" lon="9.165242956293266"><ele>617.0</ele><time>2026-04-11T10:09:40Z</time></trkpt><trkpt lat="40.21630704292614" lon="9.165090882343344"><ele>617.0</ele><time>2026-04-11T10:09:41Z</time></trkpt><trkpt lat="40.21641804406061" lon="9.164992412130593"><ele>617.0</ele><time>2026-04-11T10:09:42Z</time></trkpt><trkpt lat="40.216556174402186" lon="9.164916399169833"><ele>617.0</ele><time>2026-04-11T10:09:43Z</time></trkpt><trkpt lat="40.21670462289126" lon="9.164882015798254"><ele>617.0</ele><time>2026-04-11T10:09:44Z</time></trkpt><trkpt lat="40.21682775119246" lon="9.164902841678582"><ele>620.0</ele><time>2026-04-11T10:09:45Z</time></trkpt><trkpt lat="40.21692520311778" lon="9.164986756795722"><ele>623.0</ele><time>2026-04-11T10:09:46Z</time></trkpt><trkpt lat="40.21703634589165" lon="9.16509909278958"><ele>626.0</ele><time>2026-04-11T10:09:47Z</time></trkpt><trkpt lat="40.21715009191159" lon="9.165248611777734"><ele>629.0</ele><time>2026-04-11T10:09:48Z</time></trkpt><trkpt lat="40.21729690082367" lon="9.165380257099073"><ele>625.0</ele><time>2026-04-11T10:09:49Z</time></trkpt><trkpt lat="40.21746623063196" lon="9.165498334206173"><ele>621.0</ele><time>2026-04-11T10:09:50Z</time></trkpt><trkpt lat="40.217656195900496" lon="9.165602480948476"><ele>617.0</ele><time>2026-04-11T10:09:51Z</time></trkpt><trkpt lat="40.21784429828293" lon="9.165687644233818"><ele>619.6666666666666</ele><time>2026-04-11T10:09:52Z</time></trkpt><trkpt lat="40.21804290100802" lon="9.165784264976237"><ele>622.3333333333334</ele><time>2026-04-11T10:09:53Z</time></trkpt><trkpt lat="40.2182486350401" lon="9.165885665989887"><ele>625.0</ele><time>2026-04-11T10:09:54Z</time></trkpt><trkpt lat="40.218454973073804" lon="9.165988774504939"><ele>625.0</ele><time>2026-04-11T10:09:55Z</time></trkpt><trkpt lat="40.218660707504206" lon="9.166095575698792"><ele>625.0</ele><time>2026-04-11T10:09:56Z</time></trkpt><trkpt lat="40.21885967579061" lon="9.166190528319397"><ele>625.0</ele><time>2026-04-11T10:09:57Z</time></trkpt><trkpt lat="40.21905416366805" lon="9.16625236591855"><ele>622.0</ele><time>2026-04-11T10:09:58Z</time></trkpt><trkpt lat="40.21923027054365" lon="9.16629541289806"><ele>619.0</ele><time>2026-04-11T10:09:59Z</time></trkpt><trkpt lat="40.219383706003924" lon="9.166318913971532"><ele>616.0</ele><time>2026-04-11T10:10:00Z</time></trkpt><trkpt lat="40.21952813775562" lon="9.166287702860927"><ele>616.0</ele><time>2026-04-11T10:10:01Z</time></trkpt><trkpt lat="40.21967692629179" lon="9.166188527055859"><ele>616.0</ele><time>2026-04-11T10:10:02Z</time></trkpt><trkpt lat="40.219801857129625" lon="9.165999359176263"><ele>616.0</ele><time>2026-04-11T10:10:03Z</time></trkpt><trkpt lat="40.21990498342123" lon="9.165773977770082"><ele>616.3333333333334</ele><time>2026-04-11T10:10:04Z</time></trkpt><trkpt lat="40.219993200787044" lon="9.165526844940178"><ele>616.6666666666666</ele><time>2026-04-11T10:10:05Z</time></trkpt><trkpt lat="40.220073277880715" lon="9.165275536814086"><ele>617.0</ele><time>2026-04-11T10:10:06Z</time></trkpt><trkpt lat="40.22016339742013" lon="9.165018097830918"><ele>613.6666666666666</ele><time>2026-04-11T10:10:07Z</time></trkpt><trkpt lat="40.22028435365262" lon="9.1647757219231"><ele>610.3333333333334</ele><time>2026-04-11T10:10:08Z</time></trkpt><trkpt lat="40.220387892047356" lon="9.1645272547693"><ele>607.0</ele><time>2026-04-11T10:10:09Z</time></trkpt><trkpt lat="40.220507535072066" lon="9.16431570756093"><ele>607.0</ele><time>2026-04-11T10:10:10Z</time></trkpt><trkpt lat="40.220619855757015" lon="9.16413055283136"><ele>607.0</ele><time>2026-04-11T10:10:11Z</time></trkpt><trkpt lat="40.22071326517542" lon="9.16397611782153"><ele>607.0</ele><time>2026-04-11T10:10:12Z</time></trkpt><trkpt lat="40.220803901747225" lon="9.163850257875996"><ele>607.3333333333334</ele><time>2026-04-11T10:10:13Z</time></trkpt><trkpt lat="40.22092659988871" lon="9.16378029882819"><ele>607.6666666666666</ele><time>2026-04-11T10:10:14Z</time></trkpt><trkpt lat="40.22107588762881" lon="9.163754722151943"><ele>608.0</ele><time>2026-04-11T10:10:15Z</time></trkpt><trkpt lat="40.221244247965345" lon="9.163691632936493"><ele>608.0</ele><time>2026-04-11T10:10:16Z</time></trkpt><trkpt lat="40.221415150436435" lon="9.163660972755526"><ele>608.0</ele><time>2026-04-11T10:10:17Z</time></trkpt><trkpt lat="40.2215901513253" lon="9.163617940580389"><ele>608.0</ele><time>2026-04-11T10:10:18Z</time></trkpt><trkpt lat="40.221766767594474" lon="9.163575196877778"><ele>608.6666666666666</ele><time>2026-04-11T10:10:19Z</time></trkpt><trkpt lat="40.22195779656468" lon="9.16353583614061"><ele>609.3333333333334</ele><time>2026-04-11T10:10:20Z</time></trkpt><trkpt lat="40.222152415609116" lon="9.163488476688963"><ele>610.0</ele><time>2026-04-11T10:10:21Z</time></trkpt><trkpt lat="40.22234148165596" lon="9.163434606691405"><ele>610.0</ele><time>2026-04-11T10:10:22Z</time></trkpt><trkpt lat="40.22252547913924" lon="9.163380514024798"><ele>610.0</ele><time>2026-04-11T10:10:23Z</time></trkpt><trkpt lat="40.22270065577046" lon="9.163336662126847"><ele>610.0</ele><time>2026-04-11T10:10:24Z</time></trkpt><trkpt lat="40.22286833223311" lon="9.163302786369547"><ele>610.0</ele><time>2026-04-11T10:10:25Z</time></trkpt><trkpt lat="40.22302293037143" lon="9.163271783095158"><ele>610.0</ele><time>2026-04-11T10:10:26Z</time></trkpt><trkpt lat="40.223159383925186" lon="9.163292908643069"><ele>610.0</ele><time>2026-04-11T10:10:27Z</time></trkpt><trkpt lat="40.22328443258154" lon="9.163321046207562"><ele>610.0</ele><time>2026-04-11T10:10:28Z</time></trkpt><trkpt lat="40.223388222655956" lon="9.163430512265732"><ele>608.75</ele><time>2026-04-11T10:10:29Z</time></trkpt><trkpt lat="40.2235007482861" lon="9.163513461613373"><ele>607.5</ele><time>2026-04-11T10:10:30Z</time></trkpt><trkpt lat="40.22360363268517" lon="9.16361349789362"><ele>606.25</ele><time>2026-04-11T10:10:31Z</time></trkpt><trkpt lat="40.22371928735232" lon="9.163664899495688"><ele>605.0</ele><time>2026-04-11T10:10:32Z</time></trkpt><trkpt lat="40.22384152540052" lon="9.163640196578557"><ele>605.0</ele><time>2026-04-11T10:10:33Z</time></trkpt><trkpt lat="40.22395569446414" lon="9.163560878567743"><ele>605.0</ele><time>2026-04-11T10:10:34Z</time></trkpt><trkpt lat="40.224067961617294" lon="9.16347301869921"><ele>605.0</ele><time>2026-04-11T10:10:35Z</time></trkpt><trkpt lat="40.224176292979145" lon="9.163398990377702"><ele>605.0</ele><time>2026-04-11T10:10:36Z</time></trkpt><trkpt lat="40.22429610849205" lon="9.163368645048388"><ele>604.0</ele><time>2026-04-11T10:10:37Z</time></trkpt><trkpt lat="40.22441585258584" lon="9.163342269640626"><ele>603.0</ele><time>2026-04-11T10:10:38Z</time></trkpt><trkpt lat="40.22454340465488" lon="9.163315071620048"><ele>602.0</ele><time>2026-04-11T10:10:39Z</time></trkpt><trkpt lat="40.2246793358462" lon="9.163333190124774"><ele>601.0</ele><time>2026-04-11T10:10:40Z</time></trkpt><trkpt lat="40.224807318797254" lon="9.163343273456068"><ele>599.6</ele><time>2026-04-11T10:10:41Z</time></trkpt><trkpt lat="40.22491680641196" lon="9.163364167741976"><ele>598.2</ele><time>2026-04-11T10:10:42Z</time></trkpt><trkpt lat="40.225006790007555" lon="9.163397624609857"><ele>596.8</ele><time>2026-04-11T10:10:43Z</time></trkpt><trkpt lat="40.225077927744046" lon="9.16344178564495"><ele>595.4</ele><time>2026-04-11T10:10:44Z</time></trkpt><trkpt lat="40.225153253503606" lon="9.163508036362048"><ele>594.0</ele><time>2026-04-11T10:10:46Z</time></trkpt><trkpt lat="40.225178988034365" lon="9.163390322277982"><ele>594.0</ele><time>2026-04-11T10:10:48Z</time></trkpt><trkpt lat="40.225098122003466" lon="9.163292781047945"><ele>594.0</ele><time>2026-04-11T10:10:50Z</time></trkpt><trkpt lat="40.22502675193062" lon="9.1632383997477"><ele>594.0</ele><time>2026-04-11T10:10:51Z</time></trkpt><trkpt lat="40.22493941383144" lon="9.163183519123523"><ele>594.0</ele><time>2026-04-11T10:10:52Z</time></trkpt><trkpt lat="40.224838071019555" lon="9.163127862478719"><ele>594.0</ele><time>2026-04-11T10:10:53Z</time></trkpt><trkpt lat="40.22473870037485" lon="9.163047578688003"><ele>593.2</ele><time>2026-04-11T10:10:54Z</time></trkpt><trkpt lat="40.22462994456573" lon="9.16299732615172"><ele>592.4</ele><time>2026-04-11T10:10:55Z</time></trkpt><trkpt lat="40.224544486219706" lon="9.162928214230398"><ele>591.6</ele><time>2026-04-11T10:10:56Z</time></trkpt><trkpt lat="40.224476785753104" lon="9.162872639085066"><ele>590.8</ele><time>2026-04-11T10:10:57Z</time></trkpt><trkpt lat="40.22440178464606" lon="9.162795661084164"><ele>590.0</ele><time>2026-04-11T10:10:59Z</time></trkpt><trkpt lat="40.22449667211904" lon="9.162618685054346"><ele>590.0</ele><time>2026-04-11T10:11:01Z</time></trkpt><trkpt lat="40.22457847218597" lon="9.16259389847808"><ele>590.0</ele><time>2026-04-11T10:11:02Z</time></trkpt><trkpt lat="40.22467477180026" lon="9.162585323589942"><ele>590.0</ele><time>2026-04-11T10:11:03Z</time></trkpt><trkpt lat="40.224775941323315" lon="9.162589106707346"><ele>590.0</ele><time>2026-04-11T10:11:04Z</time></trkpt><trkpt lat="40.22487557632695" lon="9.162617273667317"><ele>590.0</ele><time>2026-04-11T10:11:05Z</time></trkpt><trkpt lat="40.22496857608415" lon="9.162652442575704"><ele>589.2</ele><time>2026-04-11T10:11:06Z</time></trkpt><trkpt lat="40.22505831148491" lon="9.162700655877163"><ele>588.4</ele><time>2026-04-11T10:11:07Z</time></trkpt><trkpt lat="40.22514944864329" lon="9.1627597079618"><ele>587.6</ele><time>2026-04-11T10:11:08Z</time></trkpt><trkpt lat="40.22523905053675" lon="9.162837886090498"><ele>586.8</ele><time>2026-04-11T10:11:09Z</time></trkpt><trkpt lat="40.2253031913612" lon="9.162937936005111"><ele>586.0</ele><time>2026-04-11T10:11:10Z</time></trkpt><trkpt lat="40.22535211308657" lon="9.163061060480196"><ele>588.0</ele><time>2026-04-11T10:11:11Z</time></trkpt><trkpt lat="40.22537710040984" lon="9.163219332125344"><ele>590.0</ele><time>2026-04-11T10:11:12Z</time></trkpt><trkpt lat="40.22539210346726" lon="9.163392515713065"><ele>592.0</ele><time>2026-04-11T10:11:13Z</time></trkpt><trkpt lat="40.22543167847433" lon="9.163556103140225"><ele>594.0</ele><time>2026-04-11T10:11:14Z</time></trkpt><trkpt lat="40.22548284889239" lon="9.163709477772414"><ele>594.0</ele><time>2026-04-11T10:11:15Z</time></trkpt><trkpt lat="40.22555278322187" lon="9.163855952558889"><ele>594.0</ele><time>2026-04-11T10:11:16Z</time></trkpt><trkpt lat="40.225632408501305" lon="9.164000453062368"><ele>594.0</ele><time>2026-04-11T10:11:17Z</time></trkpt><trkpt lat="40.225712762872725" lon="9.164139220273505"><ele>594.0</ele><time>2026-04-11T10:11:18Z</time></trkpt><trkpt lat="40.22579735099211" lon="9.164267584154972"><ele>592.5</ele><time>2026-04-11T10:11:19Z</time></trkpt><trkpt lat="40.22587409306229" lon="9.164370023772243"><ele>591.0</ele><time>2026-04-11T10:11:20Z</time></trkpt><trkpt lat="40.225978869687275" lon="9.1644589042588"><ele>589.5</ele><time>2026-04-11T10:11:21Z</time></trkpt><trkpt lat="40.226111131709075" lon="9.1645084534903"><ele>588.0</ele><time>2026-04-11T10:11:22Z</time></trkpt><trkpt lat="40.22622956397026" lon="9.164558663781184"><ele>588.0</ele><time>2026-04-11T10:11:23Z</time></trkpt><trkpt lat="40.22633728418196" lon="9.164604365872524"><ele>588.0</ele><time>2026-04-11T10:11:24Z</time></trkpt><trkpt lat="40.226444419086604" lon="9.16461876420697"><ele>588.0</ele><time>2026-04-11T10:11:25Z</time></trkpt><trkpt lat="40.226546031186466" lon="9.164600594006718"><ele>588.0</ele><time>2026-04-11T10:11:26Z</time></trkpt><trkpt lat="40.22664223487811" lon="9.164557701016141"><ele>588.0</ele><time>2026-04-11T10:11:27Z</time></trkpt><trkpt lat="40.22673150733837" lon="9.1644782517385"><ele>585.0</ele><time>2026-04-11T10:11:28Z</time></trkpt><trkpt lat="40.226808728470644" lon="9.164367437504724"><ele>582.0</ele><time>2026-04-11T10:11:29Z</time></trkpt><trkpt lat="40.22686373478439" lon="9.164226473105082"><ele>579.0</ele><time>2026-04-11T10:11:30Z</time></trkpt><trkpt lat="40.22692016118329" lon="9.164078478079285"><ele>576.0</ele><time>2026-04-11T10:11:31Z</time></trkpt><trkpt lat="40.226989526584646" lon="9.16392519708561"><ele>574.0</ele><time>2026-04-11T10:11:32Z</time></trkpt><trkpt lat="40.22706671253024" lon="9.163770299301762"><ele>572.0</ele><time>2026-04-11T10:11:33Z</time></trkpt><trkpt lat="40.22714646901473" lon="9.163607534435934"><ele>570.0</ele><time>2026-04-11T10:11:34Z</time></trkpt><trkpt lat="40.22722332075122" lon="9.163440421915176"><ele>568.0</ele><time>2026-04-11T10:11:35Z</time></trkpt><trkpt lat="40.22729921812109" lon="9.163271340787913"><ele>569.25</ele><time>2026-04-11T10:11:36Z</time></trkpt><trkpt lat="40.227374410411905" lon="9.163108984403832"><ele>570.5</ele><time>2026-04-11T10:11:37Z</time></trkpt><trkpt lat="40.22745574650949" lon="9.162950670137084"><ele>571.75</ele><time>2026-04-11T10:11:38Z</time></trkpt><trkpt lat="40.22753762734393" lon="9.162795390458806"><ele>573.0</ele><time>2026-04-11T10:11:39Z</time></trkpt><trkpt lat="40.22764215973658" lon="9.16266054309937"><ele>573.0</ele><time>2026-04-11T10:11:40Z</time></trkpt><trkpt lat="40.2277535127713" lon="9.162518081180236"><ele>573.0</ele><time>2026-04-11T10:11:41Z</time></trkpt><trkpt lat="40.22787139792371" lon="9.162383320184771"><ele>573.0</ele><time>2026-04-11T10:11:42Z</time></trkpt><trkpt lat="40.22798325461036" lon="9.162246988673555"><ele>573.0</ele><time>2026-04-11T10:11:43Z</time></trkpt><trkpt lat="40.228116252789306" lon="9.162167143329793"><ele>573.0</ele><time>2026-04-11T10:11:44Z</time></trkpt><trkpt lat="40.22824705591814" lon="9.162057280332952"><ele>573.0</ele><time>2026-04-11T10:11:45Z</time></trkpt><trkpt lat="40.22839624386013" lon="9.161963011209922"><ele>573.0</ele><time>2026-04-11T10:11:46Z</time></trkpt><trkpt lat="40.22854495332657" lon="9.161865842643698"><ele>573.0</ele><time>2026-04-11T10:11:47Z</time></trkpt><trkpt lat="40.22869262181125" lon="9.161778420414395"><ele>573.0</ele><time>2026-04-11T10:11:48Z</time></trkpt><trkpt lat="40.22883297925839" lon="9.161693097618793"><ele>573.0</ele><time>2026-04-11T10:11:49Z</time></trkpt><trkpt lat="40.228965438534615" lon="9.161608673161906"><ele>573.0</ele><time>2026-04-11T10:11:50Z</time></trkpt><trkpt lat="40.22909519361025" lon="9.16153671661689"><ele>573.0</ele><time>2026-04-11T10:11:51Z</time></trkpt><trkpt lat="40.22924852963496" lon="9.161491385826478"><ele>573.0</ele><time>2026-04-11T10:11:52Z</time></trkpt><trkpt lat="40.229414261192034" lon="9.161463260985213"><ele>566.0</ele><time>2026-04-11T10:11:53Z</time></trkpt><trkpt lat="40.229603181772895" lon="9.161445174347907"><ele>559.0</ele><time>2026-04-11T10:11:54Z</time></trkpt><trkpt lat="40.229797266925324" lon="9.161429374514114"><ele>552.0</ele><time>2026-04-11T10:11:55Z</time></trkpt><trkpt lat="40.22999601024539" lon="9.161416255043505"><ele>552.0</ele><time>2026-04-11T10:11:56Z</time></trkpt><trkpt lat="40.23019461503371" lon="9.161396050616446"><ele>552.0</ele><time>2026-04-11T10:11:57Z</time></trkpt><trkpt lat="40.23038944830353" lon="9.16137821154248"><ele>552.0</ele><time>2026-04-11T10:11:58Z</time></trkpt><trkpt lat="40.23057511517621" lon="9.161362600193383"><ele>553.3333333333334</ele><time>2026-04-11T10:11:59Z</time></trkpt><trkpt lat="40.23075062489535" lon="9.161347020654"><ele>554.6666666666667</ele><time>2026-04-11T10:12:00Z</time></trkpt><trkpt lat="40.23092330285129" lon="9.161363934340963"><ele>556.0</ele><time>2026-04-11T10:12:01Z</time></trkpt><trkpt lat="40.23109325602332" lon="9.161387024633923"><ele>556.0</ele><time>2026-04-11T10:12:02Z</time></trkpt><trkpt lat="40.23126966106962" lon="9.161417887916283"><ele>556.0</ele><time>2026-04-11T10:12:03Z</time></trkpt><trkpt lat="40.23144310581851" lon="9.16144654231748"><ele>556.0</ele><time>2026-04-11T10:12:04Z</time></trkpt><trkpt lat="40.23162025376585" lon="9.161475409039538"><ele>558.3333333333334</ele><time>2026-04-11T10:12:05Z</time></trkpt><trkpt lat="40.231802290997884" lon="9.161493389339633"><ele>560.6666666666666</ele><time>2026-04-11T10:12:06Z</time></trkpt><trkpt lat="40.231971261174074" lon="9.16151305262105"><ele>563.0</ele><time>2026-04-11T10:12:07Z</time></trkpt><trkpt lat="40.23213368212439" lon="9.161564065470248"><ele>570.0</ele><time>2026-04-11T10:12:08Z</time></trkpt><trkpt lat="40.232300548651224" lon="9.161576339127736"><ele>577.0</ele><time>2026-04-11T10:12:09Z</time></trkpt><trkpt lat="40.23244872998777" lon="9.161635015122721"><ele>584.0</ele><time>2026-04-11T10:12:10Z</time></trkpt><trkpt lat="40.23259142954434" lon="9.161646690187856"><ele>586.25</ele><time>2026-04-11T10:12:11Z</time></trkpt><trkpt lat="40.23272141795246" lon="9.16166047973377"><ele>588.5</ele><time>2026-04-11T10:12:12Z</time></trkpt><trkpt lat="40.23283849092598" lon="9.161675221889366"><ele>590.75</ele><time>2026-04-11T10:12:13Z</time></trkpt><trkpt lat="40.23294909519867" lon="9.16168325271907"><ele>593.0</ele><time>2026-04-11T10:12:14Z</time></trkpt><trkpt lat="40.233063328923365" lon="9.161691455311193"><ele>595.0</ele><time>2026-04-11T10:12:15Z</time></trkpt><trkpt lat="40.2331827360793" lon="9.161694876635943"><ele>597.0</ele><time>2026-04-11T10:12:16Z</time></trkpt><trkpt lat="40.233308572473355" lon="9.161687203454594"><ele>599.0</ele><time>2026-04-11T10:12:17Z</time></trkpt><trkpt lat="40.233442080438245" lon="9.161678123461055"><ele>601.0</ele><time>2026-04-11T10:12:18Z</time></trkpt><trkpt lat="40.23358386183312" lon="9.16166725049111"><ele>601.0</ele><time>2026-04-11T10:12:19Z</time></trkpt><trkpt lat="40.23373138453171" lon="9.161656364693567"><ele>601.0</ele><time>2026-04-11T10:12:20Z</time></trkpt><trkpt lat="40.23388409880986" lon="9.161648692216971"><ele>601.0</ele><time>2026-04-11T10:12:21Z</time></trkpt><trkpt lat="40.234037041647284" lon="9.161642003186303"><ele>602.3333333333334</ele><time>2026-04-11T10:12:22Z</time></trkpt><trkpt lat="40.23419423488989" lon="9.161630956777932"><ele>603.6666666666666</ele><time>2026-04-11T10:12:23Z</time></trkpt><trkpt lat="40.2343530428501" lon="9.16161870475281"><ele>605.0</ele><time>2026-04-11T10:12:24Z</time></trkpt><trkpt lat="40.23451274383288" lon="9.161603470571688"><ele>605.0</ele><time>2026-04-11T10:12:25Z</time></trkpt><trkpt lat="40.234670633610676" lon="9.161576374555267"><ele>605.0</ele><time>2026-04-11T10:12:26Z</time></trkpt><trkpt lat="40.23481946698772" lon="9.161527350986555"><ele>605.0</ele><time>2026-04-11T10:12:27Z</time></trkpt><trkpt lat="40.2349557633761" lon="9.161468018338498"><ele>602.2</ele><time>2026-04-11T10:12:28Z</time></trkpt><trkpt lat="40.235077073484646" lon="9.16141100984976"><ele>599.4</ele><time>2026-04-11T10:12:29Z</time></trkpt><trkpt lat="40.23517095343971" lon="9.161374017607256"><ele>596.6</ele><time>2026-04-11T10:12:30Z</time></trkpt><trkpt lat="40.23525837208533" lon="9.161343801432336"><ele>593.8</ele><time>2026-04-11T10:12:31Z</time></trkpt><trkpt lat="40.235329170899355" lon="9.16134138918099"><ele>591.0</ele><time>2026-04-11T10:12:32Z</time></trkpt><trkpt lat="40.235407003029025" lon="9.161350934424426"><ele>591.0</ele><time>2026-04-11T10:12:33Z</time></trkpt><trkpt lat="40.23548831136048" lon="9.161389629191646"><ele>591.0</ele><time>2026-04-11T10:12:34Z</time></trkpt><trkpt lat="40.23553934603523" lon="9.161443082022142"><ele>591.0</ele><time>2026-04-11T10:12:35Z</time></trkpt><trkpt lat="40.235603103100836" lon="9.161540061471328"><ele>591.0</ele><time>2026-04-11T10:12:37Z</time></trkpt><trkpt lat="40.23573631590197" lon="9.161579552372064"><ele>591.0</ele><time>2026-04-11T10:12:39Z</time></trkpt><trkpt lat="40.235832323509" lon="9.16160754970051"><ele>596.8</ele><time>2026-04-11T10:12:40Z</time></trkpt><trkpt lat="40.235937775012076" lon="9.16164403666815"><ele>602.6</ele><time>2026-04-11T10:12:41Z</time></trkpt><trkpt lat="40.23603283127167" lon="9.161666839029621"><ele>608.4</ele><time>2026-04-11T10:12:42Z</time></trkpt><trkpt lat="40.236146554250965" lon="9.16169312616816"><ele>614.2</ele><time>2026-04-11T10:12:43Z</time></trkpt><trkpt lat="40.23625064422148" lon="9.161669351826857"><ele>620.0</ele><time>2026-04-11T10:12:44Z</time></trkpt><trkpt lat="40.236341770837136" lon="9.161575115201737"><ele>620.0</ele><time>2026-04-11T10:12:45Z</time></trkpt><trkpt lat="40.236409442982534" lon="9.161425626315522"><ele>620.0</ele><time>2026-04-11T10:12:46Z</time></trkpt><trkpt lat="40.236470292213" lon="9.161263383661103"><ele>620.0</ele><time>2026-04-11T10:12:47Z</time></trkpt><trkpt lat="40.236536816880204" lon="9.16108415445032"><ele>620.0</ele><time>2026-04-11T10:12:48Z</time></trkpt><trkpt lat="40.236610796552" lon="9.16090233531047"><ele>620.0</ele><time>2026-04-11T10:12:49Z</time></trkpt><trkpt lat="40.23668653163514" lon="9.160724178998006"><ele>620.0</ele><time>2026-04-11T10:12:50Z</time></trkpt><trkpt lat="40.23675358421934" lon="9.160563514939826"><ele>620.0</ele><time>2026-04-11T10:12:51Z</time></trkpt><trkpt lat="40.23682991953193" lon="9.160427292430777"><ele>620.0</ele><time>2026-04-11T10:12:52Z</time></trkpt><trkpt lat="40.236927399543234" lon="9.160362608025801"><ele>618.25</ele><time>2026-04-11T10:12:53Z</time></trkpt><trkpt lat="40.23702169750452" lon="9.16034739783753"><ele>616.5</ele><time>2026-04-11T10:12:54Z</time></trkpt><trkpt lat="40.23713681623933" lon="9.160348627851135"><ele>614.75</ele><time>2026-04-11T10:12:55Z</time></trkpt><trkpt lat="40.23726428589767" lon="9.160401885219853"><ele>613.0</ele><time>2026-04-11T10:12:56Z</time></trkpt><trkpt lat="40.23740449933143" lon="9.160421735881435"><ele>613.0</ele><time>2026-04-11T10:12:57Z</time></trkpt><trkpt lat="40.23755469360938" lon="9.160390840975218"><ele>613.0</ele><time>2026-04-11T10:12:58Z</time></trkpt><trkpt lat="40.237697006659175" lon="9.160304376773354"><ele>613.0</ele><time>2026-04-11T10:12:59Z</time></trkpt><trkpt lat="40.23781106603381" lon="9.160162938338916"><ele>613.0</ele><time>2026-04-11T10:13:00Z</time></trkpt><trkpt lat="40.237894509183526" lon="9.15997694425265"><ele>613.0</ele><time>2026-04-11T10:13:01Z</time></trkpt><trkpt lat="40.2379439130199" lon="9.159800141546425"><ele>613.0</ele><time>2026-04-11T10:13:02Z</time></trkpt><trkpt lat="40.23798396571602" lon="9.15962151322736"><ele>612.5</ele><time>2026-04-11T10:13:03Z</time></trkpt><trkpt lat="40.2380393061847" lon="9.159465073916953"><ele>612.0</ele><time>2026-04-11T10:13:04Z</time></trkpt><trkpt lat="40.23812933093246" lon="9.159349357717385"><ele>611.5</ele><time>2026-04-11T10:13:05Z</time></trkpt><trkpt lat="40.238240340200015" lon="9.159294867022194"><ele>611.0</ele><time>2026-04-11T10:13:06Z</time></trkpt><trkpt lat="40.23834284807713" lon="9.159310863689113"><ele>611.0</ele><time>2026-04-11T10:13:07Z</time></trkpt><trkpt lat="40.238437559511546" lon="9.159396570245388"><ele>611.0</ele><time>2026-04-11T10:13:08Z</time></trkpt><trkpt lat="40.23852036093297" lon="9.159529452341413"><ele>611.0</ele><time>2026-04-11T10:13:09Z</time></trkpt><trkpt lat="40.23860871211736" lon="9.15970055235819"><ele>611.0</ele><time>2026-04-11T10:13:10Z</time></trkpt><trkpt lat="40.23871228045585" lon="9.159862459542696"><ele>613.6666666666666</ele><time>2026-04-11T10:13:11Z</time></trkpt><trkpt lat="40.23882342980532" lon="9.160044017971325"><ele>616.3333333333334</ele><time>2026-04-11T10:13:12Z</time></trkpt><trkpt lat="40.23894432528227" lon="9.16023380680066"><ele>619.0</ele><time>2026-04-11T10:13:13Z</time></trkpt><trkpt lat="40.23907439637536" lon="9.160434107337215"><ele>617.6666666666667</ele><time>2026-04-11T10:13:14Z</time></trkpt><trkpt lat="40.23920826366805" lon="9.160625749022648"><ele>616.3333333333334</ele><time>2026-04-11T10:13:15Z</time></trkpt><trkpt lat="40.23935900432575" lon="9.160799518687867"><ele>615.0</ele><time>2026-04-11T10:13:16Z</time></trkpt><trkpt lat="40.239513820682674" lon="9.160939465894046"><ele>615.0</ele><time>2026-04-11T10:13:17Z</time></trkpt><trkpt lat="40.239673149732376" lon="9.161080501400138"><ele>615.0</ele><time>2026-04-11T10:13:18Z</time></trkpt><trkpt lat="40.23980567789398" lon="9.161254959912615"><ele>615.0</ele><time>2026-04-11T10:13:19Z</time></trkpt><trkpt lat="40.23994114662205" lon="9.161421791685202"><ele>612.0</ele><time>2026-04-11T10:13:20Z</time></trkpt><trkpt lat="40.2400554778285" lon="9.161621854914044"><ele>609.0</ele><time>2026-04-11T10:13:21Z</time></trkpt><trkpt lat="40.24015722092168" lon="9.161825007806849"><ele>606.0</ele><time>2026-04-11T10:13:22Z</time></trkpt><trkpt lat="40.24024445030093" lon="9.162011742618732"><ele>606.0</ele><time>2026-04-11T10:13:23Z</time></trkpt><trkpt lat="40.240297253139616" lon="9.162192501551635"><ele>606.0</ele><time>2026-04-11T10:13:24Z</time></trkpt><trkpt lat="40.2403060273768" lon="9.162375095250669"><ele>606.0</ele><time>2026-04-11T10:13:25Z</time></trkpt><trkpt lat="40.24027059897839" lon="9.162560934794021"><ele>606.0</ele><time>2026-04-11T10:13:26Z</time></trkpt><trkpt lat="40.24019551243335" lon="9.162744077575272"><ele>604.3333333333334</ele><time>2026-04-11T10:13:27Z</time></trkpt><trkpt lat="40.240068934281254" lon="9.162917779893935"><ele>602.6666666666667</ele><time>2026-04-11T10:13:28Z</time></trkpt><trkpt lat="40.23994969763349" lon="9.163086465304769"><ele>601.0</ele><time>2026-04-11T10:13:29Z</time></trkpt><trkpt lat="40.23982004414395" lon="9.163272245484233"><ele>610.6666666666667</ele><time>2026-04-11T10:13:30Z</time></trkpt><trkpt lat="40.239695906907464" lon="9.163466643214436"><ele>620.3333333333334</ele><time>2026-04-11T10:13:31Z</time></trkpt><trkpt lat="40.23958834207378" lon="9.163674982933784"><ele>630.0</ele><time>2026-04-11T10:13:32Z</time></trkpt><trkpt lat="40.23950523180201" lon="9.163909418525584"><ele>627.3333333333334</ele><time>2026-04-11T10:13:33Z</time></trkpt><trkpt lat="40.23946854848108" lon="9.164152751001849"><ele>624.6666666666667</ele><time>2026-04-11T10:13:34Z</time></trkpt><trkpt lat="40.23945851485067" lon="9.164413376656045"><ele>622.0</ele><time>2026-04-11T10:13:35Z</time></trkpt><trkpt lat="40.2394229785661" lon="9.16467243882266"><ele>617.6666666666667</ele><time>2026-04-11T10:13:36Z</time></trkpt><trkpt lat="40.23935069836002" lon="9.164901257819665"><ele>613.3333333333334</ele><time>2026-04-11T10:13:37Z</time></trkpt><trkpt lat="40.23926886990345" lon="9.165109585330336"><ele>609.0</ele><time>2026-04-11T10:13:38Z</time></trkpt><trkpt lat="40.2392195481201" lon="9.165322855454226"><ele>609.0</ele><time>2026-04-11T10:13:39Z</time></trkpt><trkpt lat="40.239202879098244" lon="9.16553095603242"><ele>609.0</ele><time>2026-04-11T10:13:40Z</time></trkpt><trkpt lat="40.23922987981033" lon="9.165747605726214"><ele>609.0</ele><time>2026-04-11T10:13:41Z</time></trkpt><trkpt lat="40.239289745519585" lon="9.165967908017764"><ele>607.6666666666666</ele><time>2026-04-11T10:13:42Z</time></trkpt><trkpt lat="40.23931881368523" lon="9.166183065768372"><ele>606.3333333333333</ele><time>2026-04-11T10:13:43Z</time></trkpt><trkpt lat="40.23928172513765" lon="9.16640982965448"><ele>605.0</ele><time>2026-04-11T10:13:44Z</time></trkpt><trkpt lat="40.23926581171587" lon="9.166657070884742"><ele>604.3333333333333</ele><time>2026-04-11T10:13:45Z</time></trkpt><trkpt lat="40.23925548989103" lon="9.166920381681656"><ele>603.6666666666666</ele><time>2026-04-11T10:13:46Z</time></trkpt><trkpt lat="40.23926679985836" lon="9.167181289772799"><ele>603.0</ele><time>2026-04-11T10:13:47Z</time></trkpt><trkpt lat="40.2392683792405" lon="9.167411405954832"><ele>603.0</ele><time>2026-04-11T10:13:48Z</time></trkpt><trkpt lat="40.239285453920445" lon="9.167595520168733"><ele>603.0</ele><time>2026-04-11T10:13:49Z</time></trkpt><trkpt lat="40.239321472842406" lon="9.167762876053306"><ele>603.0</ele><time>2026-04-11T10:13:50Z</time></trkpt><trkpt lat="40.23945426676394" lon="9.167897515818956"><ele>603.0</ele><time>2026-04-11T10:13:51Z</time></trkpt><trkpt lat="40.23960262468887" lon="9.168016174340185"><ele>603.0</ele><time>2026-04-11T10:13:52Z</time></trkpt><trkpt lat="40.23975604573997" lon="9.168136474691378"><ele>603.0</ele><time>2026-04-11T10:13:53Z</time></trkpt><trkpt lat="40.23993150374739" lon="9.16824582379824"><ele>603.0</ele><time>2026-04-11T10:13:54Z</time></trkpt><trkpt lat="40.24012718944275" lon="9.168333344166923"><ele>599.3333333333334</ele><time>2026-04-11T10:13:55Z</time></trkpt><trkpt lat="40.240331344553844" lon="9.168409204735577"><ele>595.6666666666667</ele><time>2026-04-11T10:13:56Z</time></trkpt><trkpt lat="40.24050994895873" lon="9.168510899045767"><ele>592.0</ele><time>2026-04-11T10:13:57Z</time></trkpt><trkpt lat="40.24066167306603" lon="9.168658625515212"><ele>585.3333333333334</ele><time>2026-04-11T10:13:58Z</time></trkpt><trkpt lat="40.24082310800833" lon="9.168799997282559"><ele>578.6666666666666</ele><time>2026-04-11T10:13:59Z</time></trkpt><trkpt lat="40.241022825011974" lon="9.168881893388978"><ele>572.0</ele><time>2026-04-11T10:14:00Z</time></trkpt><trkpt lat="40.24123677319955" lon="9.168908647204647"><ele>572.0</ele><time>2026-04-11T10:14:01Z</time></trkpt><trkpt lat="40.241437830595494" lon="9.168922807412512"><ele>572.0</ele><time>2026-04-11T10:14:02Z</time></trkpt><trkpt lat="40.241624941725" lon="9.16895013905166"><ele>572.0</ele><time>2026-04-11T10:14:03Z</time></trkpt><trkpt lat="40.241788425346364" lon="9.168910849612491"><ele>574.5</ele><time>2026-04-11T10:14:04Z</time></trkpt><trkpt lat="40.241924349239895" lon="9.16890511776263"><ele>577.0</ele><time>2026-04-11T10:14:05Z</time></trkpt><trkpt lat="40.24203907791457" lon="9.16895426816947"><ele>579.5</ele><time>2026-04-11T10:14:06Z</time></trkpt><trkpt lat="40.24212271442322" lon="9.169044693587637"><ele>582.0</ele><time>2026-04-11T10:14:07Z</time></trkpt><trkpt lat="40.24219439628326" lon="9.169184520793447"><ele>582.0</ele><time>2026-04-11T10:14:08Z</time></trkpt><trkpt lat="40.24217033886853" lon="9.169321922104498"><ele>582.0</ele><time>2026-04-11T10:14:09Z</time></trkpt><trkpt lat="40.242092450781115" lon="9.169470935599755"><ele>582.0</ele><time>2026-04-11T10:14:10Z</time></trkpt><trkpt lat="40.24203442069022" lon="9.169649797581162"><ele>582.0</ele><time>2026-04-11T10:14:11Z</time></trkpt><trkpt lat="40.242013269301765" lon="9.169868215550116"><ele>586.0</ele><time>2026-04-11T10:14:12Z</time></trkpt><trkpt lat="40.24200362534078" lon="9.170103207751927"><ele>590.0</ele><time>2026-04-11T10:14:13Z</time></trkpt><trkpt lat="40.242047271051035" lon="9.17037450507625"><ele>594.0</ele><time>2026-04-11T10:14:14Z</time></trkpt><trkpt lat="40.242134904806285" lon="9.170611192415697"><ele>595.6666666666666</ele><time>2026-04-11T10:14:15Z</time></trkpt><trkpt lat="40.24223690018424" lon="9.17083906164741"><ele>597.3333333333333</ele><time>2026-04-11T10:14:16Z</time></trkpt><trkpt lat="40.24235554658698" lon="9.171039258519546"><ele>599.0</ele><time>2026-04-11T10:14:17Z</time></trkpt><trkpt lat="40.24246091342679" lon="9.171226504486263"><ele>588.6666666666666</ele><time>2026-04-11T10:14:18Z</time></trkpt><trkpt lat="40.2425219000291" lon="9.171424810104185"><ele>578.3333333333334</ele><time>2026-04-11T10:14:19Z</time></trkpt><trkpt lat="40.24250168136523" lon="9.17163906955527"><ele>568.0</ele><time>2026-04-11T10:14:20Z</time></trkpt><trkpt lat="40.24248300734747" lon="9.171870163912986"><ele>568.0</ele><time>2026-04-11T10:14:21Z</time></trkpt><trkpt lat="40.24248673809133" lon="9.17210433630322"><ele>568.0</ele><time>2026-04-11T10:14:22Z</time></trkpt><trkpt lat="40.242491117724825" lon="9.172328077529867"><ele>568.0</ele><time>2026-04-11T10:14:23Z</time></trkpt><trkpt lat="40.24252356688937" lon="9.172519552334602"><ele>567.6</ele><time>2026-04-11T10:14:24Z</time></trkpt><trkpt lat="40.24260482030074" lon="9.172674526260634"><ele>567.1999999999999</ele><time>2026-04-11T10:14:25Z</time></trkpt><trkpt lat="40.24263700027966" lon="9.172801767231226"><ele>566.8</ele><time>2026-04-11T10:14:26Z</time></trkpt><trkpt lat="40.2425920661143" lon="9.17290086171094"><ele>566.4</ele><time>2026-04-11T10:14:27Z</time></trkpt><trkpt lat="40.242481012081434" lon="9.172930818443351"><ele>566.0</ele><time>2026-04-11T10:14:28Z</time></trkpt><trkpt lat="40.24236552032416" lon="9.172986849760019"><ele>571.0</ele><time>2026-04-11T10:14:29Z</time></trkpt><trkpt lat="40.24224790356269" lon="9.173096440115192"><ele>576.0</ele><time>2026-04-11T10:14:30Z</time></trkpt><trkpt lat="40.242174391154634" lon="9.173255400115119"><ele>581.0</ele><time>2026-04-11T10:14:31Z</time></trkpt><trkpt lat="40.242158118281246" lon="9.173444961508647"><ele>586.0</ele><time>2026-04-11T10:14:32Z</time></trkpt><trkpt lat="40.24219389096116" lon="9.173654239525872"><ele>586.0</ele><time>2026-04-11T10:14:33Z</time></trkpt><trkpt lat="40.24223995652826" lon="9.173885110277809"><ele>586.0</ele><time>2026-04-11T10:14:34Z</time></trkpt><trkpt lat="40.24222670716926" lon="9.174108466046833"><ele>586.0</ele><time>2026-04-11T10:14:35Z</time></trkpt><trkpt lat="40.24219975718306" lon="9.174356979590286"><ele>583.6666666666667</ele><time>2026-04-11T10:14:36Z</time></trkpt><trkpt lat="40.242169279702836" lon="9.174622208258787"><ele>581.3333333333334</ele><time>2026-04-11T10:14:37Z</time></trkpt><trkpt lat="40.24213349699987" lon="9.174869838959495"><ele>579.0</ele><time>2026-04-11T10:14:38Z</time></trkpt><trkpt lat="40.24209245636134" lon="9.17508593399111"><ele>575.0</ele><time>2026-04-11T10:14:39Z</time></trkpt><trkpt lat="40.24204571680856" lon="9.175266072797202"><ele>571.0</ele><time>2026-04-11T10:14:40Z</time></trkpt><trkpt lat="40.24198535058538" lon="9.175415519783172"><ele>567.0</ele><time>2026-04-11T10:14:41Z</time></trkpt><trkpt lat="40.24186348858556" lon="9.17545618347229"><ele>563.0</ele><time>2026-04-11T10:14:42Z</time></trkpt><trkpt lat="40.24171705801746" lon="9.17548564532688"><ele>563.0</ele><time>2026-04-11T10:14:43Z</time></trkpt><trkpt lat="40.24156164860021" lon="9.17551680669119"><ele>563.0</ele><time>2026-04-11T10:14:44Z</time></trkpt><trkpt lat="40.24142627821931" lon="9.175544745764192"><ele>563.0</ele><time>2026-04-11T10:14:45Z</time></trkpt><trkpt lat="40.24133202930462" lon="9.175631419788935"><ele>563.0</ele><time>2026-04-11T10:14:46Z</time></trkpt><trkpt lat="40.24129871922902" lon="9.175767101259453"><ele>565.75</ele><time>2026-04-11T10:14:47Z</time></trkpt><trkpt lat="40.241324373466384" lon="9.175930248225843"><ele>568.5</ele><time>2026-04-11T10:14:48Z</time></trkpt><trkpt lat="40.241422002333096" lon="9.176069156948955"><ele>571.25</ele><time>2026-04-11T10:14:49Z</time></trkpt><trkpt lat="40.241536079693425" lon="9.176221846885849"><ele>574.0</ele><time>2026-04-11T10:14:50Z</time></trkpt><trkpt lat="40.241670537280015" lon="9.176356633987885"><ele>567.25</ele><time>2026-04-11T10:14:51Z</time></trkpt><trkpt lat="40.24180228272556" lon="9.176467367781981"><ele>560.5</ele><time>2026-04-11T10:14:52Z</time></trkpt><trkpt lat="40.241890062587146" lon="9.176586096778673"><ele>553.75</ele><time>2026-04-11T10:14:53Z</time></trkpt><trkpt lat="40.241941924845925" lon="9.176698101624511"><ele>547.0</ele><time>2026-04-11T10:14:54Z</time></trkpt><trkpt lat="40.2419263758711" lon="9.176851162255304"><ele>547.0</ele><time>2026-04-11T10:14:55Z</time></trkpt><trkpt lat="40.24182243492178" lon="9.17696935927796"><ele>547.0</ele><time>2026-04-11T10:14:56Z</time></trkpt><trkpt lat="40.24172708031378" lon="9.177122352305226"><ele>547.0</ele><time>2026-04-11T10:14:57Z</time></trkpt><trkpt lat="40.2416281534732" lon="9.17730355851419"><ele>544.6666666666667</ele><time>2026-04-11T10:14:58Z</time></trkpt><trkpt lat="40.241543753305464" lon="9.177512778438434"><ele>542.3333333333334</ele><time>2026-04-11T10:14:59Z</time></trkpt><trkpt lat="40.241464322650536" lon="9.177759801148243"><ele>540.0</ele><time>2026-04-11T10:15:00Z</time></trkpt><trkpt lat="40.24141220927433" lon="9.17801907889494"><ele>544.6666666666666</ele><time>2026-04-11T10:15:01Z</time></trkpt><trkpt lat="40.241386192175206" lon="9.178260863278071"><ele>549.3333333333333</ele><time>2026-04-11T10:15:02Z</time></trkpt><trkpt lat="40.24137411154566" lon="9.178487680947892"><ele>554.0</ele><time>2026-04-11T10:15:03Z</time></trkpt><trkpt lat="40.24135514173718" lon="9.17864446547412"><ele>554.0</ele><time>2026-04-11T10:15:04Z</time></trkpt><trkpt lat="40.241352996549566" lon="9.178786601420754"><ele>554.0</ele><time>2026-04-11T10:15:05Z</time></trkpt><trkpt lat="40.24139618414466" lon="9.178920376951874"><ele>554.0</ele><time>2026-04-11T10:15:06Z</time></trkpt><trkpt lat="40.24149804589032" lon="9.179010483893132"><ele>554.0</ele><time>2026-04-11T10:15:07Z</time></trkpt><trkpt lat="40.241636702393436" lon="9.179031187680138"><ele>547.6666666666666</ele><time>2026-04-11T10:15:08Z</time></trkpt><trkpt lat="40.241775011625265" lon="9.178965980991817"><ele>541.3333333333334</ele><time>2026-04-11T10:15:09Z</time></trkpt><trkpt lat="40.24189729924692" lon="9.178827182384257"><ele>535.0</ele><time>2026-04-11T10:15:10Z</time></trkpt><trkpt lat="40.24201729504213" lon="9.17865047236382"><ele>535.0</ele><time>2026-04-11T10:15:11Z</time></trkpt><trkpt lat="40.242143852378454" lon="9.178489834989781"><ele>535.0</ele><time>2026-04-11T10:15:12Z</time></trkpt><trkpt lat="40.24228447409856" lon="9.178325832434638"><ele>535.0</ele><time>2026-04-11T10:15:13Z</time></trkpt><trkpt lat="40.24240737435104" lon="9.1781357209387"><ele>533.0</ele><time>2026-04-11T10:15:14Z</time></trkpt><trkpt lat="40.24248432779329" lon="9.177901936693436"><ele>531.0</ele><time>2026-04-11T10:15:15Z</time></trkpt><trkpt lat="40.24252595775149" lon="9.177655476948265"><ele>529.0</ele><time>2026-04-11T10:15:16Z</time></trkpt><trkpt lat="40.242616339723064" lon="9.177459987314247"><ele>526.0</ele><time>2026-04-11T10:15:17Z</time></trkpt><trkpt lat="40.24274068041335" lon="9.177300711812004"><ele>523.0</ele><time>2026-04-11T10:15:18Z</time></trkpt><trkpt lat="40.242885890736076" lon="9.177147070557815"><ele>520.0</ele><time>2026-04-11T10:15:19Z</time></trkpt><trkpt lat="40.24303130063689" lon="9.176977188874838"><ele>518.6666666666667</ele><time>2026-04-11T10:15:20Z</time></trkpt><trkpt lat="40.24317602603551" lon="9.176826260838206"><ele>517.3333333333334</ele><time>2026-04-11T10:15:21Z</time></trkpt><trkpt lat="40.24327190843173" lon="9.176644402087005"><ele>516.0</ele><time>2026-04-11T10:15:22Z</time></trkpt><trkpt lat="40.24332101129953" lon="9.176415469139934"><ele>516.0</ele><time>2026-04-11T10:15:23Z</time></trkpt><trkpt lat="40.24333801809226" lon="9.176181560194243"><ele>516.0</ele><time>2026-04-11T10:15:24Z</time></trkpt><trkpt lat="40.2433909437257" lon="9.175968666899145"><ele>516.0</ele><time>2026-04-11T10:15:25Z</time></trkpt><trkpt lat="40.243483674054836" lon="9.175778141616682"><ele>512.0</ele><time>2026-04-11T10:15:26Z</time></trkpt><trkpt lat="40.2436078716875" lon="9.175577780126803"><ele>508.0</ele><time>2026-04-11T10:15:27Z</time></trkpt><trkpt lat="40.2437133234227" lon="9.175368988248012"><ele>504.0</ele><time>2026-04-11T10:15:28Z</time></trkpt><trkpt lat="40.24383574039872" lon="9.175210713385965"><ele>504.0</ele><time>2026-04-11T10:15:29Z</time></trkpt><trkpt lat="40.24395901246927" lon="9.175075679968717"><ele>504.0</ele><time>2026-04-11T10:15:30Z</time></trkpt><trkpt lat="40.24410643617568" lon="9.174981167548497"><ele>504.0</ele><time>2026-04-11T10:15:31Z</time></trkpt><trkpt lat="40.24428065083038" lon="9.174889181412647"><ele>500.25</ele><time>2026-04-11T10:15:32Z</time></trkpt><trkpt lat="40.24442996681653" lon="9.174787693952084"><ele>496.5</ele><time>2026-04-11T10:15:33Z</time></trkpt><trkpt lat="40.244566434988705" lon="9.17472495357843"><ele>492.75</ele><time>2026-04-11T10:15:34Z</time></trkpt><trkpt lat="40.2446858088142" lon="9.174696604872862"><ele>489.0</ele><time>2026-04-11T10:15:35Z</time></trkpt><trkpt lat="40.244780340915256" lon="9.174699924145528"><ele>486.75</ele><time>2026-04-11T10:15:36Z</time></trkpt><trkpt lat="40.24484035234921" lon="9.174809006366313"><ele>484.5</ele><time>2026-04-11T10:15:37Z</time></trkpt><trkpt lat="40.24486984119717" lon="9.17498161190524"><ele>482.25</ele><time>2026-04-11T10:15:38Z</time></trkpt><trkpt lat="40.24487011485098" lon="9.17518025003902"><ele>480.0</ele><time>2026-04-11T10:15:39Z</time></trkpt><trkpt lat="40.244875214403216" lon="9.175376087122018"><ele>487.0</ele><time>2026-04-11T10:15:40Z</time></trkpt><trkpt lat="40.244867612531834" lon="9.175586159310196"><ele>494.0</ele><time>2026-04-11T10:15:41Z</time></trkpt><trkpt lat="40.24485678714143" lon="9.175819489316556"><ele>501.0</ele><time>2026-04-11T10:15:42Z</time></trkpt><trkpt lat="40.24487103080815" lon="9.176052059385624"><ele>503.25</ele><time>2026-04-11T10:15:43Z</time></trkpt><trkpt lat="40.24490330235872" lon="9.17625143737261"><ele>505.5</ele><time>2026-04-11T10:15:44Z</time></trkpt><trkpt lat="40.244962430295615" lon="9.17639991933029"><ele>507.75</ele><time>2026-04-11T10:15:45Z</time></trkpt><trkpt lat="40.245067796321365" lon="9.176492940960166"><ele>510.0</ele><time>2026-04-11T10:15:46Z</time></trkpt><trkpt lat="40.245220058843486" lon="9.17653592217921"><ele>511.0</ele><time>2026-04-11T10:15:47Z</time></trkpt><trkpt lat="40.24536478698827" lon="9.176594602641167"><ele>512.0</ele><time>2026-04-11T10:15:48Z</time></trkpt><trkpt lat="40.24546077216509" lon="9.176738993460688"><ele>513.0</ele><time>2026-04-11T10:15:49Z</time></trkpt><trkpt lat="40.24553868236274" lon="9.17692492613874"><ele>513.0</ele><time>2026-04-11T10:15:50Z</time></trkpt><trkpt lat="40.2456213289084" lon="9.177124310512763"><ele>513.0</ele><time>2026-04-11T10:15:51Z</time></trkpt><trkpt lat="40.24570645750473" lon="9.177303769252426"><ele>513.0</ele><time>2026-04-11T10:15:52Z</time></trkpt><trkpt lat="40.24578170079559" lon="9.17747505006526"><ele>514.25</ele><time>2026-04-11T10:15:53Z</time></trkpt><trkpt lat="40.24580463077591" lon="9.177657916561877"><ele>515.5</ele><time>2026-04-11T10:15:54Z</time></trkpt><trkpt lat="40.24574402459968" lon="9.177816701998632"><ele>516.75</ele><time>2026-04-11T10:15:55Z</time></trkpt><trkpt lat="40.24565833394339" lon="9.177939474166076"><ele>518.0</ele><time>2026-04-11T10:15:56Z</time></trkpt><trkpt lat="40.245568465935214" lon="9.178072140375487"><ele>518.0</ele><time>2026-04-11T10:15:57Z</time></trkpt><trkpt lat="40.24551628097716" lon="9.178187728568682"><ele>518.0</ele><time>2026-04-11T10:15:58Z</time></trkpt><trkpt lat="40.24555872815864" lon="9.17832238322081"><ele>518.0</ele><time>2026-04-11T10:15:59Z</time></trkpt><trkpt lat="40.24564861193663" lon="9.178441135897886"><ele>518.0</ele><time>2026-04-11T10:16:00Z</time></trkpt><trkpt lat="40.24577700471875" lon="9.178505144951927"><ele>512.0</ele><time>2026-04-11T10:16:01Z</time></trkpt><trkpt lat="40.24592892463778" lon="9.178524228216808"><ele>506.0</ele><time>2026-04-11T10:16:02Z</time></trkpt><trkpt lat="40.24606793493331" lon="9.17858936879399"><ele>500.0</ele><time>2026-04-11T10:16:03Z</time></trkpt><trkpt lat="40.24620962289491" lon="9.178663380689185"><ele>500.0</ele><time>2026-04-11T10:16:04Z</time></trkpt><trkpt lat="40.24634402545621" lon="9.178740398969582"><ele>500.0</ele><time>2026-04-11T10:16:05Z</time></trkpt><trkpt lat="40.24646691125915" lon="9.178854332305514"><ele>500.0</ele><time>2026-04-11T10:16:06Z</time></trkpt><trkpt lat="40.24658364755902" lon="9.178979589234912"><ele>500.0</ele><time>2026-04-11T10:16:07Z</time></trkpt><trkpt lat="40.246694882241556" lon="9.179109256391472"><ele>499.0</ele><time>2026-04-11T10:16:08Z</time></trkpt><trkpt lat="40.246806445966065" lon="9.179226748084542"><ele>498.0</ele><time>2026-04-11T10:16:09Z</time></trkpt><trkpt lat="40.24691853878054" lon="9.179327365428822"><ele>497.0</ele><time>2026-04-11T10:16:10Z</time></trkpt><trkpt lat="40.24703785016341" lon="9.179409685424583"><ele>496.0</ele><time>2026-04-11T10:16:11Z</time></trkpt><trkpt lat="40.24715679089118" lon="9.17947847263171"><ele>496.0</ele><time>2026-04-11T10:16:12Z</time></trkpt><trkpt lat="40.24727103539124" lon="9.179544768108029"><ele>496.0</ele><time>2026-04-11T10:16:13Z</time></trkpt><trkpt lat="40.247382348740246" lon="9.179611194766323"><ele>496.0</ele><time>2026-04-11T10:16:14Z</time></trkpt><trkpt lat="40.24749102916143" lon="9.179671620242553"><ele>496.0</ele><time>2026-04-11T10:16:15Z</time></trkpt><trkpt lat="40.24759724275694" lon="9.179723600249162"><ele>496.6</ele><time>2026-04-11T10:16:16Z</time></trkpt><trkpt lat="40.24769054400653" lon="9.17979491849301"><ele>497.20000000000005</ele><time>2026-04-11T10:16:17Z</time></trkpt><trkpt lat="40.24778028108551" lon="9.179853659147593"><ele>497.79999999999995</ele><time>2026-04-11T10:16:18Z</time></trkpt><trkpt lat="40.24786527268179" lon="9.179912893932034"><ele>498.4</ele><time>2026-04-11T10:16:19Z</time></trkpt><trkpt lat="40.24795091899791" lon="9.1799623156204"><ele>499.0</ele><time>2026-04-11T10:16:20Z</time></trkpt><trkpt lat="40.248019379740796" lon="9.18004497440968"><ele>499.00000000000006</ele><time>2026-04-11T10:16:21Z</time></trkpt><trkpt lat="40.24809009469064" lon="9.180125671457747"><ele>499.0</ele><time>2026-04-11T10:16:22Z</time></trkpt><trkpt lat="40.24815734217307" lon="9.18020495522318"><ele>499.0</ele><time>2026-04-11T10:16:23Z</time></trkpt><trkpt lat="40.24821980767395" lon="9.180275728386983"><ele>499.0</ele><time>2026-04-11T10:16:24Z</time></trkpt><trkpt lat="40.24828110468153" lon="9.180333933690934"><ele>499.00000000000006</ele><time>2026-04-11T10:16:25Z</time></trkpt><trkpt lat="40.24834043574038" lon="9.18037448209051"><ele>499.0</ele><time>2026-04-11T10:16:26Z</time></trkpt><trkpt lat="40.24845877215355" lon="9.180400368721125"><ele>497.50000000000006</ele><time>2026-04-11T10:16:28Z</time></trkpt><trkpt lat="40.24852687010132" lon="9.180389186414905"><ele>496.0</ele><time>2026-04-11T10:16:29Z</time></trkpt><trkpt lat="40.24860351433634" lon="9.180376159460677"><ele>494.5</ele><time>2026-04-11T10:16:30Z</time></trkpt><trkpt lat="40.24867995692108" lon="9.180370336913821"><ele>493.0</ele><time>2026-04-11T10:16:31Z</time></trkpt><trkpt lat="40.248759216055475" lon="9.180362815671728"><ele>491.50000000000006</ele><time>2026-04-11T10:16:32Z</time></trkpt><trkpt lat="40.2488418102787" lon="9.180359985473896"><ele>490.0</ele><time>2026-04-11T10:16:33Z</time></trkpt><trkpt lat="40.248909354720816" lon="9.18039015829955"><ele>490.00000000000006</ele><time>2026-04-11T10:16:34Z</time></trkpt><trkpt lat="40.248946255503014" lon="9.180462860409285"><ele>490.0</ele><time>2026-04-11T10:16:35Z</time></trkpt><trkpt lat="40.248962198935125" lon="9.180557916084304"><ele>490.0</ele><time>2026-04-11T10:16:36Z</time></trkpt><trkpt lat="40.248971976725386" lon="9.180664245925493"><ele>490.0</ele><time>2026-04-11T10:16:37Z</time></trkpt><trkpt lat="40.2489790659329" lon="9.180778917277538"><ele>490.00000000000006</ele><time>2026-04-11T10:16:38Z</time></trkpt><trkpt lat="40.24898007619035" lon="9.180905393198202"><ele>490.0</ele><time>2026-04-11T10:16:39Z</time></trkpt><trkpt lat="40.24897589073981" lon="9.181042111091244"><ele>491.0</ele><time>2026-04-11T10:16:40Z</time></trkpt><trkpt lat="40.248973951185185" lon="9.181174710407182"><ele>492.0</ele><time>2026-04-11T10:16:41Z</time></trkpt><trkpt lat="40.248972512205526" lon="9.181300384777735"><ele>493.0</ele><time>2026-04-11T10:16:42Z</time></trkpt><trkpt lat="40.24899451254845" lon="9.18142185096718"><ele>494.0</ele><time>2026-04-11T10:16:43Z</time></trkpt><trkpt lat="40.24901573171189" lon="9.181543064640563"><ele>495.0</ele><time>2026-04-11T10:16:44Z</time></trkpt><trkpt lat="40.2490429868816" lon="9.181672631427036"><ele>495.4</ele><time>2026-04-11T10:16:45Z</time></trkpt><trkpt lat="40.249056998193346" lon="9.18177607220041"><ele>495.8</ele><time>2026-04-11T10:16:46Z</time></trkpt><trkpt lat="40.249099131510626" lon="9.181906015165655"><ele>496.20000000000005</ele><time>2026-04-11T10:16:47Z</time></trkpt><trkpt lat="40.24915023438857" lon="9.182024419185446"><ele>496.6</ele><time>2026-04-11T10:16:48Z</time></trkpt><trkpt lat="40.249209865320616" lon="9.182107253751422"><ele>497.0</ele><time>2026-04-11T10:16:49Z</time></trkpt><trkpt lat="40.24926979051204" lon="9.182172351154799"><ele>497.0</ele><time>2026-04-11T10:16:50Z</time></trkpt><trkpt lat="40.249384749944454" lon="9.182290757881287"><ele>497.0</ele><time>2026-04-11T10:16:52Z</time></trkpt><trkpt lat="40.24945541167827" lon="9.182384327900175"><ele>497.0</ele><time>2026-04-11T10:16:53Z</time></trkpt><trkpt lat="40.2495281508209" lon="9.182504720054446"><ele>497.0</ele><time>2026-04-11T10:16:54Z</time></trkpt><trkpt lat="40.24959483878701" lon="9.182636801059926"><ele>497.40000000000003</ele><time>2026-04-11T10:16:55Z</time></trkpt><trkpt lat="40.249629558902285" lon="9.182769441271544"><ele>497.80000000000007</ele><time>2026-04-11T10:16:56Z</time></trkpt><trkpt lat="40.24961371217394" lon="9.18288905016193"><ele>498.2</ele><time>2026-04-11T10:16:57Z</time></trkpt><trkpt lat="40.249596642318004" lon="9.183008401683326"><ele>498.6</ele><time>2026-04-11T10:16:58Z</time></trkpt><trkpt lat="40.249521783544694" lon="9.183107424701994"><ele>499.0</ele><time>2026-04-11T10:16:59Z</time></trkpt><trkpt lat="40.24947171444055" lon="9.183241117856195"><ele>500.0</ele><time>2026-04-11T10:17:00Z</time></trkpt><trkpt lat="40.24941818925446" lon="9.183380201795147"><ele>501.0</ele><time>2026-04-11T10:17:01Z</time></trkpt><trkpt lat="40.24938139075922" lon="9.18354363923336"><ele>502.0</ele><time>2026-04-11T10:17:02Z</time></trkpt><trkpt lat="40.2493544937708" lon="9.183720507658323"><ele>503.0</ele><time>2026-04-11T10:17:03Z</time></trkpt><trkpt lat="40.24933627096505" lon="9.183901214680247"><ele>504.75</ele><time>2026-04-11T10:17:04Z</time></trkpt><trkpt lat="40.249342429692625" lon="9.184068301780306"><ele>506.5</ele><time>2026-04-11T10:17:05Z</time></trkpt><trkpt lat="40.24936313579552" lon="9.18423236822158"><ele>508.25</ele><time>2026-04-11T10:17:06Z</time></trkpt><trkpt lat="40.249402167102076" lon="9.184405656369142"><ele>510.0</ele><time>2026-04-11T10:17:07Z</time></trkpt><trkpt lat="40.24946663121976" lon="9.18458171740308"><ele>510.0</ele><time>2026-04-11T10:17:08Z</time></trkpt><trkpt lat="40.249525701281776" lon="9.184752734305999"><ele>510.0</ele><time>2026-04-11T10:17:09Z</time></trkpt><trkpt lat="40.249562236964614" lon="9.184929040889372"><ele>510.0</ele><time>2026-04-11T10:17:10Z</time></trkpt><trkpt lat="40.24960988654581" lon="9.185087413397156"><ele>510.0</ele><time>2026-04-11T10:17:11Z</time></trkpt><trkpt lat="40.24965431125165" lon="9.185235503122797"><ele>511.75</ele><time>2026-04-11T10:17:12Z</time></trkpt><trkpt lat="40.24969276363248" lon="9.18538003825558"><ele>513.5</ele><time>2026-04-11T10:17:13Z</time></trkpt><trkpt lat="40.24972166160202" lon="9.185540714805663"><ele>515.25</ele><time>2026-04-11T10:17:14Z</time></trkpt><trkpt lat="40.249695173355214" lon="9.185723901232972"><ele>517.0</ele><time>2026-04-11T10:17:15Z</time></trkpt><trkpt lat="40.24967563101834" lon="9.185934491292242"><ele>517.75</ele><time>2026-04-11T10:17:16Z</time></trkpt><trkpt lat="40.249625416217526" lon="9.186132452369156"><ele>518.5</ele><time>2026-04-11T10:17:17Z</time></trkpt><trkpt lat="40.24956126371594" lon="9.186306022140386"><ele>519.25</ele><time>2026-04-11T10:17:18Z</time></trkpt><trkpt lat="40.249481923980525" lon="9.186446403135992"><ele>520.0</ele><time>2026-04-11T10:17:19Z</time></trkpt><trkpt lat="40.24944210445427" lon="9.186578115050258"><ele>520.0</ele><time>2026-04-11T10:17:20Z</time></trkpt><trkpt lat="40.249454281378014" lon="9.186713611343574"><ele>520.0</ele><time>2026-04-11T10:17:21Z</time></trkpt><trkpt lat="40.249507300973406" lon="9.186864601570488"><ele>520.0</ele><time>2026-04-11T10:17:22Z</time></trkpt><trkpt lat="40.24957211521477" lon="9.187026889918096"><ele>520.0</ele><time>2026-04-11T10:17:23Z</time></trkpt><trkpt lat="40.24964195684167" lon="9.187199522694083"><ele>521.25</ele><time>2026-04-11T10:17:24Z</time></trkpt><trkpt lat="40.24971931811294" lon="9.187376354783467"><ele>522.5</ele><time>2026-04-11T10:17:25Z</time></trkpt><trkpt lat="40.24981650727668" lon="9.18752368521888"><ele>523.75</ele><time>2026-04-11T10:17:26Z</time></trkpt><trkpt lat="40.24993278003063" lon="9.187628545454885"><ele>525.0</ele><time>2026-04-11T10:17:27Z</time></trkpt><trkpt lat="40.25006761604386" lon="9.187677383824898"><ele>527.75</ele><time>2026-04-11T10:17:28Z</time></trkpt><trkpt lat="40.25021531226919" lon="9.187677796428783"><ele>530.5</ele><time>2026-04-11T10:17:29Z</time></trkpt><trkpt lat="40.2503461202856" lon="9.18762816590771"><ele>533.25</ele><time>2026-04-11T10:17:30Z</time></trkpt><trkpt lat="40.250459973554335" lon="9.187523256986093"><ele>536.0</ele><time>2026-04-11T10:17:31Z</time></trkpt><trkpt lat="40.25054105686281" lon="9.187380570470516"><ele>537.0</ele><time>2026-04-11T10:17:32Z</time></trkpt><trkpt lat="40.250614565016335" lon="9.187222298351948"><ele>538.0</ele><time>2026-04-11T10:17:33Z</time></trkpt><trkpt lat="40.25069079629347" lon="9.187076124588025"><ele>539.0</ele><time>2026-04-11T10:17:34Z</time></trkpt><trkpt lat="40.250801882535846" lon="9.186989472228017"><ele>540.0</ele><time>2026-04-11T10:17:35Z</time></trkpt><trkpt lat="40.250956918604814" lon="9.186983823297759"><ele>540.0</ele><time>2026-04-11T10:17:36Z</time></trkpt><trkpt lat="40.25111040807269" lon="9.186905976245823"><ele>540.0</ele><time>2026-04-11T10:17:37Z</time></trkpt><trkpt lat="40.25126034485098" lon="9.186825928240545"><ele>540.0</ele><time>2026-04-11T10:17:38Z</time></trkpt><trkpt lat="40.25140617005971" lon="9.186714519086264"><ele>541.3333333333334</ele><time>2026-04-11T10:17:39Z</time></trkpt><trkpt lat="40.2515484832826" lon="9.186577910991204"><ele>542.6666666666667</ele><time>2026-04-11T10:17:40Z</time></trkpt><trkpt lat="40.25169501189255" lon="9.186436878311047"><ele>544.0</ele><time>2026-04-11T10:17:41Z</time></trkpt><trkpt lat="40.251860537909295" lon="9.186331985558445"><ele>544.0</ele><time>2026-04-11T10:17:42Z</time></trkpt><trkpt lat="40.25202928214348" lon="9.186218190916"><ele>544.0</ele><time>2026-04-11T10:17:43Z</time></trkpt><trkpt lat="40.25219644390656" lon="9.18608589328481"><ele>544.0</ele><time>2026-04-11T10:17:44Z</time></trkpt><trkpt lat="40.252381146736695" lon="9.185990344060846"><ele>549.6666666666667</ele><time>2026-04-11T10:17:45Z</time></trkpt><trkpt lat="40.252546644698995" lon="9.185865347691442"><ele>555.3333333333334</ele><time>2026-04-11T10:17:46Z</time></trkpt><trkpt lat="40.252713800682514" lon="9.185781291441945"><ele>561.0</ele><time>2026-04-11T10:17:47Z</time></trkpt><trkpt lat="40.25286913096658" lon="9.18569368536308"><ele>559.3333333333334</ele><time>2026-04-11T10:17:48Z</time></trkpt><trkpt lat="40.25302789155018" lon="9.185616717707354"><ele>557.6666666666667</ele><time>2026-04-11T10:17:49Z</time></trkpt><trkpt lat="40.25319603341476" lon="9.185554090067116"><ele>556.0</ele><time>2026-04-11T10:17:50Z</time></trkpt><trkpt lat="40.25336911059596" lon="9.185506486012137"><ele>556.0</ele><time>2026-04-11T10:17:51Z</time></trkpt><trkpt lat="40.2535459891489" lon="9.185461078189551"><ele>556.0</ele><time>2026-04-11T10:17:52Z</time></trkpt><trkpt lat="40.25371470112039" lon="9.185394804870922"><ele>556.0</ele><time>2026-04-11T10:17:53Z</time></trkpt><trkpt lat="40.25388255218246" lon="9.18534407822961"><ele>561.6666666666667</ele><time>2026-04-11T10:17:54Z</time></trkpt><trkpt lat="40.254046685005605" lon="9.185261813939997"><ele>567.3333333333334</ele><time>2026-04-11T10:17:55Z</time></trkpt><trkpt lat="40.254204972360775" lon="9.185141589190318"><ele>573.0</ele><time>2026-04-11T10:17:56Z</time></trkpt><trkpt lat="40.25434581560221" lon="9.184998531735317"><ele>573.0</ele><time>2026-04-11T10:17:57Z</time></trkpt><trkpt lat="40.25447274623461" lon="9.184886026698779"><ele>573.0</ele><time>2026-04-11T10:17:58Z</time></trkpt><trkpt lat="40.25458967673179" lon="9.18475513278911"><ele>573.0</ele><time>2026-04-11T10:17:59Z</time></trkpt><trkpt lat="40.254716225618516" lon="9.184665403415497"><ele>572.0</ele><time>2026-04-11T10:18:00Z</time></trkpt><trkpt lat="40.25483633489862" lon="9.184576483430327"><ele>571.0</ele><time>2026-04-11T10:18:01Z</time></trkpt><trkpt lat="40.25494888865926" lon="9.184482093837165"><ele>570.0</ele><time>2026-04-11T10:18:02Z</time></trkpt><trkpt lat="40.255061252743324" lon="9.184404215096333"><ele>569.0</ele><time>2026-04-11T10:18:03Z</time></trkpt><trkpt lat="40.25515694489683" lon="9.184306200668257"><ele>569.0</ele><time>2026-04-11T10:18:04Z</time></trkpt><trkpt lat="40.255226223696766" lon="9.184182369261269"><ele>569.0</ele><time>2026-04-11T10:18:05Z</time></trkpt><trkpt lat="40.25528057096987" lon="9.18404456635353"><ele>569.0</ele><time>2026-04-11T10:18:06Z</time></trkpt><trkpt lat="40.25533272601809" lon="9.183932159336448"><ele>569.0</ele><time>2026-04-11T10:18:07Z</time></trkpt><trkpt lat="40.255395358454386" lon="9.183852869342584"><ele>569.0</ele><time>2026-04-11T10:18:08Z</time></trkpt><trkpt lat="40.25546457373563" lon="9.183820016349536"><ele>569.0</ele><time>2026-04-11T10:18:09Z</time></trkpt><trkpt lat="40.255531809531426" lon="9.183838016896964"><ele>569.0</ele><time>2026-04-11T10:18:10Z</time></trkpt><trkpt lat="40.25561141690754" lon="9.183908515723324"><ele>569.0</ele><time>2026-04-11T10:18:12Z</time></trkpt><trkpt lat="40.25565653258644" lon="9.18399404911256"><ele>569.0</ele><time>2026-04-11T10:18:15Z</time></trkpt><trkpt lat="40.255662294451824" lon="9.184117261027447"><ele>569.0</ele><time>2026-04-11T10:18:17Z</time></trkpt><trkpt lat="40.25566521113787" lon="9.184202648125972"><ele>569.0</ele><time>2026-04-11T10:18:18Z</time></trkpt><trkpt lat="40.25567989529692" lon="9.184286597437136"><ele>570.6</ele><time>2026-04-11T10:18:19Z</time></trkpt><trkpt lat="40.255737796343325" lon="9.184383307157116"><ele>572.2</ele><time>2026-04-11T10:18:21Z</time></trkpt><trkpt lat="40.25581373418306" lon="9.184405910971257"><ele>573.8000000000001</ele><time>2026-04-11T10:18:23Z</time></trkpt><trkpt lat="40.25594491959071" lon="9.184406842147375"><ele>575.4</ele><time>2026-04-11T10:18:25Z</time></trkpt><trkpt lat="40.256012015665334" lon="9.184344026603986"><ele>577.0</ele><time>2026-04-11T10:18:26Z</time></trkpt><trkpt lat="40.25605336826791" lon="9.184237093590184"><ele>577.0</ele><time>2026-04-11T10:18:27Z</time></trkpt><trkpt lat="40.25608127892373" lon="9.184106080978014"><ele>577.0</ele><time>2026-04-11T10:18:28Z</time></trkpt><trkpt lat="40.25612085787171" lon="9.183963098072281"><ele>577.0</ele><time>2026-04-11T10:18:29Z</time></trkpt><trkpt lat="40.25619019704277" lon="9.183840213816765"><ele>577.0</ele><time>2026-04-11T10:18:30Z</time></trkpt><trkpt lat="40.25625944905543" lon="9.183743440038233"><ele>577.0</ele><time>2026-04-11T10:18:31Z</time></trkpt><trkpt lat="40.25633490519397" lon="9.183660831038548"><ele>578.5</ele><time>2026-04-11T10:18:32Z</time></trkpt><trkpt lat="40.25645518011206" lon="9.183675898907262"><ele>580.0</ele><time>2026-04-11T10:18:33Z</time></trkpt><trkpt lat="40.256576499274125" lon="9.183692915535483"><ele>581.5</ele><time>2026-04-11T10:18:34Z</time></trkpt><trkpt lat="40.25671321862451" lon="9.183721294979595"><ele>583.0</ele><time>2026-04-11T10:18:35Z</time></trkpt><trkpt lat="40.256844667016985" lon="9.183769679931704"><ele>583.0</ele><time>2026-04-11T10:18:36Z</time></trkpt><trkpt lat="40.2569681943894" lon="9.183843157639272"><ele>583.0</ele><time>2026-04-11T10:18:37Z</time></trkpt><trkpt lat="40.257096839199136" lon="9.183923311636"><ele>583.0</ele><time>2026-04-11T10:18:38Z</time></trkpt><trkpt lat="40.257224190247" lon="9.18398808358389"><ele>583.0</ele><time>2026-04-11T10:18:39Z</time></trkpt><trkpt lat="40.25734574683583" lon="9.184071621752494"><ele>584.5</ele><time>2026-04-11T10:18:40Z</time></trkpt><trkpt lat="40.25745984564252" lon="9.184137299905405"><ele>586.0</ele><time>2026-04-11T10:18:41Z</time></trkpt><trkpt lat="40.257571913715836" lon="9.184180801289935"><ele>587.5</ele><time>2026-04-11T10:18:42Z</time></trkpt><trkpt lat="40.257686307233634" lon="9.184199554656129"><ele>589.0</ele><time>2026-04-11T10:18:43Z</time></trkpt><trkpt lat="40.25780285963503" lon="9.184187299878715"><ele>589.0</ele><time>2026-04-11T10:18:44Z</time></trkpt><trkpt lat="40.257926420247635" lon="9.184155250611227"><ele>589.0</ele><time>2026-04-11T10:18:45Z</time></trkpt><trkpt lat="40.2580577105134" lon="9.18410106991012"><ele>589.0</ele><time>2026-04-11T10:18:46Z</time></trkpt><trkpt lat="40.25820030037197" lon="9.184030539224628"><ele>589.0</ele><time>2026-04-11T10:18:47Z</time></trkpt><trkpt lat="40.25835698797146" lon="9.18395384682378"><ele>591.3333333333334</ele><time>2026-04-11T10:18:48Z</time></trkpt><trkpt lat="40.25852185742905" lon="9.183871063075872"><ele>593.6666666666666</ele><time>2026-04-11T10:18:49Z</time></trkpt><trkpt lat="40.25869311628618" lon="9.183785031208174"><ele>596.0</ele><time>2026-04-11T10:18:50Z</time></trkpt><trkpt lat="40.25886275285727" lon="9.18370612587715"><ele>592.6666666666666</ele><time>2026-04-11T10:18:51Z</time></trkpt><trkpt lat="40.259027375244656" lon="9.183631895460012"><ele>589.3333333333334</ele><time>2026-04-11T10:18:52Z</time></trkpt><trkpt lat="40.25918431329366" lon="9.183537782467859"><ele>586.0</ele><time>2026-04-11T10:18:53Z</time></trkpt><trkpt lat="40.25932401183128" lon="9.183399585156025"><ele>586.0</ele><time>2026-04-11T10:18:54Z</time></trkpt><trkpt lat="40.25943652892794" lon="9.183211410175508"><ele>586.0</ele><time>2026-04-11T10:18:55Z</time></trkpt><trkpt lat="40.25953269535577" lon="9.182997549098308"><ele>586.0</ele><time>2026-04-11T10:18:56Z</time></trkpt><trkpt lat="40.259620462672345" lon="9.18279638256082"><ele>588.3333333333334</ele><time>2026-04-11T10:18:57Z</time></trkpt><trkpt lat="40.259706914487815" lon="9.182615362321414"><ele>590.6666666666666</ele><time>2026-04-11T10:18:58Z</time></trkpt><trkpt lat="40.25977200744042" lon="9.18242053625774"><ele>593.0</ele><time>2026-04-11T10:18:59Z</time></trkpt><trkpt lat="40.25982203096608" lon="9.182220858480585"><ele>588.75</ele><time>2026-04-11T10:19:00Z</time></trkpt><trkpt lat="40.259861964720734" lon="9.182037123887751"><ele>584.5</ele><time>2026-04-11T10:19:01Z</time></trkpt><trkpt lat="40.259901372190086" lon="9.181877916100802"><ele>580.25</ele><time>2026-04-11T10:19:02Z</time></trkpt><trkpt lat="40.259981448507695" lon="9.181768483610695"><ele>576.0</ele><time>2026-04-11T10:19:03Z</time></trkpt><trkpt lat="40.260069269500804" lon="9.18170384498775"><ele>576.0</ele><time>2026-04-11T10:19:04Z</time></trkpt><trkpt lat="40.26017978409616" lon="9.181683232036763"><ele>576.0</ele><time>2026-04-11T10:19:05Z</time></trkpt><trkpt lat="40.26032775435723" lon="9.181661274116466"><ele>576.0</ele><time>2026-04-11T10:19:06Z</time></trkpt><trkpt lat="40.260494771662415" lon="9.18162689584309"><ele>576.0</ele><time>2026-04-11T10:19:07Z</time></trkpt><trkpt lat="40.26066429066185" lon="9.1816131927706"><ele>577.0</ele><time>2026-04-11T10:19:08Z</time></trkpt><trkpt lat="40.26083864421811" lon="9.1815893009242"><ele>578.0</ele><time>2026-04-11T10:19:09Z</time></trkpt><trkpt lat="40.26100361714714" lon="9.181541991097362"><ele>579.0</ele><time>2026-04-11T10:19:10Z</time></trkpt><trkpt lat="40.26115524341267" lon="9.181448526137528"><ele>579.0</ele><time>2026-04-11T10:19:11Z</time></trkpt><trkpt lat="40.261300726224725" lon="9.181307153886006"><ele>579.0</ele><time>2026-04-11T10:19:12Z</time></trkpt><trkpt lat="40.26143465953542" lon="9.181132334734615"><ele>579.0</ele><time>2026-04-11T10:19:13Z</time></trkpt><trkpt lat="40.26154779770399" lon="9.180929088889059"><ele>575.6666666666666</ele><time>2026-04-11T10:19:14Z</time></trkpt><trkpt lat="40.26164143518768" lon="9.180695923218668"><ele>572.3333333333333</ele><time>2026-04-11T10:19:15Z</time></trkpt><trkpt lat="40.261730910847696" lon="9.180456294254261"><ele>569.0</ele><time>2026-04-11T10:19:16Z</time></trkpt><trkpt lat="40.26182328843788" lon="9.18022118196471"><ele>569.0</ele><time>2026-04-11T10:19:17Z</time></trkpt><trkpt lat="40.26191227523168" lon="9.179980742756152"><ele>569.0</ele><time>2026-04-11T10:19:18Z</time></trkpt><trkpt lat="40.26198340344706" lon="9.17972276057545"><ele>569.0</ele><time>2026-04-11T10:19:19Z</time></trkpt><trkpt lat="40.26203859873183" lon="9.179459232645513"><ele>570.3333333333333</ele><time>2026-04-11T10:19:20Z</time></trkpt><trkpt lat="40.26208634334869" lon="9.179209203085149"><ele>571.6666666666666</ele><time>2026-04-11T10:19:21Z</time></trkpt><trkpt lat="40.26213752954855" lon="9.178969734537949"><ele>573.0</ele><time>2026-04-11T10:19:22Z</time></trkpt><trkpt lat="40.26218607060218" lon="9.178735343150645"><ele>575.0</ele><time>2026-04-11T10:19:23Z</time></trkpt><trkpt lat="40.26223152339831" lon="9.178508256558764"><ele>577.0</ele><time>2026-04-11T10:19:24Z</time></trkpt><trkpt lat="40.26227582572707" lon="9.178293846275661"><ele>579.0</ele><time>2026-04-11T10:19:25Z</time></trkpt><trkpt lat="40.26231540003575" lon="9.178093648284621"><ele>571.0</ele><time>2026-04-11T10:19:26Z</time></trkpt><trkpt lat="40.262355822452285" lon="9.177910890474234"><ele>563.0</ele><time>2026-04-11T10:19:27Z</time></trkpt><trkpt lat="40.26240097247051" lon="9.177740486738431"><ele>555.0</ele><time>2026-04-11T10:19:28Z</time></trkpt><trkpt lat="40.262457056151064" lon="9.17757701804062"><ele>547.0</ele><time>2026-04-11T10:19:29Z</time></trkpt><trkpt lat="40.26252746190811" lon="9.177426101491463"><ele>548.0</ele><time>2026-04-11T10:19:30Z</time></trkpt><trkpt lat="40.26261865446123" lon="9.17728101288247"><ele>549.0</ele><time>2026-04-11T10:19:31Z</time></trkpt><trkpt lat="40.26271957366518" lon="9.177140866952731"><ele>550.0</ele><time>2026-04-11T10:19:32Z</time></trkpt><trkpt lat="40.262807329996775" lon="9.176992999743645"><ele>551.0</ele><time>2026-04-11T10:19:33Z</time></trkpt><trkpt lat="40.262887954680906" lon="9.176837412876228"><ele>551.0</ele><time>2026-04-11T10:19:34Z</time></trkpt><trkpt lat="40.262949752727785" lon="9.176677659275812"><ele>551.0</ele><time>2026-04-11T10:19:35Z</time></trkpt><trkpt lat="40.262998526312444" lon="9.176531236735977"><ele>551.0</ele><time>2026-04-11T10:19:36Z</time></trkpt><trkpt lat="40.26302719214614" lon="9.176398004795226"><ele>551.0</ele><time>2026-04-11T10:19:37Z</time></trkpt><trkpt lat="40.26303060130186" lon="9.176265173773437"><ele>551.0</ele><time>2026-04-11T10:19:38Z</time></trkpt><trkpt lat="40.262995094870924" lon="9.1761293236576"><ele>551.0</ele><time>2026-04-11T10:19:39Z</time></trkpt><trkpt lat="40.26292369247078" lon="9.176003242759224"><ele>551.0</ele><time>2026-04-11T10:19:40Z</time></trkpt><trkpt lat="40.26285257824179" lon="9.175889647441881"><ele>551.0</ele><time>2026-04-11T10:19:41Z</time></trkpt><trkpt lat="40.262796075871776" lon="9.175773351280258"><ele>551.0</ele><time>2026-04-11T10:19:42Z</time></trkpt><trkpt lat="40.26276278223983" lon="9.175664475077232"><ele>551.0</ele><time>2026-04-11T10:19:43Z</time></trkpt><trkpt lat="40.262795034494815" lon="9.175555682753188"><ele>551.0</ele><time>2026-04-11T10:19:44Z</time></trkpt><trkpt lat="40.26283625581929" lon="9.17546257955554"><ele>551.0</ele><time>2026-04-11T10:19:45Z</time></trkpt><trkpt lat="40.262902945480796" lon="9.175391263659204"><ele>551.0</ele><time>2026-04-11T10:19:46Z</time></trkpt><trkpt lat="40.26297806864845" lon="9.175326304897528"><ele>551.0</ele><time>2026-04-11T10:19:47Z</time></trkpt><trkpt lat="40.26307238942409" lon="9.175297569110295"><ele>551.0</ele><time>2026-04-11T10:19:48Z</time></trkpt><trkpt lat="40.263175813317496" lon="9.175335832057447"><ele>550.5</ele><time>2026-04-11T10:19:49Z</time></trkpt><trkpt lat="40.263286038782944" lon="9.175372049678513"><ele>550.0</ele><time>2026-04-11T10:19:50Z</time></trkpt><trkpt lat="40.263402098592266" lon="9.175429074740796"><ele>549.5</ele><time>2026-04-11T10:19:51Z</time></trkpt><trkpt lat="40.26352140349182" lon="9.175454965903361"><ele>549.0</ele><time>2026-04-11T10:19:52Z</time></trkpt><trkpt lat="40.263627495172166" lon="9.175495254825384"><ele>549.0</ele><time>2026-04-11T10:19:53Z</time></trkpt><trkpt lat="40.26373334447441" lon="9.175498899983289"><ele>549.0</ele><time>2026-04-11T10:19:54Z</time></trkpt><trkpt lat="40.2638421237322" lon="9.175456020975783"><ele>549.0</ele><time>2026-04-11T10:19:55Z</time></trkpt><trkpt lat="40.263952811353214" lon="9.175378361299629"><ele>549.0</ele><time>2026-04-11T10:19:56Z</time></trkpt><trkpt lat="40.2640808151846" lon="9.175299428157462"><ele>547.5</ele><time>2026-04-11T10:19:57Z</time></trkpt><trkpt lat="40.264206696798674" lon="9.175247630311064"><ele>546.0</ele><time>2026-04-11T10:19:58Z</time></trkpt><trkpt lat="40.264335065600754" lon="9.175223259602392"><ele>544.5</ele><time>2026-04-11T10:19:59Z</time></trkpt><trkpt lat="40.26445697484401" lon="9.175185296826259"><ele>543.0</ele><time>2026-04-11T10:20:00Z</time></trkpt><trkpt lat="40.264577887769406" lon="9.175152631417934"><ele>543.0</ele><time>2026-04-11T10:20:01Z</time></trkpt><trkpt lat="40.264698407007735" lon="9.175104143870861"><ele>543.0</ele><time>2026-04-11T10:20:02Z</time></trkpt><trkpt lat="40.264825023045525" lon="9.175084064108232"><ele>543.0</ele><time>2026-04-11T10:20:03Z</time></trkpt><trkpt lat="40.264948857081905" lon="9.175099412300542"><ele>543.0</ele><time>2026-04-11T10:20:04Z</time></trkpt><trkpt lat="40.26506908441933" lon="9.175104635184825"><ele>540.6</ele><time>2026-04-11T10:20:05Z</time></trkpt><trkpt lat="40.265185030422124" lon="9.175099573928238"><ele>538.1999999999999</ele><time>2026-04-11T10:20:06Z</time></trkpt><trkpt lat="40.265287818668966" lon="9.175163408046489"><ele>535.8</ele><time>2026-04-11T10:20:07Z</time></trkpt><trkpt lat="40.26537476143076" lon="9.175221589493322"><ele>533.4</ele><time>2026-04-11T10:20:08Z</time></trkpt><trkpt lat="40.2654649310064" lon="9.175263980986372"><ele>531.0</ele><time>2026-04-11T10:20:09Z</time></trkpt><trkpt lat="40.265539999114615" lon="9.175319918438367"><ele>529.0</ele><time>2026-04-11T10:20:10Z</time></trkpt><trkpt lat="40.26562138149052" lon="9.175350605632476"><ele>527.0</ele><time>2026-04-11T10:20:11Z</time></trkpt><trkpt lat="40.26570626875881" lon="9.175344562879344"><ele>525.0</ele><time>2026-04-11T10:20:12Z</time></trkpt><trkpt lat="40.26578710509752" lon="9.175289873070186"><ele>523.0</ele><time>2026-04-11T10:20:13Z</time></trkpt><trkpt lat="40.265858318156134" lon="9.175189436703096"><ele>521.0</ele><time>2026-04-11T10:20:14Z</time></trkpt><trkpt lat="40.265911202072814" lon="9.175060615066641"><ele>521.0</ele><time>2026-04-11T10:20:15Z</time></trkpt><trkpt lat="40.26594400774742" lon="9.174925717170959"><ele>521.0</ele><time>2026-04-11T10:20:16Z</time></trkpt><trkpt lat="40.265969354056224" lon="9.174797869391877"><ele>521.0</ele><time>2026-04-11T10:20:17Z</time></trkpt><trkpt lat="40.26600464720129" lon="9.17468044749607"><ele>521.0</ele><time>2026-04-11T10:20:18Z</time></trkpt><trkpt lat="40.26605244923958" lon="9.174565464145005"><ele>521.0</ele><time>2026-04-11T10:20:19Z</time></trkpt><trkpt lat="40.266128522236656" lon="9.174474668269067"><ele>522.8</ele><time>2026-04-11T10:20:20Z</time></trkpt><trkpt lat="40.266199439157226" lon="9.174373200151294"><ele>524.6</ele><time>2026-04-11T10:20:21Z</time></trkpt><trkpt lat="40.26627079576535" lon="9.174262510678469"><ele>526.4</ele><time>2026-04-11T10:20:22Z</time></trkpt><trkpt lat="40.26636470049699" lon="9.17416927550781"><ele>528.2</ele><time>2026-04-11T10:20:23Z</time></trkpt><trkpt lat="40.26646631765803" lon="9.174104611999404"><ele>530.0</ele><time>2026-04-11T10:20:24Z</time></trkpt><trkpt lat="40.266566442211776" lon="9.174039011284465"><ele>530.4</ele><time>2026-04-11T10:20:25Z</time></trkpt><trkpt lat="40.266664307934114" lon="9.173980461671801"><ele>530.8</ele><time>2026-04-11T10:20:26Z</time></trkpt><trkpt lat="40.266756022748275" lon="9.173910075139027"><ele>531.2</ele><time>2026-04-11T10:20:27Z</time></trkpt><trkpt lat="40.26685394580917" lon="9.173861355704444"><ele>531.6</ele><time>2026-04-11T10:20:28Z</time></trkpt><trkpt lat="40.266950762078395" lon="9.173801239950526"><ele>532.0</ele><time>2026-04-11T10:20:29Z</time></trkpt><trkpt lat="40.267052736595254" lon="9.173736331249401"><ele>532.0</ele><time>2026-04-11T10:20:30Z</time></trkpt><trkpt lat="40.26715869622216" lon="9.173668466952103"><ele>532.0</ele><time>2026-04-11T10:20:31Z</time></trkpt><trkpt lat="40.26725918366737" lon="9.17359116953298"><ele>532.0</ele><time>2026-04-11T10:20:32Z</time></trkpt><trkpt lat="40.26735168405089" lon="9.173506583595115"><ele>532.0</ele><time>2026-04-11T10:20:33Z</time></trkpt><trkpt lat="40.26744254902735" lon="9.173420066643518"><ele>529.2</ele><time>2026-04-11T10:20:34Z</time></trkpt><trkpt lat="40.26752905372866" lon="9.173328164985167"><ele>526.4000000000001</ele><time>2026-04-11T10:20:35Z</time></trkpt><trkpt lat="40.267611782741554" lon="9.173234875250975"><ele>523.5999999999999</ele><time>2026-04-11T10:20:36Z</time></trkpt><trkpt lat="40.26769063355198" lon="9.173139272775098"><ele>520.8</ele><time>2026-04-11T10:20:37Z</time></trkpt><trkpt lat="40.2677573031522" lon="9.173058433966"><ele>518.0</ele><time>2026-04-11T10:20:38Z</time></trkpt><trkpt lat="40.267828505046914" lon="9.172975885578643"><ele>518.0</ele><time>2026-04-11T10:20:39Z</time></trkpt><trkpt lat="40.26789690199493" lon="9.172892447078889"><ele>518.0</ele><time>2026-04-11T10:20:40Z</time></trkpt><trkpt lat="40.267957313013945" lon="9.172791637744837"><ele>518.0</ele><time>2026-04-11T10:20:41Z</time></trkpt><trkpt lat="40.26800411689455" lon="9.172664300983403"><ele>518.0</ele><time>2026-04-11T10:20:42Z</time></trkpt><trkpt lat="40.26803278092826" lon="9.172518091557695"><ele>518.0</ele><time>2026-04-11T10:20:43Z</time></trkpt><trkpt lat="40.26804290246622" lon="9.172375796886014"><ele>518.0</ele><time>2026-04-11T10:20:44Z</time></trkpt><trkpt lat="40.26805400487168" lon="9.172237440097271"><ele>518.0</ele><time>2026-04-11T10:20:45Z</time></trkpt><trkpt lat="40.26805549553694" lon="9.172099341616756"><ele>518.0</ele><time>2026-04-11T10:20:46Z</time></trkpt><trkpt lat="40.268057672792565" lon="9.171962848726483"><ele>518.0</ele><time>2026-04-11T10:20:47Z</time></trkpt><trkpt lat="40.268057391465035" lon="9.171828010321782"><ele>518.0</ele><time>2026-04-11T10:20:48Z</time></trkpt><trkpt lat="40.268060896134266" lon="9.171695175566276"><ele>518.0</ele><time>2026-04-11T10:20:49Z</time></trkpt><trkpt lat="40.268067354016154" lon="9.17156430489006"><ele>518.0</ele><time>2026-04-11T10:20:50Z</time></trkpt><trkpt lat="40.26807309727726" lon="9.171434032738333"><ele>518.0</ele><time>2026-04-11T10:20:51Z</time></trkpt><trkpt lat="40.26809646148086" lon="9.171308333919258"><ele>518.0</ele><time>2026-04-11T10:20:52Z</time></trkpt><trkpt lat="40.26814314858394" lon="9.171192099037834"><ele>518.0</ele><time>2026-04-11T10:20:53Z</time></trkpt><trkpt lat="40.26821143586926" lon="9.171083309706141"><ele>513.25</ele><time>2026-04-11T10:20:54Z</time></trkpt><trkpt lat="40.26829231478663" lon="9.170982306054913"><ele>508.5</ele><time>2026-04-11T10:20:55Z</time></trkpt><trkpt lat="40.26838341358187" lon="9.170885458505246"><ele>503.75</ele><time>2026-04-11T10:20:56Z</time></trkpt><trkpt lat="40.268480340083606" lon="9.170788842640484"><ele>499.0</ele><time>2026-04-11T10:20:57Z</time></trkpt><trkpt lat="40.26857845741796" lon="9.17069362617451"><ele>497.75</ele><time>2026-04-11T10:20:58Z</time></trkpt><trkpt lat="40.26866925496754" lon="9.170599455684203"><ele>496.5</ele><time>2026-04-11T10:20:59Z</time></trkpt><trkpt lat="40.26876165238702" lon="9.170510753271193"><ele>495.25</ele><time>2026-04-11T10:21:00Z</time></trkpt><trkpt lat="40.26885313075859" lon="9.170425768486588"><ele>494.0</ele><time>2026-04-11T10:21:01Z</time></trkpt><trkpt lat="40.268949869068045" lon="9.170350969877516"><ele>494.0</ele><time>2026-04-11T10:21:02Z</time></trkpt><trkpt lat="40.26904811661827" lon="9.170272815642244"><ele>494.0</ele><time>2026-04-11T10:21:03Z</time></trkpt><trkpt lat="40.26914782108469" lon="9.17019593144623"><ele>494.0</ele><time>2026-04-11T10:21:04Z</time></trkpt><trkpt lat="40.26924633522684" lon="9.170105355896235"><ele>494.0</ele><time>2026-04-11T10:21:05Z</time></trkpt><trkpt lat="40.269335562125505" lon="9.170009282064958"><ele>493.99999999999994</ele><time>2026-04-11T10:21:06Z</time></trkpt><trkpt lat="40.26941157615514" lon="9.16990454342603"><ele>494.0</ele><time>2026-04-11T10:21:07Z</time></trkpt><trkpt lat="40.26947797407505" lon="9.169811676410115"><ele>494.0</ele><time>2026-04-11T10:21:08Z</time></trkpt><trkpt lat="40.2695280550901" lon="9.169738956823661"><ele>494.0</ele><time>2026-04-11T10:21:09Z</time></trkpt><trkpt lat="40.269578364435375" lon="9.169675618725275"><ele>493.99999999999994</ele><time>2026-04-11T10:21:10Z</time></trkpt><trkpt lat="40.269631546194404" lon="9.169608535394902"><ele>494.0</ele><time>2026-04-11T10:21:11Z</time></trkpt><trkpt lat="40.26968623223892" lon="9.169545625818705"><ele>493.3333333333333</ele><time>2026-04-11T10:21:12Z</time></trkpt><trkpt lat="40.26973955601431" lon="9.169480739210803"><ele>492.66666666666663</ele><time>2026-04-11T10:21:13Z</time></trkpt><trkpt lat="40.26979709755982" lon="9.169417353493326"><ele>492.0</ele><time>2026-04-11T10:21:14Z</time></trkpt><trkpt lat="40.26985762022415" lon="9.169365976994317"><ele>491.33333333333337</ele><time>2026-04-11T10:21:15Z</time></trkpt><trkpt lat="40.26992122540215" lon="9.169316105651975"><ele>490.6666666666667</ele><time>2026-04-11T10:21:16Z</time></trkpt><trkpt lat="40.2700065609997" lon="9.169281626415476"><ele>490.0</ele><time>2026-04-11T10:21:17Z</time></trkpt><trkpt lat="40.27009520854223" lon="9.169243991576131"><ele>490.00000000000006</ele><time>2026-04-11T10:21:18Z</time></trkpt><trkpt lat="40.27018613729799" lon="9.169204895103247"><ele>490.0</ele><time>2026-04-11T10:21:19Z</time></trkpt><trkpt lat="40.27027853999006" lon="9.169174328896316"><ele>490.0</ele><time>2026-04-11T10:21:20Z</time></trkpt><trkpt lat="40.27036486559787" lon="9.169144440425177"><ele>490.0</ele><time>2026-04-11T10:21:21Z</time></trkpt><trkpt lat="40.27045045247403" lon="9.169136109862752"><ele>490.00000000000006</ele><time>2026-04-11T10:21:22Z</time></trkpt><trkpt lat="40.270517884450044" lon="9.169103980669778"><ele>490.0</ele><time>2026-04-11T10:21:23Z</time></trkpt><trkpt lat="40.270601170131094" lon="9.169113991957987"><ele>488.33333333333337</ele><time>2026-04-11T10:21:24Z</time></trkpt><trkpt lat="40.27067814039523" lon="9.169120139646704"><ele>486.6666666666667</ele><time>2026-04-11T10:21:25Z</time></trkpt><trkpt lat="40.27074655714775" lon="9.169113209413748"><ele>485.0</ele><time>2026-04-11T10:21:26Z</time></trkpt><trkpt lat="40.27085248139258" lon="9.16917453644313"><ele>483.33333333333337</ele><time>2026-04-11T10:21:28Z</time></trkpt><trkpt lat="40.27093356390878" lon="9.16921698697737"><ele>481.6666666666667</ele><time>2026-04-11T10:21:30Z</time></trkpt><trkpt lat="40.271000202011415" lon="9.169265664775628"><ele>480.0</ele><time>2026-04-11T10:21:33Z</time></trkpt><trkpt lat="40.27106553416225" lon="9.169300313388552"><ele>480.0</ele><time>2026-04-11T10:21:35Z</time></trkpt><trkpt lat="40.27114845220774" lon="9.16933543125661"><ele>480.0</ele><time>2026-04-11T10:21:37Z</time></trkpt><trkpt lat="40.27124431498191" lon="9.169356718912901"><ele>480.0</ele><time>2026-04-11T10:21:39Z</time></trkpt><trkpt lat="40.271338887883275" lon="9.169348154978778"><ele>480.0</ele><time>2026-04-11T10:21:41Z</time></trkpt><trkpt lat="40.27143299364148" lon="9.169323443102224"><ele>480.0</ele><time>2026-04-11T10:21:43Z</time></trkpt><trkpt lat="40.27154137124181" lon="9.169356378203124"><ele>478.4</ele><time>2026-04-11T10:21:45Z</time></trkpt><trkpt lat="40.27163125970623" lon="9.169437047380127"><ele>476.8</ele><time>2026-04-11T10:21:47Z</time></trkpt><trkpt lat="40.271691818807774" lon="9.169536262309958"><ele>475.20000000000005</ele><time>2026-04-11T10:21:49Z</time></trkpt><trkpt lat="40.27174902000117" lon="9.16964543629551"><ele>473.6</ele><time>2026-04-11T10:21:51Z</time></trkpt><trkpt lat="40.27182582226834" lon="9.169755228678763"><ele>472.0</ele><time>2026-04-11T10:21:53Z</time></trkpt><trkpt lat="40.27191931862973" lon="9.16982824647507"><ele>471.50000000000006</ele><time>2026-04-11T10:21:55Z</time></trkpt><trkpt lat="40.27198849427809" lon="9.16989187980001"><ele>471.0</ele><time>2026-04-11T10:21:57Z</time></trkpt><trkpt lat="40.2720732500271" lon="9.169916561086994"><ele>470.5</ele><time>2026-04-11T10:21:59Z</time></trkpt><trkpt lat="40.272138316506435" lon="9.169921254081336"><ele>470.0</ele><time>2026-04-11T10:22:00Z</time></trkpt><trkpt lat="40.27220895085555" lon="9.169919593595578"><ele>469.50000000000006</ele><time>2026-04-11T10:22:01Z</time></trkpt><trkpt lat="40.272280864169076" lon="9.169909495757485"><ele>469.0</ele><time>2026-04-11T10:22:02Z</time></trkpt><trkpt lat="40.27238645744039" lon="9.169888912319632"><ele>468.0</ele><time>2026-04-11T10:22:04Z</time></trkpt><trkpt lat="40.272526045192905" lon="9.169834985838326"><ele>467.0</ele><time>2026-04-11T10:22:06Z</time></trkpt><trkpt lat="40.27261602854202" lon="9.169770681528155"><ele>466.0</ele><time>2026-04-11T10:22:07Z</time></trkpt><trkpt lat="40.27269194022096" lon="9.169673219822013"><ele>465.0</ele><time>2026-04-11T10:22:08Z</time></trkpt><trkpt lat="40.272755210819035" lon="9.169580093764807"><ele>464.0</ele><time>2026-04-11T10:22:09Z</time></trkpt><trkpt lat="40.27279695103498" lon="9.169476508000033"><ele>463.99999999999994</ele><time>2026-04-11T10:22:10Z</time></trkpt><trkpt lat="40.27281403992384" lon="9.16935947640031"><ele>464.0</ele><time>2026-04-11T10:22:11Z</time></trkpt><trkpt lat="40.27280516314176" lon="9.169237584079045"><ele>464.0</ele><time>2026-04-11T10:22:12Z</time></trkpt><trkpt lat="40.272782900468556" lon="9.169129402897308"><ele>464.0</ele><time>2026-04-11T10:22:13Z</time></trkpt><trkpt lat="40.27273197680641" lon="9.169054900214816"><ele>463.99999999999994</ele><time>2026-04-11T10:22:14Z</time></trkpt><trkpt lat="40.272642742894256" lon="9.169020255837923"><ele>464.0</ele><time>2026-04-11T10:22:15Z</time></trkpt><trkpt lat="40.272542899060944" lon="9.169018636242917"><ele>463.79999999999995</ele><time>2026-04-11T10:22:16Z</time></trkpt><trkpt lat="40.27245132802246" lon="9.169017509503494"><ele>463.59999999999997</ele><time>2026-04-11T10:22:17Z</time></trkpt><trkpt lat="40.272347890137695" lon="9.169009824352385"><ele>463.4</ele><time>2026-04-11T10:22:18Z</time></trkpt><trkpt lat="40.27224590688371" lon="9.168984418033812"><ele>463.2</ele><time>2026-04-11T10:22:19Z</time></trkpt><trkpt lat="40.27215060840961" lon="9.168930932918608"><ele>463.0</ele><time>2026-04-11T10:22:20Z</time></trkpt><trkpt lat="40.27206405654419" lon="9.168849276624385"><ele>463.0</ele><time>2026-04-11T10:22:21Z</time></trkpt><trkpt lat="40.27198569189786" lon="9.168744086432147"><ele>463.0</ele><time>2026-04-11T10:22:22Z</time></trkpt><trkpt lat="40.27191267216296" lon="9.168619036351465"><ele>463.0</ele><time>2026-04-11T10:22:23Z</time></trkpt><trkpt lat="40.271842209599896" lon="9.16848418337356"><ele>463.0</ele><time>2026-04-11T10:22:24Z</time></trkpt><trkpt lat="40.27176918166976" lon="9.16835049204782"><ele>463.0</ele><time>2026-04-11T10:22:25Z</time></trkpt><trkpt lat="40.271697195092855" lon="9.168225311693343"><ele>463.0</ele><time>2026-04-11T10:22:26Z</time></trkpt><trkpt lat="40.271642723745124" lon="9.168090309900926"><ele>463.0</ele><time>2026-04-11T10:22:27Z</time></trkpt><trkpt lat="40.27161206479664" lon="9.167941606889165"><ele>463.0</ele><time>2026-04-11T10:22:28Z</time></trkpt><trkpt lat="40.27161009974976" lon="9.16778553933492"><ele>461.25</ele><time>2026-04-11T10:22:29Z</time></trkpt><trkpt lat="40.271662110442435" lon="9.167639716704864"><ele>459.5</ele><time>2026-04-11T10:22:30Z</time></trkpt><trkpt lat="40.271705488589724" lon="9.167487838540941"><ele>457.75</ele><time>2026-04-11T10:22:31Z</time></trkpt><trkpt lat="40.27177094807972" lon="9.167348161762272"><ele>456.0</ele><time>2026-04-11T10:22:32Z</time></trkpt><trkpt lat="40.27184313085252" lon="9.16720935704391"><ele>456.5</ele><time>2026-04-11T10:22:33Z</time></trkpt><trkpt lat="40.27186516637625" lon="9.167039347077655"><ele>457.0</ele><time>2026-04-11T10:22:34Z</time></trkpt><trkpt lat="40.27186872685381" lon="9.166869731909268"><ele>457.5</ele><time>2026-04-11T10:22:35Z</time></trkpt><trkpt lat="40.27184102386197" lon="9.166696535371724"><ele>458.0</ele><time>2026-04-11T10:22:36Z</time></trkpt><trkpt lat="40.27181453083145" lon="9.16651576746035"><ele>458.0</ele><time>2026-04-11T10:22:37Z</time></trkpt><trkpt lat="40.27177001758865" lon="9.166343067439607"><ele>458.0</ele><time>2026-04-11T10:22:38Z</time></trkpt><trkpt lat="40.27176685480277" lon="9.166164685374316"><ele>458.0</ele><time>2026-04-11T10:22:39Z</time></trkpt><trkpt lat="40.27181694665408" lon="9.166004341048694"><ele>458.0</ele><time>2026-04-11T10:22:40Z</time></trkpt><trkpt lat="40.27190387952872" lon="9.16590156444558"><ele>458.0</ele><time>2026-04-11T10:22:41Z</time></trkpt><trkpt lat="40.27201086099246" lon="9.165785508582498"><ele>458.0</ele><time>2026-04-11T10:22:42Z</time></trkpt><trkpt lat="40.27213726837722" lon="9.165655062605298"><ele>458.0</ele><time>2026-04-11T10:22:43Z</time></trkpt><trkpt lat="40.27226414327094" lon="9.16551895403746"><ele>452.3333333333333</ele><time>2026-04-11T10:22:44Z</time></trkpt><trkpt lat="40.272371693324715" lon="9.165376670709907"><ele>446.66666666666663</ele><time>2026-04-11T10:22:45Z</time></trkpt><trkpt lat="40.272462460471075" lon="9.165224388880414"><ele>441.0</ele><time>2026-04-11T10:22:46Z</time></trkpt><trkpt lat="40.272516226714885" lon="9.165037062876419"><ele>441.33333333333337</ele><time>2026-04-11T10:22:47Z</time></trkpt><trkpt lat="40.27253306519059" lon="9.1648298404596"><ele>441.6666666666667</ele><time>2026-04-11T10:22:48Z</time></trkpt><trkpt lat="40.272537948218776" lon="9.164612321875458"><ele>442.0</ele><time>2026-04-11T10:22:49Z</time></trkpt><trkpt lat="40.272564095410715" lon="9.164392324612718"><ele>442.0</ele><time>2026-04-11T10:22:50Z</time></trkpt><trkpt lat="40.27261051988298" lon="9.164172377597668"><ele>442.0</ele><time>2026-04-11T10:22:51Z</time></trkpt><trkpt lat="40.27267227297393" lon="9.163951672568055"><ele>442.0</ele><time>2026-04-11T10:22:52Z</time></trkpt><trkpt lat="40.27276415237645" lon="9.163741126858211"><ele>443.33333333333337</ele><time>2026-04-11T10:22:53Z</time></trkpt><trkpt lat="40.272856645751084" lon="9.163527053539218"><ele>444.66666666666663</ele><time>2026-04-11T10:22:54Z</time></trkpt><trkpt lat="40.27294073646292" lon="9.16331876848367"><ele>446.0</ele><time>2026-04-11T10:22:55Z</time></trkpt><trkpt lat="40.273021788730965" lon="9.163130537731625"><ele>446.0</ele><time>2026-04-11T10:22:56Z</time></trkpt><trkpt lat="40.27310541812891" lon="9.162990052741698"><ele>446.0</ele><time>2026-04-11T10:22:57Z</time></trkpt><trkpt lat="40.27319772367553" lon="9.162904932449214"><ele>446.0</ele><time>2026-04-11T10:22:58Z</time></trkpt><trkpt lat="40.27329392875412" lon="9.16287657456397"><ele>446.0</ele><time>2026-04-11T10:22:59Z</time></trkpt><trkpt lat="40.27338396671019" lon="9.162919517082175"><ele>446.0</ele><time>2026-04-11T10:23:00Z</time></trkpt><trkpt lat="40.273453229486414" lon="9.163037095771891"><ele>446.0</ele><time>2026-04-11T10:23:01Z</time></trkpt><trkpt lat="40.2734873137373" lon="9.163196484185828"><ele>446.0</ele><time>2026-04-11T10:23:02Z</time></trkpt><trkpt lat="40.273558874878866" lon="9.163412963926534"><ele>446.0</ele><time>2026-04-11T10:23:03Z</time></trkpt><trkpt lat="40.273617525277565" lon="9.163600333362"><ele>441.66666666666663</ele><time>2026-04-11T10:23:04Z</time></trkpt><trkpt lat="40.2737207975752" lon="9.163789976216847"><ele>437.33333333333337</ele><time>2026-04-11T10:23:05Z</time></trkpt><trkpt lat="40.27386282970695" lon="9.163955860954774"><ele>433.0</ele><time>2026-04-11T10:23:06Z</time></trkpt><trkpt lat="40.27403753615575" lon="9.164103217437233"><ele>431.0</ele><time>2026-04-11T10:23:07Z</time></trkpt><trkpt lat="40.27422025479448" lon="9.164261890195812"><ele>429.0</ele><time>2026-04-11T10:23:08Z</time></trkpt><trkpt lat="40.27440406363258" lon="9.164426146523267"><ele>427.0</ele><time>2026-04-11T10:23:09Z</time></trkpt><trkpt lat="40.274589241002595" lon="9.16459162703016"><ele>427.0</ele><time>2026-04-11T10:23:10Z</time></trkpt><trkpt lat="40.27476514056052" lon="9.164752061895841"><ele>427.0</ele><time>2026-04-11T10:23:11Z</time></trkpt><trkpt lat="40.274926639503995" lon="9.164915350925734"><ele>427.0</ele><time>2026-04-11T10:23:12Z</time></trkpt><trkpt lat="40.275056559054626" lon="9.165095888331148"><ele>424.33333333333337</ele><time>2026-04-11T10:23:13Z</time></trkpt><trkpt lat="40.27515681500835" lon="9.16530109477895"><ele>421.66666666666663</ele><time>2026-04-11T10:23:14Z</time></trkpt><trkpt lat="40.275238960800706" lon="9.165534744282075"><ele>419.0</ele><time>2026-04-11T10:23:15Z</time></trkpt><trkpt lat="40.27531502576586" lon="9.165772680123451"><ele>416.75</ele><time>2026-04-11T10:23:16Z</time></trkpt><trkpt lat="40.275395491030196" lon="9.165967710023004"><ele>414.5</ele><time>2026-04-11T10:23:17Z</time></trkpt><trkpt lat="40.275468434981775" lon="9.166118050809807"><ele>412.25</ele><time>2026-04-11T10:23:18Z</time></trkpt><trkpt lat="40.275562347673926" lon="9.166203635676766"><ele>410.0</ele><time>2026-04-11T10:23:19Z</time></trkpt><trkpt lat="40.275683649765405" lon="9.16620974727015"><ele>410.0</ele><time>2026-04-11T10:23:20Z</time></trkpt><trkpt lat="40.27582435275845" lon="9.166139931645727"><ele>410.0</ele><time>2026-04-11T10:23:21Z</time></trkpt><trkpt lat="40.27596355284827" lon="9.166064896092124"><ele>410.0</ele><time>2026-04-11T10:23:22Z</time></trkpt><trkpt lat="40.27613071260977" lon="9.166076297844906"><ele>410.0</ele><time>2026-04-11T10:23:23Z</time></trkpt><trkpt lat="40.27630649281757" lon="9.166078603709254"><ele>410.0</ele><time>2026-04-11T10:23:24Z</time></trkpt><trkpt lat="40.27646542226018" lon="9.165992216724462"><ele>410.0</ele><time>2026-04-11T10:23:25Z</time></trkpt><trkpt lat="40.27660649318696" lon="9.165869135488673"><ele>409.0</ele><time>2026-04-11T10:23:26Z</time></trkpt><trkpt lat="40.27675145203425" lon="9.165800276384099"><ele>408.0</ele><time>2026-04-11T10:23:27Z</time></trkpt><trkpt lat="40.276892600372" lon="9.165787265760132"><ele>407.0</ele><time>2026-04-11T10:23:28Z</time></trkpt><trkpt lat="40.27702139875318" lon="9.165845802804103"><ele>406.0</ele><time>2026-04-11T10:23:29Z</time></trkpt><trkpt lat="40.27714210749714" lon="9.16596150139675"><ele>406.0</ele><time>2026-04-11T10:23:30Z</time></trkpt><trkpt lat="40.27726026192368" lon="9.166113258494061"><ele>406.0</ele><time>2026-04-11T10:23:31Z</time></trkpt><trkpt lat="40.27737546704353" lon="9.16623695623445"><ele>406.0</ele><time>2026-04-11T10:23:32Z</time></trkpt><trkpt lat="40.27747688580671" lon="9.166337334016546"><ele>406.0</ele><time>2026-04-11T10:23:33Z</time></trkpt><trkpt lat="40.27761389304932" lon="9.166337276399057"><ele>406.0</ele><time>2026-04-11T10:23:34Z</time></trkpt><trkpt lat="40.27776930061295" lon="9.16626614503304"><ele>406.0</ele><time>2026-04-11T10:23:35Z</time></trkpt><trkpt lat="40.277936310326716" lon="9.16624085043927"><ele>406.0</ele><time>2026-04-11T10:23:36Z</time></trkpt><trkpt lat="40.27811000805995" lon="9.166271857442897"><ele>403.33333333333337</ele><time>2026-04-11T10:23:37Z</time></trkpt><trkpt lat="40.27829635009147" lon="9.166328737725673"><ele>400.66666666666663</ele><time>2026-04-11T10:23:38Z</time></trkpt><trkpt lat="40.27847562433354" lon="9.166384424009847"><ele>398.0</ele><time>2026-04-11T10:23:39Z</time></trkpt><trkpt lat="40.27863844030369" lon="9.166398808723386"><ele>398.0</ele><time>2026-04-11T10:23:40Z</time></trkpt><trkpt lat="40.27877923758231" lon="9.166396093081161"><ele>398.0</ele><time>2026-04-11T10:23:41Z</time></trkpt><trkpt lat="40.278918631125315" lon="9.16634312817781"><ele>398.0</ele><time>2026-04-11T10:23:42Z</time></trkpt><trkpt lat="40.27904757144829" lon="9.16621462256602"><ele>398.0</ele><time>2026-04-11T10:23:43Z</time></trkpt><trkpt lat="40.279203829903835" lon="9.16616190282644"><ele>395.66666666666663</ele><time>2026-04-11T10:23:44Z</time></trkpt><trkpt lat="40.27936514884851" lon="9.166156821394631"><ele>393.33333333333337</ele><time>2026-04-11T10:23:45Z</time></trkpt><trkpt lat="40.27953456191953" lon="9.166118788877402"><ele>391.0</ele><time>2026-04-11T10:23:46Z</time></trkpt><trkpt lat="40.27969287698954" lon="9.16606724417956"><ele>389.5</ele><time>2026-04-11T10:23:47Z</time></trkpt><trkpt lat="40.279829089126366" lon="9.16596307998379"><ele>388.0</ele><time>2026-04-11T10:23:48Z</time></trkpt><trkpt lat="40.27995205238289" lon="9.165888527690969"><ele>386.5</ele><time>2026-04-11T10:23:49Z</time></trkpt><trkpt lat="40.280077591541826" lon="9.16585991953331"><ele>385.0</ele><time>2026-04-11T10:23:50Z</time></trkpt><trkpt lat="40.28019124245433" lon="9.165924341268402"><ele>385.0</ele><time>2026-04-11T10:23:51Z</time></trkpt><trkpt lat="40.280301237461686" lon="9.166020702165051"><ele>385.0</ele><time>2026-04-11T10:23:52Z</time></trkpt><trkpt lat="40.28039118212947" lon="9.166153698398942"><ele>385.0</ele><time>2026-04-11T10:23:53Z</time></trkpt><trkpt lat="40.28045129887173" lon="9.166306662579439"><ele>385.0</ele><time>2026-04-11T10:23:54Z</time></trkpt><trkpt lat="40.280451847398254" lon="9.166456158184538"><ele>383.75</ele><time>2026-04-11T10:23:55Z</time></trkpt><trkpt lat="40.28039977529778" lon="9.166575588966955"><ele>382.5</ele><time>2026-04-11T10:23:56Z</time></trkpt><trkpt lat="40.28030254436471" lon="9.166685213549734"><ele>381.25</ele><time>2026-04-11T10:23:57Z</time></trkpt><trkpt lat="40.28018533864585" lon="9.166824999751288"><ele>380.0</ele><time>2026-04-11T10:23:58Z</time></trkpt><trkpt lat="40.280049728627056" lon="9.166968452456324"><ele>380.0</ele><time>2026-04-11T10:23:59Z</time></trkpt><trkpt lat="40.27993191272451" lon="9.167133780499341"><ele>380.0</ele><time>2026-04-11T10:24:00Z</time></trkpt><trkpt lat="40.27984643376826" lon="9.167303998016765"><ele>380.0</ele><time>2026-04-11T10:24:01Z</time></trkpt><trkpt lat="40.27981271405374" lon="9.167479309460427"><ele>377.33333333333337</ele><time>2026-04-11T10:24:02Z</time></trkpt><trkpt lat="40.27984252323263" lon="9.167655843773366"><ele>374.6666666666667</ele><time>2026-04-11T10:24:03Z</time></trkpt><trkpt lat="40.27993509954096" lon="9.167825288444302"><ele>372.0</ele><time>2026-04-11T10:24:04Z</time></trkpt><trkpt lat="40.28006022745579" lon="9.167987363614312"><ele>372.0</ele><time>2026-04-11T10:24:05Z</time></trkpt><trkpt lat="40.280198872064894" lon="9.168130463810728"><ele>372.0</ele><time>2026-04-11T10:24:06Z</time></trkpt><trkpt lat="40.280347817519555" lon="9.168227084511193"><ele>372.0</ele><time>2026-04-11T10:24:07Z</time></trkpt><trkpt lat="40.28050656095435" lon="9.16826141406739"><ele>370.0</ele><time>2026-04-11T10:24:08Z</time></trkpt><trkpt lat="40.28066292727376" lon="9.168237520750237"><ele>368.0</ele><time>2026-04-11T10:24:09Z</time></trkpt><trkpt lat="40.28079660911419" lon="9.16820452679042"><ele>366.0</ele><time>2026-04-11T10:24:10Z</time></trkpt><trkpt lat="40.280906210632644" lon="9.168258808182484"><ele>364.0</ele><time>2026-04-11T10:24:11Z</time></trkpt><trkpt lat="40.28098171994918" lon="9.16836299387301"><ele>364.0</ele><time>2026-04-11T10:24:12Z</time></trkpt><trkpt lat="40.2810189636615" lon="9.16851674924467"><ele>364.0</ele><time>2026-04-11T10:24:13Z</time></trkpt><trkpt lat="40.28105165067502" lon="9.168710748318828"><ele>364.0</ele><time>2026-04-11T10:24:14Z</time></trkpt><trkpt lat="40.28105059706984" lon="9.168936345905953"><ele>364.0</ele><time>2026-04-11T10:24:15Z</time></trkpt><trkpt lat="40.2810581095991" lon="9.169135872257614"><ele>364.0</ele><time>2026-04-11T10:24:16Z</time></trkpt><trkpt lat="40.28108850938635" lon="9.16929730293466"><ele>364.0</ele><time>2026-04-11T10:24:17Z</time></trkpt><trkpt lat="40.28118183034757" lon="9.169434475445815"><ele>364.0</ele><time>2026-04-11T10:24:18Z</time></trkpt><trkpt lat="40.281330480149805" lon="9.169548125200333"><ele>364.0</ele><time>2026-04-11T10:24:19Z</time></trkpt><trkpt lat="40.28148360418374" lon="9.169677546801726"><ele>364.0</ele><time>2026-04-11T10:24:20Z</time></trkpt><trkpt lat="40.28163107737897" lon="9.169829591229"><ele>364.0</ele><time>2026-04-11T10:24:21Z</time></trkpt><trkpt lat="40.28178146861262" lon="9.169998636979248"><ele>364.0</ele><time>2026-04-11T10:24:22Z</time></trkpt><trkpt lat="40.28191893790019" lon="9.170158789676321"><ele>360.66666666666663</ele><time>2026-04-11T10:24:23Z</time></trkpt><trkpt lat="40.28204475137898" lon="9.170307251095373"><ele>357.3333333333333</ele><time>2026-04-11T10:24:24Z</time></trkpt><trkpt lat="40.28209926339171" lon="9.170495537534288"><ele>354.0</ele><time>2026-04-11T10:24:25Z</time></trkpt><trkpt lat="40.28213218077162" lon="9.170679273007217"><ele>353.5</ele><time>2026-04-11T10:24:26Z</time></trkpt><trkpt lat="40.28217629541187" lon="9.170866772940542"><ele>353.0</ele><time>2026-04-11T10:24:27Z</time></trkpt><trkpt lat="40.282193810242546" lon="9.171038585149507"><ele>352.5</ele><time>2026-04-11T10:24:28Z</time></trkpt><trkpt lat="40.282240540183665" lon="9.171172568625067"><ele>352.0</ele><time>2026-04-11T10:24:29Z</time></trkpt><trkpt lat="40.28231545388768" lon="9.171284109300101"><ele>352.0</ele><time>2026-04-11T10:24:30Z</time></trkpt><trkpt lat="40.282445328647015" lon="9.171366100425486"><ele>352.0</ele><time>2026-04-11T10:24:31Z</time></trkpt><trkpt lat="40.28260230261251" lon="9.171485706209168"><ele>352.0</ele><time>2026-04-11T10:24:32Z</time></trkpt><trkpt lat="40.28277319902116" lon="9.17159840223246"><ele>349.3333333333333</ele><time>2026-04-11T10:24:33Z</time></trkpt><trkpt lat="40.28295024398487" lon="9.171710587211592"><ele>346.6666666666667</ele><time>2026-04-11T10:24:34Z</time></trkpt><trkpt lat="40.28311306650463" lon="9.171817603135372"><ele>344.0</ele><time>2026-04-11T10:24:35Z</time></trkpt><trkpt lat="40.28325652381881" lon="9.171904761216219"><ele>343.5</ele><time>2026-04-11T10:24:36Z</time></trkpt><trkpt lat="40.28337759991286" lon="9.171953086025068"><ele>343.0</ele><time>2026-04-11T10:24:37Z</time></trkpt><trkpt lat="40.2834907208924" lon="9.171924157363009"><ele>342.5</ele><time>2026-04-11T10:24:38Z</time></trkpt><trkpt lat="40.28360442356128" lon="9.171803498272897"><ele>342.0</ele><time>2026-04-11T10:24:39Z</time></trkpt><trkpt lat="40.28369374807219" lon="9.171633761604536"><ele>342.75</ele><time>2026-04-11T10:24:40Z</time></trkpt><trkpt lat="40.283785973535664" lon="9.17148130246703"><ele>343.5</ele><time>2026-04-11T10:24:41Z</time></trkpt><trkpt lat="40.283917732673665" lon="9.17141124716964"><ele>344.25</ele><time>2026-04-11T10:24:42Z</time></trkpt><trkpt lat="40.284067926306925" lon="9.17139392672532"><ele>345.0</ele><time>2026-04-11T10:24:43Z</time></trkpt><trkpt lat="40.28424029225289" lon="9.171411671204362"><ele>345.0</ele><time>2026-04-11T10:24:44Z</time></trkpt><trkpt lat="40.28441358587913" lon="9.171396224555519"><ele>345.0</ele><time>2026-04-11T10:24:45Z</time></trkpt><trkpt lat="40.284584114750906" lon="9.17136040574658"><ele>345.0</ele><time>2026-04-11T10:24:46Z</time></trkpt><trkpt lat="40.284743747256556" lon="9.171258962317408"><ele>341.6666666666667</ele><time>2026-04-11T10:24:47Z</time></trkpt><trkpt lat="40.28489818607379" lon="9.17115755739551"><ele>338.33333333333337</ele><time>2026-04-11T10:24:48Z</time></trkpt><trkpt lat="40.28507570676887" lon="9.171141339869449"><ele>335.0</ele><time>2026-04-11T10:24:49Z</time></trkpt><trkpt lat="40.28526869473384" lon="9.171147602455898"><ele>335.0</ele><time>2026-04-11T10:24:50Z</time></trkpt><trkpt lat="40.28547285039572" lon="9.17112893550445"><ele>335.0</ele><time>2026-04-11T10:24:51Z</time></trkpt><trkpt lat="40.28567700957758" lon="9.171122579172353"><ele>335.0</ele><time>2026-04-11T10:24:52Z</time></trkpt><trkpt lat="40.2858796183606" lon="9.171088405775642"><ele>333.0</ele><time>2026-04-11T10:24:53Z</time></trkpt><trkpt lat="40.28608343298307" lon="9.171033419880178"><ele>331.0</ele><time>2026-04-11T10:24:54Z</time></trkpt><trkpt lat="40.286286985578386" lon="9.17095727515683"><ele>329.0</ele><time>2026-04-11T10:24:55Z</time></trkpt><trkpt lat="40.28648003769935" lon="9.17085742195858"><ele>329.0</ele><time>2026-04-11T10:24:56Z</time></trkpt><trkpt lat="40.28665985239073" lon="9.170757905612124"><ele>329.0</ele><time>2026-04-11T10:24:57Z</time></trkpt><trkpt lat="40.2868365306543" lon="9.17071865430049"><ele>329.0</ele><time>2026-04-11T10:24:58Z</time></trkpt><trkpt lat="40.287012844160536" lon="9.170727772529242"><ele>329.0</ele><time>2026-04-11T10:24:59Z</time></trkpt><trkpt lat="40.287203009469586" lon="9.170767832916649"><ele>329.0</ele><time>2026-04-11T10:25:00Z</time></trkpt><trkpt lat="40.28739903687597" lon="9.170799491897357"><ele>329.0</ele><time>2026-04-11T10:25:01Z</time></trkpt><trkpt lat="40.287587079953695" lon="9.170834886469201"><ele>330.33333333333337</ele><time>2026-04-11T10:25:02Z</time></trkpt><trkpt lat="40.28778203208826" lon="9.170831074431387"><ele>331.6666666666667</ele><time>2026-04-11T10:25:03Z</time></trkpt><trkpt lat="40.287983544645705" lon="9.170795963607686"><ele>333.0</ele><time>2026-04-11T10:25:04Z</time></trkpt><trkpt lat="40.28817305837666" lon="9.170727421358512"><ele>329.3333333333333</ele><time>2026-04-11T10:25:05Z</time></trkpt><trkpt lat="40.288347928511456" lon="9.1706501089033"><ele>325.66666666666663</ele><time>2026-04-11T10:25:06Z</time></trkpt><trkpt lat="40.288515297373465" lon="9.170603539210003"><ele>322.0</ele><time>2026-04-11T10:25:07Z</time></trkpt><trkpt lat="40.2886814499313" lon="9.170620513090492"><ele>322.0</ele><time>2026-04-11T10:25:08Z</time></trkpt><trkpt lat="40.28882043895444" lon="9.170685091167798"><ele>322.0</ele><time>2026-04-11T10:25:09Z</time></trkpt><trkpt lat="40.288952781511384" lon="9.170764088215671"><ele>322.0</ele><time>2026-04-11T10:25:10Z</time></trkpt><trkpt lat="40.28906399869356" lon="9.170935176596915"><ele>324.66666666666663</ele><time>2026-04-11T10:25:11Z</time></trkpt><trkpt lat="40.28917248147865" lon="9.171141186054008"><ele>327.3333333333333</ele><time>2026-04-11T10:25:12Z</time></trkpt><trkpt lat="40.2892730626662" lon="9.171377900697738"><ele>330.0</ele><time>2026-04-11T10:25:13Z</time></trkpt><trkpt lat="40.289374320895064" lon="9.171622874965335"><ele>332.6666666666667</ele><time>2026-04-11T10:25:14Z</time></trkpt><trkpt lat="40.289477981741356" lon="9.171875197388406"><ele>335.33333333333337</ele><time>2026-04-11T10:25:15Z</time></trkpt><trkpt lat="40.28957739608854" lon="9.172132210768826"><ele>338.0</ele><time>2026-04-11T10:25:16Z</time></trkpt><trkpt lat="40.289677444566976" lon="9.172383442358308"><ele>336.6666666666667</ele><time>2026-04-11T10:25:17Z</time></trkpt><trkpt lat="40.289773091128346" lon="9.172624777650324"><ele>335.3333333333333</ele><time>2026-04-11T10:25:18Z</time></trkpt><trkpt lat="40.28986199093395" lon="9.172849867353913"><ele>334.0</ele><time>2026-04-11T10:25:19Z</time></trkpt><trkpt lat="40.289954522511444" lon="9.173060274555796"><ele>335.3333333333333</ele><time>2026-04-11T10:25:20Z</time></trkpt><trkpt lat="40.29006727153703" lon="9.173250038985007"><ele>336.6666666666667</ele><time>2026-04-11T10:25:21Z</time></trkpt><trkpt lat="40.29020399726262" lon="9.173410621584486"><ele>338.0</ele><time>2026-04-11T10:25:22Z</time></trkpt><trkpt lat="40.2903575771953" lon="9.173540775037463"><ele>338.0</ele><time>2026-04-11T10:25:23Z</time></trkpt><trkpt lat="40.290520941236004" lon="9.17361660625788"><ele>338.0</ele><time>2026-04-11T10:25:24Z</time></trkpt><trkpt lat="40.29068422728474" lon="9.17362065985577"><ele>338.0</ele><time>2026-04-11T10:25:25Z</time></trkpt><trkpt lat="40.29084185888289" lon="9.173565713238839"><ele>338.0</ele><time>2026-04-11T10:25:26Z</time></trkpt><trkpt lat="40.290999867154426" lon="9.173503133754442"><ele>338.0</ele><time>2026-04-11T10:25:27Z</time></trkpt><trkpt lat="40.29115224579775" lon="9.173508612602628"><ele>338.0</ele><time>2026-04-11T10:25:28Z</time></trkpt><trkpt lat="40.291293085761524" lon="9.173559214230876"><ele>340.0</ele><time>2026-04-11T10:25:29Z</time></trkpt><trkpt lat="40.29143012969675" lon="9.173664052041694"><ele>342.0</ele><time>2026-04-11T10:25:30Z</time></trkpt><trkpt lat="40.291553349062156" lon="9.17381213193111"><ele>344.0</ele><time>2026-04-11T10:25:31Z</time></trkpt><trkpt lat="40.29166602439455" lon="9.17397793707313"><ele>345.6666666666667</ele><time>2026-04-11T10:25:32Z</time></trkpt><trkpt lat="40.29177924238324" lon="9.174158105542638"><ele>347.3333333333333</ele><time>2026-04-11T10:25:33Z</time></trkpt><trkpt lat="40.29189478736836" lon="9.174350853674422"><ele>349.0</ele><time>2026-04-11T10:25:34Z</time></trkpt><trkpt lat="40.29200074811017" lon="9.174540554256287"><ele>349.0</ele><time>2026-04-11T10:25:35Z</time></trkpt><trkpt lat="40.292105560371354" lon="9.174739191834076"><ele>349.0</ele><time>2026-04-11T10:25:36Z</time></trkpt><trkpt lat="40.29221014222045" lon="9.174937940535921"><ele>349.0</ele><time>2026-04-11T10:25:37Z</time></trkpt><trkpt lat="40.292317376277865" lon="9.175141121464389"><ele>351.3333333333333</ele><time>2026-04-11T10:25:38Z</time></trkpt><trkpt lat="40.29241980538307" lon="9.175341559269917"><ele>353.6666666666667</ele><time>2026-04-11T10:25:39Z</time></trkpt><trkpt lat="40.29251730813927" lon="9.175542133401601"><ele>356.0</ele><time>2026-04-11T10:25:40Z</time></trkpt><trkpt lat="40.29261577503241" lon="9.175743199420246"><ele>357.0</ele><time>2026-04-11T10:25:41Z</time></trkpt><trkpt lat="40.292711247501984" lon="9.175937065020499"><ele>358.0</ele><time>2026-04-11T10:25:42Z</time></trkpt><trkpt lat="40.29280048651444" lon="9.176103302472997"><ele>359.0</ele><time>2026-04-11T10:25:43Z</time></trkpt><trkpt lat="40.2929061417959" lon="9.176245793950002"><ele>359.0</ele><time>2026-04-11T10:25:44Z</time></trkpt><trkpt lat="40.29303954512307" lon="9.176369753971754"><ele>359.0</ele><time>2026-04-11T10:25:45Z</time></trkpt><trkpt lat="40.29320112324398" lon="9.176463367316908"><ele>359.0</ele><time>2026-04-11T10:25:46Z</time></trkpt><trkpt lat="40.29337954106617" lon="9.176520077885076"><ele>359.0</ele><time>2026-04-11T10:25:47Z</time></trkpt><trkpt lat="40.29356721552868" lon="9.17653680663549"><ele>359.0</ele><time>2026-04-11T10:25:48Z</time></trkpt><trkpt lat="40.29375923674025" lon="9.176532035935722"><ele>359.0</ele><time>2026-04-11T10:25:49Z</time></trkpt><trkpt lat="40.29395653960504" lon="9.176518951333826"><ele>358.6666666666667</ele><time>2026-04-11T10:25:50Z</time></trkpt><trkpt lat="40.294150057856314" lon="9.176483252005283"><ele>358.3333333333333</ele><time>2026-04-11T10:25:51Z</time></trkpt><trkpt lat="40.29434192529847" lon="9.176400524093635"><ele>358.0</ele><time>2026-04-11T10:25:52Z</time></trkpt><trkpt lat="40.29452357449367" lon="9.17627058568587"><ele>358.0</ele><time>2026-04-11T10:25:53Z</time></trkpt><trkpt lat="40.29469424802521" lon="9.176114054491107"><ele>358.0</ele><time>2026-04-11T10:25:54Z</time></trkpt><trkpt lat="40.29484890460045" lon="9.175980945552702"><ele>358.0</ele><time>2026-04-11T10:25:55Z</time></trkpt><trkpt lat="40.29500114624064" lon="9.175905223619745"><ele>360.0</ele><time>2026-04-11T10:25:56Z</time></trkpt><trkpt lat="40.29514917449267" lon="9.175897659400025"><ele>362.0</ele><time>2026-04-11T10:25:57Z</time></trkpt><trkpt lat="40.295278499943116" lon="9.175987925325135"><ele>364.0</ele><time>2026-04-11T10:25:58Z</time></trkpt><trkpt lat="40.29538818296916" lon="9.176123158485186"><ele>366.0</ele><time>2026-04-11T10:25:59Z</time></trkpt><trkpt lat="40.29551387069145" lon="9.176278488903307"><ele>365.0</ele><time>2026-04-11T10:26:00Z</time></trkpt><trkpt lat="40.29563028953203" lon="9.17648225521595"><ele>364.0</ele><time>2026-04-11T10:26:01Z</time></trkpt><trkpt lat="40.295757590974645" lon="9.176682095817114"><ele>363.0</ele><time>2026-04-11T10:26:02Z</time></trkpt><trkpt lat="40.29588374690346" lon="9.176862386386642"><ele>363.0</ele><time>2026-04-11T10:26:03Z</time></trkpt><trkpt lat="40.29601724998507" lon="9.17700043501096"><ele>363.0</ele><time>2026-04-11T10:26:04Z</time></trkpt><trkpt lat="40.29615591453123" lon="9.17708820939448"><ele>363.0</ele><time>2026-04-11T10:26:05Z</time></trkpt><trkpt lat="40.29630235191404" lon="9.17710707889731"><ele>362.3333333333333</ele><time>2026-04-11T10:26:06Z</time></trkpt><trkpt lat="40.29645592725258" lon="9.177057780764153"><ele>361.66666666666663</ele><time>2026-04-11T10:26:07Z</time></trkpt><trkpt lat="40.296600706062264" lon="9.17694068027264"><ele>361.0</ele><time>2026-04-11T10:26:08Z</time></trkpt><trkpt lat="40.296735181453386" lon="9.176772421743733"><ele>361.0</ele><time>2026-04-11T10:26:09Z</time></trkpt><trkpt lat="40.296867528613426" lon="9.176568837406084"><ele>361.0</ele><time>2026-04-11T10:26:10Z</time></trkpt><trkpt lat="40.2970070435815" lon="9.176404208930457"><ele>361.0</ele><time>2026-04-11T10:26:11Z</time></trkpt><trkpt lat="40.297135462840835" lon="9.1762372284705"><ele>361.0</ele><time>2026-04-11T10:26:12Z</time></trkpt><trkpt lat="40.29728954068663" lon="9.176133028380159"><ele>361.0</ele><time>2026-04-11T10:26:13Z</time></trkpt><trkpt lat="40.29744908482575" lon="9.176111382553545"><ele>361.0</ele><time>2026-04-11T10:26:14Z</time></trkpt><trkpt lat="40.29760058920488" lon="9.176106807361611"><ele>361.0</ele><time>2026-04-11T10:26:15Z</time></trkpt><trkpt lat="40.29774747125267" lon="9.176181857189267"><ele>361.0</ele><time>2026-04-11T10:26:16Z</time></trkpt><trkpt lat="40.297910756706656" lon="9.176302454191347"><ele>361.0</ele><time>2026-04-11T10:26:17Z</time></trkpt><trkpt lat="40.298077166175126" lon="9.176447100519509"><ele>359.66666666666663</ele><time>2026-04-11T10:26:18Z</time></trkpt><trkpt lat="40.29825065316725" lon="9.176588138606338"><ele>358.3333333333333</ele><time>2026-04-11T10:26:19Z</time></trkpt><trkpt lat="40.29842985005791" lon="9.176699405890625"><ele>357.0</ele><time>2026-04-11T10:26:20Z</time></trkpt><trkpt lat="40.29862105350923" lon="9.176765649995575"><ele>357.0</ele><time>2026-04-11T10:26:21Z</time></trkpt><trkpt lat="40.29882636364995" lon="9.176783685989646"><ele>357.0</ele><time>2026-04-11T10:26:22Z</time></trkpt><trkpt lat="40.29903384066769" lon="9.176748577923611"><ele>357.0</ele><time>2026-04-11T10:26:23Z</time></trkpt><trkpt lat="40.299242432949974" lon="9.176661025716662"><ele>357.0</ele><time>2026-04-11T10:26:24Z</time></trkpt><trkpt lat="40.299437246885525" lon="9.17653806097365"><ele>357.0</ele><time>2026-04-11T10:26:25Z</time></trkpt><trkpt lat="40.2996299639702" lon="9.176468860012347"><ele>357.0</ele><time>2026-04-11T10:26:26Z</time></trkpt><trkpt lat="40.2998315790021" lon="9.176423552038408"><ele>358.0</ele><time>2026-04-11T10:26:27Z</time></trkpt><trkpt lat="40.300031823514544" lon="9.176424294583338"><ele>359.0</ele><time>2026-04-11T10:26:28Z</time></trkpt><trkpt lat="40.30021646998342" lon="9.176484575760359"><ele>360.0</ele><time>2026-04-11T10:26:29Z</time></trkpt><trkpt lat="40.30038914982732" lon="9.176588419617861"><ele>361.0</ele><time>2026-04-11T10:26:30Z</time></trkpt><trkpt lat="40.30054548522349" lon="9.176719416111705"><ele>362.0</ele><time>2026-04-11T10:26:31Z</time></trkpt><trkpt lat="40.30070059554388" lon="9.176856833794973"><ele>363.0</ele><time>2026-04-11T10:26:32Z</time></trkpt><trkpt lat="40.30085325770825" lon="9.177014790506655"><ele>363.3333333333333</ele><time>2026-04-11T10:26:33Z</time></trkpt><trkpt lat="40.301004516736434" lon="9.17716174876705"><ele>363.66666666666663</ele><time>2026-04-11T10:26:34Z</time></trkpt><trkpt lat="40.3011621800505" lon="9.177296912872414"><ele>364.0</ele><time>2026-04-11T10:26:35Z</time></trkpt><trkpt lat="40.30133356390926" lon="9.177414855431469"><ele>363.0</ele><time>2026-04-11T10:26:36Z</time></trkpt><trkpt lat="40.30152620081628" lon="9.177506806523521"><ele>362.0</ele><time>2026-04-11T10:26:37Z</time></trkpt><trkpt lat="40.30173751608241" lon="9.177562331321685"><ele>361.0</ele><time>2026-04-11T10:26:38Z</time></trkpt><trkpt lat="40.30195948522833" lon="9.177628807930128"><ele>361.0</ele><time>2026-04-11T10:26:39Z</time></trkpt><trkpt lat="40.30218685066675" lon="9.17768363988637"><ele>361.0</ele><time>2026-04-11T10:26:40Z</time></trkpt><trkpt lat="40.302411702073286" lon="9.177737865559363"><ele>359.0</ele><time>2026-04-11T10:26:41Z</time></trkpt><trkpt lat="40.30264457655694" lon="9.177774305219256"><ele>357.0</ele><time>2026-04-11T10:26:42Z</time></trkpt><trkpt lat="40.30287806203519" lon="9.177830611395423"><ele>354.5</ele><time>2026-04-11T10:26:43Z</time></trkpt><trkpt lat="40.30311110005072" lon="9.177906533936694"><ele>352.0</ele><time>2026-04-11T10:26:44Z</time></trkpt><trkpt lat="40.303343572332594" lon="9.177962454391091"><ele>352.0</ele><time>2026-04-11T10:26:45Z</time></trkpt><trkpt lat="40.30356672352264" lon="9.178015006057445"><ele>352.0</ele><time>2026-04-11T10:26:46Z</time></trkpt><trkpt lat="40.3037842963168" lon="9.178049465314661"><ele>352.0</ele><time>2026-04-11T10:26:47Z</time></trkpt><trkpt lat="40.30399060598827" lon="9.178100055268434"><ele>351.3333333333333</ele><time>2026-04-11T10:26:48Z</time></trkpt><trkpt lat="40.30418402230073" lon="9.17814809063611"><ele>350.6666666666667</ele><time>2026-04-11T10:26:49Z</time></trkpt><trkpt lat="40.30436953709087" lon="9.17819088288638"><ele>350.0</ele><time>2026-04-11T10:26:50Z</time></trkpt><trkpt lat="40.30454960385647" lon="9.178206065144641"><ele>350.0</ele><time>2026-04-11T10:26:51Z</time></trkpt><trkpt lat="40.304728632774314" lon="9.17817970245521"><ele>350.0</ele><time>2026-04-11T10:26:52Z</time></trkpt><trkpt lat="40.3049158507539" lon="9.178126249060222"><ele>350.0</ele><time>2026-04-11T10:26:53Z</time></trkpt><trkpt lat="40.30510214532795" lon="9.178051887176423"><ele>349.6666666666667</ele><time>2026-04-11T10:26:54Z</time></trkpt><trkpt lat="40.30529030613845" lon="9.177961733483718"><ele>349.3333333333333</ele><time>2026-04-11T10:26:55Z</time></trkpt><trkpt lat="40.30548150696136" lon="9.177861947201642"><ele>349.0</ele><time>2026-04-11T10:26:56Z</time></trkpt><trkpt lat="40.305684082380054" lon="9.177782609195875"><ele>349.0</ele><time>2026-04-11T10:26:57Z</time></trkpt><trkpt lat="40.30587590397037" lon="9.17766974126284"><ele>349.0</ele><time>2026-04-11T10:26:58Z</time></trkpt><trkpt lat="40.306069469098425" lon="9.177586766572198"><ele>349.0</ele><time>2026-04-11T10:26:59Z</time></trkpt><trkpt lat="40.30626709056233" lon="9.177520731980739"><ele>349.3333333333333</ele><time>2026-04-11T10:27:00Z</time></trkpt><trkpt lat="40.30646148394701" lon="9.17748709795668"><ele>349.6666666666667</ele><time>2026-04-11T10:27:01Z</time></trkpt><trkpt lat="40.30665776476185" lon="9.177488791554739"><ele>350.0</ele><time>2026-04-11T10:27:02Z</time></trkpt><trkpt lat="40.3068545000222" lon="9.177520579657621"><ele>350.0</ele><time>2026-04-11T10:27:03Z</time></trkpt><trkpt lat="40.30705993427438" lon="9.177582297304703"><ele>350.0</ele><time>2026-04-11T10:27:04Z</time></trkpt><trkpt lat="40.307264916161124" lon="9.177675485568445"><ele>350.0</ele><time>2026-04-11T10:27:05Z</time></trkpt><trkpt lat="40.30746887057786" lon="9.177793202853696"><ele>350.0</ele><time>2026-04-11T10:27:06Z</time></trkpt><trkpt lat="40.30765973777607" lon="9.17791883259971"><ele>350.0</ele><time>2026-04-11T10:27:07Z</time></trkpt><trkpt lat="40.307843585909616" lon="9.178072822183504"><ele>350.0</ele><time>2026-04-11T10:27:08Z</time></trkpt><trkpt lat="40.30801271107959" lon="9.178243733144402"><ele>351.6666666666667</ele><time>2026-04-11T10:27:09Z</time></trkpt><trkpt lat="40.30817252557456" lon="9.178411893969992"><ele>353.3333333333333</ele><time>2026-04-11T10:27:10Z</time></trkpt><trkpt lat="40.30832530556512" lon="9.178574093682117"><ele>355.0</ele><time>2026-04-11T10:27:11Z</time></trkpt><trkpt lat="40.30846799281776" lon="9.178725419013974"><ele>355.0</ele><time>2026-04-11T10:27:12Z</time></trkpt><trkpt lat="40.3086001675488" lon="9.17886468772646"><ele>355.0</ele><time>2026-04-11T10:27:13Z</time></trkpt><trkpt lat="40.3087198459698" lon="9.178987119758249"><ele>355.0</ele><time>2026-04-11T10:27:14Z</time></trkpt><trkpt lat="40.3088219978471" lon="9.179093570833215"><ele>355.0</ele><time>2026-04-11T10:27:15Z</time></trkpt><trkpt lat="40.30890609668042" lon="9.179186248690373"><ele>355.0</ele><time>2026-04-11T10:27:16Z</time></trkpt><trkpt lat="40.30896455772793" lon="9.17924960864343"><ele>355.0</ele><time>2026-04-11T10:27:17Z</time></trkpt><trkpt lat="40.309022249658696" lon="9.179312108716031"><ele>355.0</ele><time>2026-04-11T10:27:20Z</time></trkpt><trkpt lat="40.30916576157553" lon="9.179120481013875"><ele>354.75</ele><time>2026-04-11T10:27:22Z</time></trkpt><trkpt lat="40.309241169365784" lon="9.178992085564833"><ele>354.5</ele><time>2026-04-11T10:27:23Z</time></trkpt><trkpt lat="40.30934598846595" lon="9.17885713465205"><ele>354.25</ele><time>2026-04-11T10:27:24Z</time></trkpt><trkpt lat="40.309466278657816" lon="9.178727558509538"><ele>354.0</ele><time>2026-04-11T10:27:25Z</time></trkpt><trkpt lat="40.309601690110554" lon="9.178609337788235"><ele>353.3333333333333</ele><time>2026-04-11T10:27:26Z</time></trkpt><trkpt lat="40.30975576194609" lon="9.178504634668503"><ele>352.66666666666663</ele><time>2026-04-11T10:27:27Z</time></trkpt><trkpt lat="40.30992054885362" lon="9.178414761430224"><ele>352.0</ele><time>2026-04-11T10:27:28Z</time></trkpt><trkpt lat="40.31009938424619" lon="9.178342945126666"><ele>352.0</ele><time>2026-04-11T10:27:29Z</time></trkpt><trkpt lat="40.31029368097056" lon="9.178284924606038"><ele>352.0</ele><time>2026-04-11T10:27:30Z</time></trkpt><trkpt lat="40.31049876716444" lon="9.17823553643365"><ele>352.0</ele><time>2026-04-11T10:27:31Z</time></trkpt><trkpt lat="40.31071241175745" lon="9.178189698274682"><ele>351.3333333333333</ele><time>2026-04-11T10:27:32Z</time></trkpt><trkpt lat="40.31093373102826" lon="9.178143202095667"><ele>350.6666666666667</ele><time>2026-04-11T10:27:33Z</time></trkpt><trkpt lat="40.31115502139068" lon="9.178095173570583"><ele>350.0</ele><time>2026-04-11T10:27:34Z</time></trkpt><trkpt lat="40.311368419499054" lon="9.178047592411515"><ele>352.33333333333337</ele><time>2026-04-11T10:27:35Z</time></trkpt><trkpt lat="40.31157804185071" lon="9.178003495916712"><ele>354.6666666666667</ele><time>2026-04-11T10:27:36Z</time></trkpt><trkpt lat="40.31178461350551" lon="9.177965901097803"><ele>357.0</ele><time>2026-04-11T10:27:37Z</time></trkpt><trkpt lat="40.31198883427696" lon="9.177930591310739"><ele>357.0</ele><time>2026-04-11T10:27:38Z</time></trkpt><trkpt lat="40.31218897725378" lon="9.177888141666946"><ele>357.0</ele><time>2026-04-11T10:27:39Z</time></trkpt><trkpt lat="40.31238853730216" lon="9.177843585013317"><ele>357.0</ele><time>2026-04-11T10:27:40Z</time></trkpt><trkpt lat="40.31258862488198" lon="9.177803195291558"><ele>358.3333333333333</ele><time>2026-04-11T10:27:41Z</time></trkpt><trkpt lat="40.31278965584114" lon="9.17776347983436"><ele>359.66666666666663</ele><time>2026-04-11T10:27:42Z</time></trkpt><trkpt lat="40.31298964555442" lon="9.177720780087268"><ele>361.0</ele><time>2026-04-11T10:27:43Z</time></trkpt><trkpt lat="40.31318893989519" lon="9.177679655800718"><ele>362.3333333333333</ele><time>2026-04-11T10:27:44Z</time></trkpt><trkpt lat="40.3133883094317" lon="9.177636966337756"><ele>363.6666666666667</ele><time>2026-04-11T10:27:45Z</time></trkpt><trkpt lat="40.313589109691435" lon="9.177589973259844"><ele>365.0</ele><time>2026-04-11T10:27:46Z</time></trkpt><trkpt lat="40.31378704287752" lon="9.177532197767032"><ele>366.33333333333337</ele><time>2026-04-11T10:27:47Z</time></trkpt><trkpt lat="40.31398113643374" lon="9.177460982991931"><ele>367.6666666666667</ele><time>2026-04-11T10:27:48Z</time></trkpt><trkpt lat="40.31416778641255" lon="9.177364350874525"><ele>369.0</ele><time>2026-04-11T10:27:49Z</time></trkpt><trkpt lat="40.314341039163516" lon="9.177239417498319"><ele>370.0</ele><time>2026-04-11T10:27:50Z</time></trkpt><trkpt lat="40.31449997238089" lon="9.17708223137407"><ele>371.0</ele><time>2026-04-11T10:27:51Z</time></trkpt><trkpt lat="40.3146471379445" lon="9.176905470391182"><ele>372.0</ele><time>2026-04-11T10:27:52Z</time></trkpt><trkpt lat="40.31478407913481" lon="9.176715897599706"><ele>372.3333333333333</ele><time>2026-04-11T10:27:53Z</time></trkpt><trkpt lat="40.31490375773633" lon="9.176522598949518"><ele>372.66666666666663</ele><time>2026-04-11T10:27:54Z</time></trkpt><trkpt lat="40.31499440558944" lon="9.176352716267132"><ele>373.0</ele><time>2026-04-11T10:27:55Z</time></trkpt><trkpt lat="40.315063824866876" lon="9.176227506848065"><ele>373.66666666666663</ele><time>2026-04-11T10:27:56Z</time></trkpt><trkpt lat="40.31511184529805" lon="9.176141753042733"><ele>374.3333333333333</ele><time>2026-04-11T10:27:57Z</time></trkpt><trkpt lat="40.31516093573596" lon="9.176050620658467"><ele>375.0</ele><time>2026-04-11T10:27:59Z</time></trkpt><trkpt lat="40.315206209752354" lon="9.17596459736902"><ele>375.6666666666667</ele><time>2026-04-11T10:28:15Z</time></trkpt><trkpt lat="40.315254072318275" lon="9.175865893798054"><ele>376.33333333333337</ele><time>2026-04-11T10:28:16Z</time></trkpt><trkpt lat="40.31529024436043" lon="9.175764653709674"><ele>377.0</ele><time>2026-04-11T10:28:17Z</time></trkpt><trkpt lat="40.31531123203688" lon="9.17566214495093"><ele>377.20000000000005</ele><time>2026-04-11T10:28:18Z</time></trkpt><trkpt lat="40.31533719387014" lon="9.175513565698152"><ele>377.4</ele><time>2026-04-11T10:28:19Z</time></trkpt><trkpt lat="40.31536605664836" lon="9.175362071481018"><ele>377.6</ele><time>2026-04-11T10:28:20Z</time></trkpt><trkpt lat="40.315401026047105" lon="9.175231273872235"><ele>377.79999999999995</ele><time>2026-04-11T10:28:21Z</time></trkpt><trkpt lat="40.31546237695017" lon="9.175138199417368"><ele>378.0</ele><time>2026-04-11T10:28:22Z</time></trkpt><trkpt lat="40.315541804355036" lon="9.175112156562719"><ele>378.25</ele><time>2026-04-11T10:28:23Z</time></trkpt><trkpt lat="40.31561608983347" lon="9.175203207384046"><ele>378.5</ele><time>2026-04-11T10:28:24Z</time></trkpt><trkpt lat="40.31572208313969" lon="9.175225989113711"><ele>378.75</ele><time>2026-04-11T10:28:25Z</time></trkpt><trkpt lat="40.31584533802715" lon="9.175242816659216"><ele>379.0</ele><time>2026-04-11T10:28:26Z</time></trkpt><trkpt lat="40.31598096256382" lon="9.175271598894462"><ele>379.0</ele><time>2026-04-11T10:28:27Z</time></trkpt><trkpt lat="40.316123099874794" lon="9.175291196257174"><ele>379.0</ele><time>2026-04-11T10:28:28Z</time></trkpt><trkpt lat="40.316274956908664" lon="9.175330950427105"><ele>379.0</ele><time>2026-04-11T10:28:29Z</time></trkpt><trkpt lat="40.316429412671084" lon="9.175333701736216"><ele>379.66666666666663</ele><time>2026-04-11T10:28:30Z</time></trkpt><trkpt lat="40.31659148794692" lon="9.175366861616414"><ele>380.3333333333333</ele><time>2026-04-11T10:28:31Z</time></trkpt><trkpt lat="40.31676082036429" lon="9.175398217658504"><ele>381.0</ele><time>2026-04-11T10:28:32Z</time></trkpt><trkpt lat="40.316933723148786" lon="9.175419622380476"><ele>381.0</ele><time>2026-04-11T10:28:33Z</time></trkpt><trkpt lat="40.317103006649944" lon="9.175468913670919"><ele>381.0</ele><time>2026-04-11T10:28:34Z</time></trkpt><trkpt lat="40.317259830917536" lon="9.175534571478705"><ele>381.0</ele><time>2026-04-11T10:28:35Z</time></trkpt><trkpt lat="40.3174154211738" lon="9.175624761808029"><ele>383.0</ele><time>2026-04-11T10:28:36Z</time></trkpt><trkpt lat="40.31756903659568" lon="9.175729222422344"><ele>385.0</ele><time>2026-04-11T10:28:37Z</time></trkpt><trkpt lat="40.31771769199137" lon="9.175832057347046"><ele>387.0</ele><time>2026-04-11T10:28:38Z</time></trkpt><trkpt lat="40.31786020927654" lon="9.175953066948084"><ele>387.0</ele><time>2026-04-11T10:28:39Z</time></trkpt><trkpt lat="40.317994850247175" lon="9.176085467816037"><ele>387.0</ele><time>2026-04-11T10:28:40Z</time></trkpt><trkpt lat="40.318121104043996" lon="9.176212184254032"><ele>387.0</ele><time>2026-04-11T10:28:41Z</time></trkpt><trkpt lat="40.31824717241257" lon="9.176306862056101"><ele>385.3333333333333</ele><time>2026-04-11T10:28:42Z</time></trkpt><trkpt lat="40.31836801785479" lon="9.17638204637268"><ele>383.66666666666663</ele><time>2026-04-11T10:28:43Z</time></trkpt><trkpt lat="40.31851915670217" lon="9.176369328494426"><ele>382.0</ele><time>2026-04-11T10:28:44Z</time></trkpt><trkpt lat="40.3186854139717" lon="9.176361261626102"><ele>382.0</ele><time>2026-04-11T10:28:45Z</time></trkpt><trkpt lat="40.31885811936544" lon="9.176362878512164"><ele>382.0</ele><time>2026-04-11T10:28:46Z</time></trkpt><trkpt lat="40.31900596575972" lon="9.176424252967225"><ele>382.0</ele><time>2026-04-11T10:28:47Z</time></trkpt><trkpt lat="40.319174058004435" lon="9.176505442913788"><ele>383.66666666666663</ele><time>2026-04-11T10:28:48Z</time></trkpt><trkpt lat="40.319348842421576" lon="9.17659060014433"><ele>385.3333333333333</ele><time>2026-04-11T10:28:49Z</time></trkpt><trkpt lat="40.319518799350405" lon="9.176652086203172"><ele>387.0</ele><time>2026-04-11T10:28:50Z</time></trkpt><trkpt lat="40.319654996886634" lon="9.17674828626241"><ele>387.0</ele><time>2026-04-11T10:28:51Z</time></trkpt><trkpt lat="40.31976978952433" lon="9.176853002512402"><ele>387.0</ele><time>2026-04-11T10:28:52Z</time></trkpt><trkpt lat="40.319861644007034" lon="9.177003885683144"><ele>387.0</ele><time>2026-04-11T10:28:53Z</time></trkpt><trkpt lat="40.31996074909841" lon="9.17719099179713"><ele>388.66666666666663</ele><time>2026-04-11T10:28:54Z</time></trkpt><trkpt lat="40.32006783007979" lon="9.177365653882278"><ele>390.3333333333333</ele><time>2026-04-11T10:28:55Z</time></trkpt><trkpt lat="40.320161280771565" lon="9.177547321894055"><ele>392.0</ele><time>2026-04-11T10:28:56Z</time></trkpt><trkpt lat="40.32024623300253" lon="9.17770886838041"><ele>392.0</ele><time>2026-04-11T10:28:57Z</time></trkpt><trkpt lat="40.32032980597384" lon="9.177843504206288"><ele>392.0</ele><time>2026-04-11T10:28:58Z</time></trkpt><trkpt lat="40.32039327007699" lon="9.177906116266849"><ele>392.0</ele><time>2026-04-11T10:28:59Z</time></trkpt><trkpt lat="40.32046835045959" lon="9.17791932178697"><ele>392.0</ele><time>2026-04-11T10:29:00Z</time></trkpt><trkpt lat="40.32056135739427" lon="9.177888522936362"><ele>392.0</ele><time>2026-04-11T10:29:01Z</time></trkpt><trkpt lat="40.32064687717308" lon="9.177817882621397"><ele>393.0</ele><time>2026-04-11T10:29:02Z</time></trkpt><trkpt lat="40.32070729567746" lon="9.177699823901914"><ele>394.0</ele><time>2026-04-11T10:29:03Z</time></trkpt><trkpt lat="40.320727334924435" lon="9.17754253447482"><ele>395.0</ele><time>2026-04-11T10:29:04Z</time></trkpt><trkpt lat="40.32073227636289" lon="9.177365062100876"><ele>396.0</ele><time>2026-04-11T10:29:05Z</time></trkpt><trkpt lat="40.32065116921208" lon="9.177182482479921"><ele>396.0</ele><time>2026-04-11T10:29:06Z</time></trkpt><trkpt lat="40.320617460413075" lon="9.176965790982731"><ele>396.0</ele><time>2026-04-11T10:29:07Z</time></trkpt><trkpt lat="40.32057633315657" lon="9.176773573178245"><ele>396.0</ele><time>2026-04-11T10:29:08Z</time></trkpt><trkpt lat="40.320543576193714" lon="9.17658064572748"><ele>394.4</ele><time>2026-04-11T10:29:09Z</time></trkpt><trkpt lat="40.32053875952242" lon="9.17640831764643"><ele>392.8</ele><time>2026-04-11T10:29:10Z</time></trkpt><trkpt lat="40.32057971378207" lon="9.17628328703007"><ele>391.2</ele><time>2026-04-11T10:29:11Z</time></trkpt><trkpt lat="40.32065132623913" lon="9.176207511905014"><ele>389.59999999999997</ele><time>2026-04-11T10:29:12Z</time></trkpt><trkpt lat="40.32075065111916" lon="9.176184600728602"><ele>388.0</ele><time>2026-04-11T10:29:13Z</time></trkpt><trkpt lat="40.3208889858286" lon="9.176144938200812"><ele>387.6666666666667</ele><time>2026-04-11T10:29:14Z</time></trkpt><trkpt lat="40.32104748453522" lon="9.176103795722486"><ele>387.33333333333337</ele><time>2026-04-11T10:29:15Z</time></trkpt><trkpt lat="40.321220074983046" lon="9.176056036866303"><ele>387.0</ele><time>2026-04-11T10:29:16Z</time></trkpt><trkpt lat="40.3213919917012" lon="9.175985656584695"><ele>388.0</ele><time>2026-04-11T10:29:17Z</time></trkpt><trkpt lat="40.321580846033264" lon="9.17595472011651"><ele>389.0</ele><time>2026-04-11T10:29:18Z</time></trkpt><trkpt lat="40.3217772735034" lon="9.175900591899016"><ele>390.0</ele><time>2026-04-11T10:29:19Z</time></trkpt><trkpt lat="40.321980776003215" lon="9.175845751550067"><ele>390.0</ele><time>2026-04-11T10:29:20Z</time></trkpt><trkpt lat="40.322187590266616" lon="9.17578872428493"><ele>390.0</ele><time>2026-04-11T10:29:21Z</time></trkpt><trkpt lat="40.32239110842224" lon="9.175730965517653"><ele>390.0</ele><time>2026-04-11T10:29:22Z</time></trkpt><trkpt lat="40.322589978037826" lon="9.175674526030784"><ele>390.33333333333337</ele><time>2026-04-11T10:29:23Z</time></trkpt><trkpt lat="40.32278031070824" lon="9.175620509235522"><ele>390.6666666666667</ele><time>2026-04-11T10:29:24Z</time></trkpt><trkpt lat="40.32295729537811" lon="9.17557216094207"><ele>391.0</ele><time>2026-04-11T10:29:25Z</time></trkpt><trkpt lat="40.3231258357833" lon="9.175545725577068"><ele>391.6666666666667</ele><time>2026-04-11T10:29:26Z</time></trkpt><trkpt lat="40.323305533028176" lon="9.17554276281502"><ele>392.33333333333337</ele><time>2026-04-11T10:29:27Z</time></trkpt><trkpt lat="40.32350477712582" lon="9.175555826770529"><ele>393.0</ele><time>2026-04-11T10:29:28Z</time></trkpt><trkpt lat="40.32371695864216" lon="9.175576562381096"><ele>394.0</ele><time>2026-04-11T10:29:29Z</time></trkpt><trkpt lat="40.32392472267072" lon="9.175597200997627"><ele>395.0</ele><time>2026-04-11T10:29:30Z</time></trkpt><trkpt lat="40.32413937628437" lon="9.175618523999868"><ele>396.0</ele><time>2026-04-11T10:29:31Z</time></trkpt><trkpt lat="40.32435598258401" lon="9.175639115969961"><ele>396.0</ele><time>2026-04-11T10:29:32Z</time></trkpt><trkpt lat="40.32456078693391" lon="9.175639860030095"><ele>396.0</ele><time>2026-04-11T10:29:33Z</time></trkpt><trkpt lat="40.32474969003484" lon="9.175660578335936"><ele>396.0</ele><time>2026-04-11T10:29:34Z</time></trkpt><trkpt lat="40.32492256105319" lon="9.175671455444368"><ele>397.33333333333337</ele><time>2026-04-11T10:29:35Z</time></trkpt><trkpt lat="40.3250893233075" lon="9.17568795302177"><ele>398.6666666666667</ele><time>2026-04-11T10:29:36Z</time></trkpt><trkpt lat="40.325245297051524" lon="9.175729201313958"><ele>400.0</ele><time>2026-04-11T10:29:37Z</time></trkpt><trkpt lat="40.32539584776021" lon="9.175795898540203"><ele>400.0</ele><time>2026-04-11T10:29:38Z</time></trkpt><trkpt lat="40.32555332857145" lon="9.175908620250087"><ele>400.0</ele><time>2026-04-11T10:29:39Z</time></trkpt><trkpt lat="40.325722375249235" lon="9.176043619240795"><ele>400.0</ele><time>2026-04-11T10:29:40Z</time></trkpt><trkpt lat="40.32590958894342" lon="9.176171361706206"><ele>399.0</ele><time>2026-04-11T10:29:41Z</time></trkpt><trkpt lat="40.32609646386724" lon="9.176316680522245"><ele>398.0</ele><time>2026-04-11T10:29:42Z</time></trkpt><trkpt lat="40.32628514122837" lon="9.176458776974911"><ele>397.0</ele><time>2026-04-11T10:29:43Z</time></trkpt><trkpt lat="40.32646342521594" lon="9.176598416686378"><ele>399.33333333333337</ele><time>2026-04-11T10:29:44Z</time></trkpt><trkpt lat="40.32664925260183" lon="9.17672376246218"><ele>401.66666666666663</ele><time>2026-04-11T10:29:45Z</time></trkpt><trkpt lat="40.3268544469177" lon="9.176811729473387"><ele>404.0</ele><time>2026-04-11T10:29:46Z</time></trkpt><trkpt lat="40.3270761559848" lon="9.176861960943981"><ele>403.66666666666663</ele><time>2026-04-11T10:29:47Z</time></trkpt><trkpt lat="40.32728209987291" lon="9.176899513586617"><ele>403.33333333333337</ele><time>2026-04-11T10:29:48Z</time></trkpt><trkpt lat="40.32746778045379" lon="9.176924406732011"><ele>403.0</ele><time>2026-04-11T10:29:49Z</time></trkpt><trkpt lat="40.327657050411965" lon="9.17690847895561"><ele>403.0</ele><time>2026-04-11T10:29:50Z</time></trkpt><trkpt lat="40.32784610825803" lon="9.176826919775948"><ele>403.0</ele><time>2026-04-11T10:29:51Z</time></trkpt><trkpt lat="40.328031226725784" lon="9.176686297863"><ele>403.0</ele><time>2026-04-11T10:29:52Z</time></trkpt><trkpt lat="40.328233518966684" lon="9.176548399775783"><ele>402.0</ele><time>2026-04-11T10:29:53Z</time></trkpt><trkpt lat="40.328435731494004" lon="9.176415485331193"><ele>401.0</ele><time>2026-04-11T10:29:54Z</time></trkpt><trkpt lat="40.32864719522787" lon="9.17627778227266"><ele>401.0</ele><time>2026-04-11T10:29:55Z</time></trkpt><trkpt lat="40.328850648628396" lon="9.176121254090944"><ele>401.0</ele><time>2026-04-11T10:29:56Z</time></trkpt><trkpt lat="40.32905101769219" lon="9.17599640746995"><ele>405.3333333333333</ele><time>2026-04-11T10:29:57Z</time></trkpt><trkpt lat="40.32923386617436" lon="9.17587557036999"><ele>409.66666666666663</ele><time>2026-04-11T10:29:58Z</time></trkpt><trkpt lat="40.3294051844565" lon="9.17578524514451"><ele>414.0</ele><time>2026-04-11T10:29:59Z</time></trkpt><trkpt lat="40.329555972774266" lon="9.175720461783962"><ele>414.0</ele><time>2026-04-11T10:30:00Z</time></trkpt><trkpt lat="40.32969757911143" lon="9.175706879595888"><ele>414.0</ele><time>2026-04-11T10:30:01Z</time></trkpt><trkpt lat="40.32983373047008" lon="9.17575200626733"><ele>414.0</ele><time>2026-04-11T10:30:02Z</time></trkpt><trkpt lat="40.329993723339754" lon="9.175809589191529"><ele>414.0</ele><time>2026-04-11T10:30:03Z</time></trkpt><trkpt lat="40.33017151370216" lon="9.175864286585893"><ele>415.33333333333337</ele><time>2026-04-11T10:30:04Z</time></trkpt><trkpt lat="40.33036237851012" lon="9.175937997291637"><ele>416.6666666666667</ele><time>2026-04-11T10:30:05Z</time></trkpt><trkpt lat="40.33055784237796" lon="9.17601884029733"><ele>418.0</ele><time>2026-04-11T10:30:06Z</time></trkpt><trkpt lat="40.33073646269212" lon="9.176093790346476"><ele>418.0</ele><time>2026-04-11T10:30:07Z</time></trkpt><trkpt lat="40.330898752301714" lon="9.176154548623122"><ele>418.0</ele><time>2026-04-11T10:30:08Z</time></trkpt><trkpt lat="40.331048217709174" lon="9.176207333685788"><ele>418.0</ele><time>2026-04-11T10:30:09Z</time></trkpt><trkpt lat="40.3311878686501" lon="9.176204292009878"><ele>418.0</ele><time>2026-04-11T10:30:10Z</time></trkpt><trkpt lat="40.331308141052205" lon="9.176124545557196"><ele>418.0</ele><time>2026-04-11T10:30:11Z</time></trkpt><trkpt lat="40.3314205074426" lon="9.175969904653478"><ele>418.0</ele><time>2026-04-11T10:30:12Z</time></trkpt><trkpt lat="40.33154875736205" lon="9.175808096595086"><ele>418.33333333333337</ele><time>2026-04-11T10:30:13Z</time></trkpt><trkpt lat="40.3316856952426" lon="9.17564131571272"><ele>418.66666666666663</ele><time>2026-04-11T10:30:14Z</time></trkpt><trkpt lat="40.3318344743144" lon="9.175482447220306"><ele>419.0</ele><time>2026-04-11T10:30:15Z</time></trkpt><trkpt lat="40.3319929193092" lon="9.175364844313165"><ele>419.0</ele><time>2026-04-11T10:30:16Z</time></trkpt><trkpt lat="40.33217353289308" lon="9.17529223784033"><ele>419.0</ele><time>2026-04-11T10:30:17Z</time></trkpt><trkpt lat="40.332369767686025" lon="9.175220150068872"><ele>419.0</ele><time>2026-04-11T10:30:18Z</time></trkpt><trkpt lat="40.33256097126075" lon="9.175132063710114"><ele>422.66666666666663</ele><time>2026-04-11T10:30:19Z</time></trkpt><trkpt lat="40.3327482857407" lon="9.17504331651952"><ele>426.33333333333337</ele><time>2026-04-11T10:30:20Z</time></trkpt><trkpt lat="40.33293278476402" lon="9.174925219293629"><ele>430.0</ele><time>2026-04-11T10:30:21Z</time></trkpt><trkpt lat="40.3331032136952" lon="9.17477460615507"><ele>431.0</ele><time>2026-04-11T10:30:22Z</time></trkpt><trkpt lat="40.333289944412314" lon="9.17463605827045"><ele>432.0</ele><time>2026-04-11T10:30:23Z</time></trkpt><trkpt lat="40.33347117367209" lon="9.174481478574075"><ele>433.0</ele><time>2026-04-11T10:30:24Z</time></trkpt><trkpt lat="40.3336445477322" lon="9.174332082551134"><ele>433.0</ele><time>2026-04-11T10:30:25Z</time></trkpt><trkpt lat="40.3338183866994" lon="9.174199921851114"><ele>433.0</ele><time>2026-04-11T10:30:26Z</time></trkpt><trkpt lat="40.333999497329835" lon="9.174079920458075"><ele>433.0</ele><time>2026-04-11T10:30:27Z</time></trkpt><trkpt lat="40.33419295125839" lon="9.173973178631307"><ele>432.6666666666667</ele><time>2026-04-11T10:30:28Z</time></trkpt><trkpt lat="40.3343884896911" lon="9.173874886806711"><ele>432.33333333333337</ele><time>2026-04-11T10:30:29Z</time></trkpt><trkpt lat="40.33455903647665" lon="9.173761098407828"><ele>432.0</ele><time>2026-04-11T10:30:30Z</time></trkpt><trkpt lat="40.33471545592853" lon="9.173641662350597"><ele>436.5</ele><time>2026-04-11T10:30:31Z</time></trkpt><trkpt lat="40.33483502052694" lon="9.17348235573688"><ele>441.0</ele><time>2026-04-11T10:30:32Z</time></trkpt><trkpt lat="40.33493190706931" lon="9.173324991507762"><ele>445.5</ele><time>2026-04-11T10:30:33Z</time></trkpt><trkpt lat="40.33503917505219" lon="9.173268412417737"><ele>450.0</ele><time>2026-04-11T10:30:34Z</time></trkpt><trkpt lat="40.33515470382514" lon="9.173288633479839"><ele>450.0</ele><time>2026-04-11T10:30:35Z</time></trkpt><trkpt lat="40.335286438475606" lon="9.173338489207367"><ele>450.0</ele><time>2026-04-11T10:30:36Z</time></trkpt><trkpt lat="40.335446157303025" lon="9.173365976697006"><ele>450.0</ele><time>2026-04-11T10:30:37Z</time></trkpt><trkpt lat="40.335605733180444" lon="9.173405507740567"><ele>451.25</ele><time>2026-04-11T10:30:38Z</time></trkpt><trkpt lat="40.33574223860475" lon="9.173463860085272"><ele>452.5</ele><time>2026-04-11T10:30:39Z</time></trkpt><trkpt lat="40.33586634001637" lon="9.173517708315732"><ele>453.75</ele><time>2026-04-11T10:30:40Z</time></trkpt><trkpt lat="40.33600332904909" lon="9.173590478428983"><ele>455.0</ele><time>2026-04-11T10:30:41Z</time></trkpt><trkpt lat="40.336155199309616" lon="9.173686672523614"><ele>455.0</ele><time>2026-04-11T10:30:42Z</time></trkpt><trkpt lat="40.336318508715394" lon="9.17379023243795"><ele>455.0</ele><time>2026-04-11T10:30:43Z</time></trkpt><trkpt lat="40.336489662196165" lon="9.173895677383882"><ele>455.0</ele><time>2026-04-11T10:30:44Z</time></trkpt><trkpt lat="40.336667937817815" lon="9.17400551002552"><ele>455.3333333333333</ele><time>2026-04-11T10:30:45Z</time></trkpt><trkpt lat="40.33684871900145" lon="9.17411688649799"><ele>455.66666666666663</ele><time>2026-04-11T10:30:46Z</time></trkpt><trkpt lat="40.33702060774003" lon="9.174228355201853"><ele>456.0</ele><time>2026-04-11T10:30:47Z</time></trkpt><trkpt lat="40.33717863221529" lon="9.174350337947695"><ele>453.66666666666663</ele><time>2026-04-11T10:30:48Z</time></trkpt><trkpt lat="40.33732805205617" lon="9.174503015210336"><ele>451.3333333333333</ele><time>2026-04-11T10:30:49Z</time></trkpt><trkpt lat="40.33748307516124" lon="9.17466809252872"><ele>449.0</ele><time>2026-04-11T10:30:50Z</time></trkpt><trkpt lat="40.337618300845236" lon="9.174843336624935"><ele>450.66666666666663</ele><time>2026-04-11T10:30:51Z</time></trkpt><trkpt lat="40.33775634308231" lon="9.174997196478026"><ele>452.33333333333337</ele><time>2026-04-11T10:30:52Z</time></trkpt><trkpt lat="40.33791763405684" lon="9.175116602693768"><ele>454.0</ele><time>2026-04-11T10:30:53Z</time></trkpt><trkpt lat="40.33809801117929" lon="9.175227559932418"><ele>454.0</ele><time>2026-04-11T10:30:54Z</time></trkpt><trkpt lat="40.338260257449804" lon="9.17535624763705"><ele>454.0</ele><time>2026-04-11T10:30:55Z</time></trkpt><trkpt lat="40.338428112552144" lon="9.17546619913547"><ele>454.0</ele><time>2026-04-11T10:30:56Z</time></trkpt><trkpt lat="40.33858105971919" lon="9.175607391835362"><ele>455.6666666666667</ele><time>2026-04-11T10:30:57Z</time></trkpt><trkpt lat="40.338723206086144" lon="9.175743958533467"><ele>457.33333333333337</ele><time>2026-04-11T10:30:58Z</time></trkpt><trkpt lat="40.3388558929555" lon="9.175876813587177"><ele>459.0</ele><time>2026-04-11T10:30:59Z</time></trkpt><trkpt lat="40.33894861398602" lon="9.176040770719808"><ele>459.0</ele><time>2026-04-11T10:31:00Z</time></trkpt><trkpt lat="40.339014136554006" lon="9.17620859010994"><ele>459.0</ele><time>2026-04-11T10:31:01Z</time></trkpt><trkpt lat="40.339071021678386" lon="9.17641811841489"><ele>459.0</ele><time>2026-04-11T10:31:02Z</time></trkpt><trkpt lat="40.339148795047954" lon="9.176637277729549"><ele>461.0</ele><time>2026-04-11T10:31:03Z</time></trkpt><trkpt lat="40.33920729457849" lon="9.176863872864491"><ele>463.0</ele><time>2026-04-11T10:31:04Z</time></trkpt><trkpt lat="40.33926327127355" lon="9.177059366691958"><ele>465.0</ele><time>2026-04-11T10:31:05Z</time></trkpt><trkpt lat="40.33932258435285" lon="9.177213190099264"><ele>465.0</ele><time>2026-04-11T10:31:06Z</time></trkpt><trkpt lat="40.33939085002933" lon="9.177349888836881"><ele>465.0</ele><time>2026-04-11T10:31:07Z</time></trkpt><trkpt lat="40.33948266591687" lon="9.177481145324224"><ele>465.0</ele><time>2026-04-11T10:31:08Z</time></trkpt><trkpt lat="40.3396090820784" lon="9.1776021627885"><ele>465.0</ele><time>2026-04-11T10:31:09Z</time></trkpt><trkpt lat="40.33975375436999" lon="9.177698417218418"><ele>465.66666666666663</ele><time>2026-04-11T10:31:10Z</time></trkpt><trkpt lat="40.33990196508673" lon="9.17774977718337"><ele>466.3333333333333</ele><time>2026-04-11T10:31:11Z</time></trkpt><trkpt lat="40.34004759552732" lon="9.177739242596664"><ele>467.0</ele><time>2026-04-11T10:31:12Z</time></trkpt><trkpt lat="40.34019350613327" lon="9.177658561463826"><ele>467.0</ele><time>2026-04-11T10:31:13Z</time></trkpt><trkpt lat="40.3403286303394" lon="9.17754540622866"><ele>467.0</ele><time>2026-04-11T10:31:14Z</time></trkpt><trkpt lat="40.34046789326705" lon="9.177447950547823"><ele>467.0</ele><time>2026-04-11T10:31:15Z</time></trkpt><trkpt lat="40.34060378025556" lon="9.177464570532782"><ele>468.0</ele><time>2026-04-11T10:31:16Z</time></trkpt><trkpt lat="40.34073820924709" lon="9.177502084292335"><ele>469.0</ele><time>2026-04-11T10:31:17Z</time></trkpt><trkpt lat="40.340897570633565" lon="9.177538087123358"><ele>470.0</ele><time>2026-04-11T10:31:18Z</time></trkpt><trkpt lat="40.34106371132876" lon="9.177573771924676"><ele>470.0</ele><time>2026-04-11T10:31:19Z</time></trkpt><trkpt lat="40.34119818749302" lon="9.177629254837697"><ele>470.0</ele><time>2026-04-11T10:31:20Z</time></trkpt><trkpt lat="40.34130185042644" lon="9.177723291352331"><ele>470.0</ele><time>2026-04-11T10:31:21Z</time></trkpt><trkpt lat="40.341382969592324" lon="9.17787073893034"><ele>470.0</ele><time>2026-04-11T10:31:22Z</time></trkpt><trkpt lat="40.34149470038274" lon="9.178033931320227"><ele>469.66666666666663</ele><time>2026-04-11T10:31:23Z</time></trkpt><trkpt lat="40.34162992918624" lon="9.178142630342515"><ele>469.33333333333337</ele><time>2026-04-11T10:31:24Z</time></trkpt><trkpt lat="40.3417606037842" lon="9.178207974387208"><ele>469.0</ele><time>2026-04-11T10:31:25Z</time></trkpt><trkpt lat="40.34192929315817" lon="9.178207857396028"><ele>469.0</ele><time>2026-04-11T10:31:26Z</time></trkpt><trkpt lat="40.34211212768751" lon="9.178158287720924"><ele>469.0</ele><time>2026-04-11T10:31:27Z</time></trkpt><trkpt lat="40.34229669941621" lon="9.178141292553471"><ele>469.0</ele><time>2026-04-11T10:31:28Z</time></trkpt><trkpt lat="40.34245646990657" lon="9.178133942079233"><ele>469.75</ele><time>2026-04-11T10:31:29Z</time></trkpt><trkpt lat="40.34257883350041" lon="9.178169136615141"><ele>470.5</ele><time>2026-04-11T10:31:30Z</time></trkpt><trkpt lat="40.34268554115525" lon="9.178248973010554"><ele>471.25</ele><time>2026-04-11T10:31:31Z</time></trkpt><trkpt lat="40.34276498742324" lon="9.178373044773322"><ele>472.0</ele><time>2026-04-11T10:31:32Z</time></trkpt><trkpt lat="40.3427993438292" lon="9.178539053257726"><ele>474.0</ele><time>2026-04-11T10:31:33Z</time></trkpt><trkpt lat="40.34285592518042" lon="9.178751316057104"><ele>476.0</ele><time>2026-04-11T10:31:34Z</time></trkpt><trkpt lat="40.34290183324064" lon="9.178984794762197"><ele>478.0</ele><time>2026-04-11T10:31:35Z</time></trkpt><trkpt lat="40.342956995655854" lon="9.179219184533949"><ele>477.0</ele><time>2026-04-11T10:31:36Z</time></trkpt><trkpt lat="40.34301868667168" lon="9.179454188165344"><ele>476.0</ele><time>2026-04-11T10:31:37Z</time></trkpt><trkpt lat="40.3430659372465" lon="9.179669501409442"><ele>475.0</ele><time>2026-04-11T10:31:38Z</time></trkpt><trkpt lat="40.34306304075645" lon="9.179870338010167"><ele>480.0</ele><time>2026-04-11T10:31:39Z</time></trkpt><trkpt lat="40.34303697008495" lon="9.180065140634465"><ele>485.0</ele><time>2026-04-11T10:31:40Z</time></trkpt><trkpt lat="40.34301054552646" lon="9.180289523368149"><ele>490.0</ele><time>2026-04-11T10:31:41Z</time></trkpt><trkpt lat="40.342971981870704" lon="9.180495604084118"><ele>490.0</ele><time>2026-04-11T10:31:42Z</time></trkpt><trkpt lat="40.34296003283395" lon="9.180668874101872"><ele>490.0</ele><time>2026-04-11T10:31:43Z</time></trkpt><trkpt lat="40.34300939399486" lon="9.180805631492998"><ele>490.0</ele><time>2026-04-11T10:31:44Z</time></trkpt><trkpt lat="40.34310494770668" lon="9.180926724635272"><ele>490.0</ele><time>2026-04-11T10:31:45Z</time></trkpt><trkpt lat="40.34322696164836" lon="9.181054112229894"><ele>486.5</ele><time>2026-04-11T10:31:46Z</time></trkpt><trkpt lat="40.343344538830735" lon="9.181181144533323"><ele>483.0</ele><time>2026-04-11T10:31:47Z</time></trkpt><trkpt lat="40.343439078797374" lon="9.181281707125862"><ele>479.5</ele><time>2026-04-11T10:31:48Z</time></trkpt><trkpt lat="40.34352732429237" lon="9.18134659801064"><ele>476.0</ele><time>2026-04-11T10:31:49Z</time></trkpt><trkpt lat="40.343619483088624" lon="9.181385517497183"><ele>476.0</ele><time>2026-04-11T10:31:50Z</time></trkpt><trkpt lat="40.34371949975069" lon="9.181403256769485"><ele>476.0</ele><time>2026-04-11T10:31:51Z</time></trkpt><trkpt lat="40.34383460211335" lon="9.181400116882195"><ele>476.0</ele><time>2026-04-11T10:31:52Z</time></trkpt><trkpt lat="40.34396287412439" lon="9.181416596719234"><ele>476.0</ele><time>2026-04-11T10:31:53Z</time></trkpt><trkpt lat="40.344094288366065" lon="9.181429403038178"><ele>476.0</ele><time>2026-04-11T10:31:54Z</time></trkpt><trkpt lat="40.344219378099886" lon="9.18145930385606"><ele>476.0</ele><time>2026-04-11T10:31:55Z</time></trkpt><trkpt lat="40.34432891290604" lon="9.181522183707731"><ele>476.0</ele><time>2026-04-11T10:31:56Z</time></trkpt><trkpt lat="40.34441955256882" lon="9.181618854188772"><ele>476.0</ele><time>2026-04-11T10:31:57Z</time></trkpt><trkpt lat="40.3444779527966" lon="9.181750262493292"><ele>478.66666666666663</ele><time>2026-04-11T10:31:58Z</time></trkpt><trkpt lat="40.34451396677955" lon="9.181921521136266"><ele>481.33333333333337</ele><time>2026-04-11T10:31:59Z</time></trkpt><trkpt lat="40.344568960722064" lon="9.182114490356202"><ele>484.0</ele><time>2026-04-11T10:32:00Z</time></trkpt><trkpt lat="40.344620883178244" lon="9.182327851014987"><ele>486.6666666666667</ele><time>2026-04-11T10:32:01Z</time></trkpt><trkpt lat="40.34466523915779" lon="9.1825405773116"><ele>489.33333333333337</ele><time>2026-04-11T10:32:02Z</time></trkpt><trkpt lat="40.3446666452336" lon="9.182761134221419"><ele>492.0</ele><time>2026-04-11T10:32:03Z</time></trkpt><trkpt lat="40.34467956933861" lon="9.182968349341"><ele>492.0</ele><time>2026-04-11T10:32:04Z</time></trkpt><trkpt lat="40.344667888872635" lon="9.183142006677217"><ele>492.0</ele><time>2026-04-11T10:32:05Z</time></trkpt><trkpt lat="40.34470003825508" lon="9.18328826654278"><ele>492.0</ele><time>2026-04-11T10:32:06Z</time></trkpt><trkpt lat="40.344780392109584" lon="9.18341358026286"><ele>492.0</ele><time>2026-04-11T10:32:07Z</time></trkpt><trkpt lat="40.34489947912705" lon="9.183487918121452"><ele>490.25</ele><time>2026-04-11T10:32:08Z</time></trkpt><trkpt lat="40.34503808177591" lon="9.18353113016763"><ele>488.5</ele><time>2026-04-11T10:32:09Z</time></trkpt><trkpt lat="40.345180010186155" lon="9.183555470087143"><ele>486.75</ele><time>2026-04-11T10:32:10Z</time></trkpt><trkpt lat="40.3453194453075" lon="9.183547809857457"><ele>485.0</ele><time>2026-04-11T10:32:11Z</time></trkpt><trkpt lat="40.34545045419371" lon="9.183469283999505"><ele>486.66666666666663</ele><time>2026-04-11T10:32:12Z</time></trkpt><trkpt lat="40.34555963980999" lon="9.183311661299756"><ele>488.33333333333337</ele><time>2026-04-11T10:32:13Z</time></trkpt><trkpt lat="40.345652236125105" lon="9.183146326237024"><ele>490.0</ele><time>2026-04-11T10:32:14Z</time></trkpt><trkpt lat="40.34575464814359" lon="9.183037760381833"><ele>486.75</ele><time>2026-04-11T10:32:15Z</time></trkpt><trkpt lat="40.34584920826882" lon="9.182972189654603"><ele>483.5</ele><time>2026-04-11T10:32:16Z</time></trkpt><trkpt lat="40.34594714078834" lon="9.182927465485918"><ele>480.25</ele><time>2026-04-11T10:32:17Z</time></trkpt><trkpt lat="40.346046867273316" lon="9.183040259949337"><ele>477.0</ele><time>2026-04-11T10:32:18Z</time></trkpt><trkpt lat="40.34617145701411" lon="9.18312368968603"><ele>479.33333333333337</ele><time>2026-04-11T10:32:19Z</time></trkpt><trkpt lat="40.34630788028708" lon="9.183228422882074"><ele>481.6666666666667</ele><time>2026-04-11T10:32:20Z</time></trkpt><trkpt lat="40.34643119749834" lon="9.183355864936708"><ele>484.0</ele><time>2026-04-11T10:32:21Z</time></trkpt><trkpt lat="40.34654496013428" lon="9.183512754678981"><ele>484.0</ele><time>2026-04-11T10:32:22Z</time></trkpt><trkpt lat="40.34666086690354" lon="9.183672747690641"><ele>484.0</ele><time>2026-04-11T10:32:23Z</time></trkpt><trkpt lat="40.34675810966868" lon="9.183821088832353"><ele>484.0</ele><time>2026-04-11T10:32:24Z</time></trkpt><trkpt lat="40.34683939677816" lon="9.18395085048299"><ele>484.0</ele><time>2026-04-11T10:32:25Z</time></trkpt><trkpt lat="40.34679983732911" lon="9.18418897660819"><ele>486.75</ele><time>2026-04-11T10:32:26Z</time></trkpt><trkpt lat="40.34676509173313" lon="9.184371155864447"><ele>489.5</ele><time>2026-04-11T10:32:27Z</time></trkpt><trkpt lat="40.34676579470105" lon="9.18453565591248"><ele>492.25</ele><time>2026-04-11T10:32:28Z</time></trkpt><trkpt lat="40.34682350264907" lon="9.184681728984122"><ele>495.0</ele><time>2026-04-11T10:32:29Z</time></trkpt><trkpt lat="40.34692824461093" lon="9.184799624729628"><ele>497.0</ele><time>2026-04-11T10:32:30Z</time></trkpt><trkpt lat="40.34706270800282" lon="9.184876071805496"><ele>499.0</ele><time>2026-04-11T10:32:31Z</time></trkpt><trkpt lat="40.34720346727438" lon="9.184908642475026"><ele>501.0</ele><time>2026-04-11T10:32:32Z</time></trkpt><trkpt lat="40.34735255456624" lon="9.1848807332308"><ele>503.0</ele><time>2026-04-11T10:32:33Z</time></trkpt><trkpt lat="40.34750085284333" lon="9.184801014129635"><ele>503.0</ele><time>2026-04-11T10:32:34Z</time></trkpt><trkpt lat="40.347643556996985" lon="9.184750450855159"><ele>503.0</ele><time>2026-04-11T10:32:35Z</time></trkpt><trkpt lat="40.34778706198413" lon="9.1847485603271"><ele>503.0</ele><time>2026-04-11T10:32:36Z</time></trkpt><trkpt lat="40.34792231737878" lon="9.184785725962245"><ele>503.0</ele><time>2026-04-11T10:32:37Z</time></trkpt><trkpt lat="40.34803435088621" lon="9.184852442678016"><ele>503.25</ele><time>2026-04-11T10:32:38Z</time></trkpt><trkpt lat="40.348136807398866" lon="9.184972167909162"><ele>503.5</ele><time>2026-04-11T10:32:39Z</time></trkpt><trkpt lat="40.3482357600402" lon="9.185115183828973"><ele>503.75</ele><time>2026-04-11T10:32:40Z</time></trkpt><trkpt lat="40.34832483524684" lon="9.18528129590053"><ele>504.0</ele><time>2026-04-11T10:32:41Z</time></trkpt><trkpt lat="40.34839492446849" lon="9.185459657650693"><ele>504.0</ele><time>2026-04-11T10:32:42Z</time></trkpt><trkpt lat="40.34846208749777" lon="9.185609000437946"><ele>504.0</ele><time>2026-04-11T10:32:43Z</time></trkpt><trkpt lat="40.348545019696374" lon="9.185700585172041"><ele>504.0</ele><time>2026-04-11T10:32:44Z</time></trkpt><trkpt lat="40.34865244226398" lon="9.185734716360242"><ele>504.0</ele><time>2026-04-11T10:32:45Z</time></trkpt><trkpt lat="40.348779257147726" lon="9.185669327993041"><ele>504.0</ele><time>2026-04-11T10:32:46Z</time></trkpt><trkpt lat="40.3488733558179" lon="9.185563770873081"><ele>504.0</ele><time>2026-04-11T10:32:47Z</time></trkpt><trkpt lat="40.348918893135725" lon="9.185373177969913"><ele>504.0</ele><time>2026-04-11T10:32:48Z</time></trkpt><trkpt lat="40.348935559346316" lon="9.185166297190511"><ele>504.0</ele><time>2026-04-11T10:32:49Z</time></trkpt><trkpt lat="40.34895368675015" lon="9.184988826963394"><ele>504.0</ele><time>2026-04-11T10:32:50Z</time></trkpt><trkpt lat="40.34900427237416" lon="9.184852038898525"><ele>504.0</ele><time>2026-04-11T10:32:51Z</time></trkpt><trkpt lat="40.34910059737455" lon="9.184744925817734"><ele>504.0</ele><time>2026-04-11T10:32:52Z</time></trkpt><trkpt lat="40.34922775479969" lon="9.18468585298815"><ele>504.0</ele><time>2026-04-11T10:32:53Z</time></trkpt><trkpt lat="40.34937419683679" lon="9.184685007858771"><ele>504.0</ele><time>2026-04-11T10:32:54Z</time></trkpt><trkpt lat="40.34952894240393" lon="9.184749184493826"><ele>504.0</ele><time>2026-04-11T10:32:55Z</time></trkpt><trkpt lat="40.349674060135364" lon="9.184833582346094"><ele>504.0</ele><time>2026-04-11T10:32:56Z</time></trkpt><trkpt lat="40.34980266206552" lon="9.184956816774754"><ele>509.0</ele><time>2026-04-11T10:32:57Z</time></trkpt><trkpt lat="40.34991076617803" lon="9.185115764054768"><ele>514.0</ele><time>2026-04-11T10:32:58Z</time></trkpt><trkpt lat="40.350002422300705" lon="9.185295999843866"><ele>519.0</ele><time>2026-04-11T10:32:59Z</time></trkpt><trkpt lat="40.35006441482911" lon="9.18549577976022"><ele>521.0</ele><time>2026-04-11T10:33:00Z</time></trkpt><trkpt lat="40.35010271478303" lon="9.185714853264118"><ele>523.0</ele><time>2026-04-11T10:33:01Z</time></trkpt><trkpt lat="40.350117763133376" lon="9.185946375198665"><ele>525.0</ele><time>2026-04-11T10:33:02Z</time></trkpt><trkpt lat="40.350144560774346" lon="9.186177436717083"><ele>525.0</ele><time>2026-04-11T10:33:03Z</time></trkpt><trkpt lat="40.35019253702622" lon="9.186412932726562"><ele>525.0</ele><time>2026-04-11T10:33:04Z</time></trkpt><trkpt lat="40.35027020076791" lon="9.186643947978741"><ele>525.0</ele><time>2026-04-11T10:33:05Z</time></trkpt><trkpt lat="40.350368753949525" lon="9.186862470171205"><ele>524.6666666666666</ele><time>2026-04-11T10:33:06Z</time></trkpt><trkpt lat="40.35046495904178" lon="9.187076976492541"><ele>524.3333333333333</ele><time>2026-04-11T10:33:07Z</time></trkpt><trkpt lat="40.35056527395993" lon="9.187279563041555"><ele>524.0</ele><time>2026-04-11T10:33:08Z</time></trkpt><trkpt lat="40.35068842796132" lon="9.187463785280919"><ele>524.0</ele><time>2026-04-11T10:33:09Z</time></trkpt><trkpt lat="40.35083304600753" lon="9.187631478223507"><ele>524.0</ele><time>2026-04-11T10:33:10Z</time></trkpt><trkpt lat="40.35098862952654" lon="9.187781438025569"><ele>524.0</ele><time>2026-04-11T10:33:11Z</time></trkpt><trkpt lat="40.35114690722663" lon="9.187918026337218"><ele>524.0</ele><time>2026-04-11T10:33:12Z</time></trkpt><trkpt lat="40.35128757506124" lon="9.188043132792647"><ele>524.0</ele><time>2026-04-11T10:33:13Z</time></trkpt><trkpt lat="40.351448768715095" lon="9.188101700872133"><ele>524.0</ele><time>2026-04-11T10:33:14Z</time></trkpt><trkpt lat="40.35162289651133" lon="9.188130030401265"><ele>525.0</ele><time>2026-04-11T10:33:15Z</time></trkpt><trkpt lat="40.351768936576015" lon="9.188185496988423"><ele>526.0</ele><time>2026-04-11T10:33:16Z</time></trkpt><trkpt lat="40.35186918622747" lon="9.188306917847392"><ele>527.0</ele><time>2026-04-11T10:33:17Z</time></trkpt><trkpt lat="40.35192708531575" lon="9.188474285261782"><ele>528.0</ele><time>2026-04-11T10:33:18Z</time></trkpt><trkpt lat="40.35193203226007" lon="9.188667134567996"><ele>528.0</ele><time>2026-04-11T10:33:19Z</time></trkpt><trkpt lat="40.35189216279992" lon="9.188869480986112"><ele>528.0</ele><time>2026-04-11T10:33:20Z</time></trkpt><trkpt lat="40.35185225945618" lon="9.18907346532219"><ele>528.0</ele><time>2026-04-11T10:33:21Z</time></trkpt><trkpt lat="40.3518418362274" lon="9.189288792110286"><ele>532.3333333333334</ele><time>2026-04-11T10:33:22Z</time></trkpt><trkpt lat="40.351892358083006" lon="9.189502824414625"><ele>536.6666666666667</ele><time>2026-04-11T10:33:23Z</time></trkpt><trkpt lat="40.351969704018444" lon="9.189717612900164"><ele>541.0</ele><time>2026-04-11T10:33:24Z</time></trkpt><trkpt lat="40.352052448111635" lon="9.189929584589"><ele>539.6666666666667</ele><time>2026-04-11T10:33:25Z</time></trkpt><trkpt lat="40.35213354912092" lon="9.190143185344919"><ele>538.3333333333334</ele><time>2026-04-11T10:33:26Z</time></trkpt><trkpt lat="40.35222326608909" lon="9.1903573843107"><ele>537.0</ele><time>2026-04-11T10:33:27Z</time></trkpt><trkpt lat="40.352321335654956" lon="9.19056393387867"><ele>538.6666666666666</ele><time>2026-04-11T10:33:28Z</time></trkpt><trkpt lat="40.35241802580553" lon="9.190766714166609"><ele>540.3333333333333</ele><time>2026-04-11T10:33:29Z</time></trkpt><trkpt lat="40.35253238580662" lon="9.190951449651498"><ele>542.0</ele><time>2026-04-11T10:33:30Z</time></trkpt><trkpt lat="40.352652391327226" lon="9.191128207860606"><ele>542.0</ele><time>2026-04-11T10:33:31Z</time></trkpt><trkpt lat="40.35276063304974" lon="9.191291543707509"><ele>542.0</ele><time>2026-04-11T10:33:32Z</time></trkpt><trkpt lat="40.35285257081598" lon="9.191434732000765"><ele>542.0</ele><time>2026-04-11T10:33:33Z</time></trkpt><trkpt lat="40.352928518860196" lon="9.19153018986651"><ele>542.0</ele><time>2026-04-11T10:33:34Z</time></trkpt><trkpt lat="40.35300276147777" lon="9.191577165439854"><ele>542.25</ele><time>2026-04-11T10:33:35Z</time></trkpt><trkpt lat="40.353087515097194" lon="9.191588907479078"><ele>542.5</ele><time>2026-04-11T10:33:36Z</time></trkpt><trkpt lat="40.35319211371813" lon="9.191578098827723"><ele>542.75</ele><time>2026-04-11T10:33:37Z</time></trkpt><trkpt lat="40.353314050973715" lon="9.191538573958812"><ele>543.0</ele><time>2026-04-11T10:33:38Z</time></trkpt><trkpt lat="40.35345773208925" lon="9.191488257037285"><ele>544.6666666666666</ele><time>2026-04-11T10:33:39Z</time></trkpt><trkpt lat="40.353619100292896" lon="9.191475865389904"><ele>546.3333333333333</ele><time>2026-04-11T10:33:40Z</time></trkpt><trkpt lat="40.35377148617122" lon="9.191490599022458"><ele>548.0</ele><time>2026-04-11T10:33:41Z</time></trkpt><trkpt lat="40.35394110521144" lon="9.191502288533536"><ele>548.5</ele><time>2026-04-11T10:33:42Z</time></trkpt><trkpt lat="40.35410845452373" lon="9.191520825322838"><ele>549.0</ele><time>2026-04-11T10:33:43Z</time></trkpt><trkpt lat="40.35425079836594" lon="9.191564367713116"><ele>549.5</ele><time>2026-04-11T10:33:44Z</time></trkpt><trkpt lat="40.35436660349087" lon="9.191633147250283"><ele>550.0</ele><time>2026-04-11T10:33:45Z</time></trkpt><trkpt lat="40.354466812113856" lon="9.191740334466461"><ele>550.0</ele><time>2026-04-11T10:33:46Z</time></trkpt><trkpt lat="40.35452968773055" lon="9.19189175415419"><ele>550.0</ele><time>2026-04-11T10:33:47Z</time></trkpt><trkpt lat="40.354571313817594" lon="9.192070576868547"><ele>550.0</ele><time>2026-04-11T10:33:48Z</time></trkpt><trkpt lat="40.3546146666396" lon="9.192239582392945"><ele>550.0</ele><time>2026-04-11T10:33:49Z</time></trkpt><trkpt lat="40.354668383805375" lon="9.192384099518215"><ele>551.8</ele><time>2026-04-11T10:33:50Z</time></trkpt><trkpt lat="40.35474629892102" lon="9.192479831972868"><ele>553.6</ele><time>2026-04-11T10:33:51Z</time></trkpt><trkpt lat="40.35484592527345" lon="9.192513528334157"><ele>555.4</ele><time>2026-04-11T10:33:52Z</time></trkpt><trkpt lat="40.35495008367635" lon="9.192473169247766"><ele>557.2</ele><time>2026-04-11T10:33:53Z</time></trkpt><trkpt lat="40.35502430068253" lon="9.19237482239304"><ele>559.0</ele><time>2026-04-11T10:33:54Z</time></trkpt><trkpt lat="40.355056748268325" lon="9.192238649915096"><ele>559.5</ele><time>2026-04-11T10:33:55Z</time></trkpt><trkpt lat="40.3550411500499" lon="9.192077843807695"><ele>560.0</ele><time>2026-04-11T10:33:56Z</time></trkpt><trkpt lat="40.35499887742626" lon="9.191901429789626"><ele>560.5</ele><time>2026-04-11T10:33:57Z</time></trkpt><trkpt lat="40.35497976573462" lon="9.191722036792523"><ele>561.0</ele><time>2026-04-11T10:33:58Z</time></trkpt><trkpt lat="40.355000944617736" lon="9.191543889473964"><ele>562.5</ele><time>2026-04-11T10:33:59Z</time></trkpt><trkpt lat="40.35504800615854" lon="9.191355029144951"><ele>564.0</ele><time>2026-04-11T10:34:00Z</time></trkpt><trkpt lat="40.35508003254717" lon="9.191175938421217"><ele>565.5</ele><time>2026-04-11T10:34:01Z</time></trkpt><trkpt lat="40.3550738453963" lon="9.191001452750516"><ele>567.0</ele><time>2026-04-11T10:34:02Z</time></trkpt><trkpt lat="40.355031394148114" lon="9.190828640261115"><ele>566.3333333333334</ele><time>2026-04-11T10:34:03Z</time></trkpt><trkpt lat="40.354948491617435" lon="9.190667348009702"><ele>565.6666666666667</ele><time>2026-04-11T10:34:04Z</time></trkpt><trkpt lat="40.35483340334894" lon="9.190524720639432"><ele>565.0</ele><time>2026-04-11T10:34:05Z</time></trkpt><trkpt lat="40.35469829869168" lon="9.1904043186397"><ele>565.0</ele><time>2026-04-11T10:34:06Z</time></trkpt><trkpt lat="40.35456198551242" lon="9.190278439244901"><ele>565.0</ele><time>2026-04-11T10:34:07Z</time></trkpt><trkpt lat="40.3544326783965" lon="9.190171858316413"><ele>565.0</ele><time>2026-04-11T10:34:08Z</time></trkpt><trkpt lat="40.35432575840344" lon="9.19006562214051"><ele>565.0</ele><time>2026-04-11T10:34:09Z</time></trkpt><trkpt lat="40.354256081295475" lon="9.189963825765146"><ele>565.0</ele><time>2026-04-11T10:34:10Z</time></trkpt><trkpt lat="40.35425723686227" lon="9.189842510062412"><ele>565.0</ele><time>2026-04-11T10:34:11Z</time></trkpt><trkpt lat="40.354273233389804" lon="9.189731131263573"><ele>565.0</ele><time>2026-04-11T10:34:12Z</time></trkpt><trkpt lat="40.354314389568295" lon="9.18961644426619"><ele>565.0</ele><time>2026-04-11T10:34:13Z</time></trkpt><trkpt lat="40.35439253398196" lon="9.189523821389988"><ele>565.5</ele><time>2026-04-11T10:34:14Z</time></trkpt><trkpt lat="40.35449287443881" lon="9.189478920923147"><ele>566.0</ele><time>2026-04-11T10:34:15Z</time></trkpt><trkpt lat="40.354612188917464" lon="9.189426118543874"><ele>566.5</ele><time>2026-04-11T10:34:16Z</time></trkpt><trkpt lat="40.354736122066946" lon="9.189356158516443"><ele>567.0</ele><time>2026-04-11T10:34:17Z</time></trkpt><trkpt lat="40.35486829527491" lon="9.189299737291678"><ele>567.0</ele><time>2026-04-11T10:34:18Z</time></trkpt><trkpt lat="40.35500667827145" lon="9.189276221965702"><ele>567.0</ele><time>2026-04-11T10:34:19Z</time></trkpt><trkpt lat="40.3551451178884" lon="9.18924107443576"><ele>567.0</ele><time>2026-04-11T10:34:20Z</time></trkpt><trkpt lat="40.355292341731904" lon="9.189256344226918"><ele>567.0</ele><time>2026-04-11T10:34:21Z</time></trkpt><trkpt lat="40.355442409195895" lon="9.189267406555736"><ele>569.0</ele><time>2026-04-11T10:34:22Z</time></trkpt><trkpt lat="40.3555775035061" lon="9.189248038329188"><ele>571.0</ele><time>2026-04-11T10:34:23Z</time></trkpt><trkpt lat="40.355704324637266" lon="9.18916878081081"><ele>573.0</ele><time>2026-04-11T10:34:24Z</time></trkpt><trkpt lat="40.35582798883581" lon="9.189054456022832"><ele>575.0</ele><time>2026-04-11T10:34:25Z</time></trkpt><trkpt lat="40.35594628083433" lon="9.188926457077981"><ele>574.0</ele><time>2026-04-11T10:34:26Z</time></trkpt><trkpt lat="40.356079240906936" lon="9.188836366903907"><ele>573.0</ele><time>2026-04-11T10:34:27Z</time></trkpt><trkpt lat="40.3562350829452" lon="9.188760994335219"><ele>572.0</ele><time>2026-04-11T10:34:28Z</time></trkpt><trkpt lat="40.35639106907177" lon="9.188669894573955"><ele>572.0</ele><time>2026-04-11T10:34:29Z</time></trkpt><trkpt lat="40.35655245360323" lon="9.188614079320795"><ele>572.0</ele><time>2026-04-11T10:34:30Z</time></trkpt><trkpt lat="40.35670194675256" lon="9.188552616299255"><ele>572.0</ele><time>2026-04-11T10:34:31Z</time></trkpt><trkpt lat="40.35685261950436" lon="9.188524347355514"><ele>572.0</ele><time>2026-04-11T10:34:32Z</time></trkpt><trkpt lat="40.35702231601992" lon="9.188501943890381"><ele>572.0</ele><time>2026-04-11T10:34:33Z</time></trkpt><trkpt lat="40.357180733516195" lon="9.188559666281568"><ele>572.0</ele><time>2026-04-11T10:34:34Z</time></trkpt><trkpt lat="40.357350401552175" lon="9.18860594711002"><ele>572.0</ele><time>2026-04-11T10:34:35Z</time></trkpt><trkpt lat="40.35751200970575" lon="9.18870662056991"><ele>572.0</ele><time>2026-04-11T10:34:36Z</time></trkpt><trkpt lat="40.35767293836303" lon="9.188819512639784"><ele>572.0</ele><time>2026-04-11T10:34:37Z</time></trkpt><trkpt lat="40.35783195419396" lon="9.188930895892868"><ele>576.5</ele><time>2026-04-11T10:34:38Z</time></trkpt><trkpt lat="40.35797749797525" lon="9.189036740012208"><ele>581.0</ele><time>2026-04-11T10:34:39Z</time></trkpt><trkpt lat="40.35810503461145" lon="9.189127751520354"><ele>585.5</ele><time>2026-04-11T10:34:40Z</time></trkpt><trkpt lat="40.35823037904948" lon="9.189171346449413"><ele>590.0</ele><time>2026-04-11T10:34:41Z</time></trkpt><trkpt lat="40.35836464035116" lon="9.189152109544882"><ele>590.0</ele><time>2026-04-11T10:34:42Z</time></trkpt><trkpt lat="40.35850044777895" lon="9.189083099017807"><ele>590.0</ele><time>2026-04-11T10:34:43Z</time></trkpt><trkpt lat="40.35862736012831" lon="9.189003563196614"><ele>590.0</ele><time>2026-04-11T10:34:44Z</time></trkpt><trkpt lat="40.35876326584288" lon="9.188946008170879"><ele>590.0</ele><time>2026-04-11T10:34:45Z</time></trkpt><trkpt lat="40.35889736193471" lon="9.18893716801228"><ele>591.0</ele><time>2026-04-11T10:34:46Z</time></trkpt><trkpt lat="40.359021016773085" lon="9.188979742932075"><ele>592.0</ele><time>2026-04-11T10:34:47Z</time></trkpt><trkpt lat="40.35914701713069" lon="9.18905337965035"><ele>593.0</ele><time>2026-04-11T10:34:48Z</time></trkpt><trkpt lat="40.3592692339828" lon="9.189109182970375"><ele>594.0</ele><time>2026-04-11T10:34:49Z</time></trkpt><trkpt lat="40.359397343561874" lon="9.18909034271835"><ele>593.75</ele><time>2026-04-11T10:34:50Z</time></trkpt><trkpt lat="40.3595089857575" lon="9.189001927683877"><ele>593.5</ele><time>2026-04-11T10:34:51Z</time></trkpt><trkpt lat="40.359599515156944" lon="9.18886184311452"><ele>593.25</ele><time>2026-04-11T10:34:52Z</time></trkpt><trkpt lat="40.359700917837245" lon="9.188742884768022"><ele>593.0</ele><time>2026-04-11T10:34:53Z</time></trkpt><trkpt lat="40.35980716569289" lon="9.18864583433693"><ele>593.0</ele><time>2026-04-11T10:34:54Z</time></trkpt><trkpt lat="40.35995098172898" lon="9.188593126537414"><ele>593.0</ele><time>2026-04-11T10:34:55Z</time></trkpt><trkpt lat="40.36009234089546" lon="9.188565536213904"><ele>593.0</ele><time>2026-04-11T10:34:56Z</time></trkpt><trkpt lat="40.36024050946628" lon="9.188639058837765"><ele>593.0</ele><time>2026-04-11T10:34:57Z</time></trkpt><trkpt lat="40.360376694338775" lon="9.18873106905132"><ele>593.0</ele><time>2026-04-11T10:34:58Z</time></trkpt><trkpt lat="40.36049642121955" lon="9.188759824411887"><ele>593.0</ele><time>2026-04-11T10:34:59Z</time></trkpt><trkpt lat="40.36061299922697" lon="9.188692501697354"><ele>593.0</ele><time>2026-04-11T10:35:00Z</time></trkpt><trkpt lat="40.36074403891852" lon="9.18860765950154"><ele>593.75</ele><time>2026-04-11T10:35:01Z</time></trkpt><trkpt lat="40.36086666592339" lon="9.188548567207325"><ele>594.5</ele><time>2026-04-11T10:35:02Z</time></trkpt><trkpt lat="40.36101770132939" lon="9.188515986059778"><ele>595.25</ele><time>2026-04-11T10:35:03Z</time></trkpt><trkpt lat="40.36115934505782" lon="9.188509977036723"><ele>596.0</ele><time>2026-04-11T10:35:04Z</time></trkpt><trkpt lat="40.3612931315015" lon="9.188527182154948"><ele>595.75</ele><time>2026-04-11T10:35:05Z</time></trkpt><trkpt lat="40.36140606290091" lon="9.188637910236226"><ele>595.5</ele><time>2026-04-11T10:35:06Z</time></trkpt><trkpt lat="40.36150204430978" lon="9.188783297940182"><ele>595.25</ele><time>2026-04-11T10:35:07Z</time></trkpt><trkpt lat="40.36160915627685" lon="9.188902026098237"><ele>595.0</ele><time>2026-04-11T10:35:08Z</time></trkpt><trkpt lat="40.361757394142884" lon="9.188953461280922"><ele>595.0</ele><time>2026-04-11T10:35:09Z</time></trkpt><trkpt lat="40.36192437485248" lon="9.188935953729914"><ele>595.0</ele><time>2026-04-11T10:35:10Z</time></trkpt><trkpt lat="40.362099869067364" lon="9.188911212004216"><ele>595.0</ele><time>2026-04-11T10:35:11Z</time></trkpt><trkpt lat="40.36226749622063" lon="9.188875958934515"><ele>598.0</ele><time>2026-04-11T10:35:12Z</time></trkpt><trkpt lat="40.362424666249616" lon="9.188846416527907"><ele>601.0</ele><time>2026-04-11T10:35:13Z</time></trkpt><trkpt lat="40.36257367130947" lon="9.188829002619258"><ele>604.0</ele><time>2026-04-11T10:35:14Z</time></trkpt><trkpt lat="40.362725121789055" lon="9.188917082133464"><ele>604.0</ele><time>2026-04-11T10:35:15Z</time></trkpt><trkpt lat="40.362888946257" lon="9.188992305246463"><ele>604.0</ele><time>2026-04-11T10:35:16Z</time></trkpt><trkpt lat="40.3630525630188" lon="9.189080499561726"><ele>604.0</ele><time>2026-04-11T10:35:17Z</time></trkpt><trkpt lat="40.36318724154727" lon="9.189187176067833"><ele>607.0</ele><time>2026-04-11T10:35:18Z</time></trkpt><trkpt lat="40.363303747734925" lon="9.189287613637457"><ele>610.0</ele><time>2026-04-11T10:35:19Z</time></trkpt><trkpt lat="40.36338994571964" lon="9.189440512966206"><ele>613.0</ele><time>2026-04-11T10:35:20Z</time></trkpt><trkpt lat="40.36346935056168" lon="9.189606433286365"><ele>616.0</ele><time>2026-04-11T10:35:21Z</time></trkpt><trkpt lat="40.36350510160848" lon="9.189809379022979"><ele>619.6666666666667</ele><time>2026-04-11T10:35:22Z</time></trkpt><trkpt lat="40.363512662435845" lon="9.190034505430237"><ele>623.3333333333334</ele><time>2026-04-11T10:35:23Z</time></trkpt><trkpt lat="40.3635120544765" lon="9.190267426773733"><ele>627.0</ele><time>2026-04-11T10:35:24Z</time></trkpt><trkpt lat="40.363517943622526" lon="9.190478469413417"><ele>627.0</ele><time>2026-04-11T10:35:25Z</time></trkpt><trkpt lat="40.363543788524886" lon="9.190659095937411"><ele>627.0</ele><time>2026-04-11T10:35:26Z</time></trkpt><trkpt lat="40.363620818911784" lon="9.190812173505588"><ele>627.0</ele><time>2026-04-11T10:35:27Z</time></trkpt><trkpt lat="40.36374532492333" lon="9.190939078581083"><ele>627.0</ele><time>2026-04-11T10:35:28Z</time></trkpt><trkpt lat="40.36388555438662" lon="9.191056958256906"><ele>627.0</ele><time>2026-04-11T10:35:29Z</time></trkpt><trkpt lat="40.36403026060375" lon="9.191206272938903"><ele>627.0</ele><time>2026-04-11T10:35:30Z</time></trkpt><trkpt lat="40.3641901084979" lon="9.191347523565867"><ele>627.0</ele><time>2026-04-11T10:35:31Z</time></trkpt><trkpt lat="40.36434737775749" lon="9.19148464908162"><ele>627.6666666666666</ele><time>2026-04-11T10:35:32Z</time></trkpt><trkpt lat="40.364506402092864" lon="9.191619536928979"><ele>628.3333333333333</ele><time>2026-04-11T10:35:33Z</time></trkpt><trkpt lat="40.36466742344371" lon="9.191755903168657"><ele>629.0</ele><time>2026-04-11T10:35:34Z</time></trkpt><trkpt lat="40.36482651017585" lon="9.191886008390853"><ele>629.0</ele><time>2026-04-11T10:35:35Z</time></trkpt><trkpt lat="40.364988380304965" lon="9.19200003542378"><ele>629.0</ele><time>2026-04-11T10:35:36Z</time></trkpt><trkpt lat="40.36512932419219" lon="9.192120374077385"><ele>629.0</ele><time>2026-04-11T10:35:37Z</time></trkpt><trkpt lat="40.36526284313458" lon="9.192224142737787"><ele>629.0</ele><time>2026-04-11T10:35:38Z</time></trkpt><trkpt lat="40.36540536899976" lon="9.19228252973861"><ele>629.0</ele><time>2026-04-11T10:35:39Z</time></trkpt><trkpt lat="40.365558641967525" lon="9.192295457147477"><ele>629.0</ele><time>2026-04-11T10:35:40Z</time></trkpt><trkpt lat="40.365698706758906" lon="9.192268979502423"><ele>629.0</ele><time>2026-04-11T10:35:41Z</time></trkpt><trkpt lat="40.36581467824105" lon="9.19231536415342"><ele>632.0</ele><time>2026-04-11T10:35:42Z</time></trkpt><trkpt lat="40.36591668428528" lon="9.192406667411035"><ele>635.0</ele><time>2026-04-11T10:35:43Z</time></trkpt><trkpt lat="40.36602787399365" lon="9.19253547711456"><ele>638.0</ele><time>2026-04-11T10:35:44Z</time></trkpt><trkpt lat="40.36615540371407" lon="9.192654184728715"><ele>641.0</ele><time>2026-04-11T10:35:45Z</time></trkpt><trkpt lat="40.36627442487338" lon="9.192769378667148"><ele>642.5</ele><time>2026-04-11T10:35:46Z</time></trkpt><trkpt lat="40.366398517012" lon="9.192857115944076"><ele>644.0</ele><time>2026-04-11T10:35:47Z</time></trkpt><trkpt lat="40.36652448463902" lon="9.192882914562974"><ele>645.5</ele><time>2026-04-11T10:35:48Z</time></trkpt><trkpt lat="40.366644127422276" lon="9.192853178593326"><ele>647.0</ele><time>2026-04-11T10:35:49Z</time></trkpt><trkpt lat="40.366740650277926" lon="9.19272827585686"><ele>647.0</ele><time>2026-04-11T10:35:50Z</time></trkpt><trkpt lat="40.36677870273733" lon="9.19255151654559"><ele>647.0</ele><time>2026-04-11T10:35:51Z</time></trkpt><trkpt lat="40.36679249307915" lon="9.192359636198088"><ele>647.0</ele><time>2026-04-11T10:35:52Z</time></trkpt><trkpt lat="40.36676665900593" lon="9.192148592881926"><ele>646.6666666666666</ele><time>2026-04-11T10:35:53Z</time></trkpt><trkpt lat="40.366712188073876" lon="9.19195111232856"><ele>646.3333333333334</ele><time>2026-04-11T10:35:54Z</time></trkpt><trkpt lat="40.36665018588346" lon="9.191750441212271"><ele>646.0</ele><time>2026-04-11T10:35:55Z</time></trkpt><trkpt lat="40.36662769570138" lon="9.19155376898824"><ele>644.75</ele><time>2026-04-11T10:35:56Z</time></trkpt><trkpt lat="40.366615668278385" lon="9.191370597992927"><ele>643.5</ele><time>2026-04-11T10:35:57Z</time></trkpt><trkpt lat="40.36669499348118" lon="9.191208234992732"><ele>642.25</ele><time>2026-04-11T10:35:58Z</time></trkpt><trkpt lat="40.36678851517879" lon="9.191046162265627"><ele>641.0</ele><time>2026-04-11T10:35:59Z</time></trkpt><trkpt lat="40.366911575659664" lon="9.190934888285625"><ele>641.0</ele><time>2026-04-11T10:36:00Z</time></trkpt><trkpt lat="40.367064147554004" lon="9.190837249790077"><ele>641.0</ele><time>2026-04-11T10:36:01Z</time></trkpt><trkpt lat="40.36721742514835" lon="9.190739222679445"><ele>641.0</ele><time>2026-04-11T10:36:02Z</time></trkpt><trkpt lat="40.367361044827994" lon="9.190658986398784"><ele>640.0</ele><time>2026-04-11T10:36:03Z</time></trkpt><trkpt lat="40.367512532290256" lon="9.190620466970646"><ele>639.0</ele><time>2026-04-11T10:36:04Z</time></trkpt><trkpt lat="40.36766999646804" lon="9.190607174289052"><ele>638.0</ele><time>2026-04-11T10:36:05Z</time></trkpt><trkpt lat="40.367826277157384" lon="9.19061509562918"><ele>638.0</ele><time>2026-04-11T10:36:06Z</time></trkpt><trkpt lat="40.36798489035091" lon="9.190656716659223"><ele>638.0</ele><time>2026-04-11T10:36:07Z</time></trkpt><trkpt lat="40.36816032278022" lon="9.190721463392094"><ele>638.0</ele><time>2026-04-11T10:36:08Z</time></trkpt><trkpt lat="40.368340822904926" lon="9.190792918949406"><ele>642.0</ele><time>2026-04-11T10:36:09Z</time></trkpt><trkpt lat="40.36851765625564" lon="9.190862922941685"><ele>646.0</ele><time>2026-04-11T10:36:10Z</time></trkpt><trkpt lat="40.36868676584866" lon="9.190928300329217"><ele>650.0</ele><time>2026-04-11T10:36:11Z</time></trkpt><trkpt lat="40.36883329635571" lon="9.191016926840408"><ele>650.3333333333333</ele><time>2026-04-11T10:36:12Z</time></trkpt><trkpt lat="40.3689708181529" lon="9.19112807699826"><ele>650.6666666666666</ele><time>2026-04-11T10:36:13Z</time></trkpt><trkpt lat="40.369115369033125" lon="9.191222340534077"><ele>651.0</ele><time>2026-04-11T10:36:14Z</time></trkpt><trkpt lat="40.36925577547439" lon="9.191305186364666"><ele>651.0</ele><time>2026-04-11T10:36:15Z</time></trkpt><trkpt lat="40.3694044333185" lon="9.191342980697884"><ele>651.0</ele><time>2026-04-11T10:36:16Z</time></trkpt><trkpt lat="40.36955822445422" lon="9.191323135458967"><ele>651.0</ele><time>2026-04-11T10:36:17Z</time></trkpt><trkpt lat="40.369718173721296" lon="9.191306105032334"><ele>649.3333333333334</ele><time>2026-04-11T10:36:18Z</time></trkpt><trkpt lat="40.36988650562623" lon="9.19127143708036"><ele>647.6666666666667</ele><time>2026-04-11T10:36:19Z</time></trkpt><trkpt lat="40.370059399654366" lon="9.191220327572237"><ele>646.0</ele><time>2026-04-11T10:36:20Z</time></trkpt><trkpt lat="40.37023422937137" lon="9.191143907459901"><ele>646.0</ele><time>2026-04-11T10:36:21Z</time></trkpt><trkpt lat="40.370400842086255" lon="9.19101988305758"><ele>646.0</ele><time>2026-04-11T10:36:22Z</time></trkpt><trkpt lat="40.37056915372517" lon="9.190926699176693"><ele>646.0</ele><time>2026-04-11T10:36:23Z</time></trkpt><trkpt lat="40.370731885208336" lon="9.190843788977203"><ele>645.3333333333334</ele><time>2026-04-11T10:36:24Z</time></trkpt><trkpt lat="40.370904240063496" lon="9.190798536286604"><ele>644.6666666666666</ele><time>2026-04-11T10:36:25Z</time></trkpt><trkpt lat="40.37108908113915" lon="9.190760337642228"><ele>644.0</ele><time>2026-04-11T10:36:26Z</time></trkpt><trkpt lat="40.371274289541596" lon="9.190725443160453"><ele>643.3333333333333</ele><time>2026-04-11T10:36:27Z</time></trkpt><trkpt lat="40.37145015939892" lon="9.190708940508275"><ele>642.6666666666666</ele><time>2026-04-11T10:36:28Z</time></trkpt><trkpt lat="40.37162035248626" lon="9.190749754916913"><ele>642.0</ele><time>2026-04-11T10:36:29Z</time></trkpt><trkpt lat="40.37178829481177" lon="9.190761174694526"><ele>642.0</ele><time>2026-04-11T10:36:30Z</time></trkpt><trkpt lat="40.37194399175312" lon="9.190761380938676"><ele>642.0</ele><time>2026-04-11T10:36:31Z</time></trkpt><trkpt lat="40.372085192430504" lon="9.190701738087247"><ele>642.0</ele><time>2026-04-11T10:36:32Z</time></trkpt><trkpt lat="40.37222314745165" lon="9.190613338901079"><ele>641.3333333333334</ele><time>2026-04-11T10:36:33Z</time></trkpt><trkpt lat="40.372314007942876" lon="9.190457935378841"><ele>640.6666666666667</ele><time>2026-04-11T10:36:34Z</time></trkpt><trkpt lat="40.372383287706455" lon="9.190282112591095"><ele>640.0</ele><time>2026-04-11T10:36:35Z</time></trkpt><trkpt lat="40.372461913163704" lon="9.190109831846003"><ele>640.0</ele><time>2026-04-11T10:36:36Z</time></trkpt><trkpt lat="40.37253064400836" lon="9.189931048433785"><ele>640.0</ele><time>2026-04-11T10:36:37Z</time></trkpt><trkpt lat="40.372599632560174" lon="9.18976481048717"><ele>640.0</ele><time>2026-04-11T10:36:38Z</time></trkpt><trkpt lat="40.372678639732094" lon="9.189612950093702"><ele>640.0</ele><time>2026-04-11T10:36:39Z</time></trkpt><trkpt lat="40.372786662985" lon="9.189491915461222"><ele>640.3333333333334</ele><time>2026-04-11T10:36:40Z</time></trkpt><trkpt lat="40.372920291512656" lon="9.18939478423473"><ele>640.6666666666666</ele><time>2026-04-11T10:36:41Z</time></trkpt><trkpt lat="40.37306302923796" lon="9.189300384460376"><ele>641.0</ele><time>2026-04-11T10:36:42Z</time></trkpt><trkpt lat="40.37321239566846" lon="9.18920734108118"><ele>641.0</ele><time>2026-04-11T10:36:43Z</time></trkpt><trkpt lat="40.373371096066535" lon="9.189111044733087"><ele>641.0</ele><time>2026-04-11T10:36:44Z</time></trkpt><trkpt lat="40.37353283946411" lon="9.189018003974294"><ele>641.0</ele><time>2026-04-11T10:36:45Z</time></trkpt><trkpt lat="40.373692243802" lon="9.188929474626724"><ele>640.3333333333333</ele><time>2026-04-11T10:36:46Z</time></trkpt><trkpt lat="40.37385270618944" lon="9.188875908188674"><ele>639.6666666666666</ele><time>2026-04-11T10:36:47Z</time></trkpt><trkpt lat="40.374028626124456" lon="9.188841589050607"><ele>639.0</ele><time>2026-04-11T10:36:48Z</time></trkpt><trkpt lat="40.37421061359438" lon="9.188813206981932"><ele>639.0</ele><time>2026-04-11T10:36:49Z</time></trkpt><trkpt lat="40.374394148423114" lon="9.188788822454223"><ele>639.0</ele><time>2026-04-11T10:36:50Z</time></trkpt><trkpt lat="40.3745693591135" lon="9.188765594286338"><ele>639.0</ele><time>2026-04-11T10:36:51Z</time></trkpt><trkpt lat="40.37473892782319" lon="9.188749035722392"><ele>641.0</ele><time>2026-04-11T10:36:52Z</time></trkpt><trkpt lat="40.37491145349624" lon="9.188765776861896"><ele>643.0</ele><time>2026-04-11T10:36:53Z</time></trkpt><trkpt lat="40.375090756414735" lon="9.188785591407775"><ele>645.0</ele><time>2026-04-11T10:36:54Z</time></trkpt><trkpt lat="40.37526472733346" lon="9.1888328481272"><ele>645.0</ele><time>2026-04-11T10:36:55Z</time></trkpt><trkpt lat="40.37542368992069" lon="9.188873814318551"><ele>645.0</ele><time>2026-04-11T10:36:56Z</time></trkpt><trkpt lat="40.37556998800153" lon="9.188897551019394"><ele>645.0</ele><time>2026-04-11T10:36:57Z</time></trkpt><trkpt lat="40.37570196835699" lon="9.188867632941573"><ele>645.0</ele><time>2026-04-11T10:36:58Z</time></trkpt><trkpt lat="40.37581743045343" lon="9.188781012484867"><ele>645.8</ele><time>2026-04-11T10:36:59Z</time></trkpt><trkpt lat="40.375923325426285" lon="9.188694498362016"><ele>646.6</ele><time>2026-04-11T10:37:00Z</time></trkpt><trkpt lat="40.376002871373345" lon="9.188600681050474"><ele>647.4000000000001</ele><time>2026-04-11T10:37:01Z</time></trkpt><trkpt lat="40.37606044739023" lon="9.188531535884795"><ele>648.2</ele><time>2026-04-11T10:37:02Z</time></trkpt><trkpt lat="40.3761346010949" lon="9.188442482051581"><ele>649.0</ele><time>2026-04-11T10:37:04Z</time></trkpt><trkpt lat="40.376016352035606" lon="9.188238571099525"><ele>648.3333333333334</ele><time>2026-04-11T10:37:08Z</time></trkpt><trkpt lat="40.37598518049642" lon="9.1881426630338"><ele>647.6666666666666</ele><time>2026-04-11T10:37:09Z</time></trkpt><trkpt lat="40.37575469571883" lon="9.187878757501613"><ele>647.0</ele><time>2026-04-11T10:37:11Z</time></trkpt><trkpt lat="40.37562769972484" lon="9.187746077137188"><ele>646.6666666666666</ele><time>2026-04-11T10:37:12Z</time></trkpt><trkpt lat="40.3755052673628" lon="9.187613299754664"><ele>646.3333333333334</ele><time>2026-04-11T10:37:13Z</time></trkpt><trkpt lat="40.37538065865785" lon="9.187461960832163"><ele>646.0</ele><time>2026-04-11T10:37:14Z</time></trkpt><trkpt lat="40.375260895725354" lon="9.18727704060437"><ele>644.0</ele><time>2026-04-11T10:37:15Z</time></trkpt><trkpt lat="40.375149200897155" lon="9.187077831496588"><ele>642.0</ele><time>2026-04-11T10:37:16Z</time></trkpt><trkpt lat="40.37504056126042" lon="9.186876572798111"><ele>640.0</ele><time>2026-04-11T10:37:17Z</time></trkpt><trkpt lat="40.37492189121989" lon="9.186660925648509"><ele>639.3333333333334</ele><time>2026-04-11T10:37:18Z</time></trkpt><trkpt lat="40.37479766840638" lon="9.186440046635752"><ele>638.6666666666666</ele><time>2026-04-11T10:37:19Z</time></trkpt><trkpt lat="40.37467763580595" lon="9.186231226674247"><ele>638.0</ele><time>2026-04-11T10:37:20Z</time></trkpt><trkpt lat="40.374582947700816" lon="9.186028831050862"><ele>638.0</ele><time>2026-04-11T10:37:21Z</time></trkpt><trkpt lat="40.37456131694217" lon="9.185819384958993"><ele>638.0</ele><time>2026-04-11T10:37:22Z</time></trkpt><trkpt lat="40.37453371393267" lon="9.185615740305087"><ele>638.0</ele><time>2026-04-11T10:37:23Z</time></trkpt><trkpt lat="40.37449125122496" lon="9.185413204935442"><ele>634.5</ele><time>2026-04-11T10:37:24Z</time></trkpt><trkpt lat="40.374430364210376" lon="9.185246953936725"><ele>631.0</ele><time>2026-04-11T10:37:25Z</time></trkpt><trkpt lat="40.374320609742185" lon="9.185179915392657"><ele>627.5</ele><time>2026-04-11T10:37:26Z</time></trkpt><trkpt lat="40.37421760061915" lon="9.18513084962243"><ele>624.0</ele><time>2026-04-11T10:37:27Z</time></trkpt><trkpt lat="40.374093218344754" lon="9.185131033069522"><ele>624.0</ele><time>2026-04-11T10:37:28Z</time></trkpt><trkpt lat="40.373960248334726" lon="9.18516113689476"><ele>624.0</ele><time>2026-04-11T10:37:29Z</time></trkpt><trkpt lat="40.373822985220315" lon="9.185154914923926"><ele>624.0</ele><time>2026-04-11T10:37:30Z</time></trkpt><trkpt lat="40.373727010263075" lon="9.185081169459606"><ele>624.0</ele><time>2026-04-11T10:37:31Z</time></trkpt><trkpt lat="40.37363895544089" lon="9.184958925099354"><ele>624.3333333333334</ele><time>2026-04-11T10:37:32Z</time></trkpt><trkpt lat="40.373532671331965" lon="9.184820104538614"><ele>624.6666666666667</ele><time>2026-04-11T10:37:33Z</time></trkpt><trkpt lat="40.37345408069625" lon="9.184651769388777"><ele>625.0</ele><time>2026-04-11T10:37:34Z</time></trkpt><trkpt lat="40.373439633848406" lon="9.18445032304108"><ele>625.0</ele><time>2026-04-11T10:37:35Z</time></trkpt><trkpt lat="40.373441806026605" lon="9.184239055154036"><ele>625.0</ele><time>2026-04-11T10:37:36Z</time></trkpt><trkpt lat="40.373442833416505" lon="9.184009822601094"><ele>625.0</ele><time>2026-04-11T10:37:37Z</time></trkpt><trkpt lat="40.37343318663296" lon="9.183780387566046"><ele>623.3333333333334</ele><time>2026-04-11T10:37:38Z</time></trkpt><trkpt lat="40.37343605003869" lon="9.183552056048512"><ele>621.6666666666666</ele><time>2026-04-11T10:37:39Z</time></trkpt><trkpt lat="40.37343755509663" lon="9.183336451487817"><ele>620.0</ele><time>2026-04-11T10:37:40Z</time></trkpt><trkpt lat="40.373436844700336" lon="9.183157905873472"><ele>617.25</ele><time>2026-04-11T10:37:41Z</time></trkpt><trkpt lat="40.37342258340151" lon="9.183001004326123"><ele>614.5</ele><time>2026-04-11T10:37:42Z</time></trkpt><trkpt lat="40.37337954002804" lon="9.182852503379372"><ele>611.75</ele><time>2026-04-11T10:37:43Z</time></trkpt><trkpt lat="40.37330035804795" lon="9.182714488717036"><ele>609.0</ele><time>2026-04-11T10:37:44Z</time></trkpt><trkpt lat="40.3731906112536" lon="9.182588834407024"><ele>609.0</ele><time>2026-04-11T10:37:45Z</time></trkpt><trkpt lat="40.373079463003606" lon="9.182461243015512"><ele>609.0</ele><time>2026-04-11T10:37:46Z</time></trkpt><trkpt lat="40.37300559606429" lon="9.182309414072492"><ele>609.0</ele><time>2026-04-11T10:37:47Z</time></trkpt><trkpt lat="40.37298096488121" lon="9.182106498403341"><ele>609.0</ele><time>2026-04-11T10:37:48Z</time></trkpt><trkpt lat="40.372942156658056" lon="9.181890284726522"><ele>612.3333333333334</ele><time>2026-04-11T10:37:49Z</time></trkpt><trkpt lat="40.37289222298593" lon="9.181672453068842"><ele>615.6666666666667</ele><time>2026-04-11T10:37:50Z</time></trkpt><trkpt lat="40.37286168106415" lon="9.18146460780082"><ele>619.0</ele><time>2026-04-11T10:37:51Z</time></trkpt><trkpt lat="40.372843862389225" lon="9.181270528523815"><ele>620.0</ele><time>2026-04-11T10:37:52Z</time></trkpt><trkpt lat="40.372888383126934" lon="9.18108546252207"><ele>621.0</ele><time>2026-04-11T10:37:53Z</time></trkpt><trkpt lat="40.37293147357368" lon="9.180889066668115"><ele>622.0</ele><time>2026-04-11T10:37:54Z</time></trkpt><trkpt lat="40.37294377648207" lon="9.180679784498109"><ele>622.0</ele><time>2026-04-11T10:37:55Z</time></trkpt><trkpt lat="40.372936283683316" lon="9.18048459625158"><ele>622.0</ele><time>2026-04-11T10:37:56Z</time></trkpt><trkpt lat="40.37290659651231" lon="9.180290219341325"><ele>622.0</ele><time>2026-04-11T10:37:57Z</time></trkpt><trkpt lat="40.372925905977944" lon="9.180113330612798"><ele>622.0</ele><time>2026-04-11T10:37:58Z</time></trkpt><trkpt lat="40.372986363137045" lon="9.179967236296868"><ele>617.3333333333334</ele><time>2026-04-11T10:37:59Z</time></trkpt><trkpt lat="40.37308134020586" lon="9.179834250963305"><ele>612.6666666666666</ele><time>2026-04-11T10:38:00Z</time></trkpt><trkpt lat="40.37320457493788" lon="9.179699825181132"><ele>608.0</ele><time>2026-04-11T10:38:01Z</time></trkpt><trkpt lat="40.37333722333817" lon="9.179565031294768"><ele>608.0</ele><time>2026-04-11T10:38:02Z</time></trkpt><trkpt lat="40.37347439019186" lon="9.179457178207528"><ele>608.0</ele><time>2026-04-11T10:38:03Z</time></trkpt><trkpt lat="40.373616014462826" lon="9.179416973493497"><ele>608.0</ele><time>2026-04-11T10:38:04Z</time></trkpt><trkpt lat="40.37377139066782" lon="9.179426194473018"><ele>602.5</ele><time>2026-04-11T10:38:05Z</time></trkpt><trkpt lat="40.37391473299217" lon="9.179405655173191"><ele>597.0</ele><time>2026-04-11T10:38:06Z</time></trkpt><trkpt lat="40.37405642597837" lon="9.179365417121591"><ele>591.5</ele><time>2026-04-11T10:38:07Z</time></trkpt><trkpt lat="40.37419021790309" lon="9.179267800298565"><ele>586.0</ele><time>2026-04-11T10:38:08Z</time></trkpt><trkpt lat="40.37429876406724" lon="9.179131857421718"><ele>591.6666666666667</ele><time>2026-04-11T10:38:09Z</time></trkpt><trkpt lat="40.3743852417797" lon="9.17894365218311"><ele>597.3333333333334</ele><time>2026-04-11T10:38:10Z</time></trkpt><trkpt lat="40.374477260614185" lon="9.178747986872422"><ele>603.0</ele><time>2026-04-11T10:38:11Z</time></trkpt><trkpt lat="40.37457458979535" lon="9.178558979646468"><ele>603.0</ele><time>2026-04-11T10:38:12Z</time></trkpt><trkpt lat="40.374682549864225" lon="9.178373178250865"><ele>603.0</ele><time>2026-04-11T10:38:13Z</time></trkpt><trkpt lat="40.37478470376971" lon="9.178185359017695"><ele>603.0</ele><time>2026-04-11T10:38:14Z</time></trkpt><trkpt lat="40.37486743046277" lon="9.177991872346533"><ele>598.25</ele><time>2026-04-11T10:38:15Z</time></trkpt><trkpt lat="40.374938428381256" lon="9.17781551358883"><ele>593.5</ele><time>2026-04-11T10:38:16Z</time></trkpt><trkpt lat="40.37504336535851" lon="9.177690695989787"><ele>588.75</ele><time>2026-04-11T10:38:17Z</time></trkpt><trkpt lat="40.3751598069576" lon="9.177587100342086"><ele>584.0</ele><time>2026-04-11T10:38:18Z</time></trkpt><trkpt lat="40.37530479305687" lon="9.177527813313095"><ele>584.0</ele><time>2026-04-11T10:38:19Z</time></trkpt><trkpt lat="40.37547081603392" lon="9.177477253791526"><ele>584.0</ele><time>2026-04-11T10:38:20Z</time></trkpt><trkpt lat="40.37563527081384" lon="9.177413555041689"><ele>584.0</ele><time>2026-04-11T10:38:21Z</time></trkpt><trkpt lat="40.37579905744433" lon="9.177426091249805"><ele>578.6666666666666</ele><time>2026-04-11T10:38:22Z</time></trkpt><trkpt lat="40.37597671693603" lon="9.177460837135436"><ele>573.3333333333334</ele><time>2026-04-11T10:38:23Z</time></trkpt><trkpt lat="40.37617133618151" lon="9.177484421712064"><ele>568.0</ele><time>2026-04-11T10:38:24Z</time></trkpt><trkpt lat="40.3763590644905" lon="9.177532218027569"><ele>564.6666666666667</ele><time>2026-04-11T10:38:25Z</time></trkpt><trkpt lat="40.37652914818485" lon="9.177576122417056"><ele>561.3333333333334</ele><time>2026-04-11T10:38:26Z</time></trkpt><trkpt lat="40.37667409172758" lon="9.17760849381371"><ele>558.0</ele><time>2026-04-11T10:38:27Z</time></trkpt><trkpt lat="40.376809312957015" lon="9.177617506483575"><ele>558.0</ele><time>2026-04-11T10:38:28Z</time></trkpt><trkpt lat="40.37694007190958" lon="9.177579703462278"><ele>558.0</ele><time>2026-04-11T10:38:29Z</time></trkpt><trkpt lat="40.37705870449372" lon="9.177476048159987"><ele>558.0</ele><time>2026-04-11T10:38:30Z</time></trkpt><trkpt lat="40.377159293519206" lon="9.177309467288294"><ele>558.0</ele><time>2026-04-11T10:38:31Z</time></trkpt><trkpt lat="40.37725053731826" lon="9.177109675692495"><ele>556.0</ele><time>2026-04-11T10:38:32Z</time></trkpt><trkpt lat="40.37735229944195" lon="9.176905157886276"><ele>554.0</ele><time>2026-04-11T10:38:33Z</time></trkpt><trkpt lat="40.37746429756617" lon="9.176706738174587"><ele>552.0</ele><time>2026-04-11T10:38:34Z</time></trkpt><trkpt lat="40.37759213805423" lon="9.176527352306044"><ele>555.6666666666666</ele><time>2026-04-11T10:38:35Z</time></trkpt><trkpt lat="40.37770990478317" lon="9.176384987341573"><ele>559.3333333333333</ele><time>2026-04-11T10:38:36Z</time></trkpt><trkpt lat="40.377842298868984" lon="9.176276504552378"><ele>563.0</ele><time>2026-04-11T10:38:37Z</time></trkpt><trkpt lat="40.37800001558142" lon="9.176203367333361"><ele>559.0</ele><time>2026-04-11T10:38:38Z</time></trkpt><trkpt lat="40.37814819725407" lon="9.176135051030306"><ele>555.0</ele><time>2026-04-11T10:38:39Z</time></trkpt><trkpt lat="40.378278016848625" lon="9.176086484515697"><ele>551.0</ele><time>2026-04-11T10:38:40Z</time></trkpt><trkpt lat="40.378381854115055" lon="9.175976362591172"><ele>547.0</ele><time>2026-04-11T10:38:41Z</time></trkpt><trkpt lat="40.378454752081005" lon="9.175803804349746"><ele>546.3333333333334</ele><time>2026-04-11T10:38:42Z</time></trkpt><trkpt lat="40.37849268041185" lon="9.17560265270184"><ele>545.6666666666666</ele><time>2026-04-11T10:38:43Z</time></trkpt><trkpt lat="40.37848655610502" lon="9.17540660863695"><ele>545.0</ele><time>2026-04-11T10:38:44Z</time></trkpt><trkpt lat="40.37843713046746" lon="9.175218477138792"><ele>545.0</ele><time>2026-04-11T10:38:45Z</time></trkpt><trkpt lat="40.37834629864296" lon="9.17503721687544"><ele>545.0</ele><time>2026-04-11T10:38:46Z</time></trkpt><trkpt lat="40.378240954445076" lon="9.174878876217926"><ele>545.0</ele><time>2026-04-11T10:38:47Z</time></trkpt><trkpt lat="40.378121766963325" lon="9.17475503578044"><ele>540.0</ele><time>2026-04-11T10:38:48Z</time></trkpt><trkpt lat="40.37797057541663" lon="9.174668783691432"><ele>535.0</ele><time>2026-04-11T10:38:49Z</time></trkpt><trkpt lat="40.377791775786676" lon="9.174625557579317"><ele>530.0</ele><time>2026-04-11T10:38:50Z</time></trkpt><trkpt lat="40.37760573373778" lon="9.174598844818467"><ele>530.0</ele><time>2026-04-11T10:38:51Z</time></trkpt><trkpt lat="40.377417865370354" lon="9.174551397829248"><ele>530.0</ele><time>2026-04-11T10:38:52Z</time></trkpt><trkpt lat="40.377226008160186" lon="9.174492045493915"><ele>530.0</ele><time>2026-04-11T10:38:53Z</time></trkpt><trkpt lat="40.37703649847614" lon="9.174418091459547"><ele>532.3333333333333</ele><time>2026-04-11T10:38:54Z</time></trkpt><trkpt lat="40.37684655880008" lon="9.174324157183753"><ele>534.6666666666666</ele><time>2026-04-11T10:38:55Z</time></trkpt><trkpt lat="40.37666180461246" lon="9.174205487856236"><ele>537.0</ele><time>2026-04-11T10:38:56Z</time></trkpt><trkpt lat="40.3764765073673" lon="9.174074706412894"><ele>532.6666666666666</ele><time>2026-04-11T10:38:57Z</time></trkpt><trkpt lat="40.37628508103124" lon="9.173941267623709"><ele>528.3333333333333</ele><time>2026-04-11T10:38:58Z</time></trkpt><trkpt lat="40.37608927484169" lon="9.173813318196032"><ele>524.0</ele><time>2026-04-11T10:38:59Z</time></trkpt><trkpt lat="40.37590197572625" lon="9.173685174341331"><ele>524.0</ele><time>2026-04-11T10:39:00Z</time></trkpt><trkpt lat="40.37572910801043" lon="9.1735539616497"><ele>524.0</ele><time>2026-04-11T10:39:01Z</time></trkpt><trkpt lat="40.37556950086796" lon="9.173421516409832"><ele>524.0</ele><time>2026-04-11T10:39:02Z</time></trkpt><trkpt lat="40.37544298260207" lon="9.173247586240645"><ele>522.6666666666666</ele><time>2026-04-11T10:39:03Z</time></trkpt><trkpt lat="40.37530891161218" lon="9.173067340815933"><ele>521.3333333333334</ele><time>2026-04-11T10:39:04Z</time></trkpt><trkpt lat="40.375160558465005" lon="9.172885460018595"><ele>520.0</ele><time>2026-04-11T10:39:05Z</time></trkpt><trkpt lat="40.375015373151925" lon="9.172687051005974"><ele>520.0</ele><time>2026-04-11T10:39:06Z</time></trkpt><trkpt lat="40.37486389680025" lon="9.172488946920932"><ele>520.0</ele><time>2026-04-11T10:39:07Z</time></trkpt><trkpt lat="40.37471455397937" lon="9.17228675645799"><ele>520.0</ele><time>2026-04-11T10:39:08Z</time></trkpt><trkpt lat="40.37457797030455" lon="9.172090127560503"><ele>522.3333333333334</ele><time>2026-04-11T10:39:09Z</time></trkpt><trkpt lat="40.37445284570475" lon="9.171917566728304"><ele>524.6666666666666</ele><time>2026-04-11T10:39:10Z</time></trkpt><trkpt lat="40.374353800259506" lon="9.171762950445805"><ele>527.0</ele><time>2026-04-11T10:39:11Z</time></trkpt><trkpt lat="40.37431649095994" lon="9.171582128593592"><ele>526.0</ele><time>2026-04-11T10:39:12Z</time></trkpt><trkpt lat="40.37429429843836" lon="9.171393715386676"><ele>525.0</ele><time>2026-04-11T10:39:13Z</time></trkpt><trkpt lat="40.374301374843895" lon="9.171194852635214"><ele>524.0</ele><time>2026-04-11T10:39:14Z</time></trkpt><trkpt lat="40.374338292853096" lon="9.17100859879619"><ele>523.0</ele><time>2026-04-11T10:39:15Z</time></trkpt><trkpt lat="40.37440480667955" lon="9.170844356495051"><ele>523.0</ele><time>2026-04-11T10:39:16Z</time></trkpt><trkpt lat="40.37448804073613" lon="9.170712157227689"><ele>523.0</ele><time>2026-04-11T10:39:17Z</time></trkpt><trkpt lat="40.37458777284457" lon="9.170632631876577"><ele>523.0</ele><time>2026-04-11T10:39:18Z</time></trkpt><trkpt lat="40.37471593371889" lon="9.17059904453186"><ele>523.0</ele><time>2026-04-11T10:39:19Z</time></trkpt><trkpt lat="40.37486803101074" lon="9.170605381955891"><ele>519.6666666666667</ele><time>2026-04-11T10:39:20Z</time></trkpt><trkpt lat="40.37503949219367" lon="9.170598933493434"><ele>516.3333333333334</ele><time>2026-04-11T10:39:21Z</time></trkpt><trkpt lat="40.37521374746306" lon="9.170647800232532"><ele>513.0</ele><time>2026-04-11T10:39:22Z</time></trkpt><trkpt lat="40.375366231484044" lon="9.170723282922797"><ele>513.0</ele><time>2026-04-11T10:39:23Z</time></trkpt><trkpt lat="40.375490514620154" lon="9.170841783633964"><ele>513.0</ele><time>2026-04-11T10:39:24Z</time></trkpt><trkpt lat="40.37561475164003" lon="9.17098994698358"><ele>513.0</ele><time>2026-04-11T10:39:25Z</time></trkpt><trkpt lat="40.37576382617347" lon="9.171111280479185"><ele>513.3333333333334</ele><time>2026-04-11T10:39:26Z</time></trkpt><trkpt lat="40.37593913076414" lon="9.171226664396118"><ele>513.6666666666667</ele><time>2026-04-11T10:39:27Z</time></trkpt><trkpt lat="40.37613099336947" lon="9.17130398823847"><ele>514.0</ele><time>2026-04-11T10:39:28Z</time></trkpt><trkpt lat="40.376323386685776" lon="9.171404425902445"><ele>513.0</ele><time>2026-04-11T10:39:29Z</time></trkpt><trkpt lat="40.3765151570413" lon="9.171499646995956"><ele>512.0</ele><time>2026-04-11T10:39:30Z</time></trkpt><trkpt lat="40.376693434375646" lon="9.171570961350051"><ele>511.0</ele><time>2026-04-11T10:39:31Z</time></trkpt><trkpt lat="40.37685117440136" lon="9.171643861366295"><ele>508.33333333333337</ele><time>2026-04-11T10:39:32Z</time></trkpt><trkpt lat="40.377002104429835" lon="9.17167302048458"><ele>505.66666666666663</ele><time>2026-04-11T10:39:33Z</time></trkpt><trkpt lat="40.377148342752044" lon="9.17164296022829"><ele>503.0</ele><time>2026-04-11T10:39:34Z</time></trkpt><trkpt lat="40.37727773519602" lon="9.171545368922605"><ele>500.75</ele><time>2026-04-11T10:39:35Z</time></trkpt><trkpt lat="40.37739773775699" lon="9.171404337309731"><ele>498.5</ele><time>2026-04-11T10:39:36Z</time></trkpt><trkpt lat="40.37751052428964" lon="9.171284913276486"><ele>496.25</ele><time>2026-04-11T10:39:37Z</time></trkpt><trkpt lat="40.37760268634179" lon="9.171170262483864"><ele>494.0</ele><time>2026-04-11T10:39:38Z</time></trkpt><trkpt lat="40.377664655967834" lon="9.1710190549821"><ele>494.0</ele><time>2026-04-11T10:39:39Z</time></trkpt><trkpt lat="40.3776845613865" lon="9.170833504965994"><ele>494.0</ele><time>2026-04-11T10:39:40Z</time></trkpt><trkpt lat="40.377656732602546" lon="9.170619073682461"><ele>494.0</ele><time>2026-04-11T10:39:41Z</time></trkpt><trkpt lat="40.37763633886919" lon="9.170409872182448"><ele>494.0</ele><time>2026-04-11T10:39:42Z</time></trkpt><trkpt lat="40.37763048169035" lon="9.170181808045056"><ele>494.0</ele><time>2026-04-11T10:39:43Z</time></trkpt><trkpt lat="40.37764068091106" lon="9.16994548657799"><ele>494.0</ele><time>2026-04-11T10:39:44Z</time></trkpt><trkpt lat="40.37766345738972" lon="9.16969855817412"><ele>494.0</ele><time>2026-04-11T10:39:45Z</time></trkpt><trkpt lat="40.37769800623524" lon="9.16943896840384"><ele>494.0</ele><time>2026-04-11T10:39:46Z</time></trkpt><trkpt lat="40.377736297543805" lon="9.169167453881974"><ele>494.0</ele><time>2026-04-11T10:39:47Z</time></trkpt><trkpt lat="40.37777101641199" lon="9.168892825442807"><ele>493.66666666666663</ele><time>2026-04-11T10:39:48Z</time></trkpt><trkpt lat="40.37780446247867" lon="9.16861722965127"><ele>493.33333333333337</ele><time>2026-04-11T10:39:49Z</time></trkpt><trkpt lat="40.377839273663504" lon="9.168336808789572"><ele>493.0</ele><time>2026-04-11T10:39:50Z</time></trkpt><trkpt lat="40.37788055625232" lon="9.168083062028874"><ele>492.33333333333337</ele><time>2026-04-11T10:39:51Z</time></trkpt><trkpt lat="40.37791750986676" lon="9.16780743252159"><ele>491.66666666666663</ele><time>2026-04-11T10:39:52Z</time></trkpt><trkpt lat="40.377956095952825" lon="9.167541566137636"><ele>491.0</ele><time>2026-04-11T10:39:53Z</time></trkpt><trkpt lat="40.377988294512924" lon="9.167290171299257"><ele>490.3333333333333</ele><time>2026-04-11T10:39:54Z</time></trkpt><trkpt lat="40.378016790973746" lon="9.167059902283839"><ele>489.66666666666663</ele><time>2026-04-11T10:39:55Z</time></trkpt><trkpt lat="40.37803905882546" lon="9.166842245564798"><ele>489.0</ele><time>2026-04-11T10:39:56Z</time></trkpt><trkpt lat="40.37804867335781" lon="9.166623000006096"><ele>486.66666666666663</ele><time>2026-04-11T10:39:57Z</time></trkpt><trkpt lat="40.378023729165314" lon="9.16638463350851"><ele>484.3333333333333</ele><time>2026-04-11T10:39:58Z</time></trkpt><trkpt lat="40.37798345454391" lon="9.166135119033981"><ele>482.0</ele><time>2026-04-11T10:39:59Z</time></trkpt><trkpt lat="40.377928100784175" lon="9.165881196119372"><ele>480.3333333333333</ele><time>2026-04-11T10:40:00Z</time></trkpt><trkpt lat="40.37785624284085" lon="9.165613527027269"><ele>478.66666666666663</ele><time>2026-04-11T10:40:01Z</time></trkpt><trkpt lat="40.37778604209296" lon="9.165333790384476"><ele>477.0</ele><time>2026-04-11T10:40:02Z</time></trkpt><trkpt lat="40.37771994013913" lon="9.165048810986042"><ele>476.5</ele><time>2026-04-11T10:40:03Z</time></trkpt><trkpt lat="40.37765529153491" lon="9.164760694554396"><ele>476.0</ele><time>2026-04-11T10:40:04Z</time></trkpt><trkpt lat="40.37759332115009" lon="9.164476531332195"><ele>476.0</ele><time>2026-04-11T10:40:05Z</time></trkpt><trkpt lat="40.37753476209477" lon="9.164208861559098"><ele>476.0</ele><time>2026-04-11T10:40:06Z</time></trkpt><trkpt lat="40.377479551116174" lon="9.16395813231805"><ele>476.0</ele><time>2026-04-11T10:40:07Z</time></trkpt><trkpt lat="40.3774444375491" lon="9.163706035867893"><ele>475.3333333333333</ele><time>2026-04-11T10:40:08Z</time></trkpt><trkpt lat="40.377403707731446" lon="9.163471277525527"><ele>474.66666666666663</ele><time>2026-04-11T10:40:09Z</time></trkpt><trkpt lat="40.37739144431919" lon="9.1632408709351"><ele>474.0</ele><time>2026-04-11T10:40:10Z</time></trkpt><trkpt lat="40.37740521971701" lon="9.16301798345901"><ele>472.66666666666663</ele><time>2026-04-11T10:40:11Z</time></trkpt><trkpt lat="40.37742741475624" lon="9.162800407183575"><ele>471.3333333333333</ele><time>2026-04-11T10:40:12Z</time></trkpt><trkpt lat="40.37744949729002" lon="9.162582663374355"><ele>470.0</ele><time>2026-04-11T10:40:13Z</time></trkpt><trkpt lat="40.37747155642756" lon="9.162372911367072"><ele>469.66666666666663</ele><time>2026-04-11T10:40:14Z</time></trkpt><trkpt lat="40.37749359161028" lon="9.162163386806691"><ele>469.33333333333337</ele><time>2026-04-11T10:40:15Z</time></trkpt><trkpt lat="40.377515857857794" lon="9.161951665417245"><ele>469.0</ele><time>2026-04-11T10:40:16Z</time></trkpt><trkpt lat="40.37753925148697" lon="9.161740338480051"><ele>469.0</ele><time>2026-04-11T10:40:17Z</time></trkpt><trkpt lat="40.37757039692305" lon="9.161540459802236"><ele>469.0</ele><time>2026-04-11T10:40:18Z</time></trkpt><trkpt lat="40.37763069724267" lon="9.161378863550949"><ele>469.0</ele><time>2026-04-11T10:40:19Z</time></trkpt><trkpt lat="40.377702199230974" lon="9.16125692192366"><ele>469.0</ele><time>2026-04-11T10:40:20Z</time></trkpt><trkpt lat="40.377760803307055" lon="9.161207746823564"><ele>469.0</ele><time>2026-04-11T10:40:21Z</time></trkpt><trkpt lat="40.37785938794824" lon="9.161120184095559"><ele>469.0</ele><time>2026-04-11T10:40:23Z</time></trkpt><trkpt lat="40.377804578446266" lon="9.160842229885963"><ele>469.0</ele><time>2026-04-11T10:40:25Z</time></trkpt><trkpt lat="40.37775496452639" lon="9.160709288033335"><ele>469.6666666666667</ele><time>2026-04-11T10:40:26Z</time></trkpt><trkpt lat="40.377701369394224" lon="9.160545470246461"><ele>470.33333333333337</ele><time>2026-04-11T10:40:27Z</time></trkpt><trkpt lat="40.377649615811194" lon="9.16034967787795"><ele>471.0</ele><time>2026-04-11T10:40:28Z</time></trkpt><trkpt lat="40.37762081147166" lon="9.160133889819878"><ele>471.0</ele><time>2026-04-11T10:40:29Z</time></trkpt><trkpt lat="40.377559224649026" lon="9.159922750919671"><ele>471.0</ele><time>2026-04-11T10:40:30Z</time></trkpt><trkpt lat="40.37751312088429" lon="9.159690014289184"><ele>471.0</ele><time>2026-04-11T10:40:31Z</time></trkpt><trkpt lat="40.377463278233634" lon="9.159459245165863"><ele>473.0</ele><time>2026-04-11T10:40:32Z</time></trkpt><trkpt lat="40.377400986647636" lon="9.159229018196205"><ele>475.0</ele><time>2026-04-11T10:40:33Z</time></trkpt><trkpt lat="40.37731229821265" lon="9.15899479106876"><ele>477.0</ele><time>2026-04-11T10:40:34Z</time></trkpt><trkpt lat="40.37720268485403" lon="9.158760328463606"><ele>477.33333333333337</ele><time>2026-04-11T10:40:35Z</time></trkpt><trkpt lat="40.3770990993635" lon="9.158536317631272"><ele>477.6666666666667</ele><time>2026-04-11T10:40:36Z</time></trkpt><trkpt lat="40.37700317414735" lon="9.158310663897854"><ele>478.0</ele><time>2026-04-11T10:40:37Z</time></trkpt><trkpt lat="40.37690306636715" lon="9.158079328663078"><ele>479.33333333333337</ele><time>2026-04-11T10:40:38Z</time></trkpt><trkpt lat="40.376800025422575" lon="9.157846139109797"><ele>480.66666666666663</ele><time>2026-04-11T10:40:39Z</time></trkpt><trkpt lat="40.37669632801422" lon="9.157607270236271"><ele>482.0</ele><time>2026-04-11T10:40:40Z</time></trkpt><trkpt lat="40.376589719642524" lon="9.157364108582854"><ele>483.3333333333333</ele><time>2026-04-11T10:40:41Z</time></trkpt><trkpt lat="40.37648908257026" lon="9.157130446983869"><ele>484.66666666666663</ele><time>2026-04-11T10:40:42Z</time></trkpt><trkpt lat="40.37639076200135" lon="9.156894264821844"><ele>486.0</ele><time>2026-04-11T10:40:43Z</time></trkpt><trkpt lat="40.37628928223516" lon="9.156655602731492"><ele>488.0</ele><time>2026-04-11T10:40:44Z</time></trkpt><trkpt lat="40.37618333399789" lon="9.156412459327449"><ele>490.0</ele><time>2026-04-11T10:40:45Z</time></trkpt><trkpt lat="40.37606701818501" lon="9.15616528820835"><ele>492.0</ele><time>2026-04-11T10:40:46Z</time></trkpt><trkpt lat="40.375945910440876" lon="9.155924877219144"><ele>496.0</ele><time>2026-04-11T10:40:47Z</time></trkpt><trkpt lat="40.37581336031803" lon="9.155686475563984"><ele>500.0</ele><time>2026-04-11T10:40:48Z</time></trkpt><trkpt lat="40.37568063756601" lon="9.155447803980895"><ele>500.0</ele><time>2026-04-11T10:40:49Z</time></trkpt><trkpt lat="40.37555712661703" lon="9.155213422994573"><ele>500.0</ele><time>2026-04-11T10:40:50Z</time></trkpt><trkpt lat="40.37543796375327" lon="9.15498553537446"><ele>500.0</ele><time>2026-04-11T10:40:51Z</time></trkpt><trkpt lat="40.3753196467316" lon="9.154765081438034"><ele>502.0</ele><time>2026-04-11T10:40:52Z</time></trkpt><trkpt lat="40.37519993048793" lon="9.154545404711037"><ele>504.0</ele><time>2026-04-11T10:40:53Z</time></trkpt><trkpt lat="40.3750764208715" lon="9.154320913982524"><ele>506.0</ele><time>2026-04-11T10:40:54Z</time></trkpt><trkpt lat="40.374952160813656" lon="9.15409062560932"><ele>506.0</ele><time>2026-04-11T10:40:55Z</time></trkpt><trkpt lat="40.374827282354616" lon="9.153855558055907"><ele>506.0</ele><time>2026-04-11T10:40:56Z</time></trkpt><trkpt lat="40.37470607217331" lon="9.153615116802774"><ele>506.0</ele><time>2026-04-11T10:40:57Z</time></trkpt><trkpt lat="40.37458744336916" lon="9.153374415965132"><ele>504.0</ele><time>2026-04-11T10:40:58Z</time></trkpt><trkpt lat="40.37446870973524" lon="9.153134211032048"><ele>502.0</ele><time>2026-04-11T10:40:59Z</time></trkpt><trkpt lat="40.374355493475015" lon="9.152911063740653"><ele>500.0</ele><time>2026-04-11T10:41:00Z</time></trkpt><trkpt lat="40.374251549194334" lon="9.15270622042628"><ele>500.0</ele><time>2026-04-11T10:41:01Z</time></trkpt><trkpt lat="40.37415704605272" lon="9.152516184177893"><ele>500.0</ele><time>2026-04-11T10:41:02Z</time></trkpt><trkpt lat="40.374067131868976" lon="9.15232383653625"><ele>500.0</ele><time>2026-04-11T10:41:03Z</time></trkpt><trkpt lat="40.37400449565053" lon="9.152102630944224"><ele>499.3333333333333</ele><time>2026-04-11T10:41:04Z</time></trkpt><trkpt lat="40.37392030153719" lon="9.151882350322534"><ele>498.66666666666663</ele><time>2026-04-11T10:41:05Z</time></trkpt><trkpt lat="40.37385344434559" lon="9.151643656805282"><ele>498.0</ele><time>2026-04-11T10:41:06Z</time></trkpt><trkpt lat="40.37378304635094" lon="9.151403121529205"><ele>502.0</ele><time>2026-04-11T10:41:07Z</time></trkpt><trkpt lat="40.373714988077566" lon="9.151160298086506"><ele>506.0</ele><time>2026-04-11T10:41:08Z</time></trkpt><trkpt lat="40.37364978301049" lon="9.150924576339715"><ele>510.0</ele><time>2026-04-11T10:41:09Z</time></trkpt><trkpt lat="40.37358574622522" lon="9.15068778937234"><ele>510.66666666666663</ele><time>2026-04-11T10:41:10Z</time></trkpt><trkpt lat="40.37351883227897" lon="9.150444603453797"><ele>511.3333333333333</ele><time>2026-04-11T10:41:11Z</time></trkpt><trkpt lat="40.373450980562524" lon="9.150196555209993"><ele>512.0</ele><time>2026-04-11T10:41:12Z</time></trkpt><trkpt lat="40.373379298369485" lon="9.149944689988011"><ele>512.3333333333333</ele><time>2026-04-11T10:41:13Z</time></trkpt><trkpt lat="40.37331123702348" lon="9.149694690669547"><ele>512.6666666666666</ele><time>2026-04-11T10:41:14Z</time></trkpt><trkpt lat="40.37324344466918" lon="9.149459636676593"><ele>513.0</ele><time>2026-04-11T10:41:15Z</time></trkpt><trkpt lat="40.373182080368" lon="9.149231480003671"><ele>514.0</ele><time>2026-04-11T10:41:16Z</time></trkpt><trkpt lat="40.3731278408394" lon="9.149018601822544"><ele>515.0</ele><time>2026-04-11T10:41:17Z</time></trkpt><trkpt lat="40.37308833967009" lon="9.148828204010332"><ele>516.0</ele><time>2026-04-11T10:41:18Z</time></trkpt><trkpt lat="40.37309931244657" lon="9.148664757607733"><ele>517.0</ele><time>2026-04-11T10:41:19Z</time></trkpt><trkpt lat="40.37311336859986" lon="9.148511927895068"><ele>517.0</ele><time>2026-04-11T10:41:20Z</time></trkpt><trkpt lat="40.373209956288825" lon="9.148401967272383"><ele>517.0</ele><time>2026-04-11T10:41:21Z</time></trkpt><trkpt lat="40.37330001029355" lon="9.148316010132058"><ele>517.0</ele><time>2026-04-11T10:41:22Z</time></trkpt><trkpt lat="40.373401912347305" lon="9.148261749444698"><ele>517.0</ele><time>2026-04-11T10:41:23Z</time></trkpt><trkpt lat="40.37352594564161" lon="9.148244904424134"><ele>517.0</ele><time>2026-04-11T10:41:24Z</time></trkpt><trkpt lat="40.37366015468598" lon="9.148263756198686"><ele>517.0</ele><time>2026-04-11T10:41:25Z</time></trkpt><trkpt lat="40.37378003290981" lon="9.148342672757526"><ele>517.0</ele><time>2026-04-11T10:41:26Z</time></trkpt><trkpt lat="40.37389313539909" lon="9.148471217206927"><ele>517.0</ele><time>2026-04-11T10:41:27Z</time></trkpt><trkpt lat="40.37402555664077" lon="9.148600755439809"><ele>517.3333333333334</ele><time>2026-04-11T10:41:28Z</time></trkpt><trkpt lat="40.37414606086743" lon="9.148764930963127"><ele>517.6666666666666</ele><time>2026-04-11T10:41:29Z</time></trkpt><trkpt lat="40.3742750701453" lon="9.148927516888104"><ele>518.0</ele><time>2026-04-11T10:41:30Z</time></trkpt><trkpt lat="40.374398326079" lon="9.149084157106072"><ele>518.0</ele><time>2026-04-11T10:41:31Z</time></trkpt><trkpt lat="40.37451472577078" lon="9.149221476959477"><ele>518.0</ele><time>2026-04-11T10:41:32Z</time></trkpt><trkpt lat="40.37463753619136" lon="9.149331105764867"><ele>518.0</ele><time>2026-04-11T10:41:33Z</time></trkpt><trkpt lat="40.37477822043358" lon="9.149399369970766"><ele>522.0</ele><time>2026-04-11T10:41:34Z</time></trkpt><trkpt lat="40.37492902739321" lon="9.149414135360734"><ele>526.0</ele><time>2026-04-11T10:41:35Z</time></trkpt><trkpt lat="40.375086571899" lon="9.149384556353784"><ele>530.0</ele><time>2026-04-11T10:41:36Z</time></trkpt><trkpt lat="40.37524779697682" lon="9.149295183403915"><ele>530.0</ele><time>2026-04-11T10:41:37Z</time></trkpt><trkpt lat="40.375408158160774" lon="9.149195531937792"><ele>530.0</ele><time>2026-04-11T10:41:38Z</time></trkpt><trkpt lat="40.375583526983554" lon="9.149130090135573"><ele>530.0</ele><time>2026-04-11T10:41:39Z</time></trkpt><trkpt lat="40.375755198783814" lon="9.149029569838477"><ele>532.3333333333333</ele><time>2026-04-11T10:41:40Z</time></trkpt><trkpt lat="40.375941263761604" lon="9.148950381340198"><ele>534.6666666666666</ele><time>2026-04-11T10:41:41Z</time></trkpt><trkpt lat="40.376120304090975" lon="9.1488640354215"><ele>537.0</ele><time>2026-04-11T10:41:42Z</time></trkpt><trkpt lat="40.376281807354665" lon="9.148789508146862"><ele>535.0</ele><time>2026-04-11T10:41:43Z</time></trkpt><trkpt lat="40.376420596138544" lon="9.148717892586264"><ele>533.0</ele><time>2026-04-11T10:41:44Z</time></trkpt><trkpt lat="40.37654031878176" lon="9.148619342676128"><ele>531.0</ele><time>2026-04-11T10:41:45Z</time></trkpt><trkpt lat="40.37665114307851" lon="9.148475152395545"><ele>529.0</ele><time>2026-04-11T10:41:46Z</time></trkpt><trkpt lat="40.37674004336237" lon="9.148291760904689"><ele>529.0</ele><time>2026-04-11T10:41:47Z</time></trkpt><trkpt lat="40.3767912013269" lon="9.148084721541037"><ele>529.0</ele><time>2026-04-11T10:41:48Z</time></trkpt><trkpt lat="40.376787529232935" lon="9.147869512451082"><ele>529.0</ele><time>2026-04-11T10:41:49Z</time></trkpt><trkpt lat="40.376740005449676" lon="9.14764251849333"><ele>529.0</ele><time>2026-04-11T10:41:50Z</time></trkpt><trkpt lat="40.376663047972876" lon="9.147407910509523"><ele>529.0</ele><time>2026-04-11T10:41:51Z</time></trkpt><trkpt lat="40.37657642759136" lon="9.147170238747849"><ele>529.0</ele><time>2026-04-11T10:41:52Z</time></trkpt><trkpt lat="40.376516506481174" lon="9.14692008321685"><ele>530.0</ele><time>2026-04-11T10:41:53Z</time></trkpt><trkpt lat="40.37643423557408" lon="9.146689190261558"><ele>531.0</ele><time>2026-04-11T10:41:54Z</time></trkpt><trkpt lat="40.37637503446388" lon="9.1464606091183"><ele>532.0</ele><time>2026-04-11T10:41:55Z</time></trkpt><trkpt lat="40.37632114671665" lon="9.146254814134613"><ele>533.25</ele><time>2026-04-11T10:41:56Z</time></trkpt><trkpt lat="40.37632062685568" lon="9.146067692377663"><ele>534.5</ele><time>2026-04-11T10:41:57Z</time></trkpt><trkpt lat="40.37635042899688" lon="9.14590217668547"><ele>535.75</ele><time>2026-04-11T10:41:58Z</time></trkpt><trkpt lat="40.37641456817478" lon="9.145761781616294"><ele>537.0</ele><time>2026-04-11T10:41:59Z</time></trkpt><trkpt lat="40.3765182661793" lon="9.145648630468813"><ele>539.6666666666666</ele><time>2026-04-11T10:42:00Z</time></trkpt><trkpt lat="40.376646063511416" lon="9.14551766663637"><ele>542.3333333333333</ele><time>2026-04-11T10:42:01Z</time></trkpt><trkpt lat="40.37680298927611" lon="9.145414339442782"><ele>545.0</ele><time>2026-04-11T10:42:02Z</time></trkpt><trkpt lat="40.376959879950576" lon="9.14529834519308"><ele>545.0</ele><time>2026-04-11T10:42:03Z</time></trkpt><trkpt lat="40.3771127545417" lon="9.145181108484525"><ele>545.0</ele><time>2026-04-11T10:42:04Z</time></trkpt><trkpt lat="40.377245916572036" lon="9.145065796531068"><ele>545.0</ele><time>2026-04-11T10:42:05Z</time></trkpt><trkpt lat="40.377360863285645" lon="9.144928387638577"><ele>545.6666666666666</ele><time>2026-04-11T10:42:06Z</time></trkpt><trkpt lat="40.37745232467381" lon="9.144758775051445"><ele>546.3333333333334</ele><time>2026-04-11T10:42:07Z</time></trkpt><trkpt lat="40.37749611760597" lon="9.144612433576631"><ele>547.0</ele><time>2026-04-11T10:42:08Z</time></trkpt><trkpt lat="40.377508854468296" lon="9.14435380000398"><ele>547.0</ele><time>2026-04-11T10:42:09Z</time></trkpt><trkpt lat="40.37748949257103" lon="9.144115208361331"><ele>547.0</ele><time>2026-04-11T10:42:10Z</time></trkpt><trkpt lat="40.37743066707533" lon="9.143887541486363"><ele>547.0</ele><time>2026-04-11T10:42:11Z</time></trkpt><trkpt lat="40.377331497769" lon="9.143677733788982"><ele>547.0</ele><time>2026-04-11T10:42:12Z</time></trkpt><trkpt lat="40.37719014895143" lon="9.143485635219301"><ele>547.0</ele><time>2026-04-11T10:42:13Z</time></trkpt><trkpt lat="40.37702667831795" lon="9.143307299935849"><ele>547.0</ele><time>2026-04-11T10:42:14Z</time></trkpt><trkpt lat="40.37687234774162" lon="9.143110061631631"><ele>547.0</ele><time>2026-04-11T10:42:15Z</time></trkpt><trkpt lat="40.376711413522344" lon="9.142904253458033"><ele>547.0</ele><time>2026-04-11T10:42:16Z</time></trkpt><trkpt lat="40.376535943715254" lon="9.14270784771426"><ele>547.0</ele><time>2026-04-11T10:42:17Z</time></trkpt><trkpt lat="40.3763767682617" lon="9.14249722437506"><ele>547.0</ele><time>2026-04-11T10:42:18Z</time></trkpt><trkpt lat="40.3762258826223" lon="9.142300686961084"><ele>547.0</ele><time>2026-04-11T10:42:19Z</time></trkpt><trkpt lat="40.376079520743104" lon="9.142126396425782"><ele>547.6666666666667</ele><time>2026-04-11T10:42:20Z</time></trkpt><trkpt lat="40.37592090715948" lon="9.141974478021808"><ele>548.3333333333334</ele><time>2026-04-11T10:42:21Z</time></trkpt><trkpt lat="40.37573303781891" lon="9.141846351852204"><ele>549.0</ele><time>2026-04-11T10:42:22Z</time></trkpt><trkpt lat="40.375530531139205" lon="9.141733644357075"><ele>550.6666666666666</ele><time>2026-04-11T10:42:23Z</time></trkpt><trkpt lat="40.37533682141134" lon="9.141592060800233"><ele>552.3333333333333</ele><time>2026-04-11T10:42:24Z</time></trkpt><trkpt lat="40.37513504841827" lon="9.14148731490901"><ele>554.0</ele><time>2026-04-11T10:42:25Z</time></trkpt><trkpt lat="40.374960114043326" lon="9.141369393619474"><ele>555.0</ele><time>2026-04-11T10:42:26Z</time></trkpt><trkpt lat="40.374807229927455" lon="9.14127477075998"><ele>556.0</ele><time>2026-04-11T10:42:27Z</time></trkpt><trkpt lat="40.37467698078269" lon="9.141174946703646"><ele>557.0</ele><time>2026-04-11T10:42:28Z</time></trkpt><trkpt lat="40.37457910410718" lon="9.141042081607644"><ele>557.75</ele><time>2026-04-11T10:42:29Z</time></trkpt><trkpt lat="40.37450253209676" lon="9.140897679917899"><ele>558.5</ele><time>2026-04-11T10:42:30Z</time></trkpt><trkpt lat="40.37445775418299" lon="9.140728948205526"><ele>559.25</ele><time>2026-04-11T10:42:31Z</time></trkpt><trkpt lat="40.37443519356791" lon="9.140543175671665"><ele>560.0</ele><time>2026-04-11T10:42:32Z</time></trkpt><trkpt lat="40.37444103140433" lon="9.140351836631668"><ele>562.5</ele><time>2026-04-11T10:42:33Z</time></trkpt><trkpt lat="40.3744848000484" lon="9.140164547597488"><ele>565.0</ele><time>2026-04-11T10:42:34Z</time></trkpt><trkpt lat="40.3745610933534" lon="9.140001116105186"><ele>567.5</ele><time>2026-04-11T10:42:35Z</time></trkpt><trkpt lat="40.37467187817695" lon="9.139862552528264"><ele>570.0</ele><time>2026-04-11T10:42:36Z</time></trkpt><trkpt lat="40.37481184868034" lon="9.139754364367125"><ele>573.3333333333334</ele><time>2026-04-11T10:42:37Z</time></trkpt><trkpt lat="40.37496671502933" lon="9.139649646185621"><ele>576.6666666666667</ele><time>2026-04-11T10:42:38Z</time></trkpt><trkpt lat="40.375121158570515" lon="9.139541747568277"><ele>580.0</ele><time>2026-04-11T10:42:39Z</time></trkpt><trkpt lat="40.37527892136762" lon="9.139442291408361"><ele>580.0</ele><time>2026-04-11T10:42:40Z</time></trkpt><trkpt lat="40.37543255646311" lon="9.13934812838565"><ele>580.0</ele><time>2026-04-11T10:42:41Z</time></trkpt><trkpt lat="40.37557087538876" lon="9.139246834274866"><ele>580.0</ele><time>2026-04-11T10:42:42Z</time></trkpt><trkpt lat="40.37568890118603" lon="9.13912330362479"><ele>580.0</ele><time>2026-04-11T10:42:43Z</time></trkpt><trkpt lat="40.375784993046345" lon="9.138962479872749"><ele>580.0</ele><time>2026-04-11T10:42:44Z</time></trkpt><trkpt lat="40.37587153819586" lon="9.13877846156215"><ele>580.0</ele><time>2026-04-11T10:42:45Z</time></trkpt><trkpt lat="40.37596878245085" lon="9.13858613061218"><ele>580.0</ele><time>2026-04-11T10:42:46Z</time></trkpt><trkpt lat="40.37607489972166" lon="9.138388533467907"><ele>580.0</ele><time>2026-04-11T10:42:47Z</time></trkpt><trkpt lat="40.37618533026314" lon="9.138183392664931"><ele>580.0</ele><time>2026-04-11T10:42:48Z</time></trkpt><trkpt lat="40.37630407114422" lon="9.137970231314956"><ele>580.0</ele><time>2026-04-11T10:42:49Z</time></trkpt><trkpt lat="40.37643170091472" lon="9.137735203971875"><ele>580.0</ele><time>2026-04-11T10:42:50Z</time></trkpt><trkpt lat="40.37655350820282" lon="9.137527858256716"><ele>580.0</ele><time>2026-04-11T10:42:51Z</time></trkpt><trkpt lat="40.37667970569869" lon="9.13729721860096"><ele>579.3333333333334</ele><time>2026-04-11T10:42:52Z</time></trkpt><trkpt lat="40.3768025289673" lon="9.13706921337224"><ele>578.6666666666666</ele><time>2026-04-11T10:42:53Z</time></trkpt><trkpt lat="40.37692567989135" lon="9.136850855353181"><ele>578.0</ele><time>2026-04-11T10:42:54Z</time></trkpt><trkpt lat="40.37704363369855" lon="9.136640831281522"><ele>578.3333333333333</ele><time>2026-04-11T10:42:55Z</time></trkpt><trkpt lat="40.37714649003877" lon="9.136430080748694"><ele>578.6666666666666</ele><time>2026-04-11T10:42:56Z</time></trkpt><trkpt lat="40.37721901446174" lon="9.136212307646709"><ele>579.0</ele><time>2026-04-11T10:42:57Z</time></trkpt><trkpt lat="40.377261995731175" lon="9.135960035399796"><ele>578.6666666666666</ele><time>2026-04-11T10:42:58Z</time></trkpt><trkpt lat="40.37728731260961" lon="9.135681954494494"><ele>578.3333333333333</ele><time>2026-04-11T10:42:59Z</time></trkpt><trkpt lat="40.37731876500842" lon="9.135394661258553"><ele>578.0</ele><time>2026-04-11T10:43:00Z</time></trkpt><trkpt lat="40.377358584339945" lon="9.135107840826853"><ele>575.3333333333333</ele><time>2026-04-11T10:43:01Z</time></trkpt><trkpt lat="40.377400565748076" lon="9.13482536735857"><ele>572.6666666666666</ele><time>2026-04-11T10:43:02Z</time></trkpt><trkpt lat="40.377436380507255" lon="9.134547940939942"><ele>570.0</ele><time>2026-04-11T10:43:03Z</time></trkpt><trkpt lat="40.37745665983246" lon="9.134282984345665"><ele>569.6666666666666</ele><time>2026-04-11T10:43:04Z</time></trkpt><trkpt lat="40.37745130929721" lon="9.134027067666246"><ele>569.3333333333333</ele><time>2026-04-11T10:43:05Z</time></trkpt><trkpt lat="40.37741173545034" lon="9.133776879022516"><ele>569.0</ele><time>2026-04-11T10:43:06Z</time></trkpt><trkpt lat="40.37734241774383" lon="9.133527328934093"><ele>569.0</ele><time>2026-04-11T10:43:07Z</time></trkpt><trkpt lat="40.37726950532225" lon="9.133276514888827"><ele>569.0</ele><time>2026-04-11T10:43:08Z</time></trkpt><trkpt lat="40.37720356600716" lon="9.133018912057528"><ele>569.0</ele><time>2026-04-11T10:43:09Z</time></trkpt><trkpt lat="40.37714360104607" lon="9.132754331964287"><ele>565.6666666666666</ele><time>2026-04-11T10:43:10Z</time></trkpt><trkpt lat="40.37708599943403" lon="9.132492507688989"><ele>562.3333333333334</ele><time>2026-04-11T10:43:11Z</time></trkpt><trkpt lat="40.37702917380652" lon="9.132245974678916"><ele>559.0</ele><time>2026-04-11T10:43:12Z</time></trkpt><trkpt lat="40.37697874239809" lon="9.13202331831513"><ele>558.0</ele><time>2026-04-11T10:43:13Z</time></trkpt><trkpt lat="40.37694455117496" lon="9.131828944206614"><ele>557.0</ele><time>2026-04-11T10:43:14Z</time></trkpt><trkpt lat="40.37695539765654" lon="9.131657620807673"><ele>556.0</ele><time>2026-04-11T10:43:15Z</time></trkpt><trkpt lat="40.37699507582511" lon="9.131502832306321"><ele>555.0</ele><time>2026-04-11T10:43:16Z</time></trkpt><trkpt lat="40.37705804124879" lon="9.131349538370996"><ele>553.0</ele><time>2026-04-11T10:43:17Z</time></trkpt><trkpt lat="40.377136198173524" lon="9.131199089599109"><ele>551.0</ele><time>2026-04-11T10:43:18Z</time></trkpt><trkpt lat="40.377285379888804" lon="9.131129831849218"><ele>549.0</ele><time>2026-04-11T10:43:19Z</time></trkpt><trkpt lat="40.37742783700824" lon="9.131021208779027"><ele>549.0</ele><time>2026-04-11T10:43:20Z</time></trkpt><trkpt lat="40.37758257547442" lon="9.130897863932285"><ele>549.0</ele><time>2026-04-11T10:43:21Z</time></trkpt><trkpt lat="40.37774483298194" lon="9.130777287446639"><ele>549.0</ele><time>2026-04-11T10:43:22Z</time></trkpt><trkpt lat="40.3778941360884" lon="9.130653731954483"><ele>547.0</ele><time>2026-04-11T10:43:23Z</time></trkpt><trkpt lat="40.37803351746029" lon="9.130533354295661"><ele>545.0</ele><time>2026-04-11T10:43:24Z</time></trkpt><trkpt lat="40.37816320833408" lon="9.130406095258614"><ele>543.0</ele><time>2026-04-11T10:43:25Z</time></trkpt><trkpt lat="40.378271199023025" lon="9.130259086928989"><ele>543.0</ele><time>2026-04-11T10:43:26Z</time></trkpt><trkpt lat="40.378350556905055" lon="9.130083147358683"><ele>543.0</ele><time>2026-04-11T10:43:27Z</time></trkpt><trkpt lat="40.378403384901716" lon="9.129874591333708"><ele>543.0</ele><time>2026-04-11T10:43:28Z</time></trkpt><trkpt lat="40.37845181301563" lon="9.129626051801978"><ele>542.6666666666666</ele><time>2026-04-11T10:43:29Z</time></trkpt><trkpt lat="40.378486046135045" lon="9.129392151825087"><ele>542.3333333333333</ele><time>2026-04-11T10:43:30Z</time></trkpt><trkpt lat="40.3785473488397" lon="9.129160808662641"><ele>542.0</ele><time>2026-04-11T10:43:31Z</time></trkpt><trkpt lat="40.378580880440644" lon="9.128924622995154"><ele>541.3333333333333</ele><time>2026-04-11T10:43:32Z</time></trkpt><trkpt lat="40.378635140132616" lon="9.128707218512398"><ele>540.6666666666666</ele><time>2026-04-11T10:43:33Z</time></trkpt><trkpt lat="40.37871768423137" lon="9.128527925440835"><ele>540.0</ele><time>2026-04-11T10:43:34Z</time></trkpt><trkpt lat="40.378811485222876" lon="9.128360576727777"><ele>536.0</ele><time>2026-04-11T10:43:35Z</time></trkpt><trkpt lat="40.378908400076256" lon="9.12819100793758"><ele>532.0</ele><time>2026-04-11T10:43:36Z</time></trkpt><trkpt lat="40.37903344982322" lon="9.128060848322034"><ele>528.0</ele><time>2026-04-11T10:43:37Z</time></trkpt><trkpt lat="40.379177466833276" lon="9.127995978137974"><ele>528.0</ele><time>2026-04-11T10:43:38Z</time></trkpt><trkpt lat="40.37931983786989" lon="9.127925019160514"><ele>528.0</ele><time>2026-04-11T10:43:39Z</time></trkpt><trkpt lat="40.379473838568394" lon="9.1278491163274"><ele>528.0</ele><time>2026-04-11T10:43:40Z</time></trkpt><trkpt lat="40.37963003538682" lon="9.127755584378619"><ele>529.0</ele><time>2026-04-11T10:43:41Z</time></trkpt><trkpt lat="40.37979186681549" lon="9.127674300338064"><ele>530.0</ele><time>2026-04-11T10:43:42Z</time></trkpt><trkpt lat="40.379961945807075" lon="9.127616960755578"><ele>531.0</ele><time>2026-04-11T10:43:43Z</time></trkpt><trkpt lat="40.38012892560567" lon="9.127550660916596"><ele>531.0</ele><time>2026-04-11T10:43:44Z</time></trkpt><trkpt lat="40.38029940015531" lon="9.1274957260555"><ele>531.0</ele><time>2026-04-11T10:43:45Z</time></trkpt><trkpt lat="40.380469860523384" lon="9.127456404503885"><ele>531.0</ele><time>2026-04-11T10:43:46Z</time></trkpt><trkpt lat="40.38064077391856" lon="9.127438133987182"><ele>530.3333333333334</ele><time>2026-04-11T10:43:47Z</time></trkpt><trkpt lat="40.38081320340418" lon="9.127457249658196"><ele>529.6666666666667</ele><time>2026-04-11T10:43:48Z</time></trkpt><trkpt lat="40.38099421459253" lon="9.127496459170295"><ele>529.0</ele><time>2026-04-11T10:43:49Z</time></trkpt><trkpt lat="40.38117404457115" lon="9.127534052944005"><ele>529.0</ele><time>2026-04-11T10:43:50Z</time></trkpt><trkpt lat="40.38134220890395" lon="9.12757742815865"><ele>529.0</ele><time>2026-04-11T10:43:51Z</time></trkpt><trkpt lat="40.38150534103081" lon="9.127593693339229"><ele>529.0</ele><time>2026-04-11T10:43:52Z</time></trkpt><trkpt lat="40.38165014508964" lon="9.127564102593968"><ele>528.0</ele><time>2026-04-11T10:43:53Z</time></trkpt><trkpt lat="40.38178282890269" lon="9.127485421781905"><ele>527.0</ele><time>2026-04-11T10:43:54Z</time></trkpt><trkpt lat="40.381893305037224" lon="9.12736068806183"><ele>526.0</ele><time>2026-04-11T10:43:55Z</time></trkpt><trkpt lat="40.381979924313534" lon="9.12716624879542"><ele>524.3333333333334</ele><time>2026-04-11T10:43:56Z</time></trkpt><trkpt lat="40.38208246799686" lon="9.126989273688055"><ele>522.6666666666666</ele><time>2026-04-11T10:43:57Z</time></trkpt><trkpt lat="40.38219625110859" lon="9.126804892086781"><ele>521.0</ele><time>2026-04-11T10:43:58Z</time></trkpt><trkpt lat="40.38231475116519" lon="9.12661210356061"><ele>518.0</ele><time>2026-04-11T10:43:59Z</time></trkpt><trkpt lat="40.38242497569037" lon="9.126431167068745"><ele>515.0</ele><time>2026-04-11T10:44:00Z</time></trkpt><trkpt lat="40.38252667039315" lon="9.126262440047496"><ele>512.0</ele><time>2026-04-11T10:44:01Z</time></trkpt><trkpt lat="40.3826156285827" lon="9.126110764261057"><ele>512.0</ele><time>2026-04-11T10:44:02Z</time></trkpt><trkpt lat="40.38269423016476" lon="9.125989045980399"><ele>512.0</ele><time>2026-04-11T10:44:03Z</time></trkpt><trkpt lat="40.38272831656183" lon="9.125843351410575"><ele>512.0</ele><time>2026-04-11T10:44:04Z</time></trkpt><trkpt lat="40.382711612799504" lon="9.125691017362813"><ele>512.0</ele><time>2026-04-11T10:44:05Z</time></trkpt><trkpt lat="40.382681205519916" lon="9.125537802993742"><ele>511.5</ele><time>2026-04-11T10:44:06Z</time></trkpt><trkpt lat="40.38262664573224" lon="9.125372904768255"><ele>511.0</ele><time>2026-04-11T10:44:07Z</time></trkpt><trkpt lat="40.382546156325276" lon="9.125217923733855"><ele>510.5</ele><time>2026-04-11T10:44:08Z</time></trkpt><trkpt lat="40.382440942303205" lon="9.125103166622795"><ele>510.0</ele><time>2026-04-11T10:44:09Z</time></trkpt><trkpt lat="40.382320928694455" lon="9.125045090970948"><ele>510.0</ele><time>2026-04-11T10:44:10Z</time></trkpt><trkpt lat="40.38220048626308" lon="9.12504384470908"><ele>510.0</ele><time>2026-04-11T10:44:11Z</time></trkpt><trkpt lat="40.382060672782146" lon="9.125082881579543"><ele>510.0</ele><time>2026-04-11T10:44:12Z</time></trkpt><trkpt lat="40.38191932792484" lon="9.12512409843301"><ele>510.0</ele><time>2026-04-11T10:44:13Z</time></trkpt><trkpt lat="40.38177967394881" lon="9.12511712559482"><ele>507.33333333333337</ele><time>2026-04-11T10:44:14Z</time></trkpt><trkpt lat="40.38164132506765" lon="9.12506269582301"><ele>504.6666666666667</ele><time>2026-04-11T10:44:15Z</time></trkpt><trkpt lat="40.38150757829014" lon="9.124959467404079"><ele>502.0</ele><time>2026-04-11T10:44:16Z</time></trkpt><trkpt lat="40.38137771274345" lon="9.124810083116998"><ele>498.0</ele><time>2026-04-11T10:44:17Z</time></trkpt><trkpt lat="40.38124779785535" lon="9.124641797792426"><ele>494.0</ele><time>2026-04-11T10:44:18Z</time></trkpt><trkpt lat="40.38111068276067" lon="9.12446658295853"><ele>490.0</ele><time>2026-04-11T10:44:19Z</time></trkpt><trkpt lat="40.38098022096876" lon="9.12429743191008"><ele>490.0</ele><time>2026-04-11T10:44:20Z</time></trkpt><trkpt lat="40.3808661974324" lon="9.12414409510665"><ele>490.0</ele><time>2026-04-11T10:44:21Z</time></trkpt><trkpt lat="40.380776877729375" lon="9.123992341974422"><ele>490.0</ele><time>2026-04-11T10:44:22Z</time></trkpt><trkpt lat="40.38072287118551" lon="9.1238134744297"><ele>489.0</ele><time>2026-04-11T10:44:23Z</time></trkpt><trkpt lat="40.380698301502306" lon="9.123609576660847"><ele>488.0</ele><time>2026-04-11T10:44:24Z</time></trkpt><trkpt lat="40.38069361632853" lon="9.123386376049217"><ele>487.0</ele><time>2026-04-11T10:44:25Z</time></trkpt><trkpt lat="40.3806919708085" lon="9.123143469068673"><ele>485.33333333333337</ele><time>2026-04-11T10:44:26Z</time></trkpt><trkpt lat="40.38067621405255" lon="9.12289606832666"><ele>483.66666666666663</ele><time>2026-04-11T10:44:27Z</time></trkpt><trkpt lat="40.38063382649272" lon="9.12266587715952"><ele>482.0</ele><time>2026-04-11T10:44:28Z</time></trkpt><trkpt lat="40.38055485285009" lon="9.122443698021181"><ele>480.66666666666663</ele><time>2026-04-11T10:44:29Z</time></trkpt><trkpt lat="40.38045947624506" lon="9.122239413519225"><ele>479.33333333333337</ele><time>2026-04-11T10:44:30Z</time></trkpt><trkpt lat="40.38036315326201" lon="9.122034723327335"><ele>478.0</ele><time>2026-04-11T10:44:31Z</time></trkpt><trkpt lat="40.38027444028029" lon="9.12183960674222"><ele>478.0</ele><time>2026-04-11T10:44:32Z</time></trkpt><trkpt lat="40.38018875506588" lon="9.121646232950692"><ele>478.0</ele><time>2026-04-11T10:44:33Z</time></trkpt><trkpt lat="40.38010394964922" lon="9.12146103468851"><ele>478.0</ele><time>2026-04-11T10:44:34Z</time></trkpt><trkpt lat="40.3800166060983" lon="9.12128153534847"><ele>477.6666666666667</ele><time>2026-04-11T10:44:35Z</time></trkpt><trkpt lat="40.37993428017028" lon="9.121098758009524"><ele>477.33333333333337</ele><time>2026-04-11T10:44:36Z</time></trkpt><trkpt lat="40.37986718987122" lon="9.120913797713603"><ele>477.0</ele><time>2026-04-11T10:44:37Z</time></trkpt><trkpt lat="40.37979822472464" lon="9.120725637789503"><ele>477.0</ele><time>2026-04-11T10:44:38Z</time></trkpt><trkpt lat="40.37977418934025" lon="9.120496045641381"><ele>477.0</ele><time>2026-04-11T10:44:39Z</time></trkpt><trkpt lat="40.37975418106704" lon="9.120266915984253"><ele>477.0</ele><time>2026-04-11T10:44:40Z</time></trkpt><trkpt lat="40.37976237446262" lon="9.12003047757167"><ele>475.66666666666663</ele><time>2026-04-11T10:44:41Z</time></trkpt><trkpt lat="40.37978498233268" lon="9.119783061908922"><ele>474.3333333333333</ele><time>2026-04-11T10:44:42Z</time></trkpt><trkpt lat="40.37980472409026" lon="9.119537092258646"><ele>473.0</ele><time>2026-04-11T10:44:43Z</time></trkpt><trkpt lat="40.3798140770546" lon="9.119301109641393"><ele>473.0</ele><time>2026-04-11T10:44:44Z</time></trkpt><trkpt lat="40.37980284224577" lon="9.119056069731265"><ele>473.0</ele><time>2026-04-11T10:44:45Z</time></trkpt><trkpt lat="40.379780331572526" lon="9.118802194255885"><ele>473.0</ele><time>2026-04-11T10:44:46Z</time></trkpt><trkpt lat="40.379709593127444" lon="9.11853633081027"><ele>466.0</ele><time>2026-04-11T10:44:47Z</time></trkpt><trkpt lat="40.37963980607531" lon="9.118282602591819"><ele>459.0</ele><time>2026-04-11T10:44:48Z</time></trkpt><trkpt lat="40.379574601193895" lon="9.117971303999783"><ele>457.5</ele><time>2026-04-11T10:44:49Z</time></trkpt><trkpt lat="40.37948148489117" lon="9.117686232749342"><ele>456.0</ele><time>2026-04-11T10:44:50Z</time></trkpt><trkpt lat="40.37939913985006" lon="9.117392109432654"><ele>452.5</ele><time>2026-04-11T10:44:51Z</time></trkpt><trkpt lat="40.379315730661965" lon="9.117098491994026"><ele>449.0</ele><time>2026-04-11T10:44:52Z</time></trkpt><trkpt lat="40.37923203208704" lon="9.11679936741399"><ele>452.0</ele><time>2026-04-11T10:44:53Z</time></trkpt><trkpt lat="40.37914234467737" lon="9.116503754510333"><ele>455.0</ele><time>2026-04-11T10:44:54Z</time></trkpt><trkpt lat="40.379051053338436" lon="9.11620843332289"><ele>455.0</ele><time>2026-04-11T10:44:55Z</time></trkpt><trkpt lat="40.37895153234097" lon="9.115923810152493"><ele>455.0</ele><time>2026-04-11T10:44:56Z</time></trkpt><trkpt lat="40.37885049739758" lon="9.115651116688076"><ele>445.0</ele><time>2026-04-11T10:44:57Z</time></trkpt><trkpt lat="40.37875050249535" lon="9.11538141279761"><ele>435.0</ele><time>2026-04-11T10:44:58Z</time></trkpt><trkpt lat="40.37865766427899" lon="9.115111572324178"><ele>436.66666666666663</ele><time>2026-04-11T10:44:59Z</time></trkpt><trkpt lat="40.3785660836184" lon="9.114845885037708"><ele>438.3333333333333</ele><time>2026-04-11T10:45:00Z</time></trkpt><trkpt lat="40.3784762195217" lon="9.114592603403073"><ele>440.0</ele><time>2026-04-11T10:45:01Z</time></trkpt><trkpt lat="40.37839750802026" lon="9.114349742331733"><ele>440.0</ele><time>2026-04-11T10:45:02Z</time></trkpt><trkpt lat="40.378355568707825" lon="9.114104164931254"><ele>440.0</ele><time>2026-04-11T10:45:03Z</time></trkpt><trkpt lat="40.37833030201154" lon="9.113855712618147"><ele>440.0</ele><time>2026-04-11T10:45:04Z</time></trkpt><trkpt lat="40.37830806921636" lon="9.113587399648887"><ele>440.66666666666663</ele><time>2026-04-11T10:45:05Z</time></trkpt><trkpt lat="40.37828375588151" lon="9.113309508695897"><ele>441.33333333333337</ele><time>2026-04-11T10:45:06Z</time></trkpt><trkpt lat="40.378258386627095" lon="9.113019549005823"><ele>442.0</ele><time>2026-04-11T10:45:07Z</time></trkpt><trkpt lat="40.37823195088082" lon="9.11271739971403"><ele>440.0</ele><time>2026-04-11T10:45:08Z</time></trkpt><trkpt lat="40.378190050836565" lon="9.112415882259153"><ele>438.0</ele><time>2026-04-11T10:45:09Z</time></trkpt><trkpt lat="40.378180227193845" lon="9.112109680084146"><ele>436.0</ele><time>2026-04-11T10:45:10Z</time></trkpt><trkpt lat="40.378138635843094" lon="9.111806554981266"><ele>434.0</ele><time>2026-04-11T10:45:11Z</time></trkpt><trkpt lat="40.378113660563585" lon="9.11149639043524"><ele>433.0</ele><time>2026-04-11T10:45:12Z</time></trkpt><trkpt lat="40.37808813932401" lon="9.111180531926914"><ele>432.0</ele><time>2026-04-11T10:45:13Z</time></trkpt><trkpt lat="40.37806083688822" lon="9.110860831307395"><ele>432.0</ele><time>2026-04-11T10:45:14Z</time></trkpt><trkpt lat="40.37803157845382" lon="9.110541063200683"><ele>432.0</ele><time>2026-04-11T10:45:15Z</time></trkpt><trkpt lat="40.37800165040766" lon="9.110221491960687"><ele>418.0</ele><time>2026-04-11T10:45:16Z</time></trkpt><trkpt lat="40.377969514891475" lon="9.109903957245077"><ele>404.0</ele><time>2026-04-11T10:45:17Z</time></trkpt><trkpt lat="40.377954987367744" lon="9.109589096627733"><ele>404.0</ele><time>2026-04-11T10:45:18Z</time></trkpt><trkpt lat="40.37792621545962" lon="9.109277112180258"><ele>404.0</ele><time>2026-04-11T10:45:19Z</time></trkpt><trkpt lat="40.37789807819361" lon="9.108967751625343"><ele>403.5</ele><time>2026-04-11T10:45:20Z</time></trkpt><trkpt lat="40.37786952943527" lon="9.10865364416818"><ele>403.0</ele><time>2026-04-11T10:45:21Z</time></trkpt><trkpt lat="40.37784092671501" lon="9.108341888792264"><ele>403.5</ele><time>2026-04-11T10:45:22Z</time></trkpt><trkpt lat="40.37779567976774" lon="9.10804666009723"><ele>404.0</ele><time>2026-04-11T10:45:23Z</time></trkpt><trkpt lat="40.37777382386926" lon="9.107750201268404"><ele>404.0</ele><time>2026-04-11T10:45:24Z</time></trkpt><trkpt lat="40.377744218554355" lon="9.107455486232682"><ele>404.0</ele><time>2026-04-11T10:45:25Z</time></trkpt><trkpt lat="40.37772106824376" lon="9.107167621448607"><ele>404.0</ele><time>2026-04-11T10:45:26Z</time></trkpt><trkpt lat="40.37769943699487" lon="9.106891184464885"><ele>403.66666666666663</ele><time>2026-04-11T10:45:27Z</time></trkpt><trkpt lat="40.37767668169363" lon="9.10662484862579"><ele>403.33333333333337</ele><time>2026-04-11T10:45:28Z</time></trkpt><trkpt lat="40.3776441249439" lon="9.106368222097062"><ele>403.0</ele><time>2026-04-11T10:45:29Z</time></trkpt><trkpt lat="40.37758976865287" lon="9.106129311938446"><ele>403.0</ele><time>2026-04-11T10:45:30Z</time></trkpt><trkpt lat="40.37749760243344" lon="9.105908554993302"><ele>403.0</ele><time>2026-04-11T10:45:31Z</time></trkpt><trkpt lat="40.37737362907632" lon="9.105711894951895"><ele>403.0</ele><time>2026-04-11T10:45:32Z</time></trkpt><trkpt lat="40.377243237848624" lon="9.105517700271369"><ele>399.33333333333337</ele><time>2026-04-11T10:45:33Z</time></trkpt><trkpt lat="40.37713309921787" lon="9.105324307461835"><ele>395.66666666666663</ele><time>2026-04-11T10:45:34Z</time></trkpt><trkpt lat="40.3770366019711" lon="9.105135608161879"><ele>392.0</ele><time>2026-04-11T10:45:35Z</time></trkpt><trkpt lat="40.376949929693495" lon="9.104963073215943"><ele>389.75</ele><time>2026-04-11T10:45:36Z</time></trkpt><trkpt lat="40.376881871943645" lon="9.104801055576068"><ele>387.5</ele><time>2026-04-11T10:45:37Z</time></trkpt><trkpt lat="40.376845690613266" lon="9.104629121530786"><ele>385.25</ele><time>2026-04-11T10:45:38Z</time></trkpt><trkpt lat="40.37685457496563" lon="9.104445217682047"><ele>383.0</ele><time>2026-04-11T10:45:39Z</time></trkpt><trkpt lat="40.376904083000234" lon="9.10427546449762"><ele>383.0</ele><time>2026-04-11T10:45:40Z</time></trkpt><trkpt lat="40.376991243232034" lon="9.104137487131736"><ele>383.0</ele><time>2026-04-11T10:45:41Z</time></trkpt><trkpt lat="40.37710245831287" lon="9.104023562489044"><ele>383.0</ele><time>2026-04-11T10:45:42Z</time></trkpt><trkpt lat="40.377241122983655" lon="9.103929046015663"><ele>383.0</ele><time>2026-04-11T10:45:43Z</time></trkpt><trkpt lat="40.37740320112144" lon="9.103843120778306"><ele>379.0</ele><time>2026-04-11T10:45:44Z</time></trkpt><trkpt lat="40.377578031624495" lon="9.103748974724727"><ele>375.0</ele><time>2026-04-11T10:45:45Z</time></trkpt><trkpt lat="40.37776576057062" lon="9.10364543768417"><ele>371.0</ele><time>2026-04-11T10:45:46Z</time></trkpt><trkpt lat="40.37794519069186" lon="9.103531937377834"><ele>368.33333333333337</ele><time>2026-04-11T10:45:47Z</time></trkpt><trkpt lat="40.37811819278787" lon="9.103426410493013"><ele>365.6666666666667</ele><time>2026-04-11T10:45:48Z</time></trkpt><trkpt lat="40.37828007040961" lon="9.103317532196286"><ele>363.0</ele><time>2026-04-11T10:45:49Z</time></trkpt><trkpt lat="40.37842003981402" lon="9.10318898965524"><ele>363.0</ele><time>2026-04-11T10:45:50Z</time></trkpt><trkpt lat="40.378526758961556" lon="9.103023979948295"><ele>363.0</ele><time>2026-04-11T10:45:51Z</time></trkpt><trkpt lat="40.3786102922524" lon="9.102826558417272"><ele>363.0</ele><time>2026-04-11T10:45:52Z</time></trkpt><trkpt lat="40.37870215348898" lon="9.102619394381833"><ele>363.6666666666667</ele><time>2026-04-11T10:45:53Z</time></trkpt><trkpt lat="40.378805284179876" lon="9.102410943159855"><ele>364.33333333333337</ele><time>2026-04-11T10:45:54Z</time></trkpt><trkpt lat="40.37891973726399" lon="9.10220249155678"><ele>365.0</ele><time>2026-04-11T10:45:55Z</time></trkpt><trkpt lat="40.379043181206114" lon="9.101992315307678"><ele>365.0</ele><time>2026-04-11T10:45:56Z</time></trkpt><trkpt lat="40.37917208195452" lon="9.101780581872742"><ele>365.0</ele><time>2026-04-11T10:45:57Z</time></trkpt><trkpt lat="40.379301298232804" lon="9.101570913090715"><ele>365.0</ele><time>2026-04-11T10:45:58Z</time></trkpt><trkpt lat="40.3794269944682" lon="9.101365096356846"><ele>360.33333333333337</ele><time>2026-04-11T10:45:59Z</time></trkpt><trkpt lat="40.379547418296426" lon="9.101160950069175"><ele>355.6666666666667</ele><time>2026-04-11T10:46:00Z</time></trkpt><trkpt lat="40.37965965128362" lon="9.100957314018544"><ele>351.0</ele><time>2026-04-11T10:46:01Z</time></trkpt><trkpt lat="40.379757721844804" lon="9.100748497832475"><ele>351.0</ele><time>2026-04-11T10:46:02Z</time></trkpt><trkpt lat="40.379842268391634" lon="9.100519068269652"><ele>351.0</ele><time>2026-04-11T10:46:03Z</time></trkpt><trkpt lat="40.37991568263561" lon="9.100276445797968"><ele>351.0</ele><time>2026-04-11T10:46:04Z</time></trkpt><trkpt lat="40.37997588002251" lon="9.100029174241623"><ele>350.6666666666667</ele><time>2026-04-11T10:46:05Z</time></trkpt><trkpt lat="40.38001995033364" lon="9.0997842719504"><ele>350.33333333333337</ele><time>2026-04-11T10:46:06Z</time></trkpt><trkpt lat="40.38003282171965" lon="9.099551477071628"><ele>350.0</ele><time>2026-04-11T10:46:07Z</time></trkpt><trkpt lat="40.37999271898943" lon="9.099319814314226"><ele>352.6666666666667</ele><time>2026-04-11T10:46:08Z</time></trkpt><trkpt lat="40.37991624561614" lon="9.099080697706045"><ele>355.3333333333333</ele><time>2026-04-11T10:46:09Z</time></trkpt><trkpt lat="40.379818390153424" lon="9.09883613671895"><ele>358.0</ele><time>2026-04-11T10:46:10Z</time></trkpt><trkpt lat="40.37972243587011" lon="9.098586225688754"><ele>354.66666666666663</ele><time>2026-04-11T10:46:11Z</time></trkpt><trkpt lat="40.37963779385899" lon="9.098335658048526"><ele>351.3333333333333</ele><time>2026-04-11T10:46:12Z</time></trkpt><trkpt lat="40.37956373625126" lon="9.09811209372737"><ele>348.0</ele><time>2026-04-11T10:46:13Z</time></trkpt><trkpt lat="40.37949305829487" lon="9.097890707582579"><ele>348.0</ele><time>2026-04-11T10:46:14Z</time></trkpt><trkpt lat="40.3794464462682" lon="9.097681112078215"><ele>348.0</ele><time>2026-04-11T10:46:15Z</time></trkpt><trkpt lat="40.37944394124555" lon="9.097484614273402"><ele>348.0</ele><time>2026-04-11T10:46:16Z</time></trkpt><trkpt lat="40.379492292370195" lon="9.097317788983474"><ele>350.6666666666667</ele><time>2026-04-11T10:46:17Z</time></trkpt><trkpt lat="40.37958392541415" lon="9.097160054232898"><ele>353.33333333333337</ele><time>2026-04-11T10:46:18Z</time></trkpt><trkpt lat="40.37970947717354" lon="9.097004127294978"><ele>356.0</ele><time>2026-04-11T10:46:19Z</time></trkpt><trkpt lat="40.379856863490524" lon="9.096838784309641"><ele>356.0</ele><time>2026-04-11T10:46:20Z</time></trkpt><trkpt lat="40.38000055318617" lon="9.096645805928151"><ele>356.0</ele><time>2026-04-11T10:46:21Z</time></trkpt><trkpt lat="40.38013829887421" lon="9.096441759670062"><ele>356.0</ele><time>2026-04-11T10:46:22Z</time></trkpt><trkpt lat="40.38025531016401" lon="9.096219970976929"><ele>353.0</ele><time>2026-04-11T10:46:23Z</time></trkpt><trkpt lat="40.38033176597473" lon="9.095978392998031"><ele>350.0</ele><time>2026-04-11T10:46:24Z</time></trkpt><trkpt lat="40.380374303036085" lon="9.09573698550962"><ele>347.0</ele><time>2026-04-11T10:46:25Z</time></trkpt><trkpt lat="40.380385026923115" lon="9.095514976696634"><ele>346.6666666666667</ele><time>2026-04-11T10:46:26Z</time></trkpt><trkpt lat="40.3803532403165" lon="9.095281866879464"><ele>346.3333333333333</ele><time>2026-04-11T10:46:27Z</time></trkpt><trkpt lat="40.38028712514189" lon="9.095034521986832"><ele>346.0</ele><time>2026-04-11T10:46:28Z</time></trkpt><trkpt lat="40.38022677898984" lon="9.094773317129306"><ele>347.0</ele><time>2026-04-11T10:46:29Z</time></trkpt><trkpt lat="40.38017090994995" lon="9.094490750921143"><ele>348.0</ele><time>2026-04-11T10:46:30Z</time></trkpt><trkpt lat="40.38012158980899" lon="9.094206839650568"><ele>349.0</ele><time>2026-04-11T10:46:31Z</time></trkpt><trkpt lat="40.3800716986328" lon="9.093920431994285"><ele>350.0</ele><time>2026-04-11T10:46:32Z</time></trkpt><trkpt lat="40.38002482117735" lon="9.093654672588718"><ele>351.0</ele><time>2026-04-11T10:46:33Z</time></trkpt><trkpt lat="40.37999095948487" lon="9.09340774960875"><ele>352.0</ele><time>2026-04-11T10:46:34Z</time></trkpt><trkpt lat="40.38001391389734" lon="9.093181357669613"><ele>349.5</ele><time>2026-04-11T10:46:35Z</time></trkpt><trkpt lat="40.380048639385215" lon="9.09299230221501"><ele>347.0</ele><time>2026-04-11T10:46:36Z</time></trkpt><trkpt lat="40.38011084674711" lon="9.0928249464816"><ele>344.5</ele><time>2026-04-11T10:46:37Z</time></trkpt><trkpt lat="40.3802074693213" lon="9.092705562669623"><ele>342.0</ele><time>2026-04-11T10:46:38Z</time></trkpt><trkpt lat="40.38033141693908" lon="9.09262694152761"><ele>342.0</ele><time>2026-04-11T10:46:39Z</time></trkpt><trkpt lat="40.38048969593198" lon="9.09252440367514"><ele>342.0</ele><time>2026-04-11T10:46:40Z</time></trkpt><trkpt lat="40.38065374705312" lon="9.092397415544092"><ele>342.0</ele><time>2026-04-11T10:46:41Z</time></trkpt><trkpt lat="40.38084349609934" lon="9.092274041590255"><ele>342.0</ele><time>2026-04-11T10:46:42Z</time></trkpt><trkpt lat="40.381045567431485" lon="9.092167975063651"><ele>342.0</ele><time>2026-04-11T10:46:43Z</time></trkpt><trkpt lat="40.381243135870655" lon="9.092040631148459"><ele>342.0</ele><time>2026-04-11T10:46:44Z</time></trkpt><trkpt lat="40.381433816331544" lon="9.091916282776793"><ele>342.0</ele><time>2026-04-11T10:46:45Z</time></trkpt><trkpt lat="40.38161052279897" lon="9.091803864543792"><ele>342.0</ele><time>2026-04-11T10:46:46Z</time></trkpt><trkpt lat="40.38178293587802" lon="9.091695698291673"><ele>342.0</ele><time>2026-04-11T10:46:47Z</time></trkpt><trkpt lat="40.3819529917779" lon="9.091568376993706"><ele>338.3333333333333</ele><time>2026-04-11T10:46:48Z</time></trkpt><trkpt lat="40.38214504203834" lon="9.091492611390382"><ele>334.66666666666663</ele><time>2026-04-11T10:46:49Z</time></trkpt><trkpt lat="40.38233538723892" lon="9.091404554691003"><ele>331.0</ele><time>2026-04-11T10:46:50Z</time></trkpt><trkpt lat="40.38252089104812" lon="9.091322316150128"><ele>331.0</ele><time>2026-04-11T10:46:51Z</time></trkpt><trkpt lat="40.38269973766948" lon="9.09125708351449"><ele>331.0</ele><time>2026-04-11T10:46:52Z</time></trkpt><trkpt lat="40.382871884259934" lon="9.091221269848365"><ele>331.0</ele><time>2026-04-11T10:46:53Z</time></trkpt><trkpt lat="40.38305672378211" lon="9.091216448417468"><ele>329.0</ele><time>2026-04-11T10:46:54Z</time></trkpt><trkpt lat="40.38326015936744" lon="9.091209670061566"><ele>327.0</ele><time>2026-04-11T10:46:55Z</time></trkpt><trkpt lat="40.38345276306671" lon="9.091204094501457"><ele>325.0</ele><time>2026-04-11T10:46:56Z</time></trkpt><trkpt lat="40.383624648265375" lon="9.091182006722894"><ele>325.0</ele><time>2026-04-11T10:46:57Z</time></trkpt><trkpt lat="40.383771289274385" lon="9.091170090940897"><ele>325.0</ele><time>2026-04-11T10:46:58Z</time></trkpt><trkpt lat="40.38389057906217" lon="9.091120028225077"><ele>325.0</ele><time>2026-04-11T10:46:59Z</time></trkpt><trkpt lat="40.38397541154508" lon="9.091014866090132"><ele>325.0</ele><time>2026-04-11T10:47:00Z</time></trkpt><trkpt lat="40.38401922144662" lon="9.090863598621535"><ele>322.75</ele><time>2026-04-11T10:47:01Z</time></trkpt><trkpt lat="40.38403612253155" lon="9.090688050490767"><ele>320.5</ele><time>2026-04-11T10:47:02Z</time></trkpt><trkpt lat="40.38399484888563" lon="9.090510619929717"><ele>318.25</ele><time>2026-04-11T10:47:03Z</time></trkpt><trkpt lat="40.383896989735966" lon="9.090351263348552"><ele>316.0</ele><time>2026-04-11T10:47:04Z</time></trkpt><trkpt lat="40.38376352314491" lon="9.090222893376867"><ele>316.0</ele><time>2026-04-11T10:47:05Z</time></trkpt><trkpt lat="40.38360498042014" lon="9.090128667359117"><ele>316.0</ele><time>2026-04-11T10:47:06Z</time></trkpt><trkpt lat="40.38343060961509" lon="9.090069647961613"><ele>316.0</ele><time>2026-04-11T10:47:07Z</time></trkpt><trkpt lat="40.38328036826952" lon="9.089984354162498"><ele>315.0</ele><time>2026-04-11T10:47:08Z</time></trkpt><trkpt lat="40.3831647631335" lon="9.089881212568846"><ele>314.0</ele><time>2026-04-11T10:47:09Z</time></trkpt><trkpt lat="40.383077264344124" lon="9.089746596466039"><ele>313.0</ele><time>2026-04-11T10:47:10Z</time></trkpt><trkpt lat="40.383019631980254" lon="9.089600854379714"><ele>312.0</ele><time>2026-04-11T10:47:11Z</time></trkpt><trkpt lat="40.38299731464175" lon="9.089432705714731"><ele>312.0</ele><time>2026-04-11T10:47:12Z</time></trkpt><trkpt lat="40.38295981973115" lon="9.089226701231897"><ele>312.0</ele><time>2026-04-11T10:47:13Z</time></trkpt><trkpt lat="40.38289895407109" lon="9.08900119443212"><ele>312.0</ele><time>2026-04-11T10:47:14Z</time></trkpt><trkpt lat="40.38286799195393" lon="9.088746815501077"><ele>310.6666666666667</ele><time>2026-04-11T10:47:15Z</time></trkpt><trkpt lat="40.38282075957615" lon="9.0885007681328"><ele>309.33333333333337</ele><time>2026-04-11T10:47:16Z</time></trkpt><trkpt lat="40.38277397016833" lon="9.088262246093118"><ele>308.0</ele><time>2026-04-11T10:47:17Z</time></trkpt><trkpt lat="40.38272990520644" lon="9.088041583542406"><ele>307.5</ele><time>2026-04-11T10:47:18Z</time></trkpt><trkpt lat="40.38269997704799" lon="9.087841492154558"><ele>307.0</ele><time>2026-04-11T10:47:19Z</time></trkpt><trkpt lat="40.382708357592215" lon="9.087672953879164"><ele>306.5</ele><time>2026-04-11T10:47:20Z</time></trkpt><trkpt lat="40.38275521078163" lon="9.087520878019582"><ele>306.0</ele><time>2026-04-11T10:47:21Z</time></trkpt><trkpt lat="40.382847089489246" lon="9.0873649277213"><ele>305.0</ele><time>2026-04-11T10:47:22Z</time></trkpt><trkpt lat="40.38297350600418" lon="9.087202046898273"><ele>304.0</ele><time>2026-04-11T10:47:23Z</time></trkpt><trkpt lat="40.38311487961719" lon="9.087018203379388"><ele>303.0</ele><time>2026-04-11T10:47:24Z</time></trkpt><trkpt lat="40.38326750293718" lon="9.086820690537124"><ele>300.5</ele><time>2026-04-11T10:47:25Z</time></trkpt><trkpt lat="40.38342798405129" lon="9.086609631267537"><ele>298.0</ele><time>2026-04-11T10:47:26Z</time></trkpt><trkpt lat="40.38359020918895" lon="9.086393013593554"><ele>297.5</ele><time>2026-04-11T10:47:27Z</time></trkpt><trkpt lat="40.3837457724326" lon="9.086167150770967"><ele>297.0</ele><time>2026-04-11T10:47:28Z</time></trkpt><trkpt lat="40.383903335023376" lon="9.085960031511936"><ele>295.0</ele><time>2026-04-11T10:47:29Z</time></trkpt><trkpt lat="40.3840605906907" lon="9.085760851933461"><ele>293.0</ele><time>2026-04-11T10:47:30Z</time></trkpt><trkpt lat="40.384204833582615" lon="9.085574196511475"><ele>291.0</ele><time>2026-04-11T10:47:31Z</time></trkpt><trkpt lat="40.38432658925755" lon="9.085400307155478"><ele>291.0</ele><time>2026-04-11T10:47:32Z</time></trkpt><trkpt lat="40.38441395288084" lon="9.085212935181026"><ele>291.0</ele><time>2026-04-11T10:47:33Z</time></trkpt><trkpt lat="40.38447905214458" lon="9.084973243637492"><ele>291.0</ele><time>2026-04-11T10:47:34Z</time></trkpt><trkpt lat="40.384533681670554" lon="9.084711711074636"><ele>290.6666666666667</ele><time>2026-04-11T10:47:35Z</time></trkpt><trkpt lat="40.38459229939115" lon="9.084435994703306"><ele>290.33333333333337</ele><time>2026-04-11T10:47:36Z</time></trkpt><trkpt lat="40.38465439216228" lon="9.084157201728676"><ele>290.0</ele><time>2026-04-11T10:47:37Z</time></trkpt><trkpt lat="40.38471419042566" lon="9.08389533980043"><ele>289.0</ele><time>2026-04-11T10:47:38Z</time></trkpt><trkpt lat="40.384767346936115" lon="9.0836682133968"><ele>288.0</ele><time>2026-04-11T10:47:39Z</time></trkpt><trkpt lat="40.38481594581336" lon="9.083478412126508"><ele>287.0</ele><time>2026-04-11T10:47:40Z</time></trkpt><trkpt lat="40.38487570781941" lon="9.083326618404822"><ele>284.75</ele><time>2026-04-11T10:47:41Z</time></trkpt><trkpt lat="40.38497359334982" lon="9.083207030964866"><ele>282.5</ele><time>2026-04-11T10:47:42Z</time></trkpt><trkpt lat="40.38510636977096" lon="9.083148020750443"><ele>280.25</ele><time>2026-04-11T10:47:43Z</time></trkpt><trkpt lat="40.38525298055824" lon="9.083114805580566"><ele>278.0</ele><time>2026-04-11T10:47:44Z</time></trkpt><trkpt lat="40.385419809078336" lon="9.083074482913721"><ele>277.0</ele><time>2026-04-11T10:47:45Z</time></trkpt><trkpt lat="40.3856128935954" lon="9.083068916982317"><ele>276.0</ele><time>2026-04-11T10:47:46Z</time></trkpt><trkpt lat="40.38581770984004" lon="9.083043807617074"><ele>275.0</ele><time>2026-04-11T10:47:47Z</time></trkpt><trkpt lat="40.3860260299419" lon="9.083016923099564"><ele>275.0</ele><time>2026-04-11T10:47:48Z</time></trkpt><trkpt lat="40.38622563479597" lon="9.082988772219213"><ele>275.0</ele><time>2026-04-11T10:47:49Z</time></trkpt><trkpt lat="40.386410061511555" lon="9.08296630778391"><ele>275.0</ele><time>2026-04-11T10:47:50Z</time></trkpt><trkpt lat="40.386577317061146" lon="9.082948486177884"><ele>274.6666666666667</ele><time>2026-04-11T10:47:51Z</time></trkpt><trkpt lat="40.3867249143158" lon="9.082904344975173"><ele>274.3333333333333</ele><time>2026-04-11T10:47:52Z</time></trkpt><trkpt lat="40.38685966682383" lon="9.082819505201257"><ele>274.0</ele><time>2026-04-11T10:47:53Z</time></trkpt><trkpt lat="40.38696985851557" lon="9.082684489437343"><ele>274.0</ele><time>2026-04-11T10:47:54Z</time></trkpt><trkpt lat="40.38704754363194" lon="9.082511519552554"><ele>274.0</ele><time>2026-04-11T10:47:55Z</time></trkpt><trkpt lat="40.38709093719627" lon="9.08229612327209"><ele>274.0</ele><time>2026-04-11T10:47:56Z</time></trkpt><trkpt lat="40.387116158985215" lon="9.082050825611807"><ele>274.66666666666663</ele><time>2026-04-11T10:47:57Z</time></trkpt><trkpt lat="40.387132630077" lon="9.081794082104954"><ele>275.3333333333333</ele><time>2026-04-11T10:47:58Z</time></trkpt><trkpt lat="40.38714669930796" lon="9.081532353278831"><ele>276.0</ele><time>2026-04-11T10:47:59Z</time></trkpt><trkpt lat="40.38716008748955" lon="9.081252320938479"><ele>278.0</ele><time>2026-04-11T10:48:00Z</time></trkpt><trkpt lat="40.387158457687924" lon="9.08096080720959"><ele>280.0</ele><time>2026-04-11T10:48:01Z</time></trkpt><trkpt lat="40.387172810038365" lon="9.080684193526144"><ele>282.0</ele><time>2026-04-11T10:48:02Z</time></trkpt><trkpt lat="40.38718174302697" lon="9.080434719079237"><ele>282.6666666666667</ele><time>2026-04-11T10:48:03Z</time></trkpt><trkpt lat="40.38719308975657" lon="9.080209294986002"><ele>283.33333333333337</ele><time>2026-04-11T10:48:04Z</time></trkpt><trkpt lat="40.387223742097646" lon="9.079998773277804"><ele>284.0</ele><time>2026-04-11T10:48:05Z</time></trkpt><trkpt lat="40.387289975563164" lon="9.079799337120699"><ele>284.0</ele><time>2026-04-11T10:48:06Z</time></trkpt><trkpt lat="40.38739549941225" lon="9.07961990781405"><ele>284.0</ele><time>2026-04-11T10:48:07Z</time></trkpt><trkpt lat="40.38754120810827" lon="9.07946981229825"><ele>284.0</ele><time>2026-04-11T10:48:08Z</time></trkpt><trkpt lat="40.38770238743798" lon="9.079324173648045"><ele>284.0</ele><time>2026-04-11T10:48:09Z</time></trkpt><trkpt lat="40.38787579815723" lon="9.079169682761226"><ele>284.0</ele><time>2026-04-11T10:48:10Z</time></trkpt><trkpt lat="40.38805606439245" lon="9.079005500218807"><ele>284.0</ele><time>2026-04-11T10:48:11Z</time></trkpt><trkpt lat="40.38823481131427" lon="9.078838479654728"><ele>283.33333333333337</ele><time>2026-04-11T10:48:12Z</time></trkpt><trkpt lat="40.38840511263901" lon="9.078684563264828"><ele>282.6666666666667</ele><time>2026-04-11T10:48:13Z</time></trkpt><trkpt lat="40.388582026903336" lon="9.078535429847806"><ele>282.0</ele><time>2026-04-11T10:48:14Z</time></trkpt><trkpt lat="40.38875298495659" lon="9.078409745308047"><ele>282.3333333333333</ele><time>2026-04-11T10:48:15Z</time></trkpt><trkpt lat="40.38892024278769" lon="9.078285487105502"><ele>282.66666666666663</ele><time>2026-04-11T10:48:16Z</time></trkpt><trkpt lat="40.389080883054625" lon="9.078164305419103"><ele>283.0</ele><time>2026-04-11T10:48:17Z</time></trkpt><trkpt lat="40.389238514422914" lon="9.078044267847027"><ele>282.0</ele><time>2026-04-11T10:48:18Z</time></trkpt><trkpt lat="40.38938878895251" lon="9.077928236414632"><ele>281.0</ele><time>2026-04-11T10:48:19Z</time></trkpt><trkpt lat="40.38953929746284" lon="9.077814691355865"><ele>280.0</ele><time>2026-04-11T10:48:20Z</time></trkpt><trkpt lat="40.38968981534581" lon="9.077702049493883"><ele>279.0</ele><time>2026-04-11T10:48:21Z</time></trkpt><trkpt lat="40.38983665563414" lon="9.077593457891718"><ele>278.0</ele><time>2026-04-11T10:48:22Z</time></trkpt><trkpt lat="40.3899834079988" lon="9.077488525667103"><ele>277.0</ele><time>2026-04-11T10:48:23Z</time></trkpt><trkpt lat="40.39013061137828" lon="9.077385947764794"><ele>275.3333333333333</ele><time>2026-04-11T10:48:24Z</time></trkpt><trkpt lat="40.39027246824726" lon="9.07728287057521"><ele>273.6666666666667</ele><time>2026-04-11T10:48:25Z</time></trkpt><trkpt lat="40.39041312597318" lon="9.077177118621476"><ele>272.0</ele><time>2026-04-11T10:48:26Z</time></trkpt><trkpt lat="40.39053960623919" lon="9.07706097296374"><ele>270.6666666666667</ele><time>2026-04-11T10:48:27Z</time></trkpt><trkpt lat="40.390645398237325" lon="9.07692071698319"><ele>269.3333333333333</ele><time>2026-04-11T10:48:28Z</time></trkpt><trkpt lat="40.39073522007592" lon="9.076765027942079"><ele>268.0</ele><time>2026-04-11T10:48:29Z</time></trkpt><trkpt lat="40.390822586673295" lon="9.076602949729068"><ele>267.0</ele><time>2026-04-11T10:48:30Z</time></trkpt><trkpt lat="40.390904169994684" lon="9.076440560332134"><ele>266.0</ele><time>2026-04-11T10:48:31Z</time></trkpt><trkpt lat="40.39096638888814" lon="9.076265656104509"><ele>265.0</ele><time>2026-04-11T10:48:32Z</time></trkpt><trkpt lat="40.390996437112" lon="9.076083562321895"><ele>264.0</ele><time>2026-04-11T10:48:33Z</time></trkpt><trkpt lat="40.3910060415471" lon="9.075898511938346"><ele>262.3333333333333</ele><time>2026-04-11T10:48:34Z</time></trkpt><trkpt lat="40.39100094487755" lon="9.075706274122176"><ele>260.66666666666663</ele><time>2026-04-11T10:48:35Z</time></trkpt><trkpt lat="40.39099100132393" lon="9.075502781943282"><ele>259.0</ele><time>2026-04-11T10:48:36Z</time></trkpt><trkpt lat="40.39099126911918" lon="9.075293021003809"><ele>259.0</ele><time>2026-04-11T10:48:37Z</time></trkpt><trkpt lat="40.390996873918226" lon="9.075081999109122"><ele>259.0</ele><time>2026-04-11T10:48:38Z</time></trkpt><trkpt lat="40.390999136971374" lon="9.074867064635498"><ele>259.0</ele><time>2026-04-11T10:48:39Z</time></trkpt><trkpt lat="40.3909957496885" lon="9.074650736727339"><ele>258.0</ele><time>2026-04-11T10:48:40Z</time></trkpt><trkpt lat="40.39099193688057" lon="9.074433339374194"><ele>257.0</ele><time>2026-04-11T10:48:41Z</time></trkpt><trkpt lat="40.39098971441646" lon="9.074226439240505"><ele>256.0</ele><time>2026-04-11T10:48:42Z</time></trkpt><trkpt lat="40.39098768061381" lon="9.074013413938518"><ele>255.33333333333331</ele><time>2026-04-11T10:48:43Z</time></trkpt><trkpt lat="40.39098586993858" lon="9.073787846588505"><ele>254.66666666666669</ele><time>2026-04-11T10:48:44Z</time></trkpt><trkpt lat="40.39098378732613" lon="9.07355313071916"><ele>254.0</ele><time>2026-04-11T10:48:45Z</time></trkpt><trkpt lat="40.39098512776856" lon="9.07330457380624"><ele>252.66666666666669</ele><time>2026-04-11T10:48:46Z</time></trkpt><trkpt lat="40.39098444260609" lon="9.073035024090524"><ele>251.33333333333331</ele><time>2026-04-11T10:48:47Z</time></trkpt><trkpt lat="40.39097915837258" lon="9.072767798293457"><ele>250.0</ele><time>2026-04-11T10:48:48Z</time></trkpt><trkpt lat="40.39099066837665" lon="9.072483246633686"><ele>248.0</ele><time>2026-04-11T10:48:49Z</time></trkpt><trkpt lat="40.39096630870925" lon="9.072191640154102"><ele>246.0</ele><time>2026-04-11T10:48:50Z</time></trkpt><trkpt lat="40.390955933351286" lon="9.071891599779224"><ele>244.5</ele><time>2026-04-11T10:48:51Z</time></trkpt><trkpt lat="40.39095828673342" lon="9.071583708730664"><ele>243.0</ele><time>2026-04-11T10:48:52Z</time></trkpt><trkpt lat="40.390944827554485" lon="9.071273629700556"><ele>243.0</ele><time>2026-04-11T10:48:53Z</time></trkpt><trkpt lat="40.390931624197464" lon="9.070965057643992"><ele>243.0</ele><time>2026-04-11T10:48:54Z</time></trkpt><trkpt lat="40.39090682264479" lon="9.070653996274519"><ele>240.5</ele><time>2026-04-11T10:48:55Z</time></trkpt><trkpt lat="40.390895106483036" lon="9.070340100056919"><ele>238.0</ele><time>2026-04-11T10:48:56Z</time></trkpt><trkpt lat="40.39087874231915" lon="9.070034322315653"><ele>238.0</ele><time>2026-04-11T10:48:57Z</time></trkpt><trkpt lat="40.39086443250686" lon="9.069736047906167"><ele>238.0</ele><time>2026-04-11T10:48:58Z</time></trkpt><trkpt lat="40.39085194192439" lon="9.069436838169432"><ele>238.0</ele><time>2026-04-11T10:48:59Z</time></trkpt><trkpt lat="40.39085394126058" lon="9.069137232561097"><ele>238.0</ele><time>2026-04-11T10:49:00Z</time></trkpt><trkpt lat="40.39083732099529" lon="9.068846266665865"><ele>237.33333333333331</ele><time>2026-04-11T10:49:01Z</time></trkpt><trkpt lat="40.39081580990314" lon="9.068571376205806"><ele>236.66666666666669</ele><time>2026-04-11T10:49:02Z</time></trkpt><trkpt lat="40.3907799739305" lon="9.068307373471436"><ele>236.0</ele><time>2026-04-11T10:49:03Z</time></trkpt><trkpt lat="40.3907631151287" lon="9.068053522967485"><ele>234.66666666666669</ele><time>2026-04-11T10:49:04Z</time></trkpt><trkpt lat="40.39076165216901" lon="9.067824751348251"><ele>233.33333333333331</ele><time>2026-04-11T10:49:05Z</time></trkpt><trkpt lat="40.3908126243965" lon="9.067612359589456"><ele>232.0</ele><time>2026-04-11T10:49:06Z</time></trkpt><trkpt lat="40.39087980067374" lon="9.067392828756423"><ele>229.33333333333331</ele><time>2026-04-11T10:49:07Z</time></trkpt><trkpt lat="40.390985691601806" lon="9.067169630030628"><ele>226.66666666666669</ele><time>2026-04-11T10:49:08Z</time></trkpt><trkpt lat="40.3910825518985" lon="9.066926670488693"><ele>224.0</ele><time>2026-04-11T10:49:09Z</time></trkpt><trkpt lat="40.39119880267176" lon="9.066685749543172"><ele>225.0</ele><time>2026-04-11T10:49:10Z</time></trkpt><trkpt lat="40.39131184368127" lon="9.066449817137956"><ele>226.0</ele><time>2026-04-11T10:49:11Z</time></trkpt><trkpt lat="40.39141745477584" lon="9.066231062803036"><ele>227.0</ele><time>2026-04-11T10:49:12Z</time></trkpt><trkpt lat="40.39151628992348" lon="9.066019833367159"><ele>230.0</ele><time>2026-04-11T10:49:13Z</time></trkpt><trkpt lat="40.3916039065225" lon="9.06580218466293"><ele>233.0</ele><time>2026-04-11T10:49:14Z</time></trkpt><trkpt lat="40.391658142137864" lon="9.065570281029382"><ele>236.0</ele><time>2026-04-11T10:49:15Z</time></trkpt><trkpt lat="40.39167030082415" lon="9.06532167145874"><ele>237.33333333333334</ele><time>2026-04-11T10:49:16Z</time></trkpt><trkpt lat="40.39163628053726" lon="9.065056064304802"><ele>238.66666666666669</ele><time>2026-04-11T10:49:17Z</time></trkpt><trkpt lat="40.391614915382455" lon="9.064773627664628"><ele>240.0</ele><time>2026-04-11T10:49:18Z</time></trkpt><trkpt lat="40.391591112992515" lon="9.064485477283414"><ele>242.5</ele><time>2026-04-11T10:49:19Z</time></trkpt><trkpt lat="40.39156660882238" lon="9.064188995242542"><ele>245.0</ele><time>2026-04-11T10:49:20Z</time></trkpt><trkpt lat="40.39152764025849" lon="9.06389323942864"><ele>247.5</ele><time>2026-04-11T10:49:21Z</time></trkpt><trkpt lat="40.391505375216816" lon="9.063594775814371"><ele>250.0</ele><time>2026-04-11T10:49:22Z</time></trkpt><trkpt lat="40.391478835072014" lon="9.063300856433592"><ele>251.0</ele><time>2026-04-11T10:49:23Z</time></trkpt><trkpt lat="40.39147792246025" lon="9.063026270454468"><ele>252.0</ele><time>2026-04-11T10:49:24Z</time></trkpt><trkpt lat="40.39146453089597" lon="9.062769311005354"><ele>253.0</ele><time>2026-04-11T10:49:25Z</time></trkpt><trkpt lat="40.39151655389638" lon="9.06253375095975"><ele>253.66666666666666</ele><time>2026-04-11T10:49:26Z</time></trkpt><trkpt lat="40.391597518170265" lon="9.062357525077607"><ele>254.33333333333331</ele><time>2026-04-11T10:49:27Z</time></trkpt><trkpt lat="40.39170944602032" lon="9.06223764367723"><ele>255.0</ele><time>2026-04-11T10:49:28Z</time></trkpt><trkpt lat="40.39184307580177" lon="9.062141578231468"><ele>255.0</ele><time>2026-04-11T10:49:29Z</time></trkpt><trkpt lat="40.392015630747615" lon="9.062096176946238"><ele>255.0</ele><time>2026-04-11T10:49:30Z</time></trkpt><trkpt lat="40.392204929001686" lon="9.062083806464923"><ele>255.0</ele><time>2026-04-11T10:49:31Z</time></trkpt><trkpt lat="40.39239542452237" lon="9.062056823312405"><ele>256.6666666666667</ele><time>2026-04-11T10:49:32Z</time></trkpt><trkpt lat="40.39260347524392" lon="9.062029825082604"><ele>258.33333333333337</ele><time>2026-04-11T10:49:33Z</time></trkpt><trkpt lat="40.39280778105575" lon="9.061999710955915"><ele>260.0</ele><time>2026-04-11T10:49:34Z</time></trkpt><trkpt lat="40.39304007267819" lon="9.061971475391486"><ele>261.0</ele><time>2026-04-11T10:49:35Z</time></trkpt><trkpt lat="40.39326383889015" lon="9.061930716295127"><ele>262.0</ele><time>2026-04-11T10:49:36Z</time></trkpt><trkpt lat="40.39347795576256" lon="9.06190607325109"><ele>263.0</ele><time>2026-04-11T10:49:37Z</time></trkpt><trkpt lat="40.39366688548919" lon="9.061855039006202"><ele>263.0</ele><time>2026-04-11T10:49:38Z</time></trkpt><trkpt lat="40.3938328349543" lon="9.061737025414178"><ele>263.0</ele><time>2026-04-11T10:49:39Z</time></trkpt><trkpt lat="40.393973283556804" lon="9.06157813029133"><ele>263.0</ele><time>2026-04-11T10:49:40Z</time></trkpt><trkpt lat="40.39409979291218" lon="9.061385417992652"><ele>265.6666666666667</ele><time>2026-04-11T10:49:41Z</time></trkpt><trkpt lat="40.394240220130214" lon="9.061176521024857"><ele>268.3333333333333</ele><time>2026-04-11T10:49:42Z</time></trkpt><trkpt lat="40.394345770709144" lon="9.0609270198127"><ele>271.0</ele><time>2026-04-11T10:49:43Z</time></trkpt><trkpt lat="40.39446004803061" lon="9.060703370316658"><ele>273.3333333333333</ele><time>2026-04-11T10:49:44Z</time></trkpt><trkpt lat="40.39458835650726" lon="9.060561891546877"><ele>275.6666666666667</ele><time>2026-04-11T10:49:45Z</time></trkpt><trkpt lat="40.39474103560837" lon="9.060461834464446"><ele>278.0</ele><time>2026-04-11T10:49:46Z</time></trkpt><trkpt lat="40.394927767639736" lon="9.06035223912979"><ele>278.0</ele><time>2026-04-11T10:49:47Z</time></trkpt><trkpt lat="40.395127500500834" lon="9.060235163740112"><ele>278.0</ele><time>2026-04-11T10:49:48Z</time></trkpt><trkpt lat="40.395336764894964" lon="9.06011145636465"><ele>278.0</ele><time>2026-04-11T10:49:49Z</time></trkpt><trkpt lat="40.395556242174166" lon="9.059981287937296"><ele>279.0</ele><time>2026-04-11T10:49:50Z</time></trkpt><trkpt lat="40.39577902798025" lon="9.059849157287836"><ele>280.0</ele><time>2026-04-11T10:49:51Z</time></trkpt><trkpt lat="40.395987435810014" lon="9.059701626000129"><ele>280.0</ele><time>2026-04-11T10:49:52Z</time></trkpt><trkpt lat="40.396208307342974" lon="9.059593344188594"><ele>280.0</ele><time>2026-04-11T10:49:53Z</time></trkpt><trkpt lat="40.39641843777893" lon="9.059468615514772"><ele>281.0</ele><time>2026-04-11T10:49:54Z</time></trkpt><trkpt lat="40.39662662046873" lon="9.059344777977783"><ele>282.0</ele><time>2026-04-11T10:49:55Z</time></trkpt><trkpt lat="40.39683032754088" lon="9.059221823656705"><ele>283.0</ele><time>2026-04-11T10:49:56Z</time></trkpt><trkpt lat="40.3970400683265" lon="9.05909820601858"><ele>284.0</ele><time>2026-04-11T10:49:57Z</time></trkpt><trkpt lat="40.397246089725854" lon="9.058955489059013"><ele>284.5</ele><time>2026-04-11T10:49:58Z</time></trkpt><trkpt lat="40.39746272696861" lon="9.058827417222986"><ele>285.0</ele><time>2026-04-11T10:49:59Z</time></trkpt><trkpt lat="40.39768606195286" lon="9.058700201972442"><ele>285.0</ele><time>2026-04-11T10:50:00Z</time></trkpt><trkpt lat="40.39789895493809" lon="9.058580714977872"><ele>285.0</ele><time>2026-04-11T10:50:01Z</time></trkpt><trkpt lat="40.398091610512274" lon="9.058463514688627"><ele>285.0</ele><time>2026-04-11T10:50:02Z</time></trkpt><trkpt lat="40.39825567729628" lon="9.05833485686579"><ele>287.3333333333333</ele><time>2026-04-11T10:50:03Z</time></trkpt><trkpt lat="40.39835950962835" lon="9.058144116556788"><ele>289.66666666666663</ele><time>2026-04-11T10:50:04Z</time></trkpt><trkpt lat="40.39842189980764" lon="9.05792359501351"><ele>292.0</ele><time>2026-04-11T10:50:05Z</time></trkpt><trkpt lat="40.398439113685" lon="9.057680853737505"><ele>292.66666666666663</ele><time>2026-04-11T10:50:06Z</time></trkpt><trkpt lat="40.39840850236143" lon="9.05740895688078"><ele>293.3333333333333</ele><time>2026-04-11T10:50:07Z</time></trkpt><trkpt lat="40.39833263638106" lon="9.057135826648082"><ele>294.0</ele><time>2026-04-11T10:50:08Z</time></trkpt><trkpt lat="40.39823982472673" lon="9.056863662929814"><ele>298.0</ele><time>2026-04-11T10:50:09Z</time></trkpt><trkpt lat="40.398156381994134" lon="9.056568174490984"><ele>302.0</ele><time>2026-04-11T10:50:10Z</time></trkpt><trkpt lat="40.39807641978976" lon="9.056259221659895"><ele>296.0</ele><time>2026-04-11T10:50:11Z</time></trkpt><trkpt lat="40.397993321112715" lon="9.055937226598534"><ele>290.0</ele><time>2026-04-11T10:50:12Z</time></trkpt><trkpt lat="40.39791039692502" lon="9.055618925172732"><ele>290.0</ele><time>2026-04-11T10:50:13Z</time></trkpt><trkpt lat="40.39782109547862" lon="9.055310502947126"><ele>290.0</ele><time>2026-04-11T10:50:14Z</time></trkpt><trkpt lat="40.39772589714619" lon="9.055007080465801"><ele>295.5</ele><time>2026-04-11T10:50:15Z</time></trkpt><trkpt lat="40.397621319732345" lon="9.05471450692701"><ele>301.0</ele><time>2026-04-11T10:50:16Z</time></trkpt><trkpt lat="40.397507766708486" lon="9.054450001691812"><ele>301.0</ele><time>2026-04-11T10:50:17Z</time></trkpt><trkpt lat="40.39739691788626" lon="9.054223943067424"><ele>301.0</ele><time>2026-04-11T10:50:18Z</time></trkpt><trkpt lat="40.397361154929044" lon="9.054002025883884"><ele>301.0</ele><time>2026-04-11T10:50:19Z</time></trkpt><trkpt lat="40.3973610775861" lon="9.053807537903893"><ele>301.75</ele><time>2026-04-11T10:50:20Z</time></trkpt><trkpt lat="40.397391208437746" lon="9.05360395473851"><ele>302.5</ele><time>2026-04-11T10:50:21Z</time></trkpt><trkpt lat="40.39745658794328" lon="9.053442069985948"><ele>303.25</ele><time>2026-04-11T10:50:22Z</time></trkpt><trkpt lat="40.39749436363884" lon="9.053300225593299"><ele>304.0</ele><time>2026-04-11T10:50:23Z</time></trkpt><trkpt lat="40.397553239104894" lon="9.05320741338104"><ele>304.5</ele><time>2026-04-11T10:50:24Z</time></trkpt><trkpt lat="40.39759118439356" lon="9.053124799042225"><ele>305.0</ele><time>2026-04-11T10:50:25Z</time></trkpt><trkpt lat="40.39762169276032" lon="9.053041446491127"><ele>305.5</ele><time>2026-04-11T10:50:26Z</time></trkpt><trkpt lat="40.397731431435204" lon="9.053000988882856"><ele>306.0</ele><time>2026-04-11T10:50:27Z</time></trkpt><trkpt lat="40.39778760745331" lon="9.052926141943878"><ele>306.5</ele><time>2026-04-11T10:50:28Z</time></trkpt><trkpt lat="40.397844424642685" lon="9.052848068676987"><ele>307.0</ele><time>2026-04-11T10:50:29Z</time></trkpt><trkpt lat="40.39790510170332" lon="9.052769563460688"><ele>307.0</ele><time>2026-04-11T10:50:30Z</time></trkpt><trkpt lat="40.397965370720584" lon="9.052686062741909"><ele>307.0</ele><time>2026-04-11T10:50:31Z</time></trkpt><trkpt lat="40.39802807923531" lon="9.05260108815669"><ele>307.0</ele><time>2026-04-11T10:50:32Z</time></trkpt><trkpt lat="40.39809099008784" lon="9.05251550028727"><ele>307.0</ele><time>2026-04-11T10:50:33Z</time></trkpt><trkpt lat="40.39815092615897" lon="9.052431387885353"><ele>307.0</ele><time>2026-04-11T10:50:34Z</time></trkpt><trkpt lat="40.39819944278011" lon="9.052333570910942"><ele>307.0</ele><time>2026-04-11T10:50:35Z</time></trkpt><trkpt lat="40.39824646431842" lon="9.05222089088633"><ele>309.0</ele><time>2026-04-11T10:50:36Z</time></trkpt><trkpt lat="40.39839288254364" lon="9.052124019138876"><ele>311.0</ele><time>2026-04-11T10:50:37Z</time></trkpt><trkpt lat="40.398505459270986" lon="9.051967829329586"><ele>313.0</ele><time>2026-04-11T10:50:38Z</time></trkpt><trkpt lat="40.398631495104944" lon="9.051796110401396"><ele>314.0</ele><time>2026-04-11T10:50:39Z</time></trkpt><trkpt lat="40.39876526929514" lon="9.05160829004153"><ele>315.0</ele><time>2026-04-11T10:50:40Z</time></trkpt><trkpt lat="40.39889499499119" lon="9.051420648406928"><ele>316.0</ele><time>2026-04-11T10:50:41Z</time></trkpt><trkpt lat="40.39903107599957" lon="9.051221985995474"><ele>317.66666666666663</ele><time>2026-04-11T10:50:42Z</time></trkpt><trkpt lat="40.39917049483008" lon="9.051018568965427"><ele>319.3333333333333</ele><time>2026-04-11T10:50:43Z</time></trkpt><trkpt lat="40.39930302542327" lon="9.050801994590124"><ele>321.0</ele><time>2026-04-11T10:50:44Z</time></trkpt><trkpt lat="40.399436022610466" lon="9.050585282821723"><ele>321.0</ele><time>2026-04-11T10:50:45Z</time></trkpt><trkpt lat="40.39957368400236" lon="9.050376549663683"><ele>321.0</ele><time>2026-04-11T10:50:46Z</time></trkpt><trkpt lat="40.399705576601484" lon="9.050177395783638"><ele>321.0</ele><time>2026-04-11T10:50:47Z</time></trkpt><trkpt lat="40.39982374609278" lon="9.049989666901034"><ele>322.0</ele><time>2026-04-11T10:50:48Z</time></trkpt><trkpt lat="40.39993218619131" lon="9.049822171050625"><ele>323.0</ele><time>2026-04-11T10:50:49Z</time></trkpt><trkpt lat="40.40003654646513" lon="9.049673857635277"><ele>324.0</ele><time>2026-04-11T10:50:50Z</time></trkpt><trkpt lat="40.40016142061988" lon="9.04954258783435"><ele>324.0</ele><time>2026-04-11T10:50:51Z</time></trkpt><trkpt lat="40.40031675478746" lon="9.049416587370121"><ele>324.0</ele><time>2026-04-11T10:50:52Z</time></trkpt><trkpt lat="40.40048795697333" lon="9.04928494643741"><ele>324.0</ele><time>2026-04-11T10:50:53Z</time></trkpt><trkpt lat="40.40067216843075" lon="9.049165672366067"><ele>324.3333333333333</ele><time>2026-04-11T10:50:54Z</time></trkpt><trkpt lat="40.40087469275004" lon="9.049072971643412"><ele>324.66666666666663</ele><time>2026-04-11T10:50:55Z</time></trkpt><trkpt lat="40.40109495694495" lon="9.049006757432728"><ele>325.0</ele><time>2026-04-11T10:50:56Z</time></trkpt><trkpt lat="40.401330537028045" lon="9.048954751098105"><ele>330.0</ele><time>2026-04-11T10:50:57Z</time></trkpt><trkpt lat="40.40157312424885" lon="9.048905463621498"><ele>335.0</ele><time>2026-04-11T10:50:58Z</time></trkpt><trkpt lat="40.40180240674704" lon="9.048860811567662"><ele>335.0</ele><time>2026-04-11T10:50:59Z</time></trkpt><trkpt lat="40.4020069538871" lon="9.048803643040173"><ele>335.0</ele><time>2026-04-11T10:51:00Z</time></trkpt><trkpt lat="40.40220132364632" lon="9.048749867122009"><ele>335.0</ele><time>2026-04-11T10:51:01Z</time></trkpt><trkpt lat="40.40238850535536" lon="9.048688599516224"><ele>339.0</ele><time>2026-04-11T10:51:02Z</time></trkpt><trkpt lat="40.40257501354375" lon="9.048588141593195"><ele>343.0</ele><time>2026-04-11T10:51:03Z</time></trkpt><trkpt lat="40.40276546091341" lon="9.048437852132235"><ele>347.0</ele><time>2026-04-11T10:51:04Z</time></trkpt><trkpt lat="40.40295164192435" lon="9.048256508614998"><ele>353.5</ele><time>2026-04-11T10:51:05Z</time></trkpt><trkpt lat="40.40314507928547" lon="9.04807057380414"><ele>360.0</ele><time>2026-04-11T10:51:06Z</time></trkpt><trkpt lat="40.403347248960735" lon="9.04788864187583"><ele>360.0</ele><time>2026-04-11T10:51:07Z</time></trkpt><trkpt lat="40.403544141624764" lon="9.047716070983045"><ele>360.0</ele><time>2026-04-11T10:51:08Z</time></trkpt><trkpt lat="40.40371978453392" lon="9.047558678420891"><ele>360.0</ele><time>2026-04-11T10:51:09Z</time></trkpt><trkpt lat="40.4038775977793" lon="9.04740416956827"><ele>361.3333333333333</ele><time>2026-04-11T10:51:10Z</time></trkpt><trkpt lat="40.40401437130156" lon="9.047229711508386"><ele>362.66666666666663</ele><time>2026-04-11T10:51:11Z</time></trkpt><trkpt lat="40.404119519938455" lon="9.04701790263008"><ele>364.0</ele><time>2026-04-11T10:51:12Z</time></trkpt><trkpt lat="40.40420151565318" lon="9.046758178342387"><ele>363.5</ele><time>2026-04-11T10:51:13Z</time></trkpt><trkpt lat="40.404284665683825" lon="9.046476671603934"><ele>363.0</ele><time>2026-04-11T10:51:14Z</time></trkpt><trkpt lat="40.40438413337876" lon="9.046193389970096"><ele>363.0</ele><time>2026-04-11T10:51:15Z</time></trkpt><trkpt lat="40.404502392335466" lon="9.045932882075293"><ele>363.0</ele><time>2026-04-11T10:51:16Z</time></trkpt><trkpt lat="40.40464404993956" lon="9.045704859556764"><ele>368.0</ele><time>2026-04-11T10:51:17Z</time></trkpt><trkpt lat="40.404810829314386" lon="9.045492412677197"><ele>373.0</ele><time>2026-04-11T10:51:18Z</time></trkpt><trkpt lat="40.40498651664106" lon="9.045290630382404"><ele>373.0</ele><time>2026-04-11T10:51:19Z</time></trkpt><trkpt lat="40.40516589469823" lon="9.045081458723761"><ele>373.0</ele><time>2026-04-11T10:51:20Z</time></trkpt><trkpt lat="40.40533626157006" lon="9.04486782069454"><ele>375.5</ele><time>2026-04-11T10:51:21Z</time></trkpt><trkpt lat="40.40550070738022" lon="9.044656877438744"><ele>378.0</ele><time>2026-04-11T10:51:22Z</time></trkpt><trkpt lat="40.405657944300884" lon="9.044453717415145"><ele>378.0</ele><time>2026-04-11T10:51:23Z</time></trkpt><trkpt lat="40.40581074537571" lon="9.0442565504389"><ele>378.0</ele><time>2026-04-11T10:51:24Z</time></trkpt><trkpt lat="40.40595952582952" lon="9.044068300733489"><ele>378.0</ele><time>2026-04-11T10:51:25Z</time></trkpt><trkpt lat="40.40609248734309" lon="9.043880448910162"><ele>380.66666666666663</ele><time>2026-04-11T10:51:26Z</time></trkpt><trkpt lat="40.4062009488805" lon="9.043670555266228"><ele>383.3333333333333</ele><time>2026-04-11T10:51:27Z</time></trkpt><trkpt lat="40.40628235763677" lon="9.04344188197968"><ele>386.0</ele><time>2026-04-11T10:51:28Z</time></trkpt><trkpt lat="40.40636173591397" lon="9.043217412384022"><ele>387.66666666666663</ele><time>2026-04-11T10:51:29Z</time></trkpt><trkpt lat="40.40644013919123" lon="9.04300632290703"><ele>389.33333333333337</ele><time>2026-04-11T10:51:30Z</time></trkpt><trkpt lat="40.40651512277548" lon="9.042804652429597"><ele>391.0</ele><time>2026-04-11T10:51:31Z</time></trkpt><trkpt lat="40.40658077829791" lon="9.042606684952919"><ele>391.25</ele><time>2026-04-11T10:51:32Z</time></trkpt><trkpt lat="40.40663804773572" lon="9.042414338237586"><ele>391.5</ele><time>2026-04-11T10:51:33Z</time></trkpt><trkpt lat="40.4066879284766" lon="9.042244093733485"><ele>391.75</ele><time>2026-04-11T10:51:34Z</time></trkpt><trkpt lat="40.40673284435697" lon="9.042087834343556"><ele>392.0</ele><time>2026-04-11T10:51:35Z</time></trkpt><trkpt lat="40.40677701479047" lon="9.04194185715916"><ele>392.0</ele><time>2026-04-11T10:51:36Z</time></trkpt><trkpt lat="40.406832991833035" lon="9.041800747184634"><ele>392.0</ele><time>2026-04-11T10:51:37Z</time></trkpt><trkpt lat="40.40692794731095" lon="9.041697211005648"><ele>392.0</ele><time>2026-04-11T10:51:38Z</time></trkpt><trkpt lat="40.40701283425176" lon="9.04157013736473"><ele>392.0</ele><time>2026-04-11T10:51:39Z</time></trkpt><trkpt lat="40.40713420233876" lon="9.041502879978111"><ele>395.5</ele><time>2026-04-11T10:51:40Z</time></trkpt><trkpt lat="40.407240913224" lon="9.041403092286108"><ele>399.0</ele><time>2026-04-11T10:51:41Z</time></trkpt><trkpt lat="40.407363730134286" lon="9.04133828197959"><ele>402.5</ele><time>2026-04-11T10:51:42Z</time></trkpt><trkpt lat="40.40748105069305" lon="9.04127134535476"><ele>406.0</ele><time>2026-04-11T10:51:43Z</time></trkpt><trkpt lat="40.40758204671394" lon="9.041204722208931"><ele>406.0</ele><time>2026-04-11T10:51:44Z</time></trkpt><trkpt lat="40.40766343125359" lon="9.041145599887228"><ele>406.0</ele><time>2026-04-11T10:51:45Z</time></trkpt><trkpt lat="40.407728026467936" lon="9.041092072781465"><ele>406.0</ele><time>2026-04-11T10:51:46Z</time></trkpt><trkpt lat="40.407797293661154" lon="9.04102203070932"><ele>406.0</ele><time>2026-04-11T10:51:47Z</time></trkpt><trkpt lat="40.407875572426384" lon="9.040919054078085"><ele>406.0</ele><time>2026-04-11T10:51:48Z</time></trkpt><trkpt lat="40.40795821581551" lon="9.040775983160218"><ele>408.33333333333337</ele><time>2026-04-11T10:51:49Z</time></trkpt><trkpt lat="40.40803920387849" lon="9.040615139040993"><ele>410.66666666666663</ele><time>2026-04-11T10:51:50Z</time></trkpt><trkpt lat="40.40812585204252" lon="9.040440389483596"><ele>413.0</ele><time>2026-04-11T10:51:51Z</time></trkpt><trkpt lat="40.40821447944365" lon="9.040261307138444"><ele>413.0</ele><time>2026-04-11T10:51:52Z</time></trkpt><trkpt lat="40.40830584200978" lon="9.040078072846077"><ele>413.0</ele><time>2026-04-11T10:51:53Z</time></trkpt><trkpt lat="40.408404931146485" lon="9.039883166558974"><ele>413.0</ele><time>2026-04-11T10:51:54Z</time></trkpt><trkpt lat="40.408509935245945" lon="9.039679341716564"><ele>416.3333333333333</ele><time>2026-04-11T10:51:55Z</time></trkpt><trkpt lat="40.408616883537825" lon="9.039468888333012"><ele>419.66666666666663</ele><time>2026-04-11T10:51:56Z</time></trkpt><trkpt lat="40.408718683784436" lon="9.03925750139719"><ele>423.0</ele><time>2026-04-11T10:51:57Z</time></trkpt><trkpt lat="40.40881783951129" lon="9.039044850648832"><ele>423.66666666666663</ele><time>2026-04-11T10:51:58Z</time></trkpt><trkpt lat="40.408920313566874" lon="9.038846001591086"><ele>424.3333333333333</ele><time>2026-04-11T10:51:59Z</time></trkpt><trkpt lat="40.409026963440546" lon="9.038660409509216"><ele>425.0</ele><time>2026-04-11T10:52:00Z</time></trkpt><trkpt lat="40.409149840378255" lon="9.038494153670253"><ele>425.0</ele><time>2026-04-11T10:52:01Z</time></trkpt><trkpt lat="40.40929096889848" lon="9.038344221810128"><ele>425.0</ele><time>2026-04-11T10:52:02Z</time></trkpt><trkpt lat="40.40944424403856" lon="9.038208961729799"><ele>425.0</ele><time>2026-04-11T10:52:03Z</time></trkpt><trkpt lat="40.40960184055984" lon="9.038076533937943"><ele>428.0</ele><time>2026-04-11T10:52:04Z</time></trkpt><trkpt lat="40.409762760602156" lon="9.037947364145015"><ele>431.0</ele><time>2026-04-11T10:52:05Z</time></trkpt><trkpt lat="40.40991705717436" lon="9.037819718773246"><ele>434.0</ele><time>2026-04-11T10:52:06Z</time></trkpt><trkpt lat="40.410066545740904" lon="9.03768771519628"><ele>440.0</ele><time>2026-04-11T10:52:07Z</time></trkpt><trkpt lat="40.41035861340759" lon="9.037455211218036"><ele>446.0</ele><time>2026-04-11T10:52:09Z</time></trkpt><trkpt lat="40.41050987481272" lon="9.037345166995221"><ele>446.0</ele><time>2026-04-11T10:52:10Z</time></trkpt><trkpt lat="40.410656390546805" lon="9.037221528390935"><ele>446.0</ele><time>2026-04-11T10:52:11Z</time></trkpt><trkpt lat="40.41079397391355" lon="9.037094191747038"><ele>446.0</ele><time>2026-04-11T10:52:12Z</time></trkpt><trkpt lat="40.410918300824285" lon="9.036964231731929"><ele>446.0</ele><time>2026-04-11T10:52:13Z</time></trkpt><trkpt lat="40.41102250591873" lon="9.036834979617286"><ele>446.0</ele><time>2026-04-11T10:52:14Z</time></trkpt><trkpt lat="40.41112183025487" lon="9.036724401478468"><ele>446.0</ele><time>2026-04-11T10:52:15Z</time></trkpt><trkpt lat="40.411235127348476" lon="9.036676688641755"><ele>446.0</ele><time>2026-04-11T10:52:16Z</time></trkpt><trkpt lat="40.41134029191362" lon="9.036660979108472"><ele>445.99999999999994</ele><time>2026-04-11T10:52:17Z</time></trkpt><trkpt lat="40.411422052982594" lon="9.03670038211705"><ele>446.0</ele><time>2026-04-11T10:52:18Z</time></trkpt><trkpt lat="40.41149300283524" lon="9.03673776335983"><ele>446.0</ele><time>2026-04-11T10:52:19Z</time></trkpt><trkpt lat="40.411558956997155" lon="9.036779856583102"><ele>446.0</ele><time>2026-04-11T10:52:20Z</time></trkpt><trkpt lat="40.41163798044837" lon="9.036806699143359"><ele>445.99999999999994</ele><time>2026-04-11T10:52:21Z</time></trkpt><trkpt lat="40.41171428317323" lon="9.036857771529808"><ele>446.0</ele><time>2026-04-11T10:52:22Z</time></trkpt><trkpt lat="40.41179702971339" lon="9.03690691832645"><ele>445.99999999999994</ele><time>2026-04-11T10:52:23Z</time></trkpt><trkpt lat="40.41188343919094" lon="9.036955055961268"><ele>446.0</ele><time>2026-04-11T10:52:24Z</time></trkpt><trkpt lat="40.411967365780576" lon="9.03701152094298"><ele>446.0</ele><time>2026-04-11T10:52:25Z</time></trkpt><trkpt lat="40.412046693959695" lon="9.037059458384741"><ele>446.0</ele><time>2026-04-11T10:52:26Z</time></trkpt><trkpt lat="40.41210380973664" lon="9.03711712947103"><ele>445.99999999999994</ele><time>2026-04-11T10:52:27Z</time></trkpt><trkpt lat="40.41219085595133" lon="9.03715671921621"><ele>446.0</ele><time>2026-04-11T10:52:29Z</time></trkpt><trkpt lat="40.41226892104383" lon="9.037146506151624"><ele>447.16666666666663</ele><time>2026-04-11T10:52:31Z</time></trkpt><trkpt lat="40.4123305172604" lon="9.037118892950497"><ele>448.3333333333333</ele><time>2026-04-11T10:52:33Z</time></trkpt><trkpt lat="40.412424813993574" lon="9.037036665867369"><ele>449.5</ele><time>2026-04-11T10:52:35Z</time></trkpt><trkpt lat="40.412462649682716" lon="9.03695295079769"><ele>450.66666666666663</ele><time>2026-04-11T10:52:36Z</time></trkpt><trkpt lat="40.412514355577635" lon="9.036882500126444"><ele>451.8333333333333</ele><time>2026-04-11T10:52:37Z</time></trkpt><trkpt lat="40.41255623358963" lon="9.036804896553571"><ele>453.0</ele><time>2026-04-11T10:52:38Z</time></trkpt><trkpt lat="40.41258987788414" lon="9.036714527997772"><ele>453.1666666666667</ele><time>2026-04-11T10:52:39Z</time></trkpt><trkpt lat="40.412615808132486" lon="9.03661284637331"><ele>453.33333333333337</ele><time>2026-04-11T10:52:40Z</time></trkpt><trkpt lat="40.4126433817261" lon="9.036505856881574"><ele>453.5</ele><time>2026-04-11T10:52:41Z</time></trkpt><trkpt lat="40.41268015155143" lon="9.036400736856134"><ele>453.6666666666667</ele><time>2026-04-11T10:52:42Z</time></trkpt><trkpt lat="40.41271684260434" lon="9.036291683091275"><ele>453.83333333333337</ele><time>2026-04-11T10:52:43Z</time></trkpt><trkpt lat="40.41274947751945" lon="9.03617930493136"><ele>454.0</ele><time>2026-04-11T10:52:44Z</time></trkpt><trkpt lat="40.4127807947097" lon="9.036069299557548"><ele>454.0</ele><time>2026-04-11T10:52:45Z</time></trkpt><trkpt lat="40.41281522889146" lon="9.035959203672194"><ele>454.0</ele><time>2026-04-11T10:52:46Z</time></trkpt><trkpt lat="40.41285534794904" lon="9.035847854339016"><ele>454.0</ele><time>2026-04-11T10:52:47Z</time></trkpt><trkpt lat="40.41289094125161" lon="9.03573176941435"><ele>454.0</ele><time>2026-04-11T10:52:48Z</time></trkpt><trkpt lat="40.41292343219513" lon="9.035612365477904"><ele>454.0</ele><time>2026-04-11T10:52:49Z</time></trkpt><trkpt lat="40.4129572652608" lon="9.035491261338956"><ele>456.0</ele><time>2026-04-11T10:52:50Z</time></trkpt><trkpt lat="40.412994821911845" lon="9.035370685760869"><ele>458.0</ele><time>2026-04-11T10:52:51Z</time></trkpt><trkpt lat="40.413033299131634" lon="9.03525146343842"><ele>460.0</ele><time>2026-04-11T10:52:52Z</time></trkpt><trkpt lat="40.4130664730369" lon="9.035129722348005"><ele>462.0</ele><time>2026-04-11T10:52:53Z</time></trkpt><trkpt lat="40.4131010936002" lon="9.03500015652117"><ele>464.0</ele><time>2026-04-11T10:52:54Z</time></trkpt><trkpt lat="40.413139980324445" lon="9.034865804900656"><ele>466.25</ele><time>2026-04-11T10:52:55Z</time></trkpt><trkpt lat="40.41318333539442" lon="9.03472848487973"><ele>468.5</ele><time>2026-04-11T10:52:56Z</time></trkpt><trkpt lat="40.413232748718585" lon="9.034588289886038"><ele>470.75</ele><time>2026-04-11T10:52:57Z</time></trkpt><trkpt lat="40.41328678481281" lon="9.034446066292448"><ele>473.0</ele><time>2026-04-11T10:52:58Z</time></trkpt><trkpt lat="40.41334694752064" lon="9.034307696179834"><ele>473.0</ele><time>2026-04-11T10:52:59Z</time></trkpt><trkpt lat="40.413401983061675" lon="9.034170143963426"><ele>473.0</ele><time>2026-04-11T10:53:00Z</time></trkpt><trkpt lat="40.41345501208005" lon="9.034033160578478"><ele>473.0</ele><time>2026-04-11T10:53:01Z</time></trkpt><trkpt lat="40.41350589688213" lon="9.033890815094187"><ele>473.0</ele><time>2026-04-11T10:53:02Z</time></trkpt><trkpt lat="40.41356104338223" lon="9.033748878460667"><ele>474.25</ele><time>2026-04-11T10:53:03Z</time></trkpt><trkpt lat="40.41361700790891" lon="9.033607652127435"><ele>475.5</ele><time>2026-04-11T10:53:04Z</time></trkpt><trkpt lat="40.41367259731914" lon="9.033465441014494"><ele>476.75</ele><time>2026-04-11T10:53:05Z</time></trkpt><trkpt lat="40.41372604788649" lon="9.033330452446652"><ele>478.0</ele><time>2026-04-11T10:53:06Z</time></trkpt><trkpt lat="40.41377642545543" lon="9.03319958655809"><ele>483.4</ele><time>2026-04-11T10:53:07Z</time></trkpt><trkpt lat="40.413827372095206" lon="9.033071767290066"><ele>488.79999999999995</ele><time>2026-04-11T10:53:08Z</time></trkpt><trkpt lat="40.41387506178233" lon="9.032946684958894"><ele>494.2</ele><time>2026-04-11T10:53:09Z</time></trkpt><trkpt lat="40.413923460617966" lon="9.032815617595372"><ele>499.6</ele><time>2026-04-11T10:53:10Z</time></trkpt><trkpt lat="40.41396533967826" lon="9.032680164501143"><ele>505.0</ele><time>2026-04-11T10:53:11Z</time></trkpt><trkpt lat="40.41400283064379" lon="9.032540780757452"><ele>503.6</ele><time>2026-04-11T10:53:12Z</time></trkpt><trkpt lat="40.41403175837106" lon="9.032398761626126"><ele>502.2</ele><time>2026-04-11T10:53:13Z</time></trkpt><trkpt lat="40.41405556025322" lon="9.032253870486356"><ele>500.79999999999995</ele><time>2026-04-11T10:53:14Z</time></trkpt><trkpt lat="40.41407236535522" lon="9.032111172221095"><ele>499.4</ele><time>2026-04-11T10:53:15Z</time></trkpt><trkpt lat="40.41407573563946" lon="9.03197860864426"><ele>498.0</ele><time>2026-04-11T10:53:16Z</time></trkpt><trkpt lat="40.41407413498863" lon="9.031868886046345"><ele>498.0</ele><time>2026-04-11T10:53:17Z</time></trkpt><trkpt lat="40.41404803336306" lon="9.031790703518707"><ele>498.0</ele><time>2026-04-11T10:53:18Z</time></trkpt><trkpt lat="40.41410682363973" lon="9.031704248598851"><ele>498.0</ele><time>2026-04-11T10:53:20Z</time></trkpt><trkpt lat="40.4140400328865" lon="9.031720095405507"><ele>498.0</ele><time>2026-04-11T10:54:01Z</time></trkpt><trkpt lat="40.41402387216389" lon="9.031904048835296"><ele>498.0</ele><time>2026-04-11T10:54:02Z</time></trkpt><trkpt lat="40.4140426947129" lon="9.03201028017511"><ele>498.0</ele><time>2026-04-11T10:54:03Z</time></trkpt><trkpt lat="40.41404562993474" lon="9.032128129232103"><ele>498.0</ele><time>2026-04-11T10:54:04Z</time></trkpt><trkpt lat="40.41402864050911" lon="9.032251532757327"><ele>497.99999999999994</ele><time>2026-04-11T10:54:05Z</time></trkpt><trkpt lat="40.41400666473468" lon="9.032371132412973"><ele>497.99999999999994</ele><time>2026-04-11T10:54:06Z</time></trkpt><trkpt lat="40.413979465286545" lon="9.03249481496701"><ele>498.0</ele><time>2026-04-11T10:54:07Z</time></trkpt><trkpt lat="40.41394862537181" lon="9.032625371435007"><ele>498.0</ele><time>2026-04-11T10:54:08Z</time></trkpt><trkpt lat="40.41390691139122" lon="9.032757032332286"><ele>499.4</ele><time>2026-04-11T10:54:09Z</time></trkpt><trkpt lat="40.41385547992764" lon="9.032884881138115"><ele>500.79999999999995</ele><time>2026-04-11T10:54:10Z</time></trkpt><trkpt lat="40.41380285079296" lon="9.033010666805142"><ele>502.2</ele><time>2026-04-11T10:54:11Z</time></trkpt><trkpt lat="40.413750902234625" lon="9.03313778723012"><ele>503.6</ele><time>2026-04-11T10:54:12Z</time></trkpt><trkpt lat="40.413699680594824" lon="9.033266218113667"><ele>505.0</ele><time>2026-04-11T10:54:13Z</time></trkpt><trkpt lat="40.41364998104425" lon="9.033396561600446"><ele>498.25</ele><time>2026-04-11T10:54:14Z</time></trkpt><trkpt lat="40.413600309000856" lon="9.033530374575149"><ele>491.5</ele><time>2026-04-11T10:54:15Z</time></trkpt><trkpt lat="40.413547230497024" lon="9.033660948637943"><ele>484.75</ele><time>2026-04-11T10:54:16Z</time></trkpt><trkpt lat="40.41349270624677" lon="9.033791105637723"><ele>478.0</ele><time>2026-04-11T10:54:17Z</time></trkpt><trkpt lat="40.41344190199212" lon="9.033925641309853"><ele>478.0</ele><time>2026-04-11T10:54:18Z</time></trkpt><trkpt lat="40.41339432985598" lon="9.034060834297422"><ele>477.99999999999994</ele><time>2026-04-11T10:54:19Z</time></trkpt><trkpt lat="40.41334613426739" lon="9.034187823833577"><ele>477.99999999999994</ele><time>2026-04-11T10:54:20Z</time></trkpt><trkpt lat="40.41329785420547" lon="9.03431785623064"><ele>478.0</ele><time>2026-04-11T10:54:21Z</time></trkpt><trkpt lat="40.41325331517181" lon="9.034451434597193"><ele>478.0</ele><time>2026-04-11T10:54:22Z</time></trkpt><trkpt lat="40.41320858632741" lon="9.03458210761547"><ele>477.0</ele><time>2026-04-11T10:54:23Z</time></trkpt><trkpt lat="40.4131644761997" lon="9.034711401893524"><ele>475.99999999999994</ele><time>2026-04-11T10:54:24Z</time></trkpt><trkpt lat="40.413123387939955" lon="9.034837947762966"><ele>474.99999999999994</ele><time>2026-04-11T10:54:25Z</time></trkpt><trkpt lat="40.413086164386634" lon="9.03496353074529"><ele>474.0</ele><time>2026-04-11T10:54:26Z</time></trkpt><trkpt lat="40.41304958273364" lon="9.035086542890218"><ele>473.0</ele><time>2026-04-11T10:54:27Z</time></trkpt><trkpt lat="40.41301184060736" lon="9.035199811160517"><ele>471.49999999999994</ele><time>2026-04-11T10:54:28Z</time></trkpt><trkpt lat="40.41297898797757" lon="9.035303479208663"><ele>470.0</ele><time>2026-04-11T10:54:29Z</time></trkpt><trkpt lat="40.41295614061439" lon="9.035386482985084"><ele>468.5</ele><time>2026-04-11T10:54:30Z</time></trkpt><trkpt lat="40.4129340055569" lon="9.035508619008914"><ele>467.0</ele><time>2026-04-11T10:54:32Z</time></trkpt><trkpt lat="40.41296584206031" lon="9.035596399281127"><ele>465.49999999999994</ele><time>2026-04-11T10:54:35Z</time></trkpt><trkpt lat="40.412997115239364" lon="9.035519698074197"><ele>464.0</ele><time>2026-04-11T10:54:57Z</time></trkpt><trkpt lat="40.413056963570476" lon="9.035468301272044"><ele>463.99999999999994</ele><time>2026-04-11T10:54:58Z</time></trkpt><trkpt lat="40.413173784604545" lon="9.035423771839257"><ele>464.0</ele><time>2026-04-11T10:55:00Z</time></trkpt><trkpt lat="40.413223689180455" lon="9.035364966196934"><ele>464.0</ele><time>2026-04-11T10:55:01Z</time></trkpt><trkpt lat="40.41326269473935" lon="9.035278428922476"><ele>464.0</ele><time>2026-04-11T10:55:02Z</time></trkpt><trkpt lat="40.413246562364584" lon="9.03517030167508"><ele>463.99999999999994</ele><time>2026-04-11T10:55:03Z</time></trkpt><trkpt lat="40.413254113772204" lon="9.035060114629616"><ele>464.0</ele><time>2026-04-11T10:55:04Z</time></trkpt><trkpt lat="40.41328906906743" lon="9.034963524612243"><ele>465.49999999999994</ele><time>2026-04-11T10:55:05Z</time></trkpt><trkpt lat="40.413342613222184" lon="9.034883444635199"><ele>467.0</ele><time>2026-04-11T10:55:06Z</time></trkpt><trkpt lat="40.413408226739115" lon="9.034819103212271"><ele>468.5</ele><time>2026-04-11T10:55:07Z</time></trkpt><trkpt lat="40.41346271662677" lon="9.034740240783774"><ele>470.0</ele><time>2026-04-11T10:55:08Z</time></trkpt><trkpt lat="40.41352513403366" lon="9.034657041083841"><ele>471.49999999999994</ele><time>2026-04-11T10:55:09Z</time></trkpt><trkpt lat="40.41358378276742" lon="9.03455248240054"><ele>473.0</ele><time>2026-04-11T10:55:10Z</time></trkpt><trkpt lat="40.413634861356066" lon="9.03445419179101"><ele>472.99999999999994</ele><time>2026-04-11T10:55:11Z</time></trkpt><trkpt lat="40.413682057615034" lon="9.034358310409715"><ele>473.0</ele><time>2026-04-11T10:55:12Z</time></trkpt><trkpt lat="40.413724201798054" lon="9.034266095962357"><ele>473.0</ele><time>2026-04-11T10:55:13Z</time></trkpt><trkpt lat="40.4137636443419" lon="9.034176017797597"><ele>473.0</ele><time>2026-04-11T10:55:14Z</time></trkpt><trkpt lat="40.41380499692157" lon="9.034072305904685"><ele>472.99999999999994</ele><time>2026-04-11T10:55:15Z</time></trkpt><trkpt lat="40.4138509979766" lon="9.033955239975926"><ele>473.0</ele><time>2026-04-11T10:55:16Z</time></trkpt><trkpt lat="40.413908018865335" lon="9.03382538641712"><ele>479.75</ele><time>2026-04-11T10:55:17Z</time></trkpt><trkpt lat="40.413975013820284" lon="9.03368795247963"><ele>486.5</ele><time>2026-04-11T10:55:18Z</time></trkpt><trkpt lat="40.41403554873193" lon="9.033559012610707"><ele>493.25</ele><time>2026-04-11T10:55:19Z</time></trkpt><trkpt lat="40.414085984414925" lon="9.033415968062153"><ele>500.0</ele><time>2026-04-11T10:55:20Z</time></trkpt><trkpt lat="40.41415070217793" lon="9.033277319753223"><ele>501.25</ele><time>2026-04-11T10:55:21Z</time></trkpt><trkpt lat="40.41422643282376" lon="9.033145229083601"><ele>502.5</ele><time>2026-04-11T10:55:22Z</time></trkpt><trkpt lat="40.41429304775028" lon="9.033005565122023"><ele>503.75</ele><time>2026-04-11T10:55:23Z</time></trkpt><trkpt lat="40.414348167572776" lon="9.032860810092629"><ele>505.0</ele><time>2026-04-11T10:55:24Z</time></trkpt><trkpt lat="40.414408189608864" lon="9.032728226030693"><ele>505.00000000000006</ele><time>2026-04-11T10:55:25Z</time></trkpt><trkpt lat="40.414474028334695" lon="9.03261507799617"><ele>505.0</ele><time>2026-04-11T10:55:26Z</time></trkpt><trkpt lat="40.414520709267784" lon="9.032502569376554"><ele>505.0</ele><time>2026-04-11T10:55:27Z</time></trkpt><trkpt lat="40.4145531578283" lon="9.032393968231194"><ele>505.0</ele><time>2026-04-11T10:55:28Z</time></trkpt><trkpt lat="40.41459474128875" lon="9.03231592420553"><ele>505.00000000000006</ele><time>2026-04-11T10:55:29Z</time></trkpt><trkpt lat="40.414633494442796" lon="9.032237388641702"><ele>505.0</ele><time>2026-04-11T10:55:30Z</time></trkpt><trkpt lat="40.41466903434706" lon="9.032162250133656"><ele>508.4</ele><time>2026-04-11T10:55:31Z</time></trkpt><trkpt lat="40.41472874341752" lon="9.032066003215695"><ele>511.8</ele><time>2026-04-11T10:55:33Z</time></trkpt><trkpt lat="40.414794953278744" lon="9.032025767809705"><ele>515.2</ele><time>2026-04-11T10:55:36Z</time></trkpt><trkpt lat="40.41488364910869" lon="9.032168171499924"><ele>518.6</ele><time>2026-04-11T10:55:37Z</time></trkpt><trkpt lat="40.414968446904915" lon="9.032208801152832"><ele>522.0</ele><time>2026-04-11T10:55:38Z</time></trkpt><trkpt lat="40.41506447699946" lon="9.032171750845547"><ele>522.0</ele><time>2026-04-11T10:55:39Z</time></trkpt><trkpt lat="40.41517098520046" lon="9.032139069718793"><ele>522.0</ele><time>2026-04-11T10:55:40Z</time></trkpt><trkpt lat="40.41528481778589" lon="9.032105112650271"><ele>522.0</ele><time>2026-04-11T10:55:41Z</time></trkpt><trkpt lat="40.41540757374718" lon="9.032082964339534"><ele>522.0</ele><time>2026-04-11T10:55:42Z</time></trkpt><trkpt lat="40.41554419709162" lon="9.032079987893152"><ele>525.0</ele><time>2026-04-11T10:55:43Z</time></trkpt><trkpt lat="40.41568499227043" lon="9.032106358982038"><ele>528.0</ele><time>2026-04-11T10:55:44Z</time></trkpt><trkpt lat="40.41581620109207" lon="9.032139659876764"><ele>531.0</ele><time>2026-04-11T10:55:45Z</time></trkpt><trkpt lat="40.415931452605484" lon="9.032129582284318"><ele>534.0</ele><time>2026-04-11T10:55:46Z</time></trkpt><trkpt lat="40.41604033284495" lon="9.032054421960128"><ele>534.0</ele><time>2026-04-11T10:55:47Z</time></trkpt><trkpt lat="40.41614169079917" lon="9.031947662341612"><ele>534.0</ele><time>2026-04-11T10:55:48Z</time></trkpt><trkpt lat="40.41623572805175" lon="9.031828416936852"><ele>534.0</ele><time>2026-04-11T10:55:49Z</time></trkpt><trkpt lat="40.41632166544913" lon="9.031695968531226"><ele>534.0</ele><time>2026-04-11T10:55:50Z</time></trkpt><trkpt lat="40.416389611243964" lon="9.031547984014408"><ele>535.25</ele><time>2026-04-11T10:55:51Z</time></trkpt><trkpt lat="40.41644234983783" lon="9.031388379932272"><ele>536.5</ele><time>2026-04-11T10:55:52Z</time></trkpt><trkpt lat="40.416490480941086" lon="9.031226530905373"><ele>537.75</ele><time>2026-04-11T10:55:53Z</time></trkpt><trkpt lat="40.416551484922344" lon="9.031079826879008"><ele>539.0</ele><time>2026-04-11T10:55:54Z</time></trkpt><trkpt lat="40.416625309363546" lon="9.030959619726438"><ele>539.0</ele><time>2026-04-11T10:55:55Z</time></trkpt><trkpt lat="40.416698290736036" lon="9.030871421192048"><ele>539.0</ele><time>2026-04-11T10:55:56Z</time></trkpt><trkpt lat="40.416756113084816" lon="9.030821977740375"><ele>539.0</ele><time>2026-04-11T10:55:57Z</time></trkpt><trkpt lat="40.41682249712317" lon="9.030776132609242"><ele>539.0</ele><time>2026-04-11T10:55:59Z</time></trkpt><trkpt lat="40.41688882331106" lon="9.030749411354483"><ele>539.0</ele><time>2026-04-11T10:56:35Z</time></trkpt><trkpt lat="40.41688565972086" lon="9.03058823773107"><ele>539.0</ele><time>2026-04-11T10:56:39Z</time></trkpt><trkpt lat="40.416848876702836" lon="9.030498143303545"><ele>539.1666666666666</ele><time>2026-04-11T10:56:41Z</time></trkpt><trkpt lat="40.41681337072628" lon="9.030385794891622"><ele>539.3333333333333</ele><time>2026-04-11T10:56:43Z</time></trkpt><trkpt lat="40.41679615892054" lon="9.030292249167823"><ele>539.5</ele><time>2026-04-11T10:56:45Z</time></trkpt><trkpt lat="40.416805595392994" lon="9.030201477139826"><ele>539.6666666666666</ele><time>2026-04-11T10:56:47Z</time></trkpt><trkpt lat="40.4167829962492" lon="9.030085044313681"><ele>539.8333333333334</ele><time>2026-04-11T10:56:49Z</time></trkpt><trkpt lat="40.4168128450116" lon="9.0299412115605"><ele>540.0</ele><time>2026-04-11T10:56:51Z</time></trkpt><trkpt lat="40.41683481235394" lon="9.029783618064222"><ele>540.0</ele><time>2026-04-11T10:56:53Z</time></trkpt><trkpt lat="40.41686133718015" lon="9.029620963120127"><ele>540.0</ele><time>2026-04-11T10:56:55Z</time></trkpt><trkpt lat="40.41687322064635" lon="9.029533350297791"><ele>540.0</ele><time>2026-04-11T10:56:56Z</time></trkpt><trkpt lat="40.41688225026027" lon="9.029442744209142"><ele>540.0</ele><time>2026-04-11T10:56:57Z</time></trkpt><trkpt lat="40.41689255887165" lon="9.029353131141606"><ele>540.0</ele><time>2026-04-11T10:56:58Z</time></trkpt><trkpt lat="40.416889649667795" lon="9.029267958465717"><ele>540.0</ele><time>2026-04-11T10:56:59Z</time></trkpt><trkpt lat="40.41686174179868" lon="9.029189222581815"><ele>541.6666666666666</ele><time>2026-04-11T10:57:00Z</time></trkpt><trkpt lat="40.416760665690326" lon="9.02907660815107"><ele>543.3333333333334</ele><time>2026-04-11T10:57:02Z</time></trkpt><trkpt lat="40.416696254565366" lon="9.029048821829987"><ele>545.0</ele><time>2026-04-11T10:57:03Z</time></trkpt><trkpt lat="40.41662812429029" lon="9.029035009632047"><ele>546.6666666666667</ele><time>2026-04-11T10:57:04Z</time></trkpt><trkpt lat="40.416559255994436" lon="9.029026619942618"><ele>548.3333333333334</ele><time>2026-04-11T10:57:05Z</time></trkpt><trkpt lat="40.41649119848784" lon="9.02900507993151"><ele>550.0</ele><time>2026-04-11T10:57:06Z</time></trkpt><trkpt lat="40.41642677038415" lon="9.028981754249191"><ele>550.0</ele><time>2026-04-11T10:57:07Z</time></trkpt><trkpt lat="40.416360669782435" lon="9.028958507523056"><ele>550.0</ele><time>2026-04-11T10:57:08Z</time></trkpt><trkpt lat="40.416294336618655" lon="9.028933674053091"><ele>550.0</ele><time>2026-04-11T10:57:09Z</time></trkpt><trkpt lat="40.4162342068349" lon="9.028889999115853"><ele>550.0</ele><time>2026-04-11T10:57:10Z</time></trkpt><trkpt lat="40.41617759687059" lon="9.028838927631899"><ele>550.0</ele><time>2026-04-11T10:57:11Z</time></trkpt><trkpt lat="40.41613002661766" lon="9.028778085493455"><ele>550.0</ele><time>2026-04-11T10:57:12Z</time></trkpt><trkpt lat="40.416044534878075" lon="9.028666524389791"><ele>549.1428571428571</ele><time>2026-04-11T10:57:14Z</time></trkpt><trkpt lat="40.41596648199552" lon="9.028538482706008"><ele>548.2857142857142</ele><time>2026-04-11T10:57:16Z</time></trkpt><trkpt lat="40.41592684508418" lon="9.02847263369985"><ele>547.4285714285713</ele><time>2026-04-11T10:57:17Z</time></trkpt><trkpt lat="40.41588784741704" lon="9.028407176354053"><ele>546.5714285714286</ele><time>2026-04-11T10:57:18Z</time></trkpt><trkpt lat="40.41584965418813" lon="9.028338331385442"><ele>545.7142857142857</ele><time>2026-04-11T10:57:19Z</time></trkpt><trkpt lat="40.415807866935936" lon="9.028273794757506"><ele>544.8571428571428</ele><time>2026-04-11T10:57:20Z</time></trkpt><trkpt lat="40.41576102153277" lon="9.02821671503993"><ele>544.0</ele><time>2026-04-11T10:57:21Z</time></trkpt><trkpt lat="40.415706383883965" lon="9.028167638053286"><ele>544.0</ele><time>2026-04-11T10:57:22Z</time></trkpt><trkpt lat="40.41564631499136" lon="9.028127241007937"><ele>544.0</ele><time>2026-04-11T10:57:23Z</time></trkpt><trkpt lat="40.41558606341643" lon="9.028094573784347"><ele>544.0</ele><time>2026-04-11T10:57:24Z</time></trkpt><trkpt lat="40.415526724605606" lon="9.028066067083198"><ele>544.0</ele><time>2026-04-11T10:57:25Z</time></trkpt><trkpt lat="40.41546206678551" lon="9.02804672776245"><ele>544.0</ele><time>2026-04-11T10:57:26Z</time></trkpt><trkpt lat="40.41533428883765" lon="9.02801898577378"><ele>544.0</ele><time>2026-04-11T10:57:28Z</time></trkpt><trkpt lat="40.4152681046214" lon="9.028012695029993"><ele>543.2857142857142</ele><time>2026-04-11T10:57:29Z</time></trkpt><trkpt lat="40.41520086797157" lon="9.028006986573068"><ele>542.5714285714286</ele><time>2026-04-11T10:57:30Z</time></trkpt><trkpt lat="40.415134721347655" lon="9.027994186642154"><ele>541.8571428571429</ele><time>2026-04-11T10:57:31Z</time></trkpt><trkpt lat="40.41506935730043" lon="9.027980378855126"><ele>541.1428571428571</ele><time>2026-04-11T10:57:32Z</time></trkpt><trkpt lat="40.41500430487816" lon="9.027970713250363"><ele>540.4285714285714</ele><time>2026-04-11T10:57:33Z</time></trkpt><trkpt lat="40.41493897681426" lon="9.02796151542137"><ele>539.7142857142857</ele><time>2026-04-11T10:57:34Z</time></trkpt><trkpt lat="40.41487344719752" lon="9.027947939369001"><ele>539.0</ele><time>2026-04-11T10:57:35Z</time></trkpt><trkpt lat="40.41480770182665" lon="9.027931512118627"><ele>539.0</ele><time>2026-04-11T10:57:36Z</time></trkpt><trkpt lat="40.414742578010106" lon="9.02791292203812"><ele>539.0</ele><time>2026-04-11T10:57:37Z</time></trkpt><trkpt lat="40.41467706617921" lon="9.027892205343555"><ele>539.0</ele><time>2026-04-11T10:57:38Z</time></trkpt><trkpt lat="40.414608805617874" lon="9.027876653720309"><ele>539.0</ele><time>2026-04-11T10:57:39Z</time></trkpt><trkpt lat="40.414539963538715" lon="9.027864030837103"><ele>539.0</ele><time>2026-04-11T10:57:40Z</time></trkpt><trkpt lat="40.414470671628074" lon="9.027853667787786"><ele>539.0</ele><time>2026-04-11T10:57:41Z</time></trkpt><trkpt lat="40.414400895727994" lon="9.02784458296479"><ele>539.0</ele><time>2026-04-11T10:57:42Z</time></trkpt><trkpt lat="40.41433205912531" lon="9.027830284521812"><ele>538.0</ele><time>2026-04-11T10:57:43Z</time></trkpt><trkpt lat="40.41426203840142" lon="9.027811719184687"><ele>537.0</ele><time>2026-04-11T10:57:44Z</time></trkpt><trkpt lat="40.41419452670068" lon="9.027782410597224"><ele>536.0</ele><time>2026-04-11T10:57:45Z</time></trkpt><trkpt lat="40.41413621141493" lon="9.027726316338194"><ele>535.0</ele><time>2026-04-11T10:57:46Z</time></trkpt><trkpt lat="40.41408617081914" lon="9.02767137453503"><ele>534.0</ele><time>2026-04-11T10:57:47Z</time></trkpt><trkpt lat="40.41399608475587" lon="9.02757736808727"><ele>533.0</ele><time>2026-04-11T10:57:49Z</time></trkpt><trkpt lat="40.413908034801416" lon="9.02754037431611"><ele>533.0</ele><time>2026-04-11T10:57:51Z</time></trkpt><trkpt lat="40.41385120318312" lon="9.027596722525306"><ele>533.0</ele><time>2026-04-11T10:57:53Z</time></trkpt><trkpt lat="40.41378524734451" lon="9.027689272047315"><ele>533.0</ele><time>2026-04-11T10:57:55Z</time></trkpt><trkpt lat="40.413696497413206" lon="9.027790785045198"><ele>533.0</ele><time>2026-04-11T10:57:57Z</time></trkpt><trkpt lat="40.413644650859" lon="9.027850718283682"><ele>533.0</ele><time>2026-04-11T10:57:58Z</time></trkpt><trkpt lat="40.41359006590608" lon="9.027914593733868"><ele>533.0</ele><time>2026-04-11T10:57:59Z</time></trkpt><trkpt lat="40.41353258048136" lon="9.027979628726104"><ele>533.5</ele><time>2026-04-11T10:58:00Z</time></trkpt><trkpt lat="40.413473292097656" lon="9.02804623881393"><ele>534.0</ele><time>2026-04-11T10:58:01Z</time></trkpt><trkpt lat="40.41342133637308" lon="9.028113679375332"><ele>534.5</ele><time>2026-04-11T10:58:02Z</time></trkpt><trkpt lat="40.4133663589596" lon="9.028182888152733"><ele>535.0</ele><time>2026-04-11T10:58:03Z</time></trkpt><trkpt lat="40.41331649149286" lon="9.028251015088095"><ele>535.5</ele><time>2026-04-11T10:58:04Z</time></trkpt><trkpt lat="40.413233757765106" lon="9.02835126369105"><ele>536.0</ele><time>2026-04-11T10:58:06Z</time></trkpt><trkpt lat="40.41316446898621" lon="9.028454946674698"><ele>536.2</ele><time>2026-04-11T10:58:08Z</time></trkpt><trkpt lat="40.41310261824033" lon="9.02858319299048"><ele>536.4000000000001</ele><time>2026-04-11T10:58:10Z</time></trkpt><trkpt lat="40.413029477503756" lon="9.028709477319753"><ele>536.6</ele><time>2026-04-11T10:58:12Z</time></trkpt><trkpt lat="40.41292561225307" lon="9.028797389957363"><ele>536.8000000000001</ele><time>2026-04-11T10:58:14Z</time></trkpt><trkpt lat="40.41286834597542" lon="9.02884785205025"><ele>537.0</ele><time>2026-04-11T10:58:15Z</time></trkpt><trkpt lat="40.41278512207093" lon="9.0288293898151"><ele>536.9999999999999</ele><time>2026-04-11T10:58:16Z</time></trkpt><trkpt lat="40.412711659714965" lon="9.028828163166496"><ele>537.0</ele><time>2026-04-11T10:58:17Z</time></trkpt><trkpt lat="40.412637041883016" lon="9.028826805107514"><ele>537.0</ele><time>2026-04-11T10:58:18Z</time></trkpt><trkpt lat="40.412562008024366" lon="9.028833637463375"><ele>537.0</ele><time>2026-04-11T10:58:19Z</time></trkpt><trkpt lat="40.41249044101195" lon="9.02884292610584"><ele>537.0</ele><time>2026-04-11T10:58:20Z</time></trkpt><trkpt lat="40.41242179367674" lon="9.02885123790451"><ele>536.9999999999999</ele><time>2026-04-11T10:58:21Z</time></trkpt><trkpt lat="40.41235130412922" lon="9.02885567877246"><ele>537.0</ele><time>2026-04-11T10:58:22Z</time></trkpt><trkpt lat="40.41227835441814" lon="9.028860281265644"><ele>536.9999999999999</ele><time>2026-04-11T10:58:23Z</time></trkpt><trkpt lat="40.412206418456186" lon="9.028864380777815"><ele>537.0</ele><time>2026-04-11T10:58:24Z</time></trkpt><trkpt lat="40.412134037836275" lon="9.028871893167013"><ele>537.0</ele><time>2026-04-11T10:58:25Z</time></trkpt><trkpt lat="40.41206172381017" lon="9.028880422788697"><ele>537.0</ele><time>2026-04-11T10:58:26Z</time></trkpt><trkpt lat="40.41198597535251" lon="9.028887258234278"><ele>537.0</ele><time>2026-04-11T10:58:27Z</time></trkpt><trkpt lat="40.411908961025546" lon="9.028890586365337"><ele>536.9999999999999</ele><time>2026-04-11T10:58:28Z</time></trkpt><trkpt lat="40.41183242719633" lon="9.028893772490564"><ele>537.0</ele><time>2026-04-11T10:58:29Z</time></trkpt><trkpt lat="40.41175290744252" lon="9.028894669537024"><ele>537.5</ele><time>2026-04-11T10:58:30Z</time></trkpt><trkpt lat="40.41167439865535" lon="9.028890662239222"><ele>538.0</ele><time>2026-04-11T10:58:31Z</time></trkpt><trkpt lat="40.41159543167268" lon="9.028884241717874"><ele>538.5</ele><time>2026-04-11T10:58:32Z</time></trkpt><trkpt lat="40.41151501346972" lon="9.028877140421066"><ele>539.0</ele><time>2026-04-11T10:58:33Z</time></trkpt><trkpt lat="40.411437734372065" lon="9.028862850987462"><ele>539.5</ele><time>2026-04-11T10:58:34Z</time></trkpt><trkpt lat="40.41135826281734" lon="9.028842364293784"><ele>540.0</ele><time>2026-04-11T10:58:35Z</time></trkpt><trkpt lat="40.411277318685805" lon="9.028816508560846"><ele>540.0</ele><time>2026-04-11T10:58:36Z</time></trkpt><trkpt lat="40.41119556976668" lon="9.028787885835996"><ele>540.0</ele><time>2026-04-11T10:58:37Z</time></trkpt><trkpt lat="40.41110929368061" lon="9.028761415921112"><ele>540.0</ele><time>2026-04-11T10:58:38Z</time></trkpt><trkpt lat="40.41101944256283" lon="9.028743167975268"><ele>540.0</ele><time>2026-04-11T10:58:39Z</time></trkpt><trkpt lat="40.41093114608154" lon="9.028728526701967"><ele>540.0</ele><time>2026-04-11T10:58:40Z</time></trkpt><trkpt lat="40.410848076811774" lon="9.02870606719163"><ele>540.0</ele><time>2026-04-11T10:58:41Z</time></trkpt><trkpt lat="40.41077521327877" lon="9.028675483016741"><ele>540.0</ele><time>2026-04-11T10:58:42Z</time></trkpt><trkpt lat="40.41071365667342" lon="9.028643072309487"><ele>540.0</ele><time>2026-04-11T10:58:43Z</time></trkpt><trkpt lat="40.41061650931587" lon="9.028587180640113"><ele>540.0</ele><time>2026-04-11T10:58:45Z</time></trkpt><trkpt lat="40.41053547773051" lon="9.028546704619544"><ele>540.0</ele><time>2026-04-11T10:58:47Z</time></trkpt><trkpt lat="40.410457810539654" lon="9.028499374785525"><ele>540.0</ele><time>2026-04-11T10:58:50Z</time></trkpt><trkpt lat="40.410379491493046" lon="9.028441582879728"><ele>540.0</ele><time>2026-04-11T10:58:53Z</time></trkpt><trkpt lat="40.41032392478055" lon="9.028394471419293"><ele>539.4</ele><time>2026-04-11T11:01:46Z</time></trkpt><trkpt lat="40.41027210828979" lon="9.028346383845099"><ele>538.8</ele><time>2026-04-11T11:01:48Z</time></trkpt><trkpt lat="40.41016381111029" lon="9.028250105881089"><ele>538.2</ele><time>2026-04-11T11:01:50Z</time></trkpt><trkpt lat="40.410103683103074" lon="9.028174786163868"><ele>537.6</ele><time>2026-04-11T11:01:51Z</time></trkpt><trkpt lat="40.41003019085671" lon="9.028104143297531"><ele>537.0</ele><time>2026-04-11T11:01:52Z</time></trkpt><trkpt lat="40.40995241624512" lon="9.028044389538898"><ele>537.0</ele><time>2026-04-11T11:01:53Z</time></trkpt><trkpt lat="40.40987118205463" lon="9.027978970737582"><ele>537.0</ele><time>2026-04-11T11:01:54Z</time></trkpt><trkpt lat="40.40980623975555" lon="9.027879067867836"><ele>537.0</ele><time>2026-04-11T11:01:55Z</time></trkpt><trkpt lat="40.409732358653535" lon="9.027781584109356"><ele>537.0</ele><time>2026-04-11T11:01:56Z</time></trkpt><trkpt lat="40.40968916391376" lon="9.027649686890816"><ele>537.0</ele><time>2026-04-11T11:01:57Z</time></trkpt><trkpt lat="40.409661207178715" lon="9.027510476492793"><ele>535.5</ele><time>2026-04-11T11:01:58Z</time></trkpt><trkpt lat="40.409657181636234" lon="9.027369646789394"><ele>534.0</ele><time>2026-04-11T11:01:59Z</time></trkpt><trkpt lat="40.4096760328538" lon="9.027232058888782"><ele>532.5</ele><time>2026-04-11T11:02:00Z</time></trkpt><trkpt lat="40.40973954136794" lon="9.027101457702432"><ele>531.0</ele><time>2026-04-11T11:02:01Z</time></trkpt><trkpt lat="40.409821307807185" lon="9.02698706567224"><ele>531.0</ele><time>2026-04-11T11:02:02Z</time></trkpt><trkpt lat="40.409901601923295" lon="9.026868308215686"><ele>531.0</ele><time>2026-04-11T11:02:03Z</time></trkpt><trkpt lat="40.40999143732004" lon="9.02675179017584"><ele>531.0</ele><time>2026-04-11T11:02:04Z</time></trkpt><trkpt lat="40.41003471168818" lon="9.026594307260378"><ele>531.0</ele><time>2026-04-11T11:02:05Z</time></trkpt><trkpt lat="40.41009859709262" lon="9.0264488389925"><ele>529.75</ele><time>2026-04-11T11:02:06Z</time></trkpt><trkpt lat="40.41014895462118" lon="9.02629237646067"><ele>528.5</ele><time>2026-04-11T11:02:07Z</time></trkpt><trkpt lat="40.41019945180145" lon="9.026135480029108"><ele>527.25</ele><time>2026-04-11T11:02:08Z</time></trkpt><trkpt lat="40.4102466443848" lon="9.025972002986032"><ele>526.0</ele><time>2026-04-11T11:02:09Z</time></trkpt><trkpt lat="40.410273939248256" lon="9.025799035519183"><ele>526.0</ele><time>2026-04-11T11:02:10Z</time></trkpt><trkpt lat="40.41026302463353" lon="9.025611079702685"><ele>526.0</ele><time>2026-04-11T11:02:11Z</time></trkpt><trkpt lat="40.41019362049031" lon="9.025439703253904"><ele>526.0</ele><time>2026-04-11T11:02:12Z</time></trkpt><trkpt lat="40.410124221531206" lon="9.025273482250329"><ele>526.0</ele><time>2026-04-11T11:02:13Z</time></trkpt><trkpt lat="40.410063124108746" lon="9.025096706824042"><ele>527.5</ele><time>2026-04-11T11:02:14Z</time></trkpt><trkpt lat="40.410000790490976" lon="9.024926549245407"><ele>529.0</ele><time>2026-04-11T11:02:15Z</time></trkpt><trkpt lat="40.40995381803067" lon="9.024745828328394"><ele>530.5</ele><time>2026-04-11T11:02:16Z</time></trkpt><trkpt lat="40.40993191690243" lon="9.02456323241682"><ele>532.0</ele><time>2026-04-11T11:02:17Z</time></trkpt><trkpt lat="40.40993930276457" lon="9.024390123573815"><ele>532.0</ele><time>2026-04-11T11:02:18Z</time></trkpt><trkpt lat="40.40996449223339" lon="9.024223018523772"><ele>532.0</ele><time>2026-04-11T11:02:19Z</time></trkpt><trkpt lat="40.40999208827004" lon="9.02406383297886"><ele>532.0</ele><time>2026-04-11T11:02:20Z</time></trkpt><trkpt lat="40.409980623537706" lon="9.023900899192276"><ele>532.0</ele><time>2026-04-11T11:02:21Z</time></trkpt><trkpt lat="40.40989851495659" lon="9.02377413424339"><ele>530.5</ele><time>2026-04-11T11:02:22Z</time></trkpt><trkpt lat="40.4097942367256" lon="9.023687452593014"><ele>529.0</ele><time>2026-04-11T11:02:23Z</time></trkpt><trkpt lat="40.40966465288327" lon="9.0236562218613"><ele>527.5</ele><time>2026-04-11T11:02:24Z</time></trkpt><trkpt lat="40.40953846338063" lon="9.023632227665448"><ele>526.0</ele><time>2026-04-11T11:02:25Z</time></trkpt><trkpt lat="40.40940659861997" lon="9.02361424551751"><ele>526.0</ele><time>2026-04-11T11:02:26Z</time></trkpt><trkpt lat="40.40927511705732" lon="9.02357222642653"><ele>526.0</ele><time>2026-04-11T11:02:27Z</time></trkpt><trkpt lat="40.4091448429349" lon="9.023498307119466"><ele>526.0</ele><time>2026-04-11T11:02:28Z</time></trkpt><trkpt lat="40.409020556342334" lon="9.0234049097772"><ele>526.0</ele><time>2026-04-11T11:02:29Z</time></trkpt><trkpt lat="40.408925764861486" lon="9.023263492880417"><ele>524.25</ele><time>2026-04-11T11:02:30Z</time></trkpt><trkpt lat="40.40880781064581" lon="9.023148763808713"><ele>522.5</ele><time>2026-04-11T11:02:31Z</time></trkpt><trkpt lat="40.40869378568157" lon="9.023028694646753"><ele>520.75</ele><time>2026-04-11T11:02:32Z</time></trkpt><trkpt lat="40.4085684654392" lon="9.022932584205758"><ele>519.0</ele><time>2026-04-11T11:02:33Z</time></trkpt><trkpt lat="40.40844762689991" lon="9.022850987971003"><ele>519.0</ele><time>2026-04-11T11:02:34Z</time></trkpt><trkpt lat="40.40835021444382" lon="9.022757330440813"><ele>519.0</ele><time>2026-04-11T11:02:35Z</time></trkpt><trkpt lat="40.40830488611942" lon="9.022624546185261"><ele>519.0</ele><time>2026-04-11T11:02:36Z</time></trkpt><trkpt lat="40.40832151840986" lon="9.022461498790978"><ele>519.0</ele><time>2026-04-11T11:02:37Z</time></trkpt><trkpt lat="40.408288583915436" lon="9.022310674911184"><ele>520.0</ele><time>2026-04-11T11:02:38Z</time></trkpt><trkpt lat="40.408237160565484" lon="9.022158336976196"><ele>521.0</ele><time>2026-04-11T11:02:39Z</time></trkpt><trkpt lat="40.40815549163613" lon="9.022032747720624"><ele>522.0</ele><time>2026-04-11T11:02:40Z</time></trkpt><trkpt lat="40.408050088511104" lon="9.021934629601242"><ele>523.0</ele><time>2026-04-11T11:02:41Z</time></trkpt><trkpt lat="40.407928001545436" lon="9.021886490567788"><ele>523.0</ele><time>2026-04-11T11:02:42Z</time></trkpt><trkpt lat="40.407799313943" lon="9.021887517890514"><ele>523.0</ele><time>2026-04-11T11:02:43Z</time></trkpt><trkpt lat="40.40766434937382" lon="9.021921752174"><ele>523.0</ele><time>2026-04-11T11:02:44Z</time></trkpt><trkpt lat="40.40752917480691" lon="9.02196723972743"><ele>523.0</ele><time>2026-04-11T11:02:45Z</time></trkpt><trkpt lat="40.407393159468384" lon="9.02201230873728"><ele>523.0</ele><time>2026-04-11T11:02:46Z</time></trkpt><trkpt lat="40.40725454380025" lon="9.0220594317043"><ele>523.0</ele><time>2026-04-11T11:02:47Z</time></trkpt><trkpt lat="40.4071110675468" lon="9.02210298758985"><ele>523.0</ele><time>2026-04-11T11:02:48Z</time></trkpt><trkpt lat="40.4069656183786" lon="9.022114091970273"><ele>523.0</ele><time>2026-04-11T11:02:49Z</time></trkpt><trkpt lat="40.406828467118174" lon="9.022070879449162"><ele>522.75</ele><time>2026-04-11T11:02:50Z</time></trkpt><trkpt lat="40.4067034502151" lon="9.021974315638529"><ele>522.5</ele><time>2026-04-11T11:02:51Z</time></trkpt><trkpt lat="40.40661447876209" lon="9.021824153454872"><ele>522.25</ele><time>2026-04-11T11:02:52Z</time></trkpt><trkpt lat="40.40651653775823" lon="9.021684940695634"><ele>522.0</ele><time>2026-04-11T11:02:53Z</time></trkpt><trkpt lat="40.406435411409326" lon="9.021538753898046"><ele>522.0</ele><time>2026-04-11T11:02:54Z</time></trkpt><trkpt lat="40.40635698884143" lon="9.021389803748216"><ele>522.0</ele><time>2026-04-11T11:02:55Z</time></trkpt><trkpt lat="40.40628226577142" lon="9.021222165640367"><ele>522.0</ele><time>2026-04-11T11:02:56Z</time></trkpt><trkpt lat="40.406212517356686" lon="9.021065544252945"><ele>522.0</ele><time>2026-04-11T11:02:57Z</time></trkpt><trkpt lat="40.40613837075406" lon="9.02091239731647"><ele>523.0</ele><time>2026-04-11T11:02:58Z</time></trkpt><trkpt lat="40.40610537018462" lon="9.020740404992337"><ele>524.0</ele><time>2026-04-11T11:02:59Z</time></trkpt><trkpt lat="40.406071597495504" lon="9.020577662209293"><ele>525.0</ele><time>2026-04-11T11:03:00Z</time></trkpt><trkpt lat="40.40604463729288" lon="9.020418730101635"><ele>526.0</ele><time>2026-04-11T11:03:01Z</time></trkpt><trkpt lat="40.40603130904094" lon="9.020265578538591"><ele>526.0</ele><time>2026-04-11T11:03:02Z</time></trkpt><trkpt lat="40.40602809967354" lon="9.020115463690695"><ele>526.0</ele><time>2026-04-11T11:03:03Z</time></trkpt><trkpt lat="40.40604188558561" lon="9.0198027677773"><ele>526.0</ele><time>2026-04-11T11:03:04Z</time></trkpt><trkpt lat="40.40606693194077" lon="9.019603923372639"><ele>528.6666666666667</ele><time>2026-04-11T11:03:05Z</time></trkpt><trkpt lat="40.40609761575516" lon="9.019408400722295"><ele>531.3333333333334</ele><time>2026-04-11T11:03:06Z</time></trkpt><trkpt lat="40.40613254627495" lon="9.019213312838545"><ele>534.0</ele><time>2026-04-11T11:03:07Z</time></trkpt><trkpt lat="40.40617141669405" lon="9.019016652206016"><ele>534.5</ele><time>2026-04-11T11:03:08Z</time></trkpt><trkpt lat="40.40620925086445" lon="9.01882845290461"><ele>535.0</ele><time>2026-04-11T11:03:09Z</time></trkpt><trkpt lat="40.40624727233431" lon="9.01864124297258"><ele>535.5</ele><time>2026-04-11T11:03:10Z</time></trkpt><trkpt lat="40.406287442652896" lon="9.018463442334356"><ele>536.0</ele><time>2026-04-11T11:03:11Z</time></trkpt><trkpt lat="40.40632983916381" lon="9.018284939489611"><ele>540.5</ele><time>2026-04-11T11:03:12Z</time></trkpt><trkpt lat="40.40637369027025" lon="9.018103723785147"><ele>545.0</ele><time>2026-04-11T11:03:13Z</time></trkpt><trkpt lat="40.4064185060708" lon="9.017921936286294"><ele>549.5</ele><time>2026-04-11T11:03:14Z</time></trkpt><trkpt lat="40.40646370089299" lon="9.017738611318872"><ele>554.0</ele><time>2026-04-11T11:03:15Z</time></trkpt><trkpt lat="40.40650927067748" lon="9.017553765421253"><ele>554.3333333333333</ele><time>2026-04-11T11:03:16Z</time></trkpt><trkpt lat="40.40655566673598" lon="9.017365567920361"><ele>554.6666666666666</ele><time>2026-04-11T11:03:17Z</time></trkpt><trkpt lat="40.40660314445429" lon="9.017174601263791"><ele>555.0</ele><time>2026-04-11T11:03:18Z</time></trkpt><trkpt lat="40.40665018068965" lon="9.016987898412129"><ele>555.0</ele><time>2026-04-11T11:03:19Z</time></trkpt><trkpt lat="40.40669742170907" lon="9.016800383336754"><ele>555.0</ele><time>2026-04-11T11:03:20Z</time></trkpt><trkpt lat="40.406744693583896" lon="9.016613211718086"><ele>555.0</ele><time>2026-04-11T11:03:21Z</time></trkpt><trkpt lat="40.40679249451626" lon="9.016423769855704"><ele>556.25</ele><time>2026-04-11T11:03:22Z</time></trkpt><trkpt lat="40.40683917640036" lon="9.01623876303851"><ele>557.5</ele><time>2026-04-11T11:03:23Z</time></trkpt><trkpt lat="40.40688596989048" lon="9.016053782979494"><ele>558.75</ele><time>2026-04-11T11:03:24Z</time></trkpt><trkpt lat="40.406931391810815" lon="9.015874186191574"><ele>560.0</ele><time>2026-04-11T11:03:25Z</time></trkpt><trkpt lat="40.40697924018556" lon="9.015697142104916"><ele>563.0</ele><time>2026-04-11T11:03:26Z</time></trkpt><trkpt lat="40.40702868554417" lon="9.015515806949216"><ele>566.0</ele><time>2026-04-11T11:03:27Z</time></trkpt><trkpt lat="40.407077889432415" lon="9.015325422546022"><ele>569.0</ele><time>2026-04-11T11:03:28Z</time></trkpt><trkpt lat="40.40715320502019" lon="9.015146180196208"><ele>576.6666666666666</ele><time>2026-04-11T11:03:29Z</time></trkpt><trkpt lat="40.40723157291916" lon="9.014966495733674"><ele>584.3333333333334</ele><time>2026-04-11T11:03:30Z</time></trkpt><trkpt lat="40.407304375416786" lon="9.014786906296802"><ele>592.0</ele><time>2026-04-11T11:03:31Z</time></trkpt><trkpt lat="40.40735956452803" lon="9.01459086242342"><ele>592.0</ele><time>2026-04-11T11:03:32Z</time></trkpt><trkpt lat="40.4073928240899" lon="9.01438823153048"><ele>592.0</ele><time>2026-04-11T11:03:33Z</time></trkpt><trkpt lat="40.407396356662694" lon="9.014182713372564"><ele>592.0</ele><time>2026-04-11T11:03:34Z</time></trkpt><trkpt lat="40.40737056735489" lon="9.01396819612011"><ele>597.6666666666667</ele><time>2026-04-11T11:03:35Z</time></trkpt><trkpt lat="40.40734250106572" lon="9.01376045490319"><ele>603.3333333333334</ele><time>2026-04-11T11:03:36Z</time></trkpt><trkpt lat="40.40727392819371" lon="9.013567759969336"><ele>609.0</ele><time>2026-04-11T11:03:37Z</time></trkpt><trkpt lat="40.40716307177349" lon="9.013402237889396"><ele>613.0</ele><time>2026-04-11T11:03:38Z</time></trkpt><trkpt lat="40.407027817550514" lon="9.013253245390379"><ele>617.0</ele><time>2026-04-11T11:03:39Z</time></trkpt><trkpt lat="40.40689153105978" lon="9.013129118740167"><ele>621.0</ele><time>2026-04-11T11:03:40Z</time></trkpt><trkpt lat="40.406739912368366" lon="9.013029569488324"><ele>621.0</ele><time>2026-04-11T11:03:41Z</time></trkpt><trkpt lat="40.406572027067476" lon="9.012972979021907"><ele>621.0</ele><time>2026-04-11T11:03:42Z</time></trkpt><trkpt lat="40.406395557083385" lon="9.012959715352226"><ele>621.0</ele><time>2026-04-11T11:03:43Z</time></trkpt><trkpt lat="40.40621872290699" lon="9.012962563200533"><ele>620.6666666666666</ele><time>2026-04-11T11:03:44Z</time></trkpt><trkpt lat="40.40604191168077" lon="9.012960569994567"><ele>620.3333333333333</ele><time>2026-04-11T11:03:45Z</time></trkpt><trkpt lat="40.40586541876031" lon="9.01294841178471"><ele>620.0</ele><time>2026-04-11T11:03:46Z</time></trkpt><trkpt lat="40.40569697856468" lon="9.012935583718507"><ele>620.0</ele><time>2026-04-11T11:03:47Z</time></trkpt><trkpt lat="40.40553188310086" lon="9.012923783512967"><ele>620.0</ele><time>2026-04-11T11:03:48Z</time></trkpt><trkpt lat="40.405369260670696" lon="9.012897451703498"><ele>620.0</ele><time>2026-04-11T11:03:49Z</time></trkpt><trkpt lat="40.405209477990894" lon="9.012844634907228"><ele>619.0</ele><time>2026-04-11T11:03:50Z</time></trkpt><trkpt lat="40.40505321125671" lon="9.012767934890519"><ele>618.0</ele><time>2026-04-11T11:03:51Z</time></trkpt><trkpt lat="40.40491544313605" lon="9.012639810582872"><ele>617.0</ele><time>2026-04-11T11:03:52Z</time></trkpt><trkpt lat="40.404783114503445" lon="9.012502410285322"><ele>614.6666666666666</ele><time>2026-04-11T11:03:53Z</time></trkpt><trkpt lat="40.40467655485896" lon="9.012331081376269"><ele>612.3333333333334</ele><time>2026-04-11T11:03:54Z</time></trkpt><trkpt lat="40.40457717707913" lon="9.012145186832328"><ele>610.0</ele><time>2026-04-11T11:03:55Z</time></trkpt><trkpt lat="40.40449598558633" lon="9.011944763079022"><ele>610.0</ele><time>2026-04-11T11:03:56Z</time></trkpt><trkpt lat="40.40443166818949" lon="9.011729321821967"><ele>610.0</ele><time>2026-04-11T11:03:57Z</time></trkpt><trkpt lat="40.40438935701744" lon="9.011506356231248"><ele>610.0</ele><time>2026-04-11T11:03:58Z</time></trkpt><trkpt lat="40.40435471969106" lon="9.011275136628848"><ele>615.6666666666667</ele><time>2026-04-11T11:03:59Z</time></trkpt><trkpt lat="40.40430475538304" lon="9.01104528629741"><ele>621.3333333333334</ele><time>2026-04-11T11:04:00Z</time></trkpt><trkpt lat="40.40427056046838" lon="9.010815237437201"><ele>627.0</ele><time>2026-04-11T11:04:01Z</time></trkpt><trkpt lat="40.404228065816014" lon="9.010594116830132"><ele>633.3333333333334</ele><time>2026-04-11T11:04:02Z</time></trkpt><trkpt lat="40.40416741856227" lon="9.010380308500082"><ele>639.6666666666667</ele><time>2026-04-11T11:04:03Z</time></trkpt><trkpt lat="40.40407889315384" lon="9.010175727490257"><ele>646.0</ele><time>2026-04-11T11:04:04Z</time></trkpt><trkpt lat="40.40396783896187" lon="9.00998569660987"><ele>652.0</ele><time>2026-04-11T11:04:05Z</time></trkpt><trkpt lat="40.40386088580277" lon="9.009802962435627"><ele>658.0</ele><time>2026-04-11T11:04:06Z</time></trkpt><trkpt lat="40.403766106165875" lon="9.009614654130555"><ele>664.0</ele><time>2026-04-11T11:04:07Z</time></trkpt><trkpt lat="40.40370088347739" lon="9.009408801851785"><ele>654.0</ele><time>2026-04-11T11:04:08Z</time></trkpt><trkpt lat="40.403654839570734" lon="9.00918372043373"><ele>644.0</ele><time>2026-04-11T11:04:09Z</time></trkpt><trkpt lat="40.40363852965626" lon="9.00895555953379"><ele>634.0</ele><time>2026-04-11T11:04:10Z</time></trkpt><trkpt lat="40.40363856635781" lon="9.008725490523286"><ele>634.0</ele><time>2026-04-11T11:04:11Z</time></trkpt><trkpt lat="40.403646148167155" lon="9.008491682861106"><ele>634.0</ele><time>2026-04-11T11:04:12Z</time></trkpt><trkpt lat="40.40365383654879" lon="9.00826003004403"><ele>634.0</ele><time>2026-04-11T11:04:13Z</time></trkpt><trkpt lat="40.403642471447014" lon="9.008031461454943"><ele>637.6666666666667</ele><time>2026-04-11T11:04:14Z</time></trkpt><trkpt lat="40.403636543862845" lon="9.007806588838893"><ele>641.3333333333334</ele><time>2026-04-11T11:04:15Z</time></trkpt><trkpt lat="40.40361490940021" lon="9.007583726933026"><ele>645.0</ele><time>2026-04-11T11:04:16Z</time></trkpt><trkpt lat="40.40357696590541" lon="9.007367156062248"><ele>652.0</ele><time>2026-04-11T11:04:17Z</time></trkpt><trkpt lat="40.40352590787549" lon="9.007156938583785"><ele>659.0</ele><time>2026-04-11T11:04:18Z</time></trkpt><trkpt lat="40.40345416712085" lon="9.006955401586799"><ele>666.0</ele><time>2026-04-11T11:04:19Z</time></trkpt><trkpt lat="40.4033579295673" lon="9.006766806730393"><ele>670.3333333333334</ele><time>2026-04-11T11:04:20Z</time></trkpt><trkpt lat="40.40324512555221" lon="9.006591498001871"><ele>674.6666666666667</ele><time>2026-04-11T11:04:21Z</time></trkpt><trkpt lat="40.40311861983405" lon="9.006429302593697"><ele>679.0</ele><time>2026-04-11T11:04:22Z</time></trkpt><trkpt lat="40.40298308688964" lon="9.006285198834169"><ele>679.0</ele><time>2026-04-11T11:04:23Z</time></trkpt><trkpt lat="40.402839563710195" lon="9.006149116445302"><ele>679.0</ele><time>2026-04-11T11:04:24Z</time></trkpt><trkpt lat="40.4026825296024" lon="9.006031600636996"><ele>679.0</ele><time>2026-04-11T11:04:25Z</time></trkpt><trkpt lat="40.40251220546142" lon="9.005943381860094"><ele>679.0</ele><time>2026-04-11T11:04:26Z</time></trkpt><trkpt lat="40.402330792927124" lon="9.005891275211757"><ele>679.0</ele><time>2026-04-11T11:04:27Z</time></trkpt><trkpt lat="40.402146655978385" lon="9.005878204348175"><ele>679.0</ele><time>2026-04-11T11:04:28Z</time></trkpt><trkpt lat="40.40196838920844" lon="9.005900350583639"><ele>680.25</ele><time>2026-04-11T11:04:29Z</time></trkpt><trkpt lat="40.40180927713724" lon="9.005934682500042"><ele>681.5</ele><time>2026-04-11T11:04:30Z</time></trkpt><trkpt lat="40.40167346185208" lon="9.005920669383789"><ele>682.75</ele><time>2026-04-11T11:04:31Z</time></trkpt><trkpt lat="40.40155215512521" lon="9.005906506243393"><ele>684.0</ele><time>2026-04-11T11:04:32Z</time></trkpt><trkpt lat="40.40143137035375" lon="9.00587788856699"><ele>682.75</ele><time>2026-04-11T11:04:33Z</time></trkpt><trkpt lat="40.4012973650659" lon="9.005851238722734"><ele>681.5</ele><time>2026-04-11T11:04:34Z</time></trkpt><trkpt lat="40.40116492666492" lon="9.00577210035178"><ele>680.25</ele><time>2026-04-11T11:04:35Z</time></trkpt><trkpt lat="40.40103078333675" lon="9.005697554837624"><ele>679.0</ele><time>2026-04-11T11:04:36Z</time></trkpt><trkpt lat="40.40090297214447" lon="9.00560680211312"><ele>678.75</ele><time>2026-04-11T11:04:37Z</time></trkpt><trkpt lat="40.40077611145244" lon="9.005501963159782"><ele>678.5</ele><time>2026-04-11T11:04:38Z</time></trkpt><trkpt lat="40.40066405150972" lon="9.005386723549645"><ele>678.25</ele><time>2026-04-11T11:04:39Z</time></trkpt><trkpt lat="40.40054703952665" lon="9.005281138778857"><ele>678.0</ele><time>2026-04-11T11:04:40Z</time></trkpt><trkpt lat="40.40045097391386" lon="9.005143265407401"><ele>681.5</ele><time>2026-04-11T11:04:41Z</time></trkpt><trkpt lat="40.4003761643512" lon="9.004982340089354"><ele>685.0</ele><time>2026-04-11T11:04:42Z</time></trkpt><trkpt lat="40.40033837407143" lon="9.004815661329362"><ele>688.5</ele><time>2026-04-11T11:04:43Z</time></trkpt><trkpt lat="40.400336895849385" lon="9.004668563191615"><ele>692.0</ele><time>2026-04-11T11:04:44Z</time></trkpt><trkpt lat="40.400357383070734" lon="9.004530501548045"><ele>692.0</ele><time>2026-04-11T11:04:45Z</time></trkpt><trkpt lat="40.400381946348325" lon="9.004386576206548"><ele>692.0</ele><time>2026-04-11T11:04:46Z</time></trkpt><trkpt lat="40.40038067208711" lon="9.004230437451563"><ele>692.0</ele><time>2026-04-11T11:04:47Z</time></trkpt><trkpt lat="40.4003429740193" lon="9.004068934735798"><ele>692.0</ele><time>2026-04-11T11:04:48Z</time></trkpt><trkpt lat="40.40030544971081" lon="9.00390016992975"><ele>694.0</ele><time>2026-04-11T11:04:49Z</time></trkpt><trkpt lat="40.40025907523523" lon="9.00373047627373"><ele>696.0</ele><time>2026-04-11T11:04:50Z</time></trkpt><trkpt lat="40.40021277869061" lon="9.003554022752486"><ele>698.0</ele><time>2026-04-11T11:04:51Z</time></trkpt><trkpt lat="40.400170703992025" lon="9.003374470034519"><ele>700.0</ele><time>2026-04-11T11:04:52Z</time></trkpt><trkpt lat="40.4001437921629" lon="9.003205643920008"><ele>701.75</ele><time>2026-04-11T11:04:53Z</time></trkpt><trkpt lat="40.40013346857238" lon="9.003049865261563"><ele>703.5</ele><time>2026-04-11T11:04:54Z</time></trkpt><trkpt lat="40.400144910589134" lon="9.002896105159685"><ele>705.25</ele><time>2026-04-11T11:04:55Z</time></trkpt><trkpt lat="40.40019043468564" lon="9.00274756304487"><ele>707.0</ele><time>2026-04-11T11:04:56Z</time></trkpt><trkpt lat="40.40026314651015" lon="9.002615241885552"><ele>707.0</ele><time>2026-04-11T11:04:57Z</time></trkpt><trkpt lat="40.40036946674633" lon="9.002526128563423"><ele>707.0</ele><time>2026-04-11T11:04:58Z</time></trkpt><trkpt lat="40.40048952110782" lon="9.00244330062659"><ele>707.0</ele><time>2026-04-11T11:04:59Z</time></trkpt><trkpt lat="40.40060400330218" lon="9.002354799697702"><ele>707.0</ele><time>2026-04-11T11:05:00Z</time></trkpt><trkpt lat="40.40071959045006" lon="9.00226514212014"><ele>712.25</ele><time>2026-04-11T11:05:01Z</time></trkpt><trkpt lat="40.40080480550807" lon="9.002128047593285"><ele>717.5</ele><time>2026-04-11T11:05:02Z</time></trkpt><trkpt lat="40.40086199615265" lon="9.00195573776516"><ele>722.75</ele><time>2026-04-11T11:05:03Z</time></trkpt><trkpt lat="40.40088964995261" lon="9.001765005378424"><ele>728.0</ele><time>2026-04-11T11:05:04Z</time></trkpt><trkpt lat="40.400909834519" lon="9.001572448917614"><ele>729.0</ele><time>2026-04-11T11:05:05Z</time></trkpt><trkpt lat="40.400949118905146" lon="9.0013850769801"><ele>730.0</ele><time>2026-04-11T11:05:06Z</time></trkpt><trkpt lat="40.40098080307355" lon="9.001194820940832"><ele>731.0</ele><time>2026-04-11T11:05:07Z</time></trkpt><trkpt lat="40.40102508470021" lon="9.001009711459137"><ele>732.0</ele><time>2026-04-11T11:05:08Z</time></trkpt><trkpt lat="40.40109188726921" lon="9.00083560204172"><ele>730.3333333333334</ele><time>2026-04-11T11:05:09Z</time></trkpt><trkpt lat="40.401183421021194" lon="9.000672294345383"><ele>728.6666666666667</ele><time>2026-04-11T11:05:10Z</time></trkpt><trkpt lat="40.40129166007802" lon="9.00052262572112"><ele>727.0</ele><time>2026-04-11T11:05:11Z</time></trkpt><trkpt lat="40.40139357852788" lon="9.000364788567516"><ele>730.6666666666667</ele><time>2026-04-11T11:05:12Z</time></trkpt><trkpt lat="40.401523202836124" lon="9.00021907040875"><ele>734.3333333333334</ele><time>2026-04-11T11:05:13Z</time></trkpt><trkpt lat="40.40163328542358" lon="9.000055007368614"><ele>738.0</ele><time>2026-04-11T11:05:14Z</time></trkpt><trkpt lat="40.40174281250018" lon="8.999874843350087"><ele>738.0</ele><time>2026-04-11T11:05:15Z</time></trkpt><trkpt lat="40.40184397205773" lon="8.999687987384375"><ele>738.0</ele><time>2026-04-11T11:05:16Z</time></trkpt><trkpt lat="40.40194060071183" lon="8.999491144864958"><ele>738.0</ele><time>2026-04-11T11:05:17Z</time></trkpt><trkpt lat="40.4020327424151" lon="8.999288281345079"><ele>736.6666666666666</ele><time>2026-04-11T11:05:18Z</time></trkpt><trkpt lat="40.40211947401403" lon="8.999090029746176"><ele>735.3333333333333</ele><time>2026-04-11T11:05:19Z</time></trkpt><trkpt lat="40.40219100134046" lon="8.998909583683819"><ele>734.0</ele><time>2026-04-11T11:05:20Z</time></trkpt><trkpt lat="40.4022255706797" lon="8.998727301771163"><ele>734.0</ele><time>2026-04-11T11:05:21Z</time></trkpt><trkpt lat="40.402209491117276" lon="8.998538767594468"><ele>734.0</ele><time>2026-04-11T11:05:22Z</time></trkpt><trkpt lat="40.40214500986768" lon="8.998350846554509"><ele>734.0</ele><time>2026-04-11T11:05:23Z</time></trkpt><trkpt lat="40.40203675347301" lon="8.99818799789044"><ele>737.0</ele><time>2026-04-11T11:05:24Z</time></trkpt><trkpt lat="40.40189194787002" lon="8.998074223937843"><ele>740.0</ele><time>2026-04-11T11:05:25Z</time></trkpt><trkpt lat="40.40172646010069" lon="8.998004520681613"><ele>743.0</ele><time>2026-04-11T11:05:26Z</time></trkpt><trkpt lat="40.40158463197324" lon="8.997915099652564"><ele>743.0</ele><time>2026-04-11T11:05:27Z</time></trkpt><trkpt lat="40.40147483791492" lon="8.997782343014363"><ele>743.0</ele><time>2026-04-11T11:05:28Z</time></trkpt><trkpt lat="40.40140484095511" lon="8.997602532317423"><ele>743.0</ele><time>2026-04-11T11:05:29Z</time></trkpt><trkpt lat="40.40136398081401" lon="8.997395682530533"><ele>740.0</ele><time>2026-04-11T11:05:30Z</time></trkpt><trkpt lat="40.40134549858752" lon="8.997163773101496"><ele>737.0</ele><time>2026-04-11T11:05:31Z</time></trkpt><trkpt lat="40.40133134445251" lon="8.996927968175706"><ele>734.0</ele><time>2026-04-11T11:05:32Z</time></trkpt><trkpt lat="40.401292868257094" lon="8.996709400681455"><ele>740.6666666666666</ele><time>2026-04-11T11:05:33Z</time></trkpt><trkpt lat="40.40126648745474" lon="8.996505968481145"><ele>747.3333333333334</ele><time>2026-04-11T11:05:34Z</time></trkpt><trkpt lat="40.40120557528327" lon="8.996325302091138"><ele>754.0</ele><time>2026-04-11T11:05:35Z</time></trkpt><trkpt lat="40.40110745124906" lon="8.996177280558497"><ele>754.0</ele><time>2026-04-11T11:05:36Z</time></trkpt><trkpt lat="40.4009729415206" lon="8.996099870559407"><ele>754.0</ele><time>2026-04-11T11:05:37Z</time></trkpt><trkpt lat="40.40082373134441" lon="8.996091251988721"><ele>754.0</ele><time>2026-04-11T11:05:38Z</time></trkpt><trkpt lat="40.400677700577695" lon="8.996088598406764"><ele>754.0</ele><time>2026-04-11T11:05:39Z</time></trkpt><trkpt lat="40.400550290496774" lon="8.996044438793806"><ele>754.0</ele><time>2026-04-11T11:05:40Z</time></trkpt><trkpt lat="40.40044248074147" lon="8.995925236744293"><ele>754.0</ele><time>2026-04-11T11:05:41Z</time></trkpt><trkpt lat="40.40037286579654" lon="8.995787895287393"><ele>754.0</ele><time>2026-04-11T11:05:42Z</time></trkpt><trkpt lat="40.40031054734427" lon="8.995625850491495"><ele>754.0</ele><time>2026-04-11T11:05:43Z</time></trkpt><trkpt lat="40.40024968940823" lon="8.995455046538183"><ele>754.0</ele><time>2026-04-11T11:05:44Z</time></trkpt><trkpt lat="40.40017949725557" lon="8.995271547076971"><ele>754.0</ele><time>2026-04-11T11:05:45Z</time></trkpt><trkpt lat="40.40009619101857" lon="8.995104550070186"><ele>754.0</ele><time>2026-04-11T11:05:46Z</time></trkpt><trkpt lat="40.40000031435767" lon="8.994942523465228"><ele>763.3333333333334</ele><time>2026-04-11T11:05:47Z</time></trkpt><trkpt lat="40.399890824947725" lon="8.994796716960598"><ele>772.6666666666667</ele><time>2026-04-11T11:05:48Z</time></trkpt><trkpt lat="40.399782615425025" lon="8.99465743223275"><ele>782.0</ele><time>2026-04-11T11:05:49Z</time></trkpt><trkpt lat="40.399676978276986" lon="8.994528895775206"><ele>780.25</ele><time>2026-04-11T11:05:50Z</time></trkpt><trkpt lat="40.399562507597715" lon="8.994419181113482"><ele>778.5</ele><time>2026-04-11T11:05:51Z</time></trkpt><trkpt lat="40.39946557169804" lon="8.994297647371308"><ele>776.75</ele><time>2026-04-11T11:05:52Z</time></trkpt><trkpt lat="40.399393326526976" lon="8.994161325761029"><ele>775.0</ele><time>2026-04-11T11:05:53Z</time></trkpt><trkpt lat="40.39930468433653" lon="8.994042462552214"><ele>775.0</ele><time>2026-04-11T11:05:54Z</time></trkpt><trkpt lat="40.39924778382017" lon="8.99389095954529"><ele>775.0</ele><time>2026-04-11T11:05:55Z</time></trkpt><trkpt lat="40.39921577641194" lon="8.993723338692849"><ele>775.0</ele><time>2026-04-11T11:05:56Z</time></trkpt><trkpt lat="40.399233458253676" lon="8.993548856703734"><ele>775.0</ele><time>2026-04-11T11:05:57Z</time></trkpt><trkpt lat="40.39922251071821" lon="8.99337117946132"><ele>778.75</ele><time>2026-04-11T11:05:58Z</time></trkpt><trkpt lat="40.399230473210274" lon="8.99319438726156"><ele>782.5</ele><time>2026-04-11T11:05:59Z</time></trkpt><trkpt lat="40.399232975867704" lon="8.993016619976256"><ele>786.25</ele><time>2026-04-11T11:06:00Z</time></trkpt><trkpt lat="40.39922983154074" lon="8.992841983889544"><ele>790.0</ele><time>2026-04-11T11:06:01Z</time></trkpt><trkpt lat="40.39920984590671" lon="8.992667184404786"><ele>794.0</ele><time>2026-04-11T11:06:02Z</time></trkpt><trkpt lat="40.39915898356714" lon="8.992501238405596"><ele>798.0</ele><time>2026-04-11T11:06:03Z</time></trkpt><trkpt lat="40.399071825647184" lon="8.992363111541273"><ele>802.0</ele><time>2026-04-11T11:06:04Z</time></trkpt><trkpt lat="40.398980800272604" lon="8.992225996459826"><ele>806.0</ele><time>2026-04-11T11:06:05Z</time></trkpt><trkpt lat="40.39887946609468" lon="8.992099596935885"><ele>805.0</ele><time>2026-04-11T11:06:06Z</time></trkpt><trkpt lat="40.39877586549953" lon="8.991975584325049"><ele>804.0</ele><time>2026-04-11T11:06:07Z</time></trkpt><trkpt lat="40.39866457811743" lon="8.99187159226919"><ele>803.0</ele><time>2026-04-11T11:06:08Z</time></trkpt><trkpt lat="40.398568215666614" lon="8.991749100967409"><ele>802.0</ele><time>2026-04-11T11:06:09Z</time></trkpt><trkpt lat="40.39846858070738" lon="8.991629946609144"><ele>802.0</ele><time>2026-04-11T11:06:10Z</time></trkpt><trkpt lat="40.39837115475886" lon="8.991510013470979"><ele>802.0</ele><time>2026-04-11T11:06:11Z</time></trkpt><trkpt lat="40.39827383596277" lon="8.991390678240784"><ele>802.0</ele><time>2026-04-11T11:06:12Z</time></trkpt><trkpt lat="40.39817835955027" lon="8.991273186512531"><ele>802.0</ele><time>2026-04-11T11:06:13Z</time></trkpt><trkpt lat="40.3980854678939" lon="8.99115873816455"><ele>804.25</ele><time>2026-04-11T11:06:14Z</time></trkpt><trkpt lat="40.39799153803193" lon="8.991048007170104"><ele>806.5</ele><time>2026-04-11T11:06:15Z</time></trkpt><trkpt lat="40.397898801890236" lon="8.990937662168507"><ele>808.75</ele><time>2026-04-11T11:06:16Z</time></trkpt><trkpt lat="40.39780623051415" lon="8.990826626090119"><ele>811.0</ele><time>2026-04-11T11:06:17Z</time></trkpt><trkpt lat="40.39771357483709" lon="8.990717628022438"><ele>811.0</ele><time>2026-04-11T11:06:18Z</time></trkpt><trkpt lat="40.397620337850306" lon="8.990606203831998"><ele>811.0</ele><time>2026-04-11T11:06:19Z</time></trkpt><trkpt lat="40.397531873756144" lon="8.990491318672818"><ele>811.0</ele><time>2026-04-11T11:06:20Z</time></trkpt><trkpt lat="40.39744575183042" lon="8.990379019889751"><ele>811.0</ele><time>2026-04-11T11:06:21Z</time></trkpt><trkpt lat="40.39736688765329" lon="8.99024990446978"><ele>811.0</ele><time>2026-04-11T11:06:22Z</time></trkpt><trkpt lat="40.39730804420334" lon="8.990098709919693"><ele>811.0</ele><time>2026-04-11T11:06:23Z</time></trkpt><trkpt lat="40.39725484113063" lon="8.989935265813775"><ele>811.0</ele><time>2026-04-11T11:06:24Z</time></trkpt><trkpt lat="40.39722857982136" lon="8.989756158037583"><ele>811.0</ele><time>2026-04-11T11:06:25Z</time></trkpt><trkpt lat="40.39719632907882" lon="8.9895781606475"><ele>812.25</ele><time>2026-04-11T11:06:26Z</time></trkpt><trkpt lat="40.39716363134068" lon="8.989395230950002"><ele>813.5</ele><time>2026-04-11T11:06:27Z</time></trkpt><trkpt lat="40.397107560213215" lon="8.989218988912059"><ele>814.75</ele><time>2026-04-11T11:06:28Z</time></trkpt><trkpt lat="40.39703750443159" lon="8.989044212655113"><ele>816.0</ele><time>2026-04-11T11:06:29Z</time></trkpt><trkpt lat="40.39692488449889" lon="8.988897851577159"><ele>816.0</ele><time>2026-04-11T11:06:30Z</time></trkpt><trkpt lat="40.39680461967419" lon="8.98876770928581"><ele>816.0</ele><time>2026-04-11T11:06:31Z</time></trkpt><trkpt lat="40.396662548953344" lon="8.988680003648682"><ele>816.0</ele><time>2026-04-11T11:06:32Z</time></trkpt><trkpt lat="40.39653493590923" lon="8.988609042087768"><ele>816.0</ele><time>2026-04-11T11:06:33Z</time></trkpt><trkpt lat="40.396420664231115" lon="8.988544226342183"><ele>816.0</ele><time>2026-04-11T11:06:34Z</time></trkpt><trkpt lat="40.39631326486757" lon="8.98847463627569"><ele>816.0</ele><time>2026-04-11T11:06:35Z</time></trkpt><trkpt lat="40.39622167925746" lon="8.988392151145103"><ele>816.0</ele><time>2026-04-11T11:06:36Z</time></trkpt><trkpt lat="40.396138050332574" lon="8.988291158994977"><ele>818.0</ele><time>2026-04-11T11:06:37Z</time></trkpt><trkpt lat="40.396059868600645" lon="8.988173397755064"><ele>820.0</ele><time>2026-04-11T11:06:38Z</time></trkpt><trkpt lat="40.39597631793301" lon="8.988053312790216"><ele>822.0</ele><time>2026-04-11T11:06:39Z</time></trkpt><trkpt lat="40.395913041698606" lon="8.987909688038574"><ele>824.0</ele><time>2026-04-11T11:06:40Z</time></trkpt><trkpt lat="40.39584901496647" lon="8.987763296710392"><ele>824.0</ele><time>2026-04-11T11:06:41Z</time></trkpt><trkpt lat="40.39578534579972" lon="8.987620812288302"><ele>824.0</ele><time>2026-04-11T11:06:42Z</time></trkpt><trkpt lat="40.39573796124878" lon="8.98747110287553"><ele>824.0</ele><time>2026-04-11T11:06:43Z</time></trkpt><trkpt lat="40.39567596829622" lon="8.98733204854845"><ele>824.0</ele><time>2026-04-11T11:06:44Z</time></trkpt><trkpt lat="40.3956142449139" lon="8.987189099734476"><ele>822.25</ele><time>2026-04-11T11:06:45Z</time></trkpt><trkpt lat="40.39555692840437" lon="8.987045205480857"><ele>820.5</ele><time>2026-04-11T11:06:46Z</time></trkpt><trkpt lat="40.39549402556351" lon="8.986905848115594"><ele>818.75</ele><time>2026-04-11T11:06:47Z</time></trkpt><trkpt lat="40.39546196453136" lon="8.986761995161906"><ele>817.0</ele><time>2026-04-11T11:06:48Z</time></trkpt><trkpt lat="40.39544476671346" lon="8.986641221908682"><ele>819.4999999999999</ele><time>2026-04-11T11:06:49Z</time></trkpt><trkpt lat="40.39544983330643" lon="8.98655066942699"><ele>822.0</ele><time>2026-04-11T11:06:50Z</time></trkpt><trkpt lat="40.39544770934206" lon="8.986422296012817"><ele>824.5</ele><time>2026-04-11T11:06:52Z</time></trkpt><trkpt lat="40.395441429418284" lon="8.986319947240856"><ele>827.0</ele><time>2026-04-11T11:06:54Z</time></trkpt><trkpt lat="40.39544698160645" lon="8.986223727049033"><ele>829.4999999999999</ele><time>2026-04-11T11:06:57Z</time></trkpt><trkpt lat="40.395454543072766" lon="8.986104414447585"><ele>832.0</ele><time>2026-04-11T11:07:00Z</time></trkpt><trkpt lat="40.39548578459335" lon="8.985917741948668"><ele>836.0</ele><time>2026-04-11T11:07:02Z</time></trkpt><trkpt lat="40.39551324665969" lon="8.985785759470318"><ele>840.0</ele><time>2026-04-11T11:07:03Z</time></trkpt><trkpt lat="40.39556444063879" lon="8.985662231357693"><ele>844.0</ele><time>2026-04-11T11:07:04Z</time></trkpt><trkpt lat="40.39563117827217" lon="8.98555142603246"><ele>848.0</ele><time>2026-04-11T11:07:05Z</time></trkpt><trkpt lat="40.39571624290484" lon="8.985441399509984"><ele>852.0</ele><time>2026-04-11T11:07:06Z</time></trkpt><trkpt lat="40.39581652437147" lon="8.985336738970208"><ele>852.0</ele><time>2026-04-11T11:07:07Z</time></trkpt><trkpt lat="40.3959285123684" lon="8.985238581527323"><ele>852.0</ele><time>2026-04-11T11:07:08Z</time></trkpt><trkpt lat="40.396042310555856" lon="8.985142614488373"><ele>852.0</ele><time>2026-04-11T11:07:09Z</time></trkpt><trkpt lat="40.39615302592907" lon="8.985040196962803"><ele>852.0</ele><time>2026-04-11T11:07:10Z</time></trkpt><trkpt lat="40.39626430230416" lon="8.984935770371905"><ele>854.0</ele><time>2026-04-11T11:07:11Z</time></trkpt><trkpt lat="40.39637798050445" lon="8.984831616972281"><ele>856.0</ele><time>2026-04-11T11:07:12Z</time></trkpt><trkpt lat="40.39649002148107" lon="8.984722513857164"><ele>858.0</ele><time>2026-04-11T11:07:13Z</time></trkpt><trkpt lat="40.396589610721946" lon="8.984593762856395"><ele>860.0</ele><time>2026-04-11T11:07:14Z</time></trkpt><trkpt lat="40.39666165376573" lon="8.984435216745949"><ele>860.0</ele><time>2026-04-11T11:07:15Z</time></trkpt><trkpt lat="40.39670670512504" lon="8.984266788656411"><ele>860.0</ele><time>2026-04-11T11:07:16Z</time></trkpt><trkpt lat="40.396715545687094" lon="8.984086414797602"><ele>860.0</ele><time>2026-04-11T11:07:17Z</time></trkpt><trkpt lat="40.39670073010295" lon="8.98389722010636"><ele>860.0</ele><time>2026-04-11T11:07:18Z</time></trkpt><trkpt lat="40.39661891342312" lon="8.983721909887477"><ele>859.0</ele><time>2026-04-11T11:07:19Z</time></trkpt><trkpt lat="40.396524811250146" lon="8.983555287835518"><ele>858.0</ele><time>2026-04-11T11:07:20Z</time></trkpt><trkpt lat="40.39640681861613" lon="8.983406861290263"><ele>857.0</ele><time>2026-04-11T11:07:21Z</time></trkpt><trkpt lat="40.396282268728456" lon="8.983262195021245"><ele>857.0</ele><time>2026-04-11T11:07:22Z</time></trkpt><trkpt lat="40.39617479953868" lon="8.983087542946187"><ele>857.0</ele><time>2026-04-11T11:07:23Z</time></trkpt><trkpt lat="40.396061562734054" lon="8.982932609777745"><ele>857.0</ele><time>2026-04-11T11:07:24Z</time></trkpt><trkpt lat="40.39593222367373" lon="8.982785247022075"><ele>857.0</ele><time>2026-04-11T11:07:25Z</time></trkpt><trkpt lat="40.39582703774018" lon="8.982609786808274"><ele>857.0</ele><time>2026-04-11T11:07:26Z</time></trkpt><trkpt lat="40.395762876469426" lon="8.982404120108153"><ele>857.0</ele><time>2026-04-11T11:07:27Z</time></trkpt><trkpt lat="40.39571732771738" lon="8.982184522021292"><ele>861.6666666666667</ele><time>2026-04-11T11:07:28Z</time></trkpt><trkpt lat="40.395690336239" lon="8.981944962111392"><ele>866.3333333333333</ele><time>2026-04-11T11:07:29Z</time></trkpt><trkpt lat="40.395669143304055" lon="8.98170445348044"><ele>871.0</ele><time>2026-04-11T11:07:30Z</time></trkpt><trkpt lat="40.39563173988135" lon="8.981463712371044"><ele>872.3333333333333</ele><time>2026-04-11T11:07:31Z</time></trkpt><trkpt lat="40.39562715447313" lon="8.981223196960514"><ele>873.6666666666667</ele><time>2026-04-11T11:07:32Z</time></trkpt><trkpt lat="40.39560619910489" lon="8.980986784464223"><ele>875.0</ele><time>2026-04-11T11:07:33Z</time></trkpt><trkpt lat="40.39558574222734" lon="8.98075923183944"><ele>879.6666666666667</ele><time>2026-04-11T11:07:34Z</time></trkpt><trkpt lat="40.39556563465246" lon="8.98053509743174"><ele>884.3333333333333</ele><time>2026-04-11T11:07:35Z</time></trkpt><trkpt lat="40.39554721928076" lon="8.980318230274078"><ele>889.0</ele><time>2026-04-11T11:07:36Z</time></trkpt><trkpt lat="40.39553044831477" lon="8.980105308722083"><ele>893.6666666666666</ele><time>2026-04-11T11:07:37Z</time></trkpt><trkpt lat="40.3955148090552" lon="8.97989297390714"><ele>898.3333333333333</ele><time>2026-04-11T11:07:38Z</time></trkpt><trkpt lat="40.39550465814608" lon="8.979671154074861"><ele>903.0</ele><time>2026-04-11T11:07:39Z</time></trkpt><trkpt lat="40.39552025975323" lon="8.979455310503637"><ele>903.0</ele><time>2026-04-11T11:07:40Z</time></trkpt><trkpt lat="40.39556179159148" lon="8.979242345023529"><ele>903.0</ele><time>2026-04-11T11:07:41Z</time></trkpt><trkpt lat="40.395627602530624" lon="8.979036104666664"><ele>903.0</ele><time>2026-04-11T11:07:42Z</time></trkpt><trkpt lat="40.395704153256084" lon="8.9788392119925"><ele>902.6666666666667</ele><time>2026-04-11T11:07:43Z</time></trkpt><trkpt lat="40.395800645917554" lon="8.97866522119038"><ele>902.3333333333334</ele><time>2026-04-11T11:07:44Z</time></trkpt><trkpt lat="40.39591357333328" lon="8.978504672103696"><ele>902.0</ele><time>2026-04-11T11:07:45Z</time></trkpt><trkpt lat="40.39604063486863" lon="8.978365107651493"><ele>898.3333333333334</ele><time>2026-04-11T11:07:46Z</time></trkpt><trkpt lat="40.39616576995701" lon="8.978216059377798"><ele>894.6666666666667</ele><time>2026-04-11T11:07:47Z</time></trkpt><trkpt lat="40.39630490053262" lon="8.97808856340323"><ele>891.0</ele><time>2026-04-11T11:07:48Z</time></trkpt><trkpt lat="40.3964392889343" lon="8.977937444846068"><ele>897.3333333333333</ele><time>2026-04-11T11:07:49Z</time></trkpt><trkpt lat="40.39655689096189" lon="8.977759367872482"><ele>903.6666666666666</ele><time>2026-04-11T11:07:50Z</time></trkpt><trkpt lat="40.396652316522584" lon="8.977550297730382"><ele>910.0</ele><time>2026-04-11T11:07:51Z</time></trkpt><trkpt lat="40.39674384204406" lon="8.977346299074885"><ele>910.0</ele><time>2026-04-11T11:07:52Z</time></trkpt><trkpt lat="40.39681510586711" lon="8.97713278279691"><ele>910.0</ele><time>2026-04-11T11:07:53Z</time></trkpt><trkpt lat="40.39682759028581" lon="8.976899883257667"><ele>910.0</ele><time>2026-04-11T11:07:54Z</time></trkpt><trkpt lat="40.39680211144256" lon="8.976677858467006"><ele>908.6666666666666</ele><time>2026-04-11T11:07:55Z</time></trkpt><trkpt lat="40.396729935707796" lon="8.97647931269914"><ele>907.3333333333333</ele><time>2026-04-11T11:07:56Z</time></trkpt><trkpt lat="40.396629788897144" lon="8.976303229307698"><ele>906.0</ele><time>2026-04-11T11:07:57Z</time></trkpt><trkpt lat="40.39655220081271" lon="8.976104780901137"><ele>906.0</ele><time>2026-04-11T11:07:58Z</time></trkpt><trkpt lat="40.396470324920195" lon="8.975912235903825"><ele>906.0</ele><time>2026-04-11T11:07:59Z</time></trkpt><trkpt lat="40.39642037566422" lon="8.975694703435042"><ele>906.0</ele><time>2026-04-11T11:08:00Z</time></trkpt><trkpt lat="40.39642064371258" lon="8.975479856999108"><ele>908.6666666666667</ele><time>2026-04-11T11:08:01Z</time></trkpt><trkpt lat="40.39647797080395" lon="8.975287188381788"><ele>911.3333333333334</ele><time>2026-04-11T11:08:02Z</time></trkpt><trkpt lat="40.39656033183986" lon="8.975107226841699"><ele>914.0</ele><time>2026-04-11T11:08:03Z</time></trkpt><trkpt lat="40.396669837537694" lon="8.97494068686321"><ele>914.3333333333334</ele><time>2026-04-11T11:08:04Z</time></trkpt><trkpt lat="40.39681424317166" lon="8.974851862265162"><ele>914.6666666666667</ele><time>2026-04-11T11:08:05Z</time></trkpt><trkpt lat="40.39698123741948" lon="8.97482649900537"><ele>915.0</ele><time>2026-04-11T11:08:06Z</time></trkpt><trkpt lat="40.39715968806872" lon="8.974854110196699"><ele>914.0</ele><time>2026-04-11T11:08:07Z</time></trkpt><trkpt lat="40.39733907646915" lon="8.974902320746427"><ele>913.0</ele><time>2026-04-11T11:08:08Z</time></trkpt><trkpt lat="40.397523886596005" lon="8.974952688803977"><ele>912.0</ele><time>2026-04-11T11:08:09Z</time></trkpt><trkpt lat="40.39771203569552" lon="8.97500492269213"><ele>913.0</ele><time>2026-04-11T11:08:10Z</time></trkpt><trkpt lat="40.397904845819795" lon="8.975057690675742"><ele>914.0</ele><time>2026-04-11T11:08:11Z</time></trkpt><trkpt lat="40.398106036539524" lon="8.97511107006966"><ele>915.0</ele><time>2026-04-11T11:08:12Z</time></trkpt><trkpt lat="40.398313213779254" lon="8.975160213458011"><ele>915.0</ele><time>2026-04-11T11:08:13Z</time></trkpt><trkpt lat="40.39852601580773" lon="8.97520886747761"><ele>915.0</ele><time>2026-04-11T11:08:14Z</time></trkpt><trkpt lat="40.39868514976061" lon="8.975251290516786"><ele>915.0</ele><time>2026-04-11T11:08:15Z</time></trkpt><trkpt lat="40.39888392181763" lon="8.975309533398173"><ele>911.6666666666667</ele><time>2026-04-11T11:08:16Z</time></trkpt><trkpt lat="40.399083329138755" lon="8.975371612433007"><ele>908.3333333333334</ele><time>2026-04-11T11:08:17Z</time></trkpt><trkpt lat="40.399284254171256" lon="8.975430498198733"><ele>905.0</ele><time>2026-04-11T11:08:18Z</time></trkpt><trkpt lat="40.399487347849636" lon="8.975483533397043"><ele>903.6666666666667</ele><time>2026-04-11T11:08:19Z</time></trkpt><trkpt lat="40.39969163244636" lon="8.975531102389525"><ele>902.3333333333333</ele><time>2026-04-11T11:08:20Z</time></trkpt><trkpt lat="40.399892950936994" lon="8.975567726944153"><ele>901.0</ele><time>2026-04-11T11:08:21Z</time></trkpt><trkpt lat="40.40009601006569" lon="8.975566648165229"><ele>901.0</ele><time>2026-04-11T11:08:22Z</time></trkpt><trkpt lat="40.40030104447001" lon="8.975519109694337"><ele>901.0</ele><time>2026-04-11T11:08:23Z</time></trkpt><trkpt lat="40.40050681559459" lon="8.975461594646909"><ele>901.0</ele><time>2026-04-11T11:08:24Z</time></trkpt><trkpt lat="40.400711140205495" lon="8.97540743810995"><ele>899.3333333333333</ele><time>2026-04-11T11:08:25Z</time></trkpt><trkpt lat="40.40091365906963" lon="8.97536578384859"><ele>897.6666666666667</ele><time>2026-04-11T11:08:26Z</time></trkpt><trkpt lat="40.401118436807906" lon="8.975328175281227"><ele>896.0</ele><time>2026-04-11T11:08:27Z</time></trkpt><trkpt lat="40.401318774484864" lon="8.975286399356607"><ele>895.0</ele><time>2026-04-11T11:08:28Z</time></trkpt><trkpt lat="40.40151515264342" lon="8.97523431220854"><ele>894.0</ele><time>2026-04-11T11:08:29Z</time></trkpt><trkpt lat="40.40170468100273" lon="8.975162415956865"><ele>893.0</ele><time>2026-04-11T11:08:30Z</time></trkpt><trkpt lat="40.40188376102391" lon="8.975053196012315"><ele>887.6666666666667</ele><time>2026-04-11T11:08:31Z</time></trkpt><trkpt lat="40.40204973592008" lon="8.97491332671731"><ele>882.3333333333333</ele><time>2026-04-11T11:08:32Z</time></trkpt><trkpt lat="40.40219955674554" lon="8.97474193038042"><ele>877.0</ele><time>2026-04-11T11:08:33Z</time></trkpt><trkpt lat="40.40233041781441" lon="8.974536878477432"><ele>876.6666666666666</ele><time>2026-04-11T11:08:34Z</time></trkpt><trkpt lat="40.402441188745264" lon="8.974309615220202"><ele>876.3333333333333</ele><time>2026-04-11T11:08:35Z</time></trkpt><trkpt lat="40.40254472845849" lon="8.974074124030063"><ele>876.0</ele><time>2026-04-11T11:08:36Z</time></trkpt><trkpt lat="40.402644034724275" lon="8.973833866118298"><ele>874.0</ele><time>2026-04-11T11:08:37Z</time></trkpt><trkpt lat="40.402753626953455" lon="8.97359418575433"><ele>872.0</ele><time>2026-04-11T11:08:38Z</time></trkpt><trkpt lat="40.402854658075185" lon="8.973347484035134"><ele>870.0</ele><time>2026-04-11T11:08:39Z</time></trkpt><trkpt lat="40.40295709284379" lon="8.973098511160124"><ele>869.0</ele><time>2026-04-11T11:08:40Z</time></trkpt><trkpt lat="40.40306195541563" lon="8.972844137289872"><ele>868.0</ele><time>2026-04-11T11:08:41Z</time></trkpt><trkpt lat="40.40316709968051" lon="8.972589080152316"><ele>867.0</ele><time>2026-04-11T11:08:42Z</time></trkpt><trkpt lat="40.40327055749136" lon="8.972338113924042"><ele>867.0</ele><time>2026-04-11T11:08:43Z</time></trkpt><trkpt lat="40.40337443990473" lon="8.972086117784507"><ele>867.0</ele><time>2026-04-11T11:08:44Z</time></trkpt><trkpt lat="40.403462297848094" lon="8.971828535918203"><ele>867.0</ele><time>2026-04-11T11:08:45Z</time></trkpt><trkpt lat="40.40356455677284" lon="8.971583199411933"><ele>865.0</ele><time>2026-04-11T11:08:46Z</time></trkpt><trkpt lat="40.40366442436915" lon="8.971337350528353"><ele>863.0</ele><time>2026-04-11T11:08:47Z</time></trkpt><trkpt lat="40.40377882177966" lon="8.971096749674265"><ele>861.0</ele><time>2026-04-11T11:08:48Z</time></trkpt><trkpt lat="40.40388246117212" lon="8.970844325146542"><ele>861.0</ele><time>2026-04-11T11:08:49Z</time></trkpt><trkpt lat="40.40398876965129" lon="8.970590088331834"><ele>861.0</ele><time>2026-04-11T11:08:50Z</time></trkpt><trkpt lat="40.40409606737947" lon="8.970334479766487"><ele>861.0</ele><time>2026-04-11T11:08:51Z</time></trkpt><trkpt lat="40.40416523297458" lon="8.970167428747693"><ele>858.6666666666667</ele><time>2026-04-11T11:08:52Z</time></trkpt><trkpt lat="40.404260894622624" lon="8.969930888267672"><ele>856.3333333333334</ele><time>2026-04-11T11:08:53Z</time></trkpt><trkpt lat="40.40434111774587" lon="8.969681837454052"><ele>854.0</ele><time>2026-04-11T11:08:54Z</time></trkpt><trkpt lat="40.404435535362346" lon="8.969440415390135"><ele>852.3333333333334</ele><time>2026-04-11T11:08:55Z</time></trkpt><trkpt lat="40.40451898576855" lon="8.969191450036975"><ele>850.6666666666667</ele><time>2026-04-11T11:08:56Z</time></trkpt><trkpt lat="40.404584835593226" lon="8.968934411290899"><ele>849.0</ele><time>2026-04-11T11:08:57Z</time></trkpt><trkpt lat="40.40464150677026" lon="8.968666104800754"><ele>849.6666666666667</ele><time>2026-04-11T11:08:58Z</time></trkpt><trkpt lat="40.404717580983416" lon="8.9683992721015"><ele>850.3333333333334</ele><time>2026-04-11T11:08:59Z</time></trkpt><trkpt lat="40.40478134260667" lon="8.968128478804275"><ele>851.0</ele><time>2026-04-11T11:09:00Z</time></trkpt><trkpt lat="40.40484489771059" lon="8.96785469983427"><ele>851.0</ele><time>2026-04-11T11:09:01Z</time></trkpt><trkpt lat="40.40490882236656" lon="8.967579328975722"><ele>851.0</ele><time>2026-04-11T11:09:02Z</time></trkpt><trkpt lat="40.40497442742548" lon="8.96729571039128"><ele>851.0</ele><time>2026-04-11T11:09:03Z</time></trkpt><trkpt lat="40.40503997064256" lon="8.96701167946877"><ele>850.3333333333334</ele><time>2026-04-11T11:09:04Z</time></trkpt><trkpt lat="40.4051049797785" lon="8.966729962983313"><ele>849.6666666666667</ele><time>2026-04-11T11:09:05Z</time></trkpt><trkpt lat="40.40516934763774" lon="8.96645086888033"><ele>849.0</ele><time>2026-04-11T11:09:06Z</time></trkpt><trkpt lat="40.40523474722255" lon="8.96616700932843"><ele>846.5</ele><time>2026-04-11T11:09:07Z</time></trkpt><trkpt lat="40.40529940899718" lon="8.96588301109546"><ele>844.0</ele><time>2026-04-11T11:09:08Z</time></trkpt><trkpt lat="40.40536353363377" lon="8.965599240207105"><ele>842.0</ele><time>2026-04-11T11:09:09Z</time></trkpt><trkpt lat="40.405426391625575" lon="8.965322063025383"><ele>840.0</ele><time>2026-04-11T11:09:10Z</time></trkpt><trkpt lat="40.405490320783976" lon="8.965046152609661"><ele>838.0</ele><time>2026-04-11T11:09:11Z</time></trkpt><trkpt lat="40.405553031593634" lon="8.964775500665228"><ele>838.0</ele><time>2026-04-11T11:09:12Z</time></trkpt><trkpt lat="40.40561508058745" lon="8.964507705721147"><ele>838.0</ele><time>2026-04-11T11:09:13Z</time></trkpt><trkpt lat="40.40566967527635" lon="8.96423792511951"><ele>838.0</ele><time>2026-04-11T11:09:14Z</time></trkpt><trkpt lat="40.40576941106213" lon="8.96399758304897"><ele>835.3333333333333</ele><time>2026-04-11T11:09:15Z</time></trkpt><trkpt lat="40.40589948522671" lon="8.963791097831173"><ele>832.6666666666667</ele><time>2026-04-11T11:09:16Z</time></trkpt><trkpt lat="40.4060542745038" lon="8.96360465974341"><ele>830.0</ele><time>2026-04-11T11:09:17Z</time></trkpt><trkpt lat="40.406210103032755" lon="8.963409746257282"><ele>827.0</ele><time>2026-04-11T11:09:18Z</time></trkpt><trkpt lat="40.40635802731902" lon="8.963202982951024"><ele>824.0</ele><time>2026-04-11T11:09:19Z</time></trkpt><trkpt lat="40.406502978235096" lon="8.962987517468886"><ele>821.0</ele><time>2026-04-11T11:09:20Z</time></trkpt><trkpt lat="40.40664952330676" lon="8.96276897216934"><ele>821.0</ele><time>2026-04-11T11:09:21Z</time></trkpt><trkpt lat="40.406796341498854" lon="8.962546996890252"><ele>821.0</ele><time>2026-04-11T11:09:22Z</time></trkpt><trkpt lat="40.40694769618079" lon="8.962321786194282"><ele>820.5</ele><time>2026-04-11T11:09:23Z</time></trkpt><trkpt lat="40.407105555417225" lon="8.96209228453343"><ele>820.0</ele><time>2026-04-11T11:09:24Z</time></trkpt><trkpt lat="40.40726698154858" lon="8.961860733334435"><ele>816.5</ele><time>2026-04-11T11:09:25Z</time></trkpt><trkpt lat="40.407428809383504" lon="8.961623477505444"><ele>813.0</ele><time>2026-04-11T11:09:26Z</time></trkpt><trkpt lat="40.40759093559369" lon="8.961384545809002"><ele>813.0</ele><time>2026-04-11T11:09:27Z</time></trkpt><trkpt lat="40.40775441222827" lon="8.961145280639158"><ele>813.0</ele><time>2026-04-11T11:09:28Z</time></trkpt><trkpt lat="40.40791973920526" lon="8.960905731605719"><ele>809.0</ele><time>2026-04-11T11:09:29Z</time></trkpt><trkpt lat="40.40808792575484" lon="8.960671665226549"><ele>805.0</ele><time>2026-04-11T11:09:30Z</time></trkpt><trkpt lat="40.40826761709413" lon="8.960449796697095"><ele>805.0</ele><time>2026-04-11T11:09:31Z</time></trkpt><trkpt lat="40.408457504433706" lon="8.96024671693329"><ele>805.0</ele><time>2026-04-11T11:09:32Z</time></trkpt><trkpt lat="40.40865127438373" lon="8.960052287212754"><ele>804.5</ele><time>2026-04-11T11:09:33Z</time></trkpt><trkpt lat="40.408843500090086" lon="8.95986349549432"><ele>804.0</ele><time>2026-04-11T11:09:34Z</time></trkpt><trkpt lat="40.40903391081991" lon="8.959674384916024"><ele>804.0</ele><time>2026-04-11T11:09:35Z</time></trkpt><trkpt lat="40.409219833482155" lon="8.959487218596554"><ele>804.0</ele><time>2026-04-11T11:09:36Z</time></trkpt><trkpt lat="40.40940277087063" lon="8.959305571784263"><ele>802.5</ele><time>2026-04-11T11:09:37Z</time></trkpt><trkpt lat="40.409590218300096" lon="8.959134924657098"><ele>801.0</ele><time>2026-04-11T11:09:38Z</time></trkpt><trkpt lat="40.40978318218249" lon="8.958989466063661"><ele>804.0</ele><time>2026-04-11T11:09:39Z</time></trkpt><trkpt lat="40.40998625659191" lon="8.958874884683445"><ele>807.0</ele><time>2026-04-11T11:09:40Z</time></trkpt><trkpt lat="40.41019548567888" lon="8.958784523381537"><ele>810.0</ele><time>2026-04-11T11:09:41Z</time></trkpt><trkpt lat="40.41041167970403" lon="8.95871325069234"><ele>813.0</ele><time>2026-04-11T11:09:42Z</time></trkpt><trkpt lat="40.41063532244418" lon="8.958662591030892"><ele>816.0</ele><time>2026-04-11T11:09:43Z</time></trkpt><trkpt lat="40.410861265385215" lon="8.958630704889275"><ele>816.0</ele><time>2026-04-11T11:09:44Z</time></trkpt><trkpt lat="40.41108399501864" lon="8.958617340343853"><ele>816.0</ele><time>2026-04-11T11:09:45Z</time></trkpt><trkpt lat="40.411296814924334" lon="8.958610968305058"><ele>816.0</ele><time>2026-04-11T11:09:46Z</time></trkpt><trkpt lat="40.41150248008081" lon="8.95859955321045"><ele>817.6666666666667</ele><time>2026-04-11T11:09:47Z</time></trkpt><trkpt lat="40.41170549290723" lon="8.958582472230166"><ele>819.3333333333334</ele><time>2026-04-11T11:09:48Z</time></trkpt><trkpt lat="40.411906946726404" lon="8.958564279658617"><ele>821.0</ele><time>2026-04-11T11:09:49Z</time></trkpt><trkpt lat="40.41210896217524" lon="8.958546662805356"><ele>821.3333333333334</ele><time>2026-04-11T11:09:50Z</time></trkpt><trkpt lat="40.41231189699201" lon="8.958529238082374"><ele>821.6666666666667</ele><time>2026-04-11T11:09:51Z</time></trkpt><trkpt lat="40.41252284880251" lon="8.958515301748978"><ele>822.0</ele><time>2026-04-11T11:09:52Z</time></trkpt><trkpt lat="40.41273716007076" lon="8.958505534491376"><ele>822.0</ele><time>2026-04-11T11:09:53Z</time></trkpt><trkpt lat="40.41295902814356" lon="8.95849178590904"><ele>822.0</ele><time>2026-04-11T11:09:54Z</time></trkpt><trkpt lat="40.41317470273881" lon="8.958475449827032"><ele>822.0</ele><time>2026-04-11T11:09:55Z</time></trkpt><trkpt lat="40.41338203058525" lon="8.958460271011992"><ele>823.0</ele><time>2026-04-11T11:09:56Z</time></trkpt><trkpt lat="40.413586200290936" lon="8.958446827317223"><ele>824.0</ele><time>2026-04-11T11:09:57Z</time></trkpt><trkpt lat="40.41378893270246" lon="8.958433160771063"><ele>825.0</ele><time>2026-04-11T11:09:58Z</time></trkpt><trkpt lat="40.4139870858216" lon="8.95842069719716"><ele>826.6666666666667</ele><time>2026-04-11T11:09:59Z</time></trkpt><trkpt lat="40.414186129085124" lon="8.958408830661387"><ele>828.3333333333334</ele><time>2026-04-11T11:10:00Z</time></trkpt><trkpt lat="40.414389908258194" lon="8.958402757798783"><ele>830.0</ele><time>2026-04-11T11:10:01Z</time></trkpt><trkpt lat="40.41460014018616" lon="8.958411988449928"><ele>830.6666666666667</ele><time>2026-04-11T11:10:02Z</time></trkpt><trkpt lat="40.414814294551505" lon="8.958440154237909"><ele>831.3333333333333</ele><time>2026-04-11T11:10:03Z</time></trkpt><trkpt lat="40.415029844898676" lon="8.958479642418835"><ele>832.0</ele><time>2026-04-11T11:10:04Z</time></trkpt><trkpt lat="40.415242560848924" lon="8.958521102884829"><ele>832.0</ele><time>2026-04-11T11:10:05Z</time></trkpt><trkpt lat="40.41545381229541" lon="8.95856242829956"><ele>832.0</ele><time>2026-04-11T11:10:06Z</time></trkpt><trkpt lat="40.41566646863137" lon="8.958599851197821"><ele>832.0</ele><time>2026-04-11T11:10:07Z</time></trkpt><trkpt lat="40.41587993706525" lon="8.958631866308181"><ele>829.6666666666666</ele><time>2026-04-11T11:10:08Z</time></trkpt><trkpt lat="40.41608631957035" lon="8.95866506619913"><ele>827.3333333333333</ele><time>2026-04-11T11:10:09Z</time></trkpt><trkpt lat="40.416281981767746" lon="8.958700277842281"><ele>825.0</ele><time>2026-04-11T11:10:10Z</time></trkpt><trkpt lat="40.41646860491652" lon="8.95873461893677"><ele>823.3333333333333</ele><time>2026-04-11T11:10:11Z</time></trkpt><trkpt lat="40.416651958055944" lon="8.958772432022334"><ele>821.6666666666666</ele><time>2026-04-11T11:10:12Z</time></trkpt><trkpt lat="40.41683369653994" lon="8.958822745162024"><ele>820.0</ele><time>2026-04-11T11:10:13Z</time></trkpt><trkpt lat="40.41701575309123" lon="8.958896455094882"><ele>819.6666666666666</ele><time>2026-04-11T11:10:14Z</time></trkpt><trkpt lat="40.417193835531855" lon="8.959002699465604"><ele>819.3333333333333</ele><time>2026-04-11T11:10:15Z</time></trkpt><trkpt lat="40.417366168409366" lon="8.959145882163805"><ele>819.0</ele><time>2026-04-11T11:10:16Z</time></trkpt><trkpt lat="40.41754029511468" lon="8.959298925833805"><ele>819.0</ele><time>2026-04-11T11:10:17Z</time></trkpt><trkpt lat="40.41772082565968" lon="8.959456450776203"><ele>819.0</ele><time>2026-04-11T11:10:18Z</time></trkpt><trkpt lat="40.41789871175646" lon="8.959631930191357"><ele>819.0</ele><time>2026-04-11T11:10:19Z</time></trkpt><trkpt lat="40.41807080913512" lon="8.959831081778473"><ele>813.0</ele><time>2026-04-11T11:10:20Z</time></trkpt><trkpt lat="40.41823330017237" lon="8.960045100193538"><ele>807.0</ele><time>2026-04-11T11:10:21Z</time></trkpt><trkpt lat="40.418383607829284" lon="8.960274334266181"><ele>807.0</ele><time>2026-04-11T11:10:22Z</time></trkpt><trkpt lat="40.418517928186624" lon="8.96051988865752"><ele>807.0</ele><time>2026-04-11T11:10:23Z</time></trkpt><trkpt lat="40.418647134483656" lon="8.960775465842417"><ele>808.5</ele><time>2026-04-11T11:10:24Z</time></trkpt><trkpt lat="40.41877850004141" lon="8.961032064010624"><ele>810.0</ele><time>2026-04-11T11:10:25Z</time></trkpt><trkpt lat="40.41891826312425" lon="8.961289406758365"><ele>808.5</ele><time>2026-04-11T11:10:26Z</time></trkpt><trkpt lat="40.419063920313114" lon="8.961550386637075"><ele>807.0</ele><time>2026-04-11T11:10:27Z</time></trkpt><trkpt lat="40.41920441247605" lon="8.961804854185063"><ele>807.0</ele><time>2026-04-11T11:10:28Z</time></trkpt><trkpt lat="40.41934116654697" lon="8.96205827123435"><ele>807.0</ele><time>2026-04-11T11:10:29Z</time></trkpt><trkpt lat="40.41947548740745" lon="8.96231575131315"><ele>807.6666666666667</ele><time>2026-04-11T11:10:30Z</time></trkpt><trkpt lat="40.419608170904795" lon="8.962560028654838"><ele>808.3333333333334</ele><time>2026-04-11T11:10:31Z</time></trkpt><trkpt lat="40.419750428903285" lon="8.962771068825967"><ele>809.0</ele><time>2026-04-11T11:10:32Z</time></trkpt><trkpt lat="40.41990749844101" lon="8.962938009907235"><ele>809.0</ele><time>2026-04-11T11:10:33Z</time></trkpt><trkpt lat="40.420073185106396" lon="8.963055718026965"><ele>809.0</ele><time>2026-04-11T11:10:34Z</time></trkpt><trkpt lat="40.420228891737914" lon="8.963139793707956"><ele>809.0</ele><time>2026-04-11T11:10:35Z</time></trkpt><trkpt lat="40.42036028049463" lon="8.963216253807122"><ele>809.0</ele><time>2026-04-11T11:10:36Z</time></trkpt><trkpt lat="40.42046059705191" lon="8.963298520787932"><ele>809.0</ele><time>2026-04-11T11:10:37Z</time></trkpt><trkpt lat="40.420538132146866" lon="8.96339864596305"><ele>809.0</ele><time>2026-04-11T11:10:38Z</time></trkpt><trkpt lat="40.42060378287244" lon="8.963510770959353"><ele>809.0</ele><time>2026-04-11T11:10:39Z</time></trkpt><trkpt lat="40.42067982687447" lon="8.963576019685515"><ele>809.0</ele><time>2026-04-11T11:10:40Z</time></trkpt><trkpt lat="40.420735052828654" lon="8.963627669633162"><ele>808.8000000000001</ele><time>2026-04-11T11:10:41Z</time></trkpt><trkpt lat="40.42082067702121" lon="8.963725684571068"><ele>808.6</ele><time>2026-04-11T11:10:43Z</time></trkpt><trkpt lat="40.420910124067106" lon="8.963686289081013"><ele>808.4</ele><time>2026-04-11T11:10:45Z</time></trkpt><trkpt lat="40.42097407323264" lon="8.96359358310426"><ele>808.2</ele><time>2026-04-11T11:10:46Z</time></trkpt><trkpt lat="40.421018199604845" lon="8.963473369701097"><ele>808.0</ele><time>2026-04-11T11:10:47Z</time></trkpt><trkpt lat="40.42105812737553" lon="8.963325181214836"><ele>807.5</ele><time>2026-04-11T11:10:48Z</time></trkpt><trkpt lat="40.421126514670185" lon="8.963173194284735"><ele>807.0</ele><time>2026-04-11T11:10:49Z</time></trkpt><trkpt lat="40.421185943841635" lon="8.963003013396124"><ele>806.5</ele><time>2026-04-11T11:10:50Z</time></trkpt><trkpt lat="40.42124404747247" lon="8.962827573098185"><ele>806.0</ele><time>2026-04-11T11:10:51Z</time></trkpt><trkpt lat="40.42129724628449" lon="8.962652189179325"><ele>803.3333333333334</ele><time>2026-04-11T11:10:52Z</time></trkpt><trkpt lat="40.42134185563273" lon="8.96246479915738"><ele>800.6666666666667</ele><time>2026-04-11T11:10:53Z</time></trkpt><trkpt lat="40.42135174006532" lon="8.96226020518521"><ele>798.0</ele><time>2026-04-11T11:10:54Z</time></trkpt><trkpt lat="40.42136443000032" lon="8.962053876650012"><ele>798.0</ele><time>2026-04-11T11:10:55Z</time></trkpt><trkpt lat="40.42139566736469" lon="8.961849323220388"><ele>798.0</ele><time>2026-04-11T11:10:56Z</time></trkpt><trkpt lat="40.42140996266068" lon="8.961639985214338"><ele>798.0</ele><time>2026-04-11T11:10:57Z</time></trkpt><trkpt lat="40.42142487209732" lon="8.96142165352622"><ele>796.6666666666667</ele><time>2026-04-11T11:10:58Z</time></trkpt><trkpt lat="40.421439929815726" lon="8.961201150761166"><ele>795.3333333333334</ele><time>2026-04-11T11:10:59Z</time></trkpt><trkpt lat="40.42143982686989" lon="8.96097204378571"><ele>794.0</ele><time>2026-04-11T11:11:00Z</time></trkpt><trkpt lat="40.421464707294255" lon="8.960741522656328"><ele>792.6666666666667</ele><time>2026-04-11T11:11:01Z</time></trkpt><trkpt lat="40.42146151209473" lon="8.960506425092312"><ele>791.3333333333333</ele><time>2026-04-11T11:11:02Z</time></trkpt><trkpt lat="40.42144845373818" lon="8.960267057042476"><ele>790.0</ele><time>2026-04-11T11:11:03Z</time></trkpt><trkpt lat="40.421434618778875" lon="8.960029630317697"><ele>788.3333333333333</ele><time>2026-04-11T11:11:04Z</time></trkpt><trkpt lat="40.42142053893747" lon="8.959788001074577"><ele>786.6666666666667</ele><time>2026-04-11T11:11:05Z</time></trkpt><trkpt lat="40.421406776725405" lon="8.959545965608964"><ele>785.0</ele><time>2026-04-11T11:11:06Z</time></trkpt><trkpt lat="40.42139294231012" lon="8.95930013899149"><ele>783.0</ele><time>2026-04-11T11:11:07Z</time></trkpt><trkpt lat="40.4213836795707" lon="8.959061760047234"><ele>781.0</ele><time>2026-04-11T11:11:08Z</time></trkpt><trkpt lat="40.421382920525176" lon="8.958824946364345"><ele>779.0</ele><time>2026-04-11T11:11:09Z</time></trkpt><trkpt lat="40.4214046087151" lon="8.958592058855967"><ele>777.0</ele><time>2026-04-11T11:11:10Z</time></trkpt><trkpt lat="40.42144687351074" lon="8.958352602033493"><ele>775.0</ele><time>2026-04-11T11:11:11Z</time></trkpt><trkpt lat="40.421493603181155" lon="8.958102208012582"><ele>773.0</ele><time>2026-04-11T11:11:12Z</time></trkpt><trkpt lat="40.421541584010946" lon="8.957846549161268"><ele>773.0</ele><time>2026-04-11T11:11:13Z</time></trkpt><trkpt lat="40.42157513475664" lon="8.957580954318685"><ele>773.0</ele><time>2026-04-11T11:11:14Z</time></trkpt><trkpt lat="40.42164027799301" lon="8.95732067327651"><ele>773.0</ele><time>2026-04-11T11:11:15Z</time></trkpt><trkpt lat="40.42169102985011" lon="8.957050249428676"><ele>771.0</ele><time>2026-04-11T11:11:16Z</time></trkpt><trkpt lat="40.42174091443754" lon="8.956781848920906"><ele>769.0</ele><time>2026-04-11T11:11:17Z</time></trkpt><trkpt lat="40.421790863271035" lon="8.956513068314777"><ele>767.0</ele><time>2026-04-11T11:11:18Z</time></trkpt><trkpt lat="40.421841005392395" lon="8.956250945463376"><ele>764.6666666666666</ele><time>2026-04-11T11:11:19Z</time></trkpt><trkpt lat="40.421894925121244" lon="8.955998299497418"><ele>762.3333333333334</ele><time>2026-04-11T11:11:20Z</time></trkpt><trkpt lat="40.42195305049596" lon="8.95574372321104"><ele>760.0</ele><time>2026-04-11T11:11:21Z</time></trkpt><trkpt lat="40.422015468143776" lon="8.95547920045825"><ele>757.5</ele><time>2026-04-11T11:11:22Z</time></trkpt><trkpt lat="40.422081894556136" lon="8.955199242778038"><ele>755.0</ele><time>2026-04-11T11:11:23Z</time></trkpt><trkpt lat="40.422151499938536" lon="8.954911151819383"><ele>752.0</ele><time>2026-04-11T11:11:24Z</time></trkpt><trkpt lat="40.42222143869141" lon="8.954621680652021"><ele>749.0</ele><time>2026-04-11T11:11:25Z</time></trkpt><trkpt lat="40.42227592906395" lon="8.954320141811344"><ele>748.3333333333333</ele><time>2026-04-11T11:11:26Z</time></trkpt><trkpt lat="40.42236011555483" lon="8.95404168259789"><ele>747.6666666666666</ele><time>2026-04-11T11:11:27Z</time></trkpt><trkpt lat="40.42242636243654" lon="8.95376931542822"><ele>747.0</ele><time>2026-04-11T11:11:28Z</time></trkpt><trkpt lat="40.42248553811072" lon="8.953501081002319"><ele>745.6666666666666</ele><time>2026-04-11T11:11:29Z</time></trkpt><trkpt lat="40.42253378789745" lon="8.953236678411765"><ele>744.3333333333333</ele><time>2026-04-11T11:11:30Z</time></trkpt><trkpt lat="40.422574175568975" lon="8.952972249399485"><ele>743.0</ele><time>2026-04-11T11:11:31Z</time></trkpt><trkpt lat="40.42261336318614" lon="8.95270669940757"><ele>742.0</ele><time>2026-04-11T11:11:32Z</time></trkpt><trkpt lat="40.42265231124863" lon="8.95244173212023"><ele>741.0</ele><time>2026-04-11T11:11:33Z</time></trkpt><trkpt lat="40.42269106216481" lon="8.952178524117878"><ele>740.0</ele><time>2026-04-11T11:11:34Z</time></trkpt><trkpt lat="40.422729700450645" lon="8.951916755371654"><ele>739.0</ele><time>2026-04-11T11:11:35Z</time></trkpt><trkpt lat="40.42276763334102" lon="8.95165976560513"><ele>738.0</ele><time>2026-04-11T11:11:36Z</time></trkpt><trkpt lat="40.422803943774895" lon="8.951413767776353"><ele>737.0</ele><time>2026-04-11T11:11:37Z</time></trkpt><trkpt lat="40.422839033896786" lon="8.95117721464942"><ele>737.0</ele><time>2026-04-11T11:11:38Z</time></trkpt><trkpt lat="40.42287296133199" lon="8.950953730058222"><ele>737.0</ele><time>2026-04-11T11:11:39Z</time></trkpt><trkpt lat="40.42291577430472" lon="8.950735178822269"><ele>737.0</ele><time>2026-04-11T11:11:40Z</time></trkpt><trkpt lat="40.422977862800096" lon="8.950512447108197"><ele>735.0</ele><time>2026-04-11T11:11:41Z</time></trkpt><trkpt lat="40.42304398026452" lon="8.950299262166975"><ele>733.0</ele><time>2026-04-11T11:11:42Z</time></trkpt><trkpt lat="40.42310863676172" lon="8.950093139909633"><ele>731.0</ele><time>2026-04-11T11:11:43Z</time></trkpt><trkpt lat="40.42317209551062" lon="8.9498908362211"><ele>729.6666666666666</ele><time>2026-04-11T11:11:44Z</time></trkpt><trkpt lat="40.423236347951935" lon="8.94968962005113"><ele>728.3333333333334</ele><time>2026-04-11T11:11:45Z</time></trkpt><trkpt lat="40.42330127221326" lon="8.949485435692962"><ele>727.0</ele><time>2026-04-11T11:11:46Z</time></trkpt><trkpt lat="40.423364997268756" lon="8.949281627407776"><ele>726.6666666666667</ele><time>2026-04-11T11:11:47Z</time></trkpt><trkpt lat="40.42342910247878" lon="8.949076603220803"><ele>726.3333333333334</ele><time>2026-04-11T11:11:48Z</time></trkpt><trkpt lat="40.42349307344103" lon="8.948872008606868"><ele>726.0</ele><time>2026-04-11T11:11:49Z</time></trkpt><trkpt lat="40.423557925969924" lon="8.948668566008523"><ele>726.0</ele><time>2026-04-11T11:11:50Z</time></trkpt><trkpt lat="40.42362290232795" lon="8.948460963993448"><ele>726.0</ele><time>2026-04-11T11:11:51Z</time></trkpt><trkpt lat="40.42368828463834" lon="8.9482515125484"><ele>726.0</ele><time>2026-04-11T11:11:52Z</time></trkpt><trkpt lat="40.42375308913986" lon="8.948043911970625"><ele>725.3333333333334</ele><time>2026-04-11T11:11:53Z</time></trkpt><trkpt lat="40.42381864760244" lon="8.947835091283675"><ele>724.6666666666667</ele><time>2026-04-11T11:11:54Z</time></trkpt><trkpt lat="40.42388235517182" lon="8.947622989789801"><ele>724.0</ele><time>2026-04-11T11:11:55Z</time></trkpt><trkpt lat="40.42391106170169" lon="8.947399289432951"><ele>722.6666666666667</ele><time>2026-04-11T11:11:56Z</time></trkpt><trkpt lat="40.42392158204758" lon="8.947173751177571"><ele>721.3333333333334</ele><time>2026-04-11T11:11:57Z</time></trkpt><trkpt lat="40.423906717658326" lon="8.946948798109894"><ele>720.0</ele><time>2026-04-11T11:11:58Z</time></trkpt><trkpt lat="40.42385605151347" lon="8.946725534652652"><ele>720.0</ele><time>2026-04-11T11:11:59Z</time></trkpt><trkpt lat="40.42380411767875" lon="8.946510067690594"><ele>720.0</ele><time>2026-04-11T11:12:00Z</time></trkpt><trkpt lat="40.42375194500867" lon="8.946294750425574"><ele>720.0</ele><time>2026-04-11T11:12:01Z</time></trkpt><trkpt lat="40.42369930270522" lon="8.946077494920743"><ele>718.3333333333334</ele><time>2026-04-11T11:12:02Z</time></trkpt><trkpt lat="40.42364684946674" lon="8.945861019787735"><ele>716.6666666666667</ele><time>2026-04-11T11:12:03Z</time></trkpt><trkpt lat="40.42360417360285" lon="8.94565329380314"><ele>715.0</ele><time>2026-04-11T11:12:04Z</time></trkpt><trkpt lat="40.42359850639169" lon="8.945452633072453"><ele>715.0</ele><time>2026-04-11T11:12:05Z</time></trkpt><trkpt lat="40.42362581489149" lon="8.94525529275873"><ele>715.0</ele><time>2026-04-11T11:12:06Z</time></trkpt><trkpt lat="40.42365591368253" lon="8.945051013327882"><ele>715.0</ele><time>2026-04-11T11:12:07Z</time></trkpt><trkpt lat="40.423684885390976" lon="8.944847484761876"><ele>715.0</ele><time>2026-04-11T11:12:08Z</time></trkpt><trkpt lat="40.423701472923476" lon="8.944642143217626"><ele>715.0</ele><time>2026-04-11T11:12:09Z</time></trkpt><trkpt lat="40.42369469273852" lon="8.944433556438204"><ele>715.0</ele><time>2026-04-11T11:12:10Z</time></trkpt><trkpt lat="40.423680690906004" lon="8.944235209115861"><ele>714.75</ele><time>2026-04-11T11:12:11Z</time></trkpt><trkpt lat="40.42366590078091" lon="8.944041320783962"><ele>714.5</ele><time>2026-04-11T11:12:12Z</time></trkpt><trkpt lat="40.42365157907234" lon="8.943853573170397"><ele>714.25</ele><time>2026-04-11T11:12:13Z</time></trkpt><trkpt lat="40.423638302198796" lon="8.943679522789719"><ele>714.0</ele><time>2026-04-11T11:12:14Z</time></trkpt><trkpt lat="40.42362578532992" lon="8.94351543539127"><ele>714.0</ele><time>2026-04-11T11:12:15Z</time></trkpt><trkpt lat="40.42361390600243" lon="8.94335970572848"><ele>714.0</ele><time>2026-04-11T11:12:16Z</time></trkpt><trkpt lat="40.42360167033519" lon="8.943214721361038"><ele>714.0</ele><time>2026-04-11T11:12:17Z</time></trkpt><trkpt lat="40.42358897617636" lon="8.943081003828489"><ele>714.0</ele><time>2026-04-11T11:12:18Z</time></trkpt><trkpt lat="40.423566652994616" lon="8.942956606149002"><ele>714.0</ele><time>2026-04-11T11:12:19Z</time></trkpt><trkpt lat="40.42352605391793" lon="8.942840401587105"><ele>714.0</ele><time>2026-04-11T11:12:20Z</time></trkpt><trkpt lat="40.42347994665155" lon="8.94273633763495"><ele>714.0</ele><time>2026-04-11T11:12:21Z</time></trkpt><trkpt lat="40.423430948206" lon="8.94263629408713"><ele>714.0</ele><time>2026-04-11T11:12:22Z</time></trkpt><trkpt lat="40.42338355534455" lon="8.942542052747738"><ele>714.0</ele><time>2026-04-11T11:12:23Z</time></trkpt><trkpt lat="40.423336199162065" lon="8.942447884447066"><ele>714.0</ele><time>2026-04-11T11:12:24Z</time></trkpt><trkpt lat="40.42328947675601" lon="8.942354976368247"><ele>714.0</ele><time>2026-04-11T11:12:25Z</time></trkpt><trkpt lat="40.42324327496467" lon="8.94226310205877"><ele>714.0</ele><time>2026-04-11T11:12:26Z</time></trkpt><trkpt lat="40.423201267159186" lon="8.94216794010789"><ele>714.0</ele><time>2026-04-11T11:12:27Z</time></trkpt><trkpt lat="40.42315911807649" lon="8.942065162396531"><ele>714.0</ele><time>2026-04-11T11:12:28Z</time></trkpt><trkpt lat="40.42312262126068" lon="8.941955696494437"><ele>714.0</ele><time>2026-04-11T11:12:29Z</time></trkpt><trkpt lat="40.42309185701805" lon="8.941839067496216"><ele>714.0</ele><time>2026-04-11T11:12:30Z</time></trkpt><trkpt lat="40.4230698769742" lon="8.941711171600694"><ele>713.4000000000001</ele><time>2026-04-11T11:12:31Z</time></trkpt><trkpt lat="40.42305380923046" lon="8.94157802764047"><ele>712.8</ele><time>2026-04-11T11:12:32Z</time></trkpt><trkpt lat="40.42304191636859" lon="8.941438080239301"><ele>712.2</ele><time>2026-04-11T11:12:33Z</time></trkpt><trkpt lat="40.42303031372232" lon="8.941294079791296"><ele>711.5999999999999</ele><time>2026-04-11T11:12:34Z</time></trkpt><trkpt lat="40.42302042948959" lon="8.94114780333903"><ele>711.0</ele><time>2026-04-11T11:12:35Z</time></trkpt><trkpt lat="40.42301035643796" lon="8.94099948031443"><ele>710.5</ele><time>2026-04-11T11:12:36Z</time></trkpt><trkpt lat="40.42300016747855" lon="8.940851203635908"><ele>710.0</ele><time>2026-04-11T11:12:37Z</time></trkpt><trkpt lat="40.42295659665441" lon="8.940703324067378"><ele>709.5</ele><time>2026-04-11T11:12:38Z</time></trkpt><trkpt lat="40.42294801927489" lon="8.940557165627819"><ele>709.0</ele><time>2026-04-11T11:12:39Z</time></trkpt><trkpt lat="40.42293922023754" lon="8.94041798081069"><ele>710.4000000000001</ele><time>2026-04-11T11:12:40Z</time></trkpt><trkpt lat="40.42293050774959" lon="8.940284526930046"><ele>711.8</ele><time>2026-04-11T11:12:41Z</time></trkpt><trkpt lat="40.4229495155333" lon="8.94014900869295"><ele>713.2</ele><time>2026-04-11T11:12:42Z</time></trkpt><trkpt lat="40.42293364560988" lon="8.940018981331715"><ele>714.5999999999999</ele><time>2026-04-11T11:12:43Z</time></trkpt><trkpt lat="40.422910701711594" lon="8.939896862295214"><ele>716.0</ele><time>2026-04-11T11:12:44Z</time></trkpt><trkpt lat="40.422879067151015" lon="8.939779236518314"><ele>716.0</ele><time>2026-04-11T11:12:45Z</time></trkpt><trkpt lat="40.42283761118432" lon="8.939667897660843"><ele>716.0</ele><time>2026-04-11T11:12:46Z</time></trkpt><trkpt lat="40.42279433618326" lon="8.93956542819301"><ele>716.0</ele><time>2026-04-11T11:12:47Z</time></trkpt><trkpt lat="40.42275405375938" lon="8.939473671347342"><ele>716.0</ele><time>2026-04-11T11:12:48Z</time></trkpt><trkpt lat="40.42267111735892" lon="8.939370015621547"><ele>716.0</ele><time>2026-04-11T11:12:50Z</time></trkpt><trkpt lat="40.422629003384294" lon="8.939253363606515"><ele>715.0</ele><time>2026-04-11T11:12:53Z</time></trkpt><trkpt lat="40.42259712559076" lon="8.939162680431387"><ele>714.0</ele><time>2026-04-11T11:12:55Z</time></trkpt><trkpt lat="40.42255920076267" lon="8.939074523587653"><ele>713.0</ele><time>2026-04-11T11:12:58Z</time></trkpt><trkpt lat="40.42254734784614" lon="8.938977674295213"><ele>712.0</ele><time>2026-04-11T11:13:02Z</time></trkpt><trkpt lat="40.42250693291563" lon="8.938910984375024"><ele>711.0</ele><time>2026-04-11T11:13:07Z</time></trkpt><trkpt lat="40.422450313184214" lon="8.938810894536303"><ele>710.0</ele><time>2026-04-11T11:13:12Z</time></trkpt><trkpt lat="40.42238510937663" lon="8.938704936102976"><ele>710.0</ele><time>2026-04-11T11:13:14Z</time></trkpt><trkpt lat="40.42234622669495" lon="8.938616576154379"><ele>710.0</ele><time>2026-04-11T11:13:15Z</time></trkpt><trkpt lat="40.42229483790845" lon="8.938514688726949"><ele>710.0</ele><time>2026-04-11T11:13:16Z</time></trkpt><trkpt lat="40.42224335839425" lon="8.938397690936043"><ele>710.0</ele><time>2026-04-11T11:13:17Z</time></trkpt><trkpt lat="40.422191307470456" lon="8.938261111471936"><ele>710.0</ele><time>2026-04-11T11:13:18Z</time></trkpt><trkpt lat="40.42213362739931" lon="8.938126967704283"><ele>710.5</ele><time>2026-04-11T11:13:19Z</time></trkpt><trkpt lat="40.42207279193811" lon="8.937980641439545"><ele>711.0</ele><time>2026-04-11T11:13:20Z</time></trkpt><trkpt lat="40.42201293524653" lon="8.93782697886599"><ele>711.5</ele><time>2026-04-11T11:13:21Z</time></trkpt><trkpt lat="40.42194478184751" lon="8.93766878930433"><ele>712.0</ele><time>2026-04-11T11:13:22Z</time></trkpt><trkpt lat="40.42187865866935" lon="8.937506193843761"><ele>712.0</ele><time>2026-04-11T11:13:23Z</time></trkpt><trkpt lat="40.4218138246544" lon="8.937344125424023"><ele>712.0</ele><time>2026-04-11T11:13:24Z</time></trkpt><trkpt lat="40.421748211221924" lon="8.937179648749646"><ele>712.0</ele><time>2026-04-11T11:13:25Z</time></trkpt><trkpt lat="40.42167824280828" lon="8.937018254667649"><ele>712.0</ele><time>2026-04-11T11:13:26Z</time></trkpt><trkpt lat="40.421606429992025" lon="8.936868645944946"><ele>712.0</ele><time>2026-04-11T11:13:27Z</time></trkpt><trkpt lat="40.42153806568303" lon="8.936735683132534"><ele>712.0</ele><time>2026-04-11T11:13:28Z</time></trkpt><trkpt lat="40.42147476228737" lon="8.93662024816047"><ele>712.0</ele><time>2026-04-11T11:13:29Z</time></trkpt><trkpt lat="40.421415041868215" lon="8.936514093149862"><ele>712.0</ele><time>2026-04-11T11:13:30Z</time></trkpt><trkpt lat="40.42135421761865" lon="8.936407008163439"><ele>712.0</ele><time>2026-04-11T11:13:31Z</time></trkpt><trkpt lat="40.42128982823995" lon="8.936297218065167"><ele>712.75</ele><time>2026-04-11T11:13:32Z</time></trkpt><trkpt lat="40.42121427737927" lon="8.936194473745564"><ele>713.5</ele><time>2026-04-11T11:13:33Z</time></trkpt><trkpt lat="40.421121251300924" lon="8.936110348244664"><ele>714.25</ele><time>2026-04-11T11:13:34Z</time></trkpt><trkpt lat="40.42101368446429" lon="8.93605646443411"><ele>715.0</ele><time>2026-04-11T11:13:35Z</time></trkpt><trkpt lat="40.420898056715366" lon="8.936028601390838"><ele>715.0</ele><time>2026-04-11T11:13:36Z</time></trkpt><trkpt lat="40.42077643623576" lon="8.936031630531813"><ele>715.0</ele><time>2026-04-11T11:13:37Z</time></trkpt><trkpt lat="40.42065509165885" lon="8.936060949801426"><ele>715.0</ele><time>2026-04-11T11:13:38Z</time></trkpt><trkpt lat="40.42054725293046" lon="8.936126401914288"><ele>715.0</ele><time>2026-04-11T11:13:39Z</time></trkpt><trkpt lat="40.420453268885126" lon="8.936191728610687"><ele>715.5</ele><time>2026-04-11T11:13:40Z</time></trkpt><trkpt lat="40.420373136421574" lon="8.936228627613863"><ele>716.0</ele><time>2026-04-11T11:13:41Z</time></trkpt><trkpt lat="40.42030112516475" lon="8.936259806356874"><ele>716.5</ele><time>2026-04-11T11:13:42Z</time></trkpt><trkpt lat="40.42022311504958" lon="8.936298781595687"><ele>717.0</ele><time>2026-04-11T11:13:44Z</time></trkpt><trkpt lat="40.420224021162696" lon="8.93645219174299"><ele>717.5</ele><time>2026-04-11T11:13:46Z</time></trkpt><trkpt lat="40.420273097364046" lon="8.936527832535704"><ele>718.0</ele><time>2026-04-11T11:13:47Z</time></trkpt><trkpt lat="40.420318432827656" lon="8.936625895318585"><ele>718.4</ele><time>2026-04-11T11:13:48Z</time></trkpt><trkpt lat="40.420351748903336" lon="8.936739844706505"><ele>718.8</ele><time>2026-04-11T11:13:49Z</time></trkpt><trkpt lat="40.42040746051662" lon="8.93684614641832"><ele>719.2</ele><time>2026-04-11T11:13:50Z</time></trkpt><trkpt lat="40.42047107581349" lon="8.936958736132983"><ele>719.6</ele><time>2026-04-11T11:13:51Z</time></trkpt><trkpt lat="40.42054710875096" lon="8.937069969549212"><ele>720.0</ele><time>2026-04-11T11:13:52Z</time></trkpt><trkpt lat="40.42063145299604" lon="8.937175030777553"><ele>719.75</ele><time>2026-04-11T11:13:53Z</time></trkpt><trkpt lat="40.420716683824246" lon="8.937279620856934"><ele>719.5</ele><time>2026-04-11T11:13:54Z</time></trkpt><trkpt lat="40.4208007231417" lon="8.93739220630048"><ele>719.25</ele><time>2026-04-11T11:13:55Z</time></trkpt><trkpt lat="40.420882952521566" lon="8.9375063850058"><ele>719.0</ele><time>2026-04-11T11:13:56Z</time></trkpt><trkpt lat="40.420962537556704" lon="8.937619751608683"><ele>719.0</ele><time>2026-04-11T11:13:57Z</time></trkpt><trkpt lat="40.421048534418375" lon="8.937724225826754"><ele>719.0</ele><time>2026-04-11T11:13:58Z</time></trkpt><trkpt lat="40.42113119085493" lon="8.93781784042578"><ele>719.0</ele><time>2026-04-11T11:13:59Z</time></trkpt><trkpt lat="40.42120144478638" lon="8.937895654423368"><ele>719.0</ele><time>2026-04-11T11:14:00Z</time></trkpt><trkpt lat="40.42125573052033" lon="8.937954070316124"><ele>719.0</ele><time>2026-04-11T11:14:01Z</time></trkpt><trkpt lat="40.42131570718887" lon="8.937995415163094"><ele>719.0</ele><time>2026-04-11T11:14:03Z</time></trkpt><trkpt lat="40.42137162572178" lon="8.938052821689618"><ele>719.0</ele><time>2026-04-11T11:14:20Z</time></trkpt><trkpt lat="40.42131318997197" lon="8.938200856645048"><ele>719.0</ele><time>2026-04-11T11:14:21Z</time></trkpt><trkpt lat="40.42125504888443" lon="8.93832297428975"><ele>719.0</ele><time>2026-04-11T11:14:23Z</time></trkpt><trkpt lat="40.42117505396743" lon="8.938423918475296"><ele>719.0</ele><time>2026-04-11T11:14:25Z</time></trkpt><trkpt lat="40.42112912290874" lon="8.938552328112719"><ele>720.5</ele><time>2026-04-11T11:14:27Z</time></trkpt><trkpt lat="40.421083842997035" lon="8.938672658119799"><ele>722.0</ele><time>2026-04-11T11:14:29Z</time></trkpt><trkpt lat="40.421030331330634" lon="8.93877753359747"><ele>723.5</ele><time>2026-04-11T11:14:31Z</time></trkpt><trkpt lat="40.421017495355265" lon="8.938862579905505"><ele>725.0</ele><time>2026-04-11T11:14:33Z</time></trkpt><trkpt lat="40.42106542188879" lon="8.938946325617376"><ele>726.5</ele><time>2026-04-11T11:14:37Z</time></trkpt><trkpt lat="40.421132159690565" lon="8.938964582827174"><ele>728.0</ele><time>2026-04-11T11:14:40Z</time></trkpt><trkpt lat="40.421232243266914" lon="8.939009972097733"><ele>728.0</ele><time>2026-04-11T11:14:53Z</time></trkpt><trkpt lat="40.4213130810084" lon="8.939059916857811"><ele>728.0</ele><time>2026-04-11T11:14:55Z</time></trkpt><trkpt lat="40.42133089923716" lon="8.939149087185701"><ele>728.0</ele><time>2026-04-11T11:14:57Z</time></trkpt><trkpt lat="40.421302332819884" lon="8.93922897837818"><ele>728.0</ele><time>2026-04-11T11:14:59Z</time></trkpt><trkpt lat="40.42125260952222" lon="8.939304745442183"><ele>728.0</ele><time>2026-04-11T11:15:01Z</time></trkpt><trkpt lat="40.42118749701242" lon="8.939333361654505"><ele>728.0</ele><time>2026-04-11T11:15:03Z</time></trkpt><trkpt lat="40.421104314091224" lon="8.93937055396911"><ele>728.0</ele><time>2026-04-11T11:15:06Z</time></trkpt><trkpt lat="40.42102199030165" lon="8.939385662579733"><ele>728.0</ele><time>2026-04-11T11:15:08Z</time></trkpt><trkpt lat="40.420936146890895" lon="8.939391801126844"><ele>728.0</ele><time>2026-04-11T11:15:10Z</time></trkpt><trkpt lat="40.42086405607518" lon="8.93938284740321"><ele>728.0</ele><time>2026-04-11T11:15:12Z</time></trkpt><trkpt lat="40.42079478694173" lon="8.939359689625078"><ele>728.0</ele><time>2026-04-11T11:15:14Z</time></trkpt><trkpt lat="40.42072197273115" lon="8.939345043878246"><ele>728.0</ele><time>2026-04-11T11:15:16Z</time></trkpt><trkpt lat="40.42065229932246" lon="8.93928377787268"><ele>728.0</ele><time>2026-04-11T11:15:19Z</time></trkpt><trkpt lat="40.420588019356295" lon="8.939267761725079"><ele>728.0</ele><time>2026-04-11T11:15:22Z</time></trkpt><trkpt lat="40.420618500866766" lon="8.939397443564394"><ele>728.0</ele><time>2026-04-11T11:15:27Z</time></trkpt><trkpt lat="40.4207170637028" lon="8.93937032301386"><ele>728.0</ele><time>2026-04-11T11:15:29Z</time></trkpt><trkpt lat="40.42079046874606" lon="8.939391557975316"><ele>728.0</ele><time>2026-04-11T11:15:31Z</time></trkpt><trkpt lat="40.42088943973032" lon="8.939429525511699"><ele>728.0</ele><time>2026-04-11T11:15:33Z</time></trkpt><trkpt lat="40.42100358699764" lon="8.939433036271247"><ele>728.0</ele><time>2026-04-11T11:15:35Z</time></trkpt><trkpt lat="40.421097444735295" lon="8.939404708660973"><ele>728.0</ele><time>2026-04-11T11:15:37Z</time></trkpt><trkpt lat="40.421169355704905" lon="8.939363756429088"><ele>728.0</ele><time>2026-04-11T11:15:39Z</time></trkpt><trkpt lat="40.42122232109716" lon="8.939318076106368"><ele>728.0</ele><time>2026-04-11T11:15:41Z</time></trkpt><trkpt lat="40.421281345616926" lon="8.939267979599721"><ele>728.0</ele><time>2026-04-11T11:15:43Z</time></trkpt><trkpt lat="40.42132749071382" lon="8.939196686839336"><ele>728.0</ele><time>2026-04-11T11:15:45Z</time></trkpt><trkpt lat="40.421334888446275" lon="8.939105678364763"><ele>728.0</ele><time>2026-04-11T11:15:47Z</time></trkpt><trkpt lat="40.421263142558786" lon="8.939065485115842"><ele>728.0</ele><time>2026-04-11T11:15:51Z</time></trkpt><trkpt lat="40.42122561053295" lon="8.938933303427593"><ele>728.0</ele><time>2026-04-11T12:03:10Z</time></trkpt><trkpt lat="40.42114591371065" lon="8.938935741094257"><ele>728.0</ele><time>2026-04-11T12:03:17Z</time></trkpt><trkpt lat="40.42112385047399" lon="8.939014087568063"><ele>728.0</ele><time>2026-04-11T12:03:26Z</time></trkpt><trkpt lat="40.421110034856895" lon="8.938900322649904"><ele>728.0</ele><time>2026-04-11T12:12:16Z</time></trkpt><trkpt lat="40.42103082558764" lon="8.938871448182852"><ele>728.0</ele><time>2026-04-11T12:12:43Z</time></trkpt><trkpt lat="40.42104893513052" lon="8.93876474624182"><ele>728.0</ele><time>2026-04-11T12:12:45Z</time></trkpt><trkpt lat="40.421107414666174" lon="8.938672730940318"><ele>728.0</ele><time>2026-04-11T12:12:47Z</time></trkpt><trkpt lat="40.42114572716436" lon="8.938581301528707"><ele>728.0</ele><time>2026-04-11T12:12:49Z</time></trkpt><trkpt lat="40.42116930784815" lon="8.938466885460874"><ele>728.0</ele><time>2026-04-11T12:12:51Z</time></trkpt><trkpt lat="40.42122494882319" lon="8.938364300214483"><ele>728.0</ele><time>2026-04-11T12:12:53Z</time></trkpt><trkpt lat="40.42130087842696" lon="8.938292262306897"><ele>725.8333333333333</ele><time>2026-04-11T12:12:55Z</time></trkpt><trkpt lat="40.4213344444316" lon="8.93819992884783"><ele>723.6666666666666</ele><time>2026-04-11T12:12:57Z</time></trkpt><trkpt lat="40.421327463771824" lon="8.938097271357634"><ele>721.5</ele><time>2026-04-11T12:13:00Z</time></trkpt><trkpt lat="40.42138813496355" lon="8.938032196160531"><ele>719.3333333333334</ele><time>2026-04-11T12:13:04Z</time></trkpt><trkpt lat="40.421449160662654" lon="8.938107690480757"><ele>717.1666666666667</ele><time>2026-04-11T12:13:07Z</time></trkpt><trkpt lat="40.42150453245437" lon="8.938182296122546"><ele>715.0</ele><time>2026-04-11T12:13:09Z</time></trkpt><trkpt lat="40.42156877993348" lon="8.938280692319621"><ele>716.6</ele><time>2026-04-11T12:13:11Z</time></trkpt><trkpt lat="40.421643559528185" lon="8.938394738276088"><ele>718.2</ele><time>2026-04-11T12:13:13Z</time></trkpt><trkpt lat="40.4217084283564" lon="8.938520588680278"><ele>719.8</ele><time>2026-04-11T12:13:15Z</time></trkpt><trkpt lat="40.42177668987195" lon="8.938647088701524"><ele>721.4</ele><time>2026-04-11T12:13:17Z</time></trkpt><trkpt lat="40.42181576939132" lon="8.938712650127338"><ele>723.0</ele><time>2026-04-11T12:13:18Z</time></trkpt><trkpt lat="40.42185472527218" lon="8.938780317859809"><ele>723.0</ele><time>2026-04-11T12:13:19Z</time></trkpt><trkpt lat="40.421895691746386" lon="8.938845853561341"><ele>723.0</ele><time>2026-04-11T12:13:20Z</time></trkpt><trkpt lat="40.421930920312406" lon="8.938919121655509"><ele>723.0</ele><time>2026-04-11T12:13:21Z</time></trkpt><trkpt lat="40.421963657337905" lon="8.938991864509038"><ele>723.0</ele><time>2026-04-11T12:13:22Z</time></trkpt><trkpt lat="40.422028880711906" lon="8.93912603892829"><ele>723.0</ele><time>2026-04-11T12:13:24Z</time></trkpt><trkpt lat="40.42209106403659" lon="8.93924443220042"><ele>723.0</ele><time>2026-04-11T12:13:26Z</time></trkpt><trkpt lat="40.42215262974609" lon="8.939346633253141"><ele>721.8333333333334</ele><time>2026-04-11T12:13:28Z</time></trkpt><trkpt lat="40.42221721228864" lon="8.939424689888261"><ele>720.6666666666666</ele><time>2026-04-11T12:13:30Z</time></trkpt><trkpt lat="40.4222966043631" lon="8.939468972745233"><ele>719.5</ele><time>2026-04-11T12:13:32Z</time></trkpt><trkpt lat="40.42237893335596" lon="8.939487906896193"><ele>718.3333333333333</ele><time>2026-04-11T12:13:34Z</time></trkpt><trkpt lat="40.42247027940887" lon="8.939431969829425"><ele>717.1666666666666</ele><time>2026-04-11T12:13:36Z</time></trkpt><trkpt lat="40.42255141611824" lon="8.93940843195882"><ele>716.0</ele><time>2026-04-11T12:13:38Z</time></trkpt><trkpt lat="40.42263819954894" lon="8.939401162333422"><ele>716.0</ele><time>2026-04-11T12:13:41Z</time></trkpt><trkpt lat="40.42262070528586" lon="8.93922955277258"><ele>716.0</ele><time>2026-04-11T12:13:44Z</time></trkpt><trkpt lat="40.42256675004626" lon="8.939117807446816"><ele>716.0</ele><time>2026-04-11T12:13:46Z</time></trkpt><trkpt lat="40.42251320803074" lon="8.938987107583529"><ele>716.0</ele><time>2026-04-11T12:13:48Z</time></trkpt><trkpt lat="40.42245414049889" lon="8.938847102219027"><ele>715.1428571428572</ele><time>2026-04-11T12:13:50Z</time></trkpt><trkpt lat="40.42242210299316" lon="8.938772406496863"><ele>714.2857142857143</ele><time>2026-04-11T12:13:51Z</time></trkpt><trkpt lat="40.4223835640896" lon="8.938697289782507"><ele>713.4285714285714</ele><time>2026-04-11T12:13:52Z</time></trkpt><trkpt lat="40.422346986664294" lon="8.938615568092615"><ele>712.5714285714287</ele><time>2026-04-11T12:13:53Z</time></trkpt><trkpt lat="40.422307585240986" lon="8.938529693076529"><ele>711.7142857142858</ele><time>2026-04-11T12:13:54Z</time></trkpt><trkpt lat="40.422267482228726" lon="8.938441724393938"><ele>710.8571428571429</ele><time>2026-04-11T12:13:55Z</time></trkpt><trkpt lat="40.42223417722752" lon="8.938355739062528"><ele>710.0</ele><time>2026-04-11T12:13:56Z</time></trkpt><trkpt lat="40.42220025535219" lon="8.93826319326087"><ele>710.0</ele><time>2026-04-11T12:13:57Z</time></trkpt><trkpt lat="40.42215944236098" lon="8.938168295936194"><ele>710.0</ele><time>2026-04-11T12:13:58Z</time></trkpt><trkpt lat="40.42211619776237" lon="8.938066449588064"><ele>710.0</ele><time>2026-04-11T12:13:59Z</time></trkpt><trkpt lat="40.42207523341185" lon="8.9379540778382"><ele>710.0</ele><time>2026-04-11T12:14:00Z</time></trkpt><trkpt lat="40.422027256929155" lon="8.937838117646887"><ele>710.0</ele><time>2026-04-11T12:14:01Z</time></trkpt><trkpt lat="40.42197475629861" lon="8.9377199448923"><ele>710.5</ele><time>2026-04-11T12:14:02Z</time></trkpt><trkpt lat="40.421921343059964" lon="8.937596096133014"><ele>711.0</ele><time>2026-04-11T12:14:03Z</time></trkpt><trkpt lat="40.421868281360155" lon="8.937464606340441"><ele>711.5</ele><time>2026-04-11T12:14:04Z</time></trkpt><trkpt lat="40.42181398265962" lon="8.937327131352768"><ele>712.0</ele><time>2026-04-11T12:14:05Z</time></trkpt><trkpt lat="40.421756870834756" lon="8.937192525513018"><ele>712.0</ele><time>2026-04-11T12:14:06Z</time></trkpt><trkpt lat="40.42169709098858" lon="8.937057598662717"><ele>712.0</ele><time>2026-04-11T12:14:07Z</time></trkpt><trkpt lat="40.42163709197074" lon="8.936922643621806"><ele>712.0</ele><time>2026-04-11T12:14:08Z</time></trkpt><trkpt lat="40.421572510875535" lon="8.93678402009296"><ele>712.0</ele><time>2026-04-11T12:14:09Z</time></trkpt><trkpt lat="40.42150711393093" lon="8.936648741751622"><ele>712.75</ele><time>2026-04-11T12:14:10Z</time></trkpt><trkpt lat="40.421434542486935" lon="8.936516047890116"><ele>713.5</ele><time>2026-04-11T12:14:11Z</time></trkpt><trkpt lat="40.421357768956284" lon="8.936389325411527"><ele>714.25</ele><time>2026-04-11T12:14:12Z</time></trkpt><trkpt lat="40.42127657903568" lon="8.936268012359793"><ele>715.0</ele><time>2026-04-11T12:14:13Z</time></trkpt><trkpt lat="40.421187508897866" lon="8.936161871310134"><ele>715.0</ele><time>2026-04-11T12:14:14Z</time></trkpt><trkpt lat="40.421093986666904" lon="8.93607886883555"><ele>715.0</ele><time>2026-04-11T12:14:15Z</time></trkpt><trkpt lat="40.42099062846113" lon="8.936037600734691"><ele>715.0</ele><time>2026-04-11T12:14:16Z</time></trkpt><trkpt lat="40.42087756255442" lon="8.936022863707988"><ele>715.0</ele><time>2026-04-11T12:14:17Z</time></trkpt><trkpt lat="40.42076514534175" lon="8.936029733006096"><ele>715.0</ele><time>2026-04-11T12:14:18Z</time></trkpt><trkpt lat="40.42065512938538" lon="8.936064766307366"><ele>715.0</ele><time>2026-04-11T12:14:19Z</time></trkpt><trkpt lat="40.42055070092144" lon="8.93612043009706"><ele>715.0</ele><time>2026-04-11T12:14:20Z</time></trkpt><trkpt lat="40.420450127515" lon="8.936180924045448"><ele>715.0</ele><time>2026-04-11T12:14:21Z</time></trkpt><trkpt lat="40.42035293453125" lon="8.93622107756972"><ele>715.0</ele><time>2026-04-11T12:14:22Z</time></trkpt><trkpt lat="40.4202679935382" lon="8.936242425081858"><ele>715.0</ele><time>2026-04-11T12:14:23Z</time></trkpt><trkpt lat="40.42019032117368" lon="8.936260651495731"><ele>715.75</ele><time>2026-04-11T12:14:24Z</time></trkpt><trkpt lat="40.42010607721347" lon="8.93610310073882"><ele>716.5</ele><time>2026-04-11T12:14:25Z</time></trkpt><trkpt lat="40.42004633383367" lon="8.936002512520076"><ele>717.25</ele><time>2026-04-11T12:14:26Z</time></trkpt><trkpt lat="40.41999112468704" lon="8.935890744298364"><ele>718.0</ele><time>2026-04-11T12:14:27Z</time></trkpt><trkpt lat="40.41993172830282" lon="8.935773257757798"><ele>719.25</ele><time>2026-04-11T12:14:28Z</time></trkpt><trkpt lat="40.41986928776655" lon="8.9356501081822"><ele>720.5</ele><time>2026-04-11T12:14:29Z</time></trkpt><trkpt lat="40.41980392271809" lon="8.935521603551042"><ele>721.75</ele><time>2026-04-11T12:14:30Z</time></trkpt><trkpt lat="40.419735119651634" lon="8.935392336562149"><ele>723.0</ele><time>2026-04-11T12:14:31Z</time></trkpt><trkpt lat="40.41966340221855" lon="8.935260606272418"><ele>723.0</ele><time>2026-04-11T12:14:32Z</time></trkpt><trkpt lat="40.41959141742901" lon="8.93512800367081"><ele>723.0</ele><time>2026-04-11T12:14:33Z</time></trkpt><trkpt lat="40.41953281528029" lon="8.934981113423113"><ele>723.0</ele><time>2026-04-11T12:14:34Z</time></trkpt><trkpt lat="40.41945065041973" lon="8.934855929831027"><ele>723.0</ele><time>2026-04-11T12:14:35Z</time></trkpt><trkpt lat="40.41939116434363" lon="8.93471062872513"><ele>722.5</ele><time>2026-04-11T12:14:36Z</time></trkpt><trkpt lat="40.41934187422683" lon="8.934558922217942"><ele>722.0</ele><time>2026-04-11T12:14:37Z</time></trkpt><trkpt lat="40.419304602237254" lon="8.93439992346424"><ele>721.5</ele><time>2026-04-11T12:14:38Z</time></trkpt><trkpt lat="40.41929429023366" lon="8.934235119718073"><ele>721.0</ele><time>2026-04-11T12:14:39Z</time></trkpt><trkpt lat="40.41927886404387" lon="8.934069646767991"><ele>721.0</ele><time>2026-04-11T12:14:40Z</time></trkpt><trkpt lat="40.41926683036654" lon="8.933902173089875"><ele>721.0</ele><time>2026-04-11T12:14:41Z</time></trkpt><trkpt lat="40.41925531873373" lon="8.933741964570018"><ele>721.0</ele><time>2026-04-11T12:14:42Z</time></trkpt><trkpt lat="40.41924547630407" lon="8.933604986759144"><ele>721.0</ele><time>2026-04-11T12:14:43Z</time></trkpt><trkpt lat="40.419236389067144" lon="8.933478516872396"><ele>721.1999999999999</ele><time>2026-04-11T12:14:44Z</time></trkpt><trkpt lat="40.41921993605676" lon="8.933360460616063"><ele>721.4</ele><time>2026-04-11T12:14:45Z</time></trkpt><trkpt lat="40.41920109379669" lon="8.933236052642819"><ele>721.6</ele><time>2026-04-11T12:14:46Z</time></trkpt><trkpt lat="40.41915171007038" lon="8.933112884479723"><ele>721.8</ele><time>2026-04-11T12:14:47Z</time></trkpt><trkpt lat="40.41912395246817" lon="8.932979038871723"><ele>722.0</ele><time>2026-04-11T12:14:48Z</time></trkpt><trkpt lat="40.41909331585507" lon="8.932841453088823"><ele>722.0</ele><time>2026-04-11T12:14:49Z</time></trkpt><trkpt lat="40.41905897162747" lon="8.932699545005367"><ele>722.0</ele><time>2026-04-11T12:14:50Z</time></trkpt><trkpt lat="40.41902335666857" lon="8.932557194459552"><ele>722.0</ele><time>2026-04-11T12:14:51Z</time></trkpt><trkpt lat="40.4189887785907" lon="8.932408852567496"><ele>722.0</ele><time>2026-04-11T12:14:52Z</time></trkpt><trkpt lat="40.41895454064894" lon="8.93225621802904"><ele>722.25</ele><time>2026-04-11T12:14:53Z</time></trkpt><trkpt lat="40.41891702248794" lon="8.932100474538142"><ele>722.5</ele><time>2026-04-11T12:14:54Z</time></trkpt><trkpt lat="40.41887724755818" lon="8.931940754060388"><ele>722.75</ele><time>2026-04-11T12:14:55Z</time></trkpt><trkpt lat="40.41883741217477" lon="8.931779503407588"><ele>723.0</ele><time>2026-04-11T12:14:56Z</time></trkpt><trkpt lat="40.41881275536687" lon="8.931607872091357"><ele>723.0</ele><time>2026-04-11T12:14:57Z</time></trkpt><trkpt lat="40.418771747251625" lon="8.931438679850395"><ele>723.0</ele><time>2026-04-11T12:14:58Z</time></trkpt><trkpt lat="40.41873026932957" lon="8.931266556692258"><ele>723.0</ele><time>2026-04-11T12:14:59Z</time></trkpt><trkpt lat="40.418687808245664" lon="8.931091153667992"><ele>723.0</ele><time>2026-04-11T12:15:00Z</time></trkpt><trkpt lat="40.41864397822446" lon="8.930916573128929"><ele>723.25</ele><time>2026-04-11T12:15:01Z</time></trkpt><trkpt lat="40.418601137701366" lon="8.93074716006447"><ele>723.5</ele><time>2026-04-11T12:15:02Z</time></trkpt><trkpt lat="40.4185590167607" lon="8.930587597012375"><ele>723.75</ele><time>2026-04-11T12:15:03Z</time></trkpt><trkpt lat="40.41852599894824" lon="8.930445780505838"><ele>724.0</ele><time>2026-04-11T12:15:04Z</time></trkpt><trkpt lat="40.41850202869624" lon="8.930320002047935"><ele>724.0</ele><time>2026-04-11T12:15:05Z</time></trkpt><trkpt lat="40.418492333223895" lon="8.930211359886378"><ele>724.0</ele><time>2026-04-11T12:15:06Z</time></trkpt><trkpt lat="40.418330442783756" lon="8.93011168780176"><ele>724.0</ele><time>2026-04-11T12:15:08Z</time></trkpt><trkpt lat="40.418243195922564" lon="8.930113612511063"><ele>724.0</ele><time>2026-04-11T12:15:09Z</time></trkpt><trkpt lat="40.418147983418045" lon="8.930111972005784"><ele>724.0</ele><time>2026-04-11T12:15:10Z</time></trkpt><trkpt lat="40.41805198783553" lon="8.930066221519137"><ele>725.25</ele><time>2026-04-11T12:15:11Z</time></trkpt><trkpt lat="40.4179479989221" lon="8.930031757366654"><ele>726.5</ele><time>2026-04-11T12:15:12Z</time></trkpt><trkpt lat="40.41783626290456" lon="8.930015360541148"><ele>727.75</ele><time>2026-04-11T12:15:13Z</time></trkpt><trkpt lat="40.41772499128697" lon="8.92997266756596"><ele>729.0</ele><time>2026-04-11T12:15:14Z</time></trkpt><trkpt lat="40.417610576150516" lon="8.929930342903495"><ele>729.0</ele><time>2026-04-11T12:15:15Z</time></trkpt><trkpt lat="40.41749250666456" lon="8.9298939425029"><ele>729.0</ele><time>2026-04-11T12:15:16Z</time></trkpt><trkpt lat="40.417372652161404" lon="8.929856388456715"><ele>729.0</ele><time>2026-04-11T12:15:17Z</time></trkpt><trkpt lat="40.41725213660631" lon="8.92981514327627"><ele>729.0</ele><time>2026-04-11T12:15:18Z</time></trkpt><trkpt lat="40.41713111906399" lon="8.929773816130995"><ele>731.5</ele><time>2026-04-11T12:15:19Z</time></trkpt><trkpt lat="40.417008357682015" lon="8.929733345357755"><ele>734.0</ele><time>2026-04-11T12:15:20Z</time></trkpt><trkpt lat="40.41688552273342" lon="8.929694840487661"><ele>736.5</ele><time>2026-04-11T12:15:21Z</time></trkpt><trkpt lat="40.416761070525766" lon="8.929657548063693"><ele>739.0</ele><time>2026-04-11T12:15:22Z</time></trkpt><trkpt lat="40.41663590916141" lon="8.929614838485719"><ele>739.0</ele><time>2026-04-11T12:15:23Z</time></trkpt><trkpt lat="40.416508611324474" lon="8.929566673342558"><ele>739.0</ele><time>2026-04-11T12:15:24Z</time></trkpt><trkpt lat="40.41638059702737" lon="8.929519589936668"><ele>739.0</ele><time>2026-04-11T12:15:25Z</time></trkpt><trkpt lat="40.416250540786194" lon="8.929472596800162"><ele>739.0</ele><time>2026-04-11T12:15:26Z</time></trkpt><trkpt lat="40.41612078815366" lon="8.929417369442211"><ele>739.0</ele><time>2026-04-11T12:15:27Z</time></trkpt><trkpt lat="40.415990225228576" lon="8.92935476092572"><ele>739.0</ele><time>2026-04-11T12:15:28Z</time></trkpt><trkpt lat="40.41586080633452" lon="8.929285788936147"><ele>739.0</ele><time>2026-04-11T12:15:29Z</time></trkpt><trkpt lat="40.41573211603925" lon="8.929205567206937"><ele>739.0</ele><time>2026-04-11T12:15:30Z</time></trkpt><trkpt lat="40.415608398665526" lon="8.92911038031916"><ele>739.0</ele><time>2026-04-11T12:15:31Z</time></trkpt><trkpt lat="40.41549118079107" lon="8.928999261394631"><ele>739.0</ele><time>2026-04-11T12:15:32Z</time></trkpt><trkpt lat="40.41538025952723" lon="8.928871838192553"><ele>739.0</ele><time>2026-04-11T12:15:33Z</time></trkpt><trkpt lat="40.41530379949665" lon="8.928722532093467"><ele>739.0</ele><time>2026-04-11T12:15:34Z</time></trkpt><trkpt lat="40.415226501470165" lon="8.928575016378998"><ele>740.0</ele><time>2026-04-11T12:15:35Z</time></trkpt><trkpt lat="40.415157442577055" lon="8.928416045312801"><ele>741.0</ele><time>2026-04-11T12:15:36Z</time></trkpt><trkpt lat="40.41508851700435" lon="8.928254801136994"><ele>742.0</ele><time>2026-04-11T12:15:37Z</time></trkpt><trkpt lat="40.415038769023624" lon="8.928079504207359"><ele>743.0</ele><time>2026-04-11T12:15:38Z</time></trkpt><trkpt lat="40.41500945826619" lon="8.927891363980333"><ele>743.0</ele><time>2026-04-11T12:15:39Z</time></trkpt><trkpt lat="40.41497682795134" lon="8.927703752520598"><ele>743.0</ele><time>2026-04-11T12:15:40Z</time></trkpt><trkpt lat="40.41495160408227" lon="8.927510839386251"><ele>743.0</ele><time>2026-04-11T12:15:41Z</time></trkpt><trkpt lat="40.41492924443463" lon="8.92731235846179"><ele>743.0</ele><time>2026-04-11T12:15:42Z</time></trkpt><trkpt lat="40.41491023856991" lon="8.927111498435348"><ele>743.0</ele><time>2026-04-11T12:15:43Z</time></trkpt><trkpt lat="40.41489209435087" lon="8.926909273862696"><ele>743.0</ele><time>2026-04-11T12:15:44Z</time></trkpt><trkpt lat="40.41487061914347" lon="8.926702422856222"><ele>743.0</ele><time>2026-04-11T12:15:45Z</time></trkpt><trkpt lat="40.41484599834368" lon="8.926496051754784"><ele>743.6666666666666</ele><time>2026-04-11T12:15:46Z</time></trkpt><trkpt lat="40.41481569540115" lon="8.926291366814093"><ele>744.3333333333334</ele><time>2026-04-11T12:15:47Z</time></trkpt><trkpt lat="40.41477779034958" lon="8.926085129877109"><ele>745.0</ele><time>2026-04-11T12:15:48Z</time></trkpt><trkpt lat="40.4147259610988" lon="8.925877664666311"><ele>745.3333333333334</ele><time>2026-04-11T12:15:49Z</time></trkpt><trkpt lat="40.41466568157279" lon="8.925679677368386"><ele>745.6666666666666</ele><time>2026-04-11T12:15:50Z</time></trkpt><trkpt lat="40.41457476508321" lon="8.925495739785429"><ele>746.0</ele><time>2026-04-11T12:15:51Z</time></trkpt><trkpt lat="40.414481604864896" lon="8.9253157268289"><ele>749.3333333333333</ele><time>2026-04-11T12:15:52Z</time></trkpt><trkpt lat="40.41436701394087" lon="8.92514774945863"><ele>752.6666666666666</ele><time>2026-04-11T12:15:53Z</time></trkpt><trkpt lat="40.41424084092832" lon="8.925001366261034"><ele>756.0</ele><time>2026-04-11T12:15:54Z</time></trkpt><trkpt lat="40.41410130597147" lon="8.92487226457226"><ele>756.0</ele><time>2026-04-11T12:15:55Z</time></trkpt><trkpt lat="40.41394871172972" lon="8.924761497422425"><ele>756.0</ele><time>2026-04-11T12:15:56Z</time></trkpt><trkpt lat="40.413787998592916" lon="8.924669778613644"><ele>756.0</ele><time>2026-04-11T12:15:57Z</time></trkpt><trkpt lat="40.41362199791933" lon="8.924591320966288"><ele>757.3333333333334</ele><time>2026-04-11T12:15:58Z</time></trkpt><trkpt lat="40.41345079639699" lon="8.924522010969605"><ele>758.6666666666667</ele><time>2026-04-11T12:15:59Z</time></trkpt><trkpt lat="40.41327778140033" lon="8.924458962947398"><ele>760.0</ele><time>2026-04-11T12:16:00Z</time></trkpt><trkpt lat="40.41310249625637" lon="8.92439715864508"><ele>758.6666666666667</ele><time>2026-04-11T12:16:01Z</time></trkpt><trkpt lat="40.41292491494112" lon="8.924337093167743"><ele>757.3333333333334</ele><time>2026-04-11T12:16:02Z</time></trkpt><trkpt lat="40.412751234418145" lon="8.92427562682775"><ele>756.0</ele><time>2026-04-11T12:16:03Z</time></trkpt><trkpt lat="40.41257773751347" lon="8.924214713820394"><ele>756.0</ele><time>2026-04-11T12:16:04Z</time></trkpt><trkpt lat="40.412402927297876" lon="8.924155180378818"><ele>756.0</ele><time>2026-04-11T12:16:05Z</time></trkpt><trkpt lat="40.41222791080274" lon="8.924098063485385"><ele>756.0</ele><time>2026-04-11T12:16:06Z</time></trkpt><trkpt lat="40.41205405213592" lon="8.924043405475707"><ele>758.0</ele><time>2026-04-11T12:16:07Z</time></trkpt><trkpt lat="40.41188122827008" lon="8.923988280769011"><ele>760.0</ele><time>2026-04-11T12:16:08Z</time></trkpt><trkpt lat="40.411710790445575" lon="8.923930600350923"><ele>762.0</ele><time>2026-04-11T12:16:09Z</time></trkpt><trkpt lat="40.41153115747978" lon="8.92386796487547"><ele>762.0</ele><time>2026-04-11T12:16:10Z</time></trkpt><trkpt lat="40.41135424732611" lon="8.923807537103109"><ele>762.0</ele><time>2026-04-11T12:16:11Z</time></trkpt><trkpt lat="40.411177948325424" lon="8.923748571755986"><ele>762.0</ele><time>2026-04-11T12:16:12Z</time></trkpt><trkpt lat="40.41099714818261" lon="8.923690604204726"><ele>763.6666666666666</ele><time>2026-04-11T12:16:13Z</time></trkpt><trkpt lat="40.410816903664085" lon="8.923634102576097"><ele>765.3333333333333</ele><time>2026-04-11T12:16:14Z</time></trkpt><trkpt lat="40.4106349508525" lon="8.923577891489865"><ele>767.0</ele><time>2026-04-11T12:16:15Z</time></trkpt><trkpt lat="40.41045334126579" lon="8.923519548870958"><ele>767.3333333333333</ele><time>2026-04-11T12:16:16Z</time></trkpt><trkpt lat="40.41027055697087" lon="8.923458584664042"><ele>767.6666666666666</ele><time>2026-04-11T12:16:17Z</time></trkpt><trkpt lat="40.410084772864934" lon="8.923396914630668"><ele>768.0</ele><time>2026-04-11T12:16:18Z</time></trkpt><trkpt lat="40.40989811059293" lon="8.92333649268417"><ele>768.0</ele><time>2026-04-11T12:16:19Z</time></trkpt><trkpt lat="40.40971035332536" lon="8.923275601895991"><ele>768.0</ele><time>2026-04-11T12:16:20Z</time></trkpt><trkpt lat="40.40952226509728" lon="8.923210905073217"><ele>768.0</ele><time>2026-04-11T12:16:21Z</time></trkpt><trkpt lat="40.40933280473819" lon="8.923147979112363"><ele>768.3333333333333</ele><time>2026-04-11T12:16:22Z</time></trkpt><trkpt lat="40.40914396855487" lon="8.923086718846454"><ele>768.6666666666666</ele><time>2026-04-11T12:16:23Z</time></trkpt><trkpt lat="40.408959801949976" lon="8.923026686757291"><ele>769.0</ele><time>2026-04-11T12:16:24Z</time></trkpt><trkpt lat="40.408775562276915" lon="8.922965700367653"><ele>769.0</ele><time>2026-04-11T12:16:25Z</time></trkpt><trkpt lat="40.408593052842036" lon="8.922904452638399"><ele>769.0</ele><time>2026-04-11T12:16:26Z</time></trkpt><trkpt lat="40.408414596883304" lon="8.922845033941043"><ele>769.0</ele><time>2026-04-11T12:16:27Z</time></trkpt><trkpt lat="40.40823731501804" lon="8.922786375743163"><ele>769.0</ele><time>2026-04-11T12:16:28Z</time></trkpt><trkpt lat="40.4080592600989" lon="8.922727616204497"><ele>769.0</ele><time>2026-04-11T12:16:29Z</time></trkpt><trkpt lat="40.407882753626005" lon="8.922668623904837"><ele>769.0</ele><time>2026-04-11T12:16:30Z</time></trkpt><trkpt lat="40.407704912884896" lon="8.922607452703843"><ele>769.3333333333333</ele><time>2026-04-11T12:16:31Z</time></trkpt><trkpt lat="40.40752982978434" lon="8.922545009172337"><ele>769.6666666666667</ele><time>2026-04-11T12:16:32Z</time></trkpt><trkpt lat="40.407354508736816" lon="8.922485110562057"><ele>770.0</ele><time>2026-04-11T12:16:33Z</time></trkpt><trkpt lat="40.40717648512582" lon="8.922427411065604"><ele>771.3333333333334</ele><time>2026-04-11T12:16:34Z</time></trkpt><trkpt lat="40.407000824243624" lon="8.922370727371863"><ele>772.6666666666667</ele><time>2026-04-11T12:16:35Z</time></trkpt><trkpt lat="40.40682442430778" lon="8.92231113859506"><ele>774.0</ele><time>2026-04-11T12:16:36Z</time></trkpt><trkpt lat="40.40665162578806" lon="8.922251183965791"><ele>774.0</ele><time>2026-04-11T12:16:37Z</time></trkpt><trkpt lat="40.406479938957105" lon="8.922191988159732"><ele>774.0</ele><time>2026-04-11T12:16:38Z</time></trkpt><trkpt lat="40.406306235564806" lon="8.922135736990109"><ele>774.0</ele><time>2026-04-11T12:16:39Z</time></trkpt><trkpt lat="40.40613395109011" lon="8.922080865865034"><ele>776.0</ele><time>2026-04-11T12:16:40Z</time></trkpt><trkpt lat="40.40596140503036" lon="8.922025122164849"><ele>778.0</ele><time>2026-04-11T12:16:41Z</time></trkpt><trkpt lat="40.40579070764364" lon="8.921971157820012"><ele>780.0</ele><time>2026-04-11T12:16:42Z</time></trkpt><trkpt lat="40.40562101268797" lon="8.921917897554108"><ele>779.6666666666667</ele><time>2026-04-11T12:16:43Z</time></trkpt><trkpt lat="40.40544888000637" lon="8.921861629402454"><ele>779.3333333333334</ele><time>2026-04-11T12:16:44Z</time></trkpt><trkpt lat="40.405277816284475" lon="8.921802940741076"><ele>779.0</ele><time>2026-04-11T12:16:45Z</time></trkpt><trkpt lat="40.40510761805535" lon="8.92174590792381"><ele>782.3333333333334</ele><time>2026-04-11T12:16:46Z</time></trkpt><trkpt lat="40.40493747480027" lon="8.92168790212014"><ele>785.6666666666667</ele><time>2026-04-11T12:16:47Z</time></trkpt><trkpt lat="40.40476711935583" lon="8.921629518311255"><ele>789.0</ele><time>2026-04-11T12:16:48Z</time></trkpt><trkpt lat="40.40459714809429" lon="8.921573409512389"><ele>789.0</ele><time>2026-04-11T12:16:49Z</time></trkpt><trkpt lat="40.40442534011852" lon="8.92151600206857"><ele>789.0</ele><time>2026-04-11T12:16:50Z</time></trkpt><trkpt lat="40.404255208763054" lon="8.921454072591196"><ele>789.0</ele><time>2026-04-11T12:16:51Z</time></trkpt><trkpt lat="40.40408613592246" lon="8.92138424998253"><ele>789.0</ele><time>2026-04-11T12:16:52Z</time></trkpt><trkpt lat="40.403921871911194" lon="8.921308029224615"><ele>789.0</ele><time>2026-04-11T12:16:53Z</time></trkpt><trkpt lat="40.40375802238342" lon="8.921227150900203"><ele>789.0</ele><time>2026-04-11T12:16:54Z</time></trkpt><trkpt lat="40.40359402132148" lon="8.921145329397072"><ele>788.3333333333333</ele><time>2026-04-11T12:16:55Z</time></trkpt><trkpt lat="40.4034317232903" lon="8.921063558010296"><ele>787.6666666666666</ele><time>2026-04-11T12:16:56Z</time></trkpt><trkpt lat="40.403270239556385" lon="8.920979382438832"><ele>787.0</ele><time>2026-04-11T12:16:57Z</time></trkpt><trkpt lat="40.40310736746137" lon="8.920886798928455"><ele>790.0</ele><time>2026-04-11T12:16:58Z</time></trkpt><trkpt lat="40.40295171548618" lon="8.920787229782592"><ele>793.0</ele><time>2026-04-11T12:16:59Z</time></trkpt><trkpt lat="40.40279670352834" lon="8.920688077346068"><ele>796.0</ele><time>2026-04-11T12:17:00Z</time></trkpt><trkpt lat="40.40263692802448" lon="8.920600037590802"><ele>796.0</ele><time>2026-04-11T12:17:01Z</time></trkpt><trkpt lat="40.402473733516125" lon="8.92052400116792"><ele>796.0</ele><time>2026-04-11T12:17:02Z</time></trkpt><trkpt lat="40.40230845840663" lon="8.920456032976778"><ele>796.0</ele><time>2026-04-11T12:17:03Z</time></trkpt><trkpt lat="40.40214173975746" lon="8.92039450491505"><ele>798.0</ele><time>2026-04-11T12:17:04Z</time></trkpt><trkpt lat="40.40197445803612" lon="8.92033707107388"><ele>800.0</ele><time>2026-04-11T12:17:05Z</time></trkpt><trkpt lat="40.40180659005668" lon="8.920284544590945"><ele>802.0</ele><time>2026-04-11T12:17:06Z</time></trkpt><trkpt lat="40.401637572152" lon="8.920240381693953"><ele>802.0</ele><time>2026-04-11T12:17:07Z</time></trkpt><trkpt lat="40.40146768499758" lon="8.92020796273889"><ele>802.0</ele><time>2026-04-11T12:17:08Z</time></trkpt><trkpt lat="40.40129602547403" lon="8.920189495390607"><ele>802.0</ele><time>2026-04-11T12:17:09Z</time></trkpt><trkpt lat="40.40112468007319" lon="8.920175577462588"><ele>804.3333333333333</ele><time>2026-04-11T12:17:10Z</time></trkpt><trkpt lat="40.40095211340751" lon="8.920157807653695"><ele>806.6666666666667</ele><time>2026-04-11T12:17:11Z</time></trkpt><trkpt lat="40.4007811527718" lon="8.9201332116915"><ele>809.0</ele><time>2026-04-11T12:17:12Z</time></trkpt><trkpt lat="40.40061005951996" lon="8.920107250350542"><ele>810.6666666666667</ele><time>2026-04-11T12:17:13Z</time></trkpt><trkpt lat="40.40043734062248" lon="8.920085460655052"><ele>812.3333333333333</ele><time>2026-04-11T12:17:14Z</time></trkpt><trkpt lat="40.40026626096495" lon="8.920069606682404"><ele>814.0</ele><time>2026-04-11T12:17:15Z</time></trkpt><trkpt lat="40.40009417798227" lon="8.920055839525439"><ele>817.6666666666666</ele><time>2026-04-11T12:17:16Z</time></trkpt><trkpt lat="40.39992088674441" lon="8.92003328941691"><ele>821.3333333333333</ele><time>2026-04-11T12:17:17Z</time></trkpt><trkpt lat="40.39975247536245" lon="8.919989653493403"><ele>825.0</ele><time>2026-04-11T12:17:18Z</time></trkpt><trkpt lat="40.399585261013335" lon="8.919921622147138"><ele>825.0</ele><time>2026-04-11T12:17:19Z</time></trkpt><trkpt lat="40.39942475551675" lon="8.919833292016628"><ele>825.0</ele><time>2026-04-11T12:17:20Z</time></trkpt><trkpt lat="40.39927019883891" lon="8.919725029896469"><ele>825.0</ele><time>2026-04-11T12:17:21Z</time></trkpt><trkpt lat="40.39912351223964" lon="8.919600232076165"><ele>825.0</ele><time>2026-04-11T12:17:22Z</time></trkpt><trkpt lat="40.39897847464929" lon="8.919472421720185"><ele>825.0</ele><time>2026-04-11T12:17:23Z</time></trkpt><trkpt lat="40.39883031011891" lon="8.919341881830302"><ele>825.0</ele><time>2026-04-11T12:17:24Z</time></trkpt><trkpt lat="40.39867975433361" lon="8.919215226298354"><ele>828.0</ele><time>2026-04-11T12:17:25Z</time></trkpt><trkpt lat="40.39852509786011" lon="8.919089087361943"><ele>831.0</ele><time>2026-04-11T12:17:26Z</time></trkpt><trkpt lat="40.39836949157022" lon="8.918962137356598"><ele>834.0</ele><time>2026-04-11T12:17:27Z</time></trkpt><trkpt lat="40.398213796821196" lon="8.918832187334267"><ele>834.0</ele><time>2026-04-11T12:17:28Z</time></trkpt><trkpt lat="40.39805794346862" lon="8.91869811563572"><ele>834.0</ele><time>2026-04-11T12:17:29Z</time></trkpt><trkpt lat="40.39789956520394" lon="8.918557986244178"><ele>834.0</ele><time>2026-04-11T12:17:30Z</time></trkpt><trkpt lat="40.39774220371021" lon="8.918420399721448"><ele>835.0</ele><time>2026-04-11T12:17:31Z</time></trkpt><trkpt lat="40.3975822759131" lon="8.918284159443342"><ele>836.0</ele><time>2026-04-11T12:17:32Z</time></trkpt><trkpt lat="40.39726718178614" lon="8.91799507144479"><ele>838.6666666666667</ele><time>2026-04-11T12:17:34Z</time></trkpt><trkpt lat="40.397107335753596" lon="8.91785944060007"><ele>841.3333333333333</ele><time>2026-04-11T12:17:35Z</time></trkpt><trkpt lat="40.39694007816484" lon="8.917737319486614"><ele>844.0</ele><time>2026-04-11T12:17:36Z</time></trkpt><trkpt lat="40.396780154444336" lon="8.917596943304249"><ele>843.0</ele><time>2026-04-11T12:17:37Z</time></trkpt><trkpt lat="40.39662073047686" lon="8.917459648592105"><ele>842.0</ele><time>2026-04-11T12:17:38Z</time></trkpt><trkpt lat="40.39645523288502" lon="8.917328903743526"><ele>841.0</ele><time>2026-04-11T12:17:39Z</time></trkpt><trkpt lat="40.396283962661755" lon="8.917215388681264"><ele>841.0</ele><time>2026-04-11T12:17:40Z</time></trkpt><trkpt lat="40.396100763444984" lon="8.917127835062315"><ele>841.0</ele><time>2026-04-11T12:17:41Z</time></trkpt><trkpt lat="40.39591297921595" lon="8.917052796590317"><ele>841.0</ele><time>2026-04-11T12:17:42Z</time></trkpt><trkpt lat="40.3957213164936" lon="8.916989044871006"><ele>841.0</ele><time>2026-04-11T12:17:43Z</time></trkpt><trkpt lat="40.39552784484422" lon="8.916932144323514"><ele>841.0</ele><time>2026-04-11T12:17:44Z</time></trkpt><trkpt lat="40.39533397488607" lon="8.916877542826448"><ele>841.0</ele><time>2026-04-11T12:17:45Z</time></trkpt><trkpt lat="40.3951386366389" lon="8.916821419416365"><ele>841.6666666666666</ele><time>2026-04-11T12:17:46Z</time></trkpt><trkpt lat="40.394944549178824" lon="8.916765172085988"><ele>842.3333333333333</ele><time>2026-04-11T12:17:47Z</time></trkpt><trkpt lat="40.3947494672065" lon="8.916707908198374"><ele>843.0</ele><time>2026-04-11T12:17:48Z</time></trkpt><trkpt lat="40.394554687617294" lon="8.916649544297764"><ele>843.6666666666667</ele><time>2026-04-11T12:17:49Z</time></trkpt><trkpt lat="40.39436059577046" lon="8.916592671924725"><ele>844.3333333333334</ele><time>2026-04-11T12:17:50Z</time></trkpt><trkpt lat="40.394165140676414" lon="8.916538050244117"><ele>845.0</ele><time>2026-04-11T12:17:51Z</time></trkpt><trkpt lat="40.39397023967537" lon="8.916483913072698"><ele>849.3333333333334</ele><time>2026-04-11T12:17:52Z</time></trkpt><trkpt lat="40.39377344661761" lon="8.916428806617464"><ele>853.6666666666667</ele><time>2026-04-11T12:17:53Z</time></trkpt><trkpt lat="40.39357749545446" lon="8.916375158994837"><ele>858.0</ele><time>2026-04-11T12:17:54Z</time></trkpt><trkpt lat="40.39338208078373" lon="8.916322518002625"><ele>858.0</ele><time>2026-04-11T12:17:55Z</time></trkpt><trkpt lat="40.39318501319531" lon="8.916272977241224"><ele>858.0</ele><time>2026-04-11T12:17:56Z</time></trkpt><trkpt lat="40.39298504072213" lon="8.9162300316346"><ele>858.0</ele><time>2026-04-11T12:17:57Z</time></trkpt><trkpt lat="40.39278492818874" lon="8.916200816694898"><ele>857.6666666666667</ele><time>2026-04-11T12:17:58Z</time></trkpt><trkpt lat="40.39258368900327" lon="8.916193204790632"><ele>857.3333333333334</ele><time>2026-04-11T12:17:59Z</time></trkpt><trkpt lat="40.39238128650791" lon="8.916205351914446"><ele>857.0</ele><time>2026-04-11T12:18:00Z</time></trkpt><trkpt lat="40.39218375160866" lon="8.916268774415688"><ele>856.0</ele><time>2026-04-11T12:18:01Z</time></trkpt><trkpt lat="40.391996228810925" lon="8.916371790135862"><ele>855.0</ele><time>2026-04-11T12:18:02Z</time></trkpt><trkpt lat="40.391822968452246" lon="8.916510348971618"><ele>854.0</ele><time>2026-04-11T12:18:03Z</time></trkpt><trkpt lat="40.391664856160524" lon="8.91667935678132"><ele>855.0</ele><time>2026-04-11T12:18:04Z</time></trkpt><trkpt lat="40.3915243483737" lon="8.916873835330842"><ele>856.0</ele><time>2026-04-11T12:18:05Z</time></trkpt><trkpt lat="40.391396508391814" lon="8.917082655408732"><ele>857.0</ele><time>2026-04-11T12:18:06Z</time></trkpt><trkpt lat="40.39127852278967" lon="8.917303328654526"><ele>857.0</ele><time>2026-04-11T12:18:07Z</time></trkpt><trkpt lat="40.39116639748919" lon="8.917530680244099"><ele>857.0</ele><time>2026-04-11T12:18:08Z</time></trkpt><trkpt lat="40.39105550777375" lon="8.917758426157258"><ele>857.0</ele><time>2026-04-11T12:18:09Z</time></trkpt><trkpt lat="40.390942752834064" lon="8.917987027367616"><ele>858.6666666666667</ele><time>2026-04-11T12:18:10Z</time></trkpt><trkpt lat="40.39083041736312" lon="8.918213875176125"><ele>860.3333333333333</ele><time>2026-04-11T12:18:11Z</time></trkpt><trkpt lat="40.3907181909233" lon="8.918444737076372"><ele>862.0</ele><time>2026-04-11T12:18:12Z</time></trkpt><trkpt lat="40.39060621904924" lon="8.918676988980897"><ele>862.6666666666666</ele><time>2026-04-11T12:18:13Z</time></trkpt><trkpt lat="40.39049249633792" lon="8.918912203523849"><ele>863.3333333333333</ele><time>2026-04-11T12:18:14Z</time></trkpt><trkpt lat="40.3903774263598" lon="8.919147762015287"><ele>864.0</ele><time>2026-04-11T12:18:15Z</time></trkpt><trkpt lat="40.39025830121748" lon="8.919387503810562"><ele>867.0</ele><time>2026-04-11T12:18:16Z</time></trkpt><trkpt lat="40.39012789500287" lon="8.919626206521782"><ele>870.0</ele><time>2026-04-11T12:18:17Z</time></trkpt><trkpt lat="40.38998911419209" lon="8.91986852249815"><ele>871.3333333333333</ele><time>2026-04-11T12:18:18Z</time></trkpt><trkpt lat="40.389850737409034" lon="8.920114200551774"><ele>872.6666666666666</ele><time>2026-04-11T12:18:19Z</time></trkpt><trkpt lat="40.389744747308065" lon="8.920280218711836"><ele>874.0</ele><time>2026-04-11T12:18:20Z</time></trkpt><trkpt lat="40.38960657233325" lon="8.920494801735552"><ele>874.0</ele><time>2026-04-11T12:18:21Z</time></trkpt><trkpt lat="40.38946613782818" lon="8.920708737594413"><ele>874.0</ele><time>2026-04-11T12:18:22Z</time></trkpt><trkpt lat="40.38932418275385" lon="8.920923084827256"><ele>874.0</ele><time>2026-04-11T12:18:23Z</time></trkpt><trkpt lat="40.38918027273382" lon="8.92113836107088"><ele>874.3333333333333</ele><time>2026-04-11T12:18:24Z</time></trkpt><trkpt lat="40.38903530637243" lon="8.921350485407602"><ele>874.6666666666667</ele><time>2026-04-11T12:18:25Z</time></trkpt><trkpt lat="40.38888900897832" lon="8.921563660073927"><ele>875.0</ele><time>2026-04-11T12:18:26Z</time></trkpt><trkpt lat="40.38874650107562" lon="8.921778263165987"><ele>875.0</ele><time>2026-04-11T12:18:27Z</time></trkpt><trkpt lat="40.38860781403482" lon="8.921995531808152"><ele>875.0</ele><time>2026-04-11T12:18:28Z</time></trkpt><trkpt lat="40.38847091037643" lon="8.922219031425785"><ele>875.0</ele><time>2026-04-11T12:18:29Z</time></trkpt><trkpt lat="40.38833181894004" lon="8.922439984063859"><ele>874.3333333333334</ele><time>2026-04-11T12:18:30Z</time></trkpt><trkpt lat="40.388196167780755" lon="8.922665139336113"><ele>873.6666666666667</ele><time>2026-04-11T12:18:31Z</time></trkpt><trkpt lat="40.388067011510046" lon="8.922893553314642"><ele>873.0</ele><time>2026-04-11T12:18:32Z</time></trkpt><trkpt lat="40.387946556020836" lon="8.92313156642937"><ele>874.0</ele><time>2026-04-11T12:18:33Z</time></trkpt><trkpt lat="40.38783291707184" lon="8.923377738626343"><ele>875.0</ele><time>2026-04-11T12:18:34Z</time></trkpt><trkpt lat="40.38771929940243" lon="8.92362513088412"><ele>876.0</ele><time>2026-04-11T12:18:35Z</time></trkpt><trkpt lat="40.38760783503153" lon="8.92387210045048"><ele>876.0</ele><time>2026-04-11T12:18:36Z</time></trkpt><trkpt lat="40.38749703046837" lon="8.924115851288585"><ele>876.0</ele><time>2026-04-11T12:18:37Z</time></trkpt><trkpt lat="40.38738249790589" lon="8.92435950411086"><ele>876.0</ele><time>2026-04-11T12:18:38Z</time></trkpt><trkpt lat="40.387268648479484" lon="8.924602969892412"><ele>879.0</ele><time>2026-04-11T12:18:39Z</time></trkpt><trkpt lat="40.387153896774215" lon="8.924836650886778"><ele>882.0</ele><time>2026-04-11T12:18:40Z</time></trkpt><trkpt lat="40.387042466910124" lon="8.925069851556529"><ele>885.0</ele><time>2026-04-11T12:18:41Z</time></trkpt><trkpt lat="40.38693465951123" lon="8.925299273234664"><ele>885.0</ele><time>2026-04-11T12:18:42Z</time></trkpt><trkpt lat="40.38682854438413" lon="8.925526080448376"><ele>885.0</ele><time>2026-04-11T12:18:43Z</time></trkpt><trkpt lat="40.38671368468577" lon="8.925739152161386"><ele>885.0</ele><time>2026-04-11T12:18:44Z</time></trkpt><trkpt lat="40.386583356951796" lon="8.925928536673236"><ele>884.3333333333333</ele><time>2026-04-11T12:18:45Z</time></trkpt><trkpt lat="40.38644208337981" lon="8.926100688588422"><ele>883.6666666666666</ele><time>2026-04-11T12:18:46Z</time></trkpt><trkpt lat="40.38629419797517" lon="8.926260007454784"><ele>883.0</ele><time>2026-04-11T12:18:47Z</time></trkpt><trkpt lat="40.38613826509812" lon="8.926401613634292"><ele>885.3333333333333</ele><time>2026-04-11T12:18:48Z</time></trkpt><trkpt lat="40.385977211275346" lon="8.92652963957155"><ele>887.6666666666667</ele><time>2026-04-11T12:18:49Z</time></trkpt><trkpt lat="40.385817976958386" lon="8.926665246164905"><ele>890.0</ele><time>2026-04-11T12:18:50Z</time></trkpt><trkpt lat="40.38566339367108" lon="8.92680647926747"><ele>892.0</ele><time>2026-04-11T12:18:51Z</time></trkpt><trkpt lat="40.38550713614301" lon="8.926946690576612"><ele>894.0</ele><time>2026-04-11T12:18:52Z</time></trkpt><trkpt lat="40.3853443669944" lon="8.927079052464691"><ele>896.0</ele><time>2026-04-11T12:18:53Z</time></trkpt><trkpt lat="40.38518184753001" lon="8.92721401063645"><ele>896.0</ele><time>2026-04-11T12:18:54Z</time></trkpt><trkpt lat="40.38502088897811" lon="8.92735693562639"><ele>896.0</ele><time>2026-04-11T12:18:55Z</time></trkpt><trkpt lat="40.38486235200546" lon="8.927504029362943"><ele>896.0</ele><time>2026-04-11T12:18:56Z</time></trkpt><trkpt lat="40.38470334106671" lon="8.927647722141664"><ele>896.3333333333334</ele><time>2026-04-11T12:18:57Z</time></trkpt><trkpt lat="40.38453939098482" lon="8.927782028165257"><ele>896.6666666666667</ele><time>2026-04-11T12:18:58Z</time></trkpt><trkpt lat="40.38437302877747" lon="8.927916070472946"><ele>897.0</ele><time>2026-04-11T12:18:59Z</time></trkpt><trkpt lat="40.384210205047374" lon="8.928057942004582"><ele>897.0</ele><time>2026-04-11T12:19:00Z</time></trkpt><trkpt lat="40.3840490343319" lon="8.928207882392615"><ele>897.0</ele><time>2026-04-11T12:19:01Z</time></trkpt><trkpt lat="40.38388519788327" lon="8.92835359232734"><ele>897.0</ele><time>2026-04-11T12:19:02Z</time></trkpt><trkpt lat="40.38371958015308" lon="8.928498617876844"><ele>896.0</ele><time>2026-04-11T12:19:03Z</time></trkpt><trkpt lat="40.383552047114755" lon="8.928642667822587"><ele>895.0</ele><time>2026-04-11T12:19:04Z</time></trkpt><trkpt lat="40.38338436119422" lon="8.92878564645225"><ele>894.0</ele><time>2026-04-11T12:19:05Z</time></trkpt><trkpt lat="40.383209615190765" lon="8.928931088075796"><ele>894.0</ele><time>2026-04-11T12:19:06Z</time></trkpt><trkpt lat="40.38303612648803" lon="8.929079328062794"><ele>894.0</ele><time>2026-04-11T12:19:07Z</time></trkpt><trkpt lat="40.38286293646024" lon="8.92923856722173"><ele>894.0</ele><time>2026-04-11T12:19:08Z</time></trkpt><trkpt lat="40.382692762154534" lon="8.929400710216562"><ele>892.0</ele><time>2026-04-11T12:19:09Z</time></trkpt><trkpt lat="40.382521022431426" lon="8.929557393162954"><ele>890.0</ele><time>2026-04-11T12:19:10Z</time></trkpt><trkpt lat="40.38234366417926" lon="8.929704466300013"><ele>888.0</ele><time>2026-04-11T12:19:11Z</time></trkpt><trkpt lat="40.382166274845716" lon="8.929848247383742"><ele>887.0</ele><time>2026-04-11T12:19:12Z</time></trkpt><trkpt lat="40.38199351473944" lon="8.929999578012216"><ele>886.0</ele><time>2026-04-11T12:19:13Z</time></trkpt><trkpt lat="40.38182360184259" lon="8.930156616623812"><ele>885.0</ele><time>2026-04-11T12:19:14Z</time></trkpt><trkpt lat="40.38165900062961" lon="8.930318064977943"><ele>884.3333333333333</ele><time>2026-04-11T12:19:15Z</time></trkpt><trkpt lat="40.381499513364865" lon="8.930486722615157"><ele>883.6666666666666</ele><time>2026-04-11T12:19:16Z</time></trkpt><trkpt lat="40.381346583304094" lon="8.93066408608296"><ele>883.0</ele><time>2026-04-11T12:19:17Z</time></trkpt><trkpt lat="40.381200926102835" lon="8.93084913397412"><ele>882.0</ele><time>2026-04-11T12:19:18Z</time></trkpt><trkpt lat="40.381086378379834" lon="8.931064093753609"><ele>881.0</ele><time>2026-04-11T12:19:19Z</time></trkpt><trkpt lat="40.38098489404196" lon="8.931288649037985"><ele>880.0</ele><time>2026-04-11T12:19:20Z</time></trkpt><trkpt lat="40.38088796415516" lon="8.931520320151225"><ele>878.6666666666666</ele><time>2026-04-11T12:19:21Z</time></trkpt><trkpt lat="40.38082660869355" lon="8.931769771846518"><ele>877.3333333333333</ele><time>2026-04-11T12:19:22Z</time></trkpt><trkpt lat="40.38077188754017" lon="8.932020188940186"><ele>876.0</ele><time>2026-04-11T12:19:23Z</time></trkpt><trkpt lat="40.38072153075221" lon="8.932273145459842"><ele>876.0</ele><time>2026-04-11T12:19:24Z</time></trkpt><trkpt lat="40.38064980094016" lon="8.932518998642683"><ele>876.0</ele><time>2026-04-11T12:19:25Z</time></trkpt><trkpt lat="40.38063828747461" lon="8.932796434303892"><ele>876.0</ele><time>2026-04-11T12:19:26Z</time></trkpt><trkpt lat="40.380602649475556" lon="8.933067604154644"><ele>876.3333333333333</ele><time>2026-04-11T12:19:27Z</time></trkpt><trkpt lat="40.38057060459178" lon="8.93334397906913"><ele>876.6666666666666</ele><time>2026-04-11T12:19:28Z</time></trkpt><trkpt lat="40.380535081473" lon="8.93362052908503"><ele>877.0</ele><time>2026-04-11T12:19:29Z</time></trkpt><trkpt lat="40.380498687090174" lon="8.93390253843428"><ele>877.0</ele><time>2026-04-11T12:19:30Z</time></trkpt><trkpt lat="40.380462520778764" lon="8.93418497709663"><ele>877.0</ele><time>2026-04-11T12:19:31Z</time></trkpt><trkpt lat="40.38042422704097" lon="8.93446700089915"><ele>877.0</ele><time>2026-04-11T12:19:32Z</time></trkpt><trkpt lat="40.38038663201148" lon="8.934747791589416"><ele>873.6666666666666</ele><time>2026-04-11T12:19:33Z</time></trkpt><trkpt lat="40.38034834335592" lon="8.93503174542566"><ele>870.3333333333333</ele><time>2026-04-11T12:19:34Z</time></trkpt><trkpt lat="40.380314982280474" lon="8.935313384425806"><ele>867.0</ele><time>2026-04-11T12:19:35Z</time></trkpt><trkpt lat="40.38028580880604" lon="8.935593650622417"><ele>865.0</ele><time>2026-04-11T12:19:36Z</time></trkpt><trkpt lat="40.380250374433736" lon="8.935869277230204"><ele>863.0</ele><time>2026-04-11T12:19:37Z</time></trkpt><trkpt lat="40.380209240838674" lon="8.936141397382933"><ele>861.0</ele><time>2026-04-11T12:19:38Z</time></trkpt><trkpt lat="40.38017091029372" lon="8.936412096718428"><ele>861.0</ele><time>2026-04-11T12:19:39Z</time></trkpt><trkpt lat="40.38013627438815" lon="8.93668433970136"><ele>861.0</ele><time>2026-04-11T12:19:40Z</time></trkpt><trkpt lat="40.38009915599394" lon="8.936952278828027"><ele>861.0</ele><time>2026-04-11T12:19:41Z</time></trkpt><trkpt lat="40.380054118023054" lon="8.937217892580655"><ele>859.0</ele><time>2026-04-11T12:19:42Z</time></trkpt><trkpt lat="40.37999712906969" lon="8.937477807768191"><ele>857.0</ele><time>2026-04-11T12:19:43Z</time></trkpt><trkpt lat="40.37992438914906" lon="8.937732589690004"><ele>855.0</ele><time>2026-04-11T12:19:44Z</time></trkpt><trkpt lat="40.37983600189247" lon="8.93798244948886"><ele>851.6666666666667</ele><time>2026-04-11T12:19:45Z</time></trkpt><trkpt lat="40.379729607875134" lon="8.938221521119829"><ele>848.3333333333334</ele><time>2026-04-11T12:19:46Z</time></trkpt><trkpt lat="40.379597113683324" lon="8.938442806411963"><ele>845.0</ele><time>2026-04-11T12:19:47Z</time></trkpt><trkpt lat="40.37943976157211" lon="8.938638102518945"><ele>844.0</ele><time>2026-04-11T12:19:48Z</time></trkpt><trkpt lat="40.379261711725555" lon="8.938788918534097"><ele>843.0</ele><time>2026-04-11T12:19:49Z</time></trkpt><trkpt lat="40.37907067164632" lon="8.938891547394181"><ele>842.0</ele><time>2026-04-11T12:19:50Z</time></trkpt><trkpt lat="40.37887348331772" lon="8.938946527001157"><ele>842.3333333333334</ele><time>2026-04-11T12:19:51Z</time></trkpt><trkpt lat="40.378669045117576" lon="8.938962060731294"><ele>842.6666666666667</ele><time>2026-04-11T12:19:52Z</time></trkpt><trkpt lat="40.378461467419676" lon="8.938952202902785"><ele>843.0</ele><time>2026-04-11T12:19:53Z</time></trkpt><trkpt lat="40.37825257136508" lon="8.93893410751514"><ele>843.0</ele><time>2026-04-11T12:19:54Z</time></trkpt><trkpt lat="40.37804604617828" lon="8.938894000562705"><ele>843.0</ele><time>2026-04-11T12:19:55Z</time></trkpt><trkpt lat="40.3778442073574" lon="8.938820303302826"><ele>843.0</ele><time>2026-04-11T12:19:56Z</time></trkpt><trkpt lat="40.37764320504034" lon="8.938733963711098"><ele>842.6666666666667</ele><time>2026-04-11T12:19:57Z</time></trkpt><trkpt lat="40.37744089687871" lon="8.938650796444202"><ele>842.3333333333334</ele><time>2026-04-11T12:19:58Z</time></trkpt><trkpt lat="40.37723557606786" lon="8.938571406748796"><ele>842.0</ele><time>2026-04-11T12:19:59Z</time></trkpt><trkpt lat="40.3770302718297" lon="8.93848953050389"><ele>841.3333333333334</ele><time>2026-04-11T12:20:00Z</time></trkpt><trkpt lat="40.376824868802146" lon="8.938402737339374"><ele>840.6666666666667</ele><time>2026-04-11T12:20:01Z</time></trkpt><trkpt lat="40.37661659018899" lon="8.938317983568284"><ele>840.0</ele><time>2026-04-11T12:20:02Z</time></trkpt><trkpt lat="40.37640938595826" lon="8.938237671308093"><ele>839.3333333333333</ele><time>2026-04-11T12:20:03Z</time></trkpt><trkpt lat="40.376202763620185" lon="8.938156543506528"><ele>838.6666666666666</ele><time>2026-04-11T12:20:04Z</time></trkpt><trkpt lat="40.37599895673989" lon="8.93807186284683"><ele>838.0</ele><time>2026-04-11T12:20:05Z</time></trkpt><trkpt lat="40.37580003621973" lon="8.937988177716598"><ele>838.0</ele><time>2026-04-11T12:20:06Z</time></trkpt><trkpt lat="40.37560460647077" lon="8.9379088804371"><ele>838.0</ele><time>2026-04-11T12:20:07Z</time></trkpt><trkpt lat="40.37541314295435" lon="8.937834123154195"><ele>838.0</ele><time>2026-04-11T12:20:08Z</time></trkpt><trkpt lat="40.37522581565072" lon="8.937764038460667"><ele>839.0</ele><time>2026-04-11T12:20:09Z</time></trkpt><trkpt lat="40.37504535065562" lon="8.937673842024266"><ele>840.0</ele><time>2026-04-11T12:20:10Z</time></trkpt><trkpt lat="40.37485948975675" lon="8.937621218027477"><ele>841.0</ele><time>2026-04-11T12:20:11Z</time></trkpt><trkpt lat="40.374682317704014" lon="8.93754017239539"><ele>845.6666666666666</ele><time>2026-04-11T12:20:12Z</time></trkpt><trkpt lat="40.37450460037014" lon="8.937461370160342"><ele>850.3333333333333</ele><time>2026-04-11T12:20:13Z</time></trkpt><trkpt lat="40.374323317844905" lon="8.93739145052026"><ele>855.0</ele><time>2026-04-11T12:20:14Z</time></trkpt><trkpt lat="40.3741387060673" lon="8.937329954580903"><ele>855.0</ele><time>2026-04-11T12:20:15Z</time></trkpt><trkpt lat="40.37395201081063" lon="8.937280836754384"><ele>855.0</ele><time>2026-04-11T12:20:16Z</time></trkpt><trkpt lat="40.373761604526415" lon="8.937259409391656"><ele>855.0</ele><time>2026-04-11T12:20:17Z</time></trkpt><trkpt lat="40.37357171349092" lon="8.93728751204823"><ele>857.3333333333333</ele><time>2026-04-11T12:20:18Z</time></trkpt><trkpt lat="40.373385391075196" lon="8.937370559322146"><ele>859.6666666666666</ele><time>2026-04-11T12:20:19Z</time></trkpt><trkpt lat="40.3732039347311" lon="8.937495678832189"><ele>862.0</ele><time>2026-04-11T12:20:20Z</time></trkpt><trkpt lat="40.373031945785584" lon="8.937645553935834"><ele>862.3333333333333</ele><time>2026-04-11T12:20:21Z</time></trkpt><trkpt lat="40.37286414392012" lon="8.93779880683374"><ele>862.6666666666667</ele><time>2026-04-11T12:20:22Z</time></trkpt><trkpt lat="40.37269695307405" lon="8.937951863275734"><ele>863.0</ele><time>2026-04-11T12:20:23Z</time></trkpt><trkpt lat="40.37253378436703" lon="8.938113218810921"><ele>863.0</ele><time>2026-04-11T12:20:24Z</time></trkpt><trkpt lat="40.37238181857471" lon="8.93829086446047"><ele>863.0</ele><time>2026-04-11T12:20:25Z</time></trkpt><trkpt lat="40.37224572517084" lon="8.93848564211471"><ele>863.0</ele><time>2026-04-11T12:20:26Z</time></trkpt><trkpt lat="40.372136029712735" lon="8.938699881099906"><ele>866.0</ele><time>2026-04-11T12:20:27Z</time></trkpt><trkpt lat="40.37208153960749" lon="8.938945051583351"><ele>869.0</ele><time>2026-04-11T12:20:28Z</time></trkpt><trkpt lat="40.37204652981414" lon="8.939194686738626"><ele>872.0</ele><time>2026-04-11T12:20:29Z</time></trkpt><trkpt lat="40.37204742864002" lon="8.939459402958033"><ele>871.6666666666667</ele><time>2026-04-11T12:20:30Z</time></trkpt><trkpt lat="40.37206861011256" lon="8.939736403703781"><ele>871.3333333333333</ele><time>2026-04-11T12:20:31Z</time></trkpt><trkpt lat="40.37213776370481" lon="8.940009655573546"><ele>871.0</ele><time>2026-04-11T12:20:32Z</time></trkpt><trkpt lat="40.3722182568584" lon="8.940273282928496"><ele>871.0</ele><time>2026-04-11T12:20:33Z</time></trkpt><trkpt lat="40.37230991079168" lon="8.94053044638094"><ele>871.0</ele><time>2026-04-11T12:20:34Z</time></trkpt><trkpt lat="40.37240682432763" lon="8.940787255097883"><ele>871.0</ele><time>2026-04-11T12:20:35Z</time></trkpt><trkpt lat="40.37250360552227" lon="8.941039447789521"><ele>873.3333333333333</ele><time>2026-04-11T12:20:36Z</time></trkpt><trkpt lat="40.37259875809209" lon="8.941295606608243"><ele>875.6666666666667</ele><time>2026-04-11T12:20:37Z</time></trkpt><trkpt lat="40.37268998810713" lon="8.941550407476365"><ele>878.0</ele><time>2026-04-11T12:20:38Z</time></trkpt><trkpt lat="40.37277935166797" lon="8.941805564134967"><ele>879.6666666666667</ele><time>2026-04-11T12:20:39Z</time></trkpt><trkpt lat="40.372868079019554" lon="8.94206124351538"><ele>881.3333333333333</ele><time>2026-04-11T12:20:40Z</time></trkpt><trkpt lat="40.37295825390959" lon="8.942315835745555"><ele>883.0</ele><time>2026-04-11T12:20:41Z</time></trkpt><trkpt lat="40.37304771053647" lon="8.942567627693196"><ele>883.0</ele><time>2026-04-11T12:20:42Z</time></trkpt><trkpt lat="40.3731311420547" lon="8.942823987616705"><ele>883.0</ele><time>2026-04-11T12:20:43Z</time></trkpt><trkpt lat="40.37319873894425" lon="8.943089108071101"><ele>883.0</ele><time>2026-04-11T12:20:44Z</time></trkpt><trkpt lat="40.37324544990867" lon="8.943360931741775"><ele>884.0</ele><time>2026-04-11T12:20:45Z</time></trkpt><trkpt lat="40.373272493749866" lon="8.943640769636922"><ele>885.0</ele><time>2026-04-11T12:20:46Z</time></trkpt><trkpt lat="40.37327391880507" lon="8.943918853790539"><ele>886.0</ele><time>2026-04-11T12:20:47Z</time></trkpt><trkpt lat="40.373238691879955" lon="8.944194259622448"><ele>886.3333333333333</ele><time>2026-04-11T12:20:48Z</time></trkpt><trkpt lat="40.37317051308022" lon="8.944458693317175"><ele>886.6666666666667</ele><time>2026-04-11T12:20:49Z</time></trkpt><trkpt lat="40.37307850897981" lon="8.944711826503482"><ele>887.0</ele><time>2026-04-11T12:20:50Z</time></trkpt><trkpt lat="40.37297144971707" lon="8.944952755007783"><ele>889.3333333333334</ele><time>2026-04-11T12:20:51Z</time></trkpt><trkpt lat="40.37284784427258" lon="8.945181560361029"><ele>891.6666666666667</ele><time>2026-04-11T12:20:52Z</time></trkpt><trkpt lat="40.37271705936936" lon="8.945411244143083"><ele>894.0</ele><time>2026-04-11T12:20:53Z</time></trkpt><trkpt lat="40.37259635627473" lon="8.945641863075661"><ele>894.0</ele><time>2026-04-11T12:20:54Z</time></trkpt><trkpt lat="40.37247325884935" lon="8.945872926210592"><ele>894.0</ele><time>2026-04-11T12:20:55Z</time></trkpt><trkpt lat="40.372345226160334" lon="8.946102681070036"><ele>894.0</ele><time>2026-04-11T12:20:56Z</time></trkpt><trkpt lat="40.37221638908493" lon="8.946327739975757"><ele>896.0</ele><time>2026-04-11T12:20:57Z</time></trkpt><trkpt lat="40.37208519655634" lon="8.946553950949689"><ele>898.0</ele><time>2026-04-11T12:20:58Z</time></trkpt><trkpt lat="40.37195038344555" lon="8.946773841912483"><ele>900.0</ele><time>2026-04-11T12:20:59Z</time></trkpt><trkpt lat="40.371807626066136" lon="8.946979175075523"><ele>900.0</ele><time>2026-04-11T12:21:00Z</time></trkpt><trkpt lat="40.371652486238396" lon="8.94716808429202"><ele>900.0</ele><time>2026-04-11T12:21:01Z</time></trkpt><trkpt lat="40.371486579246174" lon="8.947340489833795"><ele>900.0</ele><time>2026-04-11T12:21:02Z</time></trkpt><trkpt lat="40.37131419170431" lon="8.947498981656897"><ele>904.6666666666667</ele><time>2026-04-11T12:21:03Z</time></trkpt><trkpt lat="40.37113498998515" lon="8.947649112947147"><ele>909.3333333333334</ele><time>2026-04-11T12:21:04Z</time></trkpt><trkpt lat="40.37095018908107" lon="8.9477963806559"><ele>914.0</ele><time>2026-04-11T12:21:05Z</time></trkpt><trkpt lat="40.370768794646956" lon="8.94794596667835"><ele>914.0</ele><time>2026-04-11T12:21:06Z</time></trkpt><trkpt lat="40.370592703937135" lon="8.948102923825092"><ele>914.0</ele><time>2026-04-11T12:21:07Z</time></trkpt><trkpt lat="40.37042511502666" lon="8.948273190340212"><ele>914.0</ele><time>2026-04-11T12:21:08Z</time></trkpt><trkpt lat="40.370265355673205" lon="8.948458464571264"><ele>915.0</ele><time>2026-04-11T12:21:09Z</time></trkpt><trkpt lat="40.370115368256876" lon="8.948657785620494"><ele>916.0</ele><time>2026-04-11T12:21:10Z</time></trkpt><trkpt lat="40.3699719209989" lon="8.94886771826238"><ele>917.0</ele><time>2026-04-11T12:21:11Z</time></trkpt><trkpt lat="40.369831519780156" lon="8.94908104181748"><ele>920.3333333333334</ele><time>2026-04-11T12:21:12Z</time></trkpt><trkpt lat="40.36969220596536" lon="8.949295097668005"><ele>923.6666666666667</ele><time>2026-04-11T12:21:13Z</time></trkpt><trkpt lat="40.369556602520774" lon="8.94950244949876"><ele>927.0</ele><time>2026-04-11T12:21:14Z</time></trkpt><trkpt lat="40.36942351987613" lon="8.949702971947938"><ele>927.3333333333333</ele><time>2026-04-11T12:21:15Z</time></trkpt><trkpt lat="40.369294249970416" lon="8.949895629097282"><ele>927.6666666666666</ele><time>2026-04-11T12:21:16Z</time></trkpt><trkpt lat="40.36916824769895" lon="8.950083444245186"><ele>928.0</ele><time>2026-04-11T12:21:17Z</time></trkpt><trkpt lat="40.36904328649399" lon="8.950265261258235"><ele>928.3333333333333</ele><time>2026-04-11T12:21:18Z</time></trkpt><trkpt lat="40.368917924098184" lon="8.950434810406898"><ele>928.6666666666667</ele><time>2026-04-11T12:21:19Z</time></trkpt><trkpt lat="40.3687882276759" lon="8.95058518711548"><ele>929.0</ele><time>2026-04-11T12:21:20Z</time></trkpt><trkpt lat="40.36865261527204" lon="8.950712675496389"><ele>929.0</ele><time>2026-04-11T12:21:21Z</time></trkpt><trkpt lat="40.36850893072062" lon="8.950814930139048"><ele>929.0</ele><time>2026-04-11T12:21:22Z</time></trkpt><trkpt lat="40.368359235553896" lon="8.950887036235265"><ele>929.0</ele><time>2026-04-11T12:21:23Z</time></trkpt><trkpt lat="40.368200064865334" lon="8.950928459517423"><ele>929.0</ele><time>2026-04-11T12:21:24Z</time></trkpt><trkpt lat="40.36804204223374" lon="8.950960069153645"><ele>929.0</ele><time>2026-04-11T12:21:25Z</time></trkpt><trkpt lat="40.36788525152646" lon="8.95097992300642"><ele>929.0</ele><time>2026-04-11T12:21:26Z</time></trkpt><trkpt lat="40.36772991481954" lon="8.950993595899774"><ele>927.0</ele><time>2026-04-11T12:21:27Z</time></trkpt><trkpt lat="40.36758159869144" lon="8.951001409970239"><ele>925.0</ele><time>2026-04-11T12:21:28Z</time></trkpt><trkpt lat="40.36743713387447" lon="8.951004940571583"><ele>923.0</ele><time>2026-04-11T12:21:29Z</time></trkpt><trkpt lat="40.36730722896508" lon="8.950996877307322"><ele>921.0</ele><time>2026-04-11T12:21:30Z</time></trkpt><trkpt lat="40.36719378659636" lon="8.950980903684504"><ele>919.5</ele><time>2026-04-11T12:21:31Z</time></trkpt><trkpt lat="40.36709643107981" lon="8.950990670698987"><ele>918.0</ele><time>2026-04-11T12:21:32Z</time></trkpt><trkpt lat="40.36701594858129" lon="8.950992998967052"><ele>916.5</ele><time>2026-04-11T12:21:33Z</time></trkpt><trkpt lat="40.366921427309286" lon="8.950995733361808"><ele>915.0</ele><time>2026-04-11T12:21:35Z</time></trkpt><trkpt lat="40.36685794925079" lon="8.950997569710946"><ele>913.5</ele><time>2026-04-11T12:21:46Z</time></trkpt><trkpt lat="40.36676782053802" lon="8.95100017702823"><ele>912.0</ele><time>2026-04-11T12:22:02Z</time></trkpt><trkpt lat="40.36670313657879" lon="8.951070753665055"><ele>912.0</ele><time>2026-04-11T12:22:04Z</time></trkpt><trkpt lat="40.36671025617352" lon="8.951159069561811"><ele>912.0</ele><time>2026-04-11T12:22:05Z</time></trkpt><trkpt lat="40.366743588322194" lon="8.951249220967476"><ele>912.0</ele><time>2026-04-11T12:22:06Z</time></trkpt><trkpt lat="40.36678117182461" lon="8.951351440042384"><ele>912.0</ele><time>2026-04-11T12:22:07Z</time></trkpt><trkpt lat="40.366824494786314" lon="8.95146523702447"><ele>912.0</ele><time>2026-04-11T12:22:08Z</time></trkpt><trkpt lat="40.366872552852385" lon="8.951593027703586"><ele>912.0</ele><time>2026-04-11T12:22:09Z</time></trkpt><trkpt lat="40.366918389315884" lon="8.951735769437585"><ele>911.5</ele><time>2026-04-11T12:22:10Z</time></trkpt><trkpt lat="40.3669662981972" lon="8.951885919093806"><ele>911.0</ele><time>2026-04-11T12:22:11Z</time></trkpt><trkpt lat="40.36701691263226" lon="8.95204266425636"><ele>910.5</ele><time>2026-04-11T12:22:12Z</time></trkpt><trkpt lat="40.36706055605219" lon="8.9522046179084"><ele>910.0</ele><time>2026-04-11T12:22:13Z</time></trkpt><trkpt lat="40.367085456159614" lon="8.95237696310119"><ele>909.75</ele><time>2026-04-11T12:22:14Z</time></trkpt><trkpt lat="40.36709457140065" lon="8.952553359587025"><ele>909.5</ele><time>2026-04-11T12:22:15Z</time></trkpt><trkpt lat="40.36709525760525" lon="8.952730810421468"><ele>909.25</ele><time>2026-04-11T12:22:16Z</time></trkpt><trkpt lat="40.36709550286967" lon="8.952908959728644"><ele>909.0</ele><time>2026-04-11T12:22:17Z</time></trkpt><trkpt lat="40.36710178794259" lon="8.953086596545301"><ele>909.0</ele><time>2026-04-11T12:22:18Z</time></trkpt><trkpt lat="40.36711141536023" lon="8.953260664547269"><ele>909.0</ele><time>2026-04-11T12:22:19Z</time></trkpt><trkpt lat="40.36711972340308" lon="8.953439051463285"><ele>909.0</ele><time>2026-04-11T12:22:20Z</time></trkpt><trkpt lat="40.36712447075728" lon="8.953613810829621"><ele>909.0</ele><time>2026-04-11T12:22:21Z</time></trkpt><trkpt lat="40.367113986018666" lon="8.95378893028921"><ele>909.75</ele><time>2026-04-11T12:22:22Z</time></trkpt><trkpt lat="40.36708240419354" lon="8.953959600607241"><ele>910.5</ele><time>2026-04-11T12:22:23Z</time></trkpt><trkpt lat="40.367033174519406" lon="8.954118984596441"><ele>911.25</ele><time>2026-04-11T12:22:24Z</time></trkpt><trkpt lat="40.36697071290414" lon="8.954266951949444"><ele>912.0</ele><time>2026-04-11T12:22:25Z</time></trkpt><trkpt lat="40.36689520369306" lon="8.954402836276817"><ele>912.5</ele><time>2026-04-11T12:22:26Z</time></trkpt><trkpt lat="40.366810531298974" lon="8.954524994914225"><ele>913.0</ele><time>2026-04-11T12:22:27Z</time></trkpt><trkpt lat="40.366716544035214" lon="8.954630034216104"><ele>913.5</ele><time>2026-04-11T12:22:28Z</time></trkpt><trkpt lat="40.36661918765576" lon="8.954717496054979"><ele>914.0</ele><time>2026-04-11T12:22:29Z</time></trkpt><trkpt lat="40.366528557221834" lon="8.954798842428044"><ele>914.0</ele><time>2026-04-11T12:22:30Z</time></trkpt><trkpt lat="40.3664443611202" lon="8.954882923793859"><ele>914.0000000000001</ele><time>2026-04-11T12:22:31Z</time></trkpt><trkpt lat="40.366364936060805" lon="8.954964169715819"><ele>914.0000000000001</ele><time>2026-04-11T12:22:32Z</time></trkpt><trkpt lat="40.366281484571466" lon="8.955044292871667"><ele>914.0</ele><time>2026-04-11T12:22:33Z</time></trkpt><trkpt lat="40.36619654325922" lon="8.955123793628895"><ele>914.0</ele><time>2026-04-11T12:22:34Z</time></trkpt><trkpt lat="40.36610883330803" lon="8.955205852870096"><ele>913.6</ele><time>2026-04-11T12:22:35Z</time></trkpt><trkpt lat="40.366020254073796" lon="8.955286511764964"><ele>913.2</ele><time>2026-04-11T12:22:36Z</time></trkpt><trkpt lat="40.365930541684975" lon="8.955371520301517"><ele>912.8000000000001</ele><time>2026-04-11T12:22:37Z</time></trkpt><trkpt lat="40.365836539557726" lon="8.95545575181778"><ele>912.4000000000001</ele><time>2026-04-11T12:22:38Z</time></trkpt><trkpt lat="40.36573763930553" lon="8.95553146487662"><ele>912.0</ele><time>2026-04-11T12:22:39Z</time></trkpt><trkpt lat="40.36563549645121" lon="8.955598838365114"><ele>912.25</ele><time>2026-04-11T12:22:40Z</time></trkpt><trkpt lat="40.36552513499163" lon="8.955656274556512"><ele>912.5</ele><time>2026-04-11T12:22:41Z</time></trkpt><trkpt lat="40.365411481832844" lon="8.955700178844587"><ele>912.75</ele><time>2026-04-11T12:22:42Z</time></trkpt><trkpt lat="40.36529082520647" lon="8.955738252296271"><ele>913.0</ele><time>2026-04-11T12:22:43Z</time></trkpt><trkpt lat="40.36516756575471" lon="8.955767896183644"><ele>913.0</ele><time>2026-04-11T12:22:44Z</time></trkpt><trkpt lat="40.36504116766391" lon="8.955793623639545"><ele>913.0</ele><time>2026-04-11T12:22:45Z</time></trkpt><trkpt lat="40.36491424599432" lon="8.955813892312246"><ele>913.0</ele><time>2026-04-11T12:22:46Z</time></trkpt><trkpt lat="40.364786494924275" lon="8.955837361383855"><ele>913.0</ele><time>2026-04-11T12:22:47Z</time></trkpt><trkpt lat="40.364656636241" lon="8.955862233626775"><ele>912.25</ele><time>2026-04-11T12:22:48Z</time></trkpt><trkpt lat="40.364525566180625" lon="8.95588638284468"><ele>911.5</ele><time>2026-04-11T12:22:49Z</time></trkpt><trkpt lat="40.364394058930934" lon="8.955907576074452"><ele>910.75</ele><time>2026-04-11T12:22:50Z</time></trkpt><trkpt lat="40.364260499368164" lon="8.955930809885203"><ele>910.0</ele><time>2026-04-11T12:22:51Z</time></trkpt><trkpt lat="40.3641255102167" lon="8.955952131831014"><ele>910.0</ele><time>2026-04-11T12:22:52Z</time></trkpt><trkpt lat="40.36398701612505" lon="8.955972114408533"><ele>910.0</ele><time>2026-04-11T12:22:53Z</time></trkpt><trkpt lat="40.36384643242926" lon="8.955996608985263"><ele>910.0</ele><time>2026-04-11T12:22:54Z</time></trkpt><trkpt lat="40.363704235744436" lon="8.956023724895385"><ele>910.0</ele><time>2026-04-11T12:22:55Z</time></trkpt><trkpt lat="40.36355943240255" lon="8.95604734573682"><ele>911.0</ele><time>2026-04-11T12:22:56Z</time></trkpt><trkpt lat="40.36341113199569" lon="8.95607117564574"><ele>912.0</ele><time>2026-04-11T12:22:57Z</time></trkpt><trkpt lat="40.36326202775204" lon="8.956098554302715"><ele>913.0</ele><time>2026-04-11T12:22:58Z</time></trkpt><trkpt lat="40.36311118314524" lon="8.956126357884314"><ele>913.0</ele><time>2026-04-11T12:22:59Z</time></trkpt><trkpt lat="40.36296022727012" lon="8.956151998381518"><ele>913.0</ele><time>2026-04-11T12:23:00Z</time></trkpt><trkpt lat="40.362807373685676" lon="8.956178014210161"><ele>913.0</ele><time>2026-04-11T12:23:01Z</time></trkpt><trkpt lat="40.36265264219209" lon="8.956203249548208"><ele>913.0</ele><time>2026-04-11T12:23:02Z</time></trkpt><trkpt lat="40.36249606553305" lon="8.956230221119505"><ele>913.0</ele><time>2026-04-11T12:23:03Z</time></trkpt><trkpt lat="40.362335559913845" lon="8.956256011977803"><ele>913.0</ele><time>2026-04-11T12:23:04Z</time></trkpt><trkpt lat="40.362177960373245" lon="8.956287995720006"><ele>912.0</ele><time>2026-04-11T12:23:05Z</time></trkpt><trkpt lat="40.36203031291155" lon="8.956338808898439"><ele>911.0</ele><time>2026-04-11T12:23:06Z</time></trkpt><trkpt lat="40.36189183000715" lon="8.95643242527908"><ele>910.0</ele><time>2026-04-11T12:23:07Z</time></trkpt><trkpt lat="40.36176248844056" lon="8.956549294957934"><ele>910.0</ele><time>2026-04-11T12:23:08Z</time></trkpt><trkpt lat="40.36163149389481" lon="8.956671194278854"><ele>910.0</ele><time>2026-04-11T12:23:09Z</time></trkpt><trkpt lat="40.36149655128056" lon="8.956787776927248"><ele>910.0</ele><time>2026-04-11T12:23:10Z</time></trkpt><trkpt lat="40.36135942329258" lon="8.956902161423027"><ele>906.6666666666666</ele><time>2026-04-11T12:23:11Z</time></trkpt><trkpt lat="40.36121801929624" lon="8.957016175641199"><ele>903.3333333333333</ele><time>2026-04-11T12:23:12Z</time></trkpt><trkpt lat="40.36108016864271" lon="8.957130491791427"><ele>900.0</ele><time>2026-04-11T12:23:13Z</time></trkpt><trkpt lat="40.36094536482043" lon="8.957251276522975"><ele>900.0</ele><time>2026-04-11T12:23:14Z</time></trkpt><trkpt lat="40.360811929340976" lon="8.957367692932966"><ele>900.0</ele><time>2026-04-11T12:23:15Z</time></trkpt><trkpt lat="40.36067531336528" lon="8.957471566869474"><ele>900.0</ele><time>2026-04-11T12:23:16Z</time></trkpt><trkpt lat="40.360532792714416" lon="8.957551950580081"><ele>897.75</ele><time>2026-04-11T12:23:17Z</time></trkpt><trkpt lat="40.36038477469484" lon="8.957603715631432"><ele>895.5</ele><time>2026-04-11T12:23:18Z</time></trkpt><trkpt lat="40.36024144047882" lon="8.957640704541996"><ele>893.25</ele><time>2026-04-11T12:23:19Z</time></trkpt><trkpt lat="40.36009614045768" lon="8.957687659023119"><ele>891.0</ele><time>2026-04-11T12:23:20Z</time></trkpt><trkpt lat="40.35995096088051" lon="8.957737346730267"><ele>891.0</ele><time>2026-04-11T12:23:21Z</time></trkpt><trkpt lat="40.3598042629433" lon="8.957786376127032"><ele>891.0</ele><time>2026-04-11T12:23:22Z</time></trkpt><trkpt lat="40.35965740463537" lon="8.957834896757845"><ele>891.0</ele><time>2026-04-11T12:23:23Z</time></trkpt><trkpt lat="40.35950944219492" lon="8.957883664902276"><ele>890.6666666666667</ele><time>2026-04-11T12:23:24Z</time></trkpt><trkpt lat="40.35936003427197" lon="8.957933033832036"><ele>890.3333333333334</ele><time>2026-04-11T12:23:25Z</time></trkpt><trkpt lat="40.35920800054622" lon="8.957981587385296"><ele>890.0</ele><time>2026-04-11T12:23:26Z</time></trkpt><trkpt lat="40.35905430317593" lon="8.95802773618706"><ele>890.0</ele><time>2026-04-11T12:23:27Z</time></trkpt><trkpt lat="40.35890154240612" lon="8.958077961896917"><ele>890.0</ele><time>2026-04-11T12:23:28Z</time></trkpt><trkpt lat="40.358747624969936" lon="8.958126965198481"><ele>890.0</ele><time>2026-04-11T12:23:29Z</time></trkpt><trkpt lat="40.35859353853681" lon="8.958177131264383"><ele>889.0</ele><time>2026-04-11T12:23:30Z</time></trkpt><trkpt lat="40.358440009106566" lon="8.958226992653675"><ele>888.0</ele><time>2026-04-11T12:23:31Z</time></trkpt><trkpt lat="40.358285987095826" lon="8.958275679447746"><ele>887.0</ele><time>2026-04-11T12:23:32Z</time></trkpt><trkpt lat="40.358130622168595" lon="8.958323248735091"><ele>884.3333333333334</ele><time>2026-04-11T12:23:33Z</time></trkpt><trkpt lat="40.357978587194445" lon="8.958371680668368"><ele>881.6666666666667</ele><time>2026-04-11T12:23:34Z</time></trkpt><trkpt lat="40.357827590411894" lon="8.95841984627896"><ele>879.0</ele><time>2026-04-11T12:23:35Z</time></trkpt><trkpt lat="40.35767558060249" lon="8.958460216454707"><ele>879.0</ele><time>2026-04-11T12:23:36Z</time></trkpt><trkpt lat="40.357527089892976" lon="8.958467293914158"><ele>879.0</ele><time>2026-04-11T12:23:37Z</time></trkpt><trkpt lat="40.357382550881916" lon="8.95843884700968"><ele>879.0</ele><time>2026-04-11T12:23:38Z</time></trkpt><trkpt lat="40.35724435534886" lon="8.958379821704558"><ele>879.0</ele><time>2026-04-11T12:23:39Z</time></trkpt><trkpt lat="40.35713274302624" lon="8.958255595948312"><ele>876.6666666666667</ele><time>2026-04-11T12:23:40Z</time></trkpt><trkpt lat="40.35700941183753" lon="8.958147756312936"><ele>874.3333333333334</ele><time>2026-04-11T12:23:41Z</time></trkpt><trkpt lat="40.356887743910505" lon="8.958018597294933"><ele>872.0</ele><time>2026-04-11T12:23:42Z</time></trkpt><trkpt lat="40.35675693543938" lon="8.957898317993644"><ele>872.0</ele><time>2026-04-11T12:23:43Z</time></trkpt><trkpt lat="40.35663363956338" lon="8.957755653039213"><ele>872.0</ele><time>2026-04-11T12:23:44Z</time></trkpt><trkpt lat="40.356491243047955" lon="8.957638711731194"><ele>872.0</ele><time>2026-04-11T12:23:45Z</time></trkpt><trkpt lat="40.35635708835515" lon="8.957501325579376"><ele>872.6666666666667</ele><time>2026-04-11T12:23:46Z</time></trkpt><trkpt lat="40.356221069961165" lon="8.957362981774038"><ele>873.3333333333333</ele><time>2026-04-11T12:23:47Z</time></trkpt><trkpt lat="40.35608352442888" lon="8.957222022611775"><ele>874.0</ele><time>2026-04-11T12:23:48Z</time></trkpt><trkpt lat="40.35594725161071" lon="8.957080041446389"><ele>874.0</ele><time>2026-04-11T12:23:49Z</time></trkpt><trkpt lat="40.35581658601652" lon="8.956944979895278"><ele>874.0</ele><time>2026-04-11T12:23:50Z</time></trkpt><trkpt lat="40.35568902353515" lon="8.956816984942785"><ele>874.0</ele><time>2026-04-11T12:23:51Z</time></trkpt><trkpt lat="40.3555628661684" lon="8.956695681484476"><ele>871.6666666666666</ele><time>2026-04-11T12:23:52Z</time></trkpt><trkpt lat="40.35544441863644" lon="8.95657529443775"><ele>869.3333333333333</ele><time>2026-04-11T12:23:53Z</time></trkpt><trkpt lat="40.35528478738611" lon="8.956545780298917"><ele>867.0</ele><time>2026-04-11T12:23:54Z</time></trkpt><trkpt lat="40.35512661572716" lon="8.956533115478262"><ele>867.0</ele><time>2026-04-11T12:23:55Z</time></trkpt><trkpt lat="40.354964201432566" lon="8.956545722163535"><ele>867.0</ele><time>2026-04-11T12:23:56Z</time></trkpt><trkpt lat="40.354810313414006" lon="8.956540527158714"><ele>867.0</ele><time>2026-04-11T12:23:57Z</time></trkpt><trkpt lat="40.35466205550733" lon="8.95650533852579"><ele>867.6666666666667</ele><time>2026-04-11T12:23:58Z</time></trkpt><trkpt lat="40.35450990062989" lon="8.956462429368218"><ele>868.3333333333334</ele><time>2026-04-11T12:23:59Z</time></trkpt><trkpt lat="40.354353400229776" lon="8.956423774036566"><ele>869.0</ele><time>2026-04-11T12:24:00Z</time></trkpt><trkpt lat="40.354194765494825" lon="8.956376768847557"><ele>869.0</ele><time>2026-04-11T12:24:01Z</time></trkpt><trkpt lat="40.35403330298695" lon="8.95633034260832"><ele>869.0</ele><time>2026-04-11T12:24:02Z</time></trkpt><trkpt lat="40.35387260865762" lon="8.956294984521687"><ele>869.0</ele><time>2026-04-11T12:24:03Z</time></trkpt><trkpt lat="40.35371018607195" lon="8.956273816882948"><ele>869.6666666666667</ele><time>2026-04-11T12:24:04Z</time></trkpt><trkpt lat="40.35355063244228" lon="8.956274651277981"><ele>870.3333333333333</ele><time>2026-04-11T12:24:05Z</time></trkpt><trkpt lat="40.353388589587546" lon="8.95629238222404"><ele>871.0</ele><time>2026-04-11T12:24:06Z</time></trkpt><trkpt lat="40.35322458820523" lon="8.956310563393561"><ele>871.0</ele><time>2026-04-11T12:24:07Z</time></trkpt><trkpt lat="40.35306040407454" lon="8.956329278859508"><ele>871.0</ele><time>2026-04-11T12:24:08Z</time></trkpt><trkpt lat="40.3528903769846" lon="8.956349646980238"><ele>871.0</ele><time>2026-04-11T12:24:09Z</time></trkpt><trkpt lat="40.35271763635586" lon="8.956377365646867"><ele>870.0</ele><time>2026-04-11T12:24:10Z</time></trkpt><trkpt lat="40.35254295596117" lon="8.956400422413154"><ele>869.0</ele><time>2026-04-11T12:24:11Z</time></trkpt><trkpt lat="40.35236438749788" lon="8.95641375431998"><ele>868.0</ele><time>2026-04-11T12:24:12Z</time></trkpt><trkpt lat="40.35219159622468" lon="8.956424389159523"><ele>865.3333333333333</ele><time>2026-04-11T12:24:13Z</time></trkpt><trkpt lat="40.35202761897968" lon="8.956443070975396"><ele>862.6666666666667</ele><time>2026-04-11T12:24:14Z</time></trkpt><trkpt lat="40.35186699838854" lon="8.956467854271821"><ele>860.0</ele><time>2026-04-11T12:24:15Z</time></trkpt><trkpt lat="40.351721401754794" lon="8.956493930831503"><ele>860.0</ele><time>2026-04-11T12:24:16Z</time></trkpt><trkpt lat="40.35158408636711" lon="8.956540958247414"><ele>860.0</ele><time>2026-04-11T12:24:17Z</time></trkpt><trkpt lat="40.351457203545" lon="8.956637496466644"><ele>860.0</ele><time>2026-04-11T12:24:18Z</time></trkpt><trkpt lat="40.3513500032112" lon="8.95678551775353"><ele>860.0</ele><time>2026-04-11T12:24:19Z</time></trkpt><trkpt lat="40.35126140890991" lon="8.956956086913507"><ele>855.6666666666667</ele><time>2026-04-11T12:24:20Z</time></trkpt><trkpt lat="40.351159944369115" lon="8.957113554178088"><ele>851.3333333333333</ele><time>2026-04-11T12:24:21Z</time></trkpt><trkpt lat="40.351049572356956" lon="8.957259187198751"><ele>847.0</ele><time>2026-04-11T12:24:22Z</time></trkpt><trkpt lat="40.350935882434555" lon="8.957392281356773"><ele>847.0</ele><time>2026-04-11T12:24:23Z</time></trkpt><trkpt lat="40.350831119500256" lon="8.957528773221444"><ele>847.0</ele><time>2026-04-11T12:24:24Z</time></trkpt><trkpt lat="40.35073760684753" lon="8.95766472952583"><ele>847.0</ele><time>2026-04-11T12:24:25Z</time></trkpt><trkpt lat="40.3506496400504" lon="8.957780581546361"><ele>847.0</ele><time>2026-04-11T12:24:26Z</time></trkpt><trkpt lat="40.35056169510635" lon="8.957846313449936"><ele>848.0</ele><time>2026-04-11T12:24:27Z</time></trkpt><trkpt lat="40.35047198140647" lon="8.95784661558706"><ele>849.0</ele><time>2026-04-11T12:24:28Z</time></trkpt><trkpt lat="40.350389488732965" lon="8.95776572485879"><ele>850.0</ele><time>2026-04-11T12:24:29Z</time></trkpt><trkpt lat="40.35034273955004" lon="8.957642025141872"><ele>851.0</ele><time>2026-04-11T12:24:30Z</time></trkpt><trkpt lat="40.350294593810844" lon="8.957485989086726"><ele>852.0</ele><time>2026-04-11T12:24:31Z</time></trkpt><trkpt lat="40.35025587777785" lon="8.95736431209669"><ele>852.0</ele><time>2026-04-11T12:24:32Z</time></trkpt><trkpt lat="40.35020081533754" lon="8.957228318969088"><ele>852.0</ele><time>2026-04-11T12:24:33Z</time></trkpt><trkpt lat="40.350135391023215" lon="8.957075224280171"><ele>852.0</ele><time>2026-04-11T12:24:34Z</time></trkpt><trkpt lat="40.35004925502966" lon="8.95693122478043"><ele>852.0</ele><time>2026-04-11T12:24:35Z</time></trkpt><trkpt lat="40.349945169412386" lon="8.956800226050468"><ele>848.0</ele><time>2026-04-11T12:24:36Z</time></trkpt><trkpt lat="40.34982354775476" lon="8.956681334336805"><ele>844.0</ele><time>2026-04-11T12:24:37Z</time></trkpt><trkpt lat="40.34970390682187" lon="8.956561984605457"><ele>840.0</ele><time>2026-04-11T12:24:38Z</time></trkpt><trkpt lat="40.349589206458376" lon="8.956439886048281"><ele>840.0</ele><time>2026-04-11T12:24:39Z</time></trkpt><trkpt lat="40.34946953509273" lon="8.956329238537386"><ele>840.0</ele><time>2026-04-11T12:24:40Z</time></trkpt><trkpt lat="40.349335601708006" lon="8.956256021424142"><ele>840.0</ele><time>2026-04-11T12:24:41Z</time></trkpt><trkpt lat="40.34919353132318" lon="8.956233654823297"><ele>840.0</ele><time>2026-04-11T12:24:42Z</time></trkpt><trkpt lat="40.349054415869254" lon="8.956272134429772"><ele>840.0</ele><time>2026-04-11T12:24:43Z</time></trkpt><trkpt lat="40.34892791706714" lon="8.956375947123345"><ele>840.0</ele><time>2026-04-11T12:24:44Z</time></trkpt><trkpt lat="40.34881799743368" lon="8.956515429849505"><ele>840.0</ele><time>2026-04-11T12:24:45Z</time></trkpt><trkpt lat="40.34870980491805" lon="8.956658005049938"><ele>841.3333333333333</ele><time>2026-04-11T12:24:46Z</time></trkpt><trkpt lat="40.34859025172695" lon="8.956784758272622"><ele>842.6666666666666</ele><time>2026-04-11T12:24:47Z</time></trkpt><trkpt lat="40.34845604277396" lon="8.956893532926475"><ele>844.0</ele><time>2026-04-11T12:24:48Z</time></trkpt><trkpt lat="40.348311726074094" lon="8.956992427027782"><ele>844.0</ele><time>2026-04-11T12:24:49Z</time></trkpt><trkpt lat="40.348164807046984" lon="8.957089749821707"><ele>844.0</ele><time>2026-04-11T12:24:50Z</time></trkpt><trkpt lat="40.34801764357636" lon="8.957187939972929"><ele>844.0</ele><time>2026-04-11T12:24:51Z</time></trkpt><trkpt lat="40.34787236654637" lon="8.957281652316292"><ele>837.6666666666666</ele><time>2026-04-11T12:24:52Z</time></trkpt><trkpt lat="40.34771881965052" lon="8.957361195701736"><ele>831.3333333333333</ele><time>2026-04-11T12:24:53Z</time></trkpt><trkpt lat="40.34755994875975" lon="8.95741942505331"><ele>825.0</ele><time>2026-04-11T12:24:54Z</time></trkpt><trkpt lat="40.34739575408329" lon="8.957458080849275"><ele>825.0</ele><time>2026-04-11T12:24:55Z</time></trkpt><trkpt lat="40.34723360523498" lon="8.957491061941258"><ele>825.0</ele><time>2026-04-11T12:24:56Z</time></trkpt><trkpt lat="40.34707611276086" lon="8.957534163423919"><ele>825.0</ele><time>2026-04-11T12:24:57Z</time></trkpt><trkpt lat="40.346919939723655" lon="8.95757483657429"><ele>825.5</ele><time>2026-04-11T12:24:58Z</time></trkpt><trkpt lat="40.346771955822945" lon="8.957610057811443"><ele>826.0</ele><time>2026-04-11T12:24:59Z</time></trkpt><trkpt lat="40.34663582011685" lon="8.957636341163713"><ele>826.5</ele><time>2026-04-11T12:25:00Z</time></trkpt><trkpt lat="40.346503674128414" lon="8.957654159831192"><ele>827.0</ele><time>2026-04-11T12:25:01Z</time></trkpt><trkpt lat="40.346376081670094" lon="8.95762370306888"><ele>823.75</ele><time>2026-04-11T12:25:02Z</time></trkpt><trkpt lat="40.34626684080878" lon="8.957520565039147"><ele>820.5</ele><time>2026-04-11T12:25:03Z</time></trkpt><trkpt lat="40.34617327262325" lon="8.95740028946402"><ele>817.25</ele><time>2026-04-11T12:25:04Z</time></trkpt><trkpt lat="40.346069706908345" lon="8.957284942243223"><ele>814.0</ele><time>2026-04-11T12:25:05Z</time></trkpt><trkpt lat="40.34596080119279" lon="8.957186675637109"><ele>814.0</ele><time>2026-04-11T12:25:06Z</time></trkpt><trkpt lat="40.34585146878067" lon="8.957068928849576"><ele>814.0</ele><time>2026-04-11T12:25:07Z</time></trkpt><trkpt lat="40.345738912885125" lon="8.956948423690356"><ele>814.0</ele><time>2026-04-11T12:25:08Z</time></trkpt><trkpt lat="40.34563279623798" lon="8.956823570289082"><ele>814.0</ele><time>2026-04-11T12:25:09Z</time></trkpt><trkpt lat="40.34552259672804" lon="8.956711353436726"><ele>809.25</ele><time>2026-04-11T12:25:10Z</time></trkpt><trkpt lat="40.34540603724344" lon="8.956615680315933"><ele>804.5</ele><time>2026-04-11T12:25:11Z</time></trkpt><trkpt lat="40.34527402696966" lon="8.95657105933463"><ele>799.75</ele><time>2026-04-11T12:25:12Z</time></trkpt><trkpt lat="40.34512909113484" lon="8.956585598922945"><ele>795.0</ele><time>2026-04-11T12:25:13Z</time></trkpt><trkpt lat="40.34498510227851" lon="8.956641502440249"><ele>799.3333333333333</ele><time>2026-04-11T12:25:14Z</time></trkpt><trkpt lat="40.344844889966005" lon="8.956717057032577"><ele>803.6666666666666</ele><time>2026-04-11T12:25:15Z</time></trkpt><trkpt lat="40.3447043274242" lon="8.956793229788227"><ele>808.0</ele><time>2026-04-11T12:25:16Z</time></trkpt><trkpt lat="40.3445600161498" lon="8.956861081623924"><ele>808.0</ele><time>2026-04-11T12:25:17Z</time></trkpt><trkpt lat="40.34441148572376" lon="8.956923841669921"><ele>808.0</ele><time>2026-04-11T12:25:18Z</time></trkpt><trkpt lat="40.34426537155836" lon="8.956979553804912"><ele>808.0</ele><time>2026-04-11T12:25:19Z</time></trkpt><trkpt lat="40.34412410930087" lon="8.957031124337426"><ele>808.0</ele><time>2026-04-11T12:25:20Z</time></trkpt><trkpt lat="40.343987172142626" lon="8.957061240429194"><ele>808.0</ele><time>2026-04-11T12:25:21Z</time></trkpt><trkpt lat="40.3438795003668" lon="8.956967363964065"><ele>808.0</ele><time>2026-04-11T12:25:22Z</time></trkpt><trkpt lat="40.34380695800663" lon="8.956845556684074"><ele>808.0</ele><time>2026-04-11T12:25:23Z</time></trkpt><trkpt lat="40.34372008061821" lon="8.956711534598487"><ele>804.75</ele><time>2026-04-11T12:25:24Z</time></trkpt><trkpt lat="40.34362841854852" lon="8.956574178167086"><ele>801.5</ele><time>2026-04-11T12:25:25Z</time></trkpt><trkpt lat="40.34352146181949" lon="8.95644250958505"><ele>798.25</ele><time>2026-04-11T12:25:26Z</time></trkpt><trkpt lat="40.343426844738495" lon="8.956295973181224"><ele>795.0</ele><time>2026-04-11T12:25:27Z</time></trkpt><trkpt lat="40.34332729974018" lon="8.95615703263086"><ele>795.0</ele><time>2026-04-11T12:25:28Z</time></trkpt><trkpt lat="40.34321472391606" lon="8.956043118841608"><ele>795.0</ele><time>2026-04-11T12:25:29Z</time></trkpt><trkpt lat="40.343086387899405" lon="8.955960667768952"><ele>795.0</ele><time>2026-04-11T12:25:30Z</time></trkpt><trkpt lat="40.34294547185316" lon="8.955911377285181"><ele>795.0</ele><time>2026-04-11T12:25:31Z</time></trkpt><trkpt lat="40.34279600629126" lon="8.955902137130323"><ele>799.0</ele><time>2026-04-11T12:25:32Z</time></trkpt><trkpt lat="40.34264392742649" lon="8.95590747520189"><ele>803.0</ele><time>2026-04-11T12:25:33Z</time></trkpt><trkpt lat="40.34249001499763" lon="8.955904011317156"><ele>807.0</ele><time>2026-04-11T12:25:34Z</time></trkpt><trkpt lat="40.3423338066971" lon="8.955887938131385"><ele>798.3333333333333</ele><time>2026-04-11T12:25:35Z</time></trkpt><trkpt lat="40.342174286621216" lon="8.955864150620856"><ele>789.6666666666666</ele><time>2026-04-11T12:25:36Z</time></trkpt><trkpt lat="40.34201271203943" lon="8.955844555430595"><ele>781.0</ele><time>2026-04-11T12:25:37Z</time></trkpt><trkpt lat="40.34185764354073" lon="8.955832377491554"><ele>781.0</ele><time>2026-04-11T12:25:38Z</time></trkpt><trkpt lat="40.34172475272199" lon="8.95582702867414"><ele>781.0</ele><time>2026-04-11T12:25:39Z</time></trkpt><trkpt lat="40.34163051446435" lon="8.955816850801412"><ele>781.0</ele><time>2026-04-11T12:25:40Z</time></trkpt><trkpt lat="40.34156383778348" lon="8.955764102551644"><ele>781.0</ele><time>2026-04-11T12:25:41Z</time></trkpt><trkpt lat="40.34153290351805" lon="8.955659970724438"><ele>781.0</ele><time>2026-04-11T12:25:42Z</time></trkpt><trkpt lat="40.34157939949032" lon="8.955536430407806"><ele>781.0</ele><time>2026-04-11T12:25:43Z</time></trkpt><trkpt lat="40.34162696862772" lon="8.955446360856776"><ele>781.0</ele><time>2026-04-11T12:25:44Z</time></trkpt><trkpt lat="40.34173854172502" lon="8.955443260597233"><ele>781.0</ele><time>2026-04-11T12:25:45Z</time></trkpt><trkpt lat="40.34184610717668" lon="8.955437494173564"><ele>781.0</ele><time>2026-04-11T12:25:46Z</time></trkpt><trkpt lat="40.34196519416957" lon="8.955411424796756"><ele>781.0</ele><time>2026-04-11T12:25:47Z</time></trkpt><trkpt lat="40.34209582795064" lon="8.955396447245109"><ele>780.75</ele><time>2026-04-11T12:25:48Z</time></trkpt><trkpt lat="40.34223187967516" lon="8.955387624487594"><ele>780.5</ele><time>2026-04-11T12:25:49Z</time></trkpt><trkpt lat="40.34237564273515" lon="8.955373649082231"><ele>780.25</ele><time>2026-04-11T12:25:50Z</time></trkpt><trkpt lat="40.34252200580225" lon="8.955355619253142"><ele>780.0</ele><time>2026-04-11T12:25:51Z</time></trkpt><trkpt lat="40.34267489814088" lon="8.955337676513281"><ele>780.0</ele><time>2026-04-11T12:25:52Z</time></trkpt><trkpt lat="40.34283072718204" lon="8.955323199155387"><ele>780.0</ele><time>2026-04-11T12:25:53Z</time></trkpt><trkpt lat="40.34299324232558" lon="8.95530505893957"><ele>780.0</ele><time>2026-04-11T12:25:54Z</time></trkpt><trkpt lat="40.34315757060054" lon="8.955301886040552"><ele>777.6666666666667</ele><time>2026-04-11T12:25:55Z</time></trkpt><trkpt lat="40.34331912588007" lon="8.955316103421502"><ele>775.3333333333334</ele><time>2026-04-11T12:25:56Z</time></trkpt><trkpt lat="40.3434830551705" lon="8.955353555236245"><ele>773.0</ele><time>2026-04-11T12:25:57Z</time></trkpt><trkpt lat="40.343644463100134" lon="8.955381654823867"><ele>773.0</ele><time>2026-04-11T12:25:58Z</time></trkpt><trkpt lat="40.343809718316265" lon="8.955404392291495"><ele>773.0</ele><time>2026-04-11T12:25:59Z</time></trkpt><trkpt lat="40.343972982307065" lon="8.955370830959778"><ele>773.0</ele><time>2026-04-11T12:26:00Z</time></trkpt><trkpt lat="40.344134884912485" lon="8.955362620418718"><ele>770.6666666666667</ele><time>2026-04-11T12:26:01Z</time></trkpt><trkpt lat="40.344297050388896" lon="8.95537589047291"><ele>768.3333333333334</ele><time>2026-04-11T12:26:02Z</time></trkpt><trkpt lat="40.344458320123714" lon="8.95536538521139"><ele>766.0</ele><time>2026-04-11T12:26:03Z</time></trkpt><trkpt lat="40.34462165039797" lon="8.955333540543558"><ele>767.0</ele><time>2026-04-11T12:26:04Z</time></trkpt><trkpt lat="40.344789069910235" lon="8.95532550397643"><ele>768.0</ele><time>2026-04-11T12:26:05Z</time></trkpt><trkpt lat="40.34496075511625" lon="8.955315540899072"><ele>769.0</ele><time>2026-04-11T12:26:06Z</time></trkpt><trkpt lat="40.34513101810604" lon="8.955318717709718"><ele>769.0</ele><time>2026-04-11T12:26:07Z</time></trkpt><trkpt lat="40.34529914587672" lon="8.955277831240078"><ele>769.0</ele><time>2026-04-11T12:26:08Z</time></trkpt><trkpt lat="40.345459683871724" lon="8.955199712055485"><ele>769.0</ele><time>2026-04-11T12:26:09Z</time></trkpt><trkpt lat="40.34561645984029" lon="8.95510698718055"><ele>762.3333333333333</ele><time>2026-04-11T12:26:10Z</time></trkpt><trkpt lat="40.345772196805335" lon="8.955014485692613"><ele>755.6666666666666</ele><time>2026-04-11T12:26:11Z</time></trkpt><trkpt lat="40.345929195386205" lon="8.954924067296806"><ele>749.0</ele><time>2026-04-11T12:26:12Z</time></trkpt><trkpt lat="40.34607899946869" lon="8.954814683658501"><ele>749.0</ele><time>2026-04-11T12:26:13Z</time></trkpt><trkpt lat="40.34623525073337" lon="8.9547236163789"><ele>749.0</ele><time>2026-04-11T12:26:14Z</time></trkpt><trkpt lat="40.34639576348205" lon="8.954651806666257"><ele>749.0</ele><time>2026-04-11T12:26:15Z</time></trkpt><trkpt lat="40.34654572701005" lon="8.954567001834935"><ele>751.0</ele><time>2026-04-11T12:26:16Z</time></trkpt><trkpt lat="40.34669474507556" lon="8.954493238957944"><ele>753.0</ele><time>2026-04-11T12:26:17Z</time></trkpt><trkpt lat="40.34684223131931" lon="8.954416963952733"><ele>755.0</ele><time>2026-04-11T12:26:18Z</time></trkpt><trkpt lat="40.346992502015105" lon="8.954370981671163"><ele>755.0</ele><time>2026-04-11T12:26:19Z</time></trkpt><trkpt lat="40.34713970927514" lon="8.954314682072667"><ele>755.0</ele><time>2026-04-11T12:26:20Z</time></trkpt><trkpt lat="40.34729091334988" lon="8.954282654440252"><ele>755.0</ele><time>2026-04-11T12:26:21Z</time></trkpt><trkpt lat="40.34744051956816" lon="8.954230474419987"><ele>747.3333333333333</ele><time>2026-04-11T12:26:22Z</time></trkpt><trkpt lat="40.347591888295895" lon="8.95417708755299"><ele>739.6666666666666</ele><time>2026-04-11T12:26:23Z</time></trkpt><trkpt lat="40.34773948430671" lon="8.954106707266115"><ele>732.0</ele><time>2026-04-11T12:26:24Z</time></trkpt><trkpt lat="40.34789220363597" lon="8.954058025672012"><ele>735.0</ele><time>2026-04-11T12:26:25Z</time></trkpt><trkpt lat="40.34804387593675" lon="8.95400817159459"><ele>738.0</ele><time>2026-04-11T12:26:26Z</time></trkpt><trkpt lat="40.34819483322163" lon="8.95395170268408"><ele>741.0</ele><time>2026-04-11T12:26:27Z</time></trkpt><trkpt lat="40.348351541652626" lon="8.953912067987305"><ele>741.0</ele><time>2026-04-11T12:26:28Z</time></trkpt><trkpt lat="40.348503476757564" lon="8.953847291803507"><ele>741.0</ele><time>2026-04-11T12:26:29Z</time></trkpt><trkpt lat="40.348654338624584" lon="8.953771593642676"><ele>741.0</ele><time>2026-04-11T12:26:30Z</time></trkpt><trkpt lat="40.34880353563866" lon="8.953692020499904"><ele>744.6666666666666</ele><time>2026-04-11T12:26:31Z</time></trkpt><trkpt lat="40.348939716673264" lon="8.953598926094534"><ele>748.3333333333333</ele><time>2026-04-11T12:26:32Z</time></trkpt><trkpt lat="40.349074397304186" lon="8.953518067911864"><ele>752.0</ele><time>2026-04-11T12:26:33Z</time></trkpt><trkpt lat="40.349201769522196" lon="8.953418581674274"><ele>744.75</ele><time>2026-04-11T12:26:34Z</time></trkpt><trkpt lat="40.349273026481114" lon="8.953239695594803"><ele>737.5</ele><time>2026-04-11T12:26:35Z</time></trkpt><trkpt lat="40.349321931353224" lon="8.95305686687189"><ele>730.25</ele><time>2026-04-11T12:26:36Z</time></trkpt><trkpt lat="40.349396790018574" lon="8.95289352553421"><ele>723.0</ele><time>2026-04-11T12:26:37Z</time></trkpt><trkpt lat="40.34949308408857" lon="8.952759516416792"><ele>723.0</ele><time>2026-04-11T12:26:38Z</time></trkpt><trkpt lat="40.34960655393005" lon="8.952631689166218"><ele>723.0</ele><time>2026-04-11T12:26:39Z</time></trkpt><trkpt lat="40.349728854865525" lon="8.952507436062678"><ele>723.0</ele><time>2026-04-11T12:26:40Z</time></trkpt><trkpt lat="40.34986021386202" lon="8.952399225714524"><ele>722.0</ele><time>2026-04-11T12:26:41Z</time></trkpt><trkpt lat="40.350005830511726" lon="8.952310480310581"><ele>721.0</ele><time>2026-04-11T12:26:42Z</time></trkpt><trkpt lat="40.350158360722816" lon="8.952226893627394"><ele>720.0</ele><time>2026-04-11T12:26:43Z</time></trkpt><trkpt lat="40.35031352560676" lon="8.95214068786178"><ele>720.0</ele><time>2026-04-11T12:26:44Z</time></trkpt><trkpt lat="40.3504687866845" lon="8.952056743980517"><ele>720.0</ele><time>2026-04-11T12:26:45Z</time></trkpt><trkpt lat="40.35062511346592" lon="8.951964019867352"><ele>720.0</ele><time>2026-04-11T12:26:46Z</time></trkpt><trkpt lat="40.3507742017523" lon="8.951850144257651"><ele>715.3333333333334</ele><time>2026-04-11T12:26:47Z</time></trkpt><trkpt lat="40.35091584328071" lon="8.951728942893322"><ele>710.6666666666667</ele><time>2026-04-11T12:26:48Z</time></trkpt><trkpt lat="40.351055254323256" lon="8.951608014671187"><ele>706.0</ele><time>2026-04-11T12:26:49Z</time></trkpt><trkpt lat="40.351192395451385" lon="8.951484308311214"><ele>706.0</ele><time>2026-04-11T12:26:50Z</time></trkpt><trkpt lat="40.3513364193334" lon="8.951381368785885"><ele>706.0</ele><time>2026-04-11T12:26:51Z</time></trkpt><trkpt lat="40.35147979382555" lon="8.951277968432505"><ele>706.0</ele><time>2026-04-11T12:26:52Z</time></trkpt><trkpt lat="40.351620046989794" lon="8.951181042133607"><ele>712.3333333333334</ele><time>2026-04-11T12:26:53Z</time></trkpt><trkpt lat="40.351765235751735" lon="8.951099073872188"><ele>718.6666666666666</ele><time>2026-04-11T12:26:54Z</time></trkpt><trkpt lat="40.35191738737101" lon="8.951055593184089"><ele>725.0</ele><time>2026-04-11T12:26:55Z</time></trkpt><trkpt lat="40.352071250571306" lon="8.951006641603094"><ele>729.6666666666666</ele><time>2026-04-11T12:26:56Z</time></trkpt><trkpt lat="40.35222703687498" lon="8.950978796304613"><ele>734.3333333333334</ele><time>2026-04-11T12:26:57Z</time></trkpt><trkpt lat="40.35239158398744" lon="8.950966253068643"><ele>739.0</ele><time>2026-04-11T12:26:58Z</time></trkpt><trkpt lat="40.35255168542843" lon="8.950938789312557"><ele>739.0</ele><time>2026-04-11T12:26:59Z</time></trkpt><trkpt lat="40.352710936101126" lon="8.950923242276566"><ele>739.0</ele><time>2026-04-11T12:27:00Z</time></trkpt><trkpt lat="40.35286511390611" lon="8.95092293974195"><ele>739.0</ele><time>2026-04-11T12:27:01Z</time></trkpt><trkpt lat="40.35301435778378" lon="8.950941538980663"><ele>735.0</ele><time>2026-04-11T12:27:02Z</time></trkpt><trkpt lat="40.35315414357652" lon="8.950994508124973"><ele>731.0</ele><time>2026-04-11T12:27:03Z</time></trkpt><trkpt lat="40.35329331361402" lon="8.951046910834783"><ele>727.0</ele><time>2026-04-11T12:27:04Z</time></trkpt><trkpt lat="40.35344088689109" lon="8.951059874420652"><ele>723.0</ele><time>2026-04-11T12:27:05Z</time></trkpt><trkpt lat="40.35358452228574" lon="8.95104683597869"><ele>723.0</ele><time>2026-04-11T12:27:06Z</time></trkpt><trkpt lat="40.353719060919005" lon="8.951040028204368"><ele>723.0</ele><time>2026-04-11T12:27:07Z</time></trkpt><trkpt lat="40.3538456817367" lon="8.95106734235195"><ele>723.0</ele><time>2026-04-11T12:27:08Z</time></trkpt><trkpt lat="40.353966600656214" lon="8.951117072203932"><ele>723.0</ele><time>2026-04-11T12:27:09Z</time></trkpt><trkpt lat="40.354080623351734" lon="8.951196741612389"><ele>721.5</ele><time>2026-04-11T12:27:10Z</time></trkpt><trkpt lat="40.3541947332855" lon="8.951269143064334"><ele>720.0</ele><time>2026-04-11T12:27:11Z</time></trkpt><trkpt lat="40.35430800551051" lon="8.951346723606404"><ele>718.5</ele><time>2026-04-11T12:27:12Z</time></trkpt><trkpt lat="40.354436342740435" lon="8.951351661197144"><ele>717.0</ele><time>2026-04-11T12:27:13Z</time></trkpt><trkpt lat="40.35455841677275" lon="8.951289096408983"><ele>717.0</ele><time>2026-04-11T12:27:14Z</time></trkpt><trkpt lat="40.35465633799984" lon="8.951174578787494"><ele>717.0</ele><time>2026-04-11T12:27:15Z</time></trkpt><trkpt lat="40.35471384618551" lon="8.951018372441144"><ele>717.0</ele><time>2026-04-11T12:27:16Z</time></trkpt><trkpt lat="40.35473027691554" lon="8.950838717509173"><ele>717.0</ele><time>2026-04-11T12:27:17Z</time></trkpt><trkpt lat="40.35473588582695" lon="8.950660872288726"><ele>716.25</ele><time>2026-04-11T12:27:18Z</time></trkpt><trkpt lat="40.35474424535256" lon="8.950481916313457"><ele>715.5</ele><time>2026-04-11T12:27:19Z</time></trkpt><trkpt lat="40.354752553119894" lon="8.950286078909096"><ele>714.75</ele><time>2026-04-11T12:27:20Z</time></trkpt><trkpt lat="40.354733124941205" lon="8.950097468495866"><ele>714.0</ele><time>2026-04-11T12:27:21Z</time></trkpt><trkpt lat="40.35471756708929" lon="8.94991480425667"><ele>704.0</ele><time>2026-04-11T12:27:22Z</time></trkpt><trkpt lat="40.354695684433" lon="8.949734317265204"><ele>694.0</ele><time>2026-04-11T12:27:23Z</time></trkpt><trkpt lat="40.35464659844494" lon="8.949562554673877"><ele>684.0</ele><time>2026-04-11T12:27:24Z</time></trkpt><trkpt lat="40.35456781115342" lon="8.949404345772747"><ele>674.0</ele><time>2026-04-11T12:27:25Z</time></trkpt><trkpt lat="40.35446706244763" lon="8.949273666324743"><ele>676.25</ele><time>2026-04-11T12:27:26Z</time></trkpt><trkpt lat="40.354359334464" lon="8.949155769110181"><ele>678.5</ele><time>2026-04-11T12:27:27Z</time></trkpt><trkpt lat="40.35425023837242" lon="8.94903595158065"><ele>680.75</ele><time>2026-04-11T12:27:28Z</time></trkpt><trkpt lat="40.3541493454041" lon="8.948893326358856"><ele>683.0</ele><time>2026-04-11T12:27:29Z</time></trkpt><trkpt lat="40.3540278240104" lon="8.94876929528377"><ele>683.0</ele><time>2026-04-11T12:27:30Z</time></trkpt><trkpt lat="40.35388573731541" lon="8.948681494635506"><ele>683.0</ele><time>2026-04-11T12:27:31Z</time></trkpt><trkpt lat="40.35374140556849" lon="8.948600105678382"><ele>683.0</ele><time>2026-04-11T12:27:32Z</time></trkpt><trkpt lat="40.353593948719436" lon="8.94852805698201"><ele>681.0</ele><time>2026-04-11T12:27:33Z</time></trkpt><trkpt lat="40.35344958921197" lon="8.948450325045659"><ele>679.0</ele><time>2026-04-11T12:27:34Z</time></trkpt><trkpt lat="40.35330443397547" lon="8.948370825539659"><ele>677.0</ele><time>2026-04-11T12:27:35Z</time></trkpt><trkpt lat="40.35315751443814" lon="8.948295615544673"><ele>665.6666666666666</ele><time>2026-04-11T12:27:36Z</time></trkpt><trkpt lat="40.35301152464819" lon="8.948226096981518"><ele>654.3333333333334</ele><time>2026-04-11T12:27:37Z</time></trkpt><trkpt lat="40.35288429172249" lon="8.948118601701934"><ele>643.0</ele><time>2026-04-11T12:27:38Z</time></trkpt><trkpt lat="40.35276702445262" lon="8.94799527701949"><ele>643.0</ele><time>2026-04-11T12:27:39Z</time></trkpt><trkpt lat="40.35267296248488" lon="8.94784399647984"><ele>643.0</ele><time>2026-04-11T12:27:40Z</time></trkpt><trkpt lat="40.35260770531627" lon="8.947672338408392"><ele>643.0</ele><time>2026-04-11T12:27:41Z</time></trkpt><trkpt lat="40.352570823415604" lon="8.94749181429597"><ele>643.0</ele><time>2026-04-11T12:27:42Z</time></trkpt><trkpt lat="40.35254725190011" lon="8.947301012739013"><ele>648.0</ele><time>2026-04-11T12:27:43Z</time></trkpt><trkpt lat="40.35252324843822" lon="8.947107557579349"><ele>653.0</ele><time>2026-04-11T12:27:44Z</time></trkpt><trkpt lat="40.352499155209365" lon="8.946912958002974"><ele>658.0</ele><time>2026-04-11T12:27:45Z</time></trkpt><trkpt lat="40.35248168576363" lon="8.946717071080561"><ele>657.0</ele><time>2026-04-11T12:27:46Z</time></trkpt><trkpt lat="40.352482414236995" lon="8.946534766889075"><ele>656.0</ele><time>2026-04-11T12:27:47Z</time></trkpt><trkpt lat="40.352465430030804" lon="8.946376651531383"><ele>655.0</ele><time>2026-04-11T12:27:48Z</time></trkpt><trkpt lat="40.35237880112907" lon="8.946269639260782"><ele>654.0</ele><time>2026-04-11T12:27:49Z</time></trkpt><trkpt lat="40.35227768901995" lon="8.94622218500468"><ele>648.5</ele><time>2026-04-11T12:27:50Z</time></trkpt><trkpt lat="40.35217702719857" lon="8.946253365455577"><ele>643.0</ele><time>2026-04-11T12:27:51Z</time></trkpt><trkpt lat="40.35209929300023" lon="8.946358792456392"><ele>637.5</ele><time>2026-04-11T12:27:52Z</time></trkpt><trkpt lat="40.35206275003473" lon="8.94651042956441"><ele>632.0</ele><time>2026-04-11T12:27:53Z</time></trkpt><trkpt lat="40.352075427253425" lon="8.946684916300473"><ele>630.5</ele><time>2026-04-11T12:27:54Z</time></trkpt><trkpt lat="40.35211533985241" lon="8.946865217019765"><ele>629.0</ele><time>2026-04-11T12:27:55Z</time></trkpt><trkpt lat="40.352150392582665" lon="8.947042842861064"><ele>627.5</ele><time>2026-04-11T12:27:56Z</time></trkpt><trkpt lat="40.352181569294956" lon="8.94723138065144"><ele>626.0</ele><time>2026-04-11T12:27:57Z</time></trkpt><trkpt lat="40.35220693859116" lon="8.947424729953683"><ele>631.6666666666666</ele><time>2026-04-11T12:27:58Z</time></trkpt><trkpt lat="40.35223401219782" lon="8.947620404107198"><ele>637.3333333333334</ele><time>2026-04-11T12:27:59Z</time></trkpt><trkpt lat="40.352277136509606" lon="8.947810335941606"><ele>643.0</ele><time>2026-04-11T12:28:00Z</time></trkpt><trkpt lat="40.35233166903408" lon="8.947995394013686"><ele>643.0</ele><time>2026-04-11T12:28:01Z</time></trkpt><trkpt lat="40.35239463215856" lon="8.94817813396781"><ele>643.0</ele><time>2026-04-11T12:28:02Z</time></trkpt><trkpt lat="40.35248141222953" lon="8.948342085014268"><ele>643.0</ele><time>2026-04-11T12:28:03Z</time></trkpt><trkpt lat="40.35259431052621" lon="8.948478084438893"><ele>641.25</ele><time>2026-04-11T12:28:04Z</time></trkpt><trkpt lat="40.35271658389353" lon="8.948597428917166"><ele>639.5</ele><time>2026-04-11T12:28:05Z</time></trkpt><trkpt lat="40.35284331326612" lon="8.948697457563844"><ele>637.75</ele><time>2026-04-11T12:28:06Z</time></trkpt><trkpt lat="40.35297073524906" lon="8.948771328503787"><ele>636.0</ele><time>2026-04-11T12:28:07Z</time></trkpt><trkpt lat="40.353085224352135" lon="8.948840138775394"><ele>639.2</ele><time>2026-04-11T12:28:08Z</time></trkpt><trkpt lat="40.35318076498574" lon="8.948930872958655"><ele>642.4000000000001</ele><time>2026-04-11T12:28:09Z</time></trkpt><trkpt lat="40.35324097431042" lon="8.949052853927427"><ele>645.6</ele><time>2026-04-11T12:28:10Z</time></trkpt><trkpt lat="40.35326185745341" lon="8.949185111531884"><ele>648.8000000000001</ele><time>2026-04-11T12:28:11Z</time></trkpt><trkpt lat="40.35325095291238" lon="8.949311657750172"><ele>652.0</ele><time>2026-04-11T12:28:12Z</time></trkpt><trkpt lat="40.353209589266" lon="8.94941851893491"><ele>653.6</ele><time>2026-04-11T12:28:13Z</time></trkpt><trkpt lat="40.35314129475586" lon="8.949500221009295"><ele>655.2</ele><time>2026-04-11T12:28:14Z</time></trkpt><trkpt lat="40.35304978691721" lon="8.94954952848588"><ele>656.8</ele><time>2026-04-11T12:28:15Z</time></trkpt><trkpt lat="40.352942621110934" lon="8.949563560798024"><ele>658.4</ele><time>2026-04-11T12:28:16Z</time></trkpt><trkpt lat="40.352828893821375" lon="8.949553474593943"><ele>660.0</ele><time>2026-04-11T12:28:17Z</time></trkpt><trkpt lat="40.352710584872014" lon="8.949526702205096"><ele>660.25</ele><time>2026-04-11T12:28:18Z</time></trkpt><trkpt lat="40.352581992245405" lon="8.949494783526422"><ele>660.5</ele><time>2026-04-11T12:28:19Z</time></trkpt><trkpt lat="40.35245793481176" lon="8.949472072461182"><ele>660.75</ele><time>2026-04-11T12:28:20Z</time></trkpt><trkpt lat="40.35232842296507" lon="8.94942370627888"><ele>661.0</ele><time>2026-04-11T12:28:21Z</time></trkpt><trkpt lat="40.35218681911546" lon="8.949412346207541"><ele>660.0</ele><time>2026-04-11T12:28:22Z</time></trkpt><trkpt lat="40.35204238005418" lon="8.949379863573828"><ele>659.0</ele><time>2026-04-11T12:28:23Z</time></trkpt><trkpt lat="40.35189215897077" lon="8.94935014894581"><ele>658.0</ele><time>2026-04-11T12:28:24Z</time></trkpt><trkpt lat="40.35173895762767" lon="8.94931376765121"><ele>658.0</ele><time>2026-04-11T12:28:25Z</time></trkpt><trkpt lat="40.351581564573635" lon="8.949277823496969"><ele>658.0</ele><time>2026-04-11T12:28:26Z</time></trkpt><trkpt lat="40.351418665593435" lon="8.949247669197788"><ele>658.0</ele><time>2026-04-11T12:28:27Z</time></trkpt><trkpt lat="40.35125901140076" lon="8.94921732760349"><ele>647.0</ele><time>2026-04-11T12:28:28Z</time></trkpt><trkpt lat="40.35109947854102" lon="8.949183205513147"><ele>636.0</ele><time>2026-04-11T12:28:29Z</time></trkpt><trkpt lat="40.35094113234179" lon="8.949143766536247"><ele>625.0</ele><time>2026-04-11T12:28:30Z</time></trkpt><trkpt lat="40.350782800012034" lon="8.949133996459828"><ele>625.0</ele><time>2026-04-11T12:28:31Z</time></trkpt><trkpt lat="40.35062577540027" lon="8.949097784942795"><ele>625.0</ele><time>2026-04-11T12:28:32Z</time></trkpt><trkpt lat="40.350467838583846" lon="8.94906593352179"><ele>625.0</ele><time>2026-04-11T12:28:33Z</time></trkpt><trkpt lat="40.35031081037408" lon="8.949038508426014"><ele>623.6666666666667</ele><time>2026-04-11T12:28:34Z</time></trkpt><trkpt lat="40.350148304232235" lon="8.949013448425806"><ele>622.3333333333334</ele><time>2026-04-11T12:28:35Z</time></trkpt><trkpt lat="40.34998820365545" lon="8.948990454754338"><ele>621.0</ele><time>2026-04-11T12:28:36Z</time></trkpt><trkpt lat="40.349824525391924" lon="8.948976949988491"><ele>617.3333333333334</ele><time>2026-04-11T12:28:37Z</time></trkpt><trkpt lat="40.34965864060035" lon="8.948970138657815"><ele>613.6666666666667</ele><time>2026-04-11T12:28:38Z</time></trkpt><trkpt lat="40.34949138129686" lon="8.948966349329309"><ele>610.0</ele><time>2026-04-11T12:28:39Z</time></trkpt><trkpt lat="40.34932576922164" lon="8.948971593627295"><ele>610.0</ele><time>2026-04-11T12:28:40Z</time></trkpt><trkpt lat="40.34915582621341" lon="8.948990352048071"><ele>610.0</ele><time>2026-04-11T12:28:41Z</time></trkpt><trkpt lat="40.3489941411247" lon="8.94905118414014"><ele>610.0</ele><time>2026-04-11T12:28:42Z</time></trkpt><trkpt lat="40.34884168088363" lon="8.949152913459056"><ele>610.3333333333334</ele><time>2026-04-11T12:28:43Z</time></trkpt><trkpt lat="40.34869384637415" lon="8.949263320551323"><ele>610.6666666666666</ele><time>2026-04-11T12:28:44Z</time></trkpt><trkpt lat="40.3485395970358" lon="8.949368123491414"><ele>611.0</ele><time>2026-04-11T12:28:45Z</time></trkpt><trkpt lat="40.34838611543674" lon="8.949477784582054"><ele>611.0</ele><time>2026-04-11T12:28:46Z</time></trkpt><trkpt lat="40.34823159270701" lon="8.949590535979613"><ele>611.0</ele><time>2026-04-11T12:28:47Z</time></trkpt><trkpt lat="40.34807306643384" lon="8.949686664443082"><ele>611.0</ele><time>2026-04-11T12:28:48Z</time></trkpt><trkpt lat="40.347902913095055" lon="8.94975021366227"><ele>607.6666666666666</ele><time>2026-04-11T12:28:49Z</time></trkpt><trkpt lat="40.34772833456165" lon="8.949790745648054"><ele>604.3333333333334</ele><time>2026-04-11T12:28:50Z</time></trkpt><trkpt lat="40.34755320720055" lon="8.949823181556402"><ele>601.0</ele><time>2026-04-11T12:28:51Z</time></trkpt><trkpt lat="40.347375760097684" lon="8.949855316090309"><ele>598.0</ele><time>2026-04-11T12:28:52Z</time></trkpt><trkpt lat="40.34720492770576" lon="8.949899860128623"><ele>595.0</ele><time>2026-04-11T12:28:53Z</time></trkpt><trkpt lat="40.34704606667935" lon="8.949974039226708"><ele>592.0</ele><time>2026-04-11T12:28:54Z</time></trkpt><trkpt lat="40.346892540798414" lon="8.950060989699628"><ele>599.0</ele><time>2026-04-11T12:28:55Z</time></trkpt><trkpt lat="40.34673600258785" lon="8.950115861015576"><ele>606.0</ele><time>2026-04-11T12:28:56Z</time></trkpt><trkpt lat="40.34657102508036" lon="8.950122092556262"><ele>613.0</ele><time>2026-04-11T12:28:57Z</time></trkpt><trkpt lat="40.346432820031296" lon="8.950044704984489"><ele>605.0</ele><time>2026-04-11T12:28:58Z</time></trkpt><trkpt lat="40.34627302307995" lon="8.950000716132822"><ele>597.0</ele><time>2026-04-11T12:28:59Z</time></trkpt><trkpt lat="40.346119610018704" lon="8.949933090945533"><ele>589.0</ele><time>2026-04-11T12:29:00Z</time></trkpt><trkpt lat="40.345966405325505" lon="8.949866854805713"><ele>589.0</ele><time>2026-04-11T12:29:01Z</time></trkpt><trkpt lat="40.34581428142223" lon="8.949802757858713"><ele>589.0</ele><time>2026-04-11T12:29:02Z</time></trkpt><trkpt lat="40.345663909475434" lon="8.949777516791155"><ele>589.0</ele><time>2026-04-11T12:29:03Z</time></trkpt><trkpt lat="40.34551025208762" lon="8.94981680074991"><ele>591.0</ele><time>2026-04-11T12:29:04Z</time></trkpt><trkpt lat="40.34535955196271" lon="8.949903663920997"><ele>593.0</ele><time>2026-04-11T12:29:05Z</time></trkpt><trkpt lat="40.345210916504776" lon="8.950007797092399"><ele>595.0</ele><time>2026-04-11T12:29:06Z</time></trkpt><trkpt lat="40.34505791969886" lon="8.950103385054163"><ele>595.0</ele><time>2026-04-11T12:29:07Z</time></trkpt><trkpt lat="40.34490295692541" lon="8.950200826001796"><ele>595.0</ele><time>2026-04-11T12:29:08Z</time></trkpt><trkpt lat="40.344751167915646" lon="8.950299148047577"><ele>595.0</ele><time>2026-04-11T12:29:09Z</time></trkpt><trkpt lat="40.3446029819632" lon="8.95039930892762"><ele>591.6666666666667</ele><time>2026-04-11T12:29:10Z</time></trkpt><trkpt lat="40.34445732090407" lon="8.950490543202186"><ele>588.3333333333334</ele><time>2026-04-11T12:29:11Z</time></trkpt><trkpt lat="40.34431520471529" lon="8.950560516991395"><ele>585.0</ele><time>2026-04-11T12:29:12Z</time></trkpt><trkpt lat="40.344179496290735" lon="8.950583858448242"><ele>585.0</ele><time>2026-04-11T12:29:13Z</time></trkpt><trkpt lat="40.34406394121528" lon="8.950503354153698"><ele>585.0</ele><time>2026-04-11T12:29:14Z</time></trkpt><trkpt lat="40.343970858972554" lon="8.950391554530277"><ele>585.0</ele><time>2026-04-11T12:29:15Z</time></trkpt><trkpt lat="40.34384766289673" lon="8.950287313177128"><ele>585.0</ele><time>2026-04-11T12:29:16Z</time></trkpt><trkpt lat="40.34372858335296" lon="8.950180966219543"><ele>586.0</ele><time>2026-04-11T12:29:17Z</time></trkpt><trkpt lat="40.34359008664113" lon="8.950114383849757"><ele>587.0</ele><time>2026-04-11T12:29:18Z</time></trkpt><trkpt lat="40.343435814736374" lon="8.95009817931686"><ele>588.0</ele><time>2026-04-11T12:29:19Z</time></trkpt><trkpt lat="40.34327724186765" lon="8.950105459125938"><ele>588.0</ele><time>2026-04-11T12:29:20Z</time></trkpt><trkpt lat="40.34311457803694" lon="8.950104513721891"><ele>588.0</ele><time>2026-04-11T12:29:21Z</time></trkpt><trkpt lat="40.34295695396272" lon="8.95012112333542"><ele>588.0</ele><time>2026-04-11T12:29:22Z</time></trkpt><trkpt lat="40.34280400113159" lon="8.950171212500052"><ele>582.6666666666666</ele><time>2026-04-11T12:29:23Z</time></trkpt><trkpt lat="40.34265207182242" lon="8.950234245655341"><ele>577.3333333333333</ele><time>2026-04-11T12:29:24Z</time></trkpt><trkpt lat="40.342499403109926" lon="8.950284796782519"><ele>572.0</ele><time>2026-04-11T12:29:25Z</time></trkpt><trkpt lat="40.34234288550251" lon="8.950307934226124"><ele>572.0</ele><time>2026-04-11T12:29:26Z</time></trkpt><trkpt lat="40.34219175431323" lon="8.9502551666554"><ele>572.0</ele><time>2026-04-11T12:29:27Z</time></trkpt><trkpt lat="40.342055660889464" lon="8.950155595681474"><ele>572.0</ele><time>2026-04-11T12:29:28Z</time></trkpt><trkpt lat="40.34190568450315" lon="8.95007835562117"><ele>564.3333333333333</ele><time>2026-04-11T12:29:29Z</time></trkpt><trkpt lat="40.3417594587402" lon="8.949980055098417"><ele>556.6666666666666</ele><time>2026-04-11T12:29:30Z</time></trkpt><trkpt lat="40.34160473866128" lon="8.94990189462387"><ele>549.0</ele><time>2026-04-11T12:29:31Z</time></trkpt><trkpt lat="40.3414521491577" lon="8.949823108983887"><ele>547.6666666666666</ele><time>2026-04-11T12:29:32Z</time></trkpt><trkpt lat="40.341304765663864" lon="8.949741086720012"><ele>546.3333333333333</ele><time>2026-04-11T12:29:33Z</time></trkpt><trkpt lat="40.34115540679893" lon="8.949682501297664"><ele>545.0</ele><time>2026-04-11T12:29:34Z</time></trkpt><trkpt lat="40.340998956567766" lon="8.949680611356962"><ele>545.0</ele><time>2026-04-11T12:29:35Z</time></trkpt><trkpt lat="40.3408385849556" lon="8.949724213389908"><ele>545.0</ele><time>2026-04-11T12:29:36Z</time></trkpt><trkpt lat="40.340677517909995" lon="8.949765696155922"><ele>545.0</ele><time>2026-04-11T12:29:37Z</time></trkpt><trkpt lat="40.34051433187687" lon="8.949796833208868"><ele>541.0</ele><time>2026-04-11T12:29:38Z</time></trkpt><trkpt lat="40.34034882690355" lon="8.949825564867401"><ele>537.0</ele><time>2026-04-11T12:29:39Z</time></trkpt><trkpt lat="40.34018689705728" lon="8.949856545832382"><ele>533.0</ele><time>2026-04-11T12:29:40Z</time></trkpt><trkpt lat="40.34002314738833" lon="8.949884336682297"><ele>533.0</ele><time>2026-04-11T12:29:41Z</time></trkpt><trkpt lat="40.33986638612968" lon="8.949904785118902"><ele>533.0</ele><time>2026-04-11T12:29:42Z</time></trkpt><trkpt lat="40.33971858831453" lon="8.949941573647893"><ele>533.0</ele><time>2026-04-11T12:29:43Z</time></trkpt><trkpt lat="40.33957519316314" lon="8.950002527457857"><ele>538.6666666666666</ele><time>2026-04-11T12:29:44Z</time></trkpt><trkpt lat="40.33943527182403" lon="8.950081983962807"><ele>544.3333333333334</ele><time>2026-04-11T12:29:45Z</time></trkpt><trkpt lat="40.339292920643366" lon="8.95017454054178"><ele>550.0</ele><time>2026-04-11T12:29:46Z</time></trkpt><trkpt lat="40.33915109087036" lon="8.950269693603698"><ele>550.0</ele><time>2026-04-11T12:29:47Z</time></trkpt><trkpt lat="40.339012539284504" lon="8.950363723831034"><ele>550.0</ele><time>2026-04-11T12:29:48Z</time></trkpt><trkpt lat="40.33887425229341" lon="8.950456379433586"><ele>550.0</ele><time>2026-04-11T12:29:49Z</time></trkpt><trkpt lat="40.33874099178923" lon="8.950550373020857"><ele>544.5</ele><time>2026-04-11T12:29:50Z</time></trkpt><trkpt lat="40.33860896947827" lon="8.950631422997214"><ele>539.0</ele><time>2026-04-11T12:29:51Z</time></trkpt><trkpt lat="40.338463002854446" lon="8.9506737900149"><ele>533.5</ele><time>2026-04-11T12:29:52Z</time></trkpt><trkpt lat="40.338309754181836" lon="8.950682023060995"><ele>528.0</ele><time>2026-04-11T12:29:53Z</time></trkpt><trkpt lat="40.338152205100585" lon="8.950693192905417"><ele>522.6666666666666</ele><time>2026-04-11T12:29:54Z</time></trkpt><trkpt lat="40.337993806098986" lon="8.950713087215163"><ele>517.3333333333333</ele><time>2026-04-11T12:29:55Z</time></trkpt><trkpt lat="40.3378330634754" lon="8.950732102662124"><ele>512.0</ele><time>2026-04-11T12:29:56Z</time></trkpt><trkpt lat="40.33767311895609" lon="8.950751846979307"><ele>512.0</ele><time>2026-04-11T12:29:57Z</time></trkpt><trkpt lat="40.33751724338504" lon="8.950789466043638"><ele>512.0</ele><time>2026-04-11T12:29:58Z</time></trkpt><trkpt lat="40.337365079509" lon="8.950854504318986"><ele>512.0</ele><time>2026-04-11T12:29:59Z</time></trkpt><trkpt lat="40.33721732517846" lon="8.950939596279156"><ele>519.0</ele><time>2026-04-11T12:30:00Z</time></trkpt><trkpt lat="40.33706774330434" lon="8.95101613903472"><ele>526.0</ele><time>2026-04-11T12:30:01Z</time></trkpt><trkpt lat="40.33691027488612" lon="8.951072339054466"><ele>533.0</ele><time>2026-04-11T12:30:02Z</time></trkpt><trkpt lat="40.3367519041944" lon="8.951100392633853"><ele>533.0</ele><time>2026-04-11T12:30:03Z</time></trkpt><trkpt lat="40.33658903949774" lon="8.951107213636016"><ele>533.0</ele><time>2026-04-11T12:30:04Z</time></trkpt><trkpt lat="40.33642684099851" lon="8.951101178858258"><ele>533.0</ele><time>2026-04-11T12:30:05Z</time></trkpt><trkpt lat="40.336262818531694" lon="8.951095320169545"><ele>528.0</ele><time>2026-04-11T12:30:06Z</time></trkpt><trkpt lat="40.33609459439753" lon="8.951097918408218"><ele>523.0</ele><time>2026-04-11T12:30:07Z</time></trkpt><trkpt lat="40.3359281092239" lon="8.951116491202725"><ele>518.0</ele><time>2026-04-11T12:30:08Z</time></trkpt><trkpt lat="40.33577230564975" lon="8.951183106196599"><ele>518.0</ele><time>2026-04-11T12:30:09Z</time></trkpt><trkpt lat="40.33562602508598" lon="8.951294316124226"><ele>518.0</ele><time>2026-04-11T12:30:10Z</time></trkpt><trkpt lat="40.335483139765415" lon="8.951414859360726"><ele>518.0</ele><time>2026-04-11T12:30:11Z</time></trkpt><trkpt lat="40.3353352278109" lon="8.95153100171241"><ele>521.0</ele><time>2026-04-11T12:30:12Z</time></trkpt><trkpt lat="40.335185291341425" lon="8.95164278333539"><ele>524.0</ele><time>2026-04-11T12:30:13Z</time></trkpt><trkpt lat="40.33503489843589" lon="8.951760658069755"><ele>527.0</ele><time>2026-04-11T12:30:14Z</time></trkpt><trkpt lat="40.33488574547547" lon="8.951881063290443"><ele>527.0</ele><time>2026-04-11T12:30:15Z</time></trkpt><trkpt lat="40.33473955369191" lon="8.951998454492681"><ele>527.0</ele><time>2026-04-11T12:30:16Z</time></trkpt><trkpt lat="40.33459340775319" lon="8.952111174863559"><ele>527.0</ele><time>2026-04-11T12:30:17Z</time></trkpt><trkpt lat="40.33445181064256" lon="8.952210777027057"><ele>517.6666666666666</ele><time>2026-04-11T12:30:18Z</time></trkpt><trkpt lat="40.33430628855083" lon="8.952288681540049"><ele>508.33333333333337</ele><time>2026-04-11T12:30:19Z</time></trkpt><trkpt lat="40.334152774151335" lon="8.952329322046916"><ele>499.0</ele><time>2026-04-11T12:30:20Z</time></trkpt><trkpt lat="40.333994136881145" lon="8.952342406640955"><ele>494.6666666666667</ele><time>2026-04-11T12:30:21Z</time></trkpt><trkpt lat="40.33383466129798" lon="8.952358739989563"><ele>490.33333333333337</ele><time>2026-04-11T12:30:22Z</time></trkpt><trkpt lat="40.33367496536933" lon="8.952378334766085"><ele>486.0</ele><time>2026-04-11T12:30:23Z</time></trkpt><trkpt lat="40.33351087884463" lon="8.952395162536884"><ele>486.0</ele><time>2026-04-11T12:30:24Z</time></trkpt><trkpt lat="40.3333492990409" lon="8.952410393967245"><ele>486.0</ele><time>2026-04-11T12:30:25Z</time></trkpt><trkpt lat="40.333194986388925" lon="8.952441983668056"><ele>486.0</ele><time>2026-04-11T12:30:26Z</time></trkpt><trkpt lat="40.33305034966782" lon="8.952508711513902"><ele>491.0</ele><time>2026-04-11T12:30:27Z</time></trkpt><trkpt lat="40.332915650689046" lon="8.952590200836658"><ele>496.0</ele><time>2026-04-11T12:30:28Z</time></trkpt><trkpt lat="40.3327868801719" lon="8.952671187852339"><ele>501.0</ele><time>2026-04-11T12:30:29Z</time></trkpt><trkpt lat="40.332660390393414" lon="8.952744254843784"><ele>506.0</ele><time>2026-04-11T12:30:30Z</time></trkpt><trkpt lat="40.33253815559408" lon="8.952822367363206"><ele>506.0</ele><time>2026-04-11T12:30:31Z</time></trkpt><trkpt lat="40.33241831091359" lon="8.952899104702585"><ele>506.0</ele><time>2026-04-11T12:30:32Z</time></trkpt><trkpt lat="40.33229751300421" lon="8.952966409152234"><ele>506.0</ele><time>2026-04-11T12:30:33Z</time></trkpt><trkpt lat="40.332174206159365" lon="8.953025338857842"><ele>506.0</ele><time>2026-04-11T12:30:34Z</time></trkpt><trkpt lat="40.33204939218251" lon="8.95307895692674"><ele>499.75</ele><time>2026-04-11T12:30:35Z</time></trkpt><trkpt lat="40.33192362011144" lon="8.953134182157566"><ele>493.5</ele><time>2026-04-11T12:30:36Z</time></trkpt><trkpt lat="40.33179470928627" lon="8.953189460376407"><ele>487.25</ele><time>2026-04-11T12:30:37Z</time></trkpt><trkpt lat="40.331667071890045" lon="8.953252623946309"><ele>481.0</ele><time>2026-04-11T12:30:38Z</time></trkpt><trkpt lat="40.33153799077183" lon="8.953322308360708"><ele>483.75</ele><time>2026-04-11T12:30:39Z</time></trkpt><trkpt lat="40.33140513177769" lon="8.953385300849767"><ele>486.5</ele><time>2026-04-11T12:30:40Z</time></trkpt><trkpt lat="40.331274141776085" lon="8.953440531802839"><ele>489.25</ele><time>2026-04-11T12:30:41Z</time></trkpt><trkpt lat="40.33115053777665" lon="8.95348922225067"><ele>492.0</ele><time>2026-04-11T12:30:42Z</time></trkpt><trkpt lat="40.331033798447386" lon="8.953530188103684"><ele>492.0</ele><time>2026-04-11T12:30:43Z</time></trkpt><trkpt lat="40.330914259032284" lon="8.953564519912906"><ele>492.0</ele><time>2026-04-11T12:30:44Z</time></trkpt><trkpt lat="40.330797176665904" lon="8.95358912894661"><ele>492.0</ele><time>2026-04-11T12:30:45Z</time></trkpt><trkpt lat="40.33068036296959" lon="8.953604109466275"><ele>492.0</ele><time>2026-04-11T12:30:46Z</time></trkpt><trkpt lat="40.330564387368625" lon="8.953611542936946"><ele>489.0</ele><time>2026-04-11T12:30:47Z</time></trkpt><trkpt lat="40.33044851609554" lon="8.953615833436178"><ele>486.0</ele><time>2026-04-11T12:30:48Z</time></trkpt><trkpt lat="40.33033462464649" lon="8.95361673251319"><ele>483.0</ele><time>2026-04-11T12:30:49Z</time></trkpt><trkpt lat="40.33022090812788" lon="8.953613288872091"><ele>480.0</ele><time>2026-04-11T12:30:50Z</time></trkpt><trkpt lat="40.33010821738827" lon="8.953609399006256"><ele>480.0</ele><time>2026-04-11T12:30:51Z</time></trkpt><trkpt lat="40.32999724428551" lon="8.953611849570393"><ele>480.0</ele><time>2026-04-11T12:30:52Z</time></trkpt><trkpt lat="40.329888420659834" lon="8.95363271281646"><ele>480.0</ele><time>2026-04-11T12:30:53Z</time></trkpt><trkpt lat="40.329783162809264" lon="8.953676049493962"><ele>480.0</ele><time>2026-04-11T12:30:54Z</time></trkpt><trkpt lat="40.329685278234415" lon="8.95374346181603"><ele>480.0</ele><time>2026-04-11T12:30:55Z</time></trkpt><trkpt lat="40.329592834161986" lon="8.953822395575227"><ele>476.4</ele><time>2026-04-11T12:30:56Z</time></trkpt><trkpt lat="40.32950251292276" lon="8.953902338899711"><ele>472.8</ele><time>2026-04-11T12:30:57Z</time></trkpt><trkpt lat="40.32941243005345" lon="8.953980342164195"><ele>469.20000000000005</ele><time>2026-04-11T12:30:58Z</time></trkpt><trkpt lat="40.32932102357054" lon="8.954052156637557"><ele>465.6</ele><time>2026-04-11T12:30:59Z</time></trkpt><trkpt lat="40.32922767738446" lon="8.954117420805725"><ele>462.0</ele><time>2026-04-11T12:31:00Z</time></trkpt><trkpt lat="40.32913233965665" lon="8.954177348057103"><ele>461.40000000000003</ele><time>2026-04-11T12:31:01Z</time></trkpt><trkpt lat="40.329033827048356" lon="8.954231679621692"><ele>460.80000000000007</ele><time>2026-04-11T12:31:02Z</time></trkpt><trkpt lat="40.328934180744085" lon="8.954279605427255"><ele>460.2</ele><time>2026-04-11T12:31:03Z</time></trkpt><trkpt lat="40.32883468212658" lon="8.954324272338148"><ele>459.6</ele><time>2026-04-11T12:31:04Z</time></trkpt><trkpt lat="40.328734731857146" lon="8.954369439209874"><ele>459.0</ele><time>2026-04-11T12:31:05Z</time></trkpt><trkpt lat="40.328638507611316" lon="8.95441294317807"><ele>459.0</ele><time>2026-04-11T12:31:06Z</time></trkpt><trkpt lat="40.32854236054245" lon="8.954447990105873"><ele>459.0</ele><time>2026-04-11T12:31:07Z</time></trkpt><trkpt lat="40.328445562364294" lon="8.954477143228962"><ele>459.0</ele><time>2026-04-11T12:31:08Z</time></trkpt><trkpt lat="40.328351781514556" lon="8.95450814211937"><ele>459.0</ele><time>2026-04-11T12:31:09Z</time></trkpt><trkpt lat="40.328258237623736" lon="8.954545540954536"><ele>459.0</ele><time>2026-04-11T12:31:10Z</time></trkpt><trkpt lat="40.32817689056502" lon="8.954601490823205"><ele>459.0</ele><time>2026-04-11T12:31:11Z</time></trkpt><trkpt lat="40.32811452802357" lon="8.954677148099437"><ele>459.0</ele><time>2026-04-11T12:31:12Z</time></trkpt><trkpt lat="40.3280816158448" lon="8.954789567483584"><ele>459.0</ele><time>2026-04-11T12:31:13Z</time></trkpt><trkpt lat="40.32807180543779" lon="8.954904164858007"><ele>459.0</ele><time>2026-04-11T12:31:14Z</time></trkpt><trkpt lat="40.32805771605105" lon="8.95502252795915"><ele>459.0</ele><time>2026-04-11T12:31:15Z</time></trkpt><trkpt lat="40.328033968149015" lon="8.95513174743616"><ele>459.0</ele><time>2026-04-11T12:31:16Z</time></trkpt><trkpt lat="40.3280024695304" lon="8.955241418980647"><ele>455.2</ele><time>2026-04-11T12:31:17Z</time></trkpt><trkpt lat="40.32796341757728" lon="8.955346365821278"><ele>451.4</ele><time>2026-04-11T12:31:18Z</time></trkpt><trkpt lat="40.32791615609982" lon="8.955449235530985"><ele>447.6</ele><time>2026-04-11T12:31:19Z</time></trkpt><trkpt lat="40.32786529999604" lon="8.95555133606966"><ele>443.8</ele><time>2026-04-11T12:31:20Z</time></trkpt><trkpt lat="40.32780925489838" lon="8.955650049497873"><ele>440.0</ele><time>2026-04-11T12:31:21Z</time></trkpt><trkpt lat="40.32775269730043" lon="8.955750209504348"><ele>440.0</ele><time>2026-04-11T12:31:22Z</time></trkpt><trkpt lat="40.3277001147316" lon="8.95585667750719"><ele>440.0</ele><time>2026-04-11T12:31:23Z</time></trkpt><trkpt lat="40.327648127991445" lon="8.95596481647903"><ele>440.0</ele><time>2026-04-11T12:31:24Z</time></trkpt><trkpt lat="40.32759210184675" lon="8.956073322278842"><ele>440.0</ele><time>2026-04-11T12:31:25Z</time></trkpt><trkpt lat="40.32753981312629" lon="8.956186682187553"><ele>440.0</ele><time>2026-04-11T12:31:26Z</time></trkpt><trkpt lat="40.32749786029562" lon="8.956310643037519"><ele>440.2</ele><time>2026-04-11T12:31:27Z</time></trkpt><trkpt lat="40.32746846005657" lon="8.956441251151537"><ele>440.4</ele><time>2026-04-11T12:31:28Z</time></trkpt><trkpt lat="40.327452521082954" lon="8.956577631178048"><ele>440.6</ele><time>2026-04-11T12:31:29Z</time></trkpt><trkpt lat="40.327460135384676" lon="8.956716095609902"><ele>440.8</ele><time>2026-04-11T12:31:30Z</time></trkpt><trkpt lat="40.32749477942928" lon="8.956849909345914"><ele>441.0</ele><time>2026-04-11T12:31:31Z</time></trkpt><trkpt lat="40.32754140670951" lon="8.956975948081855"><ele>441.20000000000005</ele><time>2026-04-11T12:31:32Z</time></trkpt><trkpt lat="40.32758880263734" lon="8.957101773122124"><ele>441.40000000000003</ele><time>2026-04-11T12:31:33Z</time></trkpt><trkpt lat="40.3276357819825" lon="8.957225522712111"><ele>441.6</ele><time>2026-04-11T12:31:34Z</time></trkpt><trkpt lat="40.32768490497796" lon="8.957344511223873"><ele>441.8</ele><time>2026-04-11T12:31:35Z</time></trkpt><trkpt lat="40.3277235129512" lon="8.957465588712513"><ele>442.0</ele><time>2026-04-11T12:31:36Z</time></trkpt><trkpt lat="40.32777850385467" lon="8.957566957318846"><ele>444.6666666666667</ele><time>2026-04-11T12:31:37Z</time></trkpt><trkpt lat="40.32784637592873" lon="8.957637340767533"><ele>447.33333333333337</ele><time>2026-04-11T12:31:38Z</time></trkpt><trkpt lat="40.327884441990435" lon="8.95772175033671"><ele>450.0</ele><time>2026-04-11T12:31:39Z</time></trkpt><trkpt lat="40.327910177030965" lon="8.957799393809216"><ele>452.66666666666663</ele><time>2026-04-11T12:31:40Z</time></trkpt><trkpt lat="40.32791243204268" lon="8.957931046093284"><ele>455.3333333333333</ele><time>2026-04-11T12:31:42Z</time></trkpt><trkpt lat="40.327868195898965" lon="8.95803091853497"><ele>458.0</ele><time>2026-04-11T12:31:44Z</time></trkpt><trkpt lat="40.327833013877395" lon="8.958118454779163"><ele>457.99999999999994</ele><time>2026-04-11T12:31:46Z</time></trkpt><trkpt lat="40.32776371258313" lon="8.958226675769792"><ele>458.0</ele><time>2026-04-11T12:31:48Z</time></trkpt><trkpt lat="40.327710490797756" lon="8.958276358227375"><ele>458.0</ele><time>2026-04-11T12:31:49Z</time></trkpt><trkpt lat="40.327644992210196" lon="8.958315319742818"><ele>458.0</ele><time>2026-04-11T12:31:50Z</time></trkpt><trkpt lat="40.32757043433324" lon="8.958337595584526"><ele>457.99999999999994</ele><time>2026-04-11T12:31:51Z</time></trkpt><trkpt lat="40.32749054669779" lon="8.958337156428398"><ele>458.0</ele><time>2026-04-11T12:31:52Z</time></trkpt><trkpt lat="40.32740870968467" lon="8.958315185859176"><ele>458.0</ele><time>2026-04-11T12:31:53Z</time></trkpt><trkpt lat="40.32732980681965" lon="8.958274344560234"><ele>457.99999999999994</ele><time>2026-04-11T12:31:54Z</time></trkpt><trkpt lat="40.327244296773124" lon="8.958224800794216"><ele>457.99999999999994</ele><time>2026-04-11T12:31:55Z</time></trkpt><trkpt lat="40.327154610776525" lon="8.958181898090887"><ele>458.0</ele><time>2026-04-11T12:31:56Z</time></trkpt><trkpt lat="40.32706363346644" lon="8.95816041053095"><ele>458.0</ele><time>2026-04-11T12:31:57Z</time></trkpt><trkpt lat="40.32697114230346" lon="8.958156921198494"><ele>456.79999999999995</ele><time>2026-04-11T12:31:58Z</time></trkpt><trkpt lat="40.32688157991251" lon="8.958170540143596"><ele>455.59999999999997</ele><time>2026-04-11T12:31:59Z</time></trkpt><trkpt lat="40.326797192019775" lon="8.958214952331705"><ele>454.40000000000003</ele><time>2026-04-11T12:32:00Z</time></trkpt><trkpt lat="40.32671793699042" lon="8.958278383217342"><ele>453.20000000000005</ele><time>2026-04-11T12:32:01Z</time></trkpt><trkpt lat="40.3266341448063" lon="8.958326222168893"><ele>452.0</ele><time>2026-04-11T12:32:02Z</time></trkpt><trkpt lat="40.32654382070124" lon="8.958355689801813"><ele>450.0</ele><time>2026-04-11T12:32:03Z</time></trkpt><trkpt lat="40.3264592797793" lon="8.958407180413964"><ele>448.00000000000006</ele><time>2026-04-11T12:32:04Z</time></trkpt><trkpt lat="40.32639418752359" lon="8.95849846795081"><ele>446.00000000000006</ele><time>2026-04-11T12:32:05Z</time></trkpt><trkpt lat="40.326349681954" lon="8.958609984488222"><ele>444.0</ele><time>2026-04-11T12:32:06Z</time></trkpt><trkpt lat="40.32633738847924" lon="8.958728319862344"><ele>442.0</ele><time>2026-04-11T12:32:07Z</time></trkpt><trkpt lat="40.32635701214365" lon="8.958831886135064"><ele>442.0</ele><time>2026-04-11T12:32:08Z</time></trkpt><trkpt lat="40.32640244316371" lon="8.958951142518952"><ele>442.00000000000006</ele><time>2026-04-11T12:32:10Z</time></trkpt><trkpt lat="40.326454676878754" lon="8.959013810869896"><ele>442.00000000000006</ele><time>2026-04-11T12:32:37Z</time></trkpt><trkpt lat="40.32639001294719" lon="8.959133705268199"><ele>442.0</ele><time>2026-04-11T12:32:39Z</time></trkpt><trkpt lat="40.32630594803463" lon="8.959234504180266"><ele>442.0</ele><time>2026-04-11T12:32:41Z</time></trkpt><trkpt lat="40.32626534159174" lon="8.95929963769923"><ele>443.7142857142858</ele><time>2026-04-11T12:32:42Z</time></trkpt><trkpt lat="40.32622454656278" lon="8.959368071029626"><ele>445.42857142857144</ele><time>2026-04-11T12:32:43Z</time></trkpt><trkpt lat="40.32618792307533" lon="8.959438264641948"><ele>447.14285714285717</ele><time>2026-04-11T12:32:44Z</time></trkpt><trkpt lat="40.32615077446173" lon="8.959508068598073"><ele>448.8571428571429</ele><time>2026-04-11T12:32:45Z</time></trkpt><trkpt lat="40.326110041192806" lon="8.959572840879021"><ele>450.5714285714286</ele><time>2026-04-11T12:32:46Z</time></trkpt><trkpt lat="40.326064719009935" lon="8.959631285880365"><ele>452.28571428571433</ele><time>2026-04-11T12:32:47Z</time></trkpt><trkpt lat="40.32596809742523" lon="8.959734047666371"><ele>454.0</ele><time>2026-04-11T12:32:49Z</time></trkpt><trkpt lat="40.32591549964125" lon="8.959779698306093"><ele>454.0</ele><time>2026-04-11T12:32:50Z</time></trkpt><trkpt lat="40.325862498990716" lon="8.95982448699209"><ele>454.00000000000006</ele><time>2026-04-11T12:32:51Z</time></trkpt><trkpt lat="40.325805132971475" lon="8.959865119518135"><ele>454.0</ele><time>2026-04-11T12:32:52Z</time></trkpt><trkpt lat="40.32574491903324" lon="8.959901834052562"><ele>454.0</ele><time>2026-04-11T12:32:53Z</time></trkpt><trkpt lat="40.32568500242631" lon="8.959941083783066"><ele>454.00000000000006</ele><time>2026-04-11T12:32:54Z</time></trkpt><trkpt lat="40.32562323055253" lon="8.959984484235534"><ele>454.0</ele><time>2026-04-11T12:32:55Z</time></trkpt><trkpt lat="40.32556026329555" lon="8.960027504578566"><ele>454.0</ele><time>2026-04-11T12:32:56Z</time></trkpt><trkpt lat="40.325495887355174" lon="8.960072626204564"><ele>451.83333333333337</ele><time>2026-04-11T12:32:57Z</time></trkpt><trkpt lat="40.325432681347394" lon="8.960122312878944"><ele>449.6666666666667</ele><time>2026-04-11T12:32:58Z</time></trkpt><trkpt lat="40.325368431234104" lon="8.960170891187033"><ele>447.5</ele><time>2026-04-11T12:32:59Z</time></trkpt><trkpt lat="40.325303802518334" lon="8.960217999715347"><ele>445.33333333333337</ele><time>2026-04-11T12:33:00Z</time></trkpt><trkpt lat="40.325237207996196" lon="8.960271475152473"><ele>443.1666666666667</ele><time>2026-04-11T12:33:01Z</time></trkpt><trkpt lat="40.325174050142856" lon="8.96033275016567"><ele>441.0</ele><time>2026-04-11T12:33:02Z</time></trkpt><trkpt lat="40.32511271701467" lon="8.960399407081379"><ele>441.0</ele><time>2026-04-11T12:33:03Z</time></trkpt><trkpt lat="40.32505386619956" lon="8.96046935608162"><ele>441.0</ele><time>2026-04-11T12:33:04Z</time></trkpt><trkpt lat="40.32499325361555" lon="8.960537404458073"><ele>441.0</ele><time>2026-04-11T12:33:05Z</time></trkpt><trkpt lat="40.32492928905214" lon="8.96060158356653"><ele>441.0</ele><time>2026-04-11T12:33:06Z</time></trkpt><trkpt lat="40.32486901391293" lon="8.96066814764385"><ele>441.0</ele><time>2026-04-11T12:33:07Z</time></trkpt><trkpt lat="40.324810361657974" lon="8.960736644725513"><ele>441.0</ele><time>2026-04-11T12:33:08Z</time></trkpt><trkpt lat="40.32474844285145" lon="8.960805228899991"><ele>439.3333333333333</ele><time>2026-04-11T12:33:09Z</time></trkpt><trkpt lat="40.32468675798213" lon="8.960872276051543"><ele>437.66666666666663</ele><time>2026-04-11T12:33:10Z</time></trkpt><trkpt lat="40.32462233133077" lon="8.960933181112848"><ele>436.0</ele><time>2026-04-11T12:33:11Z</time></trkpt><trkpt lat="40.32455933734335" lon="8.960996712866018"><ele>434.3333333333333</ele><time>2026-04-11T12:33:12Z</time></trkpt><trkpt lat="40.32449933678124" lon="8.961067216854412"><ele>432.66666666666663</ele><time>2026-04-11T12:33:13Z</time></trkpt><trkpt lat="40.32444026723624" lon="8.961137114094734"><ele>431.0</ele><time>2026-04-11T12:33:14Z</time></trkpt><trkpt lat="40.324379980959165" lon="8.961206093865396"><ele>430.99999999999994</ele><time>2026-04-11T12:33:15Z</time></trkpt><trkpt lat="40.32431693842094" lon="8.961275219840191"><ele>431.0</ele><time>2026-04-11T12:33:16Z</time></trkpt><trkpt lat="40.324254436472174" lon="8.961345441614744"><ele>431.0</ele><time>2026-04-11T12:33:17Z</time></trkpt><trkpt lat="40.324191712555596" lon="8.96141679421442"><ele>431.0</ele><time>2026-04-11T12:33:18Z</time></trkpt><trkpt lat="40.32412930183912" lon="8.961490477142307"><ele>430.99999999999994</ele><time>2026-04-11T12:33:19Z</time></trkpt><trkpt lat="40.324063721076115" lon="8.961559655023642"><ele>431.0</ele><time>2026-04-11T12:33:20Z</time></trkpt><trkpt lat="40.323998277670164" lon="8.961630528659978"><ele>430.49999999999994</ele><time>2026-04-11T12:33:21Z</time></trkpt><trkpt lat="40.32393312949072" lon="8.961703669642686"><ele>430.0</ele><time>2026-04-11T12:33:22Z</time></trkpt><trkpt lat="40.323868689704796" lon="8.961776092935127"><ele>429.5</ele><time>2026-04-11T12:33:23Z</time></trkpt><trkpt lat="40.323804213358436" lon="8.961842565397092"><ele>429.0</ele><time>2026-04-11T12:33:24Z</time></trkpt><trkpt lat="40.32373734194478" lon="8.96190055543461"><ele>428.49999999999994</ele><time>2026-04-11T12:33:25Z</time></trkpt><trkpt lat="40.32367547366241" lon="8.961947608135675"><ele>428.0</ele><time>2026-04-11T12:33:26Z</time></trkpt><trkpt lat="40.323615766473516" lon="8.961982166313213"><ele>427.0</ele><time>2026-04-11T12:33:27Z</time></trkpt><trkpt lat="40.32352423524691" lon="8.962069378406445"><ele>425.99999999999994</ele><time>2026-04-11T12:33:29Z</time></trkpt><trkpt lat="40.32345817997219" lon="8.962053117841888"><ele>425.0</ele><time>2026-04-11T12:33:30Z</time></trkpt><trkpt lat="40.32334842392774" lon="8.962092121790329"><ele>424.0</ele><time>2026-04-11T12:33:32Z</time></trkpt><trkpt lat="40.32323134534821" lon="8.96213352745623"><ele>423.0</ele><time>2026-04-11T12:33:34Z</time></trkpt><trkpt lat="40.323109691451975" lon="8.96216864154197"><ele>421.57142857142856</ele><time>2026-04-11T12:33:36Z</time></trkpt><trkpt lat="40.32305325381759" lon="8.96221345668071"><ele>420.14285714285717</ele><time>2026-04-11T12:33:37Z</time></trkpt><trkpt lat="40.322991132284244" lon="8.96223926795137"><ele>418.7142857142857</ele><time>2026-04-11T12:33:38Z</time></trkpt><trkpt lat="40.32292770487956" lon="8.962265621802622"><ele>417.2857142857143</ele><time>2026-04-11T12:33:39Z</time></trkpt><trkpt lat="40.32285531540968" lon="8.962273059690562"><ele>415.8571428571429</ele><time>2026-04-11T12:33:40Z</time></trkpt><trkpt lat="40.32279021820376" lon="8.962305090290103"><ele>414.42857142857144</ele><time>2026-04-11T12:33:41Z</time></trkpt><trkpt lat="40.32272313351298" lon="8.962331651531548"><ele>413.0</ele><time>2026-04-11T12:33:42Z</time></trkpt><trkpt lat="40.322654676237526" lon="8.962359710608135"><ele>412.99999999999994</ele><time>2026-04-11T12:33:43Z</time></trkpt><trkpt lat="40.32258293677957" lon="8.96238890737755"><ele>413.0</ele><time>2026-04-11T12:33:44Z</time></trkpt><trkpt lat="40.32251327753411" lon="8.962415001767065"><ele>413.0</ele><time>2026-04-11T12:33:45Z</time></trkpt><trkpt lat="40.32243870350689" lon="8.962440323654434"><ele>413.0</ele><time>2026-04-11T12:33:46Z</time></trkpt><trkpt lat="40.32236144154822" lon="8.962461371890592"><ele>412.99999999999994</ele><time>2026-04-11T12:33:47Z</time></trkpt><trkpt lat="40.32228095579471" lon="8.96248497374412"><ele>413.0</ele><time>2026-04-11T12:33:48Z</time></trkpt><trkpt lat="40.322197889955" lon="8.962507750918345"><ele>410.8333333333333</ele><time>2026-04-11T12:33:49Z</time></trkpt><trkpt lat="40.3221132742951" lon="8.962526990204154"><ele>408.66666666666663</ele><time>2026-04-11T12:33:50Z</time></trkpt><trkpt lat="40.32202632013155" lon="8.962546841199774"><ele>406.5</ele><time>2026-04-11T12:33:51Z</time></trkpt><trkpt lat="40.32193859756603" lon="8.962559354460215"><ele>404.33333333333337</ele><time>2026-04-11T12:33:52Z</time></trkpt><trkpt lat="40.321849730528015" lon="8.962574028937738"><ele>402.1666666666667</ele><time>2026-04-11T12:33:53Z</time></trkpt><trkpt lat="40.32176016318649" lon="8.962594951968176"><ele>400.0</ele><time>2026-04-11T12:33:54Z</time></trkpt><trkpt lat="40.321673959167896" lon="8.962615840804034"><ele>399.33333333333337</ele><time>2026-04-11T12:33:55Z</time></trkpt><trkpt lat="40.32158842598595" lon="8.962638878948686"><ele>398.6666666666667</ele><time>2026-04-11T12:33:56Z</time></trkpt><trkpt lat="40.32150152530155" lon="8.962656659911788"><ele>398.0</ele><time>2026-04-11T12:33:57Z</time></trkpt><trkpt lat="40.32141763756644" lon="8.962672640561122"><ele>397.33333333333337</ele><time>2026-04-11T12:33:58Z</time></trkpt><trkpt lat="40.32133108917804" lon="8.962696626654385"><ele>396.6666666666667</ele><time>2026-04-11T12:33:59Z</time></trkpt><trkpt lat="40.32124410252493" lon="8.962716928305765"><ele>396.0</ele><time>2026-04-11T12:34:00Z</time></trkpt><trkpt lat="40.3211536906047" lon="8.962739958076416"><ele>393.20000000000005</ele><time>2026-04-11T12:34:01Z</time></trkpt><trkpt lat="40.321062239620524" lon="8.962762796008025"><ele>390.40000000000003</ele><time>2026-04-11T12:34:02Z</time></trkpt><trkpt lat="40.320969572526145" lon="8.962783076247709"><ele>387.6</ele><time>2026-04-11T12:34:03Z</time></trkpt><trkpt lat="40.32087529609122" lon="8.96279613173633"><ele>384.8</ele><time>2026-04-11T12:34:04Z</time></trkpt><trkpt lat="40.32078827263126" lon="8.962845610890263"><ele>382.0</ele><time>2026-04-11T12:34:05Z</time></trkpt><trkpt lat="40.32070061925084" lon="8.962876585641986"><ele>382.0</ele><time>2026-04-11T12:34:06Z</time></trkpt><trkpt lat="40.32061790726535" lon="8.962905814181731"><ele>382.0</ele><time>2026-04-11T12:34:07Z</time></trkpt><trkpt lat="40.320491052440765" lon="8.962680990642369"><ele>382.0</ele><time>2026-04-11T12:34:08Z</time></trkpt><trkpt lat="40.32040313983042" lon="8.962623601329422"><ele>382.0</ele><time>2026-04-11T12:34:09Z</time></trkpt><trkpt lat="40.32031732531518" lon="8.962573043273993"><ele>381.20000000000005</ele><time>2026-04-11T12:34:10Z</time></trkpt><trkpt lat="40.32023282017766" lon="8.96252852245042"><ele>380.4</ele><time>2026-04-11T12:34:11Z</time></trkpt><trkpt lat="40.32015130544579" lon="8.96248106247687"><ele>379.6</ele><time>2026-04-11T12:34:12Z</time></trkpt><trkpt lat="40.32006712148576" lon="8.962423980980724"><ele>378.79999999999995</ele><time>2026-04-11T12:34:13Z</time></trkpt><trkpt lat="40.319975438316064" lon="8.962367880583454"><ele>378.0</ele><time>2026-04-11T12:34:14Z</time></trkpt><trkpt lat="40.319874012036486" lon="8.96232009077546"><ele>378.0</ele><time>2026-04-11T12:34:15Z</time></trkpt><trkpt lat="40.319785511992485" lon="8.962241763838232"><ele>378.0</ele><time>2026-04-11T12:34:16Z</time></trkpt><trkpt lat="40.31969928723029" lon="8.96215401060782"><ele>378.0</ele><time>2026-04-11T12:34:17Z</time></trkpt><trkpt lat="40.319613183526464" lon="8.96204375958725"><ele>378.0</ele><time>2026-04-11T12:34:18Z</time></trkpt><trkpt lat="40.31951008470906" lon="8.961942638429775"><ele>375.5</ele><time>2026-04-11T12:34:19Z</time></trkpt><trkpt lat="40.319408396273325" lon="8.961823267370887"><ele>373.0</ele><time>2026-04-11T12:34:20Z</time></trkpt><trkpt lat="40.31928615744067" lon="8.961746938367186"><ele>370.5</ele><time>2026-04-11T12:34:21Z</time></trkpt><trkpt lat="40.3191455679253" lon="8.961705643454401"><ele>368.0</ele><time>2026-04-11T12:34:22Z</time></trkpt><trkpt lat="40.31900591690202" lon="8.96169154135357"><ele>365.0</ele><time>2026-04-11T12:34:23Z</time></trkpt><trkpt lat="40.31886755550593" lon="8.961686420883186"><ele>362.0</ele><time>2026-04-11T12:34:24Z</time></trkpt><trkpt lat="40.318732710782726" lon="8.961701874117853"><ele>359.0</ele><time>2026-04-11T12:34:25Z</time></trkpt><trkpt lat="40.31860409156225" lon="8.961749473947291"><ele>356.0</ele><time>2026-04-11T12:34:26Z</time></trkpt><trkpt lat="40.31848776728756" lon="8.961830438586645"><ele>356.0</ele><time>2026-04-11T12:34:27Z</time></trkpt><trkpt lat="40.31838729176743" lon="8.961948233427528"><ele>356.0</ele><time>2026-04-11T12:34:28Z</time></trkpt><trkpt lat="40.31830329730177" lon="8.962095353463326"><ele>356.0</ele><time>2026-04-11T12:34:29Z</time></trkpt><trkpt lat="40.31823834781675" lon="8.962253131008362"><ele>356.0</ele><time>2026-04-11T12:34:30Z</time></trkpt><trkpt lat="40.31818320218601" lon="8.962411869800755"><ele>355.75</ele><time>2026-04-11T12:34:31Z</time></trkpt><trkpt lat="40.31811530566584" lon="8.962574927354781"><ele>355.5</ele><time>2026-04-11T12:34:32Z</time></trkpt><trkpt lat="40.31804640170988" lon="8.962740295584688"><ele>355.25</ele><time>2026-04-11T12:34:33Z</time></trkpt><trkpt lat="40.3179718109024" lon="8.962906758873448"><ele>355.0</ele><time>2026-04-11T12:34:34Z</time></trkpt><trkpt lat="40.31788311698589" lon="8.96306629066109"><ele>354.0</ele><time>2026-04-11T12:34:35Z</time></trkpt><trkpt lat="40.31778172411026" lon="8.963216555385932"><ele>353.0</ele><time>2026-04-11T12:34:36Z</time></trkpt><trkpt lat="40.31767636188208" lon="8.963365491942398"><ele>352.0</ele><time>2026-04-11T12:34:37Z</time></trkpt><trkpt lat="40.31757449963805" lon="8.96351975862069"><ele>351.3333333333333</ele><time>2026-04-11T12:34:38Z</time></trkpt><trkpt lat="40.31747122396619" lon="8.963674245984683"><ele>350.6666666666667</ele><time>2026-04-11T12:34:39Z</time></trkpt><trkpt lat="40.31736475727641" lon="8.963830206192661"><ele>350.0</ele><time>2026-04-11T12:34:40Z</time></trkpt><trkpt lat="40.31725829525935" lon="8.96398248510132"><ele>348.6666666666667</ele><time>2026-04-11T12:34:41Z</time></trkpt><trkpt lat="40.31714672447518" lon="8.96412286626452"><ele>347.3333333333333</ele><time>2026-04-11T12:34:42Z</time></trkpt><trkpt lat="40.31702100710338" lon="8.964236113670067"><ele>346.0</ele><time>2026-04-11T12:34:43Z</time></trkpt><trkpt lat="40.316875408106526" lon="8.964309961018412"><ele>344.66666666666663</ele><time>2026-04-11T12:34:44Z</time></trkpt><trkpt lat="40.31672223010575" lon="8.964333401206494"><ele>343.3333333333333</ele><time>2026-04-11T12:34:45Z</time></trkpt><trkpt lat="40.31656903363618" lon="8.964333119443662"><ele>342.0</ele><time>2026-04-11T12:34:46Z</time></trkpt><trkpt lat="40.31641595858953" lon="8.964331484358112"><ele>339.3333333333333</ele><time>2026-04-11T12:34:47Z</time></trkpt><trkpt lat="40.31626260426684" lon="8.964332339215254"><ele>336.66666666666663</ele><time>2026-04-11T12:34:48Z</time></trkpt><trkpt lat="40.31610838192222" lon="8.964332312316085"><ele>334.0</ele><time>2026-04-11T12:34:49Z</time></trkpt><trkpt lat="40.31595148035244" lon="8.96433072845898"><ele>334.0</ele><time>2026-04-11T12:34:50Z</time></trkpt><trkpt lat="40.31579962611029" lon="8.964326312460175"><ele>334.0</ele><time>2026-04-11T12:34:51Z</time></trkpt><trkpt lat="40.31564962516325" lon="8.964307374228081"><ele>334.0</ele><time>2026-04-11T12:34:52Z</time></trkpt><trkpt lat="40.31550675384051" lon="8.964253058906536"><ele>332.25</ele><time>2026-04-11T12:34:53Z</time></trkpt><trkpt lat="40.31537553369298" lon="8.964162768664893"><ele>330.5</ele><time>2026-04-11T12:34:54Z</time></trkpt><trkpt lat="40.31526158757141" lon="8.964040246607395"><ele>328.75</ele><time>2026-04-11T12:34:55Z</time></trkpt><trkpt lat="40.31517309910244" lon="8.963887605964016"><ele>327.0</ele><time>2026-04-11T12:34:56Z</time></trkpt><trkpt lat="40.315107482353135" lon="8.963713387159874"><ele>327.0</ele><time>2026-04-11T12:34:57Z</time></trkpt><trkpt lat="40.31505646269146" lon="8.963532503667512"><ele>327.0</ele><time>2026-04-11T12:34:58Z</time></trkpt><trkpt lat="40.315006925530135" lon="8.963346962502401"><ele>327.0</ele><time>2026-04-11T12:34:59Z</time></trkpt><trkpt lat="40.31495872487533" lon="8.963156726427332"><ele>326.6666666666667</ele><time>2026-04-11T12:35:00Z</time></trkpt><trkpt lat="40.31491493293168" lon="8.962964667934301"><ele>326.33333333333337</ele><time>2026-04-11T12:35:01Z</time></trkpt><trkpt lat="40.314897262114194" lon="8.962761373995791"><ele>326.0</ele><time>2026-04-11T12:35:02Z</time></trkpt><trkpt lat="40.31486974320163" lon="8.962559601650023"><ele>324.6666666666667</ele><time>2026-04-11T12:35:03Z</time></trkpt><trkpt lat="40.31489425420789" lon="8.962358825882529"><ele>323.3333333333333</ele><time>2026-04-11T12:35:04Z</time></trkpt><trkpt lat="40.31493931247066" lon="8.962167869714705"><ele>322.0</ele><time>2026-04-11T12:35:05Z</time></trkpt><trkpt lat="40.31501577670428" lon="8.961994851364059"><ele>322.0</ele><time>2026-04-11T12:35:06Z</time></trkpt><trkpt lat="40.31510042863356" lon="8.961838191659664"><ele>322.0</ele><time>2026-04-11T12:35:07Z</time></trkpt><trkpt lat="40.315207114561154" lon="8.961707505952957"><ele>322.0</ele><time>2026-04-11T12:35:08Z</time></trkpt><trkpt lat="40.31531252650554" lon="8.961570106256797"><ele>322.0</ele><time>2026-04-11T12:35:09Z</time></trkpt><trkpt lat="40.31543895968841" lon="8.96146726433536"><ele>320.75</ele><time>2026-04-11T12:35:10Z</time></trkpt><trkpt lat="40.31555739133243" lon="8.961365745102471"><ele>319.5</ele><time>2026-04-11T12:35:11Z</time></trkpt><trkpt lat="40.315682717551056" lon="8.96128495114147"><ele>318.25</ele><time>2026-04-11T12:35:12Z</time></trkpt><trkpt lat="40.31579142150965" lon="8.961179552668959"><ele>317.0</ele><time>2026-04-11T12:35:13Z</time></trkpt><trkpt lat="40.31587880763811" lon="8.961059222831134"><ele>316.75</ele><time>2026-04-11T12:35:14Z</time></trkpt><trkpt lat="40.31592781485901" lon="8.960902530499816"><ele>316.5</ele><time>2026-04-11T12:35:15Z</time></trkpt><trkpt lat="40.31590966386182" lon="8.960743329207416"><ele>316.25</ele><time>2026-04-11T12:35:16Z</time></trkpt><trkpt lat="40.315859440549325" lon="8.960619094003576"><ele>316.0</ele><time>2026-04-11T12:35:17Z</time></trkpt><trkpt lat="40.31576731288313" lon="8.9605450752185"><ele>316.0</ele><time>2026-04-11T12:35:18Z</time></trkpt><trkpt lat="40.31565005290211" lon="8.960529321529243"><ele>316.0</ele><time>2026-04-11T12:35:19Z</time></trkpt><trkpt lat="40.31552094575992" lon="8.960586127621566"><ele>316.0</ele><time>2026-04-11T12:35:20Z</time></trkpt><trkpt lat="40.315394570930316" lon="8.960625925719837"><ele>316.0</ele><time>2026-04-11T12:35:21Z</time></trkpt><trkpt lat="40.315263436070516" lon="8.960658690591679"><ele>314.0</ele><time>2026-04-11T12:35:22Z</time></trkpt><trkpt lat="40.31512779736368" lon="8.960702719260754"><ele>312.0</ele><time>2026-04-11T12:35:23Z</time></trkpt><trkpt lat="40.31498831925882" lon="8.960752330289713"><ele>310.0</ele><time>2026-04-11T12:35:24Z</time></trkpt><trkpt lat="40.31485106950401" lon="8.960801398776487"><ele>308.0</ele><time>2026-04-11T12:35:25Z</time></trkpt><trkpt lat="40.31471543126704" lon="8.960859956443857"><ele>307.5</ele><time>2026-04-11T12:35:26Z</time></trkpt><trkpt lat="40.314580308617515" lon="8.960937040885344"><ele>307.0</ele><time>2026-04-11T12:35:27Z</time></trkpt><trkpt lat="40.314446813648075" lon="8.961019261377313"><ele>306.5</ele><time>2026-04-11T12:35:28Z</time></trkpt><trkpt lat="40.31431081013549" lon="8.961101195827217"><ele>306.0</ele><time>2026-04-11T12:35:29Z</time></trkpt><trkpt lat="40.31417313462027" lon="8.961186558406606"><ele>306.0</ele><time>2026-04-11T12:35:30Z</time></trkpt><trkpt lat="40.314036975527834" lon="8.961279689849118"><ele>306.0</ele><time>2026-04-11T12:35:31Z</time></trkpt><trkpt lat="40.313900394423634" lon="8.961372446034627"><ele>306.0</ele><time>2026-04-11T12:35:32Z</time></trkpt><trkpt lat="40.31375989337502" lon="8.961461585442644"><ele>303.6666666666667</ele><time>2026-04-11T12:35:33Z</time></trkpt><trkpt lat="40.31361924961106" lon="8.96155233905522"><ele>301.33333333333337</ele><time>2026-04-11T12:35:34Z</time></trkpt><trkpt lat="40.31347983981855" lon="8.961649379188147"><ele>299.0</ele><time>2026-04-11T12:35:35Z</time></trkpt><trkpt lat="40.313342004201125" lon="8.96175015002587"><ele>299.0</ele><time>2026-04-11T12:35:36Z</time></trkpt><trkpt lat="40.31320327743814" lon="8.961849184850326"><ele>299.0</ele><time>2026-04-11T12:35:37Z</time></trkpt><trkpt lat="40.313062519791174" lon="8.961950369248346"><ele>299.0</ele><time>2026-04-11T12:35:38Z</time></trkpt><trkpt lat="40.31292066931522" lon="8.962048016325914"><ele>298.0</ele><time>2026-04-11T12:35:39Z</time></trkpt><trkpt lat="40.31277685194333" lon="8.962144053907389"><ele>297.0</ele><time>2026-04-11T12:35:40Z</time></trkpt><trkpt lat="40.312634666120964" lon="8.962243412865528"><ele>296.0</ele><time>2026-04-11T12:35:41Z</time></trkpt><trkpt lat="40.31248982890469" lon="8.962349049994073"><ele>296.0</ele><time>2026-04-11T12:35:42Z</time></trkpt><trkpt lat="40.312347067516576" lon="8.96245153096678"><ele>296.0</ele><time>2026-04-11T12:35:43Z</time></trkpt><trkpt lat="40.31219659720792" lon="8.962553412946935"><ele>296.0</ele><time>2026-04-11T12:35:44Z</time></trkpt><trkpt lat="40.31204402419816" lon="8.962655516830623"><ele>293.0</ele><time>2026-04-11T12:35:45Z</time></trkpt><trkpt lat="40.31189685557367" lon="8.962755583516582"><ele>290.0</ele><time>2026-04-11T12:35:46Z</time></trkpt><trkpt lat="40.31174479342849" lon="8.962857882633779"><ele>287.0</ele><time>2026-04-11T12:35:47Z</time></trkpt><trkpt lat="40.31159655080799" lon="8.962957411597811"><ele>287.0</ele><time>2026-04-11T12:35:48Z</time></trkpt><trkpt lat="40.31145353891083" lon="8.963055223531713"><ele>287.0</ele><time>2026-04-11T12:35:49Z</time></trkpt><trkpt lat="40.31131352160624" lon="8.963152105180088"><ele>287.0</ele><time>2026-04-11T12:35:50Z</time></trkpt><trkpt lat="40.31118114368197" lon="8.963245081815948"><ele>286.75</ele><time>2026-04-11T12:35:51Z</time></trkpt><trkpt lat="40.311052208215834" lon="8.9633349382515"><ele>286.5</ele><time>2026-04-11T12:35:52Z</time></trkpt><trkpt lat="40.31093441265993" lon="8.963415039210366"><ele>286.25</ele><time>2026-04-11T12:35:53Z</time></trkpt><trkpt lat="40.310827241980896" lon="8.963489766125232"><ele>286.0</ele><time>2026-04-11T12:35:54Z</time></trkpt><trkpt lat="40.31072627055757" lon="8.963560712541943"><ele>285.40000000000003</ele><time>2026-04-11T12:35:55Z</time></trkpt><trkpt lat="40.310630059601856" lon="8.96362561431594"><ele>284.8</ele><time>2026-04-11T12:35:56Z</time></trkpt><trkpt lat="40.31053728173449" lon="8.963691146157288"><ele>284.20000000000005</ele><time>2026-04-11T12:35:57Z</time></trkpt><trkpt lat="40.31044629198333" lon="8.963750523505974"><ele>283.6</ele><time>2026-04-11T12:35:58Z</time></trkpt><trkpt lat="40.31035170569026" lon="8.963814903743174"><ele>283.0</ele><time>2026-04-11T12:35:59Z</time></trkpt><trkpt lat="40.31025164181067" lon="8.963888311795879"><ele>282.25</ele><time>2026-04-11T12:36:00Z</time></trkpt><trkpt lat="40.31014216690071" lon="8.963967097815225"><ele>281.5</ele><time>2026-04-11T12:36:01Z</time></trkpt><trkpt lat="40.310023831904225" lon="8.964051587530571"><ele>280.75</ele><time>2026-04-11T12:36:02Z</time></trkpt><trkpt lat="40.309897876919734" lon="8.964140142928416"><ele>280.0</ele><time>2026-04-11T12:36:03Z</time></trkpt><trkpt lat="40.3097638064606" lon="8.964227163408635"><ele>278.66666666666663</ele><time>2026-04-11T12:36:04Z</time></trkpt><trkpt lat="40.30962315417574" lon="8.964317576975528"><ele>277.3333333333333</ele><time>2026-04-11T12:36:05Z</time></trkpt><trkpt lat="40.30948030691888" lon="8.964415986412195"><ele>276.0</ele><time>2026-04-11T12:36:06Z</time></trkpt><trkpt lat="40.309335060393195" lon="8.964522117079548"><ele>276.0</ele><time>2026-04-11T12:36:07Z</time></trkpt><trkpt lat="40.309194857875134" lon="8.964624360136018"><ele>276.0</ele><time>2026-04-11T12:36:08Z</time></trkpt><trkpt lat="40.309059311159636" lon="8.964722151441135"><ele>276.0</ele><time>2026-04-11T12:36:09Z</time></trkpt><trkpt lat="40.30892857650521" lon="8.964813856345812"><ele>275.25</ele><time>2026-04-11T12:36:10Z</time></trkpt><trkpt lat="40.3087985383848" lon="8.964899455698095"><ele>274.5</ele><time>2026-04-11T12:36:11Z</time></trkpt><trkpt lat="40.30867316793439" lon="8.964979694339373"><ele>273.75</ele><time>2026-04-11T12:36:12Z</time></trkpt><trkpt lat="40.3085506875458" lon="8.965062293912782"><ele>273.0</ele><time>2026-04-11T12:36:13Z</time></trkpt><trkpt lat="40.30842864628849" lon="8.965145274226483"><ele>273.0</ele><time>2026-04-11T12:36:14Z</time></trkpt><trkpt lat="40.30830439555503" lon="8.965232450774964"><ele>273.0</ele><time>2026-04-11T12:36:15Z</time></trkpt><trkpt lat="40.30817756605015" lon="8.965321873184497"><ele>273.0</ele><time>2026-04-11T12:36:16Z</time></trkpt><trkpt lat="40.308045346130584" lon="8.96541419386241"><ele>273.0</ele><time>2026-04-11T12:36:17Z</time></trkpt><trkpt lat="40.3079140659605" lon="8.96550789122844"><ele>272.25</ele><time>2026-04-11T12:36:18Z</time></trkpt><trkpt lat="40.30778817209457" lon="8.965598852671473"><ele>271.5</ele><time>2026-04-11T12:36:19Z</time></trkpt><trkpt lat="40.30766154622664" lon="8.965688479993357"><ele>270.75</ele><time>2026-04-11T12:36:20Z</time></trkpt><trkpt lat="40.307536141751605" lon="8.96577653011316"><ele>270.0</ele><time>2026-04-11T12:36:21Z</time></trkpt><trkpt lat="40.30741330450617" lon="8.96586161022853"><ele>269.75</ele><time>2026-04-11T12:36:22Z</time></trkpt><trkpt lat="40.30729796310923" lon="8.965939850657193"><ele>269.5</ele><time>2026-04-11T12:36:23Z</time></trkpt><trkpt lat="40.30718689421672" lon="8.966018583584834"><ele>269.25</ele><time>2026-04-11T12:36:24Z</time></trkpt><trkpt lat="40.30707959466497" lon="8.966093092204982"><ele>269.0</ele><time>2026-04-11T12:36:25Z</time></trkpt><trkpt lat="40.30696996846451" lon="8.966168378135219"><ele>268.5</ele><time>2026-04-11T12:36:26Z</time></trkpt><trkpt lat="40.30686583518829" lon="8.96624109710222"><ele>268.0</ele><time>2026-04-11T12:36:27Z</time></trkpt><trkpt lat="40.30675757315852" lon="8.966316608087997"><ele>267.5</ele><time>2026-04-11T12:36:28Z</time></trkpt><trkpt lat="40.3066536505293" lon="8.966388529625874"><ele>267.0</ele><time>2026-04-11T12:36:29Z</time></trkpt><trkpt lat="40.306550162454485" lon="8.966459820537912"><ele>267.0</ele><time>2026-04-11T12:36:30Z</time></trkpt><trkpt lat="40.30644522265626" lon="8.966532581814418"><ele>267.0</ele><time>2026-04-11T12:36:31Z</time></trkpt><trkpt lat="40.306341535943695" lon="8.966604813846574"><ele>267.0</ele><time>2026-04-11T12:36:32Z</time></trkpt><trkpt lat="40.30623499081028" lon="8.96667697208964"><ele>267.0</ele><time>2026-04-11T12:36:33Z</time></trkpt><trkpt lat="40.30612606635978" lon="8.966751154215473"><ele>266.5</ele><time>2026-04-11T12:36:34Z</time></trkpt><trkpt lat="40.30601702295695" lon="8.966825545190794"><ele>266.0</ele><time>2026-04-11T12:36:35Z</time></trkpt><trkpt lat="40.30590901424064" lon="8.966901093776022"><ele>265.5</ele><time>2026-04-11T12:36:36Z</time></trkpt><trkpt lat="40.305797446327354" lon="8.96697895134818"><ele>265.0</ele><time>2026-04-11T12:36:37Z</time></trkpt><trkpt lat="40.3056894579478" lon="8.96705542029937"><ele>265.0</ele><time>2026-04-11T12:36:38Z</time></trkpt><trkpt lat="40.30558043307056" lon="8.967133110949588"><ele>265.0</ele><time>2026-04-11T12:36:39Z</time></trkpt><trkpt lat="40.305469882217956" lon="8.96721224587867"><ele>265.0</ele><time>2026-04-11T12:36:40Z</time></trkpt><trkpt lat="40.30536116979989" lon="8.967289515629409"><ele>265.0</ele><time>2026-04-11T12:36:41Z</time></trkpt><trkpt lat="40.30524961597202" lon="8.967367009596902"><ele>263.75</ele><time>2026-04-11T12:36:42Z</time></trkpt><trkpt lat="40.305138797918794" lon="8.967442217213293"><ele>262.5</ele><time>2026-04-11T12:36:43Z</time></trkpt><trkpt lat="40.305024542145915" lon="8.967520751675753"><ele>261.25</ele><time>2026-04-11T12:36:44Z</time></trkpt><trkpt lat="40.30491283468381" lon="8.96759840991971"><ele>260.0</ele><time>2026-04-11T12:36:45Z</time></trkpt><trkpt lat="40.304800293976115" lon="8.967677194695492"><ele>259.5</ele><time>2026-04-11T12:36:46Z</time></trkpt><trkpt lat="40.30468415227239" lon="8.967757245310159"><ele>259.0</ele><time>2026-04-11T12:36:47Z</time></trkpt><trkpt lat="40.30456523276019" lon="8.967840192201459"><ele>258.5</ele><time>2026-04-11T12:36:48Z</time></trkpt><trkpt lat="40.304441920048355" lon="8.967926141661898"><ele>258.0</ele><time>2026-04-11T12:36:49Z</time></trkpt><trkpt lat="40.304318636641504" lon="8.968010781171992"><ele>258.0</ele><time>2026-04-11T12:36:50Z</time></trkpt><trkpt lat="40.30422372468058" lon="8.968074252152281"><ele>258.0</ele><time>2026-04-11T12:36:51Z</time></trkpt><trkpt lat="40.30411433097228" lon="8.968146661810115"><ele>258.0</ele><time>2026-04-11T12:36:52Z</time></trkpt><trkpt lat="40.30400420522569" lon="8.96822204543398"><ele>258.0</ele><time>2026-04-11T12:36:53Z</time></trkpt><trkpt lat="40.30388675399871" lon="8.968301007640044"><ele>257.25</ele><time>2026-04-11T12:36:54Z</time></trkpt><trkpt lat="40.30376279149443" lon="8.968381698340604"><ele>256.5</ele><time>2026-04-11T12:36:55Z</time></trkpt><trkpt lat="40.30363458835622" lon="8.968465491420627"><ele>255.75</ele><time>2026-04-11T12:36:56Z</time></trkpt><trkpt lat="40.30350396678667" lon="8.96855454539586"><ele>255.0</ele><time>2026-04-11T12:36:57Z</time></trkpt><trkpt lat="40.3033696182648" lon="8.968647075949605"><ele>255.0</ele><time>2026-04-11T12:36:58Z</time></trkpt><trkpt lat="40.30323585858589" lon="8.968739185442555"><ele>255.0</ele><time>2026-04-11T12:36:59Z</time></trkpt><trkpt lat="40.30310405652793" lon="8.968823347731318"><ele>255.0</ele><time>2026-04-11T12:37:00Z</time></trkpt><trkpt lat="40.302978831647515" lon="8.968900175022705"><ele>255.0</ele><time>2026-04-11T12:37:01Z</time></trkpt><trkpt lat="40.30286250732327" lon="8.968971366741924"><ele>254.5</ele><time>2026-04-11T12:37:02Z</time></trkpt><trkpt lat="40.30274228984184" lon="8.969042797812511"><ele>254.0</ele><time>2026-04-11T12:37:03Z</time></trkpt><trkpt lat="40.30262154896066" lon="8.969112187227134"><ele>253.5</ele><time>2026-04-11T12:37:04Z</time></trkpt><trkpt lat="40.30250762945649" lon="8.96918209291956"><ele>253.0</ele><time>2026-04-11T12:37:05Z</time></trkpt><trkpt lat="40.302400100812676" lon="8.969250961840105"><ele>252.75</ele><time>2026-04-11T12:37:06Z</time></trkpt><trkpt lat="40.30229476179732" lon="8.96931440493865"><ele>252.5</ele><time>2026-04-11T12:37:07Z</time></trkpt><trkpt lat="40.30219118887332" lon="8.969375837132885"><ele>252.25</ele><time>2026-04-11T12:37:08Z</time></trkpt><trkpt lat="40.30208805137875" lon="8.96943194850162"><ele>252.0</ele><time>2026-04-11T12:37:09Z</time></trkpt><trkpt lat="40.30198681657423" lon="8.969483947151554"><ele>251.75</ele><time>2026-04-11T12:37:10Z</time></trkpt><trkpt lat="40.30188485145603" lon="8.969528617446509"><ele>251.5</ele><time>2026-04-11T12:37:11Z</time></trkpt><trkpt lat="40.301790256306965" lon="8.96958222816227"><ele>251.25</ele><time>2026-04-11T12:37:12Z</time></trkpt><trkpt lat="40.3017034875004" lon="8.969632787531468"><ele>251.0</ele><time>2026-04-11T12:37:13Z</time></trkpt><trkpt lat="40.30157332632303" lon="8.969515065491118"><ele>251.0</ele><time>2026-04-11T12:37:14Z</time></trkpt><trkpt lat="40.301487449831555" lon="8.96941390213388"><ele>251.00000000000003</ele><time>2026-04-11T12:37:15Z</time></trkpt><trkpt lat="40.30141542531777" lon="8.969307910171425"><ele>251.00000000000003</ele><time>2026-04-11T12:37:16Z</time></trkpt><trkpt lat="40.30136379921262" lon="8.96918347832648"><ele>251.0</ele><time>2026-04-11T12:37:17Z</time></trkpt><trkpt lat="40.30133301113182" lon="8.969050195558575"><ele>251.0</ele><time>2026-04-11T12:37:18Z</time></trkpt><trkpt lat="40.30133605865949" lon="8.96890299912984"><ele>251.0</ele><time>2026-04-11T12:37:19Z</time></trkpt><trkpt lat="40.30138971072897" lon="8.96876804745089"><ele>251.0</ele><time>2026-04-11T12:37:20Z</time></trkpt><trkpt lat="40.30143458463054" lon="8.96862416851812"><ele>251.0</ele><time>2026-04-11T12:37:21Z</time></trkpt><trkpt lat="40.301478919105506" lon="8.968475838756968"><ele>251.0</ele><time>2026-04-11T12:37:22Z</time></trkpt><trkpt lat="40.30154764099677" lon="8.96833823152366"><ele>250.5</ele><time>2026-04-11T12:37:23Z</time></trkpt><trkpt lat="40.30163172833102" lon="8.968209057510014"><ele>250.0</ele><time>2026-04-11T12:37:24Z</time></trkpt><trkpt lat="40.30172710447809" lon="8.96809316730171"><ele>249.5</ele><time>2026-04-11T12:37:25Z</time></trkpt><trkpt lat="40.30182478140529" lon="8.967983393390044"><ele>249.0</ele><time>2026-04-11T12:37:26Z</time></trkpt><trkpt lat="40.30193047824225" lon="8.967889059385936"><ele>249.0</ele><time>2026-04-11T12:37:27Z</time></trkpt><trkpt lat="40.3020496807671" lon="8.967825287006598"><ele>249.0</ele><time>2026-04-11T12:37:28Z</time></trkpt><trkpt lat="40.30217407657119" lon="8.967801337740026"><ele>249.0</ele><time>2026-04-11T12:37:29Z</time></trkpt><trkpt lat="40.30229857674999" lon="8.967817559862382"><ele>249.0</ele><time>2026-04-11T12:37:30Z</time></trkpt><trkpt lat="40.302418395771255" lon="8.967874623143587"><ele>249.75</ele><time>2026-04-11T12:37:31Z</time></trkpt><trkpt lat="40.302525479689514" lon="8.96796651292328"><ele>250.5</ele><time>2026-04-11T12:37:32Z</time></trkpt><trkpt lat="40.30262755299196" lon="8.968074637523891"><ele>251.25</ele><time>2026-04-11T12:37:33Z</time></trkpt><trkpt lat="40.30271921973486" lon="8.96819903501837"><ele>252.0</ele><time>2026-04-11T12:37:34Z</time></trkpt><trkpt lat="40.30279488447524" lon="8.968344881049322"><ele>252.25</ele><time>2026-04-11T12:37:35Z</time></trkpt><trkpt lat="40.30289694771973" lon="8.968450560987433"><ele>252.5</ele><time>2026-04-11T12:37:36Z</time></trkpt><trkpt lat="40.30294010768558" lon="8.96864514004743"><ele>252.75</ele><time>2026-04-11T12:37:37Z</time></trkpt><trkpt lat="40.30301447455824" lon="8.968802869105481"><ele>253.0</ele><time>2026-04-11T12:37:38Z</time></trkpt><trkpt lat="40.30309333126184" lon="8.96896300370994"><ele>254.0</ele><time>2026-04-11T12:37:39Z</time></trkpt><trkpt lat="40.303263601831304" lon="8.969298381777524"><ele>255.0</ele><time>2026-04-11T12:37:41Z</time></trkpt><trkpt lat="40.30334596650998" lon="8.969482440133113"><ele>255.0</ele><time>2026-04-11T12:37:42Z</time></trkpt><trkpt lat="40.30342718877322" lon="8.969667565741053"><ele>255.0</ele><time>2026-04-11T12:37:43Z</time></trkpt><trkpt lat="40.30351109292742" lon="8.969851818432227"><ele>255.0</ele><time>2026-04-11T12:37:44Z</time></trkpt><trkpt lat="40.30359627226603" lon="8.97003846700776"><ele>254.66666666666669</ele><time>2026-04-11T12:37:45Z</time></trkpt><trkpt lat="40.30368644097493" lon="8.9702312240868"><ele>254.33333333333334</ele><time>2026-04-11T12:37:46Z</time></trkpt><trkpt lat="40.303774497183305" lon="8.970425369510286"><ele>254.0</ele><time>2026-04-11T12:37:47Z</time></trkpt><trkpt lat="40.303864594476835" lon="8.97062969261443"><ele>254.33333333333334</ele><time>2026-04-11T12:37:48Z</time></trkpt><trkpt lat="40.303955261968255" lon="8.970839946123295"><ele>254.66666666666669</ele><time>2026-04-11T12:37:49Z</time></trkpt><trkpt lat="40.30404670347732" lon="8.971053418008605"><ele>255.0</ele><time>2026-04-11T12:37:50Z</time></trkpt><trkpt lat="40.30414239967609" lon="8.971271476006514"><ele>255.0</ele><time>2026-04-11T12:37:51Z</time></trkpt><trkpt lat="40.304242122466356" lon="8.97149022272161"><ele>255.0</ele><time>2026-04-11T12:37:52Z</time></trkpt><trkpt lat="40.30434438066295" lon="8.971712972098173"><ele>255.0</ele><time>2026-04-11T12:37:53Z</time></trkpt><trkpt lat="40.30444844007406" lon="8.971940012987478"><ele>254.66666666666669</ele><time>2026-04-11T12:37:54Z</time></trkpt><trkpt lat="40.30455590830844" lon="8.97217134172646"><ele>254.33333333333334</ele><time>2026-04-11T12:37:55Z</time></trkpt><trkpt lat="40.30467024050238" lon="8.972401454728727"><ele>254.0</ele><time>2026-04-11T12:37:56Z</time></trkpt><trkpt lat="40.304791235089354" lon="8.972632949428963"><ele>253.0</ele><time>2026-04-11T12:37:57Z</time></trkpt><trkpt lat="40.30491236701703" lon="8.972869580999633"><ele>252.0</ele><time>2026-04-11T12:37:58Z</time></trkpt><trkpt lat="40.30503842752082" lon="8.973102997291916"><ele>251.0</ele><time>2026-04-11T12:37:59Z</time></trkpt><trkpt lat="40.3051707362067" lon="8.973333853006464"><ele>249.33333333333334</ele><time>2026-04-11T12:38:00Z</time></trkpt><trkpt lat="40.30530534001243" lon="8.973568205287235"><ele>247.66666666666669</ele><time>2026-04-11T12:38:01Z</time></trkpt><trkpt lat="40.305436201011574" lon="8.973802626883574"><ele>246.0</ele><time>2026-04-11T12:38:02Z</time></trkpt><trkpt lat="40.30556683274775" lon="8.974039825058156"><ele>243.33333333333331</ele><time>2026-04-11T12:38:03Z</time></trkpt><trkpt lat="40.30569651246292" lon="8.97427611313979"><ele>240.66666666666666</ele><time>2026-04-11T12:38:04Z</time></trkpt><trkpt lat="40.305829692009986" lon="8.9745128842547"><ele>238.0</ele><time>2026-04-11T12:38:05Z</time></trkpt><trkpt lat="40.30596439808898" lon="8.974748370222924"><ele>238.0</ele><time>2026-04-11T12:38:06Z</time></trkpt><trkpt lat="40.30609888429187" lon="8.974985599039957"><ele>238.0</ele><time>2026-04-11T12:38:07Z</time></trkpt><trkpt lat="40.30623178259232" lon="8.975224822267784"><ele>238.0</ele><time>2026-04-11T12:38:08Z</time></trkpt><trkpt lat="40.306365763871064" lon="8.975465805143022"><ele>238.0</ele><time>2026-04-11T12:38:09Z</time></trkpt><trkpt lat="40.30649835570827" lon="8.975705552658162"><ele>240.0</ele><time>2026-04-11T12:38:10Z</time></trkpt><trkpt lat="40.306633427458614" lon="8.975942372532261"><ele>242.0</ele><time>2026-04-11T12:38:11Z</time></trkpt><trkpt lat="40.306765358819845" lon="8.976183300327888"><ele>242.0</ele><time>2026-04-11T12:38:12Z</time></trkpt><trkpt lat="40.30689857206642" lon="8.976428717838008"><ele>242.0</ele><time>2026-04-11T12:38:13Z</time></trkpt><trkpt lat="40.30703448961641" lon="8.976677309914729"><ele>242.0</ele><time>2026-04-11T12:38:14Z</time></trkpt><trkpt lat="40.307172294686524" lon="8.976926656726008"><ele>242.0</ele><time>2026-04-11T12:38:15Z</time></trkpt><trkpt lat="40.30731325071152" lon="8.977177853724008"><ele>241.0</ele><time>2026-04-11T12:38:16Z</time></trkpt><trkpt lat="40.307454853491755" lon="8.977429413581786"><ele>240.0</ele><time>2026-04-11T12:38:17Z</time></trkpt><trkpt lat="40.30759738474007" lon="8.977684299957097"><ele>237.0</ele><time>2026-04-11T12:38:18Z</time></trkpt><trkpt lat="40.30773405012187" lon="8.97793933519798"><ele>234.0</ele><time>2026-04-11T12:38:19Z</time></trkpt><trkpt lat="40.30786573256953" lon="8.9781991385536"><ele>233.0</ele><time>2026-04-11T12:38:20Z</time></trkpt><trkpt lat="40.307989167099784" lon="8.978465836006043"><ele>232.0</ele><time>2026-04-11T12:38:21Z</time></trkpt><trkpt lat="40.30810579267787" lon="8.978732513492458"><ele>234.5</ele><time>2026-04-11T12:38:22Z</time></trkpt><trkpt lat="40.30822275314552" lon="8.979001022791895"><ele>237.0</ele><time>2026-04-11T12:38:23Z</time></trkpt><trkpt lat="40.308340543011674" lon="8.979268198694466"><ele>237.0</ele><time>2026-04-11T12:38:24Z</time></trkpt><trkpt lat="40.30845842052746" lon="8.979535800674054"><ele>237.0</ele><time>2026-04-11T12:38:25Z</time></trkpt><trkpt lat="40.30857495825899" lon="8.979801218348156"><ele>237.0</ele><time>2026-04-11T12:38:26Z</time></trkpt><trkpt lat="40.308691301409326" lon="8.980062142611352"><ele>237.0</ele><time>2026-04-11T12:38:27Z</time></trkpt><trkpt lat="40.30880671253215" lon="8.980322962087328"><ele>238.5</ele><time>2026-04-11T12:38:28Z</time></trkpt><trkpt lat="40.30892371419231" lon="8.980583302292299"><ele>240.0</ele><time>2026-04-11T12:38:29Z</time></trkpt><trkpt lat="40.309041800276525" lon="8.980840633227736"><ele>238.0</ele><time>2026-04-11T12:38:30Z</time></trkpt><trkpt lat="40.30915930677653" lon="8.981097566931036"><ele>236.0</ele><time>2026-04-11T12:38:31Z</time></trkpt><trkpt lat="40.3092756326609" lon="8.981353000320809"><ele>236.0</ele><time>2026-04-11T12:38:32Z</time></trkpt><trkpt lat="40.309390676192855" lon="8.981607271242016"><ele>236.0</ele><time>2026-04-11T12:38:33Z</time></trkpt><trkpt lat="40.30950515572576" lon="8.981859950756737"><ele>235.33333333333334</ele><time>2026-04-11T12:38:34Z</time></trkpt><trkpt lat="40.30961745620098" lon="8.982111700084376"><ele>234.66666666666669</ele><time>2026-04-11T12:38:35Z</time></trkpt><trkpt lat="40.30972575266029" lon="8.982361923764893"><ele>234.0</ele><time>2026-04-11T12:38:36Z</time></trkpt><trkpt lat="40.30982396654272" lon="8.982619571042182"><ele>234.0</ele><time>2026-04-11T12:38:37Z</time></trkpt><trkpt lat="40.30990163138496" lon="8.982887894166893"><ele>234.0</ele><time>2026-04-11T12:38:38Z</time></trkpt><trkpt lat="40.30995961953607" lon="8.983168603314766"><ele>234.0</ele><time>2026-04-11T12:38:39Z</time></trkpt><trkpt lat="40.309997205292774" lon="8.983456641237353"><ele>234.0</ele><time>2026-04-11T12:38:40Z</time></trkpt><trkpt lat="40.31001317557877" lon="8.983746787443001"><ele>234.0</ele><time>2026-04-11T12:38:41Z</time></trkpt><trkpt lat="40.310006339222504" lon="8.98403734343957"><ele>234.0</ele><time>2026-04-11T12:38:42Z</time></trkpt><trkpt lat="40.309979629334684" lon="8.984328714144242"><ele>235.66666666666669</ele><time>2026-04-11T12:38:43Z</time></trkpt><trkpt lat="40.30993091078321" lon="8.984615351822404"><ele>237.33333333333334</ele><time>2026-04-11T12:38:44Z</time></trkpt><trkpt lat="40.30985714027306" lon="8.984894634867032"><ele>239.0</ele><time>2026-04-11T12:38:45Z</time></trkpt><trkpt lat="40.30975834382597" lon="8.985160301799068"><ele>239.66666666666669</ele><time>2026-04-11T12:38:46Z</time></trkpt><trkpt lat="40.30967141854742" lon="8.985423976430072"><ele>240.33333333333331</ele><time>2026-04-11T12:38:47Z</time></trkpt><trkpt lat="40.30952991170628" lon="8.98566006682801"><ele>241.0</ele><time>2026-04-11T12:38:48Z</time></trkpt><trkpt lat="40.30941996964603" lon="8.98591060805755"><ele>241.0</ele><time>2026-04-11T12:38:49Z</time></trkpt><trkpt lat="40.309312244575956" lon="8.986159347935567"><ele>241.0</ele><time>2026-04-11T12:38:50Z</time></trkpt><trkpt lat="40.30920430481232" lon="8.98640634554405"><ele>241.0</ele><time>2026-04-11T12:38:51Z</time></trkpt><trkpt lat="40.30910014473309" lon="8.986655351518047"><ele>242.0</ele><time>2026-04-11T12:38:52Z</time></trkpt><trkpt lat="40.309015556102" lon="8.986917307213147"><ele>243.0</ele><time>2026-04-11T12:38:53Z</time></trkpt><trkpt lat="40.30896395400835" lon="8.987197227182712"><ele>244.0</ele><time>2026-04-11T12:38:54Z</time></trkpt><trkpt lat="40.308933487115404" lon="8.98748798426186"><ele>244.0</ele><time>2026-04-11T12:38:55Z</time></trkpt><trkpt lat="40.30892576525398" lon="8.987783535173364"><ele>244.0</ele><time>2026-04-11T12:38:56Z</time></trkpt><trkpt lat="40.30894840615689" lon="8.988082585664088"><ele>243.0</ele><time>2026-04-11T12:38:57Z</time></trkpt><trkpt lat="40.309000891584375" lon="8.98837918164301"><ele>242.0</ele><time>2026-04-11T12:38:58Z</time></trkpt><trkpt lat="40.30907819074746" lon="8.988670619105784"><ele>242.0</ele><time>2026-04-11T12:38:59Z</time></trkpt><trkpt lat="40.30916375978351" lon="8.988962180904162"><ele>242.0</ele><time>2026-04-11T12:39:00Z</time></trkpt><trkpt lat="40.30924141274934" lon="8.989257431233545"><ele>240.5</ele><time>2026-04-11T12:39:01Z</time></trkpt><trkpt lat="40.309314167162256" lon="8.989560030818534"><ele>239.0</ele><time>2026-04-11T12:39:02Z</time></trkpt><trkpt lat="40.30939146792092" lon="8.989864183594955"><ele>235.0</ele><time>2026-04-11T12:39:03Z</time></trkpt><trkpt lat="40.30947554067385" lon="8.990170582630771"><ele>231.0</ele><time>2026-04-11T12:39:04Z</time></trkpt><trkpt lat="40.309557666779085" lon="8.990474772124001"><ele>231.0</ele><time>2026-04-11T12:39:05Z</time></trkpt><trkpt lat="40.30963794743798" lon="8.990783400001911"><ele>231.0</ele><time>2026-04-11T12:39:06Z</time></trkpt><trkpt lat="40.30971700740824" lon="8.991091670361948"><ele>230.5</ele><time>2026-04-11T12:39:07Z</time></trkpt><trkpt lat="40.30979896507566" lon="8.991402513487003"><ele>230.0</ele><time>2026-04-11T12:39:08Z</time></trkpt><trkpt lat="40.309882516522364" lon="8.991712619089725"><ele>228.5</ele><time>2026-04-11T12:39:09Z</time></trkpt><trkpt lat="40.309966320194334" lon="8.992021845599488"><ele>227.0</ele><time>2026-04-11T12:39:10Z</time></trkpt><trkpt lat="40.310049564075804" lon="8.992332059828508"><ele>226.5</ele><time>2026-04-11T12:39:11Z</time></trkpt><trkpt lat="40.31012915923564" lon="8.992645331359912"><ele>226.0</ele><time>2026-04-11T12:39:12Z</time></trkpt><trkpt lat="40.31020553514723" lon="8.992959325013135"><ele>226.0</ele><time>2026-04-11T12:39:13Z</time></trkpt><trkpt lat="40.3102856016455" lon="8.993272019549073"><ele>226.0</ele><time>2026-04-11T12:39:14Z</time></trkpt><trkpt lat="40.31037005851818" lon="8.993583376602151"><ele>224.5</ele><time>2026-04-11T12:39:15Z</time></trkpt><trkpt lat="40.31045538084207" lon="8.993895885001834"><ele>223.0</ele><time>2026-04-11T12:39:16Z</time></trkpt><trkpt lat="40.3105383521336" lon="8.99421321748903"><ele>224.0</ele><time>2026-04-11T12:39:17Z</time></trkpt><trkpt lat="40.310618923948994" lon="8.994533216524859"><ele>225.0</ele><time>2026-04-11T12:39:18Z</time></trkpt><trkpt lat="40.310698608000564" lon="8.994857882766677"><ele>225.0</ele><time>2026-04-11T12:39:19Z</time></trkpt><trkpt lat="40.31078223499622" lon="8.995180355244123"><ele>225.0</ele><time>2026-04-11T12:39:20Z</time></trkpt><trkpt lat="40.31086744755232" lon="8.995501872846612"><ele>225.0</ele><time>2026-04-11T12:39:21Z</time></trkpt><trkpt lat="40.31095230819236" lon="8.995825236167153"><ele>225.0</ele><time>2026-04-11T12:39:22Z</time></trkpt><trkpt lat="40.311037663429865" lon="8.996151840949608"><ele>223.0</ele><time>2026-04-11T12:39:23Z</time></trkpt><trkpt lat="40.31112242578961" lon="8.996479502602371"><ele>221.0</ele><time>2026-04-11T12:39:24Z</time></trkpt><trkpt lat="40.31120902317895" lon="8.996807119706176"><ele>220.0</ele><time>2026-04-11T12:39:25Z</time></trkpt><trkpt lat="40.311296555986644" lon="8.997136762119256"><ele>219.0</ele><time>2026-04-11T12:39:26Z</time></trkpt><trkpt lat="40.311384874074214" lon="8.99747008152166"><ele>219.5</ele><time>2026-04-11T12:39:27Z</time></trkpt><trkpt lat="40.311474290793264" lon="8.997806471644862"><ele>220.0</ele><time>2026-04-11T12:39:28Z</time></trkpt><trkpt lat="40.31156450836988" lon="8.998146598675929"><ele>219.5</ele><time>2026-04-11T12:39:29Z</time></trkpt><trkpt lat="40.31165246148447" lon="8.998490603181041"><ele>219.0</ele><time>2026-04-11T12:39:30Z</time></trkpt><trkpt lat="40.31173867683935" lon="8.998840178492912"><ele>218.0</ele><time>2026-04-11T12:39:31Z</time></trkpt><trkpt lat="40.31182683958825" lon="8.999188302046866"><ele>217.0</ele><time>2026-04-11T12:39:32Z</time></trkpt><trkpt lat="40.31192140901722" lon="8.999533606685487"><ele>217.0</ele><time>2026-04-11T12:39:33Z</time></trkpt><trkpt lat="40.31202407031064" lon="8.999883493147168"><ele>217.0</ele><time>2026-04-11T12:39:34Z</time></trkpt><trkpt lat="40.312135581525816" lon="9.000232403053799"><ele>217.5</ele><time>2026-04-11T12:39:35Z</time></trkpt><trkpt lat="40.312269695411054" lon="9.000569590164561"><ele>218.0</ele><time>2026-04-11T12:39:36Z</time></trkpt><trkpt lat="40.31241896750004" lon="9.000893036632696"><ele>218.0</ele><time>2026-04-11T12:39:37Z</time></trkpt><trkpt lat="40.31258457513618" lon="9.001199206099725"><ele>218.0</ele><time>2026-04-11T12:39:38Z</time></trkpt><trkpt lat="40.31276909893179" lon="9.001490734916283"><ele>217.5</ele><time>2026-04-11T12:39:39Z</time></trkpt><trkpt lat="40.312966676436545" lon="9.001772237442362"><ele>217.0</ele><time>2026-04-11T12:39:40Z</time></trkpt><trkpt lat="40.31316738220513" lon="9.002058401651064"><ele>218.0</ele><time>2026-04-11T12:39:41Z</time></trkpt><trkpt lat="40.31336345204192" lon="9.0023470955497"><ele>219.0</ele><time>2026-04-11T12:39:42Z</time></trkpt><trkpt lat="40.31356496484021" lon="9.002639654236745"><ele>219.0</ele><time>2026-04-11T12:39:43Z</time></trkpt><trkpt lat="40.31376664526884" lon="9.002934927812815"><ele>219.0</ele><time>2026-04-11T12:39:44Z</time></trkpt><trkpt lat="40.31397225033469" lon="9.003237935839834"><ele>217.5</ele><time>2026-04-11T12:39:45Z</time></trkpt><trkpt lat="40.31417448168058" lon="9.00354351924733"><ele>216.0</ele><time>2026-04-11T12:39:46Z</time></trkpt><trkpt lat="40.31437670208755" lon="9.003840627132746"><ele>216.0</ele><time>2026-04-11T12:39:47Z</time></trkpt><trkpt lat="40.314574919403476" lon="9.004134533158688"><ele>216.0</ele><time>2026-04-11T12:39:48Z</time></trkpt><trkpt lat="40.31477097116632" lon="9.004420990067858"><ele>214.5</ele><time>2026-04-11T12:39:49Z</time></trkpt><trkpt lat="40.31496289816702" lon="9.004704020591364"><ele>213.0</ele><time>2026-04-11T12:39:50Z</time></trkpt><trkpt lat="40.31515362152325" lon="9.004985238946796"><ele>213.5</ele><time>2026-04-11T12:39:51Z</time></trkpt><trkpt lat="40.315342272709245" lon="9.00526096281054"><ele>214.0</ele><time>2026-04-11T12:39:52Z</time></trkpt><trkpt lat="40.315525385807554" lon="9.005526758004795"><ele>214.0</ele><time>2026-04-11T12:39:53Z</time></trkpt><trkpt lat="40.315702805792675" lon="9.005786244036594"><ele>214.0</ele><time>2026-04-11T12:39:54Z</time></trkpt><trkpt lat="40.315873167308695" lon="9.006044181638435"><ele>214.0</ele><time>2026-04-11T12:39:55Z</time></trkpt><trkpt lat="40.316027616629164" lon="9.006307108014697"><ele>214.0</ele><time>2026-04-11T12:39:56Z</time></trkpt><trkpt lat="40.31616058859489" lon="9.006582844764942"><ele>213.5</ele><time>2026-04-11T12:39:57Z</time></trkpt><trkpt lat="40.3162695916598" lon="9.006881666191044"><ele>213.0</ele><time>2026-04-11T12:39:58Z</time></trkpt><trkpt lat="40.31635267353129" lon="9.00719481196479"><ele>210.5</ele><time>2026-04-11T12:39:59Z</time></trkpt><trkpt lat="40.31641182561752" lon="9.007523285245897"><ele>208.0</ele><time>2026-04-11T12:40:00Z</time></trkpt><trkpt lat="40.316444117307476" lon="9.007861899432523"><ele>208.0</ele><time>2026-04-11T12:40:01Z</time></trkpt><trkpt lat="40.31644341615464" lon="9.008207475735817"><ele>208.0</ele><time>2026-04-11T12:40:02Z</time></trkpt><trkpt lat="40.31641253669951" lon="9.008549681098241"><ele>208.0</ele><time>2026-04-11T12:40:03Z</time></trkpt><trkpt lat="40.316367416995035" lon="9.008890979645045"><ele>208.0</ele><time>2026-04-11T12:40:04Z</time></trkpt><trkpt lat="40.316327086110014" lon="9.009225543787649"><ele>205.5</ele><time>2026-04-11T12:40:05Z</time></trkpt><trkpt lat="40.31628923774365" lon="9.00956577691866"><ele>203.0</ele><time>2026-04-11T12:40:06Z</time></trkpt><trkpt lat="40.31625424005305" lon="9.009903506036691"><ele>201.5</ele><time>2026-04-11T12:40:07Z</time></trkpt><trkpt lat="40.31621388376247" lon="9.010240735046446"><ele>200.0</ele><time>2026-04-11T12:40:08Z</time></trkpt><trkpt lat="40.3161705840402" lon="9.010576843126177"><ele>201.5</ele><time>2026-04-11T12:40:09Z</time></trkpt><trkpt lat="40.316126611214855" lon="9.010911693436455"><ele>203.0</ele><time>2026-04-11T12:40:10Z</time></trkpt><trkpt lat="40.316080681794425" lon="9.01124590499144"><ele>203.0</ele><time>2026-04-11T12:40:11Z</time></trkpt><trkpt lat="40.316026551845376" lon="9.011579447606188"><ele>203.0</ele><time>2026-04-11T12:40:12Z</time></trkpt><trkpt lat="40.31596118141501" lon="9.011908252108244"><ele>204.0</ele><time>2026-04-11T12:40:13Z</time></trkpt><trkpt lat="40.31588990116692" lon="9.012237389207828"><ele>205.0</ele><time>2026-04-11T12:40:14Z</time></trkpt><trkpt lat="40.31581471033779" lon="9.012563148225714"><ele>205.0</ele><time>2026-04-11T12:40:15Z</time></trkpt><trkpt lat="40.31573113788157" lon="9.012886693579281"><ele>205.0</ele><time>2026-04-11T12:40:16Z</time></trkpt><trkpt lat="40.31564290206537" lon="9.013208499123678"><ele>202.0</ele><time>2026-04-11T12:40:17Z</time></trkpt><trkpt lat="40.31555137312129" lon="9.01353103227134"><ele>199.0</ele><time>2026-04-11T12:40:18Z</time></trkpt><trkpt lat="40.31545933836284" lon="9.013853282240929"><ele>198.5</ele><time>2026-04-11T12:40:19Z</time></trkpt><trkpt lat="40.31536673143232" lon="9.014172642412287"><ele>198.0</ele><time>2026-04-11T12:40:20Z</time></trkpt><trkpt lat="40.31527321668725" lon="9.014489461804013"><ele>198.0</ele><time>2026-04-11T12:40:21Z</time></trkpt><trkpt lat="40.31518911954668" lon="9.014799275395612"><ele>198.0</ele><time>2026-04-11T12:40:22Z</time></trkpt><trkpt lat="40.31512842370022" lon="9.015105377687593"><ele>201.0</ele><time>2026-04-11T12:40:23Z</time></trkpt><trkpt lat="40.31510256267146" lon="9.01541224300844"><ele>204.0</ele><time>2026-04-11T12:40:24Z</time></trkpt><trkpt lat="40.31510793142552" lon="9.015721082928543"><ele>206.0</ele><time>2026-04-11T12:40:25Z</time></trkpt><trkpt lat="40.315143367937054" lon="9.01602102386468"><ele>208.0</ele><time>2026-04-11T12:40:26Z</time></trkpt><trkpt lat="40.31520626129972" lon="9.01631758242177"><ele>208.0</ele><time>2026-04-11T12:40:27Z</time></trkpt><trkpt lat="40.31529781761025" lon="9.016602643677137"><ele>208.0</ele><time>2026-04-11T12:40:28Z</time></trkpt><trkpt lat="40.31540423135982" lon="9.016877569500078"><ele>207.0</ele><time>2026-04-11T12:40:29Z</time></trkpt><trkpt lat="40.31551187310607" lon="9.017150980806159"><ele>206.0</ele><time>2026-04-11T12:40:30Z</time></trkpt><trkpt lat="40.31561351452891" lon="9.017421424801862"><ele>208.0</ele><time>2026-04-11T12:40:31Z</time></trkpt><trkpt lat="40.315711726160835" lon="9.017691468149991"><ele>210.0</ele><time>2026-04-11T12:40:32Z</time></trkpt><trkpt lat="40.315814961643106" lon="9.01795907755942"><ele>210.0</ele><time>2026-04-11T12:40:33Z</time></trkpt><trkpt lat="40.31592953794356" lon="9.018216327674654"><ele>210.0</ele><time>2026-04-11T12:40:34Z</time></trkpt><trkpt lat="40.31606440560475" lon="9.018439633740613"><ele>210.0</ele><time>2026-04-11T12:40:35Z</time></trkpt><trkpt lat="40.31622252566314" lon="9.018644475394565"><ele>210.5</ele><time>2026-04-11T12:40:36Z</time></trkpt><trkpt lat="40.31640223516552" lon="9.018825753828345"><ele>211.0</ele><time>2026-04-11T12:40:37Z</time></trkpt><trkpt lat="40.31659979790043" lon="9.018983795354519"><ele>212.5</ele><time>2026-04-11T12:40:38Z</time></trkpt><trkpt lat="40.31681278029024" lon="9.019112905180195"><ele>214.0</ele><time>2026-04-11T12:40:39Z</time></trkpt><trkpt lat="40.317040069886716" lon="9.019203813062031"><ele>215.5</ele><time>2026-04-11T12:40:40Z</time></trkpt><trkpt lat="40.31727378394791" lon="9.019259502006348"><ele>217.0</ele><time>2026-04-11T12:40:41Z</time></trkpt><trkpt lat="40.31750444795313" lon="9.019304399642344"><ele>217.0</ele><time>2026-04-11T12:40:42Z</time></trkpt><trkpt lat="40.31772477170088" lon="9.019357685918303"><ele>217.0</ele><time>2026-04-11T12:40:43Z</time></trkpt><trkpt lat="40.31794334601949" lon="9.019413539781624"><ele>217.0</ele><time>2026-04-11T12:40:44Z</time></trkpt><trkpt lat="40.318162395516445" lon="9.0194693255458"><ele>215.66666666666666</ele><time>2026-04-11T12:40:45Z</time></trkpt><trkpt lat="40.31838077987673" lon="9.01952528394073"><ele>214.33333333333331</ele><time>2026-04-11T12:40:46Z</time></trkpt><trkpt lat="40.31859262946091" lon="9.019607233940455"><ele>213.0</ele><time>2026-04-11T12:40:47Z</time></trkpt><trkpt lat="40.31879591756035" lon="9.019729416213865"><ele>213.0</ele><time>2026-04-11T12:40:48Z</time></trkpt><trkpt lat="40.31899208353899" lon="9.019877910996593"><ele>213.0</ele><time>2026-04-11T12:40:49Z</time></trkpt><trkpt lat="40.31917743728031" lon="9.020050390599243"><ele>212.0</ele><time>2026-04-11T12:40:50Z</time></trkpt><trkpt lat="40.31934682216815" lon="9.020250222920678"><ele>211.0</ele><time>2026-04-11T12:40:51Z</time></trkpt><trkpt lat="40.31949614622816" lon="9.02047724026481"><ele>211.0</ele><time>2026-04-11T12:40:52Z</time></trkpt><trkpt lat="40.31961721442358" lon="9.020732430027865"><ele>211.0</ele><time>2026-04-11T12:40:53Z</time></trkpt><trkpt lat="40.319712986720496" lon="9.02100982381482"><ele>209.5</ele><time>2026-04-11T12:40:54Z</time></trkpt><trkpt lat="40.31978302427567" lon="9.021305654612664"><ele>208.0</ele><time>2026-04-11T12:40:55Z</time></trkpt><trkpt lat="40.31981966125037" lon="9.021610790659182"><ele>210.0</ele><time>2026-04-11T12:40:56Z</time></trkpt><trkpt lat="40.31983079151051" lon="9.021916968238575"><ele>212.0</ele><time>2026-04-11T12:40:57Z</time></trkpt><trkpt lat="40.319821950729064" lon="9.022226765194075"><ele>212.0</ele><time>2026-04-11T12:40:58Z</time></trkpt><trkpt lat="40.31980690490652" lon="9.022536088946868"><ele>212.0</ele><time>2026-04-11T12:40:59Z</time></trkpt><trkpt lat="40.31979149748717" lon="9.02284761091526"><ele>212.0</ele><time>2026-04-11T12:41:00Z</time></trkpt><trkpt lat="40.31977477740207" lon="9.023162486060352"><ele>212.0</ele><time>2026-04-11T12:41:01Z</time></trkpt><trkpt lat="40.31975921346885" lon="9.023475505619171"><ele>212.5</ele><time>2026-04-11T12:41:02Z</time></trkpt><trkpt lat="40.31974494459731" lon="9.023787404266125"><ele>213.0</ele><time>2026-04-11T12:41:03Z</time></trkpt><trkpt lat="40.31972906442696" lon="9.024101899815555"><ele>212.0</ele><time>2026-04-11T12:41:04Z</time></trkpt><trkpt lat="40.31971150786076" lon="9.02441739207514"><ele>211.0</ele><time>2026-04-11T12:41:05Z</time></trkpt><trkpt lat="40.319692186924364" lon="9.024731933606095"><ele>212.5</ele><time>2026-04-11T12:41:06Z</time></trkpt><trkpt lat="40.319674793664106" lon="9.02504822486926"><ele>214.0</ele><time>2026-04-11T12:41:07Z</time></trkpt><trkpt lat="40.31966926927894" lon="9.02536118035355"><ele>214.0</ele><time>2026-04-11T12:41:08Z</time></trkpt><trkpt lat="40.3196845079364" lon="9.025670527444307"><ele>214.0</ele><time>2026-04-11T12:41:09Z</time></trkpt><trkpt lat="40.31973076131577" lon="9.025979593663163"><ele>218.5</ele><time>2026-04-11T12:41:10Z</time></trkpt><trkpt lat="40.319812237735384" lon="9.02628248168423"><ele>223.0</ele><time>2026-04-11T12:41:11Z</time></trkpt><trkpt lat="40.319926309165865" lon="9.026572802571112"><ele>222.0</ele><time>2026-04-11T12:41:12Z</time></trkpt><trkpt lat="40.32006554629145" lon="9.026845591159212"><ele>221.0</ele><time>2026-04-11T12:41:13Z</time></trkpt><trkpt lat="40.32022638836921" lon="9.02709210503158"><ele>221.0</ele><time>2026-04-11T12:41:14Z</time></trkpt><trkpt lat="40.320414056733746" lon="9.027307828048455"><ele>221.0</ele><time>2026-04-11T12:41:15Z</time></trkpt><trkpt lat="40.320621835371625" lon="9.02748747538706"><ele>218.5</ele><time>2026-04-11T12:41:16Z</time></trkpt><trkpt lat="40.320848358192755" lon="9.027625025063896"><ele>216.0</ele><time>2026-04-11T12:41:17Z</time></trkpt><trkpt lat="40.32108491076142" lon="9.027737336524533"><ele>216.0</ele><time>2026-04-11T12:41:18Z</time></trkpt><trkpt lat="40.321313456504825" lon="9.02785350396134"><ele>216.0</ele><time>2026-04-11T12:41:19Z</time></trkpt><trkpt lat="40.32153238842334" lon="9.027978779461117"><ele>214.0</ele><time>2026-04-11T12:41:20Z</time></trkpt><trkpt lat="40.32174672280533" lon="9.028106570874927"><ele>212.0</ele><time>2026-04-11T12:41:21Z</time></trkpt><trkpt lat="40.32196283147009" lon="9.028231561647088"><ele>208.0</ele><time>2026-04-11T12:41:22Z</time></trkpt><trkpt lat="40.322183943986964" lon="9.028353761730767"><ele>204.0</ele><time>2026-04-11T12:41:23Z</time></trkpt><trkpt lat="40.32240638999664" lon="9.02847268206113"><ele>204.0</ele><time>2026-04-11T12:41:24Z</time></trkpt><trkpt lat="40.32262959844799" lon="9.028600411609379"><ele>204.0</ele><time>2026-04-11T12:41:25Z</time></trkpt><trkpt lat="40.32285414161651" lon="9.028724832089328"><ele>204.5</ele><time>2026-04-11T12:41:26Z</time></trkpt><trkpt lat="40.323079154894856" lon="9.028847922701841"><ele>205.0</ele><time>2026-04-11T12:41:27Z</time></trkpt><trkpt lat="40.32329619978809" lon="9.028966387223134"><ele>205.0</ele><time>2026-04-11T12:41:28Z</time></trkpt><trkpt lat="40.32351574397164" lon="9.029091949084869"><ele>205.0</ele><time>2026-04-11T12:41:29Z</time></trkpt><trkpt lat="40.32373265974547" lon="9.029227535919324"><ele>200.0</ele><time>2026-04-11T12:41:30Z</time></trkpt><trkpt lat="40.32394554764897" lon="9.029378232181688"><ele>195.0</ele><time>2026-04-11T12:41:31Z</time></trkpt><trkpt lat="40.324150573652624" lon="9.029548579390633"><ele>195.0</ele><time>2026-04-11T12:41:32Z</time></trkpt><trkpt lat="40.32434086818628" lon="9.029743377980726"><ele>195.0</ele><time>2026-04-11T12:41:33Z</time></trkpt><trkpt lat="40.32451247537161" lon="9.029962304438605"><ele>194.0</ele><time>2026-04-11T12:41:34Z</time></trkpt><trkpt lat="40.324662382008285" lon="9.030199973368614"><ele>193.0</ele><time>2026-04-11T12:41:35Z</time></trkpt><trkpt lat="40.32479221724957" lon="9.030447848183254"><ele>192.66666666666666</ele><time>2026-04-11T12:41:36Z</time></trkpt><trkpt lat="40.324902567718006" lon="9.030695800453705"><ele>192.33333333333331</ele><time>2026-04-11T12:41:37Z</time></trkpt><trkpt lat="40.32499158050772" lon="9.030950712968487"><ele>192.0</ele><time>2026-04-11T12:41:38Z</time></trkpt><trkpt lat="40.32506513328791" lon="9.031211588448679"><ele>190.33333333333334</ele><time>2026-04-11T12:41:39Z</time></trkpt><trkpt lat="40.325132176390454" lon="9.031478568873968"><ele>188.66666666666669</ele><time>2026-04-11T12:41:40Z</time></trkpt><trkpt lat="40.32520486308575" lon="9.031749442525502"><ele>187.0</ele><time>2026-04-11T12:41:41Z</time></trkpt><trkpt lat="40.325279895414695" lon="9.03202889256205"><ele>186.0</ele><time>2026-04-11T12:41:42Z</time></trkpt><trkpt lat="40.325356441647" lon="9.032315343187014"><ele>185.0</ele><time>2026-04-11T12:41:43Z</time></trkpt><trkpt lat="40.325431441838916" lon="9.032609864913415"><ele>184.0</ele><time>2026-04-11T12:41:44Z</time></trkpt><trkpt lat="40.325508914181164" lon="9.032905600760914"><ele>183.0</ele><time>2026-04-11T12:41:45Z</time></trkpt><trkpt lat="40.32558743335399" lon="9.033203299607422"><ele>182.0</ele><time>2026-04-11T12:41:46Z</time></trkpt><trkpt lat="40.325666910196425" lon="9.033505752279087"><ele>181.0</ele><time>2026-04-11T12:41:47Z</time></trkpt><trkpt lat="40.32574548650572" lon="9.033810709265058"><ele>181.0</ele><time>2026-04-11T12:41:48Z</time></trkpt><trkpt lat="40.32582294311292" lon="9.034114175669991"><ele>181.0</ele><time>2026-04-11T12:41:49Z</time></trkpt><trkpt lat="40.3258999651639" lon="9.034420249829857"><ele>181.0</ele><time>2026-04-11T12:41:50Z</time></trkpt><trkpt lat="40.32597933424943" lon="9.034727666076432"><ele>181.0</ele><time>2026-04-11T12:41:51Z</time></trkpt><trkpt lat="40.32606037473479" lon="9.035034720399526"><ele>181.0</ele><time>2026-04-11T12:41:52Z</time></trkpt><trkpt lat="40.32613910240561" lon="9.035343927006949"><ele>181.0</ele><time>2026-04-11T12:41:53Z</time></trkpt><trkpt lat="40.326217087613685" lon="9.03565109722946"><ele>182.0</ele><time>2026-04-11T12:41:54Z</time></trkpt><trkpt lat="40.3262971244232" lon="9.035955839195035"><ele>183.0</ele><time>2026-04-11T12:41:55Z</time></trkpt><trkpt lat="40.32637926786187" lon="9.03626319152486"><ele>182.5</ele><time>2026-04-11T12:41:56Z</time></trkpt><trkpt lat="40.326463766819984" lon="9.036570045806457"><ele>182.0</ele><time>2026-04-11T12:41:57Z</time></trkpt><trkpt lat="40.326548192317105" lon="9.036878300161591"><ele>183.0</ele><time>2026-04-11T12:41:58Z</time></trkpt><trkpt lat="40.32662799314832" lon="9.037190637318977"><ele>184.0</ele><time>2026-04-11T12:41:59Z</time></trkpt><trkpt lat="40.32670623301744" lon="9.037506484887087"><ele>184.0</ele><time>2026-04-11T12:42:00Z</time></trkpt><trkpt lat="40.32678382867905" lon="9.037824030763659"><ele>184.0</ele><time>2026-04-11T12:42:01Z</time></trkpt><trkpt lat="40.32685968629896" lon="9.038143216860396"><ele>183.5</ele><time>2026-04-11T12:42:02Z</time></trkpt><trkpt lat="40.32692987276352" lon="9.03846488797113"><ele>183.0</ele><time>2026-04-11T12:42:03Z</time></trkpt><trkpt lat="40.32699016414997" lon="9.038789537878827"><ele>183.0</ele><time>2026-04-11T12:42:04Z</time></trkpt><trkpt lat="40.327041451138705" lon="9.039118082104523"><ele>183.0</ele><time>2026-04-11T12:42:05Z</time></trkpt><trkpt lat="40.32708889727998" lon="9.03944687483899"><ele>183.5</ele><time>2026-04-11T12:42:06Z</time></trkpt><trkpt lat="40.32713289637733" lon="9.039776611789371"><ele>184.0</ele><time>2026-04-11T12:42:07Z</time></trkpt><trkpt lat="40.32717412471531" lon="9.04009772952717"><ele>187.5</ele><time>2026-04-11T12:42:08Z</time></trkpt><trkpt lat="40.32721503315415" lon="9.040409941582233"><ele>191.0</ele><time>2026-04-11T12:42:09Z</time></trkpt><trkpt lat="40.32725703370013" lon="9.04070512736268"><ele>193.66666666666666</ele><time>2026-04-11T12:42:10Z</time></trkpt><trkpt lat="40.32729782922319" lon="9.040994165941374"><ele>196.33333333333331</ele><time>2026-04-11T12:42:11Z</time></trkpt><trkpt lat="40.32733516841616" lon="9.041278961606132"><ele>199.0</ele><time>2026-04-11T12:42:12Z</time></trkpt><trkpt lat="40.32736844877325" lon="9.041560229607278"><ele>197.66666666666666</ele><time>2026-04-11T12:42:13Z</time></trkpt><trkpt lat="40.327403303525365" lon="9.041839905341691"><ele>196.33333333333331</ele><time>2026-04-11T12:42:14Z</time></trkpt><trkpt lat="40.32744211398915" lon="9.042117822716317"><ele>195.0</ele><time>2026-04-11T12:42:15Z</time></trkpt><trkpt lat="40.32747796085763" lon="9.042401046877716"><ele>194.66666666666669</ele><time>2026-04-11T12:42:16Z</time></trkpt><trkpt lat="40.327514588807354" lon="9.042682947623854"><ele>194.33333333333334</ele><time>2026-04-11T12:42:17Z</time></trkpt><trkpt lat="40.32755244713734" lon="9.042969094798185"><ele>194.0</ele><time>2026-04-11T12:42:18Z</time></trkpt><trkpt lat="40.32759061962266" lon="9.04325908318631"><ele>195.0</ele><time>2026-04-11T12:42:19Z</time></trkpt><trkpt lat="40.32762951535018" lon="9.043548746925286"><ele>196.0</ele><time>2026-04-11T12:42:20Z</time></trkpt><trkpt lat="40.32766752125241" lon="9.043841866826856"><ele>195.5</ele><time>2026-04-11T12:42:21Z</time></trkpt><trkpt lat="40.32770768391723" lon="9.04414108004101"><ele>195.0</ele><time>2026-04-11T12:42:22Z</time></trkpt><trkpt lat="40.32774576628548" lon="9.044438869371879"><ele>195.0</ele><time>2026-04-11T12:42:23Z</time></trkpt><trkpt lat="40.32778479024809" lon="9.044741180007565"><ele>195.0</ele><time>2026-04-11T12:42:24Z</time></trkpt><trkpt lat="40.327823377606414" lon="9.04504654807747"><ele>193.5</ele><time>2026-04-11T12:42:25Z</time></trkpt><trkpt lat="40.32786213821887" lon="9.045357017536114"><ele>192.0</ele><time>2026-04-11T12:42:26Z</time></trkpt><trkpt lat="40.32790408506076" lon="9.045666365146644"><ele>193.5</ele><time>2026-04-11T12:42:27Z</time></trkpt><trkpt lat="40.32794824148749" lon="9.04598057170802"><ele>195.0</ele><time>2026-04-11T12:42:28Z</time></trkpt><trkpt lat="40.32799825922562" lon="9.046291997406627"><ele>195.0</ele><time>2026-04-11T12:42:29Z</time></trkpt><trkpt lat="40.32805631183071" lon="9.046596277799923"><ele>195.0</ele><time>2026-04-11T12:42:30Z</time></trkpt><trkpt lat="40.3281148269598" lon="9.046902847155176"><ele>196.5</ele><time>2026-04-11T12:42:31Z</time></trkpt><trkpt lat="40.328175292814706" lon="9.047208582197547"><ele>198.0</ele><time>2026-04-11T12:42:32Z</time></trkpt><trkpt lat="40.32823357280404" lon="9.047514751724835"><ele>198.5</ele><time>2026-04-11T12:42:33Z</time></trkpt><trkpt lat="40.32828815667594" lon="9.047816182189592"><ele>199.0</ele><time>2026-04-11T12:42:34Z</time></trkpt><trkpt lat="40.32834671921584" lon="9.048119126728418"><ele>202.5</ele><time>2026-04-11T12:42:35Z</time></trkpt><trkpt lat="40.328401387363705" lon="9.048418623414303"><ele>206.0</ele><time>2026-04-11T12:42:36Z</time></trkpt><trkpt lat="40.328456251510424" lon="9.048718308229281"><ele>206.0</ele><time>2026-04-11T12:42:37Z</time></trkpt><trkpt lat="40.328510662493294" lon="9.049017577829648"><ele>206.0</ele><time>2026-04-11T12:42:38Z</time></trkpt><trkpt lat="40.328564194848056" lon="9.049316759513182"><ele>207.0</ele><time>2026-04-11T12:42:39Z</time></trkpt><trkpt lat="40.328616125002874" lon="9.049618487115737"><ele>208.0</ele><time>2026-04-11T12:42:40Z</time></trkpt><trkpt lat="40.328662315860406" lon="9.049922170283304"><ele>207.5</ele><time>2026-04-11T12:42:41Z</time></trkpt><trkpt lat="40.328705474595125" lon="9.050229659358065"><ele>207.0</ele><time>2026-04-11T12:42:42Z</time></trkpt><trkpt lat="40.328750330464786" lon="9.050535665550209"><ele>207.5</ele><time>2026-04-11T12:42:43Z</time></trkpt><trkpt lat="40.328796738609945" lon="9.050844961352809"><ele>208.0</ele><time>2026-04-11T12:42:44Z</time></trkpt><trkpt lat="40.32884081101469" lon="9.051160139472364"><ele>208.0</ele><time>2026-04-11T12:42:45Z</time></trkpt><trkpt lat="40.328890241136584" lon="9.051471033614417"><ele>208.0</ele><time>2026-04-11T12:42:46Z</time></trkpt><trkpt lat="40.32894048593323" lon="9.051782797272999"><ele>210.5</ele><time>2026-04-11T12:42:47Z</time></trkpt><trkpt lat="40.32899057130936" lon="9.052098410433524"><ele>213.0</ele><time>2026-04-11T12:42:48Z</time></trkpt><trkpt lat="40.32903848828535" lon="9.052414337771014"><ele>214.0</ele><time>2026-04-11T12:42:49Z</time></trkpt><trkpt lat="40.32908732871944" lon="9.052734678077996"><ele>215.0</ele><time>2026-04-11T12:42:50Z</time></trkpt><trkpt lat="40.32913549376927" lon="9.053055193061844"><ele>214.5</ele><time>2026-04-11T12:42:51Z</time></trkpt><trkpt lat="40.32918357411078" lon="9.053380838184646"><ele>214.0</ele><time>2026-04-11T12:42:52Z</time></trkpt><trkpt lat="40.32923117527178" lon="9.053705100686052"><ele>214.0</ele><time>2026-04-11T12:42:53Z</time></trkpt><trkpt lat="40.32928036987809" lon="9.054032641492443"><ele>214.0</ele><time>2026-04-11T12:42:54Z</time></trkpt><trkpt lat="40.32933286304185" lon="9.054360367765886"><ele>214.0</ele><time>2026-04-11T12:42:55Z</time></trkpt><trkpt lat="40.32938483191604" lon="9.054688021560768"><ele>214.0</ele><time>2026-04-11T12:42:56Z</time></trkpt><trkpt lat="40.32943803984092" lon="9.055015088433006"><ele>213.5</ele><time>2026-04-11T12:42:57Z</time></trkpt><trkpt lat="40.32948966322132" lon="9.055343263510418"><ele>213.0</ele><time>2026-04-11T12:42:58Z</time></trkpt><trkpt lat="40.329537716383626" lon="9.055664320791893"><ele>214.0</ele><time>2026-04-11T12:42:59Z</time></trkpt><trkpt lat="40.329589335546764" lon="9.055986791936427"><ele>215.0</ele><time>2026-04-11T12:43:00Z</time></trkpt><trkpt lat="40.32963915770362" lon="9.05631108481833"><ele>216.5</ele><time>2026-04-11T12:43:01Z</time></trkpt><trkpt lat="40.32968909783167" lon="9.05663521184"><ele>218.0</ele><time>2026-04-11T12:43:02Z</time></trkpt><trkpt lat="40.32974049963186" lon="9.056958109096628"><ele>221.5</ele><time>2026-04-11T12:43:03Z</time></trkpt><trkpt lat="40.32979119038717" lon="9.057280646343303"><ele>225.0</ele><time>2026-04-11T12:43:04Z</time></trkpt><trkpt lat="40.32984429071766" lon="9.05760382622201"><ele>226.5</ele><time>2026-04-11T12:43:05Z</time></trkpt><trkpt lat="40.329896430456536" lon="9.05792741125744"><ele>228.0</ele><time>2026-04-11T12:43:06Z</time></trkpt><trkpt lat="40.32994897004781" lon="9.05825347004905"><ele>228.5</ele><time>2026-04-11T12:43:07Z</time></trkpt><trkpt lat="40.330005468330775" lon="9.05858274197882"><ele>229.0</ele><time>2026-04-11T12:43:08Z</time></trkpt><trkpt lat="40.33005822509454" lon="9.058913749103674"><ele>231.0</ele><time>2026-04-11T12:43:09Z</time></trkpt><trkpt lat="40.330107440141816" lon="9.059243992167678"><ele>233.0</ele><time>2026-04-11T12:43:10Z</time></trkpt><trkpt lat="40.33015649973216" lon="9.059573080280348"><ele>233.0</ele><time>2026-04-11T12:43:11Z</time></trkpt><trkpt lat="40.33020467784531" lon="9.059903045094856"><ele>233.0</ele><time>2026-04-11T12:43:12Z</time></trkpt><trkpt lat="40.330250255777976" lon="9.060226600298416"><ele>237.0</ele><time>2026-04-11T12:43:13Z</time></trkpt><trkpt lat="40.33030152838497" lon="9.060550646882769"><ele>241.0</ele><time>2026-04-11T12:43:14Z</time></trkpt><trkpt lat="40.33035666256643" lon="9.060873170324586"><ele>242.0</ele><time>2026-04-11T12:43:15Z</time></trkpt><trkpt lat="40.330411569549625" lon="9.061188949374653"><ele>243.0</ele><time>2026-04-11T12:43:16Z</time></trkpt><trkpt lat="40.330462927720866" lon="9.061504235752404"><ele>242.5</ele><time>2026-04-11T12:43:17Z</time></trkpt><trkpt lat="40.330523719647005" lon="9.061830271945205"><ele>242.0</ele><time>2026-04-11T12:43:18Z</time></trkpt><trkpt lat="40.33056719848532" lon="9.062153264561207"><ele>241.5</ele><time>2026-04-11T12:43:19Z</time></trkpt><trkpt lat="40.33061299500028" lon="9.062476693465388"><ele>241.0</ele><time>2026-04-11T12:43:20Z</time></trkpt><trkpt lat="40.33065942987164" lon="9.06279686048959"><ele>241.0</ele><time>2026-04-11T12:43:21Z</time></trkpt><trkpt lat="40.33070596951898" lon="9.063116808350754"><ele>241.0</ele><time>2026-04-11T12:43:22Z</time></trkpt><trkpt lat="40.33075202882619" lon="9.063438663504494"><ele>239.5</ele><time>2026-04-11T12:43:23Z</time></trkpt><trkpt lat="40.3307995569012" lon="9.06375611183999"><ele>238.0</ele><time>2026-04-11T12:43:24Z</time></trkpt><trkpt lat="40.33084117769713" lon="9.06406141864869"><ele>241.0</ele><time>2026-04-11T12:43:25Z</time></trkpt><trkpt lat="40.3308882444977" lon="9.064354921602858"><ele>244.0</ele><time>2026-04-11T12:43:26Z</time></trkpt><trkpt lat="40.33093047772031" lon="9.064639916830936"><ele>244.0</ele><time>2026-04-11T12:43:27Z</time></trkpt><trkpt lat="40.33097405961992" lon="9.064916369885648"><ele>244.0</ele><time>2026-04-11T12:43:28Z</time></trkpt><trkpt lat="40.33101744975325" lon="9.065186819962308"><ele>244.0</ele><time>2026-04-11T12:43:29Z</time></trkpt><trkpt lat="40.331060258991336" lon="9.065453893174338"><ele>244.33333333333331</ele><time>2026-04-11T12:43:30Z</time></trkpt><trkpt lat="40.33110428444844" lon="9.06572161193455"><ele>244.66666666666669</ele><time>2026-04-11T12:43:31Z</time></trkpt><trkpt lat="40.33114671831944" lon="9.06599008045692"><ele>245.0</ele><time>2026-04-11T12:43:32Z</time></trkpt><trkpt lat="40.33118584009729" lon="9.066256830655513"><ele>243.33333333333334</ele><time>2026-04-11T12:43:33Z</time></trkpt><trkpt lat="40.33122359200538" lon="9.066517579587797"><ele>241.66666666666669</ele><time>2026-04-11T12:43:34Z</time></trkpt><trkpt lat="40.33126452260496" lon="9.066772071410321"><ele>240.0</ele><time>2026-04-11T12:43:35Z</time></trkpt><trkpt lat="40.331310965313655" lon="9.067020647397747"><ele>238.0</ele><time>2026-04-11T12:43:36Z</time></trkpt><trkpt lat="40.33135821170135" lon="9.067262879428567"><ele>236.0</ele><time>2026-04-11T12:43:37Z</time></trkpt><trkpt lat="40.3313978478674" lon="9.067505892418376"><ele>234.0</ele><time>2026-04-11T12:43:38Z</time></trkpt><trkpt lat="40.331426698195465" lon="9.06774678483726"><ele>234.0</ele><time>2026-04-11T12:43:39Z</time></trkpt><trkpt lat="40.3314433538795" lon="9.067989681818812"><ele>234.0</ele><time>2026-04-11T12:43:40Z</time></trkpt><trkpt lat="40.331421261245374" lon="9.06822005809793"><ele>234.0</ele><time>2026-04-11T12:43:41Z</time></trkpt><trkpt lat="40.33138159791088" lon="9.068441779327962"><ele>233.0</ele><time>2026-04-11T12:43:42Z</time></trkpt><trkpt lat="40.33131585192181" lon="9.068649462061273"><ele>232.0</ele><time>2026-04-11T12:43:43Z</time></trkpt><trkpt lat="40.33122586150688" lon="9.068845226175183"><ele>231.0</ele><time>2026-04-11T12:43:44Z</time></trkpt><trkpt lat="40.33111880704656" lon="9.069024828746993"><ele>232.0</ele><time>2026-04-11T12:43:45Z</time></trkpt><trkpt lat="40.33099143672812" lon="9.069185351679318"><ele>233.0</ele><time>2026-04-11T12:43:46Z</time></trkpt><trkpt lat="40.33084116183347" lon="9.069323781468123"><ele>234.0</ele><time>2026-04-11T12:43:47Z</time></trkpt><trkpt lat="40.33067568832779" lon="9.069449099659844"><ele>233.66666666666669</ele><time>2026-04-11T12:43:48Z</time></trkpt><trkpt lat="40.330509905806295" lon="9.069585642005894"><ele>233.33333333333334</ele><time>2026-04-11T12:43:49Z</time></trkpt><trkpt lat="40.33034286756443" lon="9.069727850037205"><ele>233.0</ele><time>2026-04-11T12:43:50Z</time></trkpt><trkpt lat="40.330172480467894" lon="9.069873093682295"><ele>233.33333333333334</ele><time>2026-04-11T12:43:51Z</time></trkpt><trkpt lat="40.32999887734722" lon="9.070018792332899"><ele>233.66666666666669</ele><time>2026-04-11T12:43:52Z</time></trkpt><trkpt lat="40.329824829622346" lon="9.070163138820224"><ele>234.0</ele><time>2026-04-11T12:43:53Z</time></trkpt><trkpt lat="40.32965145048546" lon="9.0703102264451"><ele>234.0</ele><time>2026-04-11T12:43:54Z</time></trkpt><trkpt lat="40.32948259156003" lon="9.070466384104941"><ele>234.0</ele><time>2026-04-11T12:43:55Z</time></trkpt><trkpt lat="40.32932290469177" lon="9.070642503740771"><ele>234.0</ele><time>2026-04-11T12:43:56Z</time></trkpt><trkpt lat="40.329177096705074" lon="9.070835557570184"><ele>234.33333333333331</ele><time>2026-04-11T12:43:57Z</time></trkpt><trkpt lat="40.32904107369995" lon="9.071047207724149"><ele>234.66666666666666</ele><time>2026-04-11T12:43:58Z</time></trkpt><trkpt lat="40.32891469791527" lon="9.071272277975163"><ele>235.0</ele><time>2026-04-11T12:43:59Z</time></trkpt><trkpt lat="40.32879590255305" lon="9.071507415698155"><ele>235.66666666666666</ele><time>2026-04-11T12:44:00Z</time></trkpt><trkpt lat="40.32867620921636" lon="9.07174308734156"><ele>236.33333333333331</ele><time>2026-04-11T12:44:01Z</time></trkpt><trkpt lat="40.32855480866169" lon="9.071970871610231"><ele>237.0</ele><time>2026-04-11T12:44:02Z</time></trkpt><trkpt lat="40.328430809248474" lon="9.072196984297314"><ele>237.0</ele><time>2026-04-11T12:44:03Z</time></trkpt><trkpt lat="40.32830928232489" lon="9.072425923468318"><ele>237.0</ele><time>2026-04-11T12:44:04Z</time></trkpt><trkpt lat="40.32820148615873" lon="9.07267600498539"><ele>237.0</ele><time>2026-04-11T12:44:05Z</time></trkpt><trkpt lat="40.328131311986105" lon="9.07293486976917"><ele>238.66666666666669</ele><time>2026-04-11T12:44:06Z</time></trkpt><trkpt lat="40.328083619137594" lon="9.073213743282489"><ele>240.33333333333334</ele><time>2026-04-11T12:44:07Z</time></trkpt><trkpt lat="40.328058202858024" lon="9.073496172143113"><ele>242.0</ele><time>2026-04-11T12:44:08Z</time></trkpt><trkpt lat="40.32805974619269" lon="9.073777296899129"><ele>243.66666666666669</ele><time>2026-04-11T12:44:09Z</time></trkpt><trkpt lat="40.32808761926169" lon="9.074055164682981"><ele>245.33333333333331</ele><time>2026-04-11T12:44:10Z</time></trkpt><trkpt lat="40.328141429468076" lon="9.074327482020202"><ele>247.0</ele><time>2026-04-11T12:44:11Z</time></trkpt><trkpt lat="40.328220802371945" lon="9.07458955519925"><ele>247.33333333333331</ele><time>2026-04-11T12:44:12Z</time></trkpt><trkpt lat="40.32831862597864" lon="9.074838588900038"><ele>247.66666666666669</ele><time>2026-04-11T12:44:13Z</time></trkpt><trkpt lat="40.32843099279686" lon="9.075074674196038"><ele>248.0</ele><time>2026-04-11T12:44:14Z</time></trkpt><trkpt lat="40.32854841213076" lon="9.07530973782561"><ele>248.0</ele><time>2026-04-11T12:44:15Z</time></trkpt><trkpt lat="40.328661183924694" lon="9.075552115658288"><ele>248.0</ele><time>2026-04-11T12:44:16Z</time></trkpt><trkpt lat="40.3287299406382" lon="9.075796152344923"><ele>248.0</ele><time>2026-04-11T12:44:17Z</time></trkpt><trkpt lat="40.32879102556615" lon="9.076049122762734"><ele>247.66666666666669</ele><time>2026-04-11T12:44:18Z</time></trkpt><trkpt lat="40.32878960966768" lon="9.07629760537677"><ele>247.33333333333331</ele><time>2026-04-11T12:44:19Z</time></trkpt><trkpt lat="40.32877731182677" lon="9.076531199314724"><ele>247.0</ele><time>2026-04-11T12:44:20Z</time></trkpt><trkpt lat="40.328740009730396" lon="9.07676657846252"><ele>247.0</ele><time>2026-04-11T12:44:21Z</time></trkpt><trkpt lat="40.32868154163465" lon="9.077000487035896"><ele>247.0</ele><time>2026-04-11T12:44:22Z</time></trkpt><trkpt lat="40.328598845627766" lon="9.077208800642843"><ele>247.0</ele><time>2026-04-11T12:44:23Z</time></trkpt><trkpt lat="40.32849260256456" lon="9.077408249349137"><ele>248.33333333333331</ele><time>2026-04-11T12:44:24Z</time></trkpt><trkpt lat="40.32836758677195" lon="9.077602177074906"><ele>249.66666666666669</ele><time>2026-04-11T12:44:25Z</time></trkpt><trkpt lat="40.328233296542756" lon="9.077802830189158"><ele>251.0</ele><time>2026-04-11T12:44:26Z</time></trkpt><trkpt lat="40.3280870899415" lon="9.07802266469611"><ele>251.0</ele><time>2026-04-11T12:44:27Z</time></trkpt><trkpt lat="40.327928797402976" lon="9.078264485712907"><ele>251.0</ele><time>2026-04-11T12:44:28Z</time></trkpt><trkpt lat="40.32775881479387" lon="9.07852352812768"><ele>253.5</ele><time>2026-04-11T12:44:29Z</time></trkpt><trkpt lat="40.327596943456825" lon="9.078786019797063"><ele>256.0</ele><time>2026-04-11T12:44:30Z</time></trkpt><trkpt lat="40.327421230509614" lon="9.079029112490144"><ele>256.5</ele><time>2026-04-11T12:44:31Z</time></trkpt><trkpt lat="40.32725342094324" lon="9.07927280561189"><ele>257.0</ele><time>2026-04-11T12:44:32Z</time></trkpt><trkpt lat="40.327095811568" lon="9.079521508594572"><ele>257.0</ele><time>2026-04-11T12:44:33Z</time></trkpt><trkpt lat="40.326954715661756" lon="9.079780606812072"><ele>257.0</ele><time>2026-04-11T12:44:34Z</time></trkpt><trkpt lat="40.32683534730714" lon="9.080060310792367"><ele>258.5</ele><time>2026-04-11T12:44:35Z</time></trkpt><trkpt lat="40.32674207989946" lon="9.08037213864018"><ele>260.0</ele><time>2026-04-11T12:44:36Z</time></trkpt><trkpt lat="40.326671049308885" lon="9.080714712049113"><ele>260.5</ele><time>2026-04-11T12:44:37Z</time></trkpt><trkpt lat="40.32660166028993" lon="9.08109029824224"><ele>261.0</ele><time>2026-04-11T12:44:38Z</time></trkpt><trkpt lat="40.32650789057787" lon="9.08146900328405"><ele>263.0</ele><time>2026-04-11T12:44:39Z</time></trkpt><trkpt lat="40.32642862528176" lon="9.081831969502945"><ele>265.0</ele><time>2026-04-11T12:44:40Z</time></trkpt><trkpt lat="40.32634360434214" lon="9.082186386637886"><ele>266.0</ele><time>2026-04-11T12:44:41Z</time></trkpt><trkpt lat="40.326284312574614" lon="9.08255015151386"><ele>267.0</ele><time>2026-04-11T12:44:42Z</time></trkpt><trkpt lat="40.326246750734704" lon="9.082921234746701"><ele>268.5</ele><time>2026-04-11T12:44:43Z</time></trkpt><trkpt lat="40.32622372977742" lon="9.083292842905221"><ele>270.0</ele><time>2026-04-11T12:44:44Z</time></trkpt><trkpt lat="40.3262035565514" lon="9.08366403824977"><ele>270.0</ele><time>2026-04-11T12:44:45Z</time></trkpt><trkpt lat="40.32617666631335" lon="9.084039734734311"><ele>270.0</ele><time>2026-04-11T12:44:46Z</time></trkpt><trkpt lat="40.32614413054245" lon="9.08442620344254"><ele>269.5</ele><time>2026-04-11T12:44:47Z</time></trkpt><trkpt lat="40.32611196390507" lon="9.084825966803594"><ele>269.0</ele><time>2026-04-11T12:44:48Z</time></trkpt><trkpt lat="40.32608095130966" lon="9.085229981750803"><ele>269.0</ele><time>2026-04-11T12:44:49Z</time></trkpt><trkpt lat="40.32605083070354" lon="9.085629735136564"><ele>269.0</ele><time>2026-04-11T12:44:50Z</time></trkpt><trkpt lat="40.3260210641143" lon="9.086013930293726"><ele>269.0</ele><time>2026-04-11T12:44:51Z</time></trkpt><trkpt lat="40.32599159980487" lon="9.086384091406924"><ele>269.0</ele><time>2026-04-11T12:44:52Z</time></trkpt><trkpt lat="40.32596361376445" lon="9.086743167358678"><ele>269.5</ele><time>2026-04-11T12:44:53Z</time></trkpt><trkpt lat="40.325946775044386" lon="9.087094408436817"><ele>270.0</ele><time>2026-04-11T12:44:54Z</time></trkpt><trkpt lat="40.325957628308245" lon="9.08744319899992"><ele>270.5</ele><time>2026-04-11T12:44:55Z</time></trkpt><trkpt lat="40.326006040012594" lon="9.087792962347574"><ele>271.0</ele><time>2026-04-11T12:44:56Z</time></trkpt><trkpt lat="40.326089294473405" lon="9.088138780223066"><ele>272.5</ele><time>2026-04-11T12:44:57Z</time></trkpt><trkpt lat="40.32620692941553" lon="9.088474478731964"><ele>274.0</ele><time>2026-04-11T12:44:58Z</time></trkpt><trkpt lat="40.326356454873675" lon="9.08879721506589"><ele>278.0</ele><time>2026-04-11T12:44:59Z</time></trkpt><trkpt lat="40.326521439702525" lon="9.089102508937838"><ele>282.0</ele><time>2026-04-11T12:45:00Z</time></trkpt><trkpt lat="40.326678161409816" lon="9.089394591819737"><ele>282.0</ele><time>2026-04-11T12:45:01Z</time></trkpt><trkpt lat="40.32682301196464" lon="9.089680303859614"><ele>282.0</ele><time>2026-04-11T12:45:02Z</time></trkpt><trkpt lat="40.326958120188266" lon="9.08996835060906"><ele>280.0</ele><time>2026-04-11T12:45:03Z</time></trkpt><trkpt lat="40.32707991071534" lon="9.090262157800762"><ele>278.0</ele><time>2026-04-11T12:45:04Z</time></trkpt><trkpt lat="40.32717920383098" lon="9.090564282580472"><ele>280.5</ele><time>2026-04-11T12:45:05Z</time></trkpt><trkpt lat="40.32725849260074" lon="9.09088036421936"><ele>283.0</ele><time>2026-04-11T12:45:06Z</time></trkpt><trkpt lat="40.327318828666854" lon="9.091201504330003"><ele>283.0</ele><time>2026-04-11T12:45:07Z</time></trkpt><trkpt lat="40.32735888045239" lon="9.09152814940216"><ele>283.0</ele><time>2026-04-11T12:45:08Z</time></trkpt><trkpt lat="40.32737417164635" lon="9.091862747087529"><ele>285.5</ele><time>2026-04-11T12:45:09Z</time></trkpt><trkpt lat="40.32736349516136" lon="9.09219219927399"><ele>288.0</ele><time>2026-04-11T12:45:10Z</time></trkpt><trkpt lat="40.327335864223585" lon="9.09250641531801"><ele>289.6666666666667</ele><time>2026-04-11T12:45:11Z</time></trkpt><trkpt lat="40.327304204454" lon="9.092801805972528"><ele>291.33333333333337</ele><time>2026-04-11T12:45:12Z</time></trkpt><trkpt lat="40.32728658694584" lon="9.093077298740955"><ele>293.0</ele><time>2026-04-11T12:45:13Z</time></trkpt><trkpt lat="40.32727302878395" lon="9.093333667422575"><ele>293.33333333333337</ele><time>2026-04-11T12:45:14Z</time></trkpt><trkpt lat="40.32725565942601" lon="9.093584894969272"><ele>293.6666666666667</ele><time>2026-04-11T12:45:15Z</time></trkpt><trkpt lat="40.32723626719449" lon="9.093833826420049"><ele>294.0</ele><time>2026-04-11T12:45:16Z</time></trkpt><trkpt lat="40.32721617047707" lon="9.094084602506785"><ele>292.6666666666667</ele><time>2026-04-11T12:45:17Z</time></trkpt><trkpt lat="40.32719613410148" lon="9.09434153351185"><ele>291.33333333333337</ele><time>2026-04-11T12:45:18Z</time></trkpt><trkpt lat="40.32717610155639" lon="9.094602707433951"><ele>290.0</ele><time>2026-04-11T12:45:19Z</time></trkpt><trkpt lat="40.327155277354045" lon="9.094867561868169"><ele>292.0</ele><time>2026-04-11T12:45:20Z</time></trkpt><trkpt lat="40.327135042582086" lon="9.095133898473113"><ele>294.0</ele><time>2026-04-11T12:45:21Z</time></trkpt><trkpt lat="40.32711678970357" lon="9.095398345487384"><ele>296.0</ele><time>2026-04-11T12:45:22Z</time></trkpt><trkpt lat="40.32710007731268" lon="9.095659939807145"><ele>298.0</ele><time>2026-04-11T12:45:23Z</time></trkpt><trkpt lat="40.3270862098973" lon="9.095916265502453"><ele>300.0</ele><time>2026-04-11T12:45:24Z</time></trkpt><trkpt lat="40.32707126555232" lon="9.096174548971229"><ele>302.0</ele><time>2026-04-11T12:45:25Z</time></trkpt><trkpt lat="40.32705332362162" lon="9.096450091845911"><ele>303.0</ele><time>2026-04-11T12:45:26Z</time></trkpt><trkpt lat="40.327037132764005" lon="9.09675295126194"><ele>304.0</ele><time>2026-04-11T12:45:27Z</time></trkpt><trkpt lat="40.32701803436171" lon="9.097073869292348"><ele>304.0</ele><time>2026-04-11T12:45:28Z</time></trkpt><trkpt lat="40.32699031139687" lon="9.097395007498761"><ele>304.0</ele><time>2026-04-11T12:45:29Z</time></trkpt><trkpt lat="40.32695797278664" lon="9.097715276249346"><ele>299.0</ele><time>2026-04-11T12:45:30Z</time></trkpt><trkpt lat="40.326899232801615" lon="9.098355307834815"><ele>299.0</ele><time>2026-04-11T12:45:32Z</time></trkpt><trkpt lat="40.32686231233033" lon="9.098672822693828"><ele>299.0</ele><time>2026-04-11T12:45:33Z</time></trkpt><trkpt lat="40.326804737150354" lon="9.098980715482137"><ele>297.5</ele><time>2026-04-11T12:45:34Z</time></trkpt><trkpt lat="40.32672426716991" lon="9.099283037828023"><ele>296.0</ele><time>2026-04-11T12:45:35Z</time></trkpt><trkpt lat="40.32662529324368" lon="9.099573683550918"><ele>296.0</ele><time>2026-04-11T12:45:36Z</time></trkpt><trkpt lat="40.32651239255094" lon="9.099861394667373"><ele>296.0</ele><time>2026-04-11T12:45:37Z</time></trkpt><trkpt lat="40.32638974097592" lon="9.100147224741319"><ele>293.5</ele><time>2026-04-11T12:45:38Z</time></trkpt><trkpt lat="40.32626346363424" lon="9.100434267243624"><ele>291.0</ele><time>2026-04-11T12:45:39Z</time></trkpt><trkpt lat="40.32613818343351" lon="9.10072707119852"><ele>291.0</ele><time>2026-04-11T12:45:40Z</time></trkpt><trkpt lat="40.326014298158356" lon="9.101027014200845"><ele>291.0</ele><time>2026-04-11T12:45:41Z</time></trkpt><trkpt lat="40.32588895245816" lon="9.101329793345727"><ele>293.0</ele><time>2026-04-11T12:45:42Z</time></trkpt><trkpt lat="40.32575758926468" lon="9.101631987945535"><ele>295.0</ele><time>2026-04-11T12:45:43Z</time></trkpt><trkpt lat="40.32562235455011" lon="9.101936730820121"><ele>294.5</ele><time>2026-04-11T12:45:44Z</time></trkpt><trkpt lat="40.325487191825204" lon="9.10223807020681"><ele>294.0</ele><time>2026-04-11T12:45:45Z</time></trkpt><trkpt lat="40.325355118563365" lon="9.102532663712994"><ele>294.0</ele><time>2026-04-11T12:45:46Z</time></trkpt><trkpt lat="40.32523187104615" lon="9.10282736122559"><ele>294.0</ele><time>2026-04-11T12:45:47Z</time></trkpt><trkpt lat="40.32512643394496" lon="9.10313618637663"><ele>294.5</ele><time>2026-04-11T12:45:48Z</time></trkpt><trkpt lat="40.325044011876216" lon="9.103452829485146"><ele>295.0</ele><time>2026-04-11T12:45:49Z</time></trkpt><trkpt lat="40.32497951672776" lon="9.103771981918431"><ele>296.0</ele><time>2026-04-11T12:45:50Z</time></trkpt><trkpt lat="40.32493323639849" lon="9.104095212587938"><ele>297.0</ele><time>2026-04-11T12:45:51Z</time></trkpt><trkpt lat="40.324906684047356" lon="9.104424556571534"><ele>297.0</ele><time>2026-04-11T12:45:52Z</time></trkpt><trkpt lat="40.32490230358845" lon="9.10475723512464"><ele>297.0</ele><time>2026-04-11T12:45:53Z</time></trkpt><trkpt lat="40.324920055850505" lon="9.105092968718676"><ele>298.5</ele><time>2026-04-11T12:45:54Z</time></trkpt><trkpt lat="40.324956856519776" lon="9.105428946050106"><ele>300.0</ele><time>2026-04-11T12:45:55Z</time></trkpt><trkpt lat="40.32501778872936" lon="9.105769946262642"><ele>301.0</ele><time>2026-04-11T12:45:56Z</time></trkpt><trkpt lat="40.32508560167362" lon="9.106099080808429"><ele>302.0</ele><time>2026-04-11T12:45:57Z</time></trkpt><trkpt lat="40.325142460625514" lon="9.106430424665591"><ele>299.5</ele><time>2026-04-11T12:45:58Z</time></trkpt><trkpt lat="40.3251804765091" lon="9.10675669424991"><ele>297.0</ele><time>2026-04-11T12:45:59Z</time></trkpt><trkpt lat="40.325226879143756" lon="9.107111700846756"><ele>297.0</ele><time>2026-04-11T12:46:00Z</time></trkpt><trkpt lat="40.32527645353723" lon="9.10747403214305"><ele>297.0</ele><time>2026-04-11T12:46:01Z</time></trkpt><trkpt lat="40.32529368004213" lon="9.10782687437548"><ele>297.0</ele><time>2026-04-11T12:46:02Z</time></trkpt><trkpt lat="40.32528347283929" lon="9.108182721236888"><ele>297.0</ele><time>2026-04-11T12:46:03Z</time></trkpt><trkpt lat="40.32525293022142" lon="9.108532951021628"><ele>297.0</ele><time>2026-04-11T12:46:04Z</time></trkpt><trkpt lat="40.32519802721571" lon="9.108877762619993"><ele>297.0</ele><time>2026-04-11T12:46:05Z</time></trkpt><trkpt lat="40.32513243895962" lon="9.109217986713388"><ele>298.0</ele><time>2026-04-11T12:46:06Z</time></trkpt><trkpt lat="40.32506864931395" lon="9.109555104496435"><ele>299.0</ele><time>2026-04-11T12:46:07Z</time></trkpt><trkpt lat="40.325009358052824" lon="9.10989758205363"><ele>299.5</ele><time>2026-04-11T12:46:08Z</time></trkpt><trkpt lat="40.32495280718646" lon="9.110241559932762"><ele>300.0</ele><time>2026-04-11T12:46:09Z</time></trkpt><trkpt lat="40.324895860060664" lon="9.110587567627858"><ele>300.0</ele><time>2026-04-11T12:46:10Z</time></trkpt><trkpt lat="40.324840419998196" lon="9.110933558975013"><ele>300.0</ele><time>2026-04-11T12:46:11Z</time></trkpt><trkpt lat="40.32478544928654" lon="9.111278060642993"><ele>300.0</ele><time>2026-04-11T12:46:12Z</time></trkpt><trkpt lat="40.32473123051147" lon="9.111625152585344"><ele>300.0</ele><time>2026-04-11T12:46:13Z</time></trkpt><trkpt lat="40.32467860583224" lon="9.111974196092941"><ele>300.0</ele><time>2026-04-11T12:46:14Z</time></trkpt><trkpt lat="40.324621167785885" lon="9.112327043287682"><ele>300.0</ele><time>2026-04-11T12:46:15Z</time></trkpt><trkpt lat="40.32455444060653" lon="9.112683800528378"><ele>299.0</ele><time>2026-04-11T12:46:16Z</time></trkpt><trkpt lat="40.324485219217976" lon="9.113036670384318"><ele>298.0</ele><time>2026-04-11T12:46:17Z</time></trkpt><trkpt lat="40.324417429499" lon="9.113390358530292"><ele>298.0</ele><time>2026-04-11T12:46:18Z</time></trkpt><trkpt lat="40.324354103456024" lon="9.113743192896285"><ele>298.0</ele><time>2026-04-11T12:46:19Z</time></trkpt><trkpt lat="40.32429471477266" lon="9.114093023826083"><ele>300.5</ele><time>2026-04-11T12:46:20Z</time></trkpt><trkpt lat="40.32423800533127" lon="9.114441183255305"><ele>303.0</ele><time>2026-04-11T12:46:21Z</time></trkpt><trkpt lat="40.324181008675254" lon="9.114785908872664"><ele>305.0</ele><time>2026-04-11T12:46:22Z</time></trkpt><trkpt lat="40.32412282785673" lon="9.115126555110455"><ele>307.0</ele><time>2026-04-11T12:46:23Z</time></trkpt><trkpt lat="40.32406812809212" lon="9.115464319159383"><ele>307.0</ele><time>2026-04-11T12:46:24Z</time></trkpt><trkpt lat="40.32402121071949" lon="9.115798769691658"><ele>307.0</ele><time>2026-04-11T12:46:25Z</time></trkpt><trkpt lat="40.32399104709514" lon="9.116133912888879"><ele>307.0</ele><time>2026-04-11T12:46:26Z</time></trkpt><trkpt lat="40.32398029788586" lon="9.116470829334475"><ele>307.0</ele><time>2026-04-11T12:46:27Z</time></trkpt><trkpt lat="40.323989614578444" lon="9.116808056176795"><ele>308.5</ele><time>2026-04-11T12:46:28Z</time></trkpt><trkpt lat="40.323998236266824" lon="9.117147956760169"><ele>310.0</ele><time>2026-04-11T12:46:29Z</time></trkpt><trkpt lat="40.323995049948195" lon="9.117488435096869"><ele>310.5</ele><time>2026-04-11T12:46:30Z</time></trkpt><trkpt lat="40.32398572537651" lon="9.117829663707756"><ele>311.0</ele><time>2026-04-11T12:46:31Z</time></trkpt><trkpt lat="40.32397932930654" lon="9.118171536296733"><ele>311.0</ele><time>2026-04-11T12:46:32Z</time></trkpt><trkpt lat="40.32397555644641" lon="9.118513411416147"><ele>311.0</ele><time>2026-04-11T12:46:33Z</time></trkpt><trkpt lat="40.32397429668592" lon="9.118856388298823"><ele>312.0</ele><time>2026-04-11T12:46:34Z</time></trkpt><trkpt lat="40.32397451838924" lon="9.119200325161009"><ele>313.0</ele><time>2026-04-11T12:46:35Z</time></trkpt><trkpt lat="40.32397433921863" lon="9.119543880405947"><ele>313.0</ele><time>2026-04-11T12:46:36Z</time></trkpt><trkpt lat="40.323970217411656" lon="9.119888679382598"><ele>313.0</ele><time>2026-04-11T12:46:37Z</time></trkpt><trkpt lat="40.32396597478901" lon="9.120234396376572"><ele>313.5</ele><time>2026-04-11T12:46:38Z</time></trkpt><trkpt lat="40.32396158323611" lon="9.120580072762658"><ele>314.0</ele><time>2026-04-11T12:46:39Z</time></trkpt><trkpt lat="40.323955801457444" lon="9.120926560719324"><ele>313.0</ele><time>2026-04-11T12:46:40Z</time></trkpt><trkpt lat="40.32394915842393" lon="9.12127418368443"><ele>312.0</ele><time>2026-04-11T12:46:41Z</time></trkpt><trkpt lat="40.323943109896014" lon="9.121623226843317"><ele>311.5</ele><time>2026-04-11T12:46:42Z</time></trkpt><trkpt lat="40.32393949335096" lon="9.121975733703126"><ele>311.0</ele><time>2026-04-11T12:46:43Z</time></trkpt><trkpt lat="40.32393707976165" lon="9.122328549342358"><ele>312.5</ele><time>2026-04-11T12:46:44Z</time></trkpt><trkpt lat="40.32393480786316" lon="9.122684003780726"><ele>314.0</ele><time>2026-04-11T12:46:45Z</time></trkpt><trkpt lat="40.323930630825224" lon="9.123040024404524"><ele>314.5</ele><time>2026-04-11T12:46:46Z</time></trkpt><trkpt lat="40.32392594261767" lon="9.123388077499738"><ele>315.0</ele><time>2026-04-11T12:46:47Z</time></trkpt><trkpt lat="40.32392200805364" lon="9.123731616784726"><ele>316.0</ele><time>2026-04-11T12:46:48Z</time></trkpt><trkpt lat="40.32392136478423" lon="9.124072085607944"><ele>317.0</ele><time>2026-04-11T12:46:49Z</time></trkpt><trkpt lat="40.323921213933204" lon="9.124417908394356"><ele>317.0</ele><time>2026-04-11T12:46:50Z</time></trkpt><trkpt lat="40.32391736246634" lon="9.124759234637027"><ele>317.0</ele><time>2026-04-11T12:46:51Z</time></trkpt><trkpt lat="40.32390557217764" lon="9.125095462120148"><ele>317.5</ele><time>2026-04-11T12:46:52Z</time></trkpt><trkpt lat="40.323879950689914" lon="9.125426836791814"><ele>318.0</ele><time>2026-04-11T12:46:53Z</time></trkpt><trkpt lat="40.32383522987104" lon="9.125753217406102"><ele>319.5</ele><time>2026-04-11T12:46:54Z</time></trkpt><trkpt lat="40.323769774354105" lon="9.126073326645985"><ele>321.0</ele><time>2026-04-11T12:46:55Z</time></trkpt><trkpt lat="40.32369785446672" lon="9.126390849166278"><ele>321.5</ele><time>2026-04-11T12:46:56Z</time></trkpt><trkpt lat="40.32363054399995" lon="9.126714523231133"><ele>322.0</ele><time>2026-04-11T12:46:57Z</time></trkpt><trkpt lat="40.32356859793281" lon="9.127035576625232"><ele>322.0</ele><time>2026-04-11T12:46:58Z</time></trkpt><trkpt lat="40.32350593642028" lon="9.127356656043348"><ele>322.0</ele><time>2026-04-11T12:46:59Z</time></trkpt><trkpt lat="40.32343995902032" lon="9.127676902166861"><ele>323.0</ele><time>2026-04-11T12:47:00Z</time></trkpt><trkpt lat="40.32337210285546" lon="9.127993495680547"><ele>324.0</ele><time>2026-04-11T12:47:01Z</time></trkpt><trkpt lat="40.323304393508906" lon="9.128307508203568"><ele>324.5</ele><time>2026-04-11T12:47:02Z</time></trkpt><trkpt lat="40.32323984060075" lon="9.128619753314076"><ele>325.0</ele><time>2026-04-11T12:47:03Z</time></trkpt><trkpt lat="40.32317731351622" lon="9.128928499449282"><ele>326.0</ele><time>2026-04-11T12:47:04Z</time></trkpt><trkpt lat="40.32311925398776" lon="9.129215939989068"><ele>327.0</ele><time>2026-04-11T12:47:05Z</time></trkpt><trkpt lat="40.32306443964677" lon="9.129487912942192"><ele>328.0</ele><time>2026-04-11T12:47:06Z</time></trkpt><trkpt lat="40.32301142361226" lon="9.129736449307222"><ele>329.3333333333333</ele><time>2026-04-11T12:47:07Z</time></trkpt><trkpt lat="40.32295857074562" lon="9.129983482075142"><ele>330.6666666666667</ele><time>2026-04-11T12:47:08Z</time></trkpt><trkpt lat="40.32290703343612" lon="9.130242400059872"><ele>332.0</ele><time>2026-04-11T12:47:09Z</time></trkpt><trkpt lat="40.3228572989166" lon="9.1305094916435"><ele>332.6666666666667</ele><time>2026-04-11T12:47:10Z</time></trkpt><trkpt lat="40.322805035821276" lon="9.130777437136869"><ele>333.3333333333333</ele><time>2026-04-11T12:47:11Z</time></trkpt><trkpt lat="40.32274570928118" lon="9.13105050284081"><ele>334.0</ele><time>2026-04-11T12:47:12Z</time></trkpt><trkpt lat="40.322683003317195" lon="9.131323449190234"><ele>334.3333333333333</ele><time>2026-04-11T12:47:13Z</time></trkpt><trkpt lat="40.322622853261464" lon="9.131602467511794"><ele>334.6666666666667</ele><time>2026-04-11T12:47:14Z</time></trkpt><trkpt lat="40.32256900040502" lon="9.131884922171546"><ele>335.0</ele><time>2026-04-11T12:47:15Z</time></trkpt><trkpt lat="40.3225164529137" lon="9.13217100324764"><ele>336.5</ele><time>2026-04-11T12:47:16Z</time></trkpt><trkpt lat="40.322459604589085" lon="9.13245934210058"><ele>338.0</ele><time>2026-04-11T12:47:17Z</time></trkpt><trkpt lat="40.32239822567247" lon="9.132748909237133"><ele>338.0</ele><time>2026-04-11T12:47:18Z</time></trkpt><trkpt lat="40.32233412213543" lon="9.133040424185369"><ele>338.0</ele><time>2026-04-11T12:47:19Z</time></trkpt><trkpt lat="40.3222689510813" lon="9.133337135793877"><ele>340.0</ele><time>2026-04-11T12:47:20Z</time></trkpt><trkpt lat="40.322205334756" lon="9.133638590289156"><ele>342.0</ele><time>2026-04-11T12:47:21Z</time></trkpt><trkpt lat="40.32214069206382" lon="9.13394524239711"><ele>343.0</ele><time>2026-04-11T12:47:22Z</time></trkpt><trkpt lat="40.32207444293584" lon="9.134256737286753"><ele>344.0</ele><time>2026-04-11T12:47:23Z</time></trkpt><trkpt lat="40.3220111093596" lon="9.134562639467665"><ele>344.0</ele><time>2026-04-11T12:47:24Z</time></trkpt><trkpt lat="40.32195180897722" lon="9.134861674058104"><ele>344.0</ele><time>2026-04-11T12:47:25Z</time></trkpt><trkpt lat="40.32189846813045" lon="9.135145885146025"><ele>344.0</ele><time>2026-04-11T12:47:26Z</time></trkpt><trkpt lat="40.321858620025516" lon="9.13542029075957"><ele>344.0</ele><time>2026-04-11T12:47:27Z</time></trkpt><trkpt lat="40.32182953635042" lon="9.135698075834208"><ele>344.0</ele><time>2026-04-11T12:47:28Z</time></trkpt><trkpt lat="40.32181345616203" lon="9.13596465160159"><ele>344.33333333333337</ele><time>2026-04-11T12:47:29Z</time></trkpt><trkpt lat="40.321805252672334" lon="9.136221796262127"><ele>344.6666666666667</ele><time>2026-04-11T12:47:30Z</time></trkpt><trkpt lat="40.32180254245168" lon="9.136465464828886"><ele>345.0</ele><time>2026-04-11T12:47:31Z</time></trkpt><trkpt lat="40.321808605333295" lon="9.136695572604603"><ele>345.0</ele><time>2026-04-11T12:47:32Z</time></trkpt><trkpt lat="40.32181505683711" lon="9.136917158968023"><ele>345.0</ele><time>2026-04-11T12:47:33Z</time></trkpt><trkpt lat="40.32182065830005" lon="9.137119915510663"><ele>345.0</ele><time>2026-04-11T12:47:34Z</time></trkpt><trkpt lat="40.32182709041836" lon="9.137313805346874"><ele>345.25</ele><time>2026-04-11T12:47:35Z</time></trkpt><trkpt lat="40.32183619947356" lon="9.13749504218159"><ele>345.5</ele><time>2026-04-11T12:47:36Z</time></trkpt><trkpt lat="40.32184658849521" lon="9.137656048857457"><ele>345.75</ele><time>2026-04-11T12:47:37Z</time></trkpt><trkpt lat="40.32185082944122" lon="9.137799006738154"><ele>346.0</ele><time>2026-04-11T12:47:38Z</time></trkpt><trkpt lat="40.32185046588681" lon="9.137919191557605"><ele>346.0</ele><time>2026-04-11T12:47:39Z</time></trkpt><trkpt lat="40.3218404628773" lon="9.138018656201904"><ele>346.0</ele><time>2026-04-11T12:47:40Z</time></trkpt><trkpt lat="40.321784492427014" lon="9.138123942827441"><ele>346.0</ele><time>2026-04-11T12:47:42Z</time></trkpt><trkpt lat="40.32171424668446" lon="9.138159349908122"><ele>346.0</ele><time>2026-04-11T12:47:45Z</time></trkpt><trkpt lat="40.3217150238019" lon="9.138258683269175"><ele>346.0</ele><time>2026-04-11T12:51:39Z</time></trkpt><trkpt lat="40.321702542885426" lon="9.138384275925896"><ele>346.0</ele><time>2026-04-11T12:51:42Z</time></trkpt><trkpt lat="40.321691888253206" lon="9.138482082987297"><ele>346.5</ele><time>2026-04-11T12:51:44Z</time></trkpt><trkpt lat="40.321690719155626" lon="9.138584783744266"><ele>347.0</ele><time>2026-04-11T12:51:46Z</time></trkpt><trkpt lat="40.32168415675862" lon="9.138694913162649"><ele>347.5</ele><time>2026-04-11T12:51:48Z</time></trkpt><trkpt lat="40.32167136169193" lon="9.138804540156647"><ele>348.0</ele><time>2026-04-11T12:51:50Z</time></trkpt><trkpt lat="40.32166819637533" lon="9.138907445001268"><ele>348.5</ele><time>2026-04-11T12:51:52Z</time></trkpt><trkpt lat="40.32166222051312" lon="9.139001823894466"><ele>349.0</ele><time>2026-04-11T12:51:54Z</time></trkpt><trkpt lat="40.321624775230596" lon="9.139069611197995"><ele>349.16666666666663</ele><time>2026-04-11T13:11:01Z</time></trkpt><trkpt lat="40.32164839924355" lon="9.139157956276982"><ele>349.3333333333333</ele><time>2026-04-11T13:11:03Z</time></trkpt><trkpt lat="40.32167458925405" lon="9.139311737393403"><ele>349.5</ele><time>2026-04-11T13:11:05Z</time></trkpt><trkpt lat="40.32168179297417" lon="9.139396718888808"><ele>349.6666666666667</ele><time>2026-04-11T13:11:06Z</time></trkpt><trkpt lat="40.321748332224765" lon="9.139473188521729"><ele>349.83333333333337</ele><time>2026-04-11T13:11:07Z</time></trkpt><trkpt lat="40.321836824689754" lon="9.139542474071304"><ele>350.0</ele><time>2026-04-11T13:11:09Z</time></trkpt><trkpt lat="40.32191440239176" lon="9.139560103078635"><ele>350.0</ele><time>2026-04-11T13:11:11Z</time></trkpt><trkpt lat="40.3219406754477" lon="9.139676712581135"><ele>350.0</ele><time>2026-04-11T13:11:13Z</time></trkpt><trkpt lat="40.32194148885314" lon="9.139777964737824"><ele>350.0</ele><time>2026-04-11T13:11:14Z</time></trkpt><trkpt lat="40.32194743511789" lon="9.139896372959626"><ele>350.0</ele><time>2026-04-11T13:11:15Z</time></trkpt><trkpt lat="40.321951044269916" lon="9.1400158389135"><ele>350.0</ele><time>2026-04-11T13:11:16Z</time></trkpt><trkpt lat="40.321948465974145" lon="9.140149244122153"><ele>350.25</ele><time>2026-04-11T13:11:17Z</time></trkpt><trkpt lat="40.32195358633315" lon="9.140291261211452"><ele>350.5</ele><time>2026-04-11T13:11:18Z</time></trkpt><trkpt lat="40.32196041063159" lon="9.14045084721005"><ele>350.75</ele><time>2026-04-11T13:11:19Z</time></trkpt><trkpt lat="40.32196534234227" lon="9.14062633484551"><ele>351.0</ele><time>2026-04-11T13:11:20Z</time></trkpt><trkpt lat="40.32197216719613" lon="9.140800727890559"><ele>351.6666666666667</ele><time>2026-04-11T13:11:21Z</time></trkpt><trkpt lat="40.32198282542452" lon="9.140985558919319"><ele>352.33333333333337</ele><time>2026-04-11T13:11:22Z</time></trkpt><trkpt lat="40.32199306219483" lon="9.141186024996276"><ele>353.0</ele><time>2026-04-11T13:11:23Z</time></trkpt><trkpt lat="40.32199869690661" lon="9.141400746903816"><ele>353.6666666666667</ele><time>2026-04-11T13:11:24Z</time></trkpt><trkpt lat="40.322002392576074" lon="9.141607337715486"><ele>354.3333333333333</ele><time>2026-04-11T13:11:25Z</time></trkpt><trkpt lat="40.32200856862111" lon="9.141818511169388"><ele>355.0</ele><time>2026-04-11T13:11:26Z</time></trkpt><trkpt lat="40.32201861917993" lon="9.142038835980575"><ele>355.0</ele><time>2026-04-11T13:11:27Z</time></trkpt><trkpt lat="40.322031262685215" lon="9.142260913852388"><ele>355.0</ele><time>2026-04-11T13:11:28Z</time></trkpt><trkpt lat="40.32204150354155" lon="9.142493031388891"><ele>355.0</ele><time>2026-04-11T13:11:29Z</time></trkpt><trkpt lat="40.32204637396992" lon="9.14273048227806"><ele>355.3333333333333</ele><time>2026-04-11T13:11:30Z</time></trkpt><trkpt lat="40.32205021369466" lon="9.14297628305582"><ele>355.6666666666667</ele><time>2026-04-11T13:11:31Z</time></trkpt><trkpt lat="40.32205799227229" lon="9.143224727161286"><ele>356.0</ele><time>2026-04-11T13:11:32Z</time></trkpt><trkpt lat="40.32206929606787" lon="9.143478132426997"><ele>356.0</ele><time>2026-04-11T13:11:33Z</time></trkpt><trkpt lat="40.322080118351074" lon="9.143727946119567"><ele>356.0</ele><time>2026-04-11T13:11:34Z</time></trkpt><trkpt lat="40.322088191794" lon="9.14397911466018"><ele>356.0</ele><time>2026-04-11T13:11:35Z</time></trkpt><trkpt lat="40.32209579094319" lon="9.144233800207564"><ele>356.0</ele><time>2026-04-11T13:11:36Z</time></trkpt><trkpt lat="40.322105268064526" lon="9.144492394593415"><ele>356.0</ele><time>2026-04-11T13:11:37Z</time></trkpt><trkpt lat="40.32211584582922" lon="9.144752345910957"><ele>356.0</ele><time>2026-04-11T13:11:38Z</time></trkpt><trkpt lat="40.32212642151222" lon="9.14501476135566"><ele>356.6666666666667</ele><time>2026-04-11T13:11:39Z</time></trkpt><trkpt lat="40.322136779013434" lon="9.145281536903163"><ele>357.3333333333333</ele><time>2026-04-11T13:11:40Z</time></trkpt><trkpt lat="40.32214662947956" lon="9.145551851929069"><ele>358.0</ele><time>2026-04-11T13:11:41Z</time></trkpt><trkpt lat="40.322155096365094" lon="9.145821838680222"><ele>358.66666666666663</ele><time>2026-04-11T13:11:42Z</time></trkpt><trkpt lat="40.32216305741569" lon="9.146091566513281"><ele>359.3333333333333</ele><time>2026-04-11T13:11:43Z</time></trkpt><trkpt lat="40.32217170938499" lon="9.146360496629116"><ele>360.0</ele><time>2026-04-11T13:11:44Z</time></trkpt><trkpt lat="40.32218097614157" lon="9.14663070387967"><ele>360.6666666666667</ele><time>2026-04-11T13:11:45Z</time></trkpt><trkpt lat="40.32219156486793" lon="9.146899183201677"><ele>361.33333333333337</ele><time>2026-04-11T13:11:46Z</time></trkpt><trkpt lat="40.32220331720502" lon="9.147167079464687"><ele>362.0</ele><time>2026-04-11T13:11:47Z</time></trkpt><trkpt lat="40.32221605972563" lon="9.147439621648736"><ele>362.33333333333337</ele><time>2026-04-11T13:11:48Z</time></trkpt><trkpt lat="40.322226389039486" lon="9.147711580440804"><ele>362.6666666666667</ele><time>2026-04-11T13:11:49Z</time></trkpt><trkpt lat="40.32223494813832" lon="9.147982307647222"><ele>363.0</ele><time>2026-04-11T13:11:50Z</time></trkpt><trkpt lat="40.32224253014247" lon="9.148253524747354"><ele>367.0</ele><time>2026-04-11T13:11:51Z</time></trkpt><trkpt lat="40.3222514540676" lon="9.148526807086355"><ele>371.0</ele><time>2026-04-11T13:11:52Z</time></trkpt><trkpt lat="40.322262247807735" lon="9.14879758722513"><ele>375.0</ele><time>2026-04-11T13:11:53Z</time></trkpt><trkpt lat="40.32227473845659" lon="9.149069736071263"><ele>375.6666666666667</ele><time>2026-04-11T13:11:54Z</time></trkpt><trkpt lat="40.32228602229833" lon="9.149337004349695"><ele>376.33333333333337</ele><time>2026-04-11T13:11:55Z</time></trkpt><trkpt lat="40.3222961098225" lon="9.149602056326199"><ele>377.0</ele><time>2026-04-11T13:11:56Z</time></trkpt><trkpt lat="40.32230528253922" lon="9.149865570853402"><ele>376.6666666666667</ele><time>2026-04-11T13:11:57Z</time></trkpt><trkpt lat="40.322312857234685" lon="9.15013037808505"><ele>376.3333333333333</ele><time>2026-04-11T13:11:58Z</time></trkpt><trkpt lat="40.32232102433334" lon="9.150394872875726"><ele>376.0</ele><time>2026-04-11T13:11:59Z</time></trkpt><trkpt lat="40.32232920736164" lon="9.150661436656385"><ele>377.3333333333333</ele><time>2026-04-11T13:12:00Z</time></trkpt><trkpt lat="40.322340325339866" lon="9.150928399624217"><ele>378.6666666666667</ele><time>2026-04-11T13:12:01Z</time></trkpt><trkpt lat="40.32235147297376" lon="9.15120058861503"><ele>380.0</ele><time>2026-04-11T13:12:02Z</time></trkpt><trkpt lat="40.32236064720325" lon="9.151474831232292"><ele>381.0</ele><time>2026-04-11T13:12:03Z</time></trkpt><trkpt lat="40.32237150203166" lon="9.151751540128746"><ele>382.0</ele><time>2026-04-11T13:12:04Z</time></trkpt><trkpt lat="40.32238102877619" lon="9.152033515565126"><ele>383.0</ele><time>2026-04-11T13:12:05Z</time></trkpt><trkpt lat="40.32239166716494" lon="9.152313399916045"><ele>382.33333333333337</ele><time>2026-04-11T13:12:06Z</time></trkpt><trkpt lat="40.32240135759353" lon="9.152599039897364"><ele>381.6666666666667</ele><time>2026-04-11T13:12:07Z</time></trkpt><trkpt lat="40.32241299763148" lon="9.152887161164971"><ele>381.0</ele><time>2026-04-11T13:12:08Z</time></trkpt><trkpt lat="40.32242403087932" lon="9.153179704906057"><ele>381.0</ele><time>2026-04-11T13:12:09Z</time></trkpt><trkpt lat="40.322436239836094" lon="9.153473993150838"><ele>381.0</ele><time>2026-04-11T13:12:10Z</time></trkpt><trkpt lat="40.322448706623646" lon="9.15376919124788"><ele>382.0</ele><time>2026-04-11T13:12:11Z</time></trkpt><trkpt lat="40.322460486375235" lon="9.154066134965747"><ele>383.0</ele><time>2026-04-11T13:12:12Z</time></trkpt><trkpt lat="40.32247242972436" lon="9.15436542780177"><ele>383.0</ele><time>2026-04-11T13:12:13Z</time></trkpt><trkpt lat="40.322484081525815" lon="9.154667565738675"><ele>383.0</ele><time>2026-04-11T13:12:14Z</time></trkpt><trkpt lat="40.32249402727439" lon="9.154969808265955"><ele>383.0</ele><time>2026-04-11T13:12:15Z</time></trkpt><trkpt lat="40.32250543887336" lon="9.15527425085801"><ele>383.0</ele><time>2026-04-11T13:12:16Z</time></trkpt><trkpt lat="40.32251775191457" lon="9.155582299173986"><ele>384.0</ele><time>2026-04-11T13:12:17Z</time></trkpt><trkpt lat="40.3225312866613" lon="9.15588792744828"><ele>385.0</ele><time>2026-04-11T13:12:18Z</time></trkpt><trkpt lat="40.322543687127656" lon="9.156190405389738"><ele>385.0</ele><time>2026-04-11T13:12:19Z</time></trkpt><trkpt lat="40.32255671083849" lon="9.156493284285679"><ele>385.0</ele><time>2026-04-11T13:12:20Z</time></trkpt><trkpt lat="40.322566561135446" lon="9.156794884484524"><ele>386.5</ele><time>2026-04-11T13:12:21Z</time></trkpt><trkpt lat="40.3225723269909" lon="9.157094752449835"><ele>388.0</ele><time>2026-04-11T13:12:22Z</time></trkpt><trkpt lat="40.32256399258786" lon="9.157395506701622"><ele>391.0</ele><time>2026-04-11T13:12:23Z</time></trkpt><trkpt lat="40.32254260674229" lon="9.157695130757821"><ele>394.0</ele><time>2026-04-11T13:12:24Z</time></trkpt><trkpt lat="40.32249911384307" lon="9.15799162698467"><ele>395.5</ele><time>2026-04-11T13:12:25Z</time></trkpt><trkpt lat="40.3224439398404" lon="9.158288693269842"><ele>397.0</ele><time>2026-04-11T13:12:26Z</time></trkpt><trkpt lat="40.32237939779709" lon="9.158582109841664"><ele>397.0</ele><time>2026-04-11T13:12:27Z</time></trkpt><trkpt lat="40.32231181513304" lon="9.158877045195771"><ele>397.0</ele><time>2026-04-11T13:12:28Z</time></trkpt><trkpt lat="40.322241981445266" lon="9.159174504394374"><ele>398.5</ele><time>2026-04-11T13:12:29Z</time></trkpt><trkpt lat="40.322172481988055" lon="9.159469271856063"><ele>400.0</ele><time>2026-04-11T13:12:30Z</time></trkpt><trkpt lat="40.32210352023046" lon="9.159760068625609"><ele>402.0</ele><time>2026-04-11T13:12:31Z</time></trkpt><trkpt lat="40.32203463188709" lon="9.160050138061486"><ele>404.0</ele><time>2026-04-11T13:12:32Z</time></trkpt><trkpt lat="40.321965615002455" lon="9.160336893758215"><ele>404.0</ele><time>2026-04-11T13:12:33Z</time></trkpt><trkpt lat="40.321895116193886" lon="9.16062270620812"><ele>404.0</ele><time>2026-04-11T13:12:34Z</time></trkpt><trkpt lat="40.32182469234549" lon="9.160906655264652"><ele>402.5</ele><time>2026-04-11T13:12:35Z</time></trkpt><trkpt lat="40.321755375012295" lon="9.16119654159921"><ele>401.0</ele><time>2026-04-11T13:12:36Z</time></trkpt><trkpt lat="40.32168614418487" lon="9.161488091984282"><ele>399.5</ele><time>2026-04-11T13:12:37Z</time></trkpt><trkpt lat="40.3216185093027" lon="9.161784124843452"><ele>398.0</ele><time>2026-04-11T13:12:38Z</time></trkpt><trkpt lat="40.32155375346516" lon="9.162082000207672"><ele>397.3333333333333</ele><time>2026-04-11T13:12:39Z</time></trkpt><trkpt lat="40.3214927257173" lon="9.162367867021906"><ele>396.66666666666663</ele><time>2026-04-11T13:12:40Z</time></trkpt><trkpt lat="40.32143494485947" lon="9.162643077761064"><ele>396.0</ele><time>2026-04-11T13:12:41Z</time></trkpt><trkpt lat="40.32138006459938" lon="9.162918167583548"><ele>395.0</ele><time>2026-04-11T13:12:42Z</time></trkpt><trkpt lat="40.321327087554685" lon="9.163188664321334"><ele>394.0</ele><time>2026-04-11T13:12:43Z</time></trkpt><trkpt lat="40.32127242217975" lon="9.163459937204836"><ele>393.0</ele><time>2026-04-11T13:12:44Z</time></trkpt><trkpt lat="40.32121715166076" lon="9.16373131577291"><ele>393.0</ele><time>2026-04-11T13:12:45Z</time></trkpt><trkpt lat="40.32116169391197" lon="9.163997592457"><ele>393.0</ele><time>2026-04-11T13:12:46Z</time></trkpt><trkpt lat="40.321103404858995" lon="9.16426957898539"><ele>393.0</ele><time>2026-04-11T13:12:47Z</time></trkpt><trkpt lat="40.321040652118135" lon="9.164534468486394"><ele>393.0</ele><time>2026-04-11T13:12:48Z</time></trkpt><trkpt lat="40.320963696583156" lon="9.164797425476372"><ele>393.0</ele><time>2026-04-11T13:12:49Z</time></trkpt><trkpt lat="40.32087248398229" lon="9.165048344325122"><ele>393.0</ele><time>2026-04-11T13:12:50Z</time></trkpt><trkpt lat="40.320760113159835" lon="9.165292561994592"><ele>393.0</ele><time>2026-04-11T13:12:51Z</time></trkpt><trkpt lat="40.3206333553507" lon="9.165525905344158"><ele>393.0</ele><time>2026-04-11T13:12:52Z</time></trkpt><trkpt lat="40.32049388981937" lon="9.165750500986855"><ele>393.0</ele><time>2026-04-11T13:12:53Z</time></trkpt><trkpt lat="40.32034649542867" lon="9.165970692676265"><ele>389.0</ele><time>2026-04-11T13:12:54Z</time></trkpt><trkpt lat="40.32019566743401" lon="9.166195019371525"><ele>385.0</ele><time>2026-04-11T13:12:55Z</time></trkpt><trkpt lat="40.32004448542972" lon="9.166421758494804"><ele>385.0</ele><time>2026-04-11T13:12:56Z</time></trkpt><trkpt lat="40.319893951717" lon="9.16665716086942"><ele>385.0</ele><time>2026-04-11T13:12:57Z</time></trkpt><trkpt lat="40.31973915361663" lon="9.166891730351853"><ele>382.0</ele><time>2026-04-11T13:12:58Z</time></trkpt><trkpt lat="40.31958295600779" lon="9.167125520956356"><ele>379.0</ele><time>2026-04-11T13:12:59Z</time></trkpt><trkpt lat="40.319424219470804" lon="9.167358693670188"><ele>379.0</ele><time>2026-04-11T13:13:00Z</time></trkpt><trkpt lat="40.319261564187144" lon="9.167595078185718"><ele>379.0</ele><time>2026-04-11T13:13:01Z</time></trkpt><trkpt lat="40.31910096337323" lon="9.167831087459879"><ele>379.0</ele><time>2026-04-11T13:13:02Z</time></trkpt><trkpt lat="40.31893588367059" lon="9.168068442074128"><ele>379.0</ele><time>2026-04-11T13:13:03Z</time></trkpt><trkpt lat="40.31877409367912" lon="9.168307073856562"><ele>376.0</ele><time>2026-04-11T13:13:04Z</time></trkpt><trkpt lat="40.318613796384774" lon="9.168549839253172"><ele>373.0</ele><time>2026-04-11T13:13:05Z</time></trkpt><trkpt lat="40.31845617435424" lon="9.16879641048808"><ele>374.5</ele><time>2026-04-11T13:13:06Z</time></trkpt><trkpt lat="40.31830178686684" lon="9.169048566461928"><ele>376.0</ele><time>2026-04-11T13:13:07Z</time></trkpt><trkpt lat="40.31815368137842" lon="9.169304580425285"><ele>372.5</ele><time>2026-04-11T13:13:08Z</time></trkpt><trkpt lat="40.318009258923546" lon="9.169566743796393"><ele>369.0</ele><time>2026-04-11T13:13:09Z</time></trkpt><trkpt lat="40.31786460168501" lon="9.169826418903318"><ele>371.0</ele><time>2026-04-11T13:13:10Z</time></trkpt><trkpt lat="40.31772345858224" lon="9.170086610514694"><ele>373.0</ele><time>2026-04-11T13:13:11Z</time></trkpt><trkpt lat="40.317580980993284" lon="9.170342332657611"><ele>373.0</ele><time>2026-04-11T13:13:12Z</time></trkpt><trkpt lat="40.3174378436623" lon="9.170597554245706"><ele>373.0</ele><time>2026-04-11T13:13:13Z</time></trkpt><trkpt lat="40.3172942947981" lon="9.170851694958811"><ele>372.0</ele><time>2026-04-11T13:13:14Z</time></trkpt><trkpt lat="40.31715199417936" lon="9.17110503652766"><ele>371.0</ele><time>2026-04-11T13:13:15Z</time></trkpt><trkpt lat="40.31701043150683" lon="9.171359510109575"><ele>371.0</ele><time>2026-04-11T13:13:16Z</time></trkpt><trkpt lat="40.316867295671905" lon="9.171616172922157"><ele>371.0</ele><time>2026-04-11T13:13:17Z</time></trkpt><trkpt lat="40.31672597074018" lon="9.171876278983692"><ele>371.0</ele><time>2026-04-11T13:13:18Z</time></trkpt><trkpt lat="40.31658211704535" lon="9.172130605597866"><ele>371.0</ele><time>2026-04-11T13:13:19Z</time></trkpt><trkpt lat="40.316438455094826" lon="9.172390128314602"><ele>370.0</ele><time>2026-04-11T13:13:20Z</time></trkpt><trkpt lat="40.31629327832435" lon="9.17264608586168"><ele>369.0</ele><time>2026-04-11T13:13:21Z</time></trkpt><trkpt lat="40.31615002279197" lon="9.172901669170564"><ele>369.0</ele><time>2026-04-11T13:13:22Z</time></trkpt><trkpt lat="40.31600767151009" lon="9.17315718991992"><ele>369.0</ele><time>2026-04-11T13:13:23Z</time></trkpt><trkpt lat="40.315866819145185" lon="9.17341229908887"><ele>370.5</ele><time>2026-04-11T13:13:24Z</time></trkpt><trkpt lat="40.31573064159437" lon="9.173664856877688"><ele>372.0</ele><time>2026-04-11T13:13:25Z</time></trkpt><trkpt lat="40.315603833692045" lon="9.173920010416484"><ele>373.5</ele><time>2026-04-11T13:13:26Z</time></trkpt><trkpt lat="40.315490198202276" lon="9.174181597741523"><ele>375.0</ele><time>2026-04-11T13:13:27Z</time></trkpt><trkpt lat="40.315383332782865" lon="9.174446040186076"><ele>375.0</ele><time>2026-04-11T13:13:28Z</time></trkpt><trkpt lat="40.31531291148411" lon="9.17472651124396"><ele>375.0</ele><time>2026-04-11T13:13:29Z</time></trkpt><trkpt lat="40.31526610081245" lon="9.175017323545008"><ele>376.5</ele><time>2026-04-11T13:13:30Z</time></trkpt><trkpt lat="40.31522466460837" lon="9.175311108194512"><ele>378.0</ele><time>2026-04-11T13:13:31Z</time></trkpt><trkpt lat="40.315174972235965" lon="9.175603837212417"><ele>377.5</ele><time>2026-04-11T13:13:32Z</time></trkpt><trkpt lat="40.31511564197423" lon="9.175893221378221"><ele>377.0</ele><time>2026-04-11T13:13:33Z</time></trkpt><trkpt lat="40.315027496622044" lon="9.176163091131567"><ele>377.0</ele><time>2026-04-11T13:13:34Z</time></trkpt><trkpt lat="40.31491545190557" lon="9.176419114830217"><ele>377.0</ele><time>2026-04-11T13:13:35Z</time></trkpt><trkpt lat="40.314777349636756" lon="9.176655459169403"><ele>374.5</ele><time>2026-04-11T13:13:36Z</time></trkpt><trkpt lat="40.31462004754585" lon="9.176876615384433"><ele>372.0</ele><time>2026-04-11T13:13:37Z</time></trkpt><trkpt lat="40.31444088376933" lon="9.177079573909534"><ele>372.0</ele><time>2026-04-11T13:13:38Z</time></trkpt><trkpt lat="40.314243253904785" lon="9.177251943018776"><ele>372.0</ele><time>2026-04-11T13:13:39Z</time></trkpt><trkpt lat="40.31403352660651" lon="9.177389912449874"><ele>368.5</ele><time>2026-04-11T13:13:40Z</time></trkpt><trkpt lat="40.31381038459401" lon="9.177484403393718"><ele>365.0</ele><time>2026-04-11T13:13:41Z</time></trkpt><trkpt lat="40.31357878227584" lon="9.177538251325261"><ele>365.0</ele><time>2026-04-11T13:13:42Z</time></trkpt><trkpt lat="40.313343109588395" lon="9.177581198138773"><ele>365.0</ele><time>2026-04-11T13:13:43Z</time></trkpt><trkpt lat="40.31310932875304" lon="9.17762689054638"><ele>363.0</ele><time>2026-04-11T13:13:44Z</time></trkpt><trkpt lat="40.31287331701783" lon="9.177676489957335"><ele>361.0</ele><time>2026-04-11T13:13:45Z</time></trkpt><trkpt lat="40.312635918162066" lon="9.177728667539279"><ele>361.0</ele><time>2026-04-11T13:13:46Z</time></trkpt><trkpt lat="40.312395466085405" lon="9.177785844410733"><ele>361.0</ele><time>2026-04-11T13:13:47Z</time></trkpt><trkpt lat="40.31215231793056" lon="9.17784030821787"><ele>359.0</ele><time>2026-04-11T13:13:48Z</time></trkpt><trkpt lat="40.31190809267997" lon="9.177893895246253"><ele>357.0</ele><time>2026-04-11T13:13:49Z</time></trkpt><trkpt lat="40.311662687317366" lon="9.177946745396445"><ele>357.0</ele><time>2026-04-11T13:13:50Z</time></trkpt><trkpt lat="40.31141541524341" lon="9.178003394093777"><ele>357.0</ele><time>2026-04-11T13:13:51Z</time></trkpt><trkpt lat="40.31116545588807" lon="9.178060873084705"><ele>353.5</ele><time>2026-04-11T13:13:52Z</time></trkpt><trkpt lat="40.31091316489456" lon="9.178112936060032"><ele>350.0</ele><time>2026-04-11T13:13:53Z</time></trkpt><trkpt lat="40.310664310911285" lon="9.178157645054862"><ele>351.0</ele><time>2026-04-11T13:13:54Z</time></trkpt><trkpt lat="40.310419169614825" lon="9.178205028656125"><ele>352.0</ele><time>2026-04-11T13:13:55Z</time></trkpt><trkpt lat="40.310182206978986" lon="9.1782668462953"><ele>352.0</ele><time>2026-04-11T13:13:56Z</time></trkpt><trkpt lat="40.309951658534224" lon="9.178351627632615"><ele>352.0</ele><time>2026-04-11T13:13:57Z</time></trkpt><trkpt lat="40.309732423277175" lon="9.178468342892295"><ele>353.0</ele><time>2026-04-11T13:13:58Z</time></trkpt><trkpt lat="40.30952886325551" lon="9.178617823888079"><ele>354.0</ele><time>2026-04-11T13:13:59Z</time></trkpt><trkpt lat="40.30934305044233" lon="9.178802030020858"><ele>354.5</ele><time>2026-04-11T13:14:00Z</time></trkpt><trkpt lat="40.309176645739406" lon="9.179018129058274"><ele>355.0</ele><time>2026-04-11T13:14:01Z</time></trkpt><trkpt lat="40.30903187232078" lon="9.179259620395747"><ele>358.0</ele><time>2026-04-11T13:14:02Z</time></trkpt><trkpt lat="40.30890687734206" lon="9.179517261458855"><ele>361.0</ele><time>2026-04-11T13:14:03Z</time></trkpt><trkpt lat="40.30879288179279" lon="9.179779592363028"><ele>364.0</ele><time>2026-04-11T13:14:04Z</time></trkpt><trkpt lat="40.308679085506164" lon="9.180038452380993"><ele>367.0</ele><time>2026-04-11T13:14:05Z</time></trkpt><trkpt lat="40.308563047139444" lon="9.180291771275567"><ele>367.0</ele><time>2026-04-11T13:14:06Z</time></trkpt><trkpt lat="40.30843931451696" lon="9.180539587633117"><ele>367.0</ele><time>2026-04-11T13:14:07Z</time></trkpt><trkpt lat="40.30830322184863" lon="9.18077219269637"><ele>367.0</ele><time>2026-04-11T13:14:08Z</time></trkpt><trkpt lat="40.308147061963595" lon="9.18098166767178"><ele>368.0</ele><time>2026-04-11T13:14:09Z</time></trkpt><trkpt lat="40.307973867368915" lon="9.18116274407315"><ele>369.0</ele><time>2026-04-11T13:14:10Z</time></trkpt><trkpt lat="40.30779146886387" lon="9.18133677089248"><ele>370.0</ele><time>2026-04-11T13:14:11Z</time></trkpt><trkpt lat="40.30761491785243" lon="9.181517772142247"><ele>370.0</ele><time>2026-04-11T13:14:12Z</time></trkpt><trkpt lat="40.30743937107199" lon="9.181701209165043"><ele>370.0</ele><time>2026-04-11T13:14:13Z</time></trkpt><trkpt lat="40.30726022298632" lon="9.18188133239503"><ele>374.0</ele><time>2026-04-11T13:14:14Z</time></trkpt><trkpt lat="40.30707856078087" lon="9.182060857075454"><ele>378.0</ele><time>2026-04-11T13:14:15Z</time></trkpt><trkpt lat="40.30689577807207" lon="9.182238629637451"><ele>375.0</ele><time>2026-04-11T13:14:16Z</time></trkpt><trkpt lat="40.30671108147767" lon="9.182416288120303"><ele>372.0</ele><time>2026-04-11T13:14:17Z</time></trkpt><trkpt lat="40.30652804110136" lon="9.182594354631805"><ele>378.5</ele><time>2026-04-11T13:14:18Z</time></trkpt><trkpt lat="40.30634826528275" lon="9.1827774203438"><ele>385.0</ele><time>2026-04-11T13:14:19Z</time></trkpt><trkpt lat="40.30616970127624" lon="9.182960686810015"><ele>385.0</ele><time>2026-04-11T13:14:20Z</time></trkpt><trkpt lat="40.305994278518824" lon="9.183148997474918"><ele>385.0</ele><time>2026-04-11T13:14:21Z</time></trkpt><trkpt lat="40.30582864656701" lon="9.183349301144572"><ele>383.6666666666667</ele><time>2026-04-11T13:14:22Z</time></trkpt><trkpt lat="40.30568369897702" lon="9.183573098252898"><ele>382.33333333333337</ele><time>2026-04-11T13:14:23Z</time></trkpt><trkpt lat="40.30556382026195" lon="9.183822397168493"><ele>381.0</ele><time>2026-04-11T13:14:24Z</time></trkpt><trkpt lat="40.305470470618374" lon="9.184090308233992"><ele>387.0</ele><time>2026-04-11T13:14:25Z</time></trkpt><trkpt lat="40.305403064387704" lon="9.184371841139388"><ele>393.0</ele><time>2026-04-11T13:14:26Z</time></trkpt><trkpt lat="40.305354672437154" lon="9.184660192844094"><ele>392.0</ele><time>2026-04-11T13:14:27Z</time></trkpt><trkpt lat="40.30530754464913" lon="9.184948527893797"><ele>391.0</ele><time>2026-04-11T13:14:28Z</time></trkpt><trkpt lat="40.3052591340109" lon="9.185234914051023"><ele>390.0</ele><time>2026-04-11T13:14:29Z</time></trkpt><trkpt lat="40.30520882757439" lon="9.185521615934686"><ele>390.33333333333337</ele><time>2026-04-11T13:14:30Z</time></trkpt><trkpt lat="40.30515761783471" lon="9.18581030081471"><ele>390.6666666666667</ele><time>2026-04-11T13:14:31Z</time></trkpt><trkpt lat="40.30511037493618" lon="9.186081419439336"><ele>391.0</ele><time>2026-04-11T13:14:32Z</time></trkpt><trkpt lat="40.30506841192274" lon="9.186336980246649"><ele>390.33333333333337</ele><time>2026-04-11T13:14:33Z</time></trkpt><trkpt lat="40.30502783513449" lon="9.186575966314965"><ele>389.66666666666663</ele><time>2026-04-11T13:14:34Z</time></trkpt><trkpt lat="40.304988313572515" lon="9.186799015342725"><ele>389.0</ele><time>2026-04-11T13:14:35Z</time></trkpt><trkpt lat="40.30494937619766" lon="9.187010830007331"><ele>389.0</ele><time>2026-04-11T13:14:36Z</time></trkpt><trkpt lat="40.304909029219665" lon="9.187209656605981"><ele>389.0</ele><time>2026-04-11T13:14:37Z</time></trkpt><trkpt lat="40.30485483446963" lon="9.187408353611891"><ele>389.0</ele><time>2026-04-11T13:14:38Z</time></trkpt><trkpt lat="40.304783604686364" lon="9.187603154312985"><ele>389.66666666666663</ele><time>2026-04-11T13:14:39Z</time></trkpt><trkpt lat="40.30469547165829" lon="9.187792288762736"><ele>390.33333333333337</ele><time>2026-04-11T13:14:40Z</time></trkpt><trkpt lat="40.30459869521594" lon="9.187973001926983"><ele>391.0</ele><time>2026-04-11T13:14:41Z</time></trkpt><trkpt lat="40.30450151613823" lon="9.188152360555353"><ele>390.6666666666667</ele><time>2026-04-11T13:14:42Z</time></trkpt><trkpt lat="40.30440370055847" lon="9.188338145605586"><ele>390.33333333333337</ele><time>2026-04-11T13:14:43Z</time></trkpt><trkpt lat="40.30430671684961" lon="9.188525251256609"><ele>390.0</ele><time>2026-04-11T13:14:44Z</time></trkpt><trkpt lat="40.30421185968345" lon="9.18871615611307"><ele>390.0</ele><time>2026-04-11T13:14:45Z</time></trkpt><trkpt lat="40.30411668795481" lon="9.188909380895621"><ele>390.0</ele><time>2026-04-11T13:14:46Z</time></trkpt><trkpt lat="40.304019466057355" lon="9.189102987078904"><ele>390.0</ele><time>2026-04-11T13:14:47Z</time></trkpt><trkpt lat="40.30391777348812" lon="9.18929515981126"><ele>390.33333333333337</ele><time>2026-04-11T13:14:48Z</time></trkpt><trkpt lat="40.303812960507756" lon="9.189489219244457"><ele>390.6666666666667</ele><time>2026-04-11T13:14:49Z</time></trkpt><trkpt lat="40.303708868319056" lon="9.18968694428362"><ele>391.0</ele><time>2026-04-11T13:14:50Z</time></trkpt><trkpt lat="40.3036093349228" lon="9.189881381875729"><ele>390.33333333333337</ele><time>2026-04-11T13:14:51Z</time></trkpt><trkpt lat="40.30351708090421" lon="9.19006516748961"><ele>389.66666666666663</ele><time>2026-04-11T13:14:52Z</time></trkpt><trkpt lat="40.303428043715144" lon="9.19024355403878"><ele>389.0</ele><time>2026-04-11T13:14:53Z</time></trkpt><trkpt lat="40.30334047479571" lon="9.190414734660191"><ele>389.0</ele><time>2026-04-11T13:14:54Z</time></trkpt><trkpt lat="40.30326077777334" lon="9.190572389538483"><ele>389.0</ele><time>2026-04-11T13:14:55Z</time></trkpt><trkpt lat="40.30319118773697" lon="9.190712234351487"><ele>389.0</ele><time>2026-04-11T13:14:56Z</time></trkpt><trkpt lat="40.303132022100435" lon="9.190832286435766"><ele>389.0</ele><time>2026-04-11T13:14:57Z</time></trkpt><trkpt lat="40.30308943459768" lon="9.190940101782445"><ele>388.8333333333333</ele><time>2026-04-11T13:14:58Z</time></trkpt><trkpt lat="40.30307984144397" lon="9.191047388510015"><ele>388.66666666666663</ele><time>2026-04-11T13:14:59Z</time></trkpt><trkpt lat="40.30311363210652" lon="9.191138510375694"><ele>388.5</ele><time>2026-04-11T13:15:00Z</time></trkpt><trkpt lat="40.303169996515265" lon="9.191206828993167"><ele>388.33333333333337</ele><time>2026-04-11T13:15:01Z</time></trkpt><trkpt lat="40.30325000919096" lon="9.191248596159564"><ele>388.1666666666667</ele><time>2026-04-11T13:15:02Z</time></trkpt><trkpt lat="40.303340631695264" lon="9.191282042038097"><ele>388.0</ele><time>2026-04-11T13:15:03Z</time></trkpt><trkpt lat="40.303436877791604" lon="9.1913225096833"><ele>388.0</ele><time>2026-04-11T13:15:04Z</time></trkpt><trkpt lat="40.30353318557103" lon="9.191370346107991"><ele>388.0</ele><time>2026-04-11T13:15:05Z</time></trkpt><trkpt lat="40.303636181127764" lon="9.191419615705815"><ele>388.0</ele><time>2026-04-11T13:15:06Z</time></trkpt><trkpt lat="40.303748690956574" lon="9.191471053068728"><ele>388.0</ele><time>2026-04-11T13:15:07Z</time></trkpt><trkpt lat="40.30387126639933" lon="9.19151041778664"><ele>387.75</ele><time>2026-04-11T13:15:08Z</time></trkpt><trkpt lat="40.30400481769322" lon="9.191519494476319"><ele>387.5</ele><time>2026-04-11T13:15:09Z</time></trkpt><trkpt lat="40.30414391278326" lon="9.191505090099596"><ele>387.25</ele><time>2026-04-11T13:15:10Z</time></trkpt><trkpt lat="40.30428750002528" lon="9.191485143185407"><ele>387.0</ele><time>2026-04-11T13:15:11Z</time></trkpt><trkpt lat="40.30442967102443" lon="9.191467879035367"><ele>387.0</ele><time>2026-04-11T13:15:12Z</time></trkpt><trkpt lat="40.30457326235014" lon="9.191457411077426"><ele>387.0</ele><time>2026-04-11T13:15:13Z</time></trkpt><trkpt lat="40.304717029874574" lon="9.191465816419184"><ele>387.0</ele><time>2026-04-11T13:15:14Z</time></trkpt><trkpt lat="40.30485985620521" lon="9.191500734079895"><ele>387.0</ele><time>2026-04-11T13:15:15Z</time></trkpt><trkpt lat="40.30500117880781" lon="9.191565063907078"><ele>385.0</ele><time>2026-04-11T13:15:16Z</time></trkpt><trkpt lat="40.30513746599529" lon="9.191660743922096"><ele>383.0</ele><time>2026-04-11T13:15:17Z</time></trkpt><trkpt lat="40.30526295620819" lon="9.19178753741058"><ele>381.0</ele><time>2026-04-11T13:15:18Z</time></trkpt><trkpt lat="40.30536851815043" lon="9.19194995624529"><ele>381.0</ele><time>2026-04-11T13:15:19Z</time></trkpt><trkpt lat="40.305466091885485" lon="9.192133906733794"><ele>381.0</ele><time>2026-04-11T13:15:20Z</time></trkpt><trkpt lat="40.30556425143073" lon="9.192317805068136"><ele>381.0</ele><time>2026-04-11T13:15:21Z</time></trkpt><trkpt lat="40.30567050629344" lon="9.192511983370315"><ele>380.3333333333333</ele><time>2026-04-11T13:15:22Z</time></trkpt><trkpt lat="40.30578429781482" lon="9.19271205314168"><ele>379.66666666666663</ele><time>2026-04-11T13:15:23Z</time></trkpt><trkpt lat="40.305904181331904" lon="9.192923827325144"><ele>379.0</ele><time>2026-04-11T13:15:24Z</time></trkpt><trkpt lat="40.306025467463044" lon="9.193150453023485"><ele>377.0</ele><time>2026-04-11T13:15:25Z</time></trkpt><trkpt lat="40.306132118940404" lon="9.193365147843123"><ele>375.0</ele><time>2026-04-11T13:15:26Z</time></trkpt><trkpt lat="40.30624558641987" lon="9.19359843981644"><ele>373.0</ele><time>2026-04-11T13:15:27Z</time></trkpt><trkpt lat="40.30636033694884" lon="9.193836477400382"><ele>372.3333333333333</ele><time>2026-04-11T13:15:28Z</time></trkpt><trkpt lat="40.30647576443695" lon="9.194079244072237"><ele>371.6666666666667</ele><time>2026-04-11T13:15:29Z</time></trkpt><trkpt lat="40.30659123886376" lon="9.19432737393957"><ele>371.0</ele><time>2026-04-11T13:15:30Z</time></trkpt><trkpt lat="40.30670514479474" lon="9.194575204984126"><ele>371.0</ele><time>2026-04-11T13:15:31Z</time></trkpt><trkpt lat="40.30682330348874" lon="9.194826991779143"><ele>371.0</ele><time>2026-04-11T13:15:32Z</time></trkpt><trkpt lat="40.30694198928264" lon="9.19508290662112"><ele>369.0</ele><time>2026-04-11T13:15:33Z</time></trkpt><trkpt lat="40.30706265609045" lon="9.195342843710801"><ele>367.0</ele><time>2026-04-11T13:15:34Z</time></trkpt><trkpt lat="40.30718487375483" lon="9.19560490410707"><ele>365.0</ele><time>2026-04-11T13:15:35Z</time></trkpt><trkpt lat="40.30730908939442" lon="9.195868541957037"><ele>363.0</ele><time>2026-04-11T13:15:36Z</time></trkpt><trkpt lat="40.307433495507595" lon="9.1961341952984"><ele>363.0</ele><time>2026-04-11T13:15:37Z</time></trkpt><trkpt lat="40.3075593843172" lon="9.196402803361122"><ele>363.0</ele><time>2026-04-11T13:15:38Z</time></trkpt><trkpt lat="40.307685629286425" lon="9.19667062499792"><ele>363.0</ele><time>2026-04-11T13:15:39Z</time></trkpt><trkpt lat="40.30781091812337" lon="9.196941639862706"><ele>363.0</ele><time>2026-04-11T13:15:40Z</time></trkpt><trkpt lat="40.307938136648644" lon="9.197215094284148"><ele>362.0</ele><time>2026-04-11T13:15:41Z</time></trkpt><trkpt lat="40.30806734791714" lon="9.197490236869614"><ele>361.0</ele><time>2026-04-11T13:15:42Z</time></trkpt><trkpt lat="40.30819755688459" lon="9.197767461083924"><ele>363.0</ele><time>2026-04-11T13:15:43Z</time></trkpt><trkpt lat="40.308329477930094" lon="9.198049200772875"><ele>365.0</ele><time>2026-04-11T13:15:44Z</time></trkpt><trkpt lat="40.30846137842517" lon="9.198330029441218"><ele>365.0</ele><time>2026-04-11T13:15:45Z</time></trkpt><trkpt lat="40.308594527258364" lon="9.198610324420883"><ele>365.0</ele><time>2026-04-11T13:15:46Z</time></trkpt><trkpt lat="40.30872658417232" lon="9.198888470506084"><ele>364.5</ele><time>2026-04-11T13:15:47Z</time></trkpt><trkpt lat="40.308859349267514" lon="9.199166220175501"><ele>364.0</ele><time>2026-04-11T13:15:48Z</time></trkpt><trkpt lat="40.308992632088895" lon="9.199446785864533"><ele>364.0</ele><time>2026-04-11T13:15:49Z</time></trkpt><trkpt lat="40.30912501330337" lon="9.199728727231975"><ele>364.0</ele><time>2026-04-11T13:15:50Z</time></trkpt><trkpt lat="40.309259008664995" lon="9.200013828968356"><ele>364.0</ele><time>2026-04-11T13:15:51Z</time></trkpt><trkpt lat="40.30939241918199" lon="9.200300359947207"><ele>364.0</ele><time>2026-04-11T13:15:52Z</time></trkpt><trkpt lat="40.309530320248264" lon="9.200587291661583"><ele>365.0</ele><time>2026-04-11T13:15:53Z</time></trkpt><trkpt lat="40.3096629297201" lon="9.200874453215235"><ele>366.0</ele><time>2026-04-11T13:15:54Z</time></trkpt><trkpt lat="40.30979790621848" lon="9.20116244292207"><ele>366.0</ele><time>2026-04-11T13:15:55Z</time></trkpt><trkpt lat="40.30993255522491" lon="9.201450600278802"><ele>366.0</ele><time>2026-04-11T13:15:56Z</time></trkpt><trkpt lat="40.31006412204881" lon="9.201738826530406"><ele>365.5</ele><time>2026-04-11T13:15:57Z</time></trkpt><trkpt lat="40.31018799576595" lon="9.202030488829676"><ele>365.0</ele><time>2026-04-11T13:15:58Z</time></trkpt><trkpt lat="40.310303448252974" lon="9.202327093573992"><ele>365.0</ele><time>2026-04-11T13:15:59Z</time></trkpt><trkpt lat="40.310408766177325" lon="9.20262803134647"><ele>365.0</ele><time>2026-04-11T13:16:00Z</time></trkpt><trkpt lat="40.31050760814652" lon="9.202935725053004"><ele>365.5</ele><time>2026-04-11T13:16:01Z</time></trkpt><trkpt lat="40.31059587175096" lon="9.203245563105327"><ele>366.0</ele><time>2026-04-11T13:16:02Z</time></trkpt><trkpt lat="40.31067575605164" lon="9.203559340400615"><ele>366.0</ele><time>2026-04-11T13:16:03Z</time></trkpt><trkpt lat="40.31074896419768" lon="9.203878314816986"><ele>366.0</ele><time>2026-04-11T13:16:04Z</time></trkpt><trkpt lat="40.31081480232224" lon="9.204196609571536"><ele>365.5</ele><time>2026-04-11T13:16:05Z</time></trkpt><trkpt lat="40.310876818881994" lon="9.204518216020894"><ele>365.0</ele><time>2026-04-11T13:16:06Z</time></trkpt><trkpt lat="40.310938165811116" lon="9.204838023462163"><ele>365.0</ele><time>2026-04-11T13:16:07Z</time></trkpt><trkpt lat="40.3110002128338" lon="9.205158018136231"><ele>365.0</ele><time>2026-04-11T13:16:08Z</time></trkpt><trkpt lat="40.31106358486876" lon="9.205480079472062"><ele>365.5</ele><time>2026-04-11T13:16:09Z</time></trkpt><trkpt lat="40.31112506568323" lon="9.205797691016455"><ele>366.0</ele><time>2026-04-11T13:16:10Z</time></trkpt><trkpt lat="40.31118725103079" lon="9.20611617546371"><ele>366.0</ele><time>2026-04-11T13:16:11Z</time></trkpt><trkpt lat="40.311248827865434" lon="9.206434386084316"><ele>366.0</ele><time>2026-04-11T13:16:12Z</time></trkpt><trkpt lat="40.31130812372648" lon="9.206752018327503"><ele>366.0</ele><time>2026-04-11T13:16:13Z</time></trkpt><trkpt lat="40.31136683784301" lon="9.207070634318693"><ele>366.0</ele><time>2026-04-11T13:16:14Z</time></trkpt><trkpt lat="40.311419764300425" lon="9.207388660366917"><ele>367.0</ele><time>2026-04-11T13:16:15Z</time></trkpt><trkpt lat="40.31145994456585" lon="9.207704701413826"><ele>368.0</ele><time>2026-04-11T13:16:16Z</time></trkpt><trkpt lat="40.311490437334655" lon="9.208025542089318"><ele>369.0</ele><time>2026-04-11T13:16:17Z</time></trkpt><trkpt lat="40.31150512840379" lon="9.208350136786946"><ele>370.0</ele><time>2026-04-11T13:16:18Z</time></trkpt><trkpt lat="40.311515835475994" lon="9.2086780429686"><ele>370.0</ele><time>2026-04-11T13:16:19Z</time></trkpt><trkpt lat="40.311520961120834" lon="9.209004205728002"><ele>370.0</ele><time>2026-04-11T13:16:20Z</time></trkpt><trkpt lat="40.31151598455598" lon="9.209332195122162"><ele>370.0</ele><time>2026-04-11T13:16:21Z</time></trkpt><trkpt lat="40.31150624662864" lon="9.209658116989456"><ele>370.0</ele><time>2026-04-11T13:16:22Z</time></trkpt><trkpt lat="40.31149713201481" lon="9.209979457269641"><ele>370.0</ele><time>2026-04-11T13:16:23Z</time></trkpt><trkpt lat="40.31149110864177" lon="9.210301234646826"><ele>370.0</ele><time>2026-04-11T13:16:24Z</time></trkpt><trkpt lat="40.311485347073784" lon="9.210621759960244"><ele>369.0</ele><time>2026-04-11T13:16:25Z</time></trkpt><trkpt lat="40.31147953000535" lon="9.210940678668596"><ele>368.0</ele><time>2026-04-11T13:16:26Z</time></trkpt><trkpt lat="40.31147583298763" lon="9.211255134168804"><ele>368.5</ele><time>2026-04-11T13:16:27Z</time></trkpt><trkpt lat="40.31147401308374" lon="9.211570274049535"><ele>369.0</ele><time>2026-04-11T13:16:28Z</time></trkpt><trkpt lat="40.31147936990762" lon="9.211880061389609"><ele>369.0</ele><time>2026-04-11T13:16:29Z</time></trkpt><trkpt lat="40.311496046483015" lon="9.21219048298705"><ele>369.0</ele><time>2026-04-11T13:16:30Z</time></trkpt><trkpt lat="40.31152213481015" lon="9.212501545759334"><ele>369.0</ele><time>2026-04-11T13:16:31Z</time></trkpt><trkpt lat="40.31155839639042" lon="9.21281207602247"><ele>369.0</ele><time>2026-04-11T13:16:32Z</time></trkpt><trkpt lat="40.31160683693279" lon="9.213120853389915"><ele>369.0</ele><time>2026-04-11T13:16:33Z</time></trkpt><trkpt lat="40.31166798278745" lon="9.2134269558504"><ele>369.0</ele><time>2026-04-11T13:16:34Z</time></trkpt><trkpt lat="40.311741161150245" lon="9.213730527654306"><ele>369.0</ele><time>2026-04-11T13:16:35Z</time></trkpt><trkpt lat="40.31182014688866" lon="9.214028682109047"><ele>369.0</ele><time>2026-04-11T13:16:36Z</time></trkpt><trkpt lat="40.31190768468654" lon="9.214322726193009"><ele>369.0</ele><time>2026-04-11T13:16:37Z</time></trkpt><trkpt lat="40.312005927985524" lon="9.214612510240249"><ele>369.0</ele><time>2026-04-11T13:16:38Z</time></trkpt><trkpt lat="40.31211711542923" lon="9.214894532810598"><ele>369.0</ele><time>2026-04-11T13:16:39Z</time></trkpt><trkpt lat="40.31223932558834" lon="9.215172344723902"><ele>369.0</ele><time>2026-04-11T13:16:40Z</time></trkpt><trkpt lat="40.31236718024731" lon="9.215447981587847"><ele>371.0</ele><time>2026-04-11T13:16:41Z</time></trkpt><trkpt lat="40.312495492185974" lon="9.21572288803143"><ele>373.0</ele><time>2026-04-11T13:16:42Z</time></trkpt><trkpt lat="40.31262277879481" lon="9.215995990107011"><ele>373.0</ele><time>2026-04-11T13:16:43Z</time></trkpt><trkpt lat="40.31274704644905" lon="9.216268630139304"><ele>373.0</ele><time>2026-04-11T13:16:44Z</time></trkpt><trkpt lat="40.31286774876665" lon="9.21654288655386"><ele>373.0</ele><time>2026-04-11T13:16:45Z</time></trkpt><trkpt lat="40.3129878741462" lon="9.21681624468"><ele>373.0</ele><time>2026-04-11T13:16:46Z</time></trkpt><trkpt lat="40.31310884389514" lon="9.217084678306554"><ele>374.0</ele><time>2026-04-11T13:16:47Z</time></trkpt><trkpt lat="40.31323126046489" lon="9.21735604829925"><ele>375.0</ele><time>2026-04-11T13:16:48Z</time></trkpt><trkpt lat="40.313353982711845" lon="9.217624451441022"><ele>375.0</ele><time>2026-04-11T13:16:49Z</time></trkpt><trkpt lat="40.31347653217969" lon="9.217891132134234"><ele>375.0</ele><time>2026-04-11T13:16:50Z</time></trkpt><trkpt lat="40.31360044398086" lon="9.21815843781054"><ele>376.0</ele><time>2026-04-11T13:16:51Z</time></trkpt><trkpt lat="40.3137230381403" lon="9.21842313837356"><ele>377.0</ele><time>2026-04-11T13:16:52Z</time></trkpt><trkpt lat="40.31384343983837" lon="9.218691674964251"><ele>378.5</ele><time>2026-04-11T13:16:53Z</time></trkpt><trkpt lat="40.31396401676174" lon="9.218958804012585"><ele>380.0</ele><time>2026-04-11T13:16:54Z</time></trkpt><trkpt lat="40.314084777781105" lon="9.219225437078867"><ele>381.0</ele><time>2026-04-11T13:16:55Z</time></trkpt><trkpt lat="40.314207698191034" lon="9.219491987027105"><ele>382.0</ele><time>2026-04-11T13:16:56Z</time></trkpt><trkpt lat="40.3143312440175" lon="9.219757691584743"><ele>383.0</ele><time>2026-04-11T13:16:57Z</time></trkpt><trkpt lat="40.31445530086008" lon="9.220024976934925"><ele>384.0</ele><time>2026-04-11T13:16:58Z</time></trkpt><trkpt lat="40.314577548561246" lon="9.220296221506686"><ele>384.0</ele><time>2026-04-11T13:16:59Z</time></trkpt><trkpt lat="40.3146976701416" lon="9.22056673040091"><ele>384.0</ele><time>2026-04-11T13:17:00Z</time></trkpt><trkpt lat="40.31481943006907" lon="9.220837902148775"><ele>385.5</ele><time>2026-04-11T13:17:01Z</time></trkpt><trkpt lat="40.31494267432711" lon="9.221107828959276"><ele>387.0</ele><time>2026-04-11T13:17:02Z</time></trkpt><trkpt lat="40.31506826037272" lon="9.221377040107889"><ele>388.5</ele><time>2026-04-11T13:17:03Z</time></trkpt><trkpt lat="40.31519334303571" lon="9.221648056448483"><ele>390.0</ele><time>2026-04-11T13:17:04Z</time></trkpt><trkpt lat="40.315316389210345" lon="9.221924295150126"><ele>390.0</ele><time>2026-04-11T13:17:05Z</time></trkpt><trkpt lat="40.31543424027727" lon="9.22220213646837"><ele>390.0</ele><time>2026-04-11T13:17:06Z</time></trkpt><trkpt lat="40.31554475369156" lon="9.22248653916063"><ele>389.5</ele><time>2026-04-11T13:17:07Z</time></trkpt><trkpt lat="40.315647831674234" lon="9.2227770740848"><ele>389.0</ele><time>2026-04-11T13:17:08Z</time></trkpt><trkpt lat="40.31574201651293" lon="9.22307291958688"><ele>392.0</ele><time>2026-04-11T13:17:09Z</time></trkpt><trkpt lat="40.31582574121319" lon="9.223370918659594"><ele>395.0</ele><time>2026-04-11T13:17:10Z</time></trkpt><trkpt lat="40.31590017881319" lon="9.22367484337984"><ele>399.5</ele><time>2026-04-11T13:17:11Z</time></trkpt><trkpt lat="40.31596475483574" lon="9.223982991085451"><ele>404.0</ele><time>2026-04-11T13:17:12Z</time></trkpt><trkpt lat="40.31602193782668" lon="9.224292075980813"><ele>404.0</ele><time>2026-04-11T13:17:13Z</time></trkpt><trkpt lat="40.31607060916817" lon="9.2246053852502"><ele>404.0</ele><time>2026-04-11T13:17:14Z</time></trkpt><trkpt lat="40.31611330313917" lon="9.22492064172254"><ele>406.5</ele><time>2026-04-11T13:17:15Z</time></trkpt><trkpt lat="40.31614467630313" lon="9.2252385922357"><ele>409.0</ele><time>2026-04-11T13:17:16Z</time></trkpt><trkpt lat="40.316165571806714" lon="9.225558435696271"><ele>406.5</ele><time>2026-04-11T13:17:17Z</time></trkpt><trkpt lat="40.31617731363129" lon="9.225877933620353"><ele>404.0</ele><time>2026-04-11T13:17:18Z</time></trkpt><trkpt lat="40.31618013167727" lon="9.2261994434865"><ele>400.5</ele><time>2026-04-11T13:17:19Z</time></trkpt><trkpt lat="40.31617180662251" lon="9.226521258098227"><ele>397.0</ele><time>2026-04-11T13:17:20Z</time></trkpt><trkpt lat="40.31615435507176" lon="9.226842854220383"><ele>397.0</ele><time>2026-04-11T13:17:21Z</time></trkpt><trkpt lat="40.31612650424444" lon="9.227166360476472"><ele>397.0</ele><time>2026-04-11T13:17:22Z</time></trkpt><trkpt lat="40.31608728078642" lon="9.227489820646039"><ele>394.5</ele><time>2026-04-11T13:17:23Z</time></trkpt><trkpt lat="40.316037081008915" lon="9.227810591790558"><ele>392.0</ele><time>2026-04-11T13:17:24Z</time></trkpt><trkpt lat="40.31597541984362" lon="9.228132636820805"><ele>392.5</ele><time>2026-04-11T13:17:25Z</time></trkpt><trkpt lat="40.31590507185898" lon="9.228452961317172"><ele>393.0</ele><time>2026-04-11T13:17:26Z</time></trkpt><trkpt lat="40.31582488341461" lon="9.22877153664852"><ele>393.5</ele><time>2026-04-11T13:17:27Z</time></trkpt><trkpt lat="40.31573648417943" lon="9.229086002284477"><ele>394.0</ele><time>2026-04-11T13:17:28Z</time></trkpt><trkpt lat="40.31563836772808" lon="9.229396087068782"><ele>393.5</ele><time>2026-04-11T13:17:29Z</time></trkpt><trkpt lat="40.315529642109034" lon="9.229702830144992"><ele>393.0</ele><time>2026-04-11T13:17:30Z</time></trkpt><trkpt lat="40.3154095335355" lon="9.230001989721197"><ele>393.0</ele><time>2026-04-11T13:17:31Z</time></trkpt><trkpt lat="40.31528396101609" lon="9.230295799394453"><ele>393.0</ele><time>2026-04-11T13:17:32Z</time></trkpt><trkpt lat="40.31515722119" lon="9.230591420633434"><ele>394.5</ele><time>2026-04-11T13:17:33Z</time></trkpt><trkpt lat="40.31503457759717" lon="9.230886351641464"><ele>396.0</ele><time>2026-04-11T13:17:34Z</time></trkpt><trkpt lat="40.31491452677981" lon="9.231183278752187"><ele>398.0</ele><time>2026-04-11T13:17:35Z</time></trkpt><trkpt lat="40.31479478255066" lon="9.231480999089797"><ele>400.0</ele><time>2026-04-11T13:17:36Z</time></trkpt><trkpt lat="40.31467181873376" lon="9.231775518659669"><ele>400.0</ele><time>2026-04-11T13:17:37Z</time></trkpt><trkpt lat="40.31454828559612" lon="9.23206800447539"><ele>400.0</ele><time>2026-04-11T13:17:38Z</time></trkpt><trkpt lat="40.314423863891975" lon="9.232359647865394"><ele>400.5</ele><time>2026-04-11T13:17:39Z</time></trkpt><trkpt lat="40.31430133339361" lon="9.232654342550035"><ele>401.0</ele><time>2026-04-11T13:17:40Z</time></trkpt><trkpt lat="40.31418070166334" lon="9.232948325573187"><ele>401.0</ele><time>2026-04-11T13:17:41Z</time></trkpt><trkpt lat="40.31406340804856" lon="9.233245806208785"><ele>401.0</ele><time>2026-04-11T13:17:42Z</time></trkpt><trkpt lat="40.31395204728112" lon="9.233545525813186"><ele>401.0</ele><time>2026-04-11T13:17:43Z</time></trkpt><trkpt lat="40.313850772865095" lon="9.233850681714479"><ele>401.0</ele><time>2026-04-11T13:17:44Z</time></trkpt><trkpt lat="40.313758339747146" lon="9.234162928678048"><ele>401.0</ele><time>2026-04-11T13:17:45Z</time></trkpt><trkpt lat="40.313673982939804" lon="9.234477368696263"><ele>401.0</ele><time>2026-04-11T13:17:46Z</time></trkpt><trkpt lat="40.31359672042872" lon="9.234797804327822"><ele>400.5</ele><time>2026-04-11T13:17:47Z</time></trkpt><trkpt lat="40.31352972991649" lon="9.235118830339877"><ele>400.0</ele><time>2026-04-11T13:17:48Z</time></trkpt><trkpt lat="40.31346992306426" lon="9.235445945698451"><ele>400.5</ele><time>2026-04-11T13:17:49Z</time></trkpt><trkpt lat="40.31341504005334" lon="9.23577068985276"><ele>401.0</ele><time>2026-04-11T13:17:50Z</time></trkpt><trkpt lat="40.313359444707416" lon="9.236097739072942"><ele>401.0</ele><time>2026-04-11T13:17:51Z</time></trkpt><trkpt lat="40.31330407763292" lon="9.236422361597686"><ele>401.0</ele><time>2026-04-11T13:17:52Z</time></trkpt><trkpt lat="40.31324825176886" lon="9.236748852169542"><ele>402.0</ele><time>2026-04-11T13:17:53Z</time></trkpt><trkpt lat="40.31319439610353" lon="9.237077748776697"><ele>403.0</ele><time>2026-04-11T13:17:54Z</time></trkpt><trkpt lat="40.31314241773612" lon="9.237402939340695"><ele>404.0</ele><time>2026-04-11T13:17:55Z</time></trkpt><trkpt lat="40.31309472761115" lon="9.237731199163623"><ele>405.0</ele><time>2026-04-11T13:17:56Z</time></trkpt><trkpt lat="40.313057737316065" lon="9.238061718653604"><ele>402.5</ele><time>2026-04-11T13:17:57Z</time></trkpt><trkpt lat="40.31303334522565" lon="9.23839627719803"><ele>400.0</ele><time>2026-04-11T13:17:58Z</time></trkpt><trkpt lat="40.31301866035813" lon="9.238729418686928"><ele>401.0</ele><time>2026-04-11T13:17:59Z</time></trkpt><trkpt lat="40.313008571837535" lon="9.23906598952541"><ele>402.0</ele><time>2026-04-11T13:18:00Z</time></trkpt><trkpt lat="40.31300509964687" lon="9.239404426448692"><ele>402.0</ele><time>2026-04-11T13:18:01Z</time></trkpt><trkpt lat="40.313009290270834" lon="9.23974237037646"><ele>402.0</ele><time>2026-04-11T13:18:02Z</time></trkpt><trkpt lat="40.313021707489014" lon="9.240075912761936"><ele>404.0</ele><time>2026-04-11T13:18:03Z</time></trkpt><trkpt lat="40.31304513106404" lon="9.240410239828286"><ele>406.0</ele><time>2026-04-11T13:18:04Z</time></trkpt><trkpt lat="40.313081269775154" lon="9.240745105669811"><ele>406.0</ele><time>2026-04-11T13:18:05Z</time></trkpt><trkpt lat="40.313128848538575" lon="9.241074957762391"><ele>406.0</ele><time>2026-04-11T13:18:06Z</time></trkpt><trkpt lat="40.31318279826452" lon="9.241402856256446"><ele>406.5</ele><time>2026-04-11T13:18:07Z</time></trkpt><trkpt lat="40.31324409681631" lon="9.241730378548075"><ele>407.0</ele><time>2026-04-11T13:18:08Z</time></trkpt><trkpt lat="40.31331323820618" lon="9.24205474010975"><ele>406.5</ele><time>2026-04-11T13:18:09Z</time></trkpt><trkpt lat="40.313389737043224" lon="9.242377963135016"><ele>406.0</ele><time>2026-04-11T13:18:10Z</time></trkpt><trkpt lat="40.31347291425348" lon="9.242701809422584"><ele>406.0</ele><time>2026-04-11T13:18:11Z</time></trkpt><trkpt lat="40.31355818893921" lon="9.243020919522289"><ele>406.0</ele><time>2026-04-11T13:18:12Z</time></trkpt><trkpt lat="40.31364355245864" lon="9.24334358341205"><ele>406.5</ele><time>2026-04-11T13:18:13Z</time></trkpt><trkpt lat="40.31372613434019" lon="9.243664501872399"><ele>407.0</ele><time>2026-04-11T13:18:14Z</time></trkpt><trkpt lat="40.31381027241217" lon="9.243980717996688"><ele>412.0</ele><time>2026-04-11T13:18:15Z</time></trkpt><trkpt lat="40.31389458871941" lon="9.24429821395384"><ele>417.0</ele><time>2026-04-11T13:18:16Z</time></trkpt><trkpt lat="40.31398019828387" lon="9.244612308007625"><ele>419.5</ele><time>2026-04-11T13:18:17Z</time></trkpt><trkpt lat="40.31406636487905" lon="9.244924907181527"><ele>422.0</ele><time>2026-04-11T13:18:18Z</time></trkpt><trkpt lat="40.314154648120564" lon="9.245236431120437"><ele>422.0</ele><time>2026-04-11T13:18:19Z</time></trkpt><trkpt lat="40.31424156722531" lon="9.245546914499819"><ele>422.0</ele><time>2026-04-11T13:18:20Z</time></trkpt><trkpt lat="40.31432929593168" lon="9.245854163157032"><ele>424.0</ele><time>2026-04-11T13:18:21Z</time></trkpt><trkpt lat="40.31441558294776" lon="9.246159814098514"><ele>426.0</ele><time>2026-04-11T13:18:22Z</time></trkpt><trkpt lat="40.31450230807905" lon="9.246466703724057"><ele>429.5</ele><time>2026-04-11T13:18:23Z</time></trkpt><trkpt lat="40.314584968413264" lon="9.246777810322023"><ele>433.0</ele><time>2026-04-11T13:18:24Z</time></trkpt><trkpt lat="40.314668041411025" lon="9.247087862800626"><ele>428.5</ele><time>2026-04-11T13:18:25Z</time></trkpt><trkpt lat="40.31474874297715" lon="9.247395605422913"><ele>424.0</ele><time>2026-04-11T13:18:26Z</time></trkpt><trkpt lat="40.31483333441639" lon="9.247702009679335"><ele>424.0</ele><time>2026-04-11T13:18:27Z</time></trkpt><trkpt lat="40.31491855035276" lon="9.248007822315337"><ele>424.0</ele><time>2026-04-11T13:18:28Z</time></trkpt><trkpt lat="40.31500364543014" lon="9.248313810808336"><ele>427.0</ele><time>2026-04-11T13:18:29Z</time></trkpt><trkpt lat="40.31508820517581" lon="9.248615515956919"><ele>430.0</ele><time>2026-04-11T13:18:30Z</time></trkpt><trkpt lat="40.31517300080464" lon="9.248919202643268"><ele>433.0</ele><time>2026-04-11T13:18:31Z</time></trkpt><trkpt lat="40.3152563365864" lon="9.24922392799956"><ele>436.0</ele><time>2026-04-11T13:18:32Z</time></trkpt><trkpt lat="40.315339130442645" lon="9.24953162274236"><ele>441.5</ele><time>2026-04-11T13:18:33Z</time></trkpt><trkpt lat="40.31542134754028" lon="9.24984225841837"><ele>447.0</ele><time>2026-04-11T13:18:34Z</time></trkpt><trkpt lat="40.31550371903017" lon="9.250154577355937"><ele>446.5</ele><time>2026-04-11T13:18:35Z</time></trkpt><trkpt lat="40.315585057789775" lon="9.25046920462409"><ele>446.0</ele><time>2026-04-11T13:18:36Z</time></trkpt><trkpt lat="40.315666218016666" lon="9.250786202646028"><ele>446.0</ele><time>2026-04-11T13:18:37Z</time></trkpt><trkpt lat="40.31574795318154" lon="9.25110648545345"><ele>446.0</ele><time>2026-04-11T13:18:38Z</time></trkpt><trkpt lat="40.31582934113054" lon="9.251430509122264"><ele>442.0</ele><time>2026-04-11T13:18:39Z</time></trkpt><trkpt lat="40.31591062124857" lon="9.251755875023093"><ele>438.0</ele><time>2026-04-11T13:18:40Z</time></trkpt><trkpt lat="40.315995308320495" lon="9.25204960277689"><ele>436.5</ele><time>2026-04-11T13:18:41Z</time></trkpt><trkpt lat="40.3160905000061" lon="9.25232661467452"><ele>435.0</ele><time>2026-04-11T13:18:42Z</time></trkpt><trkpt lat="40.31618315733707" lon="9.252623268715592"><ele>435.0</ele><time>2026-04-11T13:18:43Z</time></trkpt><trkpt lat="40.316271636147306" lon="9.252928283402625"><ele>435.0</ele><time>2026-04-11T13:18:44Z</time></trkpt><trkpt lat="40.31635504406744" lon="9.253236287114136"><ele>429.5</ele><time>2026-04-11T13:18:45Z</time></trkpt><trkpt lat="40.316438905153994" lon="9.253544720276578"><ele>424.0</ele><time>2026-04-11T13:18:46Z</time></trkpt><trkpt lat="40.3165232213976" lon="9.253852308249709"><ele>423.5</ele><time>2026-04-11T13:18:47Z</time></trkpt><trkpt lat="40.31660745699186" lon="9.254157800652193"><ele>423.0</ele><time>2026-04-11T13:18:48Z</time></trkpt><trkpt lat="40.31669140216942" lon="9.254465680836239"><ele>423.0</ele><time>2026-04-11T13:18:49Z</time></trkpt><trkpt lat="40.316775758065376" lon="9.254775675615072"><ele>423.0</ele><time>2026-04-11T13:18:50Z</time></trkpt><trkpt lat="40.31685955514993" lon="9.255082573047222"><ele>424.0</ele><time>2026-04-11T13:18:51Z</time></trkpt><trkpt lat="40.31694260302322" lon="9.255387109913444"><ele>425.0</ele><time>2026-04-11T13:18:52Z</time></trkpt><trkpt lat="40.317024705362606" lon="9.255696484624425"><ele>425.0</ele><time>2026-04-11T13:18:53Z</time></trkpt><trkpt lat="40.3171101987942" lon="9.255997282647355"><ele>425.0</ele><time>2026-04-11T13:18:54Z</time></trkpt><trkpt lat="40.31719657748587" lon="9.256302632467664"><ele>424.5</ele><time>2026-04-11T13:18:55Z</time></trkpt><trkpt lat="40.31728834395813" lon="9.25660216065158"><ele>424.0</ele><time>2026-04-11T13:18:56Z</time></trkpt><trkpt lat="40.31739350658355" lon="9.256898896878143"><ele>424.0</ele><time>2026-04-11T13:18:57Z</time></trkpt><trkpt lat="40.31750179858645" lon="9.257192855144005"><ele>424.0</ele><time>2026-04-11T13:18:58Z</time></trkpt><trkpt lat="40.3176097228246" lon="9.257484633058521"><ele>427.0</ele><time>2026-04-11T13:18:59Z</time></trkpt><trkpt lat="40.317718198768965" lon="9.257783123918708"><ele>430.0</ele><time>2026-04-11T13:19:00Z</time></trkpt><trkpt lat="40.31782631286421" lon="9.25807943422791"><ele>435.5</ele><time>2026-04-11T13:19:01Z</time></trkpt><trkpt lat="40.31793469048986" lon="9.258374743137127"><ele>441.0</ele><time>2026-04-11T13:19:02Z</time></trkpt><trkpt lat="40.31804444510949" lon="9.258671528951032"><ele>436.5</ele><time>2026-04-11T13:19:03Z</time></trkpt><trkpt lat="40.31815337029848" lon="9.258964935495598"><ele>432.0</ele><time>2026-04-11T13:19:04Z</time></trkpt><trkpt lat="40.31826395180085" lon="9.259262723065252"><ele>432.0</ele><time>2026-04-11T13:19:05Z</time></trkpt><trkpt lat="40.31837431670022" lon="9.259560062794883"><ele>432.0</ele><time>2026-04-11T13:19:06Z</time></trkpt><trkpt lat="40.318485582294656" lon="9.259855982575308"><ele>432.5</ele><time>2026-04-11T13:19:07Z</time></trkpt><trkpt lat="40.318594759175774" lon="9.260153151228097"><ele>433.0</ele><time>2026-04-11T13:19:08Z</time></trkpt><trkpt lat="40.31870506232456" lon="9.260445662038915"><ele>433.0</ele><time>2026-04-11T13:19:09Z</time></trkpt><trkpt lat="40.31881441830849" lon="9.260741521842746"><ele>433.0</ele><time>2026-04-11T13:19:10Z</time></trkpt><trkpt lat="40.31892251595994" lon="9.261034555934891"><ele>433.0</ele><time>2026-04-11T13:19:11Z</time></trkpt><trkpt lat="40.31903041261094" lon="9.261330235496299"><ele>433.0</ele><time>2026-04-11T13:19:12Z</time></trkpt><trkpt lat="40.319137597692176" lon="9.2616250386691"><ele>435.0</ele><time>2026-04-11T13:19:13Z</time></trkpt><trkpt lat="40.31924506541403" lon="9.261917137340113"><ele>437.0</ele><time>2026-04-11T13:19:14Z</time></trkpt><trkpt lat="40.319351942894514" lon="9.262210720737068"><ele>440.5</ele><time>2026-04-11T13:19:15Z</time></trkpt><trkpt lat="40.319459432679" lon="9.26250286671258"><ele>444.0</ele><time>2026-04-11T13:19:16Z</time></trkpt><trkpt lat="40.31956698829176" lon="9.262796789459196"><ele>444.0</ele><time>2026-04-11T13:19:17Z</time></trkpt><trkpt lat="40.3196759429345" lon="9.263089853080068"><ele>444.0</ele><time>2026-04-11T13:19:18Z</time></trkpt><trkpt lat="40.31978471368452" lon="9.263379055327148"><ele>446.5</ele><time>2026-04-11T13:19:19Z</time></trkpt><trkpt lat="40.31989557154691" lon="9.263671228249496"><ele>449.0</ele><time>2026-04-11T13:19:20Z</time></trkpt><trkpt lat="40.3200030907413" lon="9.263960673232752"><ele>452.0</ele><time>2026-04-11T13:19:21Z</time></trkpt><trkpt lat="40.320111352360456" lon="9.264252033006152"><ele>455.0</ele><time>2026-04-11T13:19:22Z</time></trkpt><trkpt lat="40.32021576921884" lon="9.26454284222197"><ele>459.5</ele><time>2026-04-11T13:19:23Z</time></trkpt><trkpt lat="40.320319185763545" lon="9.264832265482225"><ele>464.0</ele><time>2026-04-11T13:19:24Z</time></trkpt><trkpt lat="40.32041691795461" lon="9.265125278167126"><ele>464.0</ele><time>2026-04-11T13:19:25Z</time></trkpt><trkpt lat="40.3205085911455" lon="9.265420226624057"><ele>464.0</ele><time>2026-04-11T13:19:26Z</time></trkpt><trkpt lat="40.32059345075832" lon="9.265717648291115"><ele>457.5</ele><time>2026-04-11T13:19:27Z</time></trkpt><trkpt lat="40.32067723442177" lon="9.2660163320555"><ele>451.0</ele><time>2026-04-11T13:19:28Z</time></trkpt><trkpt lat="40.32075918102646" lon="9.266316272996907"><ele>451.5</ele><time>2026-04-11T13:19:29Z</time></trkpt><trkpt lat="40.320840311586764" lon="9.266617034430176"><ele>452.0</ele><time>2026-04-11T13:19:30Z</time></trkpt><trkpt lat="40.32092344753971" lon="9.266920504840424"><ele>452.0</ele><time>2026-04-11T13:19:31Z</time></trkpt><trkpt lat="40.32100447878344" lon="9.26722135807349"><ele>452.0</ele><time>2026-04-11T13:19:32Z</time></trkpt><trkpt lat="40.32108788345475" lon="9.267522471722424"><ele>453.0</ele><time>2026-04-11T13:19:33Z</time></trkpt><trkpt lat="40.321170125587926" lon="9.267824240196681"><ele>454.0</ele><time>2026-04-11T13:19:34Z</time></trkpt><trkpt lat="40.32125495840038" lon="9.268129588636192"><ele>453.5</ele><time>2026-04-11T13:19:35Z</time></trkpt><trkpt lat="40.321341555695845" lon="9.268435591537909"><ele>453.0</ele><time>2026-04-11T13:19:36Z</time></trkpt><trkpt lat="40.32142377982719" lon="9.268743655935628"><ele>455.5</ele><time>2026-04-11T13:19:37Z</time></trkpt><trkpt lat="40.3215080896153" lon="9.269047572564796"><ele>458.0</ele><time>2026-04-11T13:19:38Z</time></trkpt><trkpt lat="40.32159134860553" lon="9.269353029368952"><ele>458.0</ele><time>2026-04-11T13:19:39Z</time></trkpt><trkpt lat="40.32167540100495" lon="9.269657815388632"><ele>458.0</ele><time>2026-04-11T13:19:40Z</time></trkpt><trkpt lat="40.32175750003565" lon="9.269961240509623"><ele>460.0</ele><time>2026-04-11T13:19:41Z</time></trkpt><trkpt lat="40.321839204714145" lon="9.270268051571021"><ele>462.0</ele><time>2026-04-11T13:19:42Z</time></trkpt><trkpt lat="40.32192077364722" lon="9.2705736534188"><ele>463.5</ele><time>2026-04-11T13:19:43Z</time></trkpt><trkpt lat="40.32200364578863" lon="9.270877116707787"><ele>465.0</ele><time>2026-04-11T13:19:44Z</time></trkpt><trkpt lat="40.3220886076134" lon="9.27118217811314"><ele>463.0</ele><time>2026-04-11T13:19:45Z</time></trkpt><trkpt lat="40.32217302274907" lon="9.27148569945403"><ele>461.0</ele><time>2026-04-11T13:19:46Z</time></trkpt><trkpt lat="40.3222575097808" lon="9.271788415316534"><ele>461.0</ele><time>2026-04-11T13:19:47Z</time></trkpt><trkpt lat="40.32234136257877" lon="9.272095861109754"><ele>461.0</ele><time>2026-04-11T13:19:48Z</time></trkpt><trkpt lat="40.32242177150193" lon="9.272399783692398"><ele>464.0</ele><time>2026-04-11T13:19:49Z</time></trkpt><trkpt lat="40.322499389970744" lon="9.272701669710122"><ele>467.0</ele><time>2026-04-11T13:19:50Z</time></trkpt><trkpt lat="40.32257148736195" lon="9.273002544507461"><ele>469.0</ele><time>2026-04-11T13:19:51Z</time></trkpt><trkpt lat="40.32263291881847" lon="9.27330377686272"><ele>471.0</ele><time>2026-04-11T13:19:52Z</time></trkpt><trkpt lat="40.32267660547629" lon="9.273601549780542"><ele>471.0</ele><time>2026-04-11T13:19:53Z</time></trkpt><trkpt lat="40.32270846947893" lon="9.273900851714005"><ele>471.0</ele><time>2026-04-11T13:19:54Z</time></trkpt><trkpt lat="40.322730310210325" lon="9.274197958688122"><ele>473.0</ele><time>2026-04-11T13:19:55Z</time></trkpt><trkpt lat="40.32274182490288" lon="9.27449099675793"><ele>475.0</ele><time>2026-04-11T13:19:56Z</time></trkpt><trkpt lat="40.322742931828394" lon="9.274776787291037"><ele>477.0</ele><time>2026-04-11T13:19:57Z</time></trkpt><trkpt lat="40.322739143994745" lon="9.2750559781459"><ele>478.66666666666663</ele><time>2026-04-11T13:19:58Z</time></trkpt><trkpt lat="40.32273701053794" lon="9.275327366263197"><ele>480.3333333333333</ele><time>2026-04-11T13:19:59Z</time></trkpt><trkpt lat="40.322737577277586" lon="9.27559774891668"><ele>482.0</ele><time>2026-04-11T13:20:00Z</time></trkpt><trkpt lat="40.32273779314226" lon="9.275865358646548"><ele>483.66666666666663</ele><time>2026-04-11T13:20:01Z</time></trkpt><trkpt lat="40.32273694593735" lon="9.276131635137597"><ele>485.33333333333337</ele><time>2026-04-11T13:20:02Z</time></trkpt><trkpt lat="40.32273470395308" lon="9.276397466263274"><ele>487.0</ele><time>2026-04-11T13:20:03Z</time></trkpt><trkpt lat="40.32274120673816" lon="9.27658007329314"><ele>488.6666666666667</ele><time>2026-04-11T13:20:04Z</time></trkpt><trkpt lat="40.322735661528654" lon="9.276819260630436"><ele>490.33333333333337</ele><time>2026-04-11T13:20:05Z</time></trkpt><trkpt lat="40.32272829087411" lon="9.27705674957441"><ele>492.0</ele><time>2026-04-11T13:20:06Z</time></trkpt><trkpt lat="40.32271818825429" lon="9.277297388331178"><ele>492.66666666666663</ele><time>2026-04-11T13:20:07Z</time></trkpt><trkpt lat="40.322716573787105" lon="9.277537295455227"><ele>493.3333333333333</ele><time>2026-04-11T13:20:08Z</time></trkpt><trkpt lat="40.32271998590216" lon="9.277779935754802"><ele>494.0</ele><time>2026-04-11T13:20:09Z</time></trkpt><trkpt lat="40.3227280801506" lon="9.278026738885504"><ele>494.66666666666663</ele><time>2026-04-11T13:20:10Z</time></trkpt><trkpt lat="40.322729152321045" lon="9.278275846664268"><ele>495.33333333333337</ele><time>2026-04-11T13:20:11Z</time></trkpt><trkpt lat="40.32272360395505" lon="9.278529538565694"><ele>496.0</ele><time>2026-04-11T13:20:12Z</time></trkpt><trkpt lat="40.32272123584981" lon="9.27878499624411"><ele>496.33333333333337</ele><time>2026-04-11T13:20:13Z</time></trkpt><trkpt lat="40.32272299765447" lon="9.279044600109723"><ele>496.66666666666663</ele><time>2026-04-11T13:20:14Z</time></trkpt><trkpt lat="40.322726118197004" lon="9.279305842849741"><ele>497.0</ele><time>2026-04-11T13:20:15Z</time></trkpt><trkpt lat="40.322725401140204" lon="9.279567787710418"><ele>496.0</ele><time>2026-04-11T13:20:16Z</time></trkpt><trkpt lat="40.32272362684551" lon="9.27982976043128"><ele>495.0</ele><time>2026-04-11T13:20:17Z</time></trkpt><trkpt lat="40.32272221895993" lon="9.280093016542715"><ele>494.0</ele><time>2026-04-11T13:20:18Z</time></trkpt><trkpt lat="40.322717285255116" lon="9.28035750309981"><ele>494.3333333333333</ele><time>2026-04-11T13:20:19Z</time></trkpt><trkpt lat="40.32271610845989" lon="9.280621743948894"><ele>494.66666666666663</ele><time>2026-04-11T13:20:20Z</time></trkpt><trkpt lat="40.32271697569264" lon="9.28087942900309"><ele>495.0</ele><time>2026-04-11T13:20:21Z</time></trkpt><trkpt lat="40.322715446718995" lon="9.2811313726208"><ele>495.0</ele><time>2026-04-11T13:20:22Z</time></trkpt><trkpt lat="40.3227144949077" lon="9.281371617000795"><ele>495.0</ele><time>2026-04-11T13:20:23Z</time></trkpt><trkpt lat="40.32271165391255" lon="9.28160402210528"><ele>495.0</ele><time>2026-04-11T13:20:24Z</time></trkpt><trkpt lat="40.32270204523039" lon="9.281829732760908"><ele>495.66666666666663</ele><time>2026-04-11T13:20:25Z</time></trkpt><trkpt lat="40.32267418646855" lon="9.282047582282791"><ele>496.3333333333333</ele><time>2026-04-11T13:20:26Z</time></trkpt><trkpt lat="40.3226461905537" lon="9.282267644934466"><ele>497.0</ele><time>2026-04-11T13:20:27Z</time></trkpt><trkpt lat="40.32261505477126" lon="9.282487243292053"><ele>498.66666666666663</ele><time>2026-04-11T13:20:28Z</time></trkpt><trkpt lat="40.32258660051922" lon="9.282710183198576"><ele>500.33333333333337</ele><time>2026-04-11T13:20:29Z</time></trkpt><trkpt lat="40.322581329666484" lon="9.28293149661152"><ele>502.0</ele><time>2026-04-11T13:20:30Z</time></trkpt><trkpt lat="40.32261457030875" lon="9.283130999219724"><ele>504.33333333333337</ele><time>2026-04-11T13:20:31Z</time></trkpt><trkpt lat="40.32269049191187" lon="9.283315936757825"><ele>506.66666666666663</ele><time>2026-04-11T13:20:32Z</time></trkpt><trkpt lat="40.32280467681877" lon="9.283479049944626"><ele>509.0</ele><time>2026-04-11T13:20:33Z</time></trkpt><trkpt lat="40.32293638961721" lon="9.283630538866856"><ele>509.0</ele><time>2026-04-11T13:20:34Z</time></trkpt><trkpt lat="40.323058437356785" lon="9.28379739822226"><ele>509.0</ele><time>2026-04-11T13:20:35Z</time></trkpt><trkpt lat="40.32316367153868" lon="9.283973568420327"><ele>509.0</ele><time>2026-04-11T13:20:36Z</time></trkpt><trkpt lat="40.32323315219474" lon="9.284161995695575"><ele>509.3333333333333</ele><time>2026-04-11T13:20:37Z</time></trkpt><trkpt lat="40.32329017633749" lon="9.284341628973419"><ele>509.66666666666663</ele><time>2026-04-11T13:20:38Z</time></trkpt><trkpt lat="40.32329544954993" lon="9.28456520386091"><ele>510.0</ele><time>2026-04-11T13:20:39Z</time></trkpt><trkpt lat="40.32332440187829" lon="9.284768910738034"><ele>509.33333333333337</ele><time>2026-04-11T13:20:40Z</time></trkpt><trkpt lat="40.323362585866874" lon="9.284987413644279"><ele>508.6666666666667</ele><time>2026-04-11T13:20:41Z</time></trkpt><trkpt lat="40.32340068506202" lon="9.285206962351952"><ele>508.0</ele><time>2026-04-11T13:20:42Z</time></trkpt><trkpt lat="40.3234303459592" lon="9.285437194858428"><ele>508.6666666666667</ele><time>2026-04-11T13:20:43Z</time></trkpt><trkpt lat="40.323457732568286" lon="9.285674029219646"><ele>509.33333333333337</ele><time>2026-04-11T13:20:44Z</time></trkpt><trkpt lat="40.323488699096806" lon="9.285917626710004"><ele>510.0</ele><time>2026-04-11T13:20:45Z</time></trkpt><trkpt lat="40.32352514652582" lon="9.286161073663832"><ele>510.0</ele><time>2026-04-11T13:20:46Z</time></trkpt><trkpt lat="40.323562164851886" lon="9.286403367767589"><ele>510.0</ele><time>2026-04-11T13:20:47Z</time></trkpt><trkpt lat="40.32360076995501" lon="9.28664403362334"><ele>510.0</ele><time>2026-04-11T13:20:48Z</time></trkpt><trkpt lat="40.32364037857373" lon="9.286881121842828"><ele>512.0</ele><time>2026-04-11T13:20:49Z</time></trkpt><trkpt lat="40.32367980504258" lon="9.287114847214713"><ele>514.0</ele><time>2026-04-11T13:20:50Z</time></trkpt><trkpt lat="40.32371760797657" lon="9.287349157358944"><ele>516.0</ele><time>2026-04-11T13:20:51Z</time></trkpt><trkpt lat="40.323752376993966" lon="9.287579537081205"><ele>519.0</ele><time>2026-04-11T13:20:52Z</time></trkpt><trkpt lat="40.323786127345315" lon="9.287810286670728"><ele>522.0</ele><time>2026-04-11T13:20:53Z</time></trkpt><trkpt lat="40.32381905762306" lon="9.288036912326135"><ele>525.0</ele><time>2026-04-11T13:20:54Z</time></trkpt><trkpt lat="40.32385274505072" lon="9.288259523616293"><ele>527.3333333333334</ele><time>2026-04-11T13:20:55Z</time></trkpt><trkpt lat="40.3238835091119" lon="9.288480728174113"><ele>529.6666666666667</ele><time>2026-04-11T13:20:56Z</time></trkpt><trkpt lat="40.32391169614279" lon="9.288706874780875"><ele>532.0</ele><time>2026-04-11T13:20:57Z</time></trkpt><trkpt lat="40.32394319581983" lon="9.288932811244349"><ele>527.3333333333334</ele><time>2026-04-11T13:20:58Z</time></trkpt><trkpt lat="40.32397707979673" lon="9.289160797850323"><ele>522.6666666666666</ele><time>2026-04-11T13:20:59Z</time></trkpt><trkpt lat="40.324011412304685" lon="9.28939250706151"><ele>518.0</ele><time>2026-04-11T13:21:00Z</time></trkpt><trkpt lat="40.32404612752578" lon="9.289626604678087"><ele>519.0</ele><time>2026-04-11T13:21:01Z</time></trkpt><trkpt lat="40.324080871112194" lon="9.289861723368855"><ele>520.0</ele><time>2026-04-11T13:21:02Z</time></trkpt><trkpt lat="40.32411550654804" lon="9.290097058864895"><ele>521.0</ele><time>2026-04-11T13:21:03Z</time></trkpt><trkpt lat="40.32414962561086" lon="9.2903341085854"><ele>521.0</ele><time>2026-04-11T13:21:04Z</time></trkpt><trkpt lat="40.324182748569775" lon="9.290573499804507"><ele>521.0</ele><time>2026-04-11T13:21:05Z</time></trkpt><trkpt lat="40.324218107783885" lon="9.29081524049117"><ele>521.0</ele><time>2026-04-11T13:21:06Z</time></trkpt><trkpt lat="40.324257015478175" lon="9.291060738513776"><ele>521.0</ele><time>2026-04-11T13:21:07Z</time></trkpt><trkpt lat="40.32429518109515" lon="9.291307433940583"><ele>521.0</ele><time>2026-04-11T13:21:08Z</time></trkpt><trkpt lat="40.324331556115126" lon="9.291554669919934"><ele>521.0</ele><time>2026-04-11T13:21:09Z</time></trkpt><trkpt lat="40.32436928420899" lon="9.291799018214123"><ele>522.0</ele><time>2026-04-11T13:21:10Z</time></trkpt><trkpt lat="40.32441246463845" lon="9.292042763061527"><ele>523.0</ele><time>2026-04-11T13:21:11Z</time></trkpt><trkpt lat="40.324470672320004" lon="9.292283050533332"><ele>524.0</ele><time>2026-04-11T13:21:12Z</time></trkpt><trkpt lat="40.32454411958389" lon="9.292511374115696"><ele>523.3333333333333</ele><time>2026-04-11T13:21:13Z</time></trkpt><trkpt lat="40.32463967190991" lon="9.29273115074674"><ele>522.6666666666666</ele><time>2026-04-11T13:21:14Z</time></trkpt><trkpt lat="40.324750539012776" lon="9.292941100837497"><ele>522.0</ele><time>2026-04-11T13:21:15Z</time></trkpt><trkpt lat="40.324878379785005" lon="9.293140964102856"><ele>525.6666666666666</ele><time>2026-04-11T13:21:16Z</time></trkpt><trkpt lat="40.3250195590248" lon="9.293320081002252"><ele>529.3333333333333</ele><time>2026-04-11T13:21:17Z</time></trkpt><trkpt lat="40.3251793472673" lon="9.293485277361839"><ele>533.0</ele><time>2026-04-11T13:21:18Z</time></trkpt><trkpt lat="40.325345646152535" lon="9.293634937137874"><ele>533.0</ele><time>2026-04-11T13:21:19Z</time></trkpt><trkpt lat="40.325528875075356" lon="9.293760960212431"><ele>533.0</ele><time>2026-04-11T13:21:20Z</time></trkpt><trkpt lat="40.325722367293594" lon="9.293863813178893"><ele>533.0</ele><time>2026-04-11T13:21:21Z</time></trkpt><trkpt lat="40.3259258702022" lon="9.293945287497523"><ele>534.0</ele><time>2026-04-11T13:21:22Z</time></trkpt><trkpt lat="40.326117809812075" lon="9.294034749711289"><ele>535.0</ele><time>2026-04-11T13:21:23Z</time></trkpt><trkpt lat="40.3263012238125" lon="9.294140383605551"><ele>536.0</ele><time>2026-04-11T13:21:24Z</time></trkpt><trkpt lat="40.326483098776826" lon="9.294257070976876"><ele>536.0</ele><time>2026-04-11T13:21:25Z</time></trkpt><trkpt lat="40.32665764841635" lon="9.294387593096543"><ele>536.0</ele><time>2026-04-11T13:21:26Z</time></trkpt><trkpt lat="40.32680520445993" lon="9.294561278805778"><ele>536.0</ele><time>2026-04-11T13:21:27Z</time></trkpt><trkpt lat="40.32694345388755" lon="9.294738914647594"><ele>536.0</ele><time>2026-04-11T13:21:28Z</time></trkpt><trkpt lat="40.32708336192134" lon="9.29492297977216"><ele>536.0</ele><time>2026-04-11T13:21:29Z</time></trkpt><trkpt lat="40.32719005336102" lon="9.29514199665005"><ele>536.0</ele><time>2026-04-11T13:21:30Z</time></trkpt><trkpt lat="40.32728932359837" lon="9.295369947289876"><ele>540.6666666666666</ele><time>2026-04-11T13:21:31Z</time></trkpt><trkpt lat="40.32737009236733" lon="9.29561191448992"><ele>545.3333333333334</ele><time>2026-04-11T13:21:32Z</time></trkpt><trkpt lat="40.32743580957767" lon="9.295861988999288"><ele>550.0</ele><time>2026-04-11T13:21:33Z</time></trkpt><trkpt lat="40.32749269755588" lon="9.296116645109032"><ele>550.0</ele><time>2026-04-11T13:21:34Z</time></trkpt><trkpt lat="40.32755082635239" lon="9.296374318449097"><ele>550.0</ele><time>2026-04-11T13:21:35Z</time></trkpt><trkpt lat="40.32761392013661" lon="9.296629437028878"><ele>550.0</ele><time>2026-04-11T13:21:36Z</time></trkpt><trkpt lat="40.327675842906714" lon="9.296885644400048"><ele>553.6666666666667</ele><time>2026-04-11T13:21:37Z</time></trkpt><trkpt lat="40.327737124717686" lon="9.29714218665304"><ele>557.3333333333334</ele><time>2026-04-11T13:21:38Z</time></trkpt><trkpt lat="40.32779741585551" lon="9.297396763309917"><ele>561.0</ele><time>2026-04-11T13:21:39Z</time></trkpt><trkpt lat="40.32785795100723" lon="9.297650915004045"><ele>564.0</ele><time>2026-04-11T13:21:40Z</time></trkpt><trkpt lat="40.32791776843129" lon="9.29790404713946"><ele>567.0</ele><time>2026-04-11T13:21:41Z</time></trkpt><trkpt lat="40.327977682877986" lon="9.298153975079302"><ele>570.0</ele><time>2026-04-11T13:21:42Z</time></trkpt><trkpt lat="40.32803539631331" lon="9.298399739516258"><ele>565.3333333333334</ele><time>2026-04-11T13:21:43Z</time></trkpt><trkpt lat="40.32809409929752" lon="9.29864357760973"><ele>560.6666666666667</ele><time>2026-04-11T13:21:44Z</time></trkpt><trkpt lat="40.328151215557455" lon="9.29888662019606"><ele>556.0</ele><time>2026-04-11T13:21:45Z</time></trkpt><trkpt lat="40.32820856242738" lon="9.299130989414275"><ele>556.0</ele><time>2026-04-11T13:21:46Z</time></trkpt><trkpt lat="40.328264178637845" lon="9.299379962434305"><ele>556.0</ele><time>2026-04-11T13:21:47Z</time></trkpt><trkpt lat="40.32830912811524" lon="9.299633525847948"><ele>556.0</ele><time>2026-04-11T13:21:48Z</time></trkpt><trkpt lat="40.32833986889876" lon="9.299891749039595"><ele>558.0</ele><time>2026-04-11T13:21:49Z</time></trkpt><trkpt lat="40.32836845405998" lon="9.300155563367621"><ele>560.0</ele><time>2026-04-11T13:21:50Z</time></trkpt><trkpt lat="40.32839815012622" lon="9.300416721279635"><ele>562.0</ele><time>2026-04-11T13:21:51Z</time></trkpt><trkpt lat="40.328428465232506" lon="9.300680094392618"><ele>562.0</ele><time>2026-04-11T13:21:52Z</time></trkpt><trkpt lat="40.32845747692308" lon="9.30094710041397"><ele>562.0</ele><time>2026-04-11T13:21:53Z</time></trkpt><trkpt lat="40.32848410501433" lon="9.301207699608785"><ele>562.0</ele><time>2026-04-11T13:21:54Z</time></trkpt><trkpt lat="40.32851304165277" lon="9.301462701296504"><ele>566.6666666666667</ele><time>2026-04-11T13:21:55Z</time></trkpt><trkpt lat="40.328537033115076" lon="9.301718002086666"><ele>571.3333333333334</ele><time>2026-04-11T13:21:56Z</time></trkpt><trkpt lat="40.32856059673657" lon="9.301973512120115"><ele>576.0</ele><time>2026-04-11T13:21:57Z</time></trkpt><trkpt lat="40.32856842750336" lon="9.302232347510987"><ele>577.6666666666666</ele><time>2026-04-11T13:21:58Z</time></trkpt><trkpt lat="40.328555295458386" lon="9.302491630386507"><ele>579.3333333333333</ele><time>2026-04-11T13:21:59Z</time></trkpt><trkpt lat="40.328524564441864" lon="9.302753881664554"><ele>581.0</ele><time>2026-04-11T13:22:00Z</time></trkpt><trkpt lat="40.32847741838811" lon="9.303014638908712"><ele>579.6666666666666</ele><time>2026-04-11T13:22:01Z</time></trkpt><trkpt lat="40.32842203291848" lon="9.303271070798994"><ele>578.3333333333334</ele><time>2026-04-11T13:22:02Z</time></trkpt><trkpt lat="40.32836476502485" lon="9.303523494539442"><ele>577.0</ele><time>2026-04-11T13:22:03Z</time></trkpt><trkpt lat="40.32830844513927" lon="9.30377285819486"><ele>577.0</ele><time>2026-04-11T13:22:04Z</time></trkpt><trkpt lat="40.32825447967873" lon="9.304020594166504"><ele>577.0</ele><time>2026-04-11T13:22:05Z</time></trkpt><trkpt lat="40.3281998478318" lon="9.304266466918477"><ele>577.0</ele><time>2026-04-11T13:22:06Z</time></trkpt><trkpt lat="40.32814497258739" lon="9.304513537403485"><ele>576.6666666666667</ele><time>2026-04-11T13:22:07Z</time></trkpt><trkpt lat="40.328091836034666" lon="9.304759994444654"><ele>576.3333333333334</ele><time>2026-04-11T13:22:08Z</time></trkpt><trkpt lat="40.328038879395635" lon="9.304995196231907"><ele>576.0</ele><time>2026-04-11T13:22:09Z</time></trkpt><trkpt lat="40.32798980967463" lon="9.305212146055743"><ele>578.3333333333334</ele><time>2026-04-11T13:22:10Z</time></trkpt><trkpt lat="40.3279434778255" lon="9.305415651320962"><ele>580.6666666666667</ele><time>2026-04-11T13:22:11Z</time></trkpt><trkpt lat="40.32789788380037" lon="9.30560847360673"><ele>583.0</ele><time>2026-04-11T13:22:12Z</time></trkpt><trkpt lat="40.327853203096886" lon="9.305796017828195"><ele>583.0</ele><time>2026-04-11T13:22:13Z</time></trkpt><trkpt lat="40.32780767155317" lon="9.305987023774374"><ele>583.0</ele><time>2026-04-11T13:22:14Z</time></trkpt><trkpt lat="40.32776088848125" lon="9.30617930813312"><ele>583.0</ele><time>2026-04-11T13:22:15Z</time></trkpt><trkpt lat="40.32771328766457" lon="9.306371619213506"><ele>582.6666666666667</ele><time>2026-04-11T13:22:16Z</time></trkpt><trkpt lat="40.327659889599765" lon="9.30656749072847"><ele>582.3333333333334</ele><time>2026-04-11T13:22:17Z</time></trkpt><trkpt lat="40.32760418678358" lon="9.30676601335816"><ele>582.0</ele><time>2026-04-11T13:22:18Z</time></trkpt><trkpt lat="40.327546194110006" lon="9.306965243965879"><ele>582.0</ele><time>2026-04-11T13:22:19Z</time></trkpt><trkpt lat="40.32748504802601" lon="9.307165546804576"><ele>582.0</ele><time>2026-04-11T13:22:20Z</time></trkpt><trkpt lat="40.32742080241459" lon="9.307367683326527"><ele>582.0</ele><time>2026-04-11T13:22:21Z</time></trkpt><trkpt lat="40.3273540367223" lon="9.30757226181851"><ele>581.3333333333334</ele><time>2026-04-11T13:22:22Z</time></trkpt><trkpt lat="40.32728662560726" lon="9.307775923554816"><ele>580.6666666666667</ele><time>2026-04-11T13:22:23Z</time></trkpt><trkpt lat="40.327216189540756" lon="9.307978789855966"><ele>580.0</ele><time>2026-04-11T13:22:24Z</time></trkpt><trkpt lat="40.32714120506715" lon="9.308181092300364"><ele>577.6666666666667</ele><time>2026-04-11T13:22:25Z</time></trkpt><trkpt lat="40.32705747147954" lon="9.308375802364672"><ele>575.3333333333334</ele><time>2026-04-11T13:22:26Z</time></trkpt><trkpt lat="40.32696279077883" lon="9.308565484641639"><ele>573.0</ele><time>2026-04-11T13:22:27Z</time></trkpt><trkpt lat="40.32686803217235" lon="9.308753281284986"><ele>572.3333333333334</ele><time>2026-04-11T13:22:28Z</time></trkpt><trkpt lat="40.32678124533192" lon="9.3089510422937"><ele>571.6666666666667</ele><time>2026-04-11T13:22:29Z</time></trkpt><trkpt lat="40.326697076726276" lon="9.309152468669701"><ele>571.0</ele><time>2026-04-11T13:22:30Z</time></trkpt><trkpt lat="40.32661752300838" lon="9.30935387879936"><ele>571.0</ele><time>2026-04-11T13:22:31Z</time></trkpt><trkpt lat="40.326536231304544" lon="9.30954865940877"><ele>571.0</ele><time>2026-04-11T13:22:32Z</time></trkpt><trkpt lat="40.326454283907786" lon="9.309752719177624"><ele>571.0</ele><time>2026-04-11T13:22:33Z</time></trkpt><trkpt lat="40.32637306136874" lon="9.309955082126166"><ele>569.6666666666667</ele><time>2026-04-11T13:22:34Z</time></trkpt><trkpt lat="40.32629160489407" lon="9.31015963489932"><ele>568.3333333333334</ele><time>2026-04-11T13:22:35Z</time></trkpt><trkpt lat="40.326210144294336" lon="9.310369501398638"><ele>567.0</ele><time>2026-04-11T13:22:36Z</time></trkpt><trkpt lat="40.32612748017006" lon="9.310580935792396"><ele>567.0</ele><time>2026-04-11T13:22:37Z</time></trkpt><trkpt lat="40.32604334614933" lon="9.310790581222719"><ele>567.0</ele><time>2026-04-11T13:22:38Z</time></trkpt><trkpt lat="40.3259598563192" lon="9.31099653980659"><ele>567.0</ele><time>2026-04-11T13:22:39Z</time></trkpt><trkpt lat="40.325876423871996" lon="9.311212536599658"><ele>568.0</ele><time>2026-04-11T13:22:40Z</time></trkpt><trkpt lat="40.325794638227606" lon="9.311431871182416"><ele>569.0</ele><time>2026-04-11T13:22:41Z</time></trkpt><trkpt lat="40.32571174587092" lon="9.311655057738548"><ele>570.0</ele><time>2026-04-11T13:22:42Z</time></trkpt><trkpt lat="40.32562600295035" lon="9.311874957934203"><ele>570.0</ele><time>2026-04-11T13:22:43Z</time></trkpt><trkpt lat="40.325539464497666" lon="9.312091265724947"><ele>570.0</ele><time>2026-04-11T13:22:44Z</time></trkpt><trkpt lat="40.32545333821749" lon="9.312303456342246"><ele>570.0</ele><time>2026-04-11T13:22:45Z</time></trkpt><trkpt lat="40.32537447699917" lon="9.312497824277614"><ele>570.0</ele><time>2026-04-11T13:22:46Z</time></trkpt><trkpt lat="40.32529832357088" lon="9.312690087340497"><ele>570.0</ele><time>2026-04-11T13:22:47Z</time></trkpt><trkpt lat="40.32522091175323" lon="9.312874718952868"><ele>570.0</ele><time>2026-04-11T13:22:48Z</time></trkpt><trkpt lat="40.3251467611496" lon="9.313063307725779"><ele>572.0</ele><time>2026-04-11T13:22:49Z</time></trkpt><trkpt lat="40.32507227303505" lon="9.313249694672253"><ele>574.0</ele><time>2026-04-11T13:22:50Z</time></trkpt><trkpt lat="40.32499788626801" lon="9.313437480621257"><ele>576.0</ele><time>2026-04-11T13:22:51Z</time></trkpt><trkpt lat="40.324920706435584" lon="9.313625318985395"><ele>576.0</ele><time>2026-04-11T13:22:52Z</time></trkpt><trkpt lat="40.32484525634872" lon="9.313814499962957"><ele>576.0</ele><time>2026-04-11T13:22:53Z</time></trkpt><trkpt lat="40.324766623737794" lon="9.314008387788743"><ele>576.0</ele><time>2026-04-11T13:22:54Z</time></trkpt><trkpt lat="40.32468427419357" lon="9.314201059641489"><ele>577.3333333333334</ele><time>2026-04-11T13:22:55Z</time></trkpt><trkpt lat="40.32460101081467" lon="9.314398010145563"><ele>578.6666666666667</ele><time>2026-04-11T13:22:56Z</time></trkpt><trkpt lat="40.324519650192535" lon="9.31459860994052"><ele>580.0</ele><time>2026-04-11T13:22:57Z</time></trkpt><trkpt lat="40.324440887820174" lon="9.314803969168201"><ele>580.6666666666667</ele><time>2026-04-11T13:22:58Z</time></trkpt><trkpt lat="40.324361499427134" lon="9.315009543808333"><ele>581.3333333333334</ele><time>2026-04-11T13:22:59Z</time></trkpt><trkpt lat="40.32428239436321" lon="9.315210452828723"><ele>582.0</ele><time>2026-04-11T13:23:00Z</time></trkpt><trkpt lat="40.324203644055494" lon="9.31541186542419"><ele>582.0</ele><time>2026-04-11T13:23:01Z</time></trkpt><trkpt lat="40.32412110447181" lon="9.315623744496774"><ele>582.0</ele><time>2026-04-11T13:23:02Z</time></trkpt><trkpt lat="40.32403322367341" lon="9.315832209873461"><ele>582.0</ele><time>2026-04-11T13:23:03Z</time></trkpt><trkpt lat="40.323945453696176" lon="9.31604329776943"><ele>582.3333333333334</ele><time>2026-04-11T13:23:04Z</time></trkpt><trkpt lat="40.32386530221897" lon="9.316251123186044"><ele>582.6666666666667</ele><time>2026-04-11T13:23:05Z</time></trkpt><trkpt lat="40.32378691092127" lon="9.316462606439863"><ele>583.0</ele><time>2026-04-11T13:23:06Z</time></trkpt><trkpt lat="40.323710157689675" lon="9.316677305850659"><ele>583.0</ele><time>2026-04-11T13:23:07Z</time></trkpt><trkpt lat="40.3236291421839" lon="9.316891154705683"><ele>583.0</ele><time>2026-04-11T13:23:08Z</time></trkpt><trkpt lat="40.32353682812335" lon="9.317105723394688"><ele>583.0</ele><time>2026-04-11T13:23:09Z</time></trkpt><trkpt lat="40.323443667106226" lon="9.317315265447718"><ele>581.3333333333334</ele><time>2026-04-11T13:23:10Z</time></trkpt><trkpt lat="40.323339734661076" lon="9.317514741407551"><ele>579.6666666666666</ele><time>2026-04-11T13:23:11Z</time></trkpt><trkpt lat="40.32323024594337" lon="9.31770471911276"><ele>578.0</ele><time>2026-04-11T13:23:12Z</time></trkpt><trkpt lat="40.3231172455656" lon="9.31788230877796"><ele>576.3333333333333</ele><time>2026-04-11T13:23:13Z</time></trkpt><trkpt lat="40.32299932112578" lon="9.318049186568066"><ele>574.6666666666666</ele><time>2026-04-11T13:23:14Z</time></trkpt><trkpt lat="40.32287740350797" lon="9.318208242983795"><ele>573.0</ele><time>2026-04-11T13:23:15Z</time></trkpt><trkpt lat="40.322765042202356" lon="9.318347833351384"><ele>572.25</ele><time>2026-04-11T13:23:16Z</time></trkpt><trkpt lat="40.32265851329966" lon="9.318471722140433"><ele>571.5</ele><time>2026-04-11T13:23:17Z</time></trkpt><trkpt lat="40.32255887723708" lon="9.318581328019972"><ele>570.75</ele><time>2026-04-11T13:23:18Z</time></trkpt><trkpt lat="40.32246214162994" lon="9.318681585500102"><ele>570.0</ele><time>2026-04-11T13:23:19Z</time></trkpt><trkpt lat="40.32236066539044" lon="9.318766895324188"><ele>570.0</ele><time>2026-04-11T13:23:20Z</time></trkpt><trkpt lat="40.32225029830121" lon="9.31881773054817"><ele>570.0</ele><time>2026-04-11T13:23:21Z</time></trkpt><trkpt lat="40.32214126104711" lon="9.318859597083486"><ele>570.0</ele><time>2026-04-11T13:23:22Z</time></trkpt><trkpt lat="40.32204573457839" lon="9.31893376370117"><ele>570.0</ele><time>2026-04-11T13:23:23Z</time></trkpt><trkpt lat="40.321964871510744" lon="9.319048296989349"><ele>566.75</ele><time>2026-04-11T13:23:24Z</time></trkpt><trkpt lat="40.32188156657359" lon="9.319151282248708"><ele>563.5</ele><time>2026-04-11T13:23:25Z</time></trkpt><trkpt lat="40.321781410292516" lon="9.319208411514511"><ele>560.25</ele><time>2026-04-11T13:23:26Z</time></trkpt><trkpt lat="40.32166747865976" lon="9.319225818397834"><ele>557.0</ele><time>2026-04-11T13:23:27Z</time></trkpt><trkpt lat="40.321541735180695" lon="9.31922347382055"><ele>557.0</ele><time>2026-04-11T13:23:28Z</time></trkpt><trkpt lat="40.32140996336313" lon="9.319229597889242"><ele>557.0</ele><time>2026-04-11T13:23:29Z</time></trkpt><trkpt lat="40.32128082569853" lon="9.319239370377295"><ele>557.0</ele><time>2026-04-11T13:23:30Z</time></trkpt><trkpt lat="40.32115606955226" lon="9.319252818011165"><ele>557.0</ele><time>2026-04-11T13:23:31Z</time></trkpt><trkpt lat="40.32103752766836" lon="9.3193098127501"><ele>556.5</ele><time>2026-04-11T13:23:32Z</time></trkpt><trkpt lat="40.320935013878184" lon="9.31939786987892"><ele>556.0</ele><time>2026-04-11T13:23:33Z</time></trkpt><trkpt lat="40.32085573429577" lon="9.319516892833656"><ele>555.5</ele><time>2026-04-11T13:23:34Z</time></trkpt><trkpt lat="40.320780323441" lon="9.319650494374018"><ele>555.0</ele><time>2026-04-11T13:23:35Z</time></trkpt><trkpt lat="40.32071005396261" lon="9.319773355576185"><ele>553.4</ele><time>2026-04-11T13:23:36Z</time></trkpt><trkpt lat="40.320640515002914" lon="9.319895029932242"><ele>551.8</ele><time>2026-04-11T13:23:37Z</time></trkpt><trkpt lat="40.3205680343514" lon="9.320014747718579"><ele>550.2</ele><time>2026-04-11T13:23:38Z</time></trkpt><trkpt lat="40.32050028300866" lon="9.320122045692976"><ele>548.6</ele><time>2026-04-11T13:23:39Z</time></trkpt><trkpt lat="40.32043529318474" lon="9.320212910886193"><ele>547.0</ele><time>2026-04-11T13:23:40Z</time></trkpt><trkpt lat="40.320370517147474" lon="9.320288342200143"><ele>547.0</ele><time>2026-04-11T13:23:41Z</time></trkpt><trkpt lat="40.32032015226743" lon="9.32034525851945"><ele>547.0</ele><time>2026-04-11T13:23:42Z</time></trkpt><trkpt lat="40.32027513669237" lon="9.320478859615932"><ele>547.0</ele><time>2026-04-11T13:23:44Z</time></trkpt><trkpt lat="40.3203425372218" lon="9.320623335412018"><ele>547.0</ele><time>2026-04-11T13:23:46Z</time></trkpt><trkpt lat="40.32039990786889" lon="9.320686319538467"><ele>547.0</ele><time>2026-04-11T13:23:47Z</time></trkpt><trkpt lat="40.32045284672155" lon="9.320756373341254"><ele>546.8000000000001</ele><time>2026-04-11T13:23:48Z</time></trkpt><trkpt lat="40.320480715099826" lon="9.32084118435586"><ele>546.6</ele><time>2026-04-11T13:23:49Z</time></trkpt><trkpt lat="40.32049392163427" lon="9.320999399105794"><ele>546.4000000000001</ele><time>2026-04-11T13:23:51Z</time></trkpt><trkpt lat="40.32049926388412" lon="9.321085607262013"><ele>546.2</ele><time>2026-04-11T13:23:52Z</time></trkpt><trkpt lat="40.32050449145259" lon="9.321234009914981"><ele>546.0</ele><time>2026-04-11T13:23:54Z</time></trkpt><trkpt lat="40.32050593602767" lon="9.321344712559705"><ele>546.3333333333334</ele><time>2026-04-11T13:23:56Z</time></trkpt><trkpt lat="40.320509717055344" lon="9.32142778252477"><ele>546.6666666666666</ele><time>2026-04-11T13:23:57Z</time></trkpt><trkpt lat="40.32051721514088" lon="9.32152834709431"><ele>547.0</ele><time>2026-04-11T13:23:58Z</time></trkpt><trkpt lat="40.32053115850833" lon="9.321643043496916"><ele>547.3333333333333</ele><time>2026-04-11T13:23:59Z</time></trkpt><trkpt lat="40.320549448642886" lon="9.321760055193254"><ele>547.6666666666666</ele><time>2026-04-11T13:24:00Z</time></trkpt><trkpt lat="40.32057281082299" lon="9.32188037159347"><ele>548.0</ele><time>2026-04-11T13:24:01Z</time></trkpt><trkpt lat="40.32059845335432" lon="9.322006579942883"><ele>548.6</ele><time>2026-04-11T13:24:02Z</time></trkpt><trkpt lat="40.32062393305702" lon="9.322134865953604"><ele>549.1999999999999</ele><time>2026-04-11T13:24:03Z</time></trkpt><trkpt lat="40.32065082325822" lon="9.322258602648178"><ele>549.8</ele><time>2026-04-11T13:24:04Z</time></trkpt><trkpt lat="40.32068902929659" lon="9.322374697832675"><ele>550.4</ele><time>2026-04-11T13:24:05Z</time></trkpt><trkpt lat="40.320734527426126" lon="9.322483562708237"><ele>551.0</ele><time>2026-04-11T13:24:06Z</time></trkpt><trkpt lat="40.32078235514791" lon="9.322591131698928"><ele>551.0</ele><time>2026-04-11T13:24:07Z</time></trkpt><trkpt lat="40.32082825417819" lon="9.322692423884225"><ele>551.0</ele><time>2026-04-11T13:24:08Z</time></trkpt><trkpt lat="40.320872053100835" lon="9.322788961345422"><ele>551.0</ele><time>2026-04-11T13:24:09Z</time></trkpt><trkpt lat="40.320916250168366" lon="9.322883931134879"><ele>551.0</ele><time>2026-04-11T13:24:10Z</time></trkpt><trkpt lat="40.32096061334402" lon="9.322974597873893"><ele>551.0</ele><time>2026-04-11T13:24:11Z</time></trkpt><trkpt lat="40.320996179826146" lon="9.323055280098142"><ele>551.0</ele><time>2026-04-11T13:24:12Z</time></trkpt><trkpt lat="40.32104504803602" lon="9.323152096705902"><ele>550.2</ele><time>2026-04-11T13:24:14Z</time></trkpt><trkpt lat="40.32108959862036" lon="9.32324574952157"><ele>549.4000000000001</ele><time>2026-04-11T13:25:04Z</time></trkpt><trkpt lat="40.3211500832992" lon="9.323364598125707"><ele>548.6</ele><time>2026-04-11T13:25:06Z</time></trkpt><trkpt lat="40.32121583941864" lon="9.323503305531782"><ele>547.8000000000001</ele><time>2026-04-11T13:25:08Z</time></trkpt><trkpt lat="40.32125290926852" lon="9.323579312377253"><ele>547.0</ele><time>2026-04-11T13:25:09Z</time></trkpt><trkpt lat="40.321295185400096" lon="9.323659414098382"><ele>547.0</ele><time>2026-04-11T13:25:10Z</time></trkpt><trkpt lat="40.32134156847303" lon="9.323747458104565"><ele>547.0</ele><time>2026-04-11T13:25:11Z</time></trkpt><trkpt lat="40.321386394830306" lon="9.323842130341621"><ele>547.0</ele><time>2026-04-11T13:25:12Z</time></trkpt><trkpt lat="40.321422365967365" lon="9.323940477626689"><ele>547.0</ele><time>2026-04-11T13:25:13Z</time></trkpt><trkpt lat="40.32145235702666" lon="9.324036127268089"><ele>547.0</ele><time>2026-04-11T13:25:14Z</time></trkpt><trkpt lat="40.32147913734059" lon="9.324139507779847"><ele>547.0</ele><time>2026-04-11T13:25:15Z</time></trkpt><trkpt lat="40.32149791089916" lon="9.324251910913183"><ele>548.0</ele><time>2026-04-11T13:25:16Z</time></trkpt><trkpt lat="40.32151687058479" lon="9.324369907186526"><ele>549.0</ele><time>2026-04-11T13:25:17Z</time></trkpt><trkpt lat="40.321514782934756" lon="9.324499088616188"><ele>550.0</ele><time>2026-04-11T13:25:18Z</time></trkpt><trkpt lat="40.32153915871079" lon="9.324620661632098"><ele>551.0</ele><time>2026-04-11T13:25:19Z</time></trkpt><trkpt lat="40.32154341067313" lon="9.324742404936496"><ele>552.0</ele><time>2026-04-11T13:25:20Z</time></trkpt><trkpt lat="40.3215496076948" lon="9.324866567355961"><ele>552.25</ele><time>2026-04-11T13:25:21Z</time></trkpt><trkpt lat="40.32156765312057" lon="9.32501367391184"><ele>552.5</ele><time>2026-04-11T13:25:22Z</time></trkpt><trkpt lat="40.32155983358796" lon="9.325189893958635"><ele>552.75</ele><time>2026-04-11T13:25:23Z</time></trkpt><trkpt lat="40.32158127757057" lon="9.32538233764747"><ele>553.0</ele><time>2026-04-11T13:25:24Z</time></trkpt><trkpt lat="40.321584595660596" lon="9.325569240952213"><ele>553.5</ele><time>2026-04-11T13:25:25Z</time></trkpt><trkpt lat="40.321592333682894" lon="9.325760631684057"><ele>554.0</ele><time>2026-04-11T13:25:26Z</time></trkpt><trkpt lat="40.321606758793656" lon="9.325954217664021"><ele>554.5</ele><time>2026-04-11T13:25:27Z</time></trkpt><trkpt lat="40.32162484460535" lon="9.326146681434578"><ele>555.0</ele><time>2026-04-11T13:25:28Z</time></trkpt><trkpt lat="40.321638045339" lon="9.326336938222115"><ele>554.75</ele><time>2026-04-11T13:25:29Z</time></trkpt><trkpt lat="40.32165125612217" lon="9.326525841549103"><ele>554.5</ele><time>2026-04-11T13:25:30Z</time></trkpt><trkpt lat="40.32165271002327" lon="9.326711029200073"><ele>554.25</ele><time>2026-04-11T13:25:31Z</time></trkpt><trkpt lat="40.32170119916295" lon="9.326878070973569"><ele>554.0</ele><time>2026-04-11T13:25:32Z</time></trkpt><trkpt lat="40.3217559072555" lon="9.32703184496437"><ele>554.0</ele><time>2026-04-11T13:25:33Z</time></trkpt><trkpt lat="40.32181947162616" lon="9.327189963763084"><ele>554.0</ele><time>2026-04-11T13:25:34Z</time></trkpt><trkpt lat="40.32189495145532" lon="9.32734089089526"><ele>554.0</ele><time>2026-04-11T13:25:35Z</time></trkpt><trkpt lat="40.32197246964971" lon="9.327486214235554"><ele>554.0</ele><time>2026-04-11T13:25:36Z</time></trkpt><trkpt lat="40.322059469160195" lon="9.32761414033863"><ele>554.25</ele><time>2026-04-11T13:25:37Z</time></trkpt><trkpt lat="40.322124485737966" lon="9.327751522081327"><ele>554.5</ele><time>2026-04-11T13:25:38Z</time></trkpt><trkpt lat="40.322187595712876" lon="9.327884320763857"><ele>554.75</ele><time>2026-04-11T13:25:39Z</time></trkpt><trkpt lat="40.32225429171494" lon="9.328007017404726"><ele>555.0</ele><time>2026-04-11T13:25:40Z</time></trkpt><trkpt lat="40.322325619055356" lon="9.328123157808397"><ele>555.0</ele><time>2026-04-11T13:25:41Z</time></trkpt><trkpt lat="40.322396638621065" lon="9.328236004871554"><ele>555.0</ele><time>2026-04-11T13:25:42Z</time></trkpt><trkpt lat="40.32246521747418" lon="9.32834838278349"><ele>555.0</ele><time>2026-04-11T13:25:43Z</time></trkpt><trkpt lat="40.322539199850866" lon="9.328453766821111"><ele>555.0</ele><time>2026-04-11T13:25:44Z</time></trkpt><trkpt lat="40.322611250200545" lon="9.328557319563807"><ele>555.0</ele><time>2026-04-11T13:25:45Z</time></trkpt><trkpt lat="40.32268347573681" lon="9.328666275228647"><ele>555.0</ele><time>2026-04-11T13:25:46Z</time></trkpt><trkpt lat="40.322759390038335" lon="9.328780316521415"><ele>555.0</ele><time>2026-04-11T13:25:47Z</time></trkpt><trkpt lat="40.322836113135814" lon="9.328893476114624"><ele>555.0</ele><time>2026-04-11T13:25:48Z</time></trkpt><trkpt lat="40.322905266656534" lon="9.328997428930485"><ele>555.0</ele><time>2026-04-11T13:25:49Z</time></trkpt><trkpt lat="40.322975371771946" lon="9.329104993382993"><ele>555.0</ele><time>2026-04-11T13:25:50Z</time></trkpt><trkpt lat="40.32303452820932" lon="9.32922381583641"><ele>554.4</ele><time>2026-04-11T13:25:51Z</time></trkpt><trkpt lat="40.32310467925761" lon="9.329331853510416"><ele>553.8</ele><time>2026-04-11T13:25:52Z</time></trkpt><trkpt lat="40.32317391479966" lon="9.329438481222727"><ele>553.2</ele><time>2026-04-11T13:25:53Z</time></trkpt><trkpt lat="40.32323964315622" lon="9.329538956527498"><ele>552.6</ele><time>2026-04-11T13:25:54Z</time></trkpt><trkpt lat="40.32330253814071" lon="9.329633933807036"><ele>552.0</ele><time>2026-04-11T13:25:55Z</time></trkpt><trkpt lat="40.3233746240193" lon="9.329715290611079"><ele>551.4</ele><time>2026-04-11T13:25:56Z</time></trkpt><trkpt lat="40.32343530896882" lon="9.329814762352468"><ele>550.8000000000001</ele><time>2026-04-11T13:25:57Z</time></trkpt><trkpt lat="40.32349858243593" lon="9.32991733244038"><ele>550.2</ele><time>2026-04-11T13:25:58Z</time></trkpt><trkpt lat="40.32356590726672" lon="9.330022851610668"><ele>549.6</ele><time>2026-04-11T13:25:59Z</time></trkpt><trkpt lat="40.32363671665086" lon="9.330130883120727"><ele>549.0</ele><time>2026-04-11T13:26:00Z</time></trkpt><trkpt lat="40.32371026021493" lon="9.330241698736657"><ele>549.0</ele><time>2026-04-11T13:26:01Z</time></trkpt><trkpt lat="40.32378294299977" lon="9.3303561642405"><ele>549.0</ele><time>2026-04-11T13:26:02Z</time></trkpt><trkpt lat="40.3238421976684" lon="9.330481306272244"><ele>549.0</ele><time>2026-04-11T13:26:03Z</time></trkpt><trkpt lat="40.3238978571779" lon="9.330575239509532"><ele>549.0</ele><time>2026-04-11T13:26:04Z</time></trkpt><trkpt lat="40.32393810045983" lon="9.33064326176739"><ele>549.0</ele><time>2026-04-11T13:26:05Z</time></trkpt><trkpt lat="40.32400400279142" lon="9.330742352183242"><ele>548.5</ele><time>2026-04-11T13:26:07Z</time></trkpt><trkpt lat="40.324040744379495" lon="9.33082903881907"><ele>548.0</ele><time>2026-04-11T13:26:09Z</time></trkpt><trkpt lat="40.32408746044433" lon="9.3309190263047"><ele>547.5</ele><time>2026-04-11T13:26:12Z</time></trkpt><trkpt lat="40.32412865159861" lon="9.33099970195446"><ele>547.0</ele><time>2026-04-11T13:26:16Z</time></trkpt><trkpt lat="40.32416416717509" lon="9.331073196698375"><ele>546.5</ele><time>2026-04-11T13:26:19Z</time></trkpt><trkpt lat="40.32421254448503" lon="9.331157344583954"><ele>546.0</ele><time>2026-04-11T13:26:22Z</time></trkpt><trkpt lat="40.32426226161286" lon="9.331259627063147"><ele>546.0</ele><time>2026-04-11T13:26:25Z</time></trkpt><trkpt lat="40.32429942436138" lon="9.331334139186138"><ele>546.0</ele><time>2026-04-11T13:26:27Z</time></trkpt><trkpt lat="40.32434684338268" lon="9.33143097215628"><ele>546.0</ele><time>2026-04-11T13:26:29Z</time></trkpt><trkpt lat="40.32440884509742" lon="9.331546329073813"><ele>546.0</ele><time>2026-04-11T13:26:31Z</time></trkpt><trkpt lat="40.32447422464013" lon="9.331672577553649"><ele>546.0</ele><time>2026-04-11T13:26:33Z</time></trkpt><trkpt lat="40.32454467641594" lon="9.331811619955253"><ele>546.6</ele><time>2026-04-11T13:26:35Z</time></trkpt><trkpt lat="40.32458227705774" lon="9.331883542357943"><ele>547.2</ele><time>2026-04-11T13:26:36Z</time></trkpt><trkpt lat="40.32461962584046" lon="9.331952620152956"><ele>547.8</ele><time>2026-04-11T13:26:37Z</time></trkpt><trkpt lat="40.32469737778143" lon="9.332081018262281"><ele>548.4</ele><time>2026-04-11T13:26:39Z</time></trkpt><trkpt lat="40.324759803711274" lon="9.33217091233326"><ele>549.0</ele><time>2026-04-11T13:26:41Z</time></trkpt><trkpt lat="40.32483304794273" lon="9.332278898361366"><ele>549.3333333333334</ele><time>2026-04-11T13:26:43Z</time></trkpt><trkpt lat="40.324909940643586" lon="9.33239736780674"><ele>549.6666666666666</ele><time>2026-04-11T13:26:45Z</time></trkpt><trkpt lat="40.32495474401739" lon="9.33246653110207"><ele>550.0</ele><time>2026-04-11T13:26:46Z</time></trkpt><trkpt lat="40.325004331566134" lon="9.332534485186814"><ele>550.3333333333333</ele><time>2026-04-11T13:26:47Z</time></trkpt><trkpt lat="40.32505309767921" lon="9.332597852810707"><ele>550.6666666666666</ele><time>2026-04-11T13:26:48Z</time></trkpt><trkpt lat="40.325098512484786" lon="9.332658721780005"><ele>551.0</ele><time>2026-04-11T13:26:49Z</time></trkpt><trkpt lat="40.325141178829966" lon="9.332721776299499"><ele>551.0</ele><time>2026-04-11T13:26:50Z</time></trkpt><trkpt lat="40.32518116670754" lon="9.332786483548482"><ele>551.0</ele><time>2026-04-11T13:26:51Z</time></trkpt><trkpt lat="40.32523671719188" lon="9.332878637136826"><ele>551.0</ele><time>2026-04-11T13:26:53Z</time></trkpt><trkpt lat="40.32528260779249" lon="9.332951502890953"><ele>551.0</ele><time>2026-04-11T13:26:55Z</time></trkpt><trkpt lat="40.325327017492874" lon="9.333024646333035"><ele>551.0</ele><time>2026-04-11T13:26:57Z</time></trkpt><trkpt lat="40.32538165894675" lon="9.333128115850782"><ele>551.0</ele><time>2026-04-11T13:26:59Z</time></trkpt><trkpt lat="40.325439684172935" lon="9.333264929270157"><ele>549.9999999999999</ele><time>2026-04-11T13:27:01Z</time></trkpt><trkpt lat="40.325469812373306" lon="9.333341048757928"><ele>549.0</ele><time>2026-04-11T13:27:02Z</time></trkpt><trkpt lat="40.325502108737304" lon="9.33342280753666"><ele>548.0</ele><time>2026-04-11T13:27:03Z</time></trkpt><trkpt lat="40.32553679379634" lon="9.333500777172816"><ele>547.0</ele><time>2026-04-11T13:27:04Z</time></trkpt><trkpt lat="40.32557385214235" lon="9.333581610910565"><ele>546.0</ele><time>2026-04-11T13:27:05Z</time></trkpt><trkpt lat="40.32561342434653" lon="9.333670773374344"><ele>544.9999999999999</ele><time>2026-04-11T13:27:06Z</time></trkpt><trkpt lat="40.3256510723174" lon="9.333769653374372"><ele>544.0</ele><time>2026-04-11T13:27:07Z</time></trkpt><trkpt lat="40.32568243692914" lon="9.333876664229827"><ele>546.4</ele><time>2026-04-11T13:27:08Z</time></trkpt><trkpt lat="40.32570206895575" lon="9.333995987965135"><ele>548.8</ele><time>2026-04-11T13:27:09Z</time></trkpt><trkpt lat="40.32571656275784" lon="9.334120372981804"><ele>551.2</ele><time>2026-04-11T13:27:10Z</time></trkpt><trkpt lat="40.32573368065243" lon="9.33424010941717"><ele>553.6</ele><time>2026-04-11T13:27:11Z</time></trkpt><trkpt lat="40.325752511053516" lon="9.334359640227582"><ele>556.0</ele><time>2026-04-11T13:27:12Z</time></trkpt><trkpt lat="40.325769099724354" lon="9.3344790299522"><ele>556.0</ele><time>2026-04-11T13:27:13Z</time></trkpt><trkpt lat="40.32578584822589" lon="9.334598396744513"><ele>556.0</ele><time>2026-04-11T13:27:14Z</time></trkpt><trkpt lat="40.32580533017728" lon="9.33471816262376"><ele>556.0</ele><time>2026-04-11T13:27:15Z</time></trkpt><trkpt lat="40.325828292621914" lon="9.334832241559761"><ele>556.0</ele><time>2026-04-11T13:27:16Z</time></trkpt><trkpt lat="40.325856427413854" lon="9.33494198996649"><ele>556.0</ele><time>2026-04-11T13:27:17Z</time></trkpt><trkpt lat="40.325895586064036" lon="9.335044470592498"><ele>555.8</ele><time>2026-04-11T13:27:18Z</time></trkpt><trkpt lat="40.325942828537116" lon="9.33514794833748"><ele>555.6</ele><time>2026-04-11T13:27:19Z</time></trkpt><trkpt lat="40.325995985392304" lon="9.33525381790522"><ele>555.4</ele><time>2026-04-11T13:27:20Z</time></trkpt><trkpt lat="40.32605003731238" lon="9.335363733287648"><ele>555.2</ele><time>2026-04-11T13:27:21Z</time></trkpt><trkpt lat="40.32610014294891" lon="9.335463093476333"><ele>555.0</ele><time>2026-04-11T13:27:22Z</time></trkpt><trkpt lat="40.32613784637447" lon="9.335544683261396"><ele>555.0</ele><time>2026-04-11T13:27:23Z</time></trkpt><trkpt lat="40.32617806072063" lon="9.335621400690346"><ele>555.0</ele><time>2026-04-11T13:27:24Z</time></trkpt><trkpt lat="40.32621833976468" lon="9.335685744014173"><ele>555.0</ele><time>2026-04-11T13:27:25Z</time></trkpt><trkpt lat="40.32626390699643" lon="9.335744948140919"><ele>555.0</ele><time>2026-04-11T13:27:26Z</time></trkpt><trkpt lat="40.326359692889206" lon="9.33584964793754"><ele>555.0</ele><time>2026-04-11T13:27:28Z</time></trkpt><trkpt lat="40.32644158010815" lon="9.33585668582924"><ele>555.0</ele><time>2026-04-11T13:27:29Z</time></trkpt><trkpt lat="40.32651253425684" lon="9.335910995127074"><ele>555.0</ele><time>2026-04-11T13:27:30Z</time></trkpt><trkpt lat="40.326589453302695" lon="9.335938947670732"><ele>555.0</ele><time>2026-04-11T13:27:31Z</time></trkpt><trkpt lat="40.326669469171065" lon="9.335966987771833"><ele>555.0</ele><time>2026-04-11T13:27:32Z</time></trkpt><trkpt lat="40.32675089017385" lon="9.335999093843087"><ele>555.0</ele><time>2026-04-11T13:27:33Z</time></trkpt><trkpt lat="40.32683374928854" lon="9.336035073687375"><ele>555.0</ele><time>2026-04-11T13:27:34Z</time></trkpt><trkpt lat="40.326915415075746" lon="9.3360707878404"><ele>555.0</ele><time>2026-04-11T13:27:35Z</time></trkpt><trkpt lat="40.327004302310634" lon="9.336109660117812"><ele>555.0</ele><time>2026-04-11T13:27:36Z</time></trkpt><trkpt lat="40.32707675094289" lon="9.336142112607435"><ele>555.0</ele><time>2026-04-11T13:27:37Z</time></trkpt><trkpt lat="40.32715971731782" lon="9.336179950630129"><ele>555.0</ele><time>2026-04-11T13:27:38Z</time></trkpt><trkpt lat="40.32723152986782" lon="9.336213346412812"><ele>555.0</ele><time>2026-04-11T13:27:39Z</time></trkpt><trkpt lat="40.32730465085649" lon="9.336248063767183"><ele>555.0</ele><time>2026-04-11T13:27:40Z</time></trkpt><trkpt lat="40.32737400266145" lon="9.336279836732798"><ele>555.0</ele><time>2026-04-11T13:27:41Z</time></trkpt><trkpt lat="40.327444923702025" lon="9.336311646267031"><ele>555.3333333333334</ele><time>2026-04-11T13:27:42Z</time></trkpt><trkpt lat="40.32751846516778" lon="9.336342156066857"><ele>555.6666666666666</ele><time>2026-04-11T13:27:43Z</time></trkpt><trkpt lat="40.32758840301843" lon="9.336365588760607"><ele>556.0</ele><time>2026-04-11T13:27:44Z</time></trkpt><trkpt lat="40.3276747307124" lon="9.336377101631859"><ele>556.3333333333333</ele><time>2026-04-11T13:27:45Z</time></trkpt><trkpt lat="40.32775558237274" lon="9.336393082466573"><ele>556.6666666666666</ele><time>2026-04-11T13:27:46Z</time></trkpt><trkpt lat="40.32783897556491" lon="9.336406277515993"><ele>557.0</ele><time>2026-04-11T13:27:47Z</time></trkpt><trkpt lat="40.32790838388301" lon="9.33642130089571"><ele>557.0</ele><time>2026-04-11T13:27:48Z</time></trkpt><trkpt lat="40.32797189909991" lon="9.336440396723185"><ele>557.0</ele><time>2026-04-11T13:27:49Z</time></trkpt><trkpt lat="40.32806893457014" lon="9.33651925658175"><ele>557.0</ele><time>2026-04-11T13:27:51Z</time></trkpt><trkpt lat="40.32809650656196" lon="9.336654589143517"><ele>557.0</ele><time>2026-04-11T13:27:53Z</time></trkpt><trkpt lat="40.32809834712551" lon="9.33674266745267"><ele>557.0</ele><time>2026-04-11T13:27:54Z</time></trkpt><trkpt lat="40.32807009257948" lon="9.336822066784567"><ele>557.0</ele><time>2026-04-11T13:27:55Z</time></trkpt><trkpt lat="40.3279582025934" lon="9.336863914185914"><ele>557.0</ele><time>2026-04-11T13:27:57Z</time></trkpt><trkpt lat="40.327880594695884" lon="9.336883471821652"><ele>557.0</ele><time>2026-04-11T13:27:58Z</time></trkpt><trkpt lat="40.327797465123155" lon="9.336909826694122"><ele>557.0</ele><time>2026-04-11T13:27:59Z</time></trkpt><trkpt lat="40.32770346948697" lon="9.33693962645305"><ele>557.0</ele><time>2026-04-11T13:28:00Z</time></trkpt><trkpt lat="40.327606713088" lon="9.336969557678376"><ele>557.0</ele><time>2026-04-11T13:28:01Z</time></trkpt><trkpt lat="40.3275030549753" lon="9.337000850906435"><ele>557.0</ele><time>2026-04-11T13:28:02Z</time></trkpt><trkpt lat="40.32739991657916" lon="9.337048466450826"><ele>557.0</ele><time>2026-04-11T13:28:03Z</time></trkpt><trkpt lat="40.32729168468119" lon="9.33707951159172"><ele>557.0</ele><time>2026-04-11T13:28:04Z</time></trkpt><trkpt lat="40.32718338626094" lon="9.337111895952143"><ele>557.0</ele><time>2026-04-11T13:28:05Z</time></trkpt><trkpt lat="40.32707633039548" lon="9.337145881158115"><ele>557.0</ele><time>2026-04-11T13:28:06Z</time></trkpt><trkpt lat="40.32697656934738" lon="9.337178380999019"><ele>557.2</ele><time>2026-04-11T13:28:07Z</time></trkpt><trkpt lat="40.326879889169625" lon="9.337204156617842"><ele>557.4000000000001</ele><time>2026-04-11T13:28:08Z</time></trkpt><trkpt lat="40.326784600997975" lon="9.337226285207997"><ele>557.5999999999999</ele><time>2026-04-11T13:28:09Z</time></trkpt><trkpt lat="40.32669070221102" lon="9.337253080289777"><ele>557.8</ele><time>2026-04-11T13:28:10Z</time></trkpt><trkpt lat="40.3266011595928" lon="9.337288025520527"><ele>558.0</ele><time>2026-04-11T13:28:11Z</time></trkpt><trkpt lat="40.326507500690816" lon="9.337328032768763"><ele>557.9999999999999</ele><time>2026-04-11T13:28:12Z</time></trkpt><trkpt lat="40.32642401800119" lon="9.337365071267728"><ele>558.0</ele><time>2026-04-11T13:28:13Z</time></trkpt><trkpt lat="40.32635390177086" lon="9.33741075686552"><ele>558.0</ele><time>2026-04-11T13:28:14Z</time></trkpt><trkpt lat="40.326296847575904" lon="9.337466425127639"><ele>558.0</ele><time>2026-04-11T13:28:15Z</time></trkpt><trkpt lat="40.32625181039582" lon="9.337540557566696"><ele>558.0</ele><time>2026-04-11T13:28:16Z</time></trkpt><trkpt lat="40.32621526893093" lon="9.337618601739809"><ele>557.9999999999999</ele><time>2026-04-11T13:28:17Z</time></trkpt><trkpt lat="40.3261967303718" lon="9.337702969743134"><ele>558.0</ele><time>2026-04-11T13:28:18Z</time></trkpt><trkpt lat="40.32620115953489" lon="9.337787742748706"><ele>558.0</ele><time>2026-04-11T13:28:19Z</time></trkpt><trkpt lat="40.32632004838968" lon="9.337904717992751"><ele>558.0</ele><time>2026-04-11T13:28:21Z</time></trkpt><trkpt lat="40.326415691112146" lon="9.33794299540092"><ele>558.0</ele><time>2026-04-11T13:28:22Z</time></trkpt><trkpt lat="40.326506666147246" lon="9.337992774017799"><ele>558.0</ele><time>2026-04-11T13:28:23Z</time></trkpt><trkpt lat="40.32660992945916" lon="9.338045017410252"><ele>555.6</ele><time>2026-04-11T13:28:24Z</time></trkpt><trkpt lat="40.326698532948086" lon="9.338135427229238"><ele>553.1999999999999</ele><time>2026-04-11T13:28:25Z</time></trkpt><trkpt lat="40.3267714844081" lon="9.338228692962264"><ele>550.8</ele><time>2026-04-11T13:28:26Z</time></trkpt><trkpt lat="40.32683966692939" lon="9.338342834449497"><ele>548.4</ele><time>2026-04-11T13:28:27Z</time></trkpt><trkpt lat="40.326904200734106" lon="9.338448951029777"><ele>546.0</ele><time>2026-04-11T13:28:28Z</time></trkpt><trkpt lat="40.32697341761142" lon="9.338545793150312"><ele>546.0</ele><time>2026-04-11T13:28:29Z</time></trkpt><trkpt lat="40.327026576707624" lon="9.338656563630856"><ele>546.0</ele><time>2026-04-11T13:28:30Z</time></trkpt><trkpt lat="40.32708850974065" lon="9.338765865688446"><ele>546.0</ele><time>2026-04-11T13:28:31Z</time></trkpt><trkpt lat="40.32714479745706" lon="9.338876612294602"><ele>546.0</ele><time>2026-04-11T13:28:32Z</time></trkpt><trkpt lat="40.327191724354314" lon="9.338986303554224"><ele>546.0</ele><time>2026-04-11T13:28:33Z</time></trkpt><trkpt lat="40.327302765484426" lon="9.339082327477687"><ele>544.6</ele><time>2026-04-11T13:28:34Z</time></trkpt><trkpt lat="40.327350350348325" lon="9.339171673808075"><ele>543.2</ele><time>2026-04-11T13:28:35Z</time></trkpt><trkpt lat="40.32736392981725" lon="9.33925364737204"><ele>541.8</ele><time>2026-04-11T13:28:36Z</time></trkpt><trkpt lat="40.327222000495205" lon="9.339293324897028"><ele>540.4</ele><time>2026-04-11T13:28:39Z</time></trkpt><trkpt lat="40.32710631585309" lon="9.339215313730639"><ele>539.0</ele><time>2026-04-11T13:28:41Z</time></trkpt><trkpt lat="40.32702657694605" lon="9.339169867346111"><ele>536.75</ele><time>2026-04-11T13:28:42Z</time></trkpt><trkpt lat="40.32694237442615" lon="9.339121876974817"><ele>534.5</ele><time>2026-04-11T13:28:43Z</time></trkpt><trkpt lat="40.3268448285136" lon="9.339066281633944"><ele>532.25</ele><time>2026-04-11T13:28:44Z</time></trkpt><trkpt lat="40.3267339992109" lon="9.339002750316066"><ele>530.0</ele><time>2026-04-11T13:28:45Z</time></trkpt><trkpt lat="40.32662570131244" lon="9.338899165084243"><ele>533.0</ele><time>2026-04-11T13:28:46Z</time></trkpt><trkpt lat="40.3265159541642" lon="9.338786643961592"><ele>536.0</ele><time>2026-04-11T13:28:47Z</time></trkpt><trkpt lat="40.326415922916155" lon="9.338682759399587"><ele>539.0</ele><time>2026-04-11T13:28:48Z</time></trkpt><trkpt lat="40.32631832557277" lon="9.338585814269479"><ele>542.0</ele><time>2026-04-11T13:28:49Z</time></trkpt><trkpt lat="40.32622162092475" lon="9.338494237149192"><ele>542.0</ele><time>2026-04-11T13:28:50Z</time></trkpt><trkpt lat="40.32611641680613" lon="9.338418785890005"><ele>542.0</ele><time>2026-04-11T13:28:51Z</time></trkpt><trkpt lat="40.326008608216775" lon="9.338372856285853"><ele>542.0</ele><time>2026-04-11T13:28:52Z</time></trkpt><trkpt lat="40.32589255943618" lon="9.338369076879074"><ele>542.0</ele><time>2026-04-11T13:28:53Z</time></trkpt><trkpt lat="40.32579115096833" lon="9.338407399823886"><ele>542.0</ele><time>2026-04-11T13:28:54Z</time></trkpt><trkpt lat="40.32568116431748" lon="9.338467675309609"><ele>542.0</ele><time>2026-04-11T13:28:55Z</time></trkpt><trkpt lat="40.32558386786581" lon="9.338483946237977"><ele>542.0</ele><time>2026-04-11T13:28:56Z</time></trkpt><trkpt lat="40.3254770491524" lon="9.338511004464692"><ele>542.0</ele><time>2026-04-11T13:28:57Z</time></trkpt><trkpt lat="40.32537382575206" lon="9.338537151962825"><ele>542.0</ele><time>2026-04-11T13:28:58Z</time></trkpt><trkpt lat="40.32527696274279" lon="9.338561688314606"><ele>542.0</ele><time>2026-04-11T13:28:59Z</time></trkpt><trkpt lat="40.3251867636422" lon="9.338580780106126"><ele>542.0</ele><time>2026-04-11T13:29:00Z</time></trkpt><trkpt lat="40.325097715075344" lon="9.33860352842799"><ele>542.0</ele><time>2026-04-11T13:29:01Z</time></trkpt><trkpt lat="40.32501860206033" lon="9.338521949741525"><ele>542.0</ele><time>2026-04-11T13:29:02Z</time></trkpt><trkpt lat="40.32492712649177" lon="9.338464913837132"><ele>542.0</ele><time>2026-04-11T13:29:03Z</time></trkpt><trkpt lat="40.32485189377811" lon="9.338359512864566"><ele>542.0</ele><time>2026-04-11T13:29:04Z</time></trkpt><trkpt lat="40.32478482521385" lon="9.33824793867813"><ele>542.0</ele><time>2026-04-11T13:29:05Z</time></trkpt><trkpt lat="40.32472156313626" lon="9.338148612608759"><ele>542.0</ele><time>2026-04-11T13:29:06Z</time></trkpt><trkpt lat="40.32465974893968" lon="9.338059384389542"><ele>542.0</ele><time>2026-04-11T13:29:07Z</time></trkpt><trkpt lat="40.32459373272154" lon="9.337985428225226"><ele>542.0</ele><time>2026-04-11T13:29:08Z</time></trkpt><trkpt lat="40.32451842249444" lon="9.337919191450492"><ele>543.0</ele><time>2026-04-11T13:29:09Z</time></trkpt><trkpt lat="40.324431643661995" lon="9.337871097657638"><ele>544.0</ele><time>2026-04-11T13:29:10Z</time></trkpt><trkpt lat="40.32433798823429" lon="9.337833799470221"><ele>545.0</ele><time>2026-04-11T13:29:11Z</time></trkpt><trkpt lat="40.324237717036944" lon="9.33780499737952"><ele>546.0</ele><time>2026-04-11T13:29:12Z</time></trkpt><trkpt lat="40.324124331369966" lon="9.337812027842283"><ele>547.0</ele><time>2026-04-11T13:29:13Z</time></trkpt><trkpt lat="40.32402222108186" lon="9.337864635907385"><ele>547.0</ele><time>2026-04-11T13:29:14Z</time></trkpt><trkpt lat="40.32392831979965" lon="9.337948881036045"><ele>547.0</ele><time>2026-04-11T13:29:15Z</time></trkpt><trkpt lat="40.32384152212036" lon="9.33802373121774"><ele>547.0</ele><time>2026-04-11T13:29:16Z</time></trkpt><trkpt lat="40.32376248431354" lon="9.338053141596854"><ele>547.0</ele><time>2026-04-11T13:29:17Z</time></trkpt><trkpt lat="40.323703234594" lon="9.338107648212565"><ele>547.0</ele><time>2026-04-11T13:29:18Z</time></trkpt><trkpt lat="40.32364257869929" lon="9.338140395090575"><ele>547.0</ele><time>2026-04-11T13:29:19Z</time></trkpt><trkpt lat="40.32355281425838" lon="9.33819186833453"><ele>543.8333333333334</ele><time>2026-04-11T13:29:21Z</time></trkpt><trkpt lat="40.32349831319296" lon="9.338245188157348"><ele>540.6666666666667</ele><time>2026-04-11T13:29:23Z</time></trkpt><trkpt lat="40.32355514718074" lon="9.338423809028384"><ele>537.5</ele><time>2026-04-11T13:29:27Z</time></trkpt><trkpt lat="40.32363441711482" lon="9.338398615440745"><ele>534.3333333333334</ele><time>2026-04-11T13:29:29Z</time></trkpt><trkpt lat="40.323696261607544" lon="9.338345809989226"><ele>531.1666666666666</ele><time>2026-04-11T13:29:47Z</time></trkpt><trkpt lat="40.323750682227654" lon="9.33829611820927"><ele>528.0</ele><time>2026-04-11T13:29:48Z</time></trkpt><trkpt lat="40.3238115741724" lon="9.338235347220357"><ele>528.0</ele><time>2026-04-11T13:29:49Z</time></trkpt><trkpt lat="40.32387820801001" lon="9.33817739504"><ele>528.0</ele><time>2026-04-11T13:29:50Z</time></trkpt><trkpt lat="40.32395039398055" lon="9.338118877702584"><ele>528.0</ele><time>2026-04-11T13:29:51Z</time></trkpt><trkpt lat="40.324030442298834" lon="9.338056874275548"><ele>528.0</ele><time>2026-04-11T13:29:52Z</time></trkpt><trkpt lat="40.324122224668" lon="9.337992615920053"><ele>528.0</ele><time>2026-04-11T13:29:53Z</time></trkpt><trkpt lat="40.324239546931246" lon="9.337984778205135"><ele>528.5</ele><time>2026-04-11T13:29:54Z</time></trkpt><trkpt lat="40.32435228406791" lon="9.338008471587877"><ele>529.0</ele><time>2026-04-11T13:29:55Z</time></trkpt><trkpt lat="40.32442900655121" lon="9.338079083129937"><ele>529.5</ele><time>2026-04-11T13:29:56Z</time></trkpt><trkpt lat="40.32447038558017" lon="9.338225042606188"><ele>530.0</ele><time>2026-04-11T13:29:57Z</time></trkpt><trkpt lat="40.324521717562085" lon="9.338385440875786"><ele>530.0</ele><time>2026-04-11T13:29:58Z</time></trkpt><trkpt lat="40.32455453192488" lon="9.33855760436596"><ele>530.0</ele><time>2026-04-11T13:29:59Z</time></trkpt><trkpt lat="40.32459438866702" lon="9.338720445120254"><ele>530.0</ele><time>2026-04-11T13:30:00Z</time></trkpt><trkpt lat="40.324662075030936" lon="9.338871217004534"><ele>530.0</ele><time>2026-04-11T13:30:01Z</time></trkpt><trkpt lat="40.32476801948718" lon="9.338989350578005"><ele>524.6666666666666</ele><time>2026-04-11T13:30:02Z</time></trkpt><trkpt lat="40.3249070584313" lon="9.339054928745457"><ele>519.3333333333334</ele><time>2026-04-11T13:30:03Z</time></trkpt><trkpt lat="40.32505823313834" lon="9.339079923152509"><ele>514.0</ele><time>2026-04-11T13:30:04Z</time></trkpt><trkpt lat="40.325208271760374" lon="9.33907993197586"><ele>514.0</ele><time>2026-04-11T13:30:05Z</time></trkpt><trkpt lat="40.32535554902187" lon="9.339039733050416"><ele>514.0</ele><time>2026-04-11T13:30:06Z</time></trkpt><trkpt lat="40.3255011142619" lon="9.338967772089337"><ele>514.0</ele><time>2026-04-11T13:30:07Z</time></trkpt><trkpt lat="40.32564579579041" lon="9.33893130364462"><ele>514.0</ele><time>2026-04-11T13:30:08Z</time></trkpt><trkpt lat="40.32578431078554" lon="9.338919073635466"><ele>514.0</ele><time>2026-04-11T13:30:09Z</time></trkpt><trkpt lat="40.32591843964168" lon="9.338969857500746"><ele>514.0</ele><time>2026-04-11T13:30:10Z</time></trkpt><trkpt lat="40.326046140772334" lon="9.339075870108404"><ele>514.0</ele><time>2026-04-11T13:30:11Z</time></trkpt><trkpt lat="40.32618233121565" lon="9.339195281278588"><ele>514.0</ele><time>2026-04-11T13:30:12Z</time></trkpt><trkpt lat="40.32630347801412" lon="9.339347175428955"><ele>514.0</ele><time>2026-04-11T13:30:13Z</time></trkpt><trkpt lat="40.3264260875496" lon="9.339502990066267"><ele>514.0</ele><time>2026-04-11T13:30:14Z</time></trkpt><trkpt lat="40.32653846140541" lon="9.339659433765421"><ele>509.0</ele><time>2026-04-11T13:30:15Z</time></trkpt><trkpt lat="40.32665114600812" lon="9.3398139962744"><ele>504.0</ele><time>2026-04-11T13:30:16Z</time></trkpt><trkpt lat="40.32679445294982" lon="9.339943317193374"><ele>499.0</ele><time>2026-04-11T13:30:17Z</time></trkpt><trkpt lat="40.326971721488555" lon="9.339990249768894"><ele>499.0</ele><time>2026-04-11T13:30:18Z</time></trkpt><trkpt lat="40.32709843796383" lon="9.34011117756725"><ele>499.0</ele><time>2026-04-11T13:30:19Z</time></trkpt><trkpt lat="40.32726225280719" lon="9.340192348971895"><ele>499.0</ele><time>2026-04-11T13:30:20Z</time></trkpt><trkpt lat="40.32727202573813" lon="9.340441936626432"><ele>495.0</ele><time>2026-04-11T13:30:21Z</time></trkpt><trkpt lat="40.32731806064543" lon="9.340626586525753"><ele>491.0</ele><time>2026-04-11T13:30:22Z</time></trkpt><trkpt lat="40.32731129813454" lon="9.34080943533766"><ele>487.0</ele><time>2026-04-11T13:30:23Z</time></trkpt><trkpt lat="40.327243321852826" lon="9.340964910134531"><ele>483.0</ele><time>2026-04-11T13:30:24Z</time></trkpt><trkpt lat="40.32711895358266" lon="9.341061959326556"><ele>483.0</ele><time>2026-04-11T13:30:25Z</time></trkpt><trkpt lat="40.326963469088504" lon="9.341111538641114"><ele>483.0</ele><time>2026-04-11T13:30:26Z</time></trkpt><trkpt lat="40.32681376657409" lon="9.341165272646592"><ele>483.0</ele><time>2026-04-11T13:30:27Z</time></trkpt><trkpt lat="40.32668017781391" lon="9.341252958472722"><ele>483.0</ele><time>2026-04-11T13:30:28Z</time></trkpt><trkpt lat="40.32656927293434" lon="9.341379306146646"><ele>483.0</ele><time>2026-04-11T13:30:29Z</time></trkpt><trkpt lat="40.326492434171016" lon="9.341543559907727"><ele>483.0</ele><time>2026-04-11T13:30:30Z</time></trkpt><trkpt lat="40.326417087874226" lon="9.341708200540067"><ele>483.0</ele><time>2026-04-11T13:30:31Z</time></trkpt><trkpt lat="40.326330537693394" lon="9.34186300136643"><ele>484.25</ele><time>2026-04-11T13:30:32Z</time></trkpt><trkpt lat="40.32623164793368" lon="9.342000654222154"><ele>485.5</ele><time>2026-04-11T13:30:33Z</time></trkpt><trkpt lat="40.32610008187855" lon="9.342085162550342"><ele>486.75</ele><time>2026-04-11T13:30:34Z</time></trkpt><trkpt lat="40.325975261097206" lon="9.34219732262763"><ele>488.0</ele><time>2026-04-11T13:30:35Z</time></trkpt><trkpt lat="40.32585086037237" lon="9.34233847541386"><ele>488.0</ele><time>2026-04-11T13:30:36Z</time></trkpt><trkpt lat="40.32575327305953" lon="9.342515998938413"><ele>488.0</ele><time>2026-04-11T13:30:37Z</time></trkpt><trkpt lat="40.325640499243256" lon="9.342652656462"><ele>488.0</ele><time>2026-04-11T13:30:38Z</time></trkpt><trkpt lat="40.32548940136686" lon="9.34272232766068"><ele>478.3333333333333</ele><time>2026-04-11T13:30:39Z</time></trkpt><trkpt lat="40.325324355722955" lon="9.342779309781148"><ele>468.66666666666663</ele><time>2026-04-11T13:30:40Z</time></trkpt><trkpt lat="40.32515226897019" lon="9.342848824258638"><ele>459.0</ele><time>2026-04-11T13:30:41Z</time></trkpt><trkpt lat="40.32498454662644" lon="9.342921535748955"><ele>459.0</ele><time>2026-04-11T13:30:42Z</time></trkpt><trkpt lat="40.32482042725214" lon="9.342993010303458"><ele>459.0</ele><time>2026-04-11T13:30:43Z</time></trkpt><trkpt lat="40.32466675175538" lon="9.343085218812487"><ele>459.0</ele><time>2026-04-11T13:30:44Z</time></trkpt><trkpt lat="40.324539032987694" lon="9.343227549078614"><ele>458.33333333333337</ele><time>2026-04-11T13:30:45Z</time></trkpt><trkpt lat="40.32444808701959" lon="9.343414745978214"><ele>457.6666666666667</ele><time>2026-04-11T13:30:46Z</time></trkpt><trkpt lat="40.324390453556866" lon="9.343621034500275"><ele>457.0</ele><time>2026-04-11T13:30:47Z</time></trkpt><trkpt lat="40.32435049910605" lon="9.343825579550074"><ele>460.0</ele><time>2026-04-11T13:30:48Z</time></trkpt><trkpt lat="40.32429669379778" lon="9.344023927719395"><ele>463.0</ele><time>2026-04-11T13:30:49Z</time></trkpt><trkpt lat="40.324205521253674" lon="9.34419564587146"><ele>466.0</ele><time>2026-04-11T13:30:50Z</time></trkpt><trkpt lat="40.32409188476871" lon="9.344349607552845"><ele>466.0</ele><time>2026-04-11T13:30:51Z</time></trkpt><trkpt lat="40.323981714053446" lon="9.344514362653705"><ele>466.0</ele><time>2026-04-11T13:30:52Z</time></trkpt><trkpt lat="40.3238741327954" lon="9.344688149179348"><ele>466.0</ele><time>2026-04-11T13:30:53Z</time></trkpt><trkpt lat="40.323762843742095" lon="9.344854697099096"><ele>462.33333333333337</ele><time>2026-04-11T13:30:54Z</time></trkpt><trkpt lat="40.323636718958156" lon="9.34499860482014"><ele>458.66666666666663</ele><time>2026-04-11T13:30:55Z</time></trkpt><trkpt lat="40.32347439039083" lon="9.345067040340641"><ele>455.0</ele><time>2026-04-11T13:30:56Z</time></trkpt><trkpt lat="40.323314165624744" lon="9.34513657539329"><ele>455.0</ele><time>2026-04-11T13:30:57Z</time></trkpt><trkpt lat="40.32315483875482" lon="9.345190135833773"><ele>455.0</ele><time>2026-04-11T13:30:58Z</time></trkpt><trkpt lat="40.32300383779796" lon="9.345225913215884"><ele>455.0</ele><time>2026-04-11T13:30:59Z</time></trkpt><trkpt lat="40.32287134683305" lon="9.34523812839425"><ele>457.5</ele><time>2026-04-11T13:31:00Z</time></trkpt><trkpt lat="40.32276723343577" lon="9.345172907651088"><ele>460.0</ele><time>2026-04-11T13:31:01Z</time></trkpt><trkpt lat="40.32269024476205" lon="9.345063277993445"><ele>462.5</ele><time>2026-04-11T13:31:02Z</time></trkpt><trkpt lat="40.32263349641134" lon="9.344898924243333"><ele>465.0</ele><time>2026-04-11T13:31:03Z</time></trkpt><trkpt lat="40.322554711302466" lon="9.344739696593335"><ele>459.75</ele><time>2026-04-11T13:31:04Z</time></trkpt><trkpt lat="40.322492594824304" lon="9.344564066320366"><ele>454.5</ele><time>2026-04-11T13:31:05Z</time></trkpt><trkpt lat="40.32242759993194" lon="9.344398163673539"><ele>449.25</ele><time>2026-04-11T13:31:06Z</time></trkpt><trkpt lat="40.322362873820225" lon="9.344249402377093"><ele>444.0</ele><time>2026-04-11T13:31:07Z</time></trkpt><trkpt lat="40.32226792798693" lon="9.344122580176276"><ele>447.25</ele><time>2026-04-11T13:31:08Z</time></trkpt><trkpt lat="40.32213436037004" lon="9.344034789078753"><ele>450.5</ele><time>2026-04-11T13:31:09Z</time></trkpt><trkpt lat="40.32198670573876" lon="9.343992776664926"><ele>453.75</ele><time>2026-04-11T13:31:10Z</time></trkpt><trkpt lat="40.32186414366661" lon="9.343951782079401"><ele>457.0</ele><time>2026-04-11T13:31:11Z</time></trkpt><trkpt lat="40.32171289013865" lon="9.34391845148638"><ele>447.33333333333337</ele><time>2026-04-11T13:31:12Z</time></trkpt><trkpt lat="40.32157906095953" lon="9.343801997754364"><ele>437.66666666666663</ele><time>2026-04-11T13:31:13Z</time></trkpt><trkpt lat="40.32143502216681" lon="9.34385565614853"><ele>428.0</ele><time>2026-04-11T13:31:14Z</time></trkpt><trkpt lat="40.32128192567357" lon="9.34384384416917"><ele>427.3333333333333</ele><time>2026-04-11T13:31:15Z</time></trkpt><trkpt lat="40.3211255203499" lon="9.343841147932972"><ele>426.66666666666663</ele><time>2026-04-11T13:31:16Z</time></trkpt><trkpt lat="40.32096883340021" lon="9.343844474772403"><ele>426.0</ele><time>2026-04-11T13:31:17Z</time></trkpt><trkpt lat="40.32080630570869" lon="9.343851866550574"><ele>426.0</ele><time>2026-04-11T13:31:18Z</time></trkpt><trkpt lat="40.32064470516379" lon="9.343861277847294"><ele>426.0</ele><time>2026-04-11T13:31:19Z</time></trkpt><trkpt lat="40.32048183711505" lon="9.343877100757217"><ele>426.0</ele><time>2026-04-11T13:31:20Z</time></trkpt><trkpt lat="40.32032339957341" lon="9.343915033584073"><ele>431.66666666666663</ele><time>2026-04-11T13:31:21Z</time></trkpt><trkpt lat="40.32017188396967" lon="9.343993224355991"><ele>437.3333333333333</ele><time>2026-04-11T13:31:22Z</time></trkpt><trkpt lat="40.320027599242195" lon="9.344094566306483"><ele>443.0</ele><time>2026-04-11T13:31:23Z</time></trkpt><trkpt lat="40.31988065535168" lon="9.344190065098262"><ele>437.3333333333333</ele><time>2026-04-11T13:31:24Z</time></trkpt><trkpt lat="40.319726578233585" lon="9.344269597174142"><ele>431.66666666666663</ele><time>2026-04-11T13:31:25Z</time></trkpt><trkpt lat="40.31956635569012" lon="9.344326024581454"><ele>426.0</ele><time>2026-04-11T13:31:26Z</time></trkpt><trkpt lat="40.31940471971497" lon="9.344364035939705"><ele>426.0</ele><time>2026-04-11T13:31:27Z</time></trkpt><trkpt lat="40.31924548278618" lon="9.344388192628735"><ele>426.0</ele><time>2026-04-11T13:31:28Z</time></trkpt><trkpt lat="40.3190839542247" lon="9.34441238267325"><ele>426.0</ele><time>2026-04-11T13:31:29Z</time></trkpt><trkpt lat="40.318921518337284" lon="9.34443095941462"><ele>425.33333333333337</ele><time>2026-04-11T13:31:30Z</time></trkpt><trkpt lat="40.31875692138041" lon="9.344449720657185"><ele>424.6666666666667</ele><time>2026-04-11T13:31:31Z</time></trkpt><trkpt lat="40.318591183699084" lon="9.344415014865799"><ele>424.0</ele><time>2026-04-11T13:31:32Z</time></trkpt><trkpt lat="40.31842490601286" lon="9.344374817507369"><ele>424.0</ele><time>2026-04-11T13:31:33Z</time></trkpt><trkpt lat="40.318263659580865" lon="9.344301047631381"><ele>424.0</ele><time>2026-04-11T13:31:34Z</time></trkpt><trkpt lat="40.3181038519946" lon="9.344209420562343"><ele>424.0</ele><time>2026-04-11T13:31:35Z</time></trkpt><trkpt lat="40.31795584730269" lon="9.344102046702252"><ele>426.6666666666667</ele><time>2026-04-11T13:31:36Z</time></trkpt><trkpt lat="40.31780430069833" lon="9.343993880353015"><ele>429.33333333333337</ele><time>2026-04-11T13:31:37Z</time></trkpt><trkpt lat="40.317666918685674" lon="9.3438775556366"><ele>432.0</ele><time>2026-04-11T13:31:38Z</time></trkpt><trkpt lat="40.31752997516892" lon="9.343796722138546"><ele>430.0</ele><time>2026-04-11T13:31:39Z</time></trkpt><trkpt lat="40.31738887062207" lon="9.343778337999128"><ele>428.0</ele><time>2026-04-11T13:31:40Z</time></trkpt><trkpt lat="40.31727062412067" lon="9.343863230533403"><ele>426.0</ele><time>2026-04-11T13:31:41Z</time></trkpt><trkpt lat="40.317150889940955" lon="9.34400175826071"><ele>424.0</ele><time>2026-04-11T13:31:42Z</time></trkpt><trkpt lat="40.31699358368033" lon="9.344045032554941"><ele>424.0</ele><time>2026-04-11T13:31:43Z</time></trkpt><trkpt lat="40.31681787372543" lon="9.34406327396651"><ele>424.0</ele><time>2026-04-11T13:31:44Z</time></trkpt><trkpt lat="40.31665735400224" lon="9.344087456416956"><ele>424.0</ele><time>2026-04-11T13:31:45Z</time></trkpt><trkpt lat="40.31649630592044" lon="9.344115569494488"><ele>415.6666666666667</ele><time>2026-04-11T13:31:46Z</time></trkpt><trkpt lat="40.31633536910712" lon="9.34418325053223"><ele>407.33333333333337</ele><time>2026-04-11T13:31:47Z</time></trkpt><trkpt lat="40.316180272811806" lon="9.344287762794044"><ele>399.0</ele><time>2026-04-11T13:31:48Z</time></trkpt><trkpt lat="40.31602891919535" lon="9.344409985106115"><ele>399.0</ele><time>2026-04-11T13:31:49Z</time></trkpt><trkpt lat="40.31588764302512" lon="9.344550990057702"><ele>399.0</ele><time>2026-04-11T13:31:50Z</time></trkpt><trkpt lat="40.31575067617598" lon="9.344704777017618"><ele>399.0</ele><time>2026-04-11T13:31:51Z</time></trkpt><trkpt lat="40.315618088169565" lon="9.344867237220667"><ele>397.66666666666663</ele><time>2026-04-11T13:31:52Z</time></trkpt><trkpt lat="40.31548085593016" lon="9.345029554446814"><ele>396.3333333333333</ele><time>2026-04-11T13:31:53Z</time></trkpt><trkpt lat="40.31534018693531" lon="9.34517875129009"><ele>395.0</ele><time>2026-04-11T13:31:54Z</time></trkpt><trkpt lat="40.3151992853017" lon="9.345329999649012"><ele>395.0</ele><time>2026-04-11T13:31:55Z</time></trkpt><trkpt lat="40.31506647426546" lon="9.34548058605784"><ele>395.0</ele><time>2026-04-11T13:31:56Z</time></trkpt><trkpt lat="40.31493765307828" lon="9.345629947571291"><ele>395.0</ele><time>2026-04-11T13:31:57Z</time></trkpt><trkpt lat="40.3148154709043" lon="9.345774967455403"><ele>396.75</ele><time>2026-04-11T13:31:58Z</time></trkpt><trkpt lat="40.31469477576111" lon="9.345901373240686"><ele>398.5</ele><time>2026-04-11T13:31:59Z</time></trkpt><trkpt lat="40.31455922879606" lon="9.345958380499118"><ele>400.25</ele><time>2026-04-11T13:32:00Z</time></trkpt><trkpt lat="40.31443851557108" lon="9.34595192249651"><ele>402.0</ele><time>2026-04-11T13:32:01Z</time></trkpt><trkpt lat="40.31433329805491" lon="9.3458479483948"><ele>402.0</ele><time>2026-04-11T13:32:02Z</time></trkpt><trkpt lat="40.31422712355056" lon="9.345785613069504"><ele>402.0</ele><time>2026-04-11T13:32:03Z</time></trkpt><trkpt lat="40.31411427250097" lon="9.34578426441624"><ele>402.0</ele><time>2026-04-11T13:32:04Z</time></trkpt><trkpt lat="40.313998540006125" lon="9.345881814829594"><ele>402.0</ele><time>2026-04-11T13:32:05Z</time></trkpt><trkpt lat="40.31388196306028" lon="9.346016010271287"><ele>393.0</ele><time>2026-04-11T13:32:06Z</time></trkpt><trkpt lat="40.3137641672337" lon="9.346151658456026"><ele>384.0</ele><time>2026-04-11T13:32:07Z</time></trkpt><trkpt lat="40.313632779116375" lon="9.346266597931635"><ele>375.0</ele><time>2026-04-11T13:32:08Z</time></trkpt><trkpt lat="40.31349459729772" lon="9.34637422715683"><ele>382.5</ele><time>2026-04-11T13:32:09Z</time></trkpt><trkpt lat="40.31336496464718" lon="9.346472737487801"><ele>390.0</ele><time>2026-04-11T13:32:10Z</time></trkpt><trkpt lat="40.31325058351048" lon="9.346574438549553"><ele>397.5</ele><time>2026-04-11T13:32:11Z</time></trkpt><trkpt lat="40.313154652924325" lon="9.346706612808198"><ele>405.0</ele><time>2026-04-11T13:32:12Z</time></trkpt><trkpt lat="40.31308025029943" lon="9.346875587026089"><ele>398.66666666666663</ele><time>2026-04-11T13:32:13Z</time></trkpt><trkpt lat="40.313022259991534" lon="9.347069092352932"><ele>392.3333333333333</ele><time>2026-04-11T13:32:14Z</time></trkpt><trkpt lat="40.31296885459157" lon="9.34726814909886"><ele>386.0</ele><time>2026-04-11T13:32:15Z</time></trkpt><trkpt lat="40.31288595844725" lon="9.347458759001155"><ele>386.0</ele><time>2026-04-11T13:32:16Z</time></trkpt><trkpt lat="40.312826986555635" lon="9.347671052884676"><ele>386.0</ele><time>2026-04-11T13:32:17Z</time></trkpt><trkpt lat="40.31275189491912" lon="9.34787363738241"><ele>386.0</ele><time>2026-04-11T13:32:18Z</time></trkpt><trkpt lat="40.31267835425554" lon="9.348080716600794"><ele>389.66666666666663</ele><time>2026-04-11T13:32:19Z</time></trkpt><trkpt lat="40.31260610680125" lon="9.348290161259694"><ele>393.33333333333337</ele><time>2026-04-11T13:32:20Z</time></trkpt><trkpt lat="40.31252454902854" lon="9.348484618964896"><ele>397.0</ele><time>2026-04-11T13:32:21Z</time></trkpt><trkpt lat="40.31247562010417" lon="9.348666887112513"><ele>397.0</ele><time>2026-04-11T13:32:22Z</time></trkpt><trkpt lat="40.312405854327125" lon="9.348799109632283"><ele>397.0</ele><time>2026-04-11T13:32:23Z</time></trkpt><trkpt lat="40.31232537104266" lon="9.348889459211607"><ele>397.0</ele><time>2026-04-11T13:32:24Z</time></trkpt><trkpt lat="40.312228886048224" lon="9.348920734729234"><ele>397.0</ele><time>2026-04-11T13:32:25Z</time></trkpt><trkpt lat="40.31211809513666" lon="9.348853145141911"><ele>394.0</ele><time>2026-04-11T13:32:26Z</time></trkpt><trkpt lat="40.31199980204344" lon="9.348772955746124"><ele>391.0</ele><time>2026-04-11T13:32:27Z</time></trkpt><trkpt lat="40.31188865100873" lon="9.348648274553348"><ele>388.0</ele><time>2026-04-11T13:32:28Z</time></trkpt><trkpt lat="40.31178963263628" lon="9.348542133886571"><ele>385.0</ele><time>2026-04-11T13:32:29Z</time></trkpt><trkpt lat="40.31167050022819" lon="9.348496036903635"><ele>385.0</ele><time>2026-04-11T13:32:30Z</time></trkpt><trkpt lat="40.31153436883673" lon="9.348509337051135"><ele>385.0</ele><time>2026-04-11T13:32:31Z</time></trkpt><trkpt lat="40.31139975760044" lon="9.348575575034412"><ele>385.0</ele><time>2026-04-11T13:32:32Z</time></trkpt><trkpt lat="40.31130010957138" lon="9.348677072660145"><ele>385.0</ele><time>2026-04-11T13:32:33Z</time></trkpt><trkpt lat="40.31121904503813" lon="9.348755098300257"><ele>387.1666666666667</ele><time>2026-04-11T13:32:34Z</time></trkpt><trkpt lat="40.31114706006942" lon="9.348802087888311"><ele>389.33333333333337</ele><time>2026-04-11T13:32:35Z</time></trkpt><trkpt lat="40.31106906633878" lon="9.34883797049788"><ele>391.5</ele><time>2026-04-11T13:32:36Z</time></trkpt><trkpt lat="40.310982661292165" lon="9.348862570074116"><ele>393.66666666666663</ele><time>2026-04-11T13:32:37Z</time></trkpt><trkpt lat="40.3108913284634" lon="9.348865915439275"><ele>395.8333333333333</ele><time>2026-04-11T13:32:38Z</time></trkpt><trkpt lat="40.31080352937081" lon="9.348873259199651"><ele>398.0</ele><time>2026-04-11T13:32:39Z</time></trkpt><trkpt lat="40.31071892977907" lon="9.348919042966267"><ele>398.0</ele><time>2026-04-11T13:32:40Z</time></trkpt><trkpt lat="40.31060205123467" lon="9.34897834935486"><ele>398.0</ele><time>2026-04-11T13:32:41Z</time></trkpt><trkpt lat="40.3104734931758" lon="9.349075188266832"><ele>398.0</ele><time>2026-04-11T13:32:42Z</time></trkpt><trkpt lat="40.31034495370247" lon="9.349176999151497"><ele>398.0</ele><time>2026-04-11T13:32:43Z</time></trkpt><trkpt lat="40.31019776641959" lon="9.349301254140391"><ele>389.3333333333333</ele><time>2026-04-11T13:32:44Z</time></trkpt><trkpt lat="40.31005317282554" lon="9.349415403937165"><ele>380.66666666666663</ele><time>2026-04-11T13:32:45Z</time></trkpt><trkpt lat="40.30990467513163" lon="9.349542176660288"><ele>372.0</ele><time>2026-04-11T13:32:46Z</time></trkpt><trkpt lat="40.30974642539213" lon="9.34966209747754"><ele>371.0</ele><time>2026-04-11T13:32:47Z</time></trkpt><trkpt lat="40.30962869234744" lon="9.349848519925837"><ele>370.0</ele><time>2026-04-11T13:32:48Z</time></trkpt><trkpt lat="40.30949394737381" lon="9.350002303593307"><ele>369.0</ele><time>2026-04-11T13:32:49Z</time></trkpt><trkpt lat="40.309358261012726" lon="9.350127550549539"><ele>369.0</ele><time>2026-04-11T13:32:50Z</time></trkpt><trkpt lat="40.30920687620722" lon="9.350222460205183"><ele>369.0</ele><time>2026-04-11T13:32:51Z</time></trkpt><trkpt lat="40.30905007367059" lon="9.350342348509576"><ele>369.0</ele><time>2026-04-11T13:32:52Z</time></trkpt><trkpt lat="40.30889183068752" lon="9.350463825284931"><ele>367.0</ele><time>2026-04-11T13:32:53Z</time></trkpt><trkpt lat="40.30873548156436" lon="9.350606926521895"><ele>365.0</ele><time>2026-04-11T13:32:54Z</time></trkpt><trkpt lat="40.308582142298086" lon="9.350748764058102"><ele>363.0</ele><time>2026-04-11T13:32:55Z</time></trkpt><trkpt lat="40.308427416731035" lon="9.350897169902057"><ele>363.0</ele><time>2026-04-11T13:32:56Z</time></trkpt><trkpt lat="40.308265508549894" lon="9.351042644037225"><ele>363.0</ele><time>2026-04-11T13:32:57Z</time></trkpt><trkpt lat="40.30813214632643" lon="9.351240487827088"><ele>363.0</ele><time>2026-04-11T13:32:58Z</time></trkpt><trkpt lat="40.30798777187683" lon="9.351423138050079"><ele>360.0</ele><time>2026-04-11T13:32:59Z</time></trkpt><trkpt lat="40.307841176410804" lon="9.351594263527552"><ele>357.0</ele><time>2026-04-11T13:33:00Z</time></trkpt><trkpt lat="40.307690221521334" lon="9.351762505110376"><ele>354.0</ele><time>2026-04-11T13:33:01Z</time></trkpt><trkpt lat="40.30754249712784" lon="9.351931658978758"><ele>354.0</ele><time>2026-04-11T13:33:02Z</time></trkpt><trkpt lat="40.30739083226902" lon="9.352082502176186"><ele>354.0</ele><time>2026-04-11T13:33:03Z</time></trkpt><trkpt lat="40.30725862523339" lon="9.352247119465027"><ele>354.0</ele><time>2026-04-11T13:33:04Z</time></trkpt><trkpt lat="40.3071432047641" lon="9.35241036185771"><ele>352.0</ele><time>2026-04-11T13:33:05Z</time></trkpt><trkpt lat="40.30704173305098" lon="9.352581699784029"><ele>350.0</ele><time>2026-04-11T13:33:06Z</time></trkpt><trkpt lat="40.306923647124904" lon="9.352727560868578"><ele>348.0</ele><time>2026-04-11T13:33:07Z</time></trkpt><trkpt lat="40.30677739133344" lon="9.352836160227508"><ele>348.0</ele><time>2026-04-11T13:33:08Z</time></trkpt><trkpt lat="40.306605384691714" lon="9.352896295473162"><ele>348.0</ele><time>2026-04-11T13:33:09Z</time></trkpt><trkpt lat="40.30641893393674" lon="9.352919419411899"><ele>348.0</ele><time>2026-04-11T13:33:10Z</time></trkpt><trkpt lat="40.30623030995236" lon="9.352944969294581"><ele>350.0</ele><time>2026-04-11T13:33:11Z</time></trkpt><trkpt lat="40.30604082889371" lon="9.353008620208836"><ele>352.0</ele><time>2026-04-11T13:33:12Z</time></trkpt><trkpt lat="40.305859911122" lon="9.353110868511353"><ele>354.0</ele><time>2026-04-11T13:33:13Z</time></trkpt><trkpt lat="40.30569792506168" lon="9.353249150923236"><ele>343.0</ele><time>2026-04-11T13:33:14Z</time></trkpt><trkpt lat="40.305554874355266" lon="9.353419680929875"><ele>332.0</ele><time>2026-04-11T13:33:15Z</time></trkpt><trkpt lat="40.30543710293686" lon="9.353622129170134"><ele>321.0</ele><time>2026-04-11T13:33:16Z</time></trkpt><trkpt lat="40.305314267077556" lon="9.353808137450656"><ele>328.0</ele><time>2026-04-11T13:33:17Z</time></trkpt><trkpt lat="40.30517937897014" lon="9.353966987805466"><ele>335.0</ele><time>2026-04-11T13:33:18Z</time></trkpt><trkpt lat="40.30502350530726" lon="9.354109945061271"><ele>342.0</ele><time>2026-04-11T13:33:19Z</time></trkpt><trkpt lat="40.30487571351152" lon="9.354261227863477"><ele>336.3333333333333</ele><time>2026-04-11T13:33:20Z</time></trkpt><trkpt lat="40.30473349221925" lon="9.35440332648862"><ele>330.66666666666663</ele><time>2026-04-11T13:33:21Z</time></trkpt><trkpt lat="40.30462418644435" lon="9.354592998056912"><ele>325.0</ele><time>2026-04-11T13:33:22Z</time></trkpt><trkpt lat="40.30454345131563" lon="9.354797919731444"><ele>325.0</ele><time>2026-04-11T13:33:23Z</time></trkpt><trkpt lat="40.30448397708122" lon="9.354990081255712"><ele>325.0</ele><time>2026-04-11T13:33:24Z</time></trkpt><trkpt lat="40.30446685948186" lon="9.355186969610733"><ele>325.0</ele><time>2026-04-11T13:33:25Z</time></trkpt><trkpt lat="40.30450889940752" lon="9.355389559317377"><ele>326.5</ele><time>2026-04-11T13:33:26Z</time></trkpt><trkpt lat="40.304516182977046" lon="9.355588571736208"><ele>328.0</ele><time>2026-04-11T13:33:27Z</time></trkpt><trkpt lat="40.30447924335381" lon="9.355758077188579"><ele>329.5</ele><time>2026-04-11T13:33:28Z</time></trkpt><trkpt lat="40.30439381116507" lon="9.35591227258964"><ele>331.0</ele><time>2026-04-11T13:33:29Z</time></trkpt><trkpt lat="40.30430976164981" lon="9.356017953058926"><ele>331.0</ele><time>2026-04-11T13:33:30Z</time></trkpt><trkpt lat="40.304187696983185" lon="9.35615493224886"><ele>331.0</ele><time>2026-04-11T13:33:31Z</time></trkpt><trkpt lat="40.304046790296084" lon="9.356340818960371"><ele>331.0</ele><time>2026-04-11T13:33:32Z</time></trkpt><trkpt lat="40.30394507885075" lon="9.35652572773861"><ele>331.75</ele><time>2026-04-11T13:33:33Z</time></trkpt><trkpt lat="40.303885893371195" lon="9.356693906009408"><ele>332.5</ele><time>2026-04-11T13:33:34Z</time></trkpt><trkpt lat="40.303875286618805" lon="9.356863878795467"><ele>333.25</ele><time>2026-04-11T13:33:35Z</time></trkpt><trkpt lat="40.303919488519334" lon="9.35703213056381"><ele>334.0</ele><time>2026-04-11T13:33:36Z</time></trkpt><trkpt lat="40.30397358319888" lon="9.357215521042002"><ele>334.0</ele><time>2026-04-11T13:33:37Z</time></trkpt><trkpt lat="40.30403659154255" lon="9.357399114335257"><ele>334.0</ele><time>2026-04-11T13:33:38Z</time></trkpt><trkpt lat="40.304082121093884" lon="9.357574125038813"><ele>334.0</ele><time>2026-04-11T13:33:39Z</time></trkpt><trkpt lat="40.304089313456096" lon="9.357743159330147"><ele>334.0</ele><time>2026-04-11T13:33:40Z</time></trkpt><trkpt lat="40.30405676354497" lon="9.357902081727183"><ele>333.5</ele><time>2026-04-11T13:33:41Z</time></trkpt><trkpt lat="40.30396730092449" lon="9.35804222820337"><ele>333.0</ele><time>2026-04-11T13:33:42Z</time></trkpt><trkpt lat="40.303895759429075" lon="9.35821529660293"><ele>332.5</ele><time>2026-04-11T13:33:43Z</time></trkpt><trkpt lat="40.30385436264804" lon="9.358375639524306"><ele>332.0</ele><time>2026-04-11T13:33:44Z</time></trkpt><trkpt lat="40.30388015295358" lon="9.358543572295243"><ele>332.0</ele><time>2026-04-11T13:33:45Z</time></trkpt><trkpt lat="40.303960260499345" lon="9.35869093461367"><ele>332.0</ele><time>2026-04-11T13:33:46Z</time></trkpt><trkpt lat="40.303996789124284" lon="9.358838603994528"><ele>332.0</ele><time>2026-04-11T13:33:47Z</time></trkpt><trkpt lat="40.303987720097616" lon="9.35896815189988"><ele>332.0</ele><time>2026-04-11T13:33:48Z</time></trkpt><trkpt lat="40.303942623198324" lon="9.359088280096646"><ele>327.75</ele><time>2026-04-11T13:33:49Z</time></trkpt><trkpt lat="40.30386895885682" lon="9.359198332600497"><ele>323.5</ele><time>2026-04-11T13:33:50Z</time></trkpt><trkpt lat="40.303723262148694" lon="9.359204187358568"><ele>319.25</ele><time>2026-04-11T13:33:51Z</time></trkpt><trkpt lat="40.30358128960763" lon="9.35926102990864"><ele>315.0</ele><time>2026-04-11T13:33:52Z</time></trkpt><trkpt lat="40.30342800831363" lon="9.35930196289389"><ele>315.0</ele><time>2026-04-11T13:33:53Z</time></trkpt><trkpt lat="40.303274465190356" lon="9.359359456383336"><ele>315.0</ele><time>2026-04-11T13:33:54Z</time></trkpt><trkpt lat="40.30314751965854" lon="9.359470994467129"><ele>315.0</ele><time>2026-04-11T13:33:55Z</time></trkpt><trkpt lat="40.30304012954203" lon="9.359619141002247"><ele>313.0</ele><time>2026-04-11T13:33:56Z</time></trkpt><trkpt lat="40.30295702261163" lon="9.359801940261665"><ele>311.0</ele><time>2026-04-11T13:33:57Z</time></trkpt><trkpt lat="40.30290501291831" lon="9.360004195873131"><ele>309.0</ele><time>2026-04-11T13:33:58Z</time></trkpt><trkpt lat="40.30287760709114" lon="9.360203271125636"><ele>309.0</ele><time>2026-04-11T13:33:59Z</time></trkpt><trkpt lat="40.30288675143328" lon="9.360402711317029"><ele>309.0</ele><time>2026-04-11T13:34:00Z</time></trkpt><trkpt lat="40.30292127001987" lon="9.360595835005059"><ele>309.0</ele><time>2026-04-11T13:34:01Z</time></trkpt><trkpt lat="40.30298365023945" lon="9.360785388127827"><ele>308.0</ele><time>2026-04-11T13:34:02Z</time></trkpt><trkpt lat="40.30304556770996" lon="9.360967064888742"><ele>307.0</ele><time>2026-04-11T13:34:03Z</time></trkpt><trkpt lat="40.30310936928076" lon="9.361155230357353"><ele>306.0</ele><time>2026-04-11T13:34:04Z</time></trkpt><trkpt lat="40.30317061165331" lon="9.36134345660195"><ele>311.6666666666667</ele><time>2026-04-11T13:34:05Z</time></trkpt><trkpt lat="40.30324316164402" lon="9.361532541531776"><ele>317.33333333333337</ele><time>2026-04-11T13:34:06Z</time></trkpt><trkpt lat="40.30327480081324" lon="9.361743242634848"><ele>323.0</ele><time>2026-04-11T13:34:07Z</time></trkpt><trkpt lat="40.30331397081281" lon="9.361949870846805"><ele>323.0</ele><time>2026-04-11T13:34:08Z</time></trkpt><trkpt lat="40.30328838771406" lon="9.362171321730393"><ele>323.0</ele><time>2026-04-11T13:34:09Z</time></trkpt><trkpt lat="40.30327354204658" lon="9.362391948931322"><ele>323.0</ele><time>2026-04-11T13:34:10Z</time></trkpt><trkpt lat="40.303240228280366" lon="9.362607972560571"><ele>322.5</ele><time>2026-04-11T13:34:11Z</time></trkpt><trkpt lat="40.303233064195595" lon="9.362812371636512"><ele>322.0</ele><time>2026-04-11T13:34:12Z</time></trkpt><trkpt lat="40.3032745519254" lon="9.36299496888516"><ele>321.5</ele><time>2026-04-11T13:34:13Z</time></trkpt><trkpt lat="40.30335732263491" lon="9.363144654523325"><ele>321.0</ele><time>2026-04-11T13:34:14Z</time></trkpt><trkpt lat="40.30341799651582" lon="9.363351003350136"><ele>318.5</ele><time>2026-04-11T13:34:15Z</time></trkpt><trkpt lat="40.303583641531496" lon="9.363385009719819"><ele>316.0</ele><time>2026-04-11T13:34:16Z</time></trkpt><trkpt lat="40.30368457434374" lon="9.363494143464138"><ele>313.5</ele><time>2026-04-11T13:34:17Z</time></trkpt><trkpt lat="40.30376563536492" lon="9.363605515566574"><ele>311.0</ele><time>2026-04-11T13:34:18Z</time></trkpt><trkpt lat="40.30380973625513" lon="9.36372067073809"><ele>311.0</ele><time>2026-04-11T13:34:19Z</time></trkpt><trkpt lat="40.30376843714767" lon="9.363852755355033"><ele>311.0</ele><time>2026-04-11T13:34:20Z</time></trkpt><trkpt lat="40.303677355714456" lon="9.363967256311282"><ele>311.0</ele><time>2026-04-11T13:34:21Z</time></trkpt><trkpt lat="40.303556163461266" lon="9.364069095074512"><ele>311.0</ele><time>2026-04-11T13:34:22Z</time></trkpt><trkpt lat="40.30345027352998" lon="9.364197155939413"><ele>311.0</ele><time>2026-04-11T13:34:23Z</time></trkpt><trkpt lat="40.30333320496556" lon="9.36431942527617"><ele>311.0</ele><time>2026-04-11T13:34:24Z</time></trkpt><trkpt lat="40.30321813270881" lon="9.364457169320653"><ele>311.0</ele><time>2026-04-11T13:34:25Z</time></trkpt><trkpt lat="40.30312466493297" lon="9.364618251610342"><ele>306.0</ele><time>2026-04-11T13:34:26Z</time></trkpt><trkpt lat="40.303067004992656" lon="9.36481644650363"><ele>301.0</ele><time>2026-04-11T13:34:27Z</time></trkpt><trkpt lat="40.303021484037544" lon="9.365022528586815"><ele>296.0</ele><time>2026-04-11T13:34:28Z</time></trkpt><trkpt lat="40.302981364523184" lon="9.365232754460655"><ele>296.0</ele><time>2026-04-11T13:34:29Z</time></trkpt><trkpt lat="40.30294108718119" lon="9.36544442814764"><ele>296.0</ele><time>2026-04-11T13:34:30Z</time></trkpt><trkpt lat="40.30293961110903" lon="9.365674861903099"><ele>296.0</ele><time>2026-04-11T13:34:31Z</time></trkpt><trkpt lat="40.30295612590165" lon="9.365901490604928"><ele>296.33333333333337</ele><time>2026-04-11T13:34:32Z</time></trkpt><trkpt lat="40.30297552726149" lon="9.366126206493767"><ele>296.6666666666667</ele><time>2026-04-11T13:34:33Z</time></trkpt><trkpt lat="40.30299565235614" lon="9.366359305213058"><ele>297.0</ele><time>2026-04-11T13:34:34Z</time></trkpt><trkpt lat="40.30301591104618" lon="9.366593951191554"><ele>297.0</ele><time>2026-04-11T13:34:35Z</time></trkpt><trkpt lat="40.30303622973107" lon="9.366829292082514"><ele>297.0</ele><time>2026-04-11T13:34:36Z</time></trkpt><trkpt lat="40.303054652108386" lon="9.36706767120192"><ele>297.0</ele><time>2026-04-11T13:34:37Z</time></trkpt><trkpt lat="40.303071928895406" lon="9.367308394713374"><ele>304.6666666666667</ele><time>2026-04-11T13:34:38Z</time></trkpt><trkpt lat="40.30308965898093" lon="9.36755376725471"><ele>312.33333333333337</ele><time>2026-04-11T13:34:39Z</time></trkpt><trkpt lat="40.303096739008105" lon="9.367787121656507"><ele>320.0</ele><time>2026-04-11T13:34:40Z</time></trkpt><trkpt lat="40.30309468027072" lon="9.368022514045125"><ele>312.6666666666667</ele><time>2026-04-11T13:34:41Z</time></trkpt><trkpt lat="40.30303744928433" lon="9.368241096006072"><ele>305.3333333333333</ele><time>2026-04-11T13:34:42Z</time></trkpt><trkpt lat="40.30297058226034" lon="9.368447333379038"><ele>298.0</ele><time>2026-04-11T13:34:43Z</time></trkpt><trkpt lat="40.302926187575466" lon="9.368651837405626"><ele>298.0</ele><time>2026-04-11T13:34:44Z</time></trkpt><trkpt lat="40.30291675587605" lon="9.368853660178795"><ele>298.0</ele><time>2026-04-11T13:34:45Z</time></trkpt><trkpt lat="40.30295555081513" lon="9.369046481592912"><ele>298.0</ele><time>2026-04-11T13:34:46Z</time></trkpt><trkpt lat="40.30301506166952" lon="9.369220303057801"><ele>298.0</ele><time>2026-04-11T13:34:47Z</time></trkpt><trkpt lat="40.303074953752784" lon="9.369380275360303"><ele>298.0</ele><time>2026-04-11T13:34:48Z</time></trkpt><trkpt lat="40.30307500764387" lon="9.369554021599923"><ele>298.0</ele><time>2026-04-11T13:34:49Z</time></trkpt><trkpt lat="40.30304774287015" lon="9.369753020920667"><ele>298.0</ele><time>2026-04-11T13:34:50Z</time></trkpt><trkpt lat="40.303027844220004" lon="9.369963079969827"><ele>297.3333333333333</ele><time>2026-04-11T13:34:51Z</time></trkpt><trkpt lat="40.3030600728111" lon="9.37018968729325"><ele>296.6666666666667</ele><time>2026-04-11T13:34:52Z</time></trkpt><trkpt lat="40.30310585578262" lon="9.37041834287005"><ele>296.0</ele><time>2026-04-11T13:34:53Z</time></trkpt><trkpt lat="40.30316488606852" lon="9.370647196616499"><ele>304.0</ele><time>2026-04-11T13:34:54Z</time></trkpt><trkpt lat="40.30322412248652" lon="9.370879608703566"><ele>312.0</ele><time>2026-04-11T13:34:55Z</time></trkpt><trkpt lat="40.303255408545894" lon="9.371122341767322"><ele>320.0</ele><time>2026-04-11T13:34:56Z</time></trkpt><trkpt lat="40.30330936003402" lon="9.371352266889076"><ele>318.6666666666667</ele><time>2026-04-11T13:34:57Z</time></trkpt><trkpt lat="40.30336266922836" lon="9.371578859825565"><ele>317.3333333333333</ele><time>2026-04-11T13:34:58Z</time></trkpt><trkpt lat="40.303414656646815" lon="9.371800471607528"><ele>316.0</ele><time>2026-04-11T13:34:59Z</time></trkpt><trkpt lat="40.30347998075955" lon="9.372078934968863"><ele>314.3333333333333</ele><time>2026-04-11T13:35:00Z</time></trkpt><trkpt lat="40.303535982309384" lon="9.372317658081306"><ele>312.6666666666667</ele><time>2026-04-11T13:35:01Z</time></trkpt><trkpt lat="40.3035900121921" lon="9.372547976472465"><ele>311.0</ele><time>2026-04-11T13:35:02Z</time></trkpt><trkpt lat="40.30364426666485" lon="9.372777970009162"><ele>311.0</ele><time>2026-04-11T13:35:03Z</time></trkpt><trkpt lat="40.30369831344988" lon="9.373006414889261"><ele>311.0</ele><time>2026-04-11T13:35:04Z</time></trkpt><trkpt lat="40.303771797993456" lon="9.373218888519984"><ele>311.0</ele><time>2026-04-11T13:35:05Z</time></trkpt><trkpt lat="40.303821311497565" lon="9.373432961586909"><ele>311.0</ele><time>2026-04-11T13:35:06Z</time></trkpt><trkpt lat="40.303867603368765" lon="9.3736257411546"><ele>311.0</ele><time>2026-04-11T13:35:07Z</time></trkpt><trkpt lat="40.30392413590355" lon="9.373788714352006"><ele>311.0</ele><time>2026-04-11T13:35:08Z</time></trkpt><trkpt lat="40.3040248572089" lon="9.373915631886431"><ele>311.0</ele><time>2026-04-11T13:35:09Z</time></trkpt><trkpt lat="40.304166742212956" lon="9.373994708617985"><ele>314.5</ele><time>2026-04-11T13:35:10Z</time></trkpt><trkpt lat="40.30430595039318" lon="9.37407896514425"><ele>318.0</ele><time>2026-04-11T13:35:11Z</time></trkpt><trkpt lat="40.30443523139425" lon="9.374149830912895"><ele>321.5</ele><time>2026-04-11T13:35:12Z</time></trkpt><trkpt lat="40.30453671301358" lon="9.374271700957324"><ele>325.0</ele><time>2026-04-11T13:35:13Z</time></trkpt><trkpt lat="40.30464382150514" lon="9.374416195779075"><ele>325.0</ele><time>2026-04-11T13:35:14Z</time></trkpt><trkpt lat="40.304732369778584" lon="9.374592936111537"><ele>325.0</ele><time>2026-04-11T13:35:15Z</time></trkpt><trkpt lat="40.30485264597748" lon="9.37473863273905"><ele>325.0</ele><time>2026-04-11T13:35:16Z</time></trkpt><trkpt lat="40.30498709420211" lon="9.374879955478686"><ele>329.3333333333333</ele><time>2026-04-11T13:35:17Z</time></trkpt><trkpt lat="40.30508873462983" lon="9.375062637154741"><ele>333.6666666666667</ele><time>2026-04-11T13:35:18Z</time></trkpt><trkpt lat="40.30517845795218" lon="9.37525594573425"><ele>338.0</ele><time>2026-04-11T13:35:19Z</time></trkpt><trkpt lat="40.305262243949194" lon="9.375468196570095"><ele>335.6666666666667</ele><time>2026-04-11T13:35:20Z</time></trkpt><trkpt lat="40.30535609929382" lon="9.375677079985717"><ele>333.3333333333333</ele><time>2026-04-11T13:35:21Z</time></trkpt><trkpt lat="40.305441809321024" lon="9.375895426565897"><ele>331.0</ele><time>2026-04-11T13:35:22Z</time></trkpt><trkpt lat="40.30554720794889" lon="9.376098159377772"><ele>334.0</ele><time>2026-04-11T13:35:23Z</time></trkpt><trkpt lat="40.3056684994514" lon="9.376282051926585"><ele>337.0</ele><time>2026-04-11T13:35:24Z</time></trkpt><trkpt lat="40.30581524990057" lon="9.376458234154097"><ele>340.0</ele><time>2026-04-11T13:35:25Z</time></trkpt><trkpt lat="40.3059691137717" lon="9.37660001896477"><ele>340.0</ele><time>2026-04-11T13:35:26Z</time></trkpt><trkpt lat="40.306132146914344" lon="9.376706981001059"><ele>340.0</ele><time>2026-04-11T13:35:27Z</time></trkpt><trkpt lat="40.30629660918473" lon="9.376797461944804"><ele>340.0</ele><time>2026-04-11T13:35:28Z</time></trkpt><trkpt lat="40.30643268306882" lon="9.376881181740263"><ele>342.0</ele><time>2026-04-11T13:35:29Z</time></trkpt><trkpt lat="40.30653926721666" lon="9.377014761498438"><ele>344.0</ele><time>2026-04-11T13:35:30Z</time></trkpt><trkpt lat="40.30659317067527" lon="9.377178604558855"><ele>346.0</ele><time>2026-04-11T13:35:31Z</time></trkpt><trkpt lat="40.306626118712835" lon="9.377362883715136"><ele>348.0</ele><time>2026-04-11T13:35:32Z</time></trkpt><trkpt lat="40.30665873797362" lon="9.377563757142104"><ele>348.0</ele><time>2026-04-11T13:35:33Z</time></trkpt><trkpt lat="40.30669315492357" lon="9.37776018256929"><ele>348.0</ele><time>2026-04-11T13:35:34Z</time></trkpt><trkpt lat="40.306763888233526" lon="9.377922332082036"><ele>348.0</ele><time>2026-04-11T13:35:35Z</time></trkpt><trkpt lat="40.3068416040182" lon="9.37804505326701"><ele>348.0</ele><time>2026-04-11T13:35:36Z</time></trkpt><trkpt lat="40.30695159974984" lon="9.378104851739009"><ele>348.0</ele><time>2026-04-11T13:35:37Z</time></trkpt><trkpt lat="40.307090431830716" lon="9.378106833518977"><ele>348.0</ele><time>2026-04-11T13:35:38Z</time></trkpt><trkpt lat="40.30724592988791" lon="9.37808589474161"><ele>348.0</ele><time>2026-04-11T13:35:39Z</time></trkpt><trkpt lat="40.30741527077545" lon="9.378056754452496"><ele>346.3333333333333</ele><time>2026-04-11T13:35:40Z</time></trkpt><trkpt lat="40.30758230008595" lon="9.378049647674437"><ele>344.66666666666663</ele><time>2026-04-11T13:35:41Z</time></trkpt><trkpt lat="40.307728264309254" lon="9.37809535582111"><ele>343.0</ele><time>2026-04-11T13:35:42Z</time></trkpt><trkpt lat="40.30784733601881" lon="9.378184755913642"><ele>343.0</ele><time>2026-04-11T13:35:43Z</time></trkpt><trkpt lat="40.30789554041956" lon="9.378328259250686"><ele>343.0</ele><time>2026-04-11T13:35:44Z</time></trkpt><trkpt lat="40.30793682344087" lon="9.378493170404303"><ele>343.0</ele><time>2026-04-11T13:35:45Z</time></trkpt><trkpt lat="40.30795365041974" lon="9.378699634267965"><ele>343.0</ele><time>2026-04-11T13:35:46Z</time></trkpt><trkpt lat="40.30797065837468" lon="9.378934930440415"><ele>341.3333333333333</ele><time>2026-04-11T13:35:47Z</time></trkpt><trkpt lat="40.30798697698286" lon="9.379181508757588"><ele>339.6666666666667</ele><time>2026-04-11T13:35:48Z</time></trkpt><trkpt lat="40.30800559829852" lon="9.379431875316236"><ele>338.0</ele><time>2026-04-11T13:35:49Z</time></trkpt><trkpt lat="40.308020683876975" lon="9.379684255214288"><ele>339.33333333333337</ele><time>2026-04-11T13:35:50Z</time></trkpt><trkpt lat="40.30803740799069" lon="9.379930604979526"><ele>340.6666666666667</ele><time>2026-04-11T13:35:51Z</time></trkpt><trkpt lat="40.3080679644767" lon="9.380161961413952"><ele>342.0</ele><time>2026-04-11T13:35:52Z</time></trkpt><trkpt lat="40.30810495048775" lon="9.380381814769214"><ele>339.6666666666667</ele><time>2026-04-11T13:35:53Z</time></trkpt><trkpt lat="40.308177934682924" lon="9.380582452944193"><ele>337.33333333333337</ele><time>2026-04-11T13:35:54Z</time></trkpt><trkpt lat="40.30828721358802" lon="9.380761005697446"><ele>335.0</ele><time>2026-04-11T13:35:55Z</time></trkpt><trkpt lat="40.30842258163087" lon="9.380909568101211"><ele>335.0</ele><time>2026-04-11T13:35:56Z</time></trkpt><trkpt lat="40.30856587331947" lon="9.381045763671919"><ele>335.0</ele><time>2026-04-11T13:35:57Z</time></trkpt><trkpt lat="40.30870466619756" lon="9.381190282842804"><ele>335.0</ele><time>2026-04-11T13:35:58Z</time></trkpt><trkpt lat="40.30883429897352" lon="9.38136144994021"><ele>334.33333333333337</ele><time>2026-04-11T13:35:59Z</time></trkpt><trkpt lat="40.30896468373661" lon="9.381527337479033"><ele>333.6666666666667</ele><time>2026-04-11T13:36:00Z</time></trkpt><trkpt lat="40.30908007793346" lon="9.381694117071714"><ele>333.0</ele><time>2026-04-11T13:36:01Z</time></trkpt><trkpt lat="40.309166143817706" lon="9.381872747446629"><ele>333.0</ele><time>2026-04-11T13:36:02Z</time></trkpt><trkpt lat="40.30922945457919" lon="9.382075745241744"><ele>333.0</ele><time>2026-04-11T13:36:03Z</time></trkpt><trkpt lat="40.30928613488748" lon="9.382294295805465"><ele>333.0</ele><time>2026-04-11T13:36:04Z</time></trkpt><trkpt lat="40.309351395503974" lon="9.382510743193421"><ele>330.6666666666667</ele><time>2026-04-11T13:36:05Z</time></trkpt><trkpt lat="40.3094226408281" lon="9.382718041037622"><ele>328.33333333333337</ele><time>2026-04-11T13:36:06Z</time></trkpt><trkpt lat="40.30952936629906" lon="9.38290788632147"><ele>326.0</ele><time>2026-04-11T13:36:07Z</time></trkpt><trkpt lat="40.30965535561361" lon="9.38306326805445"><ele>326.6666666666667</ele><time>2026-04-11T13:36:08Z</time></trkpt><trkpt lat="40.30974879304881" lon="9.383228982787093"><ele>327.3333333333333</ele><time>2026-04-11T13:36:09Z</time></trkpt><trkpt lat="40.309795039232704" lon="9.383412168211926"><ele>328.0</ele><time>2026-04-11T13:36:10Z</time></trkpt><trkpt lat="40.30983200584894" lon="9.38362971363624"><ele>326.0</ele><time>2026-04-11T13:36:11Z</time></trkpt><trkpt lat="40.30988353729309" lon="9.383863036687114"><ele>324.0</ele><time>2026-04-11T13:36:12Z</time></trkpt><trkpt lat="40.3099080257987" lon="9.384103634874384"><ele>322.0</ele><time>2026-04-11T13:36:13Z</time></trkpt><trkpt lat="40.30994942828493" lon="9.384341805923942"><ele>322.0</ele><time>2026-04-11T13:36:14Z</time></trkpt><trkpt lat="40.309998100938316" lon="9.384576217463627"><ele>322.0</ele><time>2026-04-11T13:36:15Z</time></trkpt><trkpt lat="40.310072023655046" lon="9.384794588042617"><ele>322.0</ele><time>2026-04-11T13:36:16Z</time></trkpt><trkpt lat="40.31017559095378" lon="9.384976796461116"><ele>319.3333333333333</ele><time>2026-04-11T13:36:17Z</time></trkpt><trkpt lat="40.31026329297071" lon="9.385152760286681"><ele>316.6666666666667</ele><time>2026-04-11T13:36:18Z</time></trkpt><trkpt lat="40.31032291005893" lon="9.385340376422725"><ele>314.0</ele><time>2026-04-11T13:36:19Z</time></trkpt><trkpt lat="40.310346895470644" lon="9.385547050913623"><ele>312.0</ele><time>2026-04-11T13:36:20Z</time></trkpt><trkpt lat="40.3103499402502" lon="9.38578416445881"><ele>310.0</ele><time>2026-04-11T13:36:21Z</time></trkpt><trkpt lat="40.310342893130816" lon="9.386026894155274"><ele>308.0</ele><time>2026-04-11T13:36:22Z</time></trkpt><trkpt lat="40.31033081208011" lon="9.386280469959047"><ele>307.33333333333337</ele><time>2026-04-11T13:36:23Z</time></trkpt><trkpt lat="40.31031708048414" lon="9.386536513922227"><ele>306.6666666666667</ele><time>2026-04-11T13:36:24Z</time></trkpt><trkpt lat="40.3103051727451" lon="9.386787858611608"><ele>306.0</ele><time>2026-04-11T13:36:25Z</time></trkpt><trkpt lat="40.31029355525024" lon="9.387042306110244"><ele>305.3333333333333</ele><time>2026-04-11T13:36:26Z</time></trkpt><trkpt lat="40.31029655946585" lon="9.387303825805848"><ele>304.66666666666663</ele><time>2026-04-11T13:36:27Z</time></trkpt><trkpt lat="40.310282552481944" lon="9.387565676021728"><ele>304.0</ele><time>2026-04-11T13:36:28Z</time></trkpt><trkpt lat="40.31026465534012" lon="9.387830743202036"><ele>302.66666666666663</ele><time>2026-04-11T13:36:29Z</time></trkpt><trkpt lat="40.3102336675948" lon="9.38808818881632"><ele>301.3333333333333</ele><time>2026-04-11T13:36:30Z</time></trkpt><trkpt lat="40.31018516615101" lon="9.388347178765649"><ele>300.0</ele><time>2026-04-11T13:36:31Z</time></trkpt><trkpt lat="40.310120332372286" lon="9.388605266429144"><ele>301.3333333333333</ele><time>2026-04-11T13:36:32Z</time></trkpt><trkpt lat="40.31004357156262" lon="9.388858037642871"><ele>302.66666666666663</ele><time>2026-04-11T13:36:33Z</time></trkpt><trkpt lat="40.309959934630626" lon="9.389096548704869"><ele>304.0</ele><time>2026-04-11T13:36:34Z</time></trkpt><trkpt lat="40.309873629564606" lon="9.389320026323496"><ele>304.0</ele><time>2026-04-11T13:36:35Z</time></trkpt><trkpt lat="40.309794354162435" lon="9.389540752891861"><ele>304.0</ele><time>2026-04-11T13:36:36Z</time></trkpt><trkpt lat="40.30973500693828" lon="9.389763813652788"><ele>304.0</ele><time>2026-04-11T13:36:37Z</time></trkpt><trkpt lat="40.30970223574805" lon="9.39000172585953"><ele>304.0</ele><time>2026-04-11T13:36:38Z</time></trkpt><trkpt lat="40.30969564402865" lon="9.390246790808"><ele>304.0</ele><time>2026-04-11T13:36:39Z</time></trkpt><trkpt lat="40.309709948015616" lon="9.390496956875104"><ele>304.0</ele><time>2026-04-11T13:36:40Z</time></trkpt><trkpt lat="40.30975188200041" lon="9.390747767251206"><ele>304.0</ele><time>2026-04-11T13:36:41Z</time></trkpt><trkpt lat="40.30981615465652" lon="9.390991529705767"><ele>304.0</ele><time>2026-04-11T13:36:42Z</time></trkpt><trkpt lat="40.309864619950694" lon="9.391237015949844"><ele>304.0</ele><time>2026-04-11T13:36:43Z</time></trkpt><trkpt lat="40.30989213150592" lon="9.39148300077989"><ele>302.66666666666663</ele><time>2026-04-11T13:36:44Z</time></trkpt><trkpt lat="40.30987909970626" lon="9.391732910233337"><ele>301.3333333333333</ele><time>2026-04-11T13:36:45Z</time></trkpt><trkpt lat="40.3098304133978" lon="9.391983255110455"><ele>300.0</ele><time>2026-04-11T13:36:46Z</time></trkpt><trkpt lat="40.30974363102495" lon="9.392226758617905"><ele>294.0</ele><time>2026-04-11T13:36:47Z</time></trkpt><trkpt lat="40.30962121404105" lon="9.392444157829418"><ele>288.0</ele><time>2026-04-11T13:36:48Z</time></trkpt><trkpt lat="40.3094800422868" lon="9.39261916184268"><ele>282.0</ele><time>2026-04-11T13:36:49Z</time></trkpt><trkpt lat="40.30932891681218" lon="9.392751887178465"><ele>282.0</ele><time>2026-04-11T13:36:50Z</time></trkpt><trkpt lat="40.30918596939784" lon="9.392889900801244"><ele>282.0</ele><time>2026-04-11T13:36:51Z</time></trkpt><trkpt lat="40.30905202225137" lon="9.393024591305325"><ele>282.0</ele><time>2026-04-11T13:36:52Z</time></trkpt><trkpt lat="40.30896684414718" lon="9.393177139329852"><ele>281.75</ele><time>2026-04-11T13:36:53Z</time></trkpt><trkpt lat="40.30891516614611" lon="9.393357112674106"><ele>281.5</ele><time>2026-04-11T13:36:54Z</time></trkpt><trkpt lat="40.30890334075826" lon="9.393543604541438"><ele>281.25</ele><time>2026-04-11T13:36:55Z</time></trkpt><trkpt lat="40.30893308616213" lon="9.393727622766036"><ele>281.0</ele><time>2026-04-11T13:36:56Z</time></trkpt><trkpt lat="40.308989451501134" lon="9.393905604512398"><ele>282.5</ele><time>2026-04-11T13:36:57Z</time></trkpt><trkpt lat="40.30904501746223" lon="9.394077884025085"><ele>284.0</ele><time>2026-04-11T13:36:58Z</time></trkpt><trkpt lat="40.30909169149397" lon="9.394247849036235"><ele>285.5</ele><time>2026-04-11T13:36:59Z</time></trkpt><trkpt lat="40.30913705810441" lon="9.394425255238398"><ele>287.0</ele><time>2026-04-11T13:37:00Z</time></trkpt><trkpt lat="40.309187295494695" lon="9.394611593583761"><ele>284.0</ele><time>2026-04-11T13:37:01Z</time></trkpt><trkpt lat="40.309236130992296" lon="9.394799299932664"><ele>281.0</ele><time>2026-04-11T13:37:02Z</time></trkpt><trkpt lat="40.30928392306009" lon="9.394979189475585"><ele>278.0</ele><time>2026-04-11T13:37:03Z</time></trkpt><trkpt lat="40.30933692746796" lon="9.395153266714617"><ele>275.0</ele><time>2026-04-11T13:37:04Z</time></trkpt><trkpt lat="40.309409813938686" lon="9.395315854241852"><ele>275.0</ele><time>2026-04-11T13:37:05Z</time></trkpt><trkpt lat="40.309508721253984" lon="9.395455333818587"><ele>275.0</ele><time>2026-04-11T13:37:06Z</time></trkpt><trkpt lat="40.30962646151271" lon="9.39556158005998"><ele>275.0</ele><time>2026-04-11T13:37:07Z</time></trkpt><trkpt lat="40.309750307385585" lon="9.395649084850573"><ele>275.0</ele><time>2026-04-11T13:37:08Z</time></trkpt><trkpt lat="40.30984484990168" lon="9.395767261631482"><ele>275.0</ele><time>2026-04-11T13:37:09Z</time></trkpt><trkpt lat="40.309933402293055" lon="9.39586941770084"><ele>275.0</ele><time>2026-04-11T13:37:10Z</time></trkpt><trkpt lat="40.30997588903013" lon="9.395987410523558"><ele>275.0</ele><time>2026-04-11T13:37:11Z</time></trkpt><trkpt lat="40.30997708083156" lon="9.396105979677241"><ele>275.0</ele><time>2026-04-11T13:37:12Z</time></trkpt><trkpt lat="40.30994654670973" lon="9.396239565809132"><ele>275.0</ele><time>2026-04-11T13:37:13Z</time></trkpt><trkpt lat="40.30991464331735" lon="9.396403837677427"><ele>273.0</ele><time>2026-04-11T13:37:14Z</time></trkpt><trkpt lat="40.30989107877349" lon="9.396578037440419"><ele>271.0</ele><time>2026-04-11T13:37:15Z</time></trkpt><trkpt lat="40.30985282220094" lon="9.3967509817338"><ele>269.0</ele><time>2026-04-11T13:37:16Z</time></trkpt><trkpt lat="40.30982154630211" lon="9.396921102954147"><ele>267.0</ele><time>2026-04-11T13:37:17Z</time></trkpt><trkpt lat="40.30979162772561" lon="9.39709041093015"><ele>265.25</ele><time>2026-04-11T13:37:18Z</time></trkpt><trkpt lat="40.3097694490207" lon="9.39725967081469"><ele>263.5</ele><time>2026-04-11T13:37:19Z</time></trkpt><trkpt lat="40.30977052905064" lon="9.397432760416777"><ele>261.75</ele><time>2026-04-11T13:37:20Z</time></trkpt><trkpt lat="40.30980805333376" lon="9.397606393535327"><ele>260.0</ele><time>2026-04-11T13:37:21Z</time></trkpt><trkpt lat="40.309885048531925" lon="9.397776571243574"><ele>260.0</ele><time>2026-04-11T13:37:22Z</time></trkpt><trkpt lat="40.309974615852624" lon="9.397970985774514"><ele>260.0</ele><time>2026-04-11T13:37:23Z</time></trkpt><trkpt lat="40.31007916183952" lon="9.398176952475033"><ele>260.0</ele><time>2026-04-11T13:37:24Z</time></trkpt><trkpt lat="40.31019277738963" lon="9.398402636848266"><ele>258.0</ele><time>2026-04-11T13:37:25Z</time></trkpt><trkpt lat="40.310313852157435" lon="9.398644606540161"><ele>256.0</ele><time>2026-04-11T13:37:26Z</time></trkpt><trkpt lat="40.31044384580496" lon="9.398905835065934"><ele>255.5</ele><time>2026-04-11T13:37:27Z</time></trkpt><trkpt lat="40.31057999789538" lon="9.399179007295462"><ele>255.0</ele><time>2026-04-11T13:37:28Z</time></trkpt><trkpt lat="40.31071896794681" lon="9.399455951154552"><ele>254.0</ele><time>2026-04-11T13:37:29Z</time></trkpt><trkpt lat="40.31085100589347" lon="9.399719080552863"><ele>253.0</ele><time>2026-04-11T13:37:30Z</time></trkpt><trkpt lat="40.31099178236217" lon="9.399995496943713"><ele>253.0</ele><time>2026-04-11T13:37:31Z</time></trkpt><trkpt lat="40.311132583515054" lon="9.400271642796405"><ele>253.0</ele><time>2026-04-11T13:37:32Z</time></trkpt><trkpt lat="40.311271586989946" lon="9.400544562413835"><ele>254.0</ele><time>2026-04-11T13:37:33Z</time></trkpt><trkpt lat="40.31140812356316" lon="9.400816972572237"><ele>255.0</ele><time>2026-04-11T13:37:34Z</time></trkpt><trkpt lat="40.311546029102914" lon="9.401092587316535"><ele>251.0</ele><time>2026-04-11T13:37:35Z</time></trkpt><trkpt lat="40.31168580871597" lon="9.401371990924247"><ele>247.0</ele><time>2026-04-11T13:37:36Z</time></trkpt><trkpt lat="40.31182741809565" lon="9.401655060565712"><ele>247.0</ele><time>2026-04-11T13:37:37Z</time></trkpt><trkpt lat="40.311974251366976" lon="9.401948572401206"><ele>247.0</ele><time>2026-04-11T13:37:38Z</time></trkpt><trkpt lat="40.31212568018893" lon="9.402251270642209"><ele>246.0</ele><time>2026-04-11T13:37:39Z</time></trkpt><trkpt lat="40.31228432196332" lon="9.40256670284786"><ele>245.0</ele><time>2026-04-11T13:37:40Z</time></trkpt><trkpt lat="40.312449229545074" lon="9.40289444004907"><ele>243.5</ele><time>2026-04-11T13:37:41Z</time></trkpt><trkpt lat="40.312613619933906" lon="9.40321925088175"><ele>242.0</ele><time>2026-04-11T13:37:42Z</time></trkpt><trkpt lat="40.31277572112115" lon="9.403537481146568"><ele>241.0</ele><time>2026-04-11T13:37:43Z</time></trkpt><trkpt lat="40.31293482254412" lon="9.403849822406189"><ele>240.0</ele><time>2026-04-11T13:37:44Z</time></trkpt><trkpt lat="40.31309254432085" lon="9.404160677120304"><ele>240.0</ele><time>2026-04-11T13:37:45Z</time></trkpt><trkpt lat="40.31324951792914" lon="9.404469446720931"><ele>240.0</ele><time>2026-04-11T13:37:46Z</time></trkpt><trkpt lat="40.313407593331384" lon="9.40478231145305"><ele>238.5</ele><time>2026-04-11T13:37:47Z</time></trkpt><trkpt lat="40.31356817406912" lon="9.405100134812935"><ele>237.0</ele><time>2026-04-11T13:37:48Z</time></trkpt><trkpt lat="40.31373201232799" lon="9.405424405505608"><ele>237.0</ele><time>2026-04-11T13:37:49Z</time></trkpt><trkpt lat="40.31389843316046" lon="9.405753787640732"><ele>237.0</ele><time>2026-04-11T13:37:50Z</time></trkpt><trkpt lat="40.31406671601279" lon="9.406086126993133"><ele>234.0</ele><time>2026-04-11T13:37:51Z</time></trkpt><trkpt lat="40.314237074912675" lon="9.40642228689566"><ele>231.0</ele><time>2026-04-11T13:37:52Z</time></trkpt><trkpt lat="40.31440997762812" lon="9.406763507319434"><ele>231.0</ele><time>2026-04-11T13:37:53Z</time></trkpt><trkpt lat="40.314588121131244" lon="9.407115070523728"><ele>231.0</ele><time>2026-04-11T13:37:54Z</time></trkpt><trkpt lat="40.314770584753596" lon="9.407475159111831"><ele>232.0</ele><time>2026-04-11T13:37:55Z</time></trkpt><trkpt lat="40.31494724730308" lon="9.407823799611347"><ele>233.0</ele><time>2026-04-11T13:37:56Z</time></trkpt><trkpt lat="40.31511869769387" lon="9.408162154016269"><ele>233.0</ele><time>2026-04-11T13:37:57Z</time></trkpt><trkpt lat="40.31527997659048" lon="9.408480435073429"><ele>233.0</ele><time>2026-04-11T13:37:58Z</time></trkpt><trkpt lat="40.31542888913834" lon="9.408774311325125"><ele>235.0</ele><time>2026-04-11T13:37:59Z</time></trkpt><trkpt lat="40.31557198254372" lon="9.409054093059066"><ele>237.0</ele><time>2026-04-11T13:38:00Z</time></trkpt><trkpt lat="40.31571229538259" lon="9.40929808954729"><ele>237.0</ele><time>2026-04-11T13:38:01Z</time></trkpt><trkpt lat="40.315811856414726" lon="9.409573232040131"><ele>237.0</ele><time>2026-04-11T13:38:02Z</time></trkpt><trkpt lat="40.31588984348914" lon="9.409843419853473"><ele>236.5</ele><time>2026-04-11T13:38:03Z</time></trkpt><trkpt lat="40.31594803760588" lon="9.410153439194863"><ele>236.0</ele><time>2026-04-11T13:38:04Z</time></trkpt><trkpt lat="40.31600603924926" lon="9.410494575540607"><ele>235.0</ele><time>2026-04-11T13:38:05Z</time></trkpt><trkpt lat="40.31606645172899" lon="9.41085259283235"><ele>234.0</ele><time>2026-04-11T13:38:06Z</time></trkpt><trkpt lat="40.31612688576695" lon="9.411210738073276"><ele>233.0</ele><time>2026-04-11T13:38:07Z</time></trkpt><trkpt lat="40.31618726882631" lon="9.411568581015457"><ele>232.0</ele><time>2026-04-11T13:38:08Z</time></trkpt><trkpt lat="40.3162478238174" lon="9.411927442978408"><ele>232.0</ele><time>2026-04-11T13:38:09Z</time></trkpt><trkpt lat="40.31630887242901" lon="9.41228908806434"><ele>232.0</ele><time>2026-04-11T13:38:10Z</time></trkpt><trkpt lat="40.31637025516176" lon="9.412650745244996"><ele>229.0</ele><time>2026-04-11T13:38:11Z</time></trkpt><trkpt lat="40.31643193883963" lon="9.413013323811796"><ele>226.0</ele><time>2026-04-11T13:38:12Z</time></trkpt><trkpt lat="40.316493567625635" lon="9.413374022365893"><ele>226.0</ele><time>2026-04-11T13:38:13Z</time></trkpt><trkpt lat="40.316568808788666" lon="9.413715894116883"><ele>226.0</ele><time>2026-04-11T13:38:14Z</time></trkpt><trkpt lat="40.31660958106369" lon="9.414053021298855"><ele>224.0</ele><time>2026-04-11T13:38:15Z</time></trkpt><trkpt lat="40.31666386701973" lon="9.414370744048567"><ele>222.0</ele><time>2026-04-11T13:38:16Z</time></trkpt><trkpt lat="40.31670862653852" lon="9.414676070346934"><ele>219.5</ele><time>2026-04-11T13:38:17Z</time></trkpt><trkpt lat="40.31675314588748" lon="9.414980390476982"><ele>217.0</ele><time>2026-04-11T13:38:18Z</time></trkpt><trkpt lat="40.316757190878285" lon="9.415305052845584"><ele>214.0</ele><time>2026-04-11T13:38:19Z</time></trkpt><trkpt lat="40.31674561298949" lon="9.415642680953948"><ele>211.0</ele><time>2026-04-11T13:38:20Z</time></trkpt><trkpt lat="40.316775586816235" lon="9.415977423298036"><ele>210.5</ele><time>2026-04-11T13:38:21Z</time></trkpt><trkpt lat="40.31669555575803" lon="9.416341442796803"><ele>210.0</ele><time>2026-04-11T13:38:22Z</time></trkpt><trkpt lat="40.31666989881944" lon="9.41670814501671"><ele>210.0</ele><time>2026-04-11T13:38:23Z</time></trkpt><trkpt lat="40.316645665239214" lon="9.417084819721378"><ele>210.0</ele><time>2026-04-11T13:38:24Z</time></trkpt><trkpt lat="40.31662045577151" lon="9.41746951881993"><ele>210.0</ele><time>2026-04-11T13:38:25Z</time></trkpt><trkpt lat="40.31659290069768" lon="9.417857196245576"><ele>210.0</ele><time>2026-04-11T13:38:26Z</time></trkpt><trkpt lat="40.31656594848153" lon="9.418247391462398"><ele>209.0</ele><time>2026-04-11T13:38:27Z</time></trkpt><trkpt lat="40.31653931816643" lon="9.41864176782777"><ele>208.0</ele><time>2026-04-11T13:38:28Z</time></trkpt><trkpt lat="40.31651207245974" lon="9.419039559418252"><ele>208.0</ele><time>2026-04-11T13:38:29Z</time></trkpt><trkpt lat="40.31648586831482" lon="9.419434946414587"><ele>208.0</ele><time>2026-04-11T13:38:30Z</time></trkpt><trkpt lat="40.31646162911248" lon="9.419821036257204"><ele>207.0</ele><time>2026-04-11T13:38:31Z</time></trkpt><trkpt lat="40.31643583121269" lon="9.420201655061684"><ele>206.0</ele><time>2026-04-11T13:38:32Z</time></trkpt><trkpt lat="40.316411120370354" lon="9.420578987124888"><ele>206.0</ele><time>2026-04-11T13:38:33Z</time></trkpt><trkpt lat="40.316385270770915" lon="9.42095866108692"><ele>206.0</ele><time>2026-04-11T13:38:34Z</time></trkpt><trkpt lat="40.31636342944373" lon="9.421340232532708"><ele>203.0</ele><time>2026-04-11T13:38:35Z</time></trkpt><trkpt lat="40.31634045782965" lon="9.421726957731758"><ele>200.0</ele><time>2026-04-11T13:38:36Z</time></trkpt><trkpt lat="40.3163189671719" lon="9.422109686126129"><ele>199.0</ele><time>2026-04-11T13:38:37Z</time></trkpt><trkpt lat="40.316295996370165" lon="9.422480008890718"><ele>198.0</ele><time>2026-04-11T13:38:38Z</time></trkpt><trkpt lat="40.31627021971134" lon="9.422839226704792"><ele>197.5</ele><time>2026-04-11T13:38:39Z</time></trkpt><trkpt lat="40.316245074716456" lon="9.423192366571291"><ele>197.0</ele><time>2026-04-11T13:38:40Z</time></trkpt><trkpt lat="40.316227600298355" lon="9.423561090267803"><ele>197.5</ele><time>2026-04-11T13:38:41Z</time></trkpt><trkpt lat="40.31621343878192" lon="9.423946033166498"><ele>198.0</ele><time>2026-04-11T13:38:42Z</time></trkpt><trkpt lat="40.31617922347285" lon="9.42430029487878"><ele>198.0</ele><time>2026-04-11T13:38:43Z</time></trkpt><trkpt lat="40.316144814262394" lon="9.424634759818334"><ele>198.0</ele><time>2026-04-11T13:38:44Z</time></trkpt><trkpt lat="40.31612144635132" lon="9.424959974324905"><ele>199.5</ele><time>2026-04-11T13:38:45Z</time></trkpt><trkpt lat="40.31610300481729" lon="9.425269401077294"><ele>201.0</ele><time>2026-04-11T13:38:46Z</time></trkpt><trkpt lat="40.316097762140124" lon="9.425564738766639"><ele>201.0</ele><time>2026-04-11T13:38:47Z</time></trkpt><trkpt lat="40.31612379197495" lon="9.425838703114172"><ele>201.0</ele><time>2026-04-11T13:38:48Z</time></trkpt><trkpt lat="40.316189261142725" lon="9.426098018160326"><ele>201.0</ele><time>2026-04-11T13:38:49Z</time></trkpt><trkpt lat="40.31629709292281" lon="9.426355788018268"><ele>203.5</ele><time>2026-04-11T13:38:50Z</time></trkpt><trkpt lat="40.31642727868358" lon="9.4266116838915"><ele>206.0</ele><time>2026-04-11T13:38:51Z</time></trkpt><trkpt lat="40.31655725160229" lon="9.426860236909105"><ele>206.0</ele><time>2026-04-11T13:38:52Z</time></trkpt><trkpt lat="40.31668756300447" lon="9.42711378489304"><ele>206.0</ele><time>2026-04-11T13:38:53Z</time></trkpt><trkpt lat="40.3168099815889" lon="9.427362004910313"><ele>205.33333333333334</ele><time>2026-04-11T13:38:54Z</time></trkpt><trkpt lat="40.31691678099002" lon="9.427609500057569"><ele>204.66666666666669</ele><time>2026-04-11T13:38:55Z</time></trkpt><trkpt lat="40.31699425717354" lon="9.427868394394752"><ele>204.0</ele><time>2026-04-11T13:38:56Z</time></trkpt><trkpt lat="40.3170355127861" lon="9.428139947379615"><ele>203.66666666666669</ele><time>2026-04-11T13:38:57Z</time></trkpt><trkpt lat="40.31707315870247" lon="9.428412774439026"><ele>203.33333333333334</ele><time>2026-04-11T13:38:58Z</time></trkpt><trkpt lat="40.317156947665104" lon="9.428660816090668"><ele>203.0</ele><time>2026-04-11T13:38:59Z</time></trkpt><trkpt lat="40.31729436427164" lon="9.428895813919407"><ele>206.5</ele><time>2026-04-11T13:39:00Z</time></trkpt><trkpt lat="40.31744681367034" lon="9.42912787782292"><ele>210.0</ele><time>2026-04-11T13:39:01Z</time></trkpt><trkpt lat="40.31759754858733" lon="9.42936667061125"><ele>210.0</ele><time>2026-04-11T13:39:02Z</time></trkpt><trkpt lat="40.3177420509228" lon="9.429609645021854"><ele>210.0</ele><time>2026-04-11T13:39:03Z</time></trkpt><trkpt lat="40.31788110600433" lon="9.429863414675545"><ele>207.5</ele><time>2026-04-11T13:39:04Z</time></trkpt><trkpt lat="40.31801073640855" lon="9.430117790737205"><ele>205.0</ele><time>2026-04-11T13:39:05Z</time></trkpt><trkpt lat="40.318124410528455" lon="9.430379862752593"><ele>209.0</ele><time>2026-04-11T13:39:06Z</time></trkpt><trkpt lat="40.31821501416968" lon="9.430653770949547"><ele>213.0</ele><time>2026-04-11T13:39:07Z</time></trkpt><trkpt lat="40.31828975017592" lon="9.430938231729726"><ele>213.0</ele><time>2026-04-11T13:39:08Z</time></trkpt><trkpt lat="40.31836409222503" lon="9.431224718987364"><ele>213.0</ele><time>2026-04-11T13:39:09Z</time></trkpt><trkpt lat="40.31843391948088" lon="9.431515740314584"><ele>210.5</ele><time>2026-04-11T13:39:10Z</time></trkpt><trkpt lat="40.318509630994484" lon="9.43180289093711"><ele>208.0</ele><time>2026-04-11T13:39:11Z</time></trkpt><trkpt lat="40.31859196011097" lon="9.432085867007077"><ele>207.0</ele><time>2026-04-11T13:39:12Z</time></trkpt><trkpt lat="40.31867978638729" lon="9.4323660407998"><ele>206.0</ele><time>2026-04-11T13:39:13Z</time></trkpt><trkpt lat="40.318790555054385" lon="9.432633950317756"><ele>209.5</ele><time>2026-04-11T13:39:14Z</time></trkpt><trkpt lat="40.31893016017584" lon="9.432882079755458"><ele>213.0</ele><time>2026-04-11T13:39:15Z</time></trkpt><trkpt lat="40.31907390322899" lon="9.433129508548102"><ele>213.0</ele><time>2026-04-11T13:39:16Z</time></trkpt><trkpt lat="40.31921635090969" lon="9.433378946465668"><ele>213.0</ele><time>2026-04-11T13:39:17Z</time></trkpt><trkpt lat="40.319360802730685" lon="9.433629188753446"><ele>210.5</ele><time>2026-04-11T13:39:18Z</time></trkpt><trkpt lat="40.31950493469649" lon="9.433880205422279"><ele>208.0</ele><time>2026-04-11T13:39:19Z</time></trkpt><trkpt lat="40.31965215927865" lon="9.43413087037213"><ele>211.0</ele><time>2026-04-11T13:39:20Z</time></trkpt><trkpt lat="40.319803127553136" lon="9.434384915834967"><ele>214.0</ele><time>2026-04-11T13:39:21Z</time></trkpt><trkpt lat="40.319953374577395" lon="9.434642708795673"><ele>214.0</ele><time>2026-04-11T13:39:22Z</time></trkpt><trkpt lat="40.320103238613484" lon="9.434904891342272"><ele>214.0</ele><time>2026-04-11T13:39:23Z</time></trkpt><trkpt lat="40.32025180601567" lon="9.435160161596096"><ele>214.0</ele><time>2026-04-11T13:39:24Z</time></trkpt><trkpt lat="40.32040099422265" lon="9.435416981612196"><ele>214.0</ele><time>2026-04-11T13:39:25Z</time></trkpt><trkpt lat="40.32054918728719" lon="9.435670251377994"><ele>216.5</ele><time>2026-04-11T13:39:26Z</time></trkpt><trkpt lat="40.320695213061065" lon="9.43592093664454"><ele>219.0</ele><time>2026-04-11T13:39:27Z</time></trkpt><trkpt lat="40.320823741910615" lon="9.436192148012495"><ele>217.5</ele><time>2026-04-11T13:39:28Z</time></trkpt><trkpt lat="40.32096998110081" lon="9.436445216396447"><ele>216.0</ele><time>2026-04-11T13:39:29Z</time></trkpt><trkpt lat="40.32111549363818" lon="9.436696844030708"><ele>216.0</ele><time>2026-04-11T13:39:30Z</time></trkpt><trkpt lat="40.32125820618216" lon="9.436943629863487"><ele>216.0</ele><time>2026-04-11T13:39:31Z</time></trkpt><trkpt lat="40.321397289391705" lon="9.437184322930538"><ele>218.0</ele><time>2026-04-11T13:39:32Z</time></trkpt><trkpt lat="40.32153488054701" lon="9.437421869552788"><ele>220.0</ele><time>2026-04-11T13:39:33Z</time></trkpt><trkpt lat="40.321691678653615" lon="9.437633798131973"><ele>220.0</ele><time>2026-04-11T13:39:34Z</time></trkpt><trkpt lat="40.3218587486269" lon="9.437829490259226"><ele>220.0</ele><time>2026-04-11T13:39:35Z</time></trkpt><trkpt lat="40.3220442612774" lon="9.43799753837896"><ele>220.0</ele><time>2026-04-11T13:39:36Z</time></trkpt><trkpt lat="40.322204223709065" lon="9.438199622930076"><ele>221.0</ele><time>2026-04-11T13:39:37Z</time></trkpt><trkpt lat="40.322356103366886" lon="9.438412230257597"><ele>222.0</ele><time>2026-04-11T13:39:38Z</time></trkpt><trkpt lat="40.3224940900784" lon="9.438635141445923"><ele>223.0</ele><time>2026-04-11T13:39:39Z</time></trkpt><trkpt lat="40.322635032471446" lon="9.438843515613238"><ele>223.0</ele><time>2026-04-11T13:39:40Z</time></trkpt><trkpt lat="40.32275947864652" lon="9.439053923817763"><ele>223.0</ele><time>2026-04-11T13:39:41Z</time></trkpt><trkpt lat="40.32289437829494" lon="9.439235302128173"><ele>223.0</ele><time>2026-04-11T13:39:42Z</time></trkpt><trkpt lat="40.32305419196817" lon="9.439356067328807"><ele>223.66666666666666</ele><time>2026-04-11T13:39:43Z</time></trkpt><trkpt lat="40.323233833724935" lon="9.439426381823141"><ele>224.33333333333331</ele><time>2026-04-11T13:39:44Z</time></trkpt><trkpt lat="40.3234076546563" lon="9.439541108523505"><ele>225.0</ele><time>2026-04-11T13:39:45Z</time></trkpt><trkpt lat="40.3235594972121" lon="9.439684051235478"><ele>225.0</ele><time>2026-04-11T13:39:46Z</time></trkpt><trkpt lat="40.32368911376803" lon="9.43988017511039"><ele>225.0</ele><time>2026-04-11T13:39:47Z</time></trkpt><trkpt lat="40.32382361378186" lon="9.440094866115215"><ele>225.0</ele><time>2026-04-11T13:39:48Z</time></trkpt><trkpt lat="40.323938691766315" lon="9.440331961159155"><ele>226.33333333333331</ele><time>2026-04-11T13:39:49Z</time></trkpt><trkpt lat="40.324045736975684" lon="9.44058008785098"><ele>227.66666666666666</ele><time>2026-04-11T13:39:50Z</time></trkpt><trkpt lat="40.32408032875477" lon="9.440852566304166"><ele>229.0</ele><time>2026-04-11T13:39:51Z</time></trkpt><trkpt lat="40.32412358120255" lon="9.441130826477266"><ele>228.66666666666666</ele><time>2026-04-11T13:39:52Z</time></trkpt><trkpt lat="40.32416518659799" lon="9.441411301493796"><ele>228.33333333333331</ele><time>2026-04-11T13:39:53Z</time></trkpt><trkpt lat="40.32420211457975" lon="9.441701351625948"><ele>228.0</ele><time>2026-04-11T13:39:54Z</time></trkpt><trkpt lat="40.324238785806074" lon="9.44198938510577"><ele>229.0</ele><time>2026-04-11T13:39:55Z</time></trkpt><trkpt lat="40.32427069153838" lon="9.442279372595221"><ele>230.0</ele><time>2026-04-11T13:39:56Z</time></trkpt><trkpt lat="40.32429139081495" lon="9.442571307785919"><ele>231.0</ele><time>2026-04-11T13:39:57Z</time></trkpt><trkpt lat="40.324298840241866" lon="9.442861635314706"><ele>232.5</ele><time>2026-04-11T13:39:58Z</time></trkpt><trkpt lat="40.32430203059814" lon="9.443155566418497"><ele>234.0</ele><time>2026-04-11T13:39:59Z</time></trkpt><trkpt lat="40.32430488065234" lon="9.44345125979415"><ele>234.0</ele><time>2026-04-11T13:40:00Z</time></trkpt><trkpt lat="40.32430664100441" lon="9.44374603322329"><ele>234.0</ele><time>2026-04-11T13:40:01Z</time></trkpt><trkpt lat="40.3243087684818" lon="9.44404360526938"><ele>235.5</ele><time>2026-04-11T13:40:02Z</time></trkpt><trkpt lat="40.32431127656478" lon="9.444343714361137"><ele>237.0</ele><time>2026-04-11T13:40:03Z</time></trkpt><trkpt lat="40.3243137436563" lon="9.444638918463712"><ele>238.66666666666669</ele><time>2026-04-11T13:40:04Z</time></trkpt><trkpt lat="40.32431620925549" lon="9.444933944061134"><ele>240.33333333333334</ele><time>2026-04-11T13:40:05Z</time></trkpt><trkpt lat="40.32431844624628" lon="9.445213050685473"><ele>242.0</ele><time>2026-04-11T13:40:06Z</time></trkpt><trkpt lat="40.32432038132899" lon="9.445475972449316"><ele>242.0</ele><time>2026-04-11T13:40:07Z</time></trkpt><trkpt lat="40.324318642285995" lon="9.44572756919715"><ele>242.0</ele><time>2026-04-11T13:40:08Z</time></trkpt><trkpt lat="40.32432569427422" lon="9.445978409491495"><ele>242.0</ele><time>2026-04-11T13:40:09Z</time></trkpt><trkpt lat="40.324293650149684" lon="9.446237473697959"><ele>241.0</ele><time>2026-04-11T13:40:10Z</time></trkpt><trkpt lat="40.32424218620394" lon="9.446498333414818"><ele>240.0</ele><time>2026-04-11T13:40:11Z</time></trkpt><trkpt lat="40.324182266917425" lon="9.446767491585955"><ele>239.0</ele><time>2026-04-11T13:40:12Z</time></trkpt><trkpt lat="40.3240999073397" lon="9.447029691400095"><ele>239.0</ele><time>2026-04-11T13:40:13Z</time></trkpt><trkpt lat="40.324027406446824" lon="9.447292423818825"><ele>239.0</ele><time>2026-04-11T13:40:14Z</time></trkpt><trkpt lat="40.32395700730283" lon="9.447563565957955"><ele>239.0</ele><time>2026-04-11T13:40:15Z</time></trkpt><trkpt lat="40.32389229747718" lon="9.447814354187395"><ele>237.0</ele><time>2026-04-11T13:40:16Z</time></trkpt><trkpt lat="40.32382493051664" lon="9.448052922119441"><ele>235.0</ele><time>2026-04-11T13:40:17Z</time></trkpt><trkpt lat="40.323765886192646" lon="9.44828477648658"><ele>233.0</ele><time>2026-04-11T13:40:18Z</time></trkpt><trkpt lat="40.32373236600164" lon="9.448515681421718"><ele>233.0</ele><time>2026-04-11T13:40:19Z</time></trkpt><trkpt lat="40.32374339942951" lon="9.448739557163082"><ele>233.0</ele><time>2026-04-11T13:40:20Z</time></trkpt><trkpt lat="40.32380350735098" lon="9.448948764420047"><ele>233.0</ele><time>2026-04-11T13:40:21Z</time></trkpt><trkpt lat="40.32390443232912" lon="9.449145539062352"><ele>231.0</ele><time>2026-04-11T13:40:22Z</time></trkpt><trkpt lat="40.32402818498371" lon="9.449327577630282"><ele>229.0</ele><time>2026-04-11T13:40:23Z</time></trkpt><trkpt lat="40.32415176143215" lon="9.449510884689115"><ele>227.0</ele><time>2026-04-11T13:40:24Z</time></trkpt><trkpt lat="40.324268182245454" lon="9.449698835367087"><ele>227.0</ele><time>2026-04-11T13:40:25Z</time></trkpt><trkpt lat="40.32437434872254" lon="9.449887272941758"><ele>227.0</ele><time>2026-04-11T13:40:26Z</time></trkpt><trkpt lat="40.32445729137066" lon="9.450090238749572"><ele>227.0</ele><time>2026-04-11T13:40:27Z</time></trkpt><trkpt lat="40.324511823168784" lon="9.450320300841977"><ele>229.33333333333334</ele><time>2026-04-11T13:40:28Z</time></trkpt><trkpt lat="40.3245429885574" lon="9.45056449918696"><ele>231.66666666666669</ele><time>2026-04-11T13:40:29Z</time></trkpt><trkpt lat="40.32455668586936" lon="9.450814544763906"><ele>234.0</ele><time>2026-04-11T13:40:30Z</time></trkpt><trkpt lat="40.32455592088823" lon="9.45106877590258"><ele>232.33333333333331</ele><time>2026-04-11T13:40:31Z</time></trkpt><trkpt lat="40.32454149142145" lon="9.45132989330521"><ele>230.66666666666666</ele><time>2026-04-11T13:40:32Z</time></trkpt><trkpt lat="40.32451366733344" lon="9.451595923750286"><ele>229.0</ele><time>2026-04-11T13:40:33Z</time></trkpt><trkpt lat="40.32447301523705" lon="9.451862604310577"><ele>226.0</ele><time>2026-04-11T13:40:34Z</time></trkpt><trkpt lat="40.32442809529304" lon="9.452130105744752"><ele>223.0</ele><time>2026-04-11T13:40:35Z</time></trkpt><trkpt lat="40.3243839816265" lon="9.45240361768993"><ele>220.0</ele><time>2026-04-11T13:40:36Z</time></trkpt><trkpt lat="40.32434833446636" lon="9.452682391484403"><ele>219.0</ele><time>2026-04-11T13:40:37Z</time></trkpt><trkpt lat="40.3243238655368" lon="9.45296789716951"><ele>218.0</ele><time>2026-04-11T13:40:38Z</time></trkpt><trkpt lat="40.32430586886424" lon="9.453258415649287"><ele>217.0</ele><time>2026-04-11T13:40:39Z</time></trkpt><trkpt lat="40.32429162165286" lon="9.453553157334023"><ele>216.0</ele><time>2026-04-11T13:40:40Z</time></trkpt><trkpt lat="40.32427772221814" lon="9.453847923967462"><ele>215.0</ele><time>2026-04-11T13:40:41Z</time></trkpt><trkpt lat="40.324261657358896" lon="9.454145201159928"><ele>215.0</ele><time>2026-04-11T13:40:42Z</time></trkpt><trkpt lat="40.32424320748397" lon="9.45444273797556"><ele>215.0</ele><time>2026-04-11T13:40:43Z</time></trkpt><trkpt lat="40.32422569870073" lon="9.454739886739807"><ele>213.33333333333334</ele><time>2026-04-11T13:40:44Z</time></trkpt><trkpt lat="40.324213370667" lon="9.455031780492098"><ele>211.66666666666669</ele><time>2026-04-11T13:40:45Z</time></trkpt><trkpt lat="40.324219006053" lon="9.455320595157561"><ele>210.0</ele><time>2026-04-11T13:40:46Z</time></trkpt><trkpt lat="40.324263126676556" lon="9.455610200177002"><ele>207.5</ele><time>2026-04-11T13:40:47Z</time></trkpt><trkpt lat="40.32434751937457" lon="9.455885739212842"><ele>205.0</ele><time>2026-04-11T13:40:48Z</time></trkpt><trkpt lat="40.32443373222931" lon="9.456161492151704"><ele>205.0</ele><time>2026-04-11T13:40:49Z</time></trkpt><trkpt lat="40.32448631026374" lon="9.45644774898"><ele>205.0</ele><time>2026-04-11T13:40:50Z</time></trkpt><trkpt lat="40.32449927171636" lon="9.456741315027449"><ele>205.0</ele><time>2026-04-11T13:40:51Z</time></trkpt><trkpt lat="40.32448764061408" lon="9.457042255624104"><ele>203.5</ele><time>2026-04-11T13:40:52Z</time></trkpt><trkpt lat="40.32447015578664" lon="9.457346787454897"><ele>202.0</ele><time>2026-04-11T13:40:53Z</time></trkpt><trkpt lat="40.32445342486312" lon="9.457654360526039"><ele>203.5</ele><time>2026-04-11T13:40:54Z</time></trkpt><trkpt lat="40.3244325252493" lon="9.457958120005449"><ele>205.0</ele><time>2026-04-11T13:40:55Z</time></trkpt><trkpt lat="40.32440880859127" lon="9.458258330843488"><ele>205.0</ele><time>2026-04-11T13:40:56Z</time></trkpt><trkpt lat="40.324389580263045" lon="9.458558456566474"><ele>205.0</ele><time>2026-04-11T13:40:57Z</time></trkpt><trkpt lat="40.324388767236584" lon="9.458856007439012"><ele>204.5</ele><time>2026-04-11T13:40:58Z</time></trkpt><trkpt lat="40.32441798207546" lon="9.459147595909652"><ele>204.0</ele><time>2026-04-11T13:40:59Z</time></trkpt><trkpt lat="40.324464476326696" lon="9.459437166131885"><ele>203.5</ele><time>2026-04-11T13:41:00Z</time></trkpt><trkpt lat="40.32451228584475" lon="9.45972490489301"><ele>203.0</ele><time>2026-04-11T13:41:01Z</time></trkpt><trkpt lat="40.32455799724312" lon="9.460017745921924"><ele>203.0</ele><time>2026-04-11T13:41:02Z</time></trkpt><trkpt lat="40.32460274738518" lon="9.460312777265957"><ele>203.0</ele><time>2026-04-11T13:41:03Z</time></trkpt><trkpt lat="40.32464493759966" lon="9.460609061401144"><ele>204.0</ele><time>2026-04-11T13:41:04Z</time></trkpt><trkpt lat="40.3246786082626" lon="9.460907199600108"><ele>205.0</ele><time>2026-04-11T13:41:05Z</time></trkpt><trkpt lat="40.32469208904883" lon="9.461199839237953"><ele>204.0</ele><time>2026-04-11T13:41:06Z</time></trkpt><trkpt lat="40.32468872828457" lon="9.461473124232171"><ele>203.0</ele><time>2026-04-11T13:41:07Z</time></trkpt><trkpt lat="40.32469136635232" lon="9.461731582276125"><ele>202.0</ele><time>2026-04-11T13:41:08Z</time></trkpt><trkpt lat="40.324726870666126" lon="9.461962966104789"><ele>199.0</ele><time>2026-04-11T13:41:09Z</time></trkpt><trkpt lat="40.32481310265225" lon="9.4621694699657"><ele>196.0</ele><time>2026-04-11T13:41:10Z</time></trkpt><trkpt lat="40.32493249568156" lon="9.462361349941775"><ele>193.0</ele><time>2026-04-11T13:41:11Z</time></trkpt><trkpt lat="40.32505227147038" lon="9.462560038064463"><ele>193.0</ele><time>2026-04-11T13:41:12Z</time></trkpt><trkpt lat="40.325133410747654" lon="9.46280459196563"><ele>193.0</ele><time>2026-04-11T13:41:13Z</time></trkpt><trkpt lat="40.32519751353998" lon="9.463073272013753"><ele>193.0</ele><time>2026-04-11T13:41:14Z</time></trkpt><trkpt lat="40.32526835054114" lon="9.463349547794671"><ele>194.5</ele><time>2026-04-11T13:41:15Z</time></trkpt><trkpt lat="40.325347087675524" lon="9.463634535397025"><ele>196.0</ele><time>2026-04-11T13:41:16Z</time></trkpt><trkpt lat="40.325424840174556" lon="9.463925866151792"><ele>198.0</ele><time>2026-04-11T13:41:17Z</time></trkpt><trkpt lat="40.32550086590805" lon="9.464220847045375"><ele>200.0</ele><time>2026-04-11T13:41:18Z</time></trkpt><trkpt lat="40.32557821353997" lon="9.464518784010648"><ele>194.0</ele><time>2026-04-11T13:41:19Z</time></trkpt><trkpt lat="40.32565452942979" lon="9.464816706620718"><ele>188.0</ele><time>2026-04-11T13:41:20Z</time></trkpt><trkpt lat="40.32572063733132" lon="9.4651204665605"><ele>188.0</ele><time>2026-04-11T13:41:21Z</time></trkpt><trkpt lat="40.32577073831921" lon="9.465440067136319"><ele>188.0</ele><time>2026-04-11T13:41:22Z</time></trkpt><trkpt lat="40.325804587468284" lon="9.465770813162514"><ele>187.0</ele><time>2026-04-11T13:41:23Z</time></trkpt><trkpt lat="40.325821603531544" lon="9.466105842779035"><ele>186.0</ele><time>2026-04-11T13:41:24Z</time></trkpt><trkpt lat="40.325829458311155" lon="9.466444959396892"><ele>185.5</ele><time>2026-04-11T13:41:25Z</time></trkpt><trkpt lat="40.32583977226061" lon="9.466784619066619"><ele>185.0</ele><time>2026-04-11T13:41:26Z</time></trkpt><trkpt lat="40.325852095557146" lon="9.4671159813847"><ele>185.0</ele><time>2026-04-11T13:41:27Z</time></trkpt><trkpt lat="40.32586462402872" lon="9.467442601463551"><ele>185.0</ele><time>2026-04-11T13:41:28Z</time></trkpt><trkpt lat="40.32587570891244" lon="9.467764260908751"><ele>186.5</ele><time>2026-04-11T13:41:29Z</time></trkpt><trkpt lat="40.325890386895274" lon="9.468069154907427"><ele>188.0</ele><time>2026-04-11T13:41:30Z</time></trkpt><trkpt lat="40.32592938698427" lon="9.468361037734264"><ele>188.0</ele><time>2026-04-11T13:41:31Z</time></trkpt><trkpt lat="40.326007603670256" lon="9.468635820288078"><ele>188.0</ele><time>2026-04-11T13:41:32Z</time></trkpt><trkpt lat="40.32610893347325" lon="9.468880229309436"><ele>188.0</ele><time>2026-04-11T13:41:33Z</time></trkpt><trkpt lat="40.32619562636533" lon="9.46911547975839"><ele>188.66666666666666</ele><time>2026-04-11T13:41:34Z</time></trkpt><trkpt lat="40.326237580249" lon="9.469377910866633"><ele>189.33333333333334</ele><time>2026-04-11T13:41:35Z</time></trkpt><trkpt lat="40.32624918259012" lon="9.469665596370744"><ele>190.0</ele><time>2026-04-11T13:41:36Z</time></trkpt><trkpt lat="40.3262461576521" lon="9.469955087807454"><ele>190.0</ele><time>2026-04-11T13:41:37Z</time></trkpt><trkpt lat="40.326274155094495" lon="9.470236168128164"><ele>190.0</ele><time>2026-04-11T13:41:38Z</time></trkpt><trkpt lat="40.32634709341686" lon="9.470495349811838"><ele>190.0</ele><time>2026-04-11T13:41:39Z</time></trkpt><trkpt lat="40.32641591195463" lon="9.470746582276782"><ele>186.33333333333334</ele><time>2026-04-11T13:41:40Z</time></trkpt><trkpt lat="40.326437564220505" lon="9.470995946993579"><ele>182.66666666666666</ele><time>2026-04-11T13:41:41Z</time></trkpt><trkpt lat="40.32642188144313" lon="9.471238999185664"><ele>179.0</ele><time>2026-04-11T13:41:42Z</time></trkpt><trkpt lat="40.3264104767057" lon="9.471468824160867"><ele>178.0</ele><time>2026-04-11T13:41:43Z</time></trkpt><trkpt lat="40.326448896200716" lon="9.471686124869969"><ele>177.0</ele><time>2026-04-11T13:41:44Z</time></trkpt><trkpt lat="40.32654814427829" lon="9.471886342751908"><ele>176.0</ele><time>2026-04-11T13:41:45Z</time></trkpt><trkpt lat="40.32668186013567" lon="9.47205286859133"><ele>179.66666666666666</ele><time>2026-04-11T13:41:46Z</time></trkpt><trkpt lat="40.32684475467991" lon="9.47219067324253"><ele>183.33333333333334</ele><time>2026-04-11T13:41:47Z</time></trkpt><trkpt lat="40.32700501783614" lon="9.472319646913103"><ele>187.0</ele><time>2026-04-11T13:41:48Z</time></trkpt><trkpt lat="40.32715523084017" lon="9.47244888185354"><ele>183.33333333333334</ele><time>2026-04-11T13:41:49Z</time></trkpt><trkpt lat="40.32730170726271" lon="9.472578861784056"><ele>179.66666666666666</ele><time>2026-04-11T13:41:50Z</time></trkpt><trkpt lat="40.327442206532254" lon="9.472701231731241"><ele>176.0</ele><time>2026-04-11T13:41:51Z</time></trkpt><trkpt lat="40.32758445127927" lon="9.472795691929116"><ele>176.0</ele><time>2026-04-11T13:41:52Z</time></trkpt><trkpt lat="40.32773819469855" lon="9.472835171067695"><ele>176.0</ele><time>2026-04-11T13:41:53Z</time></trkpt><trkpt lat="40.32788735833267" lon="9.472822473625303"><ele>176.0</ele><time>2026-04-11T13:41:54Z</time></trkpt><trkpt lat="40.32802222946088" lon="9.472826049328669"><ele>176.0</ele><time>2026-04-11T13:41:55Z</time></trkpt><trkpt lat="40.32814887566216" lon="9.472882600699869"><ele>176.25</ele><time>2026-04-11T13:41:56Z</time></trkpt><trkpt lat="40.32824343275453" lon="9.47297356122624"><ele>176.5</ele><time>2026-04-11T13:41:57Z</time></trkpt><trkpt lat="40.32833868898916" lon="9.473068407888045"><ele>176.75</ele><time>2026-04-11T13:41:58Z</time></trkpt><trkpt lat="40.328447753233014" lon="9.473148402090233"><ele>177.0</ele><time>2026-04-11T13:41:59Z</time></trkpt><trkpt lat="40.32856140783502" lon="9.473232833254016"><ele>177.0</ele><time>2026-04-11T13:42:00Z</time></trkpt><trkpt lat="40.32867797278486" lon="9.473325697578948"><ele>177.0</ele><time>2026-04-11T13:42:01Z</time></trkpt><trkpt lat="40.32880165861671" lon="9.473417159229559"><ele>177.0</ele><time>2026-04-11T13:42:02Z</time></trkpt><trkpt lat="40.3289317243429" lon="9.473495777631014"><ele>177.0</ele><time>2026-04-11T13:42:03Z</time></trkpt><trkpt lat="40.329090501448086" lon="9.473539822218374"><ele>175.33333333333334</ele><time>2026-04-11T13:42:04Z</time></trkpt><trkpt lat="40.32928069168229" lon="9.47357773569127"><ele>173.66666666666669</ele><time>2026-04-11T13:42:05Z</time></trkpt><trkpt lat="40.32947072518255" lon="9.473629818211176"><ele>172.0</ele><time>2026-04-11T13:42:06Z</time></trkpt><trkpt lat="40.329665075743804" lon="9.47368586485004"><ele>171.33333333333334</ele><time>2026-04-11T13:42:07Z</time></trkpt><trkpt lat="40.32986032795933" lon="9.473752095096613"><ele>170.66666666666666</ele><time>2026-04-11T13:42:08Z</time></trkpt><trkpt lat="40.330050185228394" lon="9.473853603362883"><ele>170.0</ele><time>2026-04-11T13:42:09Z</time></trkpt><trkpt lat="40.330227918842816" lon="9.473996005374714"><ele>170.33333333333331</ele><time>2026-04-11T13:42:10Z</time></trkpt><trkpt lat="40.330403278108626" lon="9.474165273170314"><ele>170.66666666666666</ele><time>2026-04-11T13:42:11Z</time></trkpt><trkpt lat="40.330581393333645" lon="9.474343283861725"><ele>171.0</ele><time>2026-04-11T13:42:12Z</time></trkpt><trkpt lat="40.33076243212218" lon="9.474524723880625"><ele>173.5</ele><time>2026-04-11T13:42:13Z</time></trkpt><trkpt lat="40.33094464283982" lon="9.474708600347512"><ele>176.0</ele><time>2026-04-11T13:42:14Z</time></trkpt><trkpt lat="40.33112577295924" lon="9.47489451799442"><ele>176.0</ele><time>2026-04-11T13:42:15Z</time></trkpt><trkpt lat="40.33130840686501" lon="9.475075872012898"><ele>176.0</ele><time>2026-04-11T13:42:16Z</time></trkpt><trkpt lat="40.33149650733415" lon="9.47523887917272"><ele>175.5</ele><time>2026-04-11T13:42:17Z</time></trkpt><trkpt lat="40.331695062183044" lon="9.475390382565578"><ele>175.0</ele><time>2026-04-11T13:42:18Z</time></trkpt><trkpt lat="40.33189990911658" lon="9.475535162072152"><ele>175.0</ele><time>2026-04-11T13:42:19Z</time></trkpt><trkpt lat="40.332107404812504" lon="9.47567667940445"><ele>175.0</ele><time>2026-04-11T13:42:20Z</time></trkpt><trkpt lat="40.332312717851906" lon="9.475826635476949"><ele>172.0</ele><time>2026-04-11T13:42:21Z</time></trkpt><trkpt lat="40.33251037298566" lon="9.475991522605574"><ele>169.0</ele><time>2026-04-11T13:42:22Z</time></trkpt><trkpt lat="40.33269927749404" lon="9.476175083266714"><ele>169.0</ele><time>2026-04-11T13:42:23Z</time></trkpt><trkpt lat="40.332884040863256" lon="9.476368506006501"><ele>169.0</ele><time>2026-04-11T13:42:24Z</time></trkpt><trkpt lat="40.33307097882103" lon="9.476555065040081"><ele>169.0</ele><time>2026-04-11T13:42:25Z</time></trkpt><trkpt lat="40.33326944207664" lon="9.476726962182457"><ele>169.0</ele><time>2026-04-11T13:42:26Z</time></trkpt><trkpt lat="40.33347433931666" lon="9.47689239176547"><ele>169.0</ele><time>2026-04-11T13:42:27Z</time></trkpt><trkpt lat="40.333683428807625" lon="9.477055620094296"><ele>169.0</ele><time>2026-04-11T13:42:28Z</time></trkpt><trkpt lat="40.33389661600779" lon="9.47721570032473"><ele>169.5</ele><time>2026-04-11T13:42:29Z</time></trkpt><trkpt lat="40.33411516063847" lon="9.47737906352854"><ele>170.0</ele><time>2026-04-11T13:42:30Z</time></trkpt><trkpt lat="40.33433862913494" lon="9.477538976718872"><ele>170.0</ele><time>2026-04-11T13:42:31Z</time></trkpt><trkpt lat="40.33456754698167" lon="9.477685635182779"><ele>170.0</ele><time>2026-04-11T13:42:32Z</time></trkpt><trkpt lat="40.3347998802244" lon="9.477820397040563"><ele>171.5</ele><time>2026-04-11T13:42:33Z</time></trkpt><trkpt lat="40.33503185843204" lon="9.477955549800816"><ele>173.0</ele><time>2026-04-11T13:42:34Z</time></trkpt><trkpt lat="40.3352616885181" lon="9.478100118525248"><ele>173.0</ele><time>2026-04-11T13:42:35Z</time></trkpt><trkpt lat="40.33548401187632" lon="9.478254661555525"><ele>173.0</ele><time>2026-04-11T13:42:36Z</time></trkpt><trkpt lat="40.33569920915503" lon="9.47841439089334"><ele>169.0</ele><time>2026-04-11T13:42:37Z</time></trkpt><trkpt lat="40.33590769619033" lon="9.478575202308404"><ele>165.0</ele><time>2026-04-11T13:42:38Z</time></trkpt><trkpt lat="40.336101034152264" lon="9.478734555100166"><ele>164.0</ele><time>2026-04-11T13:42:39Z</time></trkpt><trkpt lat="40.336266724409626" lon="9.478916229252533"><ele>163.0</ele><time>2026-04-11T13:42:40Z</time></trkpt><trkpt lat="40.336409930060974" lon="9.479139777573014"><ele>162.0</ele><time>2026-04-11T13:42:41Z</time></trkpt><trkpt lat="40.336551139902916" lon="9.479384481255913"><ele>163.66666666666666</ele><time>2026-04-11T13:42:42Z</time></trkpt><trkpt lat="40.336696295284156" lon="9.47962103843226"><ele>165.33333333333331</ele><time>2026-04-11T13:42:43Z</time></trkpt><trkpt lat="40.336828082363354" lon="9.479845096599497"><ele>167.0</ele><time>2026-04-11T13:42:44Z</time></trkpt><trkpt lat="40.33695170580428" lon="9.480050793748777"><ele>167.0</ele><time>2026-04-11T13:42:45Z</time></trkpt><trkpt lat="40.33707115117929" lon="9.480220767552616"><ele>167.0</ele><time>2026-04-11T13:42:46Z</time></trkpt><trkpt lat="40.33719731617232" lon="9.480340314300886"><ele>167.0</ele><time>2026-04-11T13:42:47Z</time></trkpt><trkpt lat="40.33732964286121" lon="9.480381658713037"><ele>165.75</ele><time>2026-04-11T13:42:48Z</time></trkpt><trkpt lat="40.337474015659765" lon="9.480348003381774"><ele>164.5</ele><time>2026-04-11T13:42:49Z</time></trkpt><trkpt lat="40.33762164226124" lon="9.480282205915808"><ele>163.25</ele><time>2026-04-11T13:42:50Z</time></trkpt><trkpt lat="40.33776361109984" lon="9.480269027893419"><ele>162.0</ele><time>2026-04-11T13:42:51Z</time></trkpt><trkpt lat="40.337898565588915" lon="9.480311949595547"><ele>162.0</ele><time>2026-04-11T13:42:52Z</time></trkpt><trkpt lat="40.33802004203485" lon="9.480412428620774"><ele>162.0</ele><time>2026-04-11T13:42:53Z</time></trkpt><trkpt lat="40.33810863943204" lon="9.48056525680756"><ele>162.0</ele><time>2026-04-11T13:42:54Z</time></trkpt><trkpt lat="40.3381732282787" lon="9.480757308677173"><ele>162.66666666666666</ele><time>2026-04-11T13:42:55Z</time></trkpt><trkpt lat="40.33824564334564" lon="9.480967555069173"><ele>163.33333333333331</ele><time>2026-04-11T13:42:56Z</time></trkpt><trkpt lat="40.338330017397595" lon="9.48118935835329"><ele>164.0</ele><time>2026-04-11T13:42:57Z</time></trkpt><trkpt lat="40.33842505395727" lon="9.481428040329371"><ele>164.0</ele><time>2026-04-11T13:42:58Z</time></trkpt><trkpt lat="40.33852001947378" lon="9.481683370525525"><ele>164.0</ele><time>2026-04-11T13:42:59Z</time></trkpt><trkpt lat="40.33861718357956" lon="9.481952275779674"><ele>164.0</ele><time>2026-04-11T13:43:00Z</time></trkpt><trkpt lat="40.338717457161806" lon="9.482226337385336"><ele>163.5</ele><time>2026-04-11T13:43:01Z</time></trkpt><trkpt lat="40.33881774371476" lon="9.482494353246588"><ele>163.0</ele><time>2026-04-11T13:43:02Z</time></trkpt><trkpt lat="40.338919413376225" lon="9.482762499993042"><ele>163.0</ele><time>2026-04-11T13:43:03Z</time></trkpt><trkpt lat="40.339015546689986" lon="9.48302312860992"><ele>163.0</ele><time>2026-04-11T13:43:04Z</time></trkpt><trkpt lat="40.3391088724063" lon="9.483274171904977"><ele>163.0</ele><time>2026-04-11T13:43:05Z</time></trkpt><trkpt lat="40.33919782112384" lon="9.483519782527457"><ele>163.0</ele><time>2026-04-11T13:43:06Z</time></trkpt><trkpt lat="40.339282366988" lon="9.483761583047814"><ele>163.0</ele><time>2026-04-11T13:43:07Z</time></trkpt><trkpt lat="40.33935459018914" lon="9.483999968020553"><ele>163.0</ele><time>2026-04-11T13:43:08Z</time></trkpt><trkpt lat="40.339404211859744" lon="9.484247617424176"><ele>162.66666666666669</ele><time>2026-04-11T13:43:09Z</time></trkpt><trkpt lat="40.33943238838203" lon="9.484519109988833"><ele>162.33333333333334</ele><time>2026-04-11T13:43:10Z</time></trkpt><trkpt lat="40.33944821805496" lon="9.484808513399935"><ele>162.0</ele><time>2026-04-11T13:43:11Z</time></trkpt><trkpt lat="40.33946117521779" lon="9.485111120828382"><ele>161.5</ele><time>2026-04-11T13:43:12Z</time></trkpt><trkpt lat="40.33946885206272" lon="9.485425845765787"><ele>161.0</ele><time>2026-04-11T13:43:13Z</time></trkpt><trkpt lat="40.33947743191403" lon="9.485752688677008"><ele>159.5</ele><time>2026-04-11T13:43:14Z</time></trkpt><trkpt lat="40.339490991898074" lon="9.486085744095226"><ele>158.0</ele><time>2026-04-11T13:43:15Z</time></trkpt><trkpt lat="40.33950295020799" lon="9.486430387366454"><ele>157.5</ele><time>2026-04-11T13:43:16Z</time></trkpt><trkpt lat="40.33951520720302" lon="9.486779735009648"><ele>157.0</ele><time>2026-04-11T13:43:17Z</time></trkpt><trkpt lat="40.33951165588338" lon="9.487141127673368"><ele>157.0</ele><time>2026-04-11T13:43:18Z</time></trkpt><trkpt lat="40.339524230611296" lon="9.487512361259473"><ele>157.0</ele><time>2026-04-11T13:43:19Z</time></trkpt><trkpt lat="40.33953664876799" lon="9.487878972494284"><ele>157.5</ele><time>2026-04-11T13:43:20Z</time></trkpt><trkpt lat="40.339548790110406" lon="9.48823741157548"><ele>158.0</ele><time>2026-04-11T13:43:21Z</time></trkpt><trkpt lat="40.33956078797889" lon="9.488591614981386"><ele>158.0</ele><time>2026-04-11T13:43:22Z</time></trkpt><trkpt lat="40.3395728109304" lon="9.488946558895337"><ele>158.0</ele><time>2026-04-11T13:43:23Z</time></trkpt><trkpt lat="40.339585601993626" lon="9.489309788470795"><ele>157.0</ele><time>2026-04-11T13:43:24Z</time></trkpt><trkpt lat="40.33959864221044" lon="9.489675507278921"><ele>156.0</ele><time>2026-04-11T13:43:25Z</time></trkpt><trkpt lat="40.3396114122965" lon="9.490033650167007"><ele>156.0</ele><time>2026-04-11T13:43:26Z</time></trkpt><trkpt lat="40.3396236906983" lon="9.49037800354412"><ele>156.0</ele><time>2026-04-11T13:43:27Z</time></trkpt><trkpt lat="40.339635755623554" lon="9.49071636986144"><ele>156.0</ele><time>2026-04-11T13:43:28Z</time></trkpt><trkpt lat="40.33966169308094" lon="9.491030145208054"><ele>156.0</ele><time>2026-04-11T13:43:29Z</time></trkpt><trkpt lat="40.33967173532863" lon="9.491322435656443"><ele>156.0</ele><time>2026-04-11T13:43:30Z</time></trkpt><trkpt lat="40.339687581769105" lon="9.491598490666519"><ele>156.0</ele><time>2026-04-11T13:43:31Z</time></trkpt><trkpt lat="40.339726691328" lon="9.491836286949415"><ele>156.0</ele><time>2026-04-11T13:43:32Z</time></trkpt><trkpt lat="40.33980830334816" lon="9.492019835463715"><ele>156.33333333333334</ele><time>2026-04-11T13:43:33Z</time></trkpt><trkpt lat="40.339921507207855" lon="9.492188646659594"><ele>156.66666666666669</ele><time>2026-04-11T13:43:34Z</time></trkpt><trkpt lat="40.3401076850296" lon="9.49225517734452"><ele>157.0</ele><time>2026-04-11T13:43:35Z</time></trkpt><trkpt lat="40.3402943294569" lon="9.492341994002537"><ele>157.0</ele><time>2026-04-11T13:43:36Z</time></trkpt><trkpt lat="40.3404883063021" lon="9.4924158703246"><ele>157.0</ele><time>2026-04-11T13:43:37Z</time></trkpt><trkpt lat="40.34067486726069" lon="9.492515153769483"><ele>157.0</ele><time>2026-04-11T13:43:38Z</time></trkpt><trkpt lat="40.34084710289346" lon="9.4926564091504"><ele>157.66666666666669</ele><time>2026-04-11T13:43:39Z</time></trkpt><trkpt lat="40.34100836947713" lon="9.492819033239092"><ele>158.33333333333334</ele><time>2026-04-11T13:43:40Z</time></trkpt><trkpt lat="40.34114278695233" lon="9.49303024778581"><ele>159.0</ele><time>2026-04-11T13:43:41Z</time></trkpt><trkpt lat="40.341267845826025" lon="9.493268351093098"><ele>159.0</ele><time>2026-04-11T13:43:42Z</time></trkpt><trkpt lat="40.3413846182627" lon="9.493529916238714"><ele>159.0</ele><time>2026-04-11T13:43:43Z</time></trkpt><trkpt lat="40.34150331166973" lon="9.49379891131428"><ele>159.0</ele><time>2026-04-11T13:43:44Z</time></trkpt><trkpt lat="40.34161988006481" lon="9.494063090470991"><ele>159.0</ele><time>2026-04-11T13:43:45Z</time></trkpt><trkpt lat="40.3417337643351" lon="9.49432226400814"><ele>158.5</ele><time>2026-04-11T13:43:46Z</time></trkpt><trkpt lat="40.341841741143334" lon="9.494589235493814"><ele>158.0</ele><time>2026-04-11T13:43:47Z</time></trkpt><trkpt lat="40.34192948865466" lon="9.494856792391015"><ele>158.0</ele><time>2026-04-11T13:43:48Z</time></trkpt><trkpt lat="40.34200073863842" lon="9.495115978557136"><ele>158.0</ele><time>2026-04-11T13:43:49Z</time></trkpt><trkpt lat="40.34201121987674" lon="9.495387390793164"><ele>158.0</ele><time>2026-04-11T13:43:50Z</time></trkpt><trkpt lat="40.34203355757098" lon="9.495638212624012"><ele>158.33333333333331</ele><time>2026-04-11T13:43:51Z</time></trkpt><trkpt lat="40.3420342268094" lon="9.495873036076674"><ele>158.66666666666666</ele><time>2026-04-11T13:43:52Z</time></trkpt><trkpt lat="40.342049259912955" lon="9.496090364784989"><ele>159.0</ele><time>2026-04-11T13:43:53Z</time></trkpt><trkpt lat="40.34210917053734" lon="9.496286133123029"><ele>160.33333333333334</ele><time>2026-04-11T13:43:54Z</time></trkpt><trkpt lat="40.342227906441956" lon="9.496464959873801"><ele>161.66666666666669</ele><time>2026-04-11T13:43:55Z</time></trkpt><trkpt lat="40.34236180560311" lon="9.496651667793927"><ele>163.0</ele><time>2026-04-11T13:43:56Z</time></trkpt><trkpt lat="40.34246324244498" lon="9.496878995169961"><ele>165.33333333333334</ele><time>2026-04-11T13:43:57Z</time></trkpt><trkpt lat="40.3425647202039" lon="9.497112441547186"><ele>167.66666666666666</ele><time>2026-04-11T13:43:58Z</time></trkpt><trkpt lat="40.342667511164485" lon="9.497352138226823"><ele>170.0</ele><time>2026-04-11T13:43:59Z</time></trkpt><trkpt lat="40.34277076750109" lon="9.497592910324823"><ele>170.0</ele><time>2026-04-11T13:44:00Z</time></trkpt><trkpt lat="40.34286767495541" lon="9.497821180893421"><ele>170.0</ele><time>2026-04-11T13:44:01Z</time></trkpt><trkpt lat="40.34294651047137" lon="9.498050805680634"><ele>170.0</ele><time>2026-04-11T13:44:02Z</time></trkpt><trkpt lat="40.34300605817078" lon="9.498286784452988"><ele>171.66666666666666</ele><time>2026-04-11T13:44:03Z</time></trkpt><trkpt lat="40.3430127079518" lon="9.498551559132759"><ele>173.33333333333334</ele><time>2026-04-11T13:44:04Z</time></trkpt><trkpt lat="40.342993554126394" lon="9.498832413329845"><ele>175.0</ele><time>2026-04-11T13:44:05Z</time></trkpt><trkpt lat="40.342976473151836" lon="9.499116500725865"><ele>176.0</ele><time>2026-04-11T13:44:06Z</time></trkpt><trkpt lat="40.34295770224092" lon="9.499399033982508"><ele>177.0</ele><time>2026-04-11T13:44:07Z</time></trkpt><trkpt lat="40.34294053215821" lon="9.499681191705651"><ele>178.0</ele><time>2026-04-11T13:44:08Z</time></trkpt><trkpt lat="40.34294223604444" lon="9.499940974323719"><ele>178.66666666666669</ele><time>2026-04-11T13:44:09Z</time></trkpt><trkpt lat="40.34298702094449" lon="9.500172637831177"><ele>179.33333333333334</ele><time>2026-04-11T13:44:10Z</time></trkpt><trkpt lat="40.34308486209521" lon="9.500361997129101"><ele>180.0</ele><time>2026-04-11T13:44:11Z</time></trkpt><trkpt lat="40.3432267876226" lon="9.500511442517464"><ele>176.33333333333334</ele><time>2026-04-11T13:44:12Z</time></trkpt><trkpt lat="40.34337514607526" lon="9.500644593611845"><ele>172.66666666666669</ele><time>2026-04-11T13:44:13Z</time></trkpt><trkpt lat="40.343493316063054" lon="9.500791871616753"><ele>169.0</ele><time>2026-04-11T13:44:14Z</time></trkpt><trkpt lat="40.34358084364386" lon="9.500981465503477"><ele>169.0</ele><time>2026-04-11T13:44:15Z</time></trkpt><trkpt lat="40.34363877409859" lon="9.501218163444241"><ele>169.0</ele><time>2026-04-11T13:44:16Z</time></trkpt><trkpt lat="40.34368947251607" lon="9.501474527911276"><ele>169.0</ele><time>2026-04-11T13:44:17Z</time></trkpt><trkpt lat="40.343751308929974" lon="9.501742603968522"><ele>174.5</ele><time>2026-04-11T13:44:18Z</time></trkpt><trkpt lat="40.343784262425295" lon="9.502034264003479"><ele>180.0</ele><time>2026-04-11T13:44:19Z</time></trkpt><trkpt lat="40.34378628274106" lon="9.502333851632727"><ele>181.5</ele><time>2026-04-11T13:44:20Z</time></trkpt><trkpt lat="40.3438104208301" lon="9.502627635748915"><ele>183.0</ele><time>2026-04-11T13:44:21Z</time></trkpt><trkpt lat="40.34387307213176" lon="9.502912099915985"><ele>180.33333333333334</ele><time>2026-04-11T13:44:22Z</time></trkpt><trkpt lat="40.34396737463245" lon="9.503176372370065"><ele>177.66666666666669</ele><time>2026-04-11T13:44:23Z</time></trkpt><trkpt lat="40.344024990571825" lon="9.503453550853633"><ele>175.0</ele><time>2026-04-11T13:44:24Z</time></trkpt><trkpt lat="40.34404949237631" lon="9.50375026479415"><ele>175.0</ele><time>2026-04-11T13:44:25Z</time></trkpt><trkpt lat="40.34413103860773" lon="9.504017201373498"><ele>175.0</ele><time>2026-04-11T13:44:26Z</time></trkpt><trkpt lat="40.344148349378294" lon="9.504341463765918"><ele>175.0</ele><time>2026-04-11T13:44:27Z</time></trkpt><trkpt lat="40.344229393614384" lon="9.504640140655479"><ele>175.0</ele><time>2026-04-11T13:44:28Z</time></trkpt><trkpt lat="40.344309079837736" lon="9.504936031761003"><ele>175.0</ele><time>2026-04-11T13:44:29Z</time></trkpt><trkpt lat="40.34438660137461" lon="9.505229524091641"><ele>175.0</ele><time>2026-04-11T13:44:30Z</time></trkpt><trkpt lat="40.344463849923955" lon="9.50552212272576"><ele>176.5</ele><time>2026-04-11T13:44:31Z</time></trkpt><trkpt lat="40.34453938056915" lon="9.50581101355134"><ele>178.0</ele><time>2026-04-11T13:44:32Z</time></trkpt><trkpt lat="40.34461220611072" lon="9.506092853922492"><ele>178.33333333333334</ele><time>2026-04-11T13:44:33Z</time></trkpt><trkpt lat="40.34468122804571" lon="9.506362822355443"><ele>178.66666666666666</ele><time>2026-04-11T13:44:34Z</time></trkpt><trkpt lat="40.344741795142426" lon="9.506612318545383"><ele>179.0</ele><time>2026-04-11T13:44:35Z</time></trkpt><trkpt lat="40.344799344492685" lon="9.506838325798636"><ele>179.0</ele><time>2026-04-11T13:44:36Z</time></trkpt><trkpt lat="40.344876045620055" lon="9.507027856966163"><ele>179.0</ele><time>2026-04-11T13:44:37Z</time></trkpt><trkpt lat="40.34499066084057" lon="9.507166622455422"><ele>179.0</ele><time>2026-04-11T13:44:38Z</time></trkpt><trkpt lat="40.34513962671275" lon="9.507263790549315"><ele>179.0</ele><time>2026-04-11T13:44:39Z</time></trkpt><trkpt lat="40.3452898611385" lon="9.50733293884301"><ele>179.0</ele><time>2026-04-11T13:44:40Z</time></trkpt><trkpt lat="40.345440535558346" lon="9.507401291625968"><ele>179.0</ele><time>2026-04-11T13:44:41Z</time></trkpt><trkpt lat="40.34558498405317" lon="9.507503215376287"><ele>179.66666666666666</ele><time>2026-04-11T13:44:42Z</time></trkpt><trkpt lat="40.34571646812128" lon="9.507648370986582"><ele>180.33333333333334</ele><time>2026-04-11T13:44:43Z</time></trkpt><trkpt lat="40.34584126296644" lon="9.507817466205674"><ele>181.0</ele><time>2026-04-11T13:44:44Z</time></trkpt><trkpt lat="40.34596638565824" lon="9.507993794078203"><ele>181.0</ele><time>2026-04-11T13:44:45Z</time></trkpt><trkpt lat="40.34609270712324" lon="9.508170799321444"><ele>181.0</ele><time>2026-04-11T13:44:46Z</time></trkpt><trkpt lat="40.34621549059807" lon="9.508343254008624"><ele>181.0</ele><time>2026-04-11T13:44:47Z</time></trkpt><trkpt lat="40.34632229637178" lon="9.50849681611763"><ele>180.25</ele><time>2026-04-11T13:44:48Z</time></trkpt><trkpt lat="40.346407554487" lon="9.508641754007035"><ele>179.5</ele><time>2026-04-11T13:44:49Z</time></trkpt><trkpt lat="40.34645801170984" lon="9.50878730298838"><ele>178.75</ele><time>2026-04-11T13:44:50Z</time></trkpt><trkpt lat="40.346469466075206" lon="9.50894546666942"><ele>178.0</ele><time>2026-04-11T13:44:51Z</time></trkpt><trkpt lat="40.346461851107435" lon="9.509108612244034"><ele>178.0</ele><time>2026-04-11T13:44:52Z</time></trkpt><trkpt lat="40.346429715763094" lon="9.50926794017371"><ele>178.0</ele><time>2026-04-11T13:44:53Z</time></trkpt><trkpt lat="40.34636488571204" lon="9.50941843481095"><ele>178.0</ele><time>2026-04-11T13:44:54Z</time></trkpt><trkpt lat="40.34627156943619" lon="9.50955953596176"><ele>178.0</ele><time>2026-04-11T13:44:55Z</time></trkpt><trkpt lat="40.34617481023095" lon="9.509710672692039"><ele>181.0</ele><time>2026-04-11T13:44:56Z</time></trkpt><trkpt lat="40.34607620990857" lon="9.50987872547182"><ele>184.0</ele><time>2026-04-11T13:44:57Z</time></trkpt><trkpt lat="40.34597118696919" lon="9.510055551064902"><ele>187.0</ele><time>2026-04-11T13:44:58Z</time></trkpt><trkpt lat="40.345863442135226" lon="9.510239333049167"><ele>187.33333333333334</ele><time>2026-04-11T13:44:59Z</time></trkpt><trkpt lat="40.345759652908114" lon="9.510444889992987"><ele>187.66666666666666</ele><time>2026-04-11T13:45:00Z</time></trkpt><trkpt lat="40.34566619165737" lon="9.510663601718734"><ele>188.0</ele><time>2026-04-11T13:45:01Z</time></trkpt><trkpt lat="40.34557819789534" lon="9.510894743348148"><ele>189.33333333333331</ele><time>2026-04-11T13:45:02Z</time></trkpt><trkpt lat="40.34548999043609" lon="9.511127544570547"><ele>190.66666666666666</ele><time>2026-04-11T13:45:03Z</time></trkpt><trkpt lat="40.34539978013088" lon="9.511357266576775"><ele>192.0</ele><time>2026-04-11T13:45:04Z</time></trkpt><trkpt lat="40.34530763440804" lon="9.511580250926684"><ele>192.0</ele><time>2026-04-11T13:45:05Z</time></trkpt><trkpt lat="40.345209296989026" lon="9.511806504586973"><ele>192.0</ele><time>2026-04-11T13:45:06Z</time></trkpt><trkpt lat="40.34509975433486" lon="9.512029907273108"><ele>192.0</ele><time>2026-04-11T13:45:07Z</time></trkpt><trkpt lat="40.34496590065284" lon="9.512237643504976"><ele>192.66666666666669</ele><time>2026-04-11T13:45:08Z</time></trkpt><trkpt lat="40.34480975559708" lon="9.512426079063088"><ele>193.33333333333334</ele><time>2026-04-11T13:45:09Z</time></trkpt><trkpt lat="40.34464617805577" lon="9.512616814247796"><ele>194.0</ele><time>2026-04-11T13:45:10Z</time></trkpt><trkpt lat="40.344485450304596" lon="9.512809470016723"><ele>194.66666666666669</ele><time>2026-04-11T13:45:11Z</time></trkpt><trkpt lat="40.34433507185538" lon="9.512995094230618"><ele>195.33333333333331</ele><time>2026-04-11T13:45:12Z</time></trkpt><trkpt lat="40.344205651930146" lon="9.513189901655453"><ele>196.0</ele><time>2026-04-11T13:45:13Z</time></trkpt><trkpt lat="40.34410408894265" lon="9.513411310770541"><ele>196.0</ele><time>2026-04-11T13:45:14Z</time></trkpt><trkpt lat="40.34403148172352" lon="9.51366054870641"><ele>196.0</ele><time>2026-04-11T13:45:15Z</time></trkpt><trkpt lat="40.34398987960252" lon="9.513919551284554"><ele>196.0</ele><time>2026-04-11T13:45:16Z</time></trkpt><trkpt lat="40.34398639198768" lon="9.514184102972393"><ele>196.0</ele><time>2026-04-11T13:45:17Z</time></trkpt><trkpt lat="40.344023840698846" lon="9.51445965821344"><ele>196.0</ele><time>2026-04-11T13:45:18Z</time></trkpt><trkpt lat="40.34409087870329" lon="9.5147358233147"><ele>196.0</ele><time>2026-04-11T13:45:19Z</time></trkpt><trkpt lat="40.34416517968044" lon="9.515015855677921"><ele>196.0</ele><time>2026-04-11T13:45:20Z</time></trkpt><trkpt lat="40.34420613509876" lon="9.515291830488856"><ele>196.0</ele><time>2026-04-11T13:45:21Z</time></trkpt><trkpt lat="40.34426800343307" lon="9.515566901148693"><ele>196.0</ele><time>2026-04-11T13:45:22Z</time></trkpt><trkpt lat="40.344328676202565" lon="9.515837386960879"><ele>196.0</ele><time>2026-04-11T13:45:23Z</time></trkpt><trkpt lat="40.344394893228426" lon="9.516092217437098"><ele>196.0</ele><time>2026-04-11T13:45:24Z</time></trkpt><trkpt lat="40.344423356139835" lon="9.516355373781492"><ele>196.0</ele><time>2026-04-11T13:45:25Z</time></trkpt><trkpt lat="40.344423647186765" lon="9.51661218245227"><ele>196.0</ele><time>2026-04-11T13:45:26Z</time></trkpt><trkpt lat="40.344390488506214" lon="9.51685884367378"><ele>196.0</ele><time>2026-04-11T13:45:27Z</time></trkpt><trkpt lat="40.344318059584964" lon="9.517080297433367"><ele>196.0</ele><time>2026-04-11T13:45:28Z</time></trkpt><trkpt lat="40.34421738163676" lon="9.517285429696871"><ele>195.66666666666666</ele><time>2026-04-11T13:45:29Z</time></trkpt><trkpt lat="40.34409558214981" lon="9.517483087707594"><ele>195.33333333333331</ele><time>2026-04-11T13:45:30Z</time></trkpt><trkpt lat="40.343940967887086" lon="9.517664924089994"><ele>195.0</ele><time>2026-04-11T13:45:31Z</time></trkpt><trkpt lat="40.343782474453" lon="9.5178638413706"><ele>194.5</ele><time>2026-04-11T13:45:32Z</time></trkpt><trkpt lat="40.34362080735832" lon="9.518068280735726"><ele>194.0</ele><time>2026-04-11T13:45:33Z</time></trkpt><trkpt lat="40.34345540113392" lon="9.518275189250495"><ele>194.0</ele><time>2026-04-11T13:45:34Z</time></trkpt><trkpt lat="40.34328911640197" lon="9.518483025316812"><ele>194.0</ele><time>2026-04-11T13:45:35Z</time></trkpt><trkpt lat="40.343136532547604" lon="9.51869585068415"><ele>193.66666666666669</ele><time>2026-04-11T13:45:36Z</time></trkpt><trkpt lat="40.34297702683394" lon="9.518888155970181"><ele>193.33333333333331</ele><time>2026-04-11T13:45:37Z</time></trkpt><trkpt lat="40.342814706676535" lon="9.519088274571992"><ele>193.0</ele><time>2026-04-11T13:45:38Z</time></trkpt><trkpt lat="40.34265204486158" lon="9.519289389343319"><ele>193.0</ele><time>2026-04-11T13:45:39Z</time></trkpt><trkpt lat="40.34248798115198" lon="9.519494924191699"><ele>193.0</ele><time>2026-04-11T13:45:40Z</time></trkpt><trkpt lat="40.34232203364549" lon="9.51969831982095"><ele>193.0</ele><time>2026-04-11T13:45:41Z</time></trkpt><trkpt lat="40.342146904586556" lon="9.519901161431278"><ele>193.0</ele><time>2026-04-11T13:45:42Z</time></trkpt><trkpt lat="40.34195803895284" lon="9.520097590683449"><ele>193.0</ele><time>2026-04-11T13:45:43Z</time></trkpt><trkpt lat="40.34176834425484" lon="9.520280608916025"><ele>193.0</ele><time>2026-04-11T13:45:44Z</time></trkpt><trkpt lat="40.3415670745227" lon="9.520465068531545"><ele>191.5</ele><time>2026-04-11T13:45:45Z</time></trkpt><trkpt lat="40.3413574393875" lon="9.52064561510138"><ele>190.0</ele><time>2026-04-11T13:45:46Z</time></trkpt><trkpt lat="40.34114170652181" lon="9.520824028335097"><ele>190.0</ele><time>2026-04-11T13:45:47Z</time></trkpt><trkpt lat="40.34093533372449" lon="9.52099920698036"><ele>190.0</ele><time>2026-04-11T13:45:48Z</time></trkpt><trkpt lat="40.340725274109" lon="9.521177995133952"><ele>191.0</ele><time>2026-04-11T13:45:49Z</time></trkpt><trkpt lat="40.340507732000965" lon="9.521364342322805"><ele>192.0</ele><time>2026-04-11T13:45:50Z</time></trkpt><trkpt lat="40.34028568415714" lon="9.521552892863241"><ele>192.0</ele><time>2026-04-11T13:45:51Z</time></trkpt><trkpt lat="40.34005628342904" lon="9.521747705542944"><ele>192.0</ele><time>2026-04-11T13:45:52Z</time></trkpt><trkpt lat="40.3398186721979" lon="9.521951142389861"><ele>193.0</ele><time>2026-04-11T13:45:53Z</time></trkpt><trkpt lat="40.339573654009364" lon="9.522160528545841"><ele>194.0</ele><time>2026-04-11T13:45:54Z</time></trkpt><trkpt lat="40.33933376414722" lon="9.522364857564698"><ele>194.0</ele><time>2026-04-11T13:45:55Z</time></trkpt><trkpt lat="40.33909586252527" lon="9.522562919537355"><ele>194.0</ele><time>2026-04-11T13:45:56Z</time></trkpt><trkpt lat="40.33886168502022" lon="9.522754297410993"><ele>193.5</ele><time>2026-04-11T13:45:57Z</time></trkpt><trkpt lat="40.33862550160499" lon="9.522947612407998"><ele>193.0</ele><time>2026-04-11T13:45:58Z</time></trkpt><trkpt lat="40.33839194133643" lon="9.523142914199493"><ele>193.0</ele><time>2026-04-11T13:45:59Z</time></trkpt><trkpt lat="40.338160900121" lon="9.52333138695864"><ele>193.0</ele><time>2026-04-11T13:46:00Z</time></trkpt><trkpt lat="40.33793442712612" lon="9.523520256002005"><ele>193.5</ele><time>2026-04-11T13:46:01Z</time></trkpt><trkpt lat="40.33771412210145" lon="9.523704728732751"><ele>194.0</ele><time>2026-04-11T13:46:02Z</time></trkpt><trkpt lat="40.33750351734384" lon="9.523883451529308"><ele>195.0</ele><time>2026-04-11T13:46:03Z</time></trkpt><trkpt lat="40.337300542600055" lon="9.524056689234287"><ele>196.0</ele><time>2026-04-11T13:46:04Z</time></trkpt><trkpt lat="40.33710485637092" lon="9.524230631226596"><ele>196.0</ele><time>2026-04-11T13:46:05Z</time></trkpt><trkpt lat="40.33692198367803" lon="9.524415364590077"><ele>196.0</ele><time>2026-04-11T13:46:06Z</time></trkpt><trkpt lat="40.33676089958138" lon="9.524626276716088"><ele>195.0</ele><time>2026-04-11T13:46:07Z</time></trkpt><trkpt lat="40.33662312908282" lon="9.524873234386336"><ele>194.0</ele><time>2026-04-11T13:46:08Z</time></trkpt><trkpt lat="40.336504170777786" lon="9.525150036869883"><ele>194.0</ele><time>2026-04-11T13:46:09Z</time></trkpt><trkpt lat="40.33640253968401" lon="9.525445940785652"><ele>194.0</ele><time>2026-04-11T13:46:10Z</time></trkpt><trkpt lat="40.33630601357217" lon="9.52575196746836"><ele>193.0</ele><time>2026-04-11T13:46:11Z</time></trkpt><trkpt lat="40.33620392156765" lon="9.526062805918855"><ele>192.0</ele><time>2026-04-11T13:46:12Z</time></trkpt><trkpt lat="40.33609665591901" lon="9.52638010216686"><ele>191.0</ele><time>2026-04-11T13:46:13Z</time></trkpt><trkpt lat="40.335984890986616" lon="9.526699982768065"><ele>190.0</ele><time>2026-04-11T13:46:14Z</time></trkpt><trkpt lat="40.33587110553126" lon="9.527027223858449"><ele>190.0</ele><time>2026-04-11T13:46:15Z</time></trkpt><trkpt lat="40.33575739831832" lon="9.52735931144891"><ele>190.0</ele><time>2026-04-11T13:46:16Z</time></trkpt><trkpt lat="40.335646193047005" lon="9.527693244402483"><ele>187.0</ele><time>2026-04-11T13:46:17Z</time></trkpt><trkpt lat="40.33553802078988" lon="9.528019661738364"><ele>184.0</ele><time>2026-04-11T13:46:18Z</time></trkpt><trkpt lat="40.33543048087611" lon="9.52834259380852"><ele>184.0</ele><time>2026-04-11T13:46:19Z</time></trkpt><trkpt lat="40.33532330553485" lon="9.528665816035119"><ele>184.0</ele><time>2026-04-11T13:46:20Z</time></trkpt><trkpt lat="40.335214632645595" lon="9.528990029590553"><ele>184.0</ele><time>2026-04-11T13:46:21Z</time></trkpt><trkpt lat="40.33510490681509" lon="9.52931489629078"><ele>184.0</ele><time>2026-04-11T13:46:22Z</time></trkpt><trkpt lat="40.33499491663404" lon="9.529634085295298"><ele>183.0</ele><time>2026-04-11T13:46:23Z</time></trkpt><trkpt lat="40.33488573341087" lon="9.529930864069028"><ele>182.0</ele><time>2026-04-11T13:46:24Z</time></trkpt><trkpt lat="40.33476278968852" lon="9.53019399840889"><ele>182.0</ele><time>2026-04-11T13:46:25Z</time></trkpt><trkpt lat="40.334616061839235" lon="9.530411987283347"><ele>182.0</ele><time>2026-04-11T13:46:26Z</time></trkpt><trkpt lat="40.33444643719042" lon="9.530579469443266"><ele>182.0</ele><time>2026-04-11T13:46:27Z</time></trkpt><trkpt lat="40.33424903083081" lon="9.53070550065915"><ele>182.0</ele><time>2026-04-11T13:46:28Z</time></trkpt><trkpt lat="40.33402524083806" lon="9.530790154255982"><ele>182.0</ele><time>2026-04-11T13:46:29Z</time></trkpt><trkpt lat="40.3338167243951" lon="9.530851741280115"><ele>182.0</ele><time>2026-04-11T13:46:30Z</time></trkpt><trkpt lat="40.3336158647358" lon="9.530911255956168"><ele>183.0</ele><time>2026-04-11T13:46:31Z</time></trkpt><trkpt lat="40.333423615967526" lon="9.530969413335697"><ele>184.0</ele><time>2026-04-11T13:46:32Z</time></trkpt><trkpt lat="40.33323408221467" lon="9.531025365503117"><ele>185.0</ele><time>2026-04-11T13:46:33Z</time></trkpt><trkpt lat="40.333039217030326" lon="9.5310818369081"><ele>185.33333333333331</ele><time>2026-04-11T13:46:34Z</time></trkpt><trkpt lat="40.33284040176029" lon="9.531138715608579"><ele>185.66666666666666</ele><time>2026-04-11T13:46:35Z</time></trkpt><trkpt lat="40.33263166597942" lon="9.531195922307791"><ele>186.0</ele><time>2026-04-11T13:46:36Z</time></trkpt><trkpt lat="40.33241274447035" lon="9.531256702305576"><ele>187.5</ele><time>2026-04-11T13:46:37Z</time></trkpt><trkpt lat="40.33219331416434" lon="9.531319654600601"><ele>189.0</ele><time>2026-04-11T13:46:38Z</time></trkpt><trkpt lat="40.33196707253358" lon="9.531383888967346"><ele>189.0</ele><time>2026-04-11T13:46:39Z</time></trkpt><trkpt lat="40.33173531124824" lon="9.53145066192398"><ele>189.0</ele><time>2026-04-11T13:46:40Z</time></trkpt><trkpt lat="40.331500696010835" lon="9.531516584686496"><ele>188.5</ele><time>2026-04-11T13:46:41Z</time></trkpt><trkpt lat="40.331263072530554" lon="9.531583826744066"><ele>188.0</ele><time>2026-04-11T13:46:42Z</time></trkpt><trkpt lat="40.33101879559217" lon="9.531654112555227"><ele>188.0</ele><time>2026-04-11T13:46:43Z</time></trkpt><trkpt lat="40.33077199846936" lon="9.531727843693728"><ele>188.0</ele><time>2026-04-11T13:46:44Z</time></trkpt><trkpt lat="40.33052541929129" lon="9.531806521394348"><ele>188.5</ele><time>2026-04-11T13:46:45Z</time></trkpt><trkpt lat="40.33027842911651" lon="9.531887618434725"><ele>189.0</ele><time>2026-04-11T13:46:46Z</time></trkpt><trkpt lat="40.330031723709666" lon="9.53196675145949"><ele>189.0</ele><time>2026-04-11T13:46:47Z</time></trkpt><trkpt lat="40.32978348075071" lon="9.532047792461583"><ele>189.0</ele><time>2026-04-11T13:46:48Z</time></trkpt><trkpt lat="40.329532566730414" lon="9.532129057446273"><ele>188.0</ele><time>2026-04-11T13:46:49Z</time></trkpt><trkpt lat="40.32927965779195" lon="9.532206551508661"><ele>187.0</ele><time>2026-04-11T13:46:50Z</time></trkpt><trkpt lat="40.329033406231105" lon="9.532284680380611"><ele>186.5</ele><time>2026-04-11T13:46:51Z</time></trkpt><trkpt lat="40.32879702744651" lon="9.532362153503103"><ele>186.0</ele><time>2026-04-11T13:46:52Z</time></trkpt><trkpt lat="40.32857121188182" lon="9.532435713012314"><ele>186.0</ele><time>2026-04-11T13:46:53Z</time></trkpt><trkpt lat="40.328346730205936" lon="9.5325127363876"><ele>186.0</ele><time>2026-04-11T13:46:54Z</time></trkpt><trkpt lat="40.328123866249015" lon="9.532601087527539"><ele>186.5</ele><time>2026-04-11T13:46:55Z</time></trkpt><trkpt lat="40.32790417676095" lon="9.532708542096175"><ele>187.0</ele><time>2026-04-11T13:46:56Z</time></trkpt><trkpt lat="40.327684742311334" lon="9.532844954506484"><ele>186.5</ele><time>2026-04-11T13:46:57Z</time></trkpt><trkpt lat="40.3274709376056" lon="9.533012582077728"><ele>186.0</ele><time>2026-04-11T13:46:58Z</time></trkpt><trkpt lat="40.32726455069774" lon="9.53320455981264"><ele>186.5</ele><time>2026-04-11T13:46:59Z</time></trkpt><trkpt lat="40.32705799706618" lon="9.533401228539118"><ele>187.0</ele><time>2026-04-11T13:47:00Z</time></trkpt><trkpt lat="40.3268490791408" lon="9.533595215324647"><ele>187.0</ele><time>2026-04-11T13:47:01Z</time></trkpt><trkpt lat="40.32664628916014" lon="9.533774790758349"><ele>187.0</ele><time>2026-04-11T13:47:02Z</time></trkpt><trkpt lat="40.3264529009179" lon="9.533939551857875"><ele>187.66666666666669</ele><time>2026-04-11T13:47:03Z</time></trkpt><trkpt lat="40.326269384993005" lon="9.534098165411308"><ele>188.33333333333334</ele><time>2026-04-11T13:47:04Z</time></trkpt><trkpt lat="40.326083439920566" lon="9.53424874978189"><ele>189.0</ele><time>2026-04-11T13:47:05Z</time></trkpt><trkpt lat="40.32588473830532" lon="9.534375342467573"><ele>189.0</ele><time>2026-04-11T13:47:06Z</time></trkpt><trkpt lat="40.32567551823319" lon="9.534475228400613"><ele>189.0</ele><time>2026-04-11T13:47:07Z</time></trkpt><trkpt lat="40.325462890575935" lon="9.534548019950691"><ele>189.0</ele><time>2026-04-11T13:47:08Z</time></trkpt><trkpt lat="40.32524968083626" lon="9.534586129325934"><ele>188.66666666666666</ele><time>2026-04-11T13:47:09Z</time></trkpt><trkpt lat="40.32503199581678" lon="9.534583751049562"><ele>188.33333333333331</ele><time>2026-04-11T13:47:10Z</time></trkpt><trkpt lat="40.3248071278145" lon="9.534551536238988"><ele>188.0</ele><time>2026-04-11T13:47:11Z</time></trkpt><trkpt lat="40.324572190881376" lon="9.534518545381758"><ele>187.5</ele><time>2026-04-11T13:47:12Z</time></trkpt><trkpt lat="40.324335847616176" lon="9.534489779873361"><ele>187.0</ele><time>2026-04-11T13:47:13Z</time></trkpt><trkpt lat="40.32409693018925" lon="9.534456954070768"><ele>186.0</ele><time>2026-04-11T13:47:14Z</time></trkpt><trkpt lat="40.32385969710287" lon="9.534421507419271"><ele>185.0</ele><time>2026-04-11T13:47:15Z</time></trkpt><trkpt lat="40.32362165793844" lon="9.534392120752383"><ele>185.0</ele><time>2026-04-11T13:47:16Z</time></trkpt><trkpt lat="40.32338682354208" lon="9.534364692598531"><ele>185.0</ele><time>2026-04-11T13:47:17Z</time></trkpt><trkpt lat="40.323159490893595" lon="9.5343362400053"><ele>184.66666666666666</ele><time>2026-04-11T13:47:18Z</time></trkpt><trkpt lat="40.32294528329281" lon="9.534304022661505"><ele>184.33333333333334</ele><time>2026-04-11T13:47:19Z</time></trkpt><trkpt lat="40.3227457254696" lon="9.534269739877333"><ele>184.0</ele><time>2026-04-11T13:47:20Z</time></trkpt><trkpt lat="40.322569580566245" lon="9.534250652024802"><ele>184.0</ele><time>2026-04-11T13:47:21Z</time></trkpt><trkpt lat="40.32242175121249" lon="9.534260798897385"><ele>184.0</ele><time>2026-04-11T13:47:22Z</time></trkpt><trkpt lat="40.322288954019356" lon="9.534313593948733"><ele>184.0</ele><time>2026-04-11T13:47:23Z</time></trkpt><trkpt lat="40.32217740698174" lon="9.534417348494504"><ele>184.0</ele><time>2026-04-11T13:47:24Z</time></trkpt><trkpt lat="40.322080144392416" lon="9.534574367328263"><ele>183.66666666666669</ele><time>2026-04-11T13:47:25Z</time></trkpt><trkpt lat="40.321997122166394" lon="9.53477739148841"><ele>183.33333333333334</ele><time>2026-04-11T13:47:26Z</time></trkpt><trkpt lat="40.32190925006529" lon="9.534966409284028"><ele>183.0</ele><time>2026-04-11T13:47:27Z</time></trkpt><trkpt lat="40.32179436689616" lon="9.535116748924926"><ele>183.0</ele><time>2026-04-11T13:47:28Z</time></trkpt><trkpt lat="40.32164993434871" lon="9.535203710653501"><ele>183.0</ele><time>2026-04-11T13:47:29Z</time></trkpt><trkpt lat="40.321492537824646" lon="9.535226469122735"><ele>183.0</ele><time>2026-04-11T13:47:30Z</time></trkpt><trkpt lat="40.32133393556021" lon="9.53517386312189"><ele>181.66666666666666</ele><time>2026-04-11T13:47:31Z</time></trkpt><trkpt lat="40.3211946490169" lon="9.535056140311688"><ele>180.33333333333331</ele><time>2026-04-11T13:47:32Z</time></trkpt><trkpt lat="40.32106856825845" lon="9.534894090554973"><ele>179.0</ele><time>2026-04-11T13:47:33Z</time></trkpt><trkpt lat="40.320927119773565" lon="9.534765638829297"><ele>179.0</ele><time>2026-04-11T13:47:34Z</time></trkpt><trkpt lat="40.32074789819343" lon="9.534677689883464"><ele>179.0</ele><time>2026-04-11T13:47:35Z</time></trkpt><trkpt lat="40.32056824451012" lon="9.534599286895595"><ele>179.0</ele><time>2026-04-11T13:47:36Z</time></trkpt><trkpt lat="40.320388140366006" lon="9.53450575844848"><ele>177.0</ele><time>2026-04-11T13:47:37Z</time></trkpt><trkpt lat="40.32021847586453" lon="9.534420297434828"><ele>175.0</ele><time>2026-04-11T13:47:38Z</time></trkpt><trkpt lat="40.3200657928606" lon="9.53434781240794"><ele>173.0</ele><time>2026-04-11T13:47:39Z</time></trkpt><trkpt lat="40.319926653388244" lon="9.53432647297011"><ele>173.0</ele><time>2026-04-11T13:47:40Z</time></trkpt><trkpt lat="40.319793246650484" lon="9.5343709715663"><ele>173.0</ele><time>2026-04-11T13:47:41Z</time></trkpt><trkpt lat="40.31967460776023" lon="9.534486020629613"><ele>173.0</ele><time>2026-04-11T13:47:42Z</time></trkpt><trkpt lat="40.31957744714492" lon="9.534657652647885"><ele>173.0</ele><time>2026-04-11T13:47:43Z</time></trkpt><trkpt lat="40.31949626707771" lon="9.53485284743069"><ele>172.33333333333331</ele><time>2026-04-11T13:47:44Z</time></trkpt><trkpt lat="40.31941121470775" lon="9.535055090625294"><ele>171.66666666666666</ele><time>2026-04-11T13:47:45Z</time></trkpt><trkpt lat="40.31931988769904" lon="9.535257753017733"><ele>171.0</ele><time>2026-04-11T13:47:46Z</time></trkpt><trkpt lat="40.31922734182211" lon="9.535452559823913"><ele>171.0</ele><time>2026-04-11T13:47:47Z</time></trkpt><trkpt lat="40.31914128962761" lon="9.53562936337164"><ele>171.0</ele><time>2026-04-11T13:47:48Z</time></trkpt><trkpt lat="40.3190391933058" lon="9.53576437496654"><ele>171.0</ele><time>2026-04-11T13:47:49Z</time></trkpt><trkpt lat="40.31890651864382" lon="9.535848084536239"><ele>169.66666666666666</ele><time>2026-04-11T13:47:50Z</time></trkpt><trkpt lat="40.3187503677049" lon="9.535887967772473"><ele>168.33333333333331</ele><time>2026-04-11T13:47:51Z</time></trkpt><trkpt lat="40.3185826434108" lon="9.53588862353802"><ele>167.0</ele><time>2026-04-11T13:47:52Z</time></trkpt><trkpt lat="40.31841568308676" lon="9.53589027684405"><ele>167.0</ele><time>2026-04-11T13:47:53Z</time></trkpt><trkpt lat="40.31823534097613" lon="9.53589334977002"><ele>167.0</ele><time>2026-04-11T13:47:54Z</time></trkpt><trkpt lat="40.3180716005009" lon="9.535852740879548"><ele>167.0</ele><time>2026-04-11T13:47:55Z</time></trkpt><trkpt lat="40.31792470878691" lon="9.535751293700855"><ele>168.33333333333331</ele><time>2026-04-11T13:47:56Z</time></trkpt><trkpt lat="40.31779030592166" lon="9.535603844503356"><ele>169.66666666666666</ele><time>2026-04-11T13:47:57Z</time></trkpt><trkpt lat="40.317654342926744" lon="9.535434108965065"><ele>171.0</ele><time>2026-04-11T13:47:58Z</time></trkpt><trkpt lat="40.31751445633486" lon="9.535256846930315"><ele>168.66666666666666</ele><time>2026-04-11T13:47:59Z</time></trkpt><trkpt lat="40.317367242992646" lon="9.535075002926183"><ele>166.33333333333331</ele><time>2026-04-11T13:48:00Z</time></trkpt><trkpt lat="40.31722398345779" lon="9.534896784498084"><ele>164.0</ele><time>2026-04-11T13:48:01Z</time></trkpt><trkpt lat="40.3170848265754" lon="9.534720484714775"><ele>164.0</ele><time>2026-04-11T13:48:02Z</time></trkpt><trkpt lat="40.31695495845719" lon="9.534556344762004"><ele>164.0</ele><time>2026-04-11T13:48:03Z</time></trkpt><trkpt lat="40.31684072204543" lon="9.534423369900992"><ele>164.0</ele><time>2026-04-11T13:48:04Z</time></trkpt><trkpt lat="40.31671928513392" lon="9.53435046705826"><ele>161.33333333333331</ele><time>2026-04-11T13:48:05Z</time></trkpt><trkpt lat="40.316573944962656" lon="9.534344253146491"><ele>158.66666666666666</ele><time>2026-04-11T13:48:06Z</time></trkpt><trkpt lat="40.31640330603528" lon="9.534363488891929"><ele>156.0</ele><time>2026-04-11T13:48:07Z</time></trkpt><trkpt lat="40.31623427242689" lon="9.534360108362337"><ele>154.66666666666666</ele><time>2026-04-11T13:48:08Z</time></trkpt><trkpt lat="40.31607986091241" lon="9.534309341273675"><ele>153.33333333333331</ele><time>2026-04-11T13:48:09Z</time></trkpt><trkpt lat="40.31592352075276" lon="9.534275895126447"><ele>152.0</ele><time>2026-04-11T13:48:10Z</time></trkpt><trkpt lat="40.31577651654913" lon="9.534258389282705"><ele>152.0</ele><time>2026-04-11T13:48:11Z</time></trkpt><trkpt lat="40.31564165920822" lon="9.534283519338294"><ele>152.0</ele><time>2026-04-11T13:48:12Z</time></trkpt><trkpt lat="40.31553185529638" lon="9.534385304142054"><ele>152.0</ele><time>2026-04-11T13:48:13Z</time></trkpt><trkpt lat="40.315446626254655" lon="9.53455014313887"><ele>152.0</ele><time>2026-04-11T13:48:14Z</time></trkpt><trkpt lat="40.315356962823834" lon="9.534717024137432"><ele>151.75</ele><time>2026-04-11T13:48:15Z</time></trkpt><trkpt lat="40.31525632499908" lon="9.534878176247839"><ele>151.5</ele><time>2026-04-11T13:48:16Z</time></trkpt><trkpt lat="40.31514815606219" lon="9.535008190423724"><ele>151.25</ele><time>2026-04-11T13:48:17Z</time></trkpt><trkpt lat="40.315032407864" lon="9.53507794856297"><ele>151.0</ele><time>2026-04-11T13:48:18Z</time></trkpt><trkpt lat="40.314920171107225" lon="9.535071898508983"><ele>151.0</ele><time>2026-04-11T13:48:19Z</time></trkpt><trkpt lat="40.31482581687407" lon="9.535004745140998"><ele>151.0</ele><time>2026-04-11T13:48:20Z</time></trkpt><trkpt lat="40.31475272713641" lon="9.534878458250123"><ele>151.0</ele><time>2026-04-11T13:48:21Z</time></trkpt><trkpt lat="40.314687281006826" lon="9.534710560047092"><ele>151.0</ele><time>2026-04-11T13:48:22Z</time></trkpt><trkpt lat="40.31461071224425" lon="9.534546530166242"><ele>148.66666666666669</ele><time>2026-04-11T13:48:23Z</time></trkpt><trkpt lat="40.3144987636991" lon="9.534435607703749"><ele>146.33333333333334</ele><time>2026-04-11T13:48:24Z</time></trkpt><trkpt lat="40.31436312273718" lon="9.534379128388904"><ele>144.0</ele><time>2026-04-11T13:48:25Z</time></trkpt><trkpt lat="40.31419360325224" lon="9.53437465976735"><ele>144.0</ele><time>2026-04-11T13:48:26Z</time></trkpt><trkpt lat="40.314016572013536" lon="9.534343894517198"><ele>144.0</ele><time>2026-04-11T13:48:27Z</time></trkpt><trkpt lat="40.31382933880073" lon="9.534318686752295"><ele>144.0</ele><time>2026-04-11T13:48:28Z</time></trkpt><trkpt lat="40.3136486243294" lon="9.534297910408803"><ele>143.33333333333334</ele><time>2026-04-11T13:48:29Z</time></trkpt><trkpt lat="40.31345726570044" lon="9.534266639985866"><ele>142.66666666666669</ele><time>2026-04-11T13:48:30Z</time></trkpt><trkpt lat="40.313266897318435" lon="9.534239544697524"><ele>142.0</ele><time>2026-04-11T13:48:31Z</time></trkpt><trkpt lat="40.31307323690004" lon="9.534217508889835"><ele>141.33333333333334</ele><time>2026-04-11T13:48:32Z</time></trkpt><trkpt lat="40.31288200315482" lon="9.534196587991515"><ele>140.66666666666666</ele><time>2026-04-11T13:48:33Z</time></trkpt><trkpt lat="40.31270162532423" lon="9.53418243613916"><ele>140.0</ele><time>2026-04-11T13:48:34Z</time></trkpt><trkpt lat="40.31253843085777" lon="9.534195855507866"><ele>140.0</ele><time>2026-04-11T13:48:35Z</time></trkpt><trkpt lat="40.312385292426825" lon="9.534221144141616"><ele>140.0</ele><time>2026-04-11T13:48:36Z</time></trkpt><trkpt lat="40.312243373079895" lon="9.534211705860146"><ele>140.0</ele><time>2026-04-11T13:48:37Z</time></trkpt><trkpt lat="40.3121122351192" lon="9.534150186190809"><ele>140.0</ele><time>2026-04-11T13:48:38Z</time></trkpt><trkpt lat="40.312002644071406" lon="9.534034287532986"><ele>139.75</ele><time>2026-04-11T13:48:39Z</time></trkpt><trkpt lat="40.311945046668676" lon="9.533875695102239"><ele>139.5</ele><time>2026-04-11T13:48:40Z</time></trkpt><trkpt lat="40.311872845565965" lon="9.533758605482772"><ele>139.25</ele><time>2026-04-11T13:48:41Z</time></trkpt><trkpt lat="40.31178097175639" lon="9.533696287172472"><ele>139.0</ele><time>2026-04-11T13:48:42Z</time></trkpt><trkpt lat="40.31167172091947" lon="9.533707182587085"><ele>139.0</ele><time>2026-04-11T13:48:43Z</time></trkpt><trkpt lat="40.31154623711409" lon="9.533783278540373"><ele>139.0</ele><time>2026-04-11T13:48:44Z</time></trkpt><trkpt lat="40.311421833068685" lon="9.53389785390567"><ele>139.0</ele><time>2026-04-11T13:48:45Z</time></trkpt><trkpt lat="40.31128748449681" lon="9.53400661251555"><ele>139.0</ele><time>2026-04-11T13:48:46Z</time></trkpt><trkpt lat="40.31116028062773" lon="9.534138064875995"><ele>139.0</ele><time>2026-04-11T13:48:47Z</time></trkpt><trkpt lat="40.311061473075995" lon="9.534303836293374"><ele>139.0</ele><time>2026-04-11T13:48:48Z</time></trkpt><trkpt lat="40.31098388258183" lon="9.534503486652909"><ele>139.0</ele><time>2026-04-11T13:48:49Z</time></trkpt><trkpt lat="40.31090502877322" lon="9.534710493043782"><ele>137.66666666666669</ele><time>2026-04-11T13:48:50Z</time></trkpt><trkpt lat="40.31082809236471" lon="9.534921591348803"><ele>136.33333333333334</ele><time>2026-04-11T13:48:51Z</time></trkpt><trkpt lat="40.31074570246221" lon="9.535145839157913"><ele>135.0</ele><time>2026-04-11T13:48:52Z</time></trkpt><trkpt lat="40.310657792261324" lon="9.53537773644711"><ele>137.0</ele><time>2026-04-11T13:48:53Z</time></trkpt><trkpt lat="40.31056310551134" lon="9.535601584147756"><ele>139.0</ele><time>2026-04-11T13:48:54Z</time></trkpt><trkpt lat="40.310453645152855" lon="9.53580528097594"><ele>141.0</ele><time>2026-04-11T13:48:55Z</time></trkpt><trkpt lat="40.310320788225724" lon="9.53599355783218"><ele>141.0</ele><time>2026-04-11T13:48:56Z</time></trkpt><trkpt lat="40.31016935784361" lon="9.536158323390621"><ele>141.0</ele><time>2026-04-11T13:48:57Z</time></trkpt><trkpt lat="40.30999783469322" lon="9.536287520133756"><ele>141.0</ele><time>2026-04-11T13:48:58Z</time></trkpt><trkpt lat="40.309814071194154" lon="9.536384748160115"><ele>141.0</ele><time>2026-04-11T13:48:59Z</time></trkpt><trkpt lat="40.30962836672159" lon="9.53647411979538"><ele>141.0</ele><time>2026-04-11T13:49:00Z</time></trkpt><trkpt lat="40.30945643399734" lon="9.536575702668106"><ele>141.0</ele><time>2026-04-11T13:49:01Z</time></trkpt><trkpt lat="40.309304700487736" lon="9.536707417950302"><ele>141.0</ele><time>2026-04-11T13:49:02Z</time></trkpt><trkpt lat="40.30917575091252" lon="9.53688372429787"><ele>141.0</ele><time>2026-04-11T13:49:03Z</time></trkpt><trkpt lat="40.3090614781071" lon="9.537091970120047"><ele>141.0</ele><time>2026-04-11T13:49:04Z</time></trkpt><trkpt lat="40.3089453606572" lon="9.537307516087223"><ele>144.0</ele><time>2026-04-11T13:49:05Z</time></trkpt><trkpt lat="40.30883061406925" lon="9.537518236991174"><ele>147.0</ele><time>2026-04-11T13:49:06Z</time></trkpt><trkpt lat="40.30871025926794" lon="9.537720184985726"><ele>150.0</ele><time>2026-04-11T13:49:07Z</time></trkpt><trkpt lat="40.30859018082061" lon="9.537930283664657"><ele>144.0</ele><time>2026-04-11T13:49:08Z</time></trkpt><trkpt lat="40.30847316101318" lon="9.538134571935949"><ele>138.0</ele><time>2026-04-11T13:49:09Z</time></trkpt><trkpt lat="40.30836528701806" lon="9.538317642621532"><ele>132.0</ele><time>2026-04-11T13:49:10Z</time></trkpt><trkpt lat="40.30825780362309" lon="9.538478243613213"><ele>132.0</ele><time>2026-04-11T13:49:11Z</time></trkpt><trkpt lat="40.308137229283886" lon="9.53859455420047"><ele>132.0</ele><time>2026-04-11T13:49:12Z</time></trkpt><trkpt lat="40.30799563966825" lon="9.538653626862198"><ele>132.0</ele><time>2026-04-11T13:49:13Z</time></trkpt><trkpt lat="40.30784065236184" lon="9.538651805664404"><ele>135.0</ele><time>2026-04-11T13:49:14Z</time></trkpt><trkpt lat="40.30768106257946" lon="9.538596016496301"><ele>138.0</ele><time>2026-04-11T13:49:15Z</time></trkpt><trkpt lat="40.307512701778315" lon="9.538545387165755"><ele>141.0</ele><time>2026-04-11T13:49:16Z</time></trkpt><trkpt lat="40.307344140897065" lon="9.538503461270246"><ele>140.25</ele><time>2026-04-11T13:49:17Z</time></trkpt><trkpt lat="40.30718482545021" lon="9.538466143322964"><ele>139.5</ele><time>2026-04-11T13:49:18Z</time></trkpt><trkpt lat="40.30704138760865" lon="9.538449017956184"><ele>138.75</ele><time>2026-04-11T13:49:19Z</time></trkpt><trkpt lat="40.306905783632246" lon="9.538485005621256"><ele>138.0</ele><time>2026-04-11T13:49:20Z</time></trkpt><trkpt lat="40.30679022904961" lon="9.53858314999321"><ele>127.66666666666666</ele><time>2026-04-11T13:49:21Z</time></trkpt><trkpt lat="40.306705887669374" lon="9.53874234950069"><ele>117.33333333333333</ele><time>2026-04-11T13:49:22Z</time></trkpt><trkpt lat="40.30664720496231" lon="9.538940266304882"><ele>107.0</ele><time>2026-04-11T13:49:23Z</time></trkpt><trkpt lat="40.30659609315206" lon="9.539148211137439"><ele>107.0</ele><time>2026-04-11T13:49:24Z</time></trkpt><trkpt lat="40.30655416232747" lon="9.539375240439773"><ele>107.0</ele><time>2026-04-11T13:49:25Z</time></trkpt><trkpt lat="40.306508490450305" lon="9.539609769685152"><ele>107.0</ele><time>2026-04-11T13:49:26Z</time></trkpt><trkpt lat="40.30645877454778" lon="9.539873952040443"><ele>104.66666666666666</ele><time>2026-04-11T13:49:27Z</time></trkpt><trkpt lat="40.30641497557686" lon="9.540129310099493"><ele>102.33333333333334</ele><time>2026-04-11T13:49:28Z</time></trkpt><trkpt lat="40.30636820084997" lon="9.54038316646531"><ele>100.0</ele><time>2026-04-11T13:49:29Z</time></trkpt><trkpt lat="40.30631826158857" lon="9.540634663616718"><ele>106.66666666666667</ele><time>2026-04-11T13:49:30Z</time></trkpt><trkpt lat="40.306268923338735" lon="9.540874225992443"><ele>113.33333333333334</ele><time>2026-04-11T13:49:31Z</time></trkpt><trkpt lat="40.30620159216158" lon="9.54109033800039"><ele>120.0</ele><time>2026-04-11T13:49:32Z</time></trkpt><trkpt lat="40.30615581847413" lon="9.54129609360995"><ele>128.0</ele><time>2026-04-11T13:49:33Z</time></trkpt><trkpt lat="40.306077461197944" lon="9.541455217554933"><ele>136.0</ele><time>2026-04-11T13:49:34Z</time></trkpt><trkpt lat="40.30597607248777" lon="9.541563836641254"><ele>144.0</ele><time>2026-04-11T13:49:35Z</time></trkpt><trkpt lat="40.30585402511617" lon="9.541604268861192"><ele>152.0</ele><time>2026-04-11T13:49:36Z</time></trkpt><trkpt lat="40.30571295495957" lon="9.541579117951873"><ele>155.0</ele><time>2026-04-11T13:49:37Z</time></trkpt><trkpt lat="40.30556317462828" lon="9.54150373395268"><ele>158.0</ele><time>2026-04-11T13:49:38Z</time></trkpt><trkpt lat="40.30542253869063" lon="9.541404435620105"><ele>161.0</ele><time>2026-04-11T13:49:39Z</time></trkpt><trkpt lat="40.305280064644805" lon="9.541284107641484"><ele>152.0</ele><time>2026-04-11T13:49:40Z</time></trkpt><trkpt lat="40.305137139260594" lon="9.541145269463861"><ele>143.0</ele><time>2026-04-11T13:49:41Z</time></trkpt><trkpt lat="40.30498464520989" lon="9.541002057662435"><ele>134.0</ele><time>2026-04-11T13:49:42Z</time></trkpt><trkpt lat="40.30483253084006" lon="9.540859689837681"><ele>140.0</ele><time>2026-04-11T13:49:43Z</time></trkpt><trkpt lat="40.304687613430154" lon="9.540726370597762"><ele>146.0</ele><time>2026-04-11T13:49:44Z</time></trkpt><trkpt lat="40.30454297541397" lon="9.540631156198538"><ele>152.0</ele><time>2026-04-11T13:49:45Z</time></trkpt><trkpt lat="40.304389086730914" lon="9.540587062202162"><ele>152.0</ele><time>2026-04-11T13:49:46Z</time></trkpt><trkpt lat="40.304237791141716" lon="9.540602760309874"><ele>152.0</ele><time>2026-04-11T13:49:47Z</time></trkpt><trkpt lat="40.304099420509424" lon="9.54067314740483"><ele>152.0</ele><time>2026-04-11T13:49:48Z</time></trkpt><trkpt lat="40.30397890192796" lon="9.54078866638002"><ele>152.0</ele><time>2026-04-11T13:49:49Z</time></trkpt><trkpt lat="40.30387488505336" lon="9.54092559577294"><ele>153.0</ele><time>2026-04-11T13:49:50Z</time></trkpt><trkpt lat="40.3037771366405" lon="9.54105856080231"><ele>154.0</ele><time>2026-04-11T13:49:51Z</time></trkpt><trkpt lat="40.303676678159064" lon="9.541189506587317"><ele>155.0</ele><time>2026-04-11T13:49:52Z</time></trkpt><trkpt lat="40.30357272880823" lon="9.541318249201959"><ele>156.0</ele><time>2026-04-11T13:49:53Z</time></trkpt><trkpt lat="40.30346617827058" lon="9.541449773210793"><ele>156.0</ele><time>2026-04-11T13:49:54Z</time></trkpt><trkpt lat="40.303363091123025" lon="9.541583415039181"><ele>156.0</ele><time>2026-04-11T13:49:55Z</time></trkpt><trkpt lat="40.30326190708949" lon="9.541718122457283"><ele>156.0</ele><time>2026-04-11T13:49:56Z</time></trkpt><trkpt lat="40.303160879819885" lon="9.541847215228948"><ele>156.0</ele><time>2026-04-11T13:49:57Z</time></trkpt><trkpt lat="40.30305515276613" lon="9.541975732726346"><ele>156.75</ele><time>2026-04-11T13:49:58Z</time></trkpt><trkpt lat="40.30295478891306" lon="9.542104528402641"><ele>157.5</ele><time>2026-04-11T13:49:59Z</time></trkpt><trkpt lat="40.30285726945718" lon="9.542233554818555"><ele>158.25</ele><time>2026-04-11T13:50:00Z</time></trkpt><trkpt lat="40.30276411926393" lon="9.542351356261014"><ele>159.0</ele><time>2026-04-11T13:50:01Z</time></trkpt><trkpt lat="40.302682293181256" lon="9.542468848766907"><ele>159.0</ele><time>2026-04-11T13:50:02Z</time></trkpt><trkpt lat="40.30261011111127" lon="9.542602359178577"><ele>159.0</ele><time>2026-04-11T13:50:03Z</time></trkpt><trkpt lat="40.30254689891546" lon="9.542747426814818"><ele>159.0</ele><time>2026-04-11T13:50:04Z</time></trkpt><trkpt lat="40.30249517451384" lon="9.542904290459829"><ele>159.0</ele><time>2026-04-11T13:50:05Z</time></trkpt><trkpt lat="40.3024543575496" lon="9.543069057289998"><ele>162.0</ele><time>2026-04-11T13:50:06Z</time></trkpt><trkpt lat="40.302431468182625" lon="9.543242352026917"><ele>165.0</ele><time>2026-04-11T13:50:07Z</time></trkpt><trkpt lat="40.302423040486865" lon="9.543420556974159"><ele>168.0</ele><time>2026-04-11T13:50:08Z</time></trkpt><trkpt lat="40.30242866184509" lon="9.543596469869216"><ele>171.0</ele><time>2026-04-11T13:50:09Z</time></trkpt><trkpt lat="40.30245226045759" lon="9.543761747281561"><ele>171.5</ele><time>2026-04-11T13:50:10Z</time></trkpt><trkpt lat="40.30249004891133" lon="9.543924224876745"><ele>172.0</ele><time>2026-04-11T13:50:11Z</time></trkpt><trkpt lat="40.302541822479824" lon="9.544083100195156"><ele>172.5</ele><time>2026-04-11T13:50:12Z</time></trkpt><trkpt lat="40.30261381522152" lon="9.544229281439128"><ele>173.0</ele><time>2026-04-11T13:50:13Z</time></trkpt><trkpt lat="40.302682607356466" lon="9.544386956695439"><ele>173.0</ele><time>2026-04-11T13:50:14Z</time></trkpt><trkpt lat="40.30278081929981" lon="9.54453877554334"><ele>173.0</ele><time>2026-04-11T13:50:15Z</time></trkpt><trkpt lat="40.302880547351066" lon="9.544690811913524"><ele>173.0</ele><time>2026-04-11T13:50:16Z</time></trkpt><trkpt lat="40.30297766729992" lon="9.544840141299911"><ele>173.0</ele><time>2026-04-11T13:50:17Z</time></trkpt><trkpt lat="40.30307532642602" lon="9.544990299259464"><ele>173.0</ele><time>2026-04-11T13:50:18Z</time></trkpt><trkpt lat="40.30317358002131" lon="9.545143399400304"><ele>173.0</ele><time>2026-04-11T13:50:19Z</time></trkpt><trkpt lat="40.30327394127494" lon="9.54529974076207"><ele>174.66666666666666</ele><time>2026-04-11T13:50:20Z</time></trkpt><trkpt lat="40.30337754174849" lon="9.545461128102254"><ele>176.33333333333334</ele><time>2026-04-11T13:50:21Z</time></trkpt><trkpt lat="40.303496879516715" lon="9.545647030725986"><ele>178.0</ele><time>2026-04-11T13:50:22Z</time></trkpt><trkpt lat="40.30361779835876" lon="9.54583539549952"><ele>178.0</ele><time>2026-04-11T13:50:23Z</time></trkpt><trkpt lat="40.303748869466126" lon="9.546042193240863"><ele>178.0</ele><time>2026-04-11T13:50:24Z</time></trkpt><trkpt lat="40.30389808413358" lon="9.54627737359141"><ele>178.0</ele><time>2026-04-11T13:50:25Z</time></trkpt><trkpt lat="40.304050924840716" lon="9.546488157584019"><ele>179.0</ele><time>2026-04-11T13:50:26Z</time></trkpt><trkpt lat="40.3041901308658" lon="9.546701516721193"><ele>180.0</ele><time>2026-04-11T13:50:27Z</time></trkpt><trkpt lat="40.30433260888525" lon="9.546909381073577"><ele>181.0</ele><time>2026-04-11T13:50:28Z</time></trkpt><trkpt lat="40.30448338510525" lon="9.547104018835538"><ele>183.0</ele><time>2026-04-11T13:50:29Z</time></trkpt><trkpt lat="40.304632226488344" lon="9.547285252347343"><ele>185.0</ele><time>2026-04-11T13:50:30Z</time></trkpt><trkpt lat="40.30478524744563" lon="9.547440739002736"><ele>187.0</ele><time>2026-04-11T13:50:31Z</time></trkpt><trkpt lat="40.30492150001885" lon="9.547609265643136"><ele>187.33333333333334</ele><time>2026-04-11T13:50:32Z</time></trkpt><trkpt lat="40.305035701589524" lon="9.54779835563201"><ele>187.66666666666666</ele><time>2026-04-11T13:50:33Z</time></trkpt><trkpt lat="40.30513631145699" lon="9.548018235934551"><ele>188.0</ele><time>2026-04-11T13:50:34Z</time></trkpt><trkpt lat="40.30518347267787" lon="9.548279200952944"><ele>188.0</ele><time>2026-04-11T13:50:35Z</time></trkpt><trkpt lat="40.305253484787464" lon="9.548530808936288"><ele>188.0</ele><time>2026-04-11T13:50:36Z</time></trkpt><trkpt lat="40.30531751585774" lon="9.54877902801772"><ele>188.0</ele><time>2026-04-11T13:50:37Z</time></trkpt><trkpt lat="40.30538985067465" lon="9.549019554014912"><ele>188.66666666666666</ele><time>2026-04-11T13:50:38Z</time></trkpt><trkpt lat="40.3055305656683" lon="9.54921522688333"><ele>189.33333333333334</ele><time>2026-04-11T13:50:39Z</time></trkpt><trkpt lat="40.305663061115226" lon="9.54941012230818"><ele>190.0</ele><time>2026-04-11T13:50:40Z</time></trkpt><trkpt lat="40.30576417404638" lon="9.549636253140328"><ele>192.33333333333334</ele><time>2026-04-11T13:50:41Z</time></trkpt><trkpt lat="40.30585657354237" lon="9.549865310983748"><ele>194.66666666666669</ele><time>2026-04-11T13:50:42Z</time></trkpt><trkpt lat="40.30594749773267" lon="9.550086054147645"><ele>197.0</ele><time>2026-04-11T13:50:43Z</time></trkpt><trkpt lat="40.306048488123174" lon="9.550299685615583"><ele>199.33333333333334</ele><time>2026-04-11T13:50:44Z</time></trkpt><trkpt lat="40.30615921914488" lon="9.550504975412366"><ele>201.66666666666669</ele><time>2026-04-11T13:50:45Z</time></trkpt><trkpt lat="40.306278209446496" lon="9.55070000160301"><ele>204.0</ele><time>2026-04-11T13:50:46Z</time></trkpt><trkpt lat="40.306409621439066" lon="9.550860967232552"><ele>204.66666666666669</ele><time>2026-04-11T13:50:47Z</time></trkpt><trkpt lat="40.30650436840419" lon="9.551051593913861"><ele>205.33333333333334</ele><time>2026-04-11T13:50:48Z</time></trkpt><trkpt lat="40.30658225764086" lon="9.55126322777097"><ele>206.0</ele><time>2026-04-11T13:50:49Z</time></trkpt><trkpt lat="40.30664837421874" lon="9.551493674722012"><ele>206.0</ele><time>2026-04-11T13:50:50Z</time></trkpt><trkpt lat="40.3067153373263" lon="9.551735361748664"><ele>206.0</ele><time>2026-04-11T13:50:51Z</time></trkpt><trkpt lat="40.30679029378635" lon="9.55197806592208"><ele>206.0</ele><time>2026-04-11T13:50:52Z</time></trkpt><trkpt lat="40.30686495633161" lon="9.552216686293802"><ele>207.66666666666669</ele><time>2026-04-11T13:50:53Z</time></trkpt><trkpt lat="40.30693755621278" lon="9.552462018599943"><ele>209.33333333333331</ele><time>2026-04-11T13:50:54Z</time></trkpt><trkpt lat="40.307010465801085" lon="9.55271661048874"><ele>211.0</ele><time>2026-04-11T13:50:55Z</time></trkpt><trkpt lat="40.307084123336764" lon="9.552971794064058"><ele>212.66666666666666</ele><time>2026-04-11T13:50:56Z</time></trkpt><trkpt lat="40.30716416281159" lon="9.55322877582172"><ele>214.33333333333331</ele><time>2026-04-11T13:50:57Z</time></trkpt><trkpt lat="40.30722983289678" lon="9.553495557383291"><ele>216.0</ele><time>2026-04-11T13:50:58Z</time></trkpt><trkpt lat="40.307305852776494" lon="9.553753663586585"><ele>216.0</ele><time>2026-04-11T13:50:59Z</time></trkpt><trkpt lat="40.3073809600733" lon="9.55400484461783"><ele>216.0</ele><time>2026-04-11T13:51:00Z</time></trkpt><trkpt lat="40.307453172547724" lon="9.554245396137773"><ele>216.0</ele><time>2026-04-11T13:51:01Z</time></trkpt><trkpt lat="40.30749094060191" lon="9.554539820450726"><ele>217.0</ele><time>2026-04-11T13:51:02Z</time></trkpt><trkpt lat="40.307506678203644" lon="9.554829482359068"><ele>218.0</ele><time>2026-04-11T13:51:03Z</time></trkpt><trkpt lat="40.30749169916846" lon="9.555108933701398"><ele>219.0</ele><time>2026-04-11T13:51:04Z</time></trkpt><trkpt lat="40.30745302447431" lon="9.555379389942397"><ele>219.0</ele><time>2026-04-11T13:51:05Z</time></trkpt><trkpt lat="40.30738673030245" lon="9.555649363595649"><ele>219.0</ele><time>2026-04-11T13:51:06Z</time></trkpt><trkpt lat="40.30730062842374" lon="9.555921730736477"><ele>219.0</ele><time>2026-04-11T13:51:07Z</time></trkpt><trkpt lat="40.30720707917027" lon="9.556194582567153"><ele>222.0</ele><time>2026-04-11T13:51:08Z</time></trkpt><trkpt lat="40.307115180292605" lon="9.556466924243455"><ele>225.0</ele><time>2026-04-11T13:51:09Z</time></trkpt><trkpt lat="40.30702302903201" lon="9.556738464054364"><ele>225.0</ele><time>2026-04-11T13:51:10Z</time></trkpt><trkpt lat="40.30693018280874" lon="9.557014506011697"><ele>225.0</ele><time>2026-04-11T13:51:11Z</time></trkpt><trkpt lat="40.30683605105553" lon="9.557290942030352"><ele>225.0</ele><time>2026-04-11T13:51:12Z</time></trkpt><trkpt lat="40.30673897471013" lon="9.557569101898283"><ele>225.0</ele><time>2026-04-11T13:51:13Z</time></trkpt><trkpt lat="40.30664230422427" lon="9.557848808567847"><ele>225.5</ele><time>2026-04-11T13:51:14Z</time></trkpt><trkpt lat="40.306548308240906" lon="9.558127826205139"><ele>226.0</ele><time>2026-04-11T13:51:15Z</time></trkpt><trkpt lat="40.30645236088033" lon="9.558411906732559"><ele>229.0</ele><time>2026-04-11T13:51:16Z</time></trkpt><trkpt lat="40.30635427978455" lon="9.558701571063535"><ele>232.0</ele><time>2026-04-11T13:51:17Z</time></trkpt><trkpt lat="40.306254711430704" lon="9.558995329641153"><ele>232.0</ele><time>2026-04-11T13:51:18Z</time></trkpt><trkpt lat="40.30615593036152" lon="9.559289513969693"><ele>232.0</ele><time>2026-04-11T13:51:19Z</time></trkpt><trkpt lat="40.30605589885318" lon="9.559588431173587"><ele>232.0</ele><time>2026-04-11T13:51:20Z</time></trkpt><trkpt lat="40.305954917956086" lon="9.559886329725838"><ele>232.0</ele><time>2026-04-11T13:51:21Z</time></trkpt><trkpt lat="40.30585334144765" lon="9.560184932407896"><ele>232.0</ele><time>2026-04-11T13:51:22Z</time></trkpt><trkpt lat="40.30575356621486" lon="9.560480988977636"><ele>232.0</ele><time>2026-04-11T13:51:23Z</time></trkpt><trkpt lat="40.305653201567964" lon="9.56077584089404"><ele>233.5</ele><time>2026-04-11T13:51:24Z</time></trkpt><trkpt lat="40.30555481394528" lon="9.561066970132996"><ele>235.0</ele><time>2026-04-11T13:51:25Z</time></trkpt><trkpt lat="40.305457017425546" lon="9.561358256416527"><ele>236.0</ele><time>2026-04-11T13:51:26Z</time></trkpt><trkpt lat="40.305357065441605" lon="9.561647340340013"><ele>237.0</ele><time>2026-04-11T13:51:27Z</time></trkpt><trkpt lat="40.30525308155461" lon="9.561936001919118"><ele>237.0</ele><time>2026-04-11T13:51:28Z</time></trkpt><trkpt lat="40.30515041110515" lon="9.562230612147669"><ele>237.0</ele><time>2026-04-11T13:51:29Z</time></trkpt><trkpt lat="40.305051157128105" lon="9.562530016983995"><ele>237.0</ele><time>2026-04-11T13:51:30Z</time></trkpt><trkpt lat="40.30495224124177" lon="9.56283130151527"><ele>237.0</ele><time>2026-04-11T13:51:31Z</time></trkpt><trkpt lat="40.30485176075015" lon="9.563134084462645"><ele>238.0</ele><time>2026-04-11T13:51:32Z</time></trkpt><trkpt lat="40.30474795043259" lon="9.563436294906861"><ele>239.0</ele><time>2026-04-11T13:51:33Z</time></trkpt><trkpt lat="40.304644112751554" lon="9.563728798959092"><ele>241.5</ele><time>2026-04-11T13:51:34Z</time></trkpt><trkpt lat="40.304546790253944" lon="9.564007655063616"><ele>244.0</ele><time>2026-04-11T13:51:35Z</time></trkpt><trkpt lat="40.30445576972029" lon="9.564276156428114"><ele>245.0</ele><time>2026-04-11T13:51:36Z</time></trkpt><trkpt lat="40.30436947541221" lon="9.564530354123109"><ele>246.0</ele><time>2026-04-11T13:51:37Z</time></trkpt><trkpt lat="40.30429485598092" lon="9.564773119653843"><ele>247.0</ele><time>2026-04-11T13:51:38Z</time></trkpt><trkpt lat="40.30425437820502" lon="9.565020954016957"><ele>247.0</ele><time>2026-04-11T13:51:39Z</time></trkpt><trkpt lat="40.30425452017465" lon="9.565270856580666"><ele>247.0</ele><time>2026-04-11T13:51:40Z</time></trkpt><trkpt lat="40.30428296980427" lon="9.56552514752671"><ele>247.0</ele><time>2026-04-11T13:51:41Z</time></trkpt><trkpt lat="40.30430676939436" lon="9.565770087906447"><ele>248.33333333333331</ele><time>2026-04-11T13:51:42Z</time></trkpt><trkpt lat="40.30429266699237" lon="9.56601027733071"><ele>249.66666666666669</ele><time>2026-04-11T13:51:43Z</time></trkpt><trkpt lat="40.30424871145586" lon="9.56624223450743"><ele>251.0</ele><time>2026-04-11T13:51:44Z</time></trkpt><trkpt lat="40.3041775374281" lon="9.566476723394574"><ele>252.33333333333334</ele><time>2026-04-11T13:51:45Z</time></trkpt><trkpt lat="40.30409728411393" lon="9.566723994356595"><ele>253.66666666666669</ele><time>2026-04-11T13:51:46Z</time></trkpt><trkpt lat="40.30402136961959" lon="9.566991025728004"><ele>255.0</ele><time>2026-04-11T13:51:47Z</time></trkpt><trkpt lat="40.303923021876955" lon="9.56726519910965"><ele>259.0</ele><time>2026-04-11T13:51:48Z</time></trkpt><trkpt lat="40.30383317246129" lon="9.567557449607897"><ele>263.0</ele><time>2026-04-11T13:51:49Z</time></trkpt><trkpt lat="40.30374868658362" lon="9.567836495812578"><ele>264.0</ele><time>2026-04-11T13:51:50Z</time></trkpt><trkpt lat="40.303683263798675" lon="9.56811515032931"><ele>265.0</ele><time>2026-04-11T13:51:51Z</time></trkpt><trkpt lat="40.303601218367476" lon="9.568370303690234"><ele>266.0</ele><time>2026-04-11T13:51:52Z</time></trkpt><trkpt lat="40.303528954014084" lon="9.568611178696909"><ele>267.33333333333337</ele><time>2026-04-11T13:51:53Z</time></trkpt><trkpt lat="40.30346082878007" lon="9.568834146125306"><ele>268.6666666666667</ele><time>2026-04-11T13:51:54Z</time></trkpt><trkpt lat="40.30339397963762" lon="9.569037952849692"><ele>270.0</ele><time>2026-04-11T13:51:55Z</time></trkpt><trkpt lat="40.30333128188169" lon="9.56922799535468"><ele>270.0</ele><time>2026-04-11T13:51:56Z</time></trkpt><trkpt lat="40.30327486596244" lon="9.569412416804948"><ele>270.0</ele><time>2026-04-11T13:51:57Z</time></trkpt><trkpt lat="40.30322043762025" lon="9.569596167268864"><ele>270.0</ele><time>2026-04-11T13:51:58Z</time></trkpt><trkpt lat="40.303170454332744" lon="9.569775695649652"><ele>270.0</ele><time>2026-04-11T13:51:59Z</time></trkpt><trkpt lat="40.30313997120731" lon="9.56995242457039"><ele>270.25</ele><time>2026-04-11T13:52:00Z</time></trkpt><trkpt lat="40.30314941641997" lon="9.570128982115131"><ele>270.5</ele><time>2026-04-11T13:52:01Z</time></trkpt><trkpt lat="40.30319450199969" lon="9.570287579636872"><ele>270.75</ele><time>2026-04-11T13:52:02Z</time></trkpt><trkpt lat="40.30325639122914" lon="9.5704296666976"><ele>271.0</ele><time>2026-04-11T13:52:03Z</time></trkpt><trkpt lat="40.303301808538336" lon="9.570566393723526"><ele>272.75</ele><time>2026-04-11T13:52:04Z</time></trkpt><trkpt lat="40.303335847380836" lon="9.570711665598742"><ele>274.5</ele><time>2026-04-11T13:52:05Z</time></trkpt><trkpt lat="40.30335369300186" lon="9.570864622421176"><ele>276.25</ele><time>2026-04-11T13:52:06Z</time></trkpt><trkpt lat="40.303344058440025" lon="9.571030436788467"><ele>278.0</ele><time>2026-04-11T13:52:07Z</time></trkpt><trkpt lat="40.3033201672066" lon="9.571208240457404"><ele>278.25</ele><time>2026-04-11T13:52:08Z</time></trkpt><trkpt lat="40.303295289239976" lon="9.571393350504945"><ele>278.5</ele><time>2026-04-11T13:52:09Z</time></trkpt><trkpt lat="40.3032712173259" lon="9.571578643335503"><ele>278.75</ele><time>2026-04-11T13:52:10Z</time></trkpt><trkpt lat="40.30324569959803" lon="9.571740080497332"><ele>279.0</ele><time>2026-04-11T13:52:11Z</time></trkpt><trkpt lat="40.3032158018884" lon="9.571883255090105"><ele>279.0</ele><time>2026-04-11T13:52:12Z</time></trkpt><trkpt lat="40.303179301297725" lon="9.571998535845793"><ele>279.0</ele><time>2026-04-11T13:52:13Z</time></trkpt><trkpt lat="40.303131757794596" lon="9.572072156968312"><ele>279.0</ele><time>2026-04-11T13:52:14Z</time></trkpt><trkpt lat="40.30305106746033" lon="9.57213374134333"><ele>279.0</ele><time>2026-04-11T13:52:16Z</time></trkpt><trkpt lat="40.30298563805276" lon="9.572117387740157"><ele>279.0</ele><time>2026-04-11T13:52:19Z</time></trkpt><trkpt lat="40.30292568802089" lon="9.571974094136099"><ele>280.8</ele><time>2026-04-11T13:52:21Z</time></trkpt><trkpt lat="40.30289963360486" lon="9.571870147520864"><ele>282.59999999999997</ele><time>2026-04-11T13:52:22Z</time></trkpt><trkpt lat="40.30284589890588" lon="9.571811604385626"><ele>284.4</ele><time>2026-04-11T13:52:23Z</time></trkpt><trkpt lat="40.30275779440174" lon="9.571770338248804"><ele>286.2</ele><time>2026-04-11T13:52:24Z</time></trkpt><trkpt lat="40.302625982894" lon="9.571738552699475"><ele>288.0</ele><time>2026-04-11T13:52:25Z</time></trkpt><trkpt lat="40.30246733960229" lon="9.571700220522132"><ele>288.0</ele><time>2026-04-11T13:52:26Z</time></trkpt><trkpt lat="40.30231999063226" lon="9.571661892449022"><ele>288.0</ele><time>2026-04-11T13:52:27Z</time></trkpt><trkpt lat="40.30214654879138" lon="9.571620814375656"><ele>288.0</ele><time>2026-04-11T13:52:28Z</time></trkpt><trkpt lat="40.30198149401035" lon="9.571567438270376"><ele>289.3333333333333</ele><time>2026-04-11T13:52:29Z</time></trkpt><trkpt lat="40.30182170011481" lon="9.57147999713262"><ele>290.66666666666663</ele><time>2026-04-11T13:52:30Z</time></trkpt><trkpt lat="40.301678539132354" lon="9.571332282857897"><ele>292.0</ele><time>2026-04-11T13:52:31Z</time></trkpt><trkpt lat="40.301572146588185" lon="9.571144802602566"><ele>292.0</ele><time>2026-04-11T13:52:32Z</time></trkpt><trkpt lat="40.30147615713371" lon="9.570969379347748"><ele>292.0</ele><time>2026-04-11T13:52:33Z</time></trkpt><trkpt lat="40.30137637712483" lon="9.570832552303726"><ele>292.0</ele><time>2026-04-11T13:52:34Z</time></trkpt><trkpt lat="40.30125132288852" lon="9.570760449685539"><ele>292.0</ele><time>2026-04-11T13:52:35Z</time></trkpt><trkpt lat="40.301119678545355" lon="9.570774171776202"><ele>291.25</ele><time>2026-04-11T13:52:36Z</time></trkpt><trkpt lat="40.301005701322055" lon="9.570865428066899"><ele>290.5</ele><time>2026-04-11T13:52:37Z</time></trkpt><trkpt lat="40.30093307087044" lon="9.571023822209442"><ele>289.75</ele><time>2026-04-11T13:52:38Z</time></trkpt><trkpt lat="40.3008950226334" lon="9.571209358589343"><ele>289.0</ele><time>2026-04-11T13:52:39Z</time></trkpt><trkpt lat="40.30086649265388" lon="9.57143003464017"><ele>291.66666666666663</ele><time>2026-04-11T13:52:40Z</time></trkpt><trkpt lat="40.300835638568564" lon="9.571664191409997"><ele>294.3333333333333</ele><time>2026-04-11T13:52:41Z</time></trkpt><trkpt lat="40.300789150707985" lon="9.571908968913139"><ele>297.0</ele><time>2026-04-11T13:52:42Z</time></trkpt><trkpt lat="40.30071607698759" lon="9.572153191814165"><ele>296.6666666666667</ele><time>2026-04-11T13:52:43Z</time></trkpt><trkpt lat="40.30061455904917" lon="9.572394004076346"><ele>296.33333333333337</ele><time>2026-04-11T13:52:44Z</time></trkpt><trkpt lat="40.30049729750277" lon="9.572611675014123"><ele>296.0</ele><time>2026-04-11T13:52:45Z</time></trkpt><trkpt lat="40.30036764165841" lon="9.572831311624233"><ele>299.0</ele><time>2026-04-11T13:52:46Z</time></trkpt><trkpt lat="40.3002361630133" lon="9.573043973786229"><ele>302.0</ele><time>2026-04-11T13:52:47Z</time></trkpt><trkpt lat="40.30010924462694" lon="9.573252477567701"><ele>305.0</ele><time>2026-04-11T13:52:48Z</time></trkpt><trkpt lat="40.29999719882106" lon="9.573462400081057"><ele>305.0</ele><time>2026-04-11T13:52:49Z</time></trkpt><trkpt lat="40.29991960814046" lon="9.573679252405602"><ele>305.0</ele><time>2026-04-11T13:52:50Z</time></trkpt><trkpt lat="40.29987981669773" lon="9.573915747644358"><ele>305.0</ele><time>2026-04-11T13:52:51Z</time></trkpt><trkpt lat="40.299855293997965" lon="9.57416475022984"><ele>308.0</ele><time>2026-04-11T13:52:52Z</time></trkpt><trkpt lat="40.29980784135166" lon="9.574416953944109"><ele>311.0</ele><time>2026-04-11T13:52:53Z</time></trkpt><trkpt lat="40.29973328917457" lon="9.574669695398516"><ele>314.0</ele><time>2026-04-11T13:52:54Z</time></trkpt><trkpt lat="40.29963610937024" lon="9.574919290112412"><ele>314.33333333333337</ele><time>2026-04-11T13:52:55Z</time></trkpt><trkpt lat="40.299521936964204" lon="9.575166221192235"><ele>314.6666666666667</ele><time>2026-04-11T13:52:56Z</time></trkpt><trkpt lat="40.29940385349115" lon="9.57541612759366"><ele>315.0</ele><time>2026-04-11T13:52:57Z</time></trkpt><trkpt lat="40.299286192777906" lon="9.57567206446251"><ele>317.6666666666667</ele><time>2026-04-11T13:52:58Z</time></trkpt><trkpt lat="40.29917157015572" lon="9.575927235747816"><ele>320.33333333333337</ele><time>2026-04-11T13:52:59Z</time></trkpt><trkpt lat="40.29905967126634" lon="9.576178425923953"><ele>323.0</ele><time>2026-04-11T13:53:00Z</time></trkpt><trkpt lat="40.29895333785556" lon="9.576433817090612"><ele>324.33333333333337</ele><time>2026-04-11T13:53:01Z</time></trkpt><trkpt lat="40.29885395010936" lon="9.576688662515373"><ele>325.6666666666667</ele><time>2026-04-11T13:53:02Z</time></trkpt><trkpt lat="40.29874910912545" lon="9.576931227748105"><ele>327.0</ele><time>2026-04-11T13:53:03Z</time></trkpt><trkpt lat="40.2986281009113" lon="9.577148145307786"><ele>328.6666666666667</ele><time>2026-04-11T13:53:04Z</time></trkpt><trkpt lat="40.29850421254353" lon="9.577341088451593"><ele>330.33333333333337</ele><time>2026-04-11T13:53:05Z</time></trkpt><trkpt lat="40.298384438990595" lon="9.57751168651373"><ele>332.0</ele><time>2026-04-11T13:53:06Z</time></trkpt><trkpt lat="40.298261894361964" lon="9.577648956323205"><ele>332.0</ele><time>2026-04-11T13:53:07Z</time></trkpt><trkpt lat="40.29812330657021" lon="9.577733018396863"><ele>332.0</ele><time>2026-04-11T13:53:08Z</time></trkpt><trkpt lat="40.29798823049442" lon="9.577743208315884"><ele>332.0</ele><time>2026-04-11T13:53:09Z</time></trkpt><trkpt lat="40.29787011301842" lon="9.577678264872887"><ele>332.0</ele><time>2026-04-11T13:53:10Z</time></trkpt><trkpt lat="40.29776964403976" lon="9.577565512332434"><ele>332.75</ele><time>2026-04-11T13:53:11Z</time></trkpt><trkpt lat="40.29766570657162" lon="9.577441986977382"><ele>333.5</ele><time>2026-04-11T13:53:12Z</time></trkpt><trkpt lat="40.29754770364795" lon="9.57736965193667"><ele>334.25</ele><time>2026-04-11T13:53:13Z</time></trkpt><trkpt lat="40.29741255287812" lon="9.577368359266098"><ele>335.0</ele><time>2026-04-11T13:53:14Z</time></trkpt><trkpt lat="40.297284419822965" lon="9.577423949725686"><ele>335.75</ele><time>2026-04-11T13:53:15Z</time></trkpt><trkpt lat="40.29716679502231" lon="9.57748219612781"><ele>336.5</ele><time>2026-04-11T13:53:16Z</time></trkpt><trkpt lat="40.297051213815415" lon="9.5775464315438"><ele>337.25</ele><time>2026-04-11T13:53:17Z</time></trkpt><trkpt lat="40.29694344349861" lon="9.577621577643729"><ele>338.0</ele><time>2026-04-11T13:53:18Z</time></trkpt><trkpt lat="40.2968464417623" lon="9.577711531780164"><ele>338.0</ele><time>2026-04-11T13:53:19Z</time></trkpt><trkpt lat="40.296756248340394" lon="9.577812267838809"><ele>338.0</ele><time>2026-04-11T13:53:20Z</time></trkpt><trkpt lat="40.296678495950175" lon="9.577927339589918"><ele>338.0</ele><time>2026-04-11T13:53:21Z</time></trkpt><trkpt lat="40.296610222784395" lon="9.57805690513433"><ele>338.0</ele><time>2026-04-11T13:53:22Z</time></trkpt><trkpt lat="40.29655414373904" lon="9.578199573714937"><ele>339.75</ele><time>2026-04-11T13:53:23Z</time></trkpt><trkpt lat="40.29651733683628" lon="9.578355450064862"><ele>341.5</ele><time>2026-04-11T13:53:24Z</time></trkpt><trkpt lat="40.29649675725766" lon="9.57852199264133"><ele>343.25</ele><time>2026-04-11T13:53:25Z</time></trkpt><trkpt lat="40.29649045710726" lon="9.578693252679441"><ele>345.0</ele><time>2026-04-11T13:53:26Z</time></trkpt><trkpt lat="40.296497773667035" lon="9.578870608695837"><ele>345.0</ele><time>2026-04-11T13:53:27Z</time></trkpt><trkpt lat="40.296516399529324" lon="9.579048060829178"><ele>345.0</ele><time>2026-04-11T13:53:28Z</time></trkpt><trkpt lat="40.296538426454894" lon="9.579229708621668"><ele>345.0</ele><time>2026-04-11T13:53:29Z</time></trkpt><trkpt lat="40.29655675917671" lon="9.579412477696746"><ele>345.0</ele><time>2026-04-11T13:53:30Z</time></trkpt><trkpt lat="40.2965765535438" lon="9.579596660622505"><ele>345.5</ele><time>2026-04-11T13:53:31Z</time></trkpt><trkpt lat="40.296588671303994" lon="9.57978276184092"><ele>346.0</ele><time>2026-04-11T13:53:32Z</time></trkpt><trkpt lat="40.296577909039314" lon="9.579965176176348"><ele>346.5</ele><time>2026-04-11T13:53:33Z</time></trkpt><trkpt lat="40.29651563141976" lon="9.580127159298305"><ele>347.0</ele><time>2026-04-11T13:53:34Z</time></trkpt><trkpt lat="40.29645641988436" lon="9.58028299983902"><ele>347.25</ele><time>2026-04-11T13:53:35Z</time></trkpt><trkpt lat="40.296375058780534" lon="9.580423728480085"><ele>347.5</ele><time>2026-04-11T13:53:36Z</time></trkpt><trkpt lat="40.296301840207796" lon="9.580568928660231"><ele>347.75</ele><time>2026-04-11T13:53:37Z</time></trkpt><trkpt lat="40.29623748609827" lon="9.580710103974589"><ele>348.0</ele><time>2026-04-11T13:53:38Z</time></trkpt><trkpt lat="40.2961921837943" lon="9.580858056082395"><ele>348.0</ele><time>2026-04-11T13:53:39Z</time></trkpt><trkpt lat="40.29616722088676" lon="9.581014216903657"><ele>348.0</ele><time>2026-04-11T13:53:40Z</time></trkpt><trkpt lat="40.29614944186715" lon="9.581178593437524"><ele>348.0</ele><time>2026-04-11T13:53:41Z</time></trkpt><trkpt lat="40.29613484584512" lon="9.58134803053244"><ele>348.0</ele><time>2026-04-11T13:53:42Z</time></trkpt><trkpt lat="40.296127430320574" lon="9.581519313050828"><ele>349.0</ele><time>2026-04-11T13:53:43Z</time></trkpt><trkpt lat="40.296126432799156" lon="9.581689177344277"><ele>350.0</ele><time>2026-04-11T13:53:44Z</time></trkpt><trkpt lat="40.296132677092196" lon="9.581854221091938"><ele>351.0</ele><time>2026-04-11T13:53:45Z</time></trkpt><trkpt lat="40.29614463643179" lon="9.582014964720475"><ele>352.0</ele><time>2026-04-11T13:53:46Z</time></trkpt><trkpt lat="40.29615584379447" lon="9.582174240306868"><ele>352.0</ele><time>2026-04-11T13:53:47Z</time></trkpt><trkpt lat="40.296164156903416" lon="9.582332731061214"><ele>352.0</ele><time>2026-04-11T13:53:48Z</time></trkpt><trkpt lat="40.29617363221568" lon="9.582492032284321"><ele>352.0</ele><time>2026-04-11T13:53:49Z</time></trkpt><trkpt lat="40.29618033214833" lon="9.582655258203278"><ele>352.0</ele><time>2026-04-11T13:53:50Z</time></trkpt><trkpt lat="40.2961863507665" lon="9.582822624643352"><ele>353.75</ele><time>2026-04-11T13:53:51Z</time></trkpt><trkpt lat="40.296198371965836" lon="9.582988762712674"><ele>355.5</ele><time>2026-04-11T13:53:52Z</time></trkpt><trkpt lat="40.29620865536247" lon="9.583145013483671"><ele>357.25</ele><time>2026-04-11T13:53:53Z</time></trkpt><trkpt lat="40.29621572465073" lon="9.583287521341736"><ele>359.0</ele><time>2026-04-11T13:53:54Z</time></trkpt><trkpt lat="40.29622540887324" lon="9.58341648808822"><ele>359.0</ele><time>2026-04-11T13:53:55Z</time></trkpt><trkpt lat="40.29623424853374" lon="9.5835359667997"><ele>359.0</ele><time>2026-04-11T13:53:56Z</time></trkpt><trkpt lat="40.29622185586431" lon="9.58364366783474"><ele>359.0</ele><time>2026-04-11T13:53:57Z</time></trkpt><trkpt lat="40.29616915467254" lon="9.583729685195207"><ele>359.0</ele><time>2026-04-11T13:53:58Z</time></trkpt><trkpt lat="40.296084044035474" lon="9.583787802842823"><ele>359.0</ele><time>2026-04-11T13:53:59Z</time></trkpt><trkpt lat="40.295979888865055" lon="9.583814080105157"><ele>360.75</ele><time>2026-04-11T13:54:00Z</time></trkpt><trkpt lat="40.295870098064334" lon="9.583828980286022"><ele>362.5</ele><time>2026-04-11T13:54:01Z</time></trkpt><trkpt lat="40.295748066648116" lon="9.583849139060058"><ele>364.25</ele><time>2026-04-11T13:54:02Z</time></trkpt><trkpt lat="40.295622353271774" lon="9.583870400036304"><ele>366.0</ele><time>2026-04-11T13:54:03Z</time></trkpt><trkpt lat="40.29549797517515" lon="9.583886051092653"><ele>366.0</ele><time>2026-04-11T13:54:04Z</time></trkpt><trkpt lat="40.29536770944016" lon="9.58388693201598"><ele>366.0</ele><time>2026-04-11T13:54:05Z</time></trkpt><trkpt lat="40.29523167008355" lon="9.58387476170909"><ele>366.0</ele><time>2026-04-11T13:54:06Z</time></trkpt><trkpt lat="40.29509102167124" lon="9.583847133375953"><ele>366.0</ele><time>2026-04-11T13:54:07Z</time></trkpt><trkpt lat="40.29495199161594" lon="9.58379970252455"><ele>366.0</ele><time>2026-04-11T13:54:08Z</time></trkpt><trkpt lat="40.2948130773454" lon="9.583740175759864"><ele>366.0</ele><time>2026-04-11T13:54:09Z</time></trkpt><trkpt lat="40.2946721186714" lon="9.583681671235922"><ele>366.0</ele><time>2026-04-11T13:54:10Z</time></trkpt><trkpt lat="40.29453217686795" lon="9.583624340156376"><ele>366.0</ele><time>2026-04-11T13:54:11Z</time></trkpt><trkpt lat="40.294391639569234" lon="9.583569519764405"><ele>365.25</ele><time>2026-04-11T13:54:12Z</time></trkpt><trkpt lat="40.294248570809394" lon="9.583517239789758"><ele>364.5</ele><time>2026-04-11T13:54:13Z</time></trkpt><trkpt lat="40.29410814583756" lon="9.583462986367302"><ele>363.75</ele><time>2026-04-11T13:54:14Z</time></trkpt><trkpt lat="40.29397636523638" lon="9.58340271678409"><ele>363.0</ele><time>2026-04-11T13:54:15Z</time></trkpt><trkpt lat="40.293841037176136" lon="9.583341172183424"><ele>362.25</ele><time>2026-04-11T13:54:16Z</time></trkpt><trkpt lat="40.29370458926576" lon="9.583283863995886"><ele>361.5</ele><time>2026-04-11T13:54:17Z</time></trkpt><trkpt lat="40.293565284485396" lon="9.583230211720917"><ele>360.75</ele><time>2026-04-11T13:54:18Z</time></trkpt><trkpt lat="40.29342582405892" lon="9.583173943450117"><ele>360.0</ele><time>2026-04-11T13:54:19Z</time></trkpt><trkpt lat="40.29328618891552" lon="9.58312129998252"><ele>360.0</ele><time>2026-04-11T13:54:20Z</time></trkpt><trkpt lat="40.29314519927179" lon="9.583110890574572"><ele>360.0</ele><time>2026-04-11T13:54:21Z</time></trkpt><trkpt lat="40.29300999443141" lon="9.583155930210355"><ele>360.0</ele><time>2026-04-11T13:54:22Z</time></trkpt><trkpt lat="40.29288986846583" lon="9.583256178459967"><ele>360.0</ele><time>2026-04-11T13:54:23Z</time></trkpt><trkpt lat="40.292782709529845" lon="9.583396618284608"><ele>358.0</ele><time>2026-04-11T13:54:24Z</time></trkpt><trkpt lat="40.2926806507572" lon="9.583551414241754"><ele>356.0</ele><time>2026-04-11T13:54:25Z</time></trkpt><trkpt lat="40.292582764469564" lon="9.583715400832842"><ele>354.0</ele><time>2026-04-11T13:54:26Z</time></trkpt><trkpt lat="40.29248191028552" lon="9.583891044419138"><ele>354.0</ele><time>2026-04-11T13:54:27Z</time></trkpt><trkpt lat="40.292382215108056" lon="9.584068947471291"><ele>354.0</ele><time>2026-04-11T13:54:28Z</time></trkpt><trkpt lat="40.29228251427973" lon="9.584249646772367"><ele>354.0</ele><time>2026-04-11T13:54:29Z</time></trkpt><trkpt lat="40.29218454719381" lon="9.584428791180986"><ele>355.3333333333333</ele><time>2026-04-11T13:54:30Z</time></trkpt><trkpt lat="40.29208389910693" lon="9.58460668382202"><ele>356.66666666666663</ele><time>2026-04-11T13:54:31Z</time></trkpt><trkpt lat="40.29198510895513" lon="9.584777190434096"><ele>358.0</ele><time>2026-04-11T13:54:32Z</time></trkpt><trkpt lat="40.29189138542853" lon="9.584946302449353"><ele>358.0</ele><time>2026-04-11T13:54:33Z</time></trkpt><trkpt lat="40.29180889681227" lon="9.58509620739446"><ele>358.0</ele><time>2026-04-11T13:54:34Z</time></trkpt><trkpt lat="40.291715603040785" lon="9.585223417052484"><ele>358.0</ele><time>2026-04-11T13:54:35Z</time></trkpt><trkpt lat="40.29161057908225" lon="9.58531099044713"><ele>358.0</ele><time>2026-04-11T13:54:36Z</time></trkpt><trkpt lat="40.29149475844779" lon="9.585336142398187"><ele>360.75</ele><time>2026-04-11T13:54:37Z</time></trkpt><trkpt lat="40.291384028583195" lon="9.58529195984112"><ele>363.5</ele><time>2026-04-11T13:54:38Z</time></trkpt><trkpt lat="40.29129487541716" lon="9.585182297448512"><ele>366.25</ele><time>2026-04-11T13:54:39Z</time></trkpt><trkpt lat="40.29123726049898" lon="9.585024949191691"><ele>369.0</ele><time>2026-04-11T13:54:40Z</time></trkpt><trkpt lat="40.291226619362966" lon="9.584831690558852"><ele>369.0</ele><time>2026-04-11T13:54:41Z</time></trkpt><trkpt lat="40.291216929532034" lon="9.584635562295164"><ele>369.0</ele><time>2026-04-11T13:54:42Z</time></trkpt><trkpt lat="40.29120315376547" lon="9.584437206761887"><ele>369.0</ele><time>2026-04-11T13:54:43Z</time></trkpt><trkpt lat="40.29118754312268" lon="9.584234861500796"><ele>369.0</ele><time>2026-04-11T13:54:44Z</time></trkpt><trkpt lat="40.291173526970354" lon="9.584035824282243"><ele>369.0</ele><time>2026-04-11T13:54:45Z</time></trkpt><trkpt lat="40.29115465098254" lon="9.583843418531291"><ele>369.0</ele><time>2026-04-11T13:54:46Z</time></trkpt><trkpt lat="40.29110432888509" lon="9.583664593711298"><ele>369.0</ele><time>2026-04-11T13:54:47Z</time></trkpt><trkpt lat="40.291014120220325" lon="9.583508935768252"><ele>368.25</ele><time>2026-04-11T13:54:48Z</time></trkpt><trkpt lat="40.29091196676442" lon="9.583358878388935"><ele>367.5</ele><time>2026-04-11T13:54:49Z</time></trkpt><trkpt lat="40.290821609588434" lon="9.583218057772038"><ele>366.75</ele><time>2026-04-11T13:54:50Z</time></trkpt><trkpt lat="40.29072652822449" lon="9.583090796921764"><ele>366.0</ele><time>2026-04-11T13:54:51Z</time></trkpt><trkpt lat="40.29061580670578" lon="9.582990254177153"><ele>366.75</ele><time>2026-04-11T13:54:52Z</time></trkpt><trkpt lat="40.29048775385132" lon="9.582922014895832"><ele>367.5</ele><time>2026-04-11T13:54:53Z</time></trkpt><trkpt lat="40.290345887923834" lon="9.582889071628564"><ele>368.25</ele><time>2026-04-11T13:54:54Z</time></trkpt><trkpt lat="40.29020055160354" lon="9.582884525578379"><ele>369.0</ele><time>2026-04-11T13:54:55Z</time></trkpt><trkpt lat="40.29006709304905" lon="9.582898664782851"><ele>369.0</ele><time>2026-04-11T13:54:56Z</time></trkpt><trkpt lat="40.28995414930248" lon="9.582924175468744"><ele>369.0</ele><time>2026-04-11T13:54:57Z</time></trkpt><trkpt lat="40.28986149622168" lon="9.582950089511865"><ele>369.0</ele><time>2026-04-11T13:54:58Z</time></trkpt><trkpt lat="40.28977306355545" lon="9.582957619833815"><ele>369.0</ele><time>2026-04-11T13:54:59Z</time></trkpt><trkpt lat="40.289683036876525" lon="9.582954426302912"><ele>369.0</ele><time>2026-04-11T13:55:00Z</time></trkpt><trkpt lat="40.289579025952236" lon="9.582984420880246"><ele>367.0</ele><time>2026-04-11T13:55:01Z</time></trkpt><trkpt lat="40.289467704915836" lon="9.583059576227143"><ele>365.0</ele><time>2026-04-11T13:55:02Z</time></trkpt><trkpt lat="40.289356112940716" lon="9.583162027996615"><ele>363.0</ele><time>2026-04-11T13:55:03Z</time></trkpt><trkpt lat="40.28925876284832" lon="9.583296546659534"><ele>361.0</ele><time>2026-04-11T13:55:04Z</time></trkpt><trkpt lat="40.28917830597271" lon="9.583457703075512"><ele>361.0</ele><time>2026-04-11T13:55:05Z</time></trkpt><trkpt lat="40.289100983899885" lon="9.583636480728604"><ele>361.0</ele><time>2026-04-11T13:55:06Z</time></trkpt><trkpt lat="40.289021604460586" lon="9.583820378020135"><ele>361.0</ele><time>2026-04-11T13:55:07Z</time></trkpt><trkpt lat="40.288939854761196" lon="9.584008500729663"><ele>363.0</ele><time>2026-04-11T13:55:08Z</time></trkpt><trkpt lat="40.28885193923211" lon="9.584195597456466"><ele>365.0</ele><time>2026-04-11T13:55:09Z</time></trkpt><trkpt lat="40.28875411080556" lon="9.584362288685552"><ele>367.0</ele><time>2026-04-11T13:55:10Z</time></trkpt><trkpt lat="40.28864404057471" lon="9.584512845196397"><ele>370.66666666666663</ele><time>2026-04-11T13:55:11Z</time></trkpt><trkpt lat="40.28852094973082" lon="9.584642221707647"><ele>374.3333333333333</ele><time>2026-04-11T13:55:12Z</time></trkpt><trkpt lat="40.28837531161537" lon="9.584731678743344"><ele>378.0</ele><time>2026-04-11T13:55:13Z</time></trkpt><trkpt lat="40.288236701023806" lon="9.584843476925851"><ele>378.0</ele><time>2026-04-11T13:55:14Z</time></trkpt><trkpt lat="40.28809931753213" lon="9.584966317218885"><ele>378.0</ele><time>2026-04-11T13:55:15Z</time></trkpt><trkpt lat="40.28796613521426" lon="9.58509007173484"><ele>378.0</ele><time>2026-04-11T13:55:16Z</time></trkpt><trkpt lat="40.287841594264" lon="9.585230329017124"><ele>383.33333333333337</ele><time>2026-04-11T13:55:17Z</time></trkpt><trkpt lat="40.28770952655967" lon="9.585359309260028"><ele>388.6666666666667</ele><time>2026-04-11T13:55:18Z</time></trkpt><trkpt lat="40.28758254409972" lon="9.585487769088145"><ele>394.0</ele><time>2026-04-11T13:55:19Z</time></trkpt><trkpt lat="40.28744836603453" lon="9.585612270364258"><ele>394.0</ele><time>2026-04-11T13:55:20Z</time></trkpt><trkpt lat="40.287313489972185" lon="9.58572383296912"><ele>394.0</ele><time>2026-04-11T13:55:21Z</time></trkpt><trkpt lat="40.287171826294376" lon="9.585823500528731"><ele>394.0</ele><time>2026-04-11T13:55:22Z</time></trkpt><trkpt lat="40.28703086990739" lon="9.58590107766748"><ele>395.25</ele><time>2026-04-11T13:55:23Z</time></trkpt><trkpt lat="40.28689342842556" lon="9.585944266419805"><ele>396.5</ele><time>2026-04-11T13:55:24Z</time></trkpt><trkpt lat="40.286756085892605" lon="9.585951034028293"><ele>397.75</ele><time>2026-04-11T13:55:25Z</time></trkpt><trkpt lat="40.28661868403803" lon="9.585938912707537"><ele>399.0</ele><time>2026-04-11T13:55:26Z</time></trkpt><trkpt lat="40.28647348098959" lon="9.585924321994852"><ele>400.0</ele><time>2026-04-11T13:55:27Z</time></trkpt><trkpt lat="40.28632998371941" lon="9.585921602021985"><ele>401.0</ele><time>2026-04-11T13:55:28Z</time></trkpt><trkpt lat="40.28619644038774" lon="9.585918708640701"><ele>402.0</ele><time>2026-04-11T13:55:29Z</time></trkpt><trkpt lat="40.286079937410385" lon="9.58591163746152"><ele>403.0</ele><time>2026-04-11T13:55:30Z</time></trkpt><trkpt lat="40.28596933897158" lon="9.585903732225518"><ele>403.0</ele><time>2026-04-11T13:55:31Z</time></trkpt><trkpt lat="40.28585947786765" lon="9.58591090468456"><ele>403.0</ele><time>2026-04-11T13:55:32Z</time></trkpt><trkpt lat="40.285746252427245" lon="9.585921350562554"><ele>403.0</ele><time>2026-04-11T13:55:33Z</time></trkpt><trkpt lat="40.285637909014035" lon="9.585959130441605"><ele>403.0</ele><time>2026-04-11T13:55:34Z</time></trkpt><trkpt lat="40.28553207061791" lon="9.586007598007447"><ele>403.0</ele><time>2026-04-11T13:55:35Z</time></trkpt><trkpt lat="40.28546049346046" lon="9.586117272436399"><ele>404.0</ele><time>2026-04-11T13:55:36Z</time></trkpt><trkpt lat="40.28540883551435" lon="9.58623183294599"><ele>405.0</ele><time>2026-04-11T13:55:37Z</time></trkpt><trkpt lat="40.28537262161577" lon="9.58635640475329"><ele>406.0</ele><time>2026-04-11T13:55:38Z</time></trkpt><trkpt lat="40.28535519881654" lon="9.586488423300711"><ele>407.0</ele><time>2026-04-11T13:55:39Z</time></trkpt><trkpt lat="40.28535892434225" lon="9.58661893490483"><ele>408.0</ele><time>2026-04-11T13:55:40Z</time></trkpt><trkpt lat="40.285368713257505" lon="9.586741838843885"><ele>408.0</ele><time>2026-04-11T13:55:41Z</time></trkpt><trkpt lat="40.28537268480716" lon="9.58685588674546"><ele>408.0</ele><time>2026-04-11T13:55:42Z</time></trkpt><trkpt lat="40.285376039251936" lon="9.586957504436082"><ele>408.0</ele><time>2026-04-11T13:55:43Z</time></trkpt><trkpt lat="40.285382876630614" lon="9.587104063182187"><ele>408.0</ele><time>2026-04-11T13:55:45Z</time></trkpt><trkpt lat="40.28538985508945" lon="9.58724043803887"><ele>408.0</ele><time>2026-04-11T13:55:47Z</time></trkpt><trkpt lat="40.2853966093885" lon="9.587347851227003"><ele>408.2</ele><time>2026-04-11T13:55:48Z</time></trkpt><trkpt lat="40.28541437061466" lon="9.587479051464088"><ele>408.4</ele><time>2026-04-11T13:55:49Z</time></trkpt><trkpt lat="40.285398239404785" lon="9.587625527813564"><ele>408.59999999999997</ele><time>2026-04-11T13:55:50Z</time></trkpt><trkpt lat="40.28541911175087" lon="9.587770290988125"><ele>408.79999999999995</ele><time>2026-04-11T13:55:51Z</time></trkpt><trkpt lat="40.28542123725924" lon="9.587920841634926"><ele>409.0</ele><time>2026-04-11T13:55:52Z</time></trkpt><trkpt lat="40.28542477748368" lon="9.588075626973984"><ele>409.33333333333337</ele><time>2026-04-11T13:55:53Z</time></trkpt><trkpt lat="40.285420531117055" lon="9.588263829461013"><ele>409.66666666666663</ele><time>2026-04-11T13:55:54Z</time></trkpt><trkpt lat="40.28543970385615" lon="9.588496175692544"><ele>410.0</ele><time>2026-04-11T13:55:55Z</time></trkpt><trkpt lat="40.285472615120334" lon="9.588724238645751"><ele>410.3333333333333</ele><time>2026-04-11T13:55:56Z</time></trkpt><trkpt lat="40.285504648264435" lon="9.588949731452571"><ele>410.66666666666663</ele><time>2026-04-11T13:55:57Z</time></trkpt><trkpt lat="40.285537097200844" lon="9.589179339329426"><ele>411.0</ele><time>2026-04-11T13:55:58Z</time></trkpt><trkpt lat="40.28557742905059" lon="9.589399261756068"><ele>412.66666666666663</ele><time>2026-04-11T13:55:59Z</time></trkpt><trkpt lat="40.2855772490578" lon="9.589619478478616"><ele>414.3333333333333</ele><time>2026-04-11T13:56:00Z</time></trkpt><trkpt lat="40.28555748964571" lon="9.589835929925874"><ele>416.0</ele><time>2026-04-11T13:56:01Z</time></trkpt><trkpt lat="40.28552005895693" lon="9.590044879862884"><ele>416.0</ele><time>2026-04-11T13:56:02Z</time></trkpt><trkpt lat="40.28545727126471" lon="9.59024036941981"><ele>416.0</ele><time>2026-04-11T13:56:03Z</time></trkpt><trkpt lat="40.28534683196084" lon="9.59040620234892"><ele>416.0</ele><time>2026-04-11T13:56:04Z</time></trkpt><trkpt lat="40.2852431203758" lon="9.590588577044574"><ele>422.0</ele><time>2026-04-11T13:56:05Z</time></trkpt><trkpt lat="40.285131053863786" lon="9.590752922009676"><ele>428.0</ele><time>2026-04-11T13:56:06Z</time></trkpt><trkpt lat="40.28502593091549" lon="9.590918935881984"><ele>434.0</ele><time>2026-04-11T13:56:07Z</time></trkpt><trkpt lat="40.284924517123585" lon="9.59107194127844"><ele>436.75</ele><time>2026-04-11T13:56:08Z</time></trkpt><trkpt lat="40.28483353284701" lon="9.591208490707501"><ele>439.5</ele><time>2026-04-11T13:56:09Z</time></trkpt><trkpt lat="40.284742719420706" lon="9.591328267575468"><ele>442.25</ele><time>2026-04-11T13:56:10Z</time></trkpt><trkpt lat="40.2846331772056" lon="9.591408217582616"><ele>445.0</ele><time>2026-04-11T13:56:11Z</time></trkpt><trkpt lat="40.284501436875715" lon="9.591437328119511"><ele>447.0</ele><time>2026-04-11T13:56:12Z</time></trkpt><trkpt lat="40.284355386179016" lon="9.591409430297466"><ele>449.0</ele><time>2026-04-11T13:56:13Z</time></trkpt><trkpt lat="40.28420374857567" lon="9.591350991376386"><ele>451.0</ele><time>2026-04-11T13:56:14Z</time></trkpt><trkpt lat="40.28403939971136" lon="9.591300742019405"><ele>455.33333333333337</ele><time>2026-04-11T13:56:15Z</time></trkpt><trkpt lat="40.28386720412101" lon="9.591255148455257"><ele>459.66666666666663</ele><time>2026-04-11T13:56:16Z</time></trkpt><trkpt lat="40.28369075439165" lon="9.591198774066193"><ele>464.0</ele><time>2026-04-11T13:56:17Z</time></trkpt><trkpt lat="40.283513960947005" lon="9.591143229819155"><ele>464.3333333333333</ele><time>2026-04-11T13:56:18Z</time></trkpt><trkpt lat="40.28334042570474" lon="9.59111139952534"><ele>464.66666666666663</ele><time>2026-04-11T13:56:19Z</time></trkpt><trkpt lat="40.2831685110771" lon="9.591124865219152"><ele>465.0</ele><time>2026-04-11T13:56:20Z</time></trkpt><trkpt lat="40.283005262770985" lon="9.591183971879804"><ele>465.0</ele><time>2026-04-11T13:56:21Z</time></trkpt><trkpt lat="40.28284724716291" lon="9.59124343522748"><ele>465.0</ele><time>2026-04-11T13:56:22Z</time></trkpt><trkpt lat="40.28268831305098" lon="9.591248674830926"><ele>465.0</ele><time>2026-04-11T13:56:23Z</time></trkpt><trkpt lat="40.28254697720445" lon="9.591159262980844"><ele>455.66666666666663</ele><time>2026-04-11T13:56:24Z</time></trkpt><trkpt lat="40.28239488958949" lon="9.591094118323095"><ele>446.3333333333333</ele><time>2026-04-11T13:56:25Z</time></trkpt><trkpt lat="40.28223087661072" lon="9.59105018243008"><ele>437.0</ele><time>2026-04-11T13:56:26Z</time></trkpt><trkpt lat="40.28205564960139" lon="9.591038245173847"><ele>436.3333333333333</ele><time>2026-04-11T13:56:27Z</time></trkpt><trkpt lat="40.28187042493631" lon="9.591047742660445"><ele>435.66666666666663</ele><time>2026-04-11T13:56:28Z</time></trkpt><trkpt lat="40.28167770544015" lon="9.591063714329762"><ele>435.0</ele><time>2026-04-11T13:56:29Z</time></trkpt><trkpt lat="40.28148294226349" lon="9.591066762411154"><ele>435.33333333333337</ele><time>2026-04-11T13:56:30Z</time></trkpt><trkpt lat="40.281289187710186" lon="9.591074175288881"><ele>435.6666666666667</ele><time>2026-04-11T13:56:31Z</time></trkpt><trkpt lat="40.2810858403414" lon="9.591111929358417"><ele>436.0</ele><time>2026-04-11T13:56:32Z</time></trkpt><trkpt lat="40.28087992856846" lon="9.591188851261235"><ele>444.6666666666667</ele><time>2026-04-11T13:56:33Z</time></trkpt><trkpt lat="40.28067155241156" lon="9.591277215655653"><ele>453.33333333333337</ele><time>2026-04-11T13:56:34Z</time></trkpt><trkpt lat="40.28045455400696" lon="9.591336894283021"><ele>462.0</ele><time>2026-04-11T13:56:35Z</time></trkpt><trkpt lat="40.280223977903454" lon="9.591363388568597"><ele>462.0</ele><time>2026-04-11T13:56:36Z</time></trkpt><trkpt lat="40.27999149768056" lon="9.591383239564973"><ele>462.0</ele><time>2026-04-11T13:56:37Z</time></trkpt><trkpt lat="40.27975900527923" lon="9.591407016414987"><ele>461.5</ele><time>2026-04-11T13:56:38Z</time></trkpt><trkpt lat="40.27952192121335" lon="9.591434217203165"><ele>461.0</ele><time>2026-04-11T13:56:39Z</time></trkpt><trkpt lat="40.27928214026613" lon="9.591470307841503"><ele>461.0</ele><time>2026-04-11T13:56:40Z</time></trkpt><trkpt lat="40.27903907164527" lon="9.591518826799533"><ele>461.0</ele><time>2026-04-11T13:56:41Z</time></trkpt><trkpt lat="40.2787925829337" lon="9.591577217080571"><ele>453.5</ele><time>2026-04-11T13:56:42Z</time></trkpt><trkpt lat="40.27854397524759" lon="9.591639599911819"><ele>446.0</ele><time>2026-04-11T13:56:43Z</time></trkpt><trkpt lat="40.27830250636378" lon="9.591699811408052"><ele>443.5</ele><time>2026-04-11T13:56:44Z</time></trkpt><trkpt lat="40.27806386569463" lon="9.591761969823901"><ele>441.0</ele><time>2026-04-11T13:56:45Z</time></trkpt><trkpt lat="40.277824880654755" lon="9.591822523266856"><ele>441.0</ele><time>2026-04-11T13:56:46Z</time></trkpt><trkpt lat="40.277582590472186" lon="9.591883866111937"><ele>441.0</ele><time>2026-04-11T13:56:47Z</time></trkpt><trkpt lat="40.27734331840941" lon="9.591948057022718"><ele>456.5</ele><time>2026-04-11T13:56:48Z</time></trkpt><trkpt lat="40.277108340078776" lon="9.592012758582074"><ele>472.0</ele><time>2026-04-11T13:56:49Z</time></trkpt><trkpt lat="40.276886290007745" lon="9.592070704060513"><ele>472.0</ele><time>2026-04-11T13:56:50Z</time></trkpt><trkpt lat="40.27667650495108" lon="9.592123689218203"><ele>472.0</ele><time>2026-04-11T13:56:51Z</time></trkpt><trkpt lat="40.27647394239847" lon="9.592178867426385"><ele>472.0</ele><time>2026-04-11T13:56:52Z</time></trkpt><trkpt lat="40.276277639847905" lon="9.592222456463862"><ele>472.0</ele><time>2026-04-11T13:56:53Z</time></trkpt><trkpt lat="40.276089167637814" lon="9.592231165142106"><ele>472.0</ele><time>2026-04-11T13:56:54Z</time></trkpt><trkpt lat="40.27590620376497" lon="9.592223576696538"><ele>472.0</ele><time>2026-04-11T13:56:55Z</time></trkpt><trkpt lat="40.27572851561786" lon="9.59222715709898"><ele>473.33333333333337</ele><time>2026-04-11T13:56:56Z</time></trkpt><trkpt lat="40.27554565556072" lon="9.592240129908017"><ele>474.66666666666663</ele><time>2026-04-11T13:56:57Z</time></trkpt><trkpt lat="40.27536140492612" lon="9.592243391627601"><ele>476.0</ele><time>2026-04-11T13:56:58Z</time></trkpt><trkpt lat="40.275175555920654" lon="9.592226411745909"><ele>476.0</ele><time>2026-04-11T13:56:59Z</time></trkpt><trkpt lat="40.274997930151116" lon="9.592171416552429"><ele>476.0</ele><time>2026-04-11T13:57:00Z</time></trkpt><trkpt lat="40.27483508801357" lon="9.59207075028488"><ele>476.0</ele><time>2026-04-11T13:57:01Z</time></trkpt><trkpt lat="40.27467463101832" lon="9.591934281031916"><ele>473.3333333333333</ele><time>2026-04-11T13:57:02Z</time></trkpt><trkpt lat="40.27449923792134" lon="9.591776982710217"><ele>470.66666666666663</ele><time>2026-04-11T13:57:03Z</time></trkpt><trkpt lat="40.27431777934887" lon="9.59161032291781"><ele>468.0</ele><time>2026-04-11T13:57:04Z</time></trkpt><trkpt lat="40.27413594744603" lon="9.591440182761573"><ele>468.0</ele><time>2026-04-11T13:57:05Z</time></trkpt><trkpt lat="40.27397557867555" lon="9.591239935617526"><ele>468.0</ele><time>2026-04-11T13:57:06Z</time></trkpt><trkpt lat="40.273820360288894" lon="9.59101878824245"><ele>470.5</ele><time>2026-04-11T13:57:07Z</time></trkpt><trkpt lat="40.27366100930629" lon="9.590793326058346"><ele>473.0</ele><time>2026-04-11T13:57:08Z</time></trkpt><trkpt lat="40.27351098998167" lon="9.59058033510375"><ele>473.0</ele><time>2026-04-11T13:57:09Z</time></trkpt><trkpt lat="40.2733710372643" lon="9.590374635596277"><ele>473.0</ele><time>2026-04-11T13:57:10Z</time></trkpt><trkpt lat="40.2732701853815" lon="9.590164003032525"><ele>473.0</ele><time>2026-04-11T13:57:11Z</time></trkpt><trkpt lat="40.273226998604166" lon="9.58994448500489"><ele>476.3333333333333</ele><time>2026-04-11T13:57:12Z</time></trkpt><trkpt lat="40.273188049459336" lon="9.589684216149749"><ele>479.66666666666663</ele><time>2026-04-11T13:57:13Z</time></trkpt><trkpt lat="40.27314239857567" lon="9.589406833124835"><ele>483.0</ele><time>2026-04-11T13:57:14Z</time></trkpt><trkpt lat="40.273072694023966" lon="9.589150846695834"><ele>483.0</ele><time>2026-04-11T13:57:15Z</time></trkpt><trkpt lat="40.273011037412466" lon="9.588922099335717"><ele>483.0</ele><time>2026-04-11T13:57:16Z</time></trkpt><trkpt lat="40.272922586905544" lon="9.588753877912447"><ele>483.0</ele><time>2026-04-11T13:57:17Z</time></trkpt><trkpt lat="40.27281440455751" lon="9.588617684427758"><ele>476.0</ele><time>2026-04-11T13:57:18Z</time></trkpt><trkpt lat="40.27266878188571" lon="9.588548620958965"><ele>469.0</ele><time>2026-04-11T13:57:19Z</time></trkpt><trkpt lat="40.272534071986335" lon="9.58846258587648"><ele>462.0</ele><time>2026-04-11T13:57:20Z</time></trkpt><trkpt lat="40.272436205858014" lon="9.588311440973557"><ele>462.0</ele><time>2026-04-11T13:57:21Z</time></trkpt><trkpt lat="40.2724657697704" lon="9.588131505309338"><ele>462.0</ele><time>2026-04-11T13:57:22Z</time></trkpt><trkpt lat="40.2724430016354" lon="9.587934261928329"><ele>462.0</ele><time>2026-04-11T13:57:23Z</time></trkpt><trkpt lat="40.272408365698055" lon="9.587761831436367"><ele>462.0</ele><time>2026-04-11T13:57:24Z</time></trkpt><trkpt lat="40.27229814260508" lon="9.587636052707795"><ele>464.66666666666663</ele><time>2026-04-11T13:57:25Z</time></trkpt><trkpt lat="40.27214500730092" lon="9.587530201186036"><ele>467.3333333333333</ele><time>2026-04-11T13:57:26Z</time></trkpt><trkpt lat="40.27197985879767" lon="9.587439618840698"><ele>470.0</ele><time>2026-04-11T13:57:27Z</time></trkpt><trkpt lat="40.27181639166268" lon="9.587365891486634"><ele>470.0</ele><time>2026-04-11T13:57:28Z</time></trkpt><trkpt lat="40.27166711596374" lon="9.587301373311984"><ele>470.0</ele><time>2026-04-11T13:57:29Z</time></trkpt><trkpt lat="40.271540786534366" lon="9.587182010138037"><ele>470.0</ele><time>2026-04-11T13:57:30Z</time></trkpt><trkpt lat="40.27146482973773" lon="9.586990637949695"><ele>475.66666666666663</ele><time>2026-04-11T13:57:31Z</time></trkpt><trkpt lat="40.27136776205428" lon="9.586792035326003"><ele>481.33333333333337</ele><time>2026-04-11T13:57:32Z</time></trkpt><trkpt lat="40.27129216458488" lon="9.586578225700283"><ele>487.0</ele><time>2026-04-11T13:57:33Z</time></trkpt><trkpt lat="40.27123239146513" lon="9.586355240808576"><ele>482.6666666666667</ele><time>2026-04-11T13:57:34Z</time></trkpt><trkpt lat="40.27119476277896" lon="9.58611787352975"><ele>478.33333333333337</ele><time>2026-04-11T13:57:35Z</time></trkpt><trkpt lat="40.271155433011174" lon="9.585875391493218"><ele>474.0</ele><time>2026-04-11T13:57:36Z</time></trkpt><trkpt lat="40.27107889667275" lon="9.58565964014655"><ele>474.0</ele><time>2026-04-11T13:57:37Z</time></trkpt><trkpt lat="40.27104099858446" lon="9.585439591732884"><ele>474.0</ele><time>2026-04-11T13:57:38Z</time></trkpt><trkpt lat="40.27098516042196" lon="9.585239867689985"><ele>474.0</ele><time>2026-04-11T13:57:39Z</time></trkpt><trkpt lat="40.27077010189594" lon="9.585111181166884"><ele>478.5</ele><time>2026-04-11T13:57:40Z</time></trkpt><trkpt lat="40.27072868799171" lon="9.584915808853157"><ele>483.0</ele><time>2026-04-11T13:57:41Z</time></trkpt><trkpt lat="40.270648297043095" lon="9.584768104929005"><ele>487.5</ele><time>2026-04-11T13:57:42Z</time></trkpt><trkpt lat="40.270515187093416" lon="9.584672743821521"><ele>492.0</ele><time>2026-04-11T13:57:43Z</time></trkpt><trkpt lat="40.270359216627185" lon="9.584590085799093"><ele>483.0</ele><time>2026-04-11T13:57:44Z</time></trkpt><trkpt lat="40.270220949937055" lon="9.584468251421262"><ele>474.0</ele><time>2026-04-11T13:57:45Z</time></trkpt><trkpt lat="40.27009460523295" lon="9.584313735205292"><ele>465.0</ele><time>2026-04-11T13:57:46Z</time></trkpt><trkpt lat="40.26996826885487" lon="9.584150125637294"><ele>465.0</ele><time>2026-04-11T13:57:47Z</time></trkpt><trkpt lat="40.26985741425499" lon="9.58397063134609"><ele>465.0</ele><time>2026-04-11T13:57:48Z</time></trkpt><trkpt lat="40.26977100268189" lon="9.583777127122787"><ele>465.0</ele><time>2026-04-11T13:57:49Z</time></trkpt><trkpt lat="40.26967032109948" lon="9.583613450537403"><ele>464.66666666666663</ele><time>2026-04-11T13:57:50Z</time></trkpt><trkpt lat="40.269527910696134" lon="9.583515902247358"><ele>464.3333333333333</ele><time>2026-04-11T13:57:51Z</time></trkpt><trkpt lat="40.26936835151409" lon="9.583481476115235"><ele>464.0</ele><time>2026-04-11T13:57:52Z</time></trkpt><trkpt lat="40.2692226298758" lon="9.58343870051122"><ele>464.0</ele><time>2026-04-11T13:57:53Z</time></trkpt><trkpt lat="40.269110626157385" lon="9.58331357719228"><ele>464.0</ele><time>2026-04-11T13:57:54Z</time></trkpt><trkpt lat="40.26903698779108" lon="9.583117334524058"><ele>464.0</ele><time>2026-04-11T13:57:55Z</time></trkpt><trkpt lat="40.26894294224363" lon="9.582979009319118"><ele>471.3333333333333</ele><time>2026-04-11T13:57:56Z</time></trkpt><trkpt lat="40.26879892946759" lon="9.582930598054185"><ele>478.66666666666663</ele><time>2026-04-11T13:57:57Z</time></trkpt><trkpt lat="40.26864056910195" lon="9.582959204171686"><ele>486.0</ele><time>2026-04-11T13:57:58Z</time></trkpt><trkpt lat="40.26848537233575" lon="9.58297403913479"><ele>486.0</ele><time>2026-04-11T13:57:59Z</time></trkpt><trkpt lat="40.26837344642144" lon="9.58289760743474"><ele>486.0</ele><time>2026-04-11T13:58:00Z</time></trkpt><trkpt lat="40.268287711193075" lon="9.582748670882184"><ele>486.0</ele><time>2026-04-11T13:58:01Z</time></trkpt><trkpt lat="40.268182067953575" lon="9.582584721818067"><ele>486.0</ele><time>2026-04-11T13:58:02Z</time></trkpt><trkpt lat="40.268030007342375" lon="9.582446571322269"><ele>485.0</ele><time>2026-04-11T13:58:03Z</time></trkpt><trkpt lat="40.26785857267874" lon="9.582318779661813"><ele>484.0</ele><time>2026-04-11T13:58:04Z</time></trkpt><trkpt lat="40.26768151674098" lon="9.582177236463638"><ele>483.0</ele><time>2026-04-11T13:58:05Z</time></trkpt><trkpt lat="40.267510292096254" lon="9.582030067330045"><ele>483.66666666666663</ele><time>2026-04-11T13:58:06Z</time></trkpt><trkpt lat="40.26734096504883" lon="9.581884571941321"><ele>484.3333333333333</ele><time>2026-04-11T13:58:07Z</time></trkpt><trkpt lat="40.26717073795804" lon="9.581736152322767"><ele>485.0</ele><time>2026-04-11T13:58:08Z</time></trkpt><trkpt lat="40.26700219722075" lon="9.581586930737334"><ele>485.0</ele><time>2026-04-11T13:58:09Z</time></trkpt><trkpt lat="40.26685910245006" lon="9.581411038526763"><ele>485.0</ele><time>2026-04-11T13:58:10Z</time></trkpt><trkpt lat="40.266753863860146" lon="9.58120327689733"><ele>485.0</ele><time>2026-04-11T13:58:11Z</time></trkpt><trkpt lat="40.26662252810019" lon="9.581033405395868"><ele>483.0</ele><time>2026-04-11T13:58:12Z</time></trkpt><trkpt lat="40.266458348715204" lon="9.580918810195262"><ele>481.0</ele><time>2026-04-11T13:58:13Z</time></trkpt><trkpt lat="40.26627263976343" lon="9.580854082255486"><ele>479.0</ele><time>2026-04-11T13:58:14Z</time></trkpt><trkpt lat="40.26608384280383" lon="9.580776130885097"><ele>479.0</ele><time>2026-04-11T13:58:15Z</time></trkpt><trkpt lat="40.265917435016796" lon="9.580647789419727"><ele>479.0</ele><time>2026-04-11T13:58:16Z</time></trkpt><trkpt lat="40.265785713963744" lon="9.580460815493156"><ele>479.0</ele><time>2026-04-11T13:58:17Z</time></trkpt><trkpt lat="40.26567696453018" lon="9.580251299399292"><ele>478.0</ele><time>2026-04-11T13:58:18Z</time></trkpt><trkpt lat="40.26554898036571" lon="9.580055104868778"><ele>477.0</ele><time>2026-04-11T13:58:19Z</time></trkpt><trkpt lat="40.265426250408055" lon="9.579882791435338"><ele>476.0</ele><time>2026-04-11T13:58:20Z</time></trkpt><trkpt lat="40.26530750809477" lon="9.579749678937294"><ele>476.0</ele><time>2026-04-11T13:58:21Z</time></trkpt><trkpt lat="40.265175389566096" lon="9.579678017512723"><ele>476.0</ele><time>2026-04-11T13:58:22Z</time></trkpt><trkpt lat="40.26503139335881" lon="9.579686342518096"><ele>476.0</ele><time>2026-04-11T13:58:23Z</time></trkpt><trkpt lat="40.264880823144594" lon="9.579789411782903"><ele>477.0</ele><time>2026-04-11T13:58:24Z</time></trkpt><trkpt lat="40.264725090970906" lon="9.579899638922786"><ele>478.0</ele><time>2026-04-11T13:58:25Z</time></trkpt><trkpt lat="40.264563487365685" lon="9.579959045044472"><ele>479.0</ele><time>2026-04-11T13:58:26Z</time></trkpt><trkpt lat="40.26440708282018" lon="9.579881613585304"><ele>479.0</ele><time>2026-04-11T13:58:27Z</time></trkpt><trkpt lat="40.264224381784665" lon="9.579827345617181"><ele>479.0</ele><time>2026-04-11T13:58:28Z</time></trkpt><trkpt lat="40.26404469342581" lon="9.579728179104686"><ele>479.0</ele><time>2026-04-11T13:58:29Z</time></trkpt><trkpt lat="40.263856855124125" lon="9.579674398074003"><ele>481.66666666666663</ele><time>2026-04-11T13:58:30Z</time></trkpt><trkpt lat="40.26367497392146" lon="9.579676555517707"><ele>484.33333333333337</ele><time>2026-04-11T13:58:31Z</time></trkpt><trkpt lat="40.263501383460756" lon="9.57974541383009"><ele>487.0</ele><time>2026-04-11T13:58:32Z</time></trkpt><trkpt lat="40.26331596302032" lon="9.579791253306034"><ele>487.0</ele><time>2026-04-11T13:58:33Z</time></trkpt><trkpt lat="40.26313199512488" lon="9.579715004841828"><ele>487.0</ele><time>2026-04-11T13:58:34Z</time></trkpt><trkpt lat="40.26293271757905" lon="9.579717233799064"><ele>487.0</ele><time>2026-04-11T13:58:35Z</time></trkpt><trkpt lat="40.2627462705592" lon="9.579737118114911"><ele>489.33333333333337</ele><time>2026-04-11T13:58:36Z</time></trkpt><trkpt lat="40.26256147353519" lon="9.57965767229906"><ele>491.66666666666663</ele><time>2026-04-11T13:58:37Z</time></trkpt><trkpt lat="40.26237867962254" lon="9.579567778931224"><ele>494.0</ele><time>2026-04-11T13:58:38Z</time></trkpt><trkpt lat="40.26220443217903" lon="9.579448383986234"><ele>486.66666666666663</ele><time>2026-04-11T13:58:39Z</time></trkpt><trkpt lat="40.26203940861582" lon="9.57933541304542"><ele>479.33333333333337</ele><time>2026-04-11T13:58:40Z</time></trkpt><trkpt lat="40.26189042171465" lon="9.579213502011097"><ele>472.0</ele><time>2026-04-11T13:58:41Z</time></trkpt><trkpt lat="40.261735983850166" lon="9.57911912584275"><ele>472.0</ele><time>2026-04-11T13:58:42Z</time></trkpt><trkpt lat="40.26155727967812" lon="9.579132219381504"><ele>472.0</ele><time>2026-04-11T13:58:43Z</time></trkpt><trkpt lat="40.26137260187168" lon="9.579159317077956"><ele>472.0</ele><time>2026-04-11T13:58:44Z</time></trkpt><trkpt lat="40.26118723914605" lon="9.579121829186256"><ele>477.33333333333337</ele><time>2026-04-11T13:58:45Z</time></trkpt><trkpt lat="40.261023506753155" lon="9.578992468727195"><ele>482.66666666666663</ele><time>2026-04-11T13:58:46Z</time></trkpt><trkpt lat="40.2608499234015" lon="9.578894573433947"><ele>488.0</ele><time>2026-04-11T13:58:47Z</time></trkpt><trkpt lat="40.26067171848371" lon="9.578805081752678"><ele>493.0</ele><time>2026-04-11T13:58:48Z</time></trkpt><trkpt lat="40.260480531527044" lon="9.578745235488006"><ele>498.0</ele><time>2026-04-11T13:58:49Z</time></trkpt><trkpt lat="40.260297460425065" lon="9.57867764268481"><ele>503.0</ele><time>2026-04-11T13:58:50Z</time></trkpt><trkpt lat="40.26013214576407" lon="9.578607108751932"><ele>503.75</ele><time>2026-04-11T13:58:51Z</time></trkpt><trkpt lat="40.2599823262035" lon="9.578543181733016"><ele>504.5</ele><time>2026-04-11T13:58:52Z</time></trkpt><trkpt lat="40.2598520576644" lon="9.578459067593755"><ele>505.25</ele><time>2026-04-11T13:58:53Z</time></trkpt><trkpt lat="40.259774088247376" lon="9.578308731810834"><ele>506.0</ele><time>2026-04-11T13:58:54Z</time></trkpt><trkpt lat="40.25974864087467" lon="9.57809403867525"><ele>506.0</ele><time>2026-04-11T13:58:55Z</time></trkpt><trkpt lat="40.25966395609874" lon="9.577945257119236"><ele>506.0</ele><time>2026-04-11T13:58:56Z</time></trkpt><trkpt lat="40.259586667279464" lon="9.57779053139415"><ele>506.0</ele><time>2026-04-11T13:58:57Z</time></trkpt><trkpt lat="40.25943830872639" lon="9.577693439586792"><ele>506.0</ele><time>2026-04-11T13:58:58Z</time></trkpt><trkpt lat="40.25928624201346" lon="9.577662485951466"><ele>497.0</ele><time>2026-04-11T13:58:59Z</time></trkpt><trkpt lat="40.25912755669896" lon="9.577702174958178"><ele>488.0</ele><time>2026-04-11T13:59:00Z</time></trkpt><trkpt lat="40.258948914267144" lon="9.57772999953377"><ele>479.0</ele><time>2026-04-11T13:59:01Z</time></trkpt><trkpt lat="40.258784281431204" lon="9.57768539891526"><ele>479.0</ele><time>2026-04-11T13:59:02Z</time></trkpt><trkpt lat="40.258603711917026" lon="9.577609540377608"><ele>479.0</ele><time>2026-04-11T13:59:03Z</time></trkpt><trkpt lat="40.25841171219801" lon="9.5775289027192"><ele>479.0</ele><time>2026-04-11T13:59:04Z</time></trkpt><trkpt lat="40.25821379717732" lon="9.577497386110602"><ele>485.66666666666663</ele><time>2026-04-11T13:59:05Z</time></trkpt><trkpt lat="40.258017083030474" lon="9.577483618022193"><ele>492.33333333333337</ele><time>2026-04-11T13:59:06Z</time></trkpt><trkpt lat="40.25781895934952" lon="9.577459559010425"><ele>499.0</ele><time>2026-04-11T13:59:07Z</time></trkpt><trkpt lat="40.257619993979766" lon="9.577416688922067"><ele>499.0</ele><time>2026-04-11T13:59:08Z</time></trkpt><trkpt lat="40.25742098987921" lon="9.57735092735228"><ele>499.0</ele><time>2026-04-11T13:59:09Z</time></trkpt><trkpt lat="40.25722553693891" lon="9.577266568602367"><ele>499.0</ele><time>2026-04-11T13:59:10Z</time></trkpt><trkpt lat="40.25702651764696" lon="9.577211420122472"><ele>504.33333333333337</ele><time>2026-04-11T13:59:11Z</time></trkpt><trkpt lat="40.256816732652396" lon="9.57720625966478"><ele>509.66666666666663</ele><time>2026-04-11T13:59:12Z</time></trkpt><trkpt lat="40.2566087196046" lon="9.57722268475794"><ele>515.0</ele><time>2026-04-11T13:59:13Z</time></trkpt><trkpt lat="40.25641380967949" lon="9.577217064626455"><ele>521.3333333333333</ele><time>2026-04-11T13:59:14Z</time></trkpt><trkpt lat="40.25622914892573" lon="9.577145898500275"><ele>527.6666666666666</ele><time>2026-04-11T13:59:15Z</time></trkpt><trkpt lat="40.256046280538655" lon="9.577040857651857"><ele>534.0</ele><time>2026-04-11T13:59:16Z</time></trkpt><trkpt lat="40.255850257642" lon="9.576975609214598"><ele>530.3333333333334</ele><time>2026-04-11T13:59:17Z</time></trkpt><trkpt lat="40.25566869311754" lon="9.576922676313286"><ele>526.6666666666667</ele><time>2026-04-11T13:59:18Z</time></trkpt><trkpt lat="40.25549294004766" lon="9.576889626648807"><ele>523.0</ele><time>2026-04-11T13:59:19Z</time></trkpt><trkpt lat="40.25534917067404" lon="9.576785054363897"><ele>523.0</ele><time>2026-04-11T13:59:20Z</time></trkpt><trkpt lat="40.25524066275736" lon="9.576624835501308"><ele>523.0</ele><time>2026-04-11T13:59:21Z</time></trkpt><trkpt lat="40.25511919052357" lon="9.576427241070233"><ele>523.0</ele><time>2026-04-11T13:59:22Z</time></trkpt><trkpt lat="40.254968917803765" lon="9.576254855697112"><ele>525.0</ele><time>2026-04-11T13:59:23Z</time></trkpt><trkpt lat="40.25480921847929" lon="9.576084097523601"><ele>527.0</ele><time>2026-04-11T13:59:24Z</time></trkpt><trkpt lat="40.254644854845175" lon="9.575930838961687"><ele>529.0</ele><time>2026-04-11T13:59:25Z</time></trkpt><trkpt lat="40.254505239815224" lon="9.575768333393203"><ele>529.0</ele><time>2026-04-11T13:59:26Z</time></trkpt><trkpt lat="40.25446314247877" lon="9.575556274034176"><ele>529.0</ele><time>2026-04-11T13:59:27Z</time></trkpt><trkpt lat="40.25440823857285" lon="9.57535020092085"><ele>529.0</ele><time>2026-04-11T13:59:28Z</time></trkpt><trkpt lat="40.25432926606115" lon="9.575191139340705"><ele>528.0</ele><time>2026-04-11T13:59:29Z</time></trkpt><trkpt lat="40.25422236073931" lon="9.575090947523256"><ele>527.0</ele><time>2026-04-11T13:59:30Z</time></trkpt><trkpt lat="40.25407661652649" lon="9.575054118109819"><ele>526.0</ele><time>2026-04-11T13:59:31Z</time></trkpt><trkpt lat="40.253901251067354" lon="9.575055252871843"><ele>526.0</ele><time>2026-04-11T13:59:32Z</time></trkpt><trkpt lat="40.253718407268074" lon="9.575059774415308"><ele>526.0</ele><time>2026-04-11T13:59:33Z</time></trkpt><trkpt lat="40.25352389661444" lon="9.575025662947418"><ele>526.0</ele><time>2026-04-11T13:59:34Z</time></trkpt><trkpt lat="40.25332216465132" lon="9.57497348970918"><ele>526.0</ele><time>2026-04-11T13:59:35Z</time></trkpt><trkpt lat="40.2531275301999" lon="9.574897216942464"><ele>526.0</ele><time>2026-04-11T13:59:36Z</time></trkpt><trkpt lat="40.252928423164505" lon="9.574791596057226"><ele>526.0</ele><time>2026-04-11T13:59:37Z</time></trkpt><trkpt lat="40.252713341442124" lon="9.574685045204967"><ele>535.0</ele><time>2026-04-11T13:59:38Z</time></trkpt><trkpt lat="40.2524995986076" lon="9.574557436958518"><ele>544.0</ele><time>2026-04-11T13:59:39Z</time></trkpt><trkpt lat="40.252306278420704" lon="9.574414315397568"><ele>540.3333333333334</ele><time>2026-04-11T13:59:40Z</time></trkpt><trkpt lat="40.25210567905839" lon="9.574341021254227"><ele>536.6666666666666</ele><time>2026-04-11T13:59:41Z</time></trkpt><trkpt lat="40.2519267526968" lon="9.574287285843031"><ele>533.0</ele><time>2026-04-11T13:59:42Z</time></trkpt><trkpt lat="40.25174841672534" lon="9.574161911047616"><ele>533.0</ele><time>2026-04-11T13:59:43Z</time></trkpt><trkpt lat="40.251576619861346" lon="9.57400829257235"><ele>533.0</ele><time>2026-04-11T13:59:44Z</time></trkpt><trkpt lat="40.251394225686674" lon="9.573914316873953"><ele>533.0</ele><time>2026-04-11T13:59:45Z</time></trkpt><trkpt lat="40.25120776054796" lon="9.573877444031528"><ele>539.6666666666666</ele><time>2026-04-11T13:59:46Z</time></trkpt><trkpt lat="40.25103526758069" lon="9.573800529894198"><ele>546.3333333333334</ele><time>2026-04-11T13:59:47Z</time></trkpt><trkpt lat="40.250895554801076" lon="9.57368612036337"><ele>553.0</ele><time>2026-04-11T13:59:48Z</time></trkpt><trkpt lat="40.25077229820637" lon="9.57352961971792"><ele>547.3333333333334</ele><time>2026-04-11T13:59:49Z</time></trkpt><trkpt lat="40.25062270410161" lon="9.5734681606067"><ele>541.6666666666666</ele><time>2026-04-11T13:59:50Z</time></trkpt><trkpt lat="40.250447701401185" lon="9.573447290656464"><ele>536.0</ele><time>2026-04-11T13:59:51Z</time></trkpt><trkpt lat="40.250267914326464" lon="9.573398548235051"><ele>536.0</ele><time>2026-04-11T13:59:52Z</time></trkpt><trkpt lat="40.25009069832632" lon="9.573277527022608"><ele>536.0</ele><time>2026-04-11T13:59:53Z</time></trkpt><trkpt lat="40.24991085863273" lon="9.573138858634163"><ele>536.0</ele><time>2026-04-11T13:59:54Z</time></trkpt><trkpt lat="40.24973922596458" lon="9.573044559246377"><ele>544.3333333333333</ele><time>2026-04-11T13:59:55Z</time></trkpt><trkpt lat="40.249575068582445" lon="9.572960118046268"><ele>552.6666666666666</ele><time>2026-04-11T13:59:56Z</time></trkpt><trkpt lat="40.2494077411341" lon="9.572923056161411"><ele>561.0</ele><time>2026-04-11T13:59:57Z</time></trkpt><trkpt lat="40.24921938675171" lon="9.57292843538276"><ele>561.0</ele><time>2026-04-11T13:59:58Z</time></trkpt><trkpt lat="40.24902891720545" lon="9.572936071126666"><ele>561.0</ele><time>2026-04-11T13:59:59Z</time></trkpt><trkpt lat="40.24884377822958" lon="9.57289708944486"><ele>561.0</ele><time>2026-04-11T14:00:00Z</time></trkpt><trkpt lat="40.24864633943057" lon="9.572800102946717"><ele>555.6666666666666</ele><time>2026-04-11T14:00:01Z</time></trkpt><trkpt lat="40.24844969312455" lon="9.572683057474949"><ele>550.3333333333333</ele><time>2026-04-11T14:00:02Z</time></trkpt><trkpt lat="40.24825849390962" lon="9.572533632590487"><ele>545.0</ele><time>2026-04-11T14:00:03Z</time></trkpt><trkpt lat="40.24806953300908" lon="9.572354056888562"><ele>542.0</ele><time>2026-04-11T14:00:04Z</time></trkpt><trkpt lat="40.24788837454383" lon="9.57218000380176"><ele>539.0</ele><time>2026-04-11T14:00:05Z</time></trkpt><trkpt lat="40.247711219273675" lon="9.572035274054421"><ele>536.0</ele><time>2026-04-11T14:00:06Z</time></trkpt><trkpt lat="40.24752772444113" lon="9.571942341498318"><ele>536.0</ele><time>2026-04-11T14:00:07Z</time></trkpt><trkpt lat="40.24733985505492" lon="9.571919682884202"><ele>536.0</ele><time>2026-04-11T14:00:08Z</time></trkpt><trkpt lat="40.24717165065247" lon="9.571923288709597"><ele>536.0</ele><time>2026-04-11T14:00:09Z</time></trkpt><trkpt lat="40.24702465043902" lon="9.571829170023014"><ele>544.0</ele><time>2026-04-11T14:00:10Z</time></trkpt><trkpt lat="40.24689710779357" lon="9.571706623462088"><ele>552.0</ele><time>2026-04-11T14:00:11Z</time></trkpt><trkpt lat="40.24673343357382" lon="9.571491792058366"><ele>560.0</ele><time>2026-04-11T14:00:12Z</time></trkpt><trkpt lat="40.246556553931455" lon="9.571345424621349"><ele>558.5</ele><time>2026-04-11T14:00:13Z</time></trkpt><trkpt lat="40.24636368110139" lon="9.571171783595663"><ele>557.0</ele><time>2026-04-11T14:00:14Z</time></trkpt><trkpt lat="40.24616185921358" lon="9.571052616831132"><ele>557.0</ele><time>2026-04-11T14:00:15Z</time></trkpt><trkpt lat="40.24595674695313" lon="9.570894902041161"><ele>557.0</ele><time>2026-04-11T14:00:16Z</time></trkpt><trkpt lat="40.245757277353725" lon="9.570727159524026"><ele>559.0</ele><time>2026-04-11T14:00:17Z</time></trkpt><trkpt lat="40.245578963078394" lon="9.57056130739331"><ele>561.0</ele><time>2026-04-11T14:00:18Z</time></trkpt><trkpt lat="40.24541641804045" lon="9.570411805365497"><ele>563.0</ele><time>2026-04-11T14:00:19Z</time></trkpt><trkpt lat="40.24523553745952" lon="9.570265683760038"><ele>563.0</ele><time>2026-04-11T14:00:20Z</time></trkpt><trkpt lat="40.24511653226873" lon="9.570138080275623"><ele>563.0</ele><time>2026-04-11T14:00:21Z</time></trkpt><trkpt lat="40.24502043757646" lon="9.569955687459403"><ele>563.0</ele><time>2026-04-11T14:00:22Z</time></trkpt><trkpt lat="40.24489230098668" lon="9.569805226227185"><ele>563.3333333333333</ele><time>2026-04-11T14:00:23Z</time></trkpt><trkpt lat="40.24472814027433" lon="9.56965933831069"><ele>563.6666666666666</ele><time>2026-04-11T14:00:24Z</time></trkpt><trkpt lat="40.2445738654841" lon="9.569463814754295"><ele>564.0</ele><time>2026-04-11T14:00:25Z</time></trkpt><trkpt lat="40.2443949814924" lon="9.569262530096296"><ele>564.0</ele><time>2026-04-11T14:00:26Z</time></trkpt><trkpt lat="40.244209343645565" lon="9.569072182693974"><ele>564.0</ele><time>2026-04-11T14:00:27Z</time></trkpt><trkpt lat="40.24404162423652" lon="9.568894996195338"><ele>561.6666666666666</ele><time>2026-04-11T14:00:28Z</time></trkpt><trkpt lat="40.24388805843706" lon="9.56872710603793"><ele>559.3333333333333</ele><time>2026-04-11T14:00:29Z</time></trkpt><trkpt lat="40.24374024966342" lon="9.568570885235312"><ele>557.0</ele><time>2026-04-11T14:00:30Z</time></trkpt><trkpt lat="40.24358643246629" lon="9.568458684227439"><ele>557.0</ele><time>2026-04-11T14:00:31Z</time></trkpt><trkpt lat="40.24339758722586" lon="9.568396055092304"><ele>557.0</ele><time>2026-04-11T14:00:32Z</time></trkpt><trkpt lat="40.24319714272088" lon="9.568351143442756"><ele>557.0</ele><time>2026-04-11T14:00:33Z</time></trkpt><trkpt lat="40.2429964199729" lon="9.568263055039004"><ele>556.0</ele><time>2026-04-11T14:00:34Z</time></trkpt><trkpt lat="40.24282336272385" lon="9.568090350398693"><ele>555.0</ele><time>2026-04-11T14:00:35Z</time></trkpt><trkpt lat="40.24262033048615" lon="9.567956744299842"><ele>554.0</ele><time>2026-04-11T14:00:36Z</time></trkpt><trkpt lat="40.24242362524217" lon="9.567807248148291"><ele>568.6666666666666</ele><time>2026-04-11T14:00:37Z</time></trkpt><trkpt lat="40.242239797434934" lon="9.567667310212665"><ele>583.3333333333334</ele><time>2026-04-11T14:00:38Z</time></trkpt><trkpt lat="40.24207885899965" lon="9.567541093925222"><ele>598.0</ele><time>2026-04-11T14:00:39Z</time></trkpt><trkpt lat="40.2419512069185" lon="9.567418383963997"><ele>598.0</ele><time>2026-04-11T14:00:40Z</time></trkpt><trkpt lat="40.24189223356186" lon="9.567253306386085"><ele>598.0</ele><time>2026-04-11T14:00:41Z</time></trkpt><trkpt lat="40.241890825215265" lon="9.56707404112784"><ele>598.0</ele><time>2026-04-11T14:00:42Z</time></trkpt><trkpt lat="40.241846911117065" lon="9.566866126566184"><ele>598.0</ele><time>2026-04-11T14:00:43Z</time></trkpt><trkpt lat="40.24178282497725" lon="9.566656743636424"><ele>591.0</ele><time>2026-04-11T14:00:44Z</time></trkpt><trkpt lat="40.24165362055282" lon="9.56645793951993"><ele>584.0</ele><time>2026-04-11T14:00:45Z</time></trkpt><trkpt lat="40.24147488372461" lon="9.566291750370233"><ele>577.0</ele><time>2026-04-11T14:00:46Z</time></trkpt><trkpt lat="40.24128339929572" lon="9.566146400640514"><ele>573.5</ele><time>2026-04-11T14:00:47Z</time></trkpt><trkpt lat="40.241075425130454" lon="9.56603501599425"><ele>570.0</ele><time>2026-04-11T14:00:48Z</time></trkpt><trkpt lat="40.2408423455837" lon="9.565956528827979"><ele>587.0</ele><time>2026-04-11T14:00:49Z</time></trkpt><trkpt lat="40.240607858267104" lon="9.565893614859618"><ele>604.0</ele><time>2026-04-11T14:00:50Z</time></trkpt><trkpt lat="40.24037150422309" lon="9.56580628123471"><ele>604.0</ele><time>2026-04-11T14:00:51Z</time></trkpt><trkpt lat="40.24013754069572" lon="9.565667056764603"><ele>604.0</ele><time>2026-04-11T14:00:52Z</time></trkpt><trkpt lat="40.2399361455778" lon="9.56552043246524"><ele>605.0</ele><time>2026-04-11T14:00:53Z</time></trkpt><trkpt lat="40.239746311233645" lon="9.565378042310789"><ele>606.0</ele><time>2026-04-11T14:00:54Z</time></trkpt><trkpt lat="40.2395749492448" lon="9.565212529932165"><ele>607.0</ele><time>2026-04-11T14:00:55Z</time></trkpt><trkpt lat="40.23943290967545" lon="9.565016616487243"><ele>607.0</ele><time>2026-04-11T14:00:56Z</time></trkpt><trkpt lat="40.2392843276831" lon="9.564844102643828"><ele>607.0</ele><time>2026-04-11T14:00:57Z</time></trkpt><trkpt lat="40.23909136437855" lon="9.56473875790706"><ele>607.0</ele><time>2026-04-11T14:00:58Z</time></trkpt><trkpt lat="40.238898440158124" lon="9.564681570475043"><ele>611.0</ele><time>2026-04-11T14:00:59Z</time></trkpt><trkpt lat="40.23875474966797" lon="9.564548920047358"><ele>615.0</ele><time>2026-04-11T14:01:00Z</time></trkpt><trkpt lat="40.23857490780702" lon="9.564385995726727"><ele>619.0</ele><time>2026-04-11T14:01:01Z</time></trkpt><trkpt lat="40.23841623157649" lon="9.56417487229058"><ele>619.0</ele><time>2026-04-11T14:01:02Z</time></trkpt><trkpt lat="40.23829205381876" lon="9.563909639059428"><ele>619.0</ele><time>2026-04-11T14:01:03Z</time></trkpt><trkpt lat="40.238182727504686" lon="9.563631003725218"><ele>626.5</ele><time>2026-04-11T14:01:04Z</time></trkpt><trkpt lat="40.23809341379497" lon="9.563351069358047"><ele>634.0</ele><time>2026-04-11T14:01:05Z</time></trkpt><trkpt lat="40.23801215411423" lon="9.563070324591695"><ele>618.5</ele><time>2026-04-11T14:01:06Z</time></trkpt><trkpt lat="40.23787434661093" lon="9.562821310595881"><ele>603.0</ele><time>2026-04-11T14:01:07Z</time></trkpt><trkpt lat="40.23770680035661" lon="9.562588931127927"><ele>603.0</ele><time>2026-04-11T14:01:08Z</time></trkpt><trkpt lat="40.23752390007593" lon="9.562383560991126"><ele>603.0</ele><time>2026-04-11T14:01:09Z</time></trkpt><trkpt lat="40.23731026806696" lon="9.56219449310745"><ele>607.5</ele><time>2026-04-11T14:01:10Z</time></trkpt><trkpt lat="40.23707873063933" lon="9.562021831530958"><ele>612.0</ele><time>2026-04-11T14:01:11Z</time></trkpt><trkpt lat="40.23684615117091" lon="9.561840783472146"><ele>612.0</ele><time>2026-04-11T14:01:12Z</time></trkpt><trkpt lat="40.236636041186124" lon="9.56164772668386"><ele>612.0</ele><time>2026-04-11T14:01:13Z</time></trkpt><trkpt lat="40.23644742152837" lon="9.561450474392903"><ele>613.6666666666666</ele><time>2026-04-11T14:01:14Z</time></trkpt><trkpt lat="40.23629996752726" lon="9.561232039687365"><ele>615.3333333333333</ele><time>2026-04-11T14:01:15Z</time></trkpt><trkpt lat="40.23617876187675" lon="9.561009739296756"><ele>617.0</ele><time>2026-04-11T14:01:16Z</time></trkpt><trkpt lat="40.23603343839729" lon="9.560822294506643"><ele>617.0</ele><time>2026-04-11T14:01:17Z</time></trkpt><trkpt lat="40.235842783360745" lon="9.560670001842496"><ele>617.0</ele><time>2026-04-11T14:01:18Z</time></trkpt><trkpt lat="40.23562587550633" lon="9.560560893846587"><ele>633.5</ele><time>2026-04-11T14:01:19Z</time></trkpt><trkpt lat="40.23538833405284" lon="9.560494226573597"><ele>650.0</ele><time>2026-04-11T14:01:20Z</time></trkpt><trkpt lat="40.23514805349789" lon="9.56044133587917"><ele>644.0</ele><time>2026-04-11T14:01:21Z</time></trkpt><trkpt lat="40.23493739582022" lon="9.560323461921552"><ele>638.0</ele><time>2026-04-11T14:01:22Z</time></trkpt><trkpt lat="40.23474998186883" lon="9.560154965951371"><ele>638.0</ele><time>2026-04-11T14:01:23Z</time></trkpt><trkpt lat="40.23454341412497" lon="9.559987640568362"><ele>638.0</ele><time>2026-04-11T14:01:24Z</time></trkpt><trkpt lat="40.23434355238541" lon="9.559789280881194"><ele>638.0</ele><time>2026-04-11T14:01:25Z</time></trkpt><trkpt lat="40.23413765932639" lon="9.559627207365875"><ele>638.0</ele><time>2026-04-11T14:01:26Z</time></trkpt><trkpt lat="40.23394113635669" lon="9.559493671444253"><ele>640.0</ele><time>2026-04-11T14:01:27Z</time></trkpt><trkpt lat="40.23376090573374" lon="9.559350593419829"><ele>642.0</ele><time>2026-04-11T14:01:28Z</time></trkpt><trkpt lat="40.23361600698825" lon="9.559139224621674"><ele>644.0</ele><time>2026-04-11T14:01:29Z</time></trkpt><trkpt lat="40.233445967334625" lon="9.55895853662861"><ele>644.0</ele><time>2026-04-11T14:01:30Z</time></trkpt><trkpt lat="40.233291458595936" lon="9.558812590417011"><ele>644.0</ele><time>2026-04-11T14:01:31Z</time></trkpt><trkpt lat="40.23315047251202" lon="9.558697430438396"><ele>644.0</ele><time>2026-04-11T14:01:32Z</time></trkpt><trkpt lat="40.23306733234313" lon="9.558547530990078"><ele>646.3333333333333</ele><time>2026-04-11T14:01:33Z</time></trkpt><trkpt lat="40.23306206352981" lon="9.558360406231046"><ele>648.6666666666666</ele><time>2026-04-11T14:01:34Z</time></trkpt><trkpt lat="40.232997962316254" lon="9.55816240877595"><ele>651.0</ele><time>2026-04-11T14:01:35Z</time></trkpt><trkpt lat="40.232885606582215" lon="9.558033495408592"><ele>651.0</ele><time>2026-04-11T14:01:36Z</time></trkpt><trkpt lat="40.232763406308685" lon="9.557913478135836"><ele>651.0</ele><time>2026-04-11T14:01:37Z</time></trkpt><trkpt lat="40.232642753267115" lon="9.557763091628301"><ele>651.0</ele><time>2026-04-11T14:01:38Z</time></trkpt><trkpt lat="40.23249682921111" lon="9.5576008291413"><ele>640.5</ele><time>2026-04-11T14:01:39Z</time></trkpt><trkpt lat="40.23220203168184" lon="9.557661283932346"><ele>630.0</ele><time>2026-04-11T14:01:40Z</time></trkpt><trkpt lat="40.23200328324265" lon="9.557582042848216"><ele>630.0</ele><time>2026-04-11T14:01:41Z</time></trkpt><trkpt lat="40.23182821680045" lon="9.55751409715722"><ele>630.0</ele><time>2026-04-11T14:01:42Z</time></trkpt><trkpt lat="40.23166197007564" lon="9.557501905971746"><ele>630.0</ele><time>2026-04-11T14:01:43Z</time></trkpt><trkpt lat="40.231510424156426" lon="9.557551436513876"><ele>636.75</ele><time>2026-04-11T14:01:44Z</time></trkpt><trkpt lat="40.23137941176701" lon="9.557575733575641"><ele>643.5</ele><time>2026-04-11T14:01:45Z</time></trkpt><trkpt lat="40.23125827284045" lon="9.557496803681676"><ele>650.25</ele><time>2026-04-11T14:01:46Z</time></trkpt><trkpt lat="40.23115774491008" lon="9.557320244791281"><ele>657.0</ele><time>2026-04-11T14:01:47Z</time></trkpt><trkpt lat="40.23106080252295" lon="9.557113135214443"><ele>650.3333333333334</ele><time>2026-04-11T14:01:48Z</time></trkpt><trkpt lat="40.23093720639828" lon="9.55695136849347"><ele>643.6666666666667</ele><time>2026-04-11T14:01:49Z</time></trkpt><trkpt lat="40.230786756433226" lon="9.556875877206636"><ele>637.0</ele><time>2026-04-11T14:01:50Z</time></trkpt><trkpt lat="40.23058292104208" lon="9.556859805379558"><ele>637.0</ele><time>2026-04-11T14:01:51Z</time></trkpt><trkpt lat="40.23037588761647" lon="9.556849710382386"><ele>637.0</ele><time>2026-04-11T14:01:52Z</time></trkpt><trkpt lat="40.230171225775926" lon="9.556789416525035"><ele>637.0</ele><time>2026-04-11T14:01:53Z</time></trkpt><trkpt lat="40.22998053876141" lon="9.5566703820761"><ele>642.6666666666667</ele><time>2026-04-11T14:01:54Z</time></trkpt><trkpt lat="40.22979754506972" lon="9.55654421633592"><ele>648.3333333333334</ele><time>2026-04-11T14:01:55Z</time></trkpt><trkpt lat="40.229643322533846" lon="9.556395624283722"><ele>654.0</ele><time>2026-04-11T14:01:56Z</time></trkpt><trkpt lat="40.22953720923237" lon="9.556221779359007"><ele>654.0</ele><time>2026-04-11T14:01:57Z</time></trkpt><trkpt lat="40.22943150775224" lon="9.556104442548161"><ele>654.0</ele><time>2026-04-11T14:01:58Z</time></trkpt><trkpt lat="40.2293093932414" lon="9.556097868642544"><ele>654.0</ele><time>2026-04-11T14:01:59Z</time></trkpt><trkpt lat="40.22917503511258" lon="9.556197944457715"><ele>654.0</ele><time>2026-04-11T14:02:00Z</time></trkpt><trkpt lat="40.22905322656765" lon="9.556353139553227"><ele>658.0</ele><time>2026-04-11T14:02:01Z</time></trkpt><trkpt lat="40.22891801015323" lon="9.556446840136497"><ele>662.0</ele><time>2026-04-11T14:02:02Z</time></trkpt><trkpt lat="40.228776735630305" lon="9.55643526125067"><ele>666.0</ele><time>2026-04-11T14:02:03Z</time></trkpt><trkpt lat="40.2286225687648" lon="9.556320499317005"><ele>666.0</ele><time>2026-04-11T14:02:04Z</time></trkpt><trkpt lat="40.228458171257344" lon="9.556214615578954"><ele>666.0</ele><time>2026-04-11T14:02:05Z</time></trkpt><trkpt lat="40.228274776209446" lon="9.556134391948035"><ele>666.0</ele><time>2026-04-11T14:02:06Z</time></trkpt><trkpt lat="40.22808663459332" lon="9.556031331752944"><ele>664.3333333333334</ele><time>2026-04-11T14:02:07Z</time></trkpt><trkpt lat="40.22791761333615" lon="9.55586866418621"><ele>662.6666666666667</ele><time>2026-04-11T14:02:08Z</time></trkpt><trkpt lat="40.22774533850697" lon="9.555694076405217"><ele>661.0</ele><time>2026-04-11T14:02:09Z</time></trkpt><trkpt lat="40.22754996672654" lon="9.555562349458901"><ele>661.0</ele><time>2026-04-11T14:02:10Z</time></trkpt><trkpt lat="40.227313595229006" lon="9.555481504012363"><ele>661.0</ele><time>2026-04-11T14:02:11Z</time></trkpt><trkpt lat="40.22707128989031" lon="9.555401603223535"><ele>648.5</ele><time>2026-04-11T14:02:12Z</time></trkpt><trkpt lat="40.22682882423216" lon="9.555309388204225"><ele>636.0</ele><time>2026-04-11T14:02:13Z</time></trkpt><trkpt lat="40.22659686145433" lon="9.555202487826685"><ele>644.5</ele><time>2026-04-11T14:02:14Z</time></trkpt><trkpt lat="40.226366261000145" lon="9.55510604943402"><ele>653.0</ele><time>2026-04-11T14:02:15Z</time></trkpt><trkpt lat="40.22614146631053" lon="9.555035693648971"><ele>653.0</ele><time>2026-04-11T14:02:16Z</time></trkpt><trkpt lat="40.225930742209904" lon="9.554977502179248"><ele>653.0</ele><time>2026-04-11T14:02:17Z</time></trkpt><trkpt lat="40.22573559345328" lon="9.554929207931458"><ele>653.0</ele><time>2026-04-11T14:02:18Z</time></trkpt><trkpt lat="40.22556665221857" lon="9.554891461802784"><ele>658.3333333333333</ele><time>2026-04-11T14:02:19Z</time></trkpt><trkpt lat="40.225410292115065" lon="9.554817428499979"><ele>663.6666666666666</ele><time>2026-04-11T14:02:20Z</time></trkpt><trkpt lat="40.225295446157446" lon="9.55464584470449"><ele>669.0</ele><time>2026-04-11T14:02:21Z</time></trkpt><trkpt lat="40.22516207805846" lon="9.554486564796413"><ele>666.6666666666666</ele><time>2026-04-11T14:02:22Z</time></trkpt><trkpt lat="40.224972492855514" lon="9.554370583626147"><ele>664.3333333333333</ele><time>2026-04-11T14:02:23Z</time></trkpt><trkpt lat="40.22476113132107" lon="9.554287290953207"><ele>662.0</ele><time>2026-04-11T14:02:24Z</time></trkpt><trkpt lat="40.22453305621085" lon="9.554207328638407"><ele>662.0</ele><time>2026-04-11T14:02:25Z</time></trkpt><trkpt lat="40.22430125042099" lon="9.554114846732276"><ele>662.0</ele><time>2026-04-11T14:02:26Z</time></trkpt><trkpt lat="40.22408241965314" lon="9.55400833982934"><ele>666.6666666666666</ele><time>2026-04-11T14:02:27Z</time></trkpt><trkpt lat="40.223875509194215" lon="9.553903921718032"><ele>671.3333333333334</ele><time>2026-04-11T14:02:28Z</time></trkpt><trkpt lat="40.2236570910497" lon="9.55385997090806"><ele>676.0</ele><time>2026-04-11T14:02:29Z</time></trkpt><trkpt lat="40.22342807905862" lon="9.553869926585056"><ele>676.0</ele><time>2026-04-11T14:02:30Z</time></trkpt><trkpt lat="40.223223728661836" lon="9.553931459840465"><ele>676.0</ele><time>2026-04-11T14:02:31Z</time></trkpt><trkpt lat="40.223010051958624" lon="9.553966300592522"><ele>676.0</ele><time>2026-04-11T14:02:32Z</time></trkpt><trkpt lat="40.22278531042675" lon="9.553935730744863"><ele>679.5</ele><time>2026-04-11T14:02:33Z</time></trkpt><trkpt lat="40.222558557304005" lon="9.553861473267075"><ele>683.0</ele><time>2026-04-11T14:02:34Z</time></trkpt><trkpt lat="40.22232342344616" lon="9.553840923401241"><ele>684.0</ele><time>2026-04-11T14:02:35Z</time></trkpt><trkpt lat="40.22208584357926" lon="9.553865223386184"><ele>685.0</ele><time>2026-04-11T14:02:36Z</time></trkpt><trkpt lat="40.221857111479295" lon="9.553878785975911"><ele>685.0</ele><time>2026-04-11T14:02:37Z</time></trkpt><trkpt lat="40.22163055966976" lon="9.553858586363528"><ele>685.0</ele><time>2026-04-11T14:02:38Z</time></trkpt><trkpt lat="40.22141004539938" lon="9.553832017399593"><ele>685.0</ele><time>2026-04-11T14:02:39Z</time></trkpt><trkpt lat="40.22120359928403" lon="9.55380619613972"><ele>687.6666666666667</ele><time>2026-04-11T14:02:40Z</time></trkpt><trkpt lat="40.221018980406036" lon="9.553771299801262"><ele>690.3333333333334</ele><time>2026-04-11T14:02:41Z</time></trkpt><trkpt lat="40.22085118671787" lon="9.553772824292881"><ele>693.0</ele><time>2026-04-11T14:02:42Z</time></trkpt><trkpt lat="40.22069434523542" lon="9.55384555224503"><ele>695.3333333333334</ele><time>2026-04-11T14:02:43Z</time></trkpt><trkpt lat="40.220539759984014" lon="9.55394380079513"><ele>697.6666666666667</ele><time>2026-04-11T14:02:44Z</time></trkpt><trkpt lat="40.22036416430819" lon="9.553905002560894"><ele>700.0</ele><time>2026-04-11T14:02:45Z</time></trkpt><trkpt lat="40.22016406146852" lon="9.553900121140517"><ele>700.0</ele><time>2026-04-11T14:02:46Z</time></trkpt><trkpt lat="40.21996147493667" lon="9.553877320142567"><ele>700.0</ele><time>2026-04-11T14:02:47Z</time></trkpt><trkpt lat="40.2197719726213" lon="9.55384537763645"><ele>700.0</ele><time>2026-04-11T14:02:48Z</time></trkpt><trkpt lat="40.21961533612101" lon="9.553799241530683"><ele>695.5</ele><time>2026-04-11T14:02:49Z</time></trkpt><trkpt lat="40.2194961242759" lon="9.55374027887859"><ele>691.0</ele><time>2026-04-11T14:02:50Z</time></trkpt><trkpt lat="40.21941221091544" lon="9.553586948231533"><ele>686.5</ele><time>2026-04-11T14:02:51Z</time></trkpt><trkpt lat="40.219322277690964" lon="9.553425525058563"><ele>682.0</ele><time>2026-04-11T14:02:52Z</time></trkpt><trkpt lat="40.21922339739828" lon="9.553294789173647"><ele>682.0</ele><time>2026-04-11T14:02:53Z</time></trkpt><trkpt lat="40.21910013260228" lon="9.55326033352675"><ele>682.0</ele><time>2026-04-11T14:02:54Z</time></trkpt><trkpt lat="40.21895181021412" lon="9.553269077896951"><ele>682.0</ele><time>2026-04-11T14:02:55Z</time></trkpt><trkpt lat="40.2187872927257" lon="9.553244323322076"><ele>682.0</ele><time>2026-04-11T14:02:56Z</time></trkpt><trkpt lat="40.21864712930954" lon="9.553138390181722"><ele>692.6666666666667</ele><time>2026-04-11T14:02:57Z</time></trkpt><trkpt lat="40.2185007883308" lon="9.553007861960065"><ele>703.3333333333334</ele><time>2026-04-11T14:02:58Z</time></trkpt><trkpt lat="40.21833851596361" lon="9.55292613612533"><ele>714.0</ele><time>2026-04-11T14:02:59Z</time></trkpt><trkpt lat="40.218148347422705" lon="9.552914115776712"><ele>708.0</ele><time>2026-04-11T14:03:00Z</time></trkpt><trkpt lat="40.217959021226896" lon="9.55291658254862"><ele>702.0</ele><time>2026-04-11T14:03:01Z</time></trkpt><trkpt lat="40.217775896018516" lon="9.552862000602781"><ele>696.0</ele><time>2026-04-11T14:03:02Z</time></trkpt><trkpt lat="40.217598282820056" lon="9.552749393392297"><ele>696.0</ele><time>2026-04-11T14:03:03Z</time></trkpt><trkpt lat="40.21743120943036" lon="9.552591785560384"><ele>696.0</ele><time>2026-04-11T14:03:04Z</time></trkpt><trkpt lat="40.21727435726562" lon="9.552405224117848"><ele>696.0</ele><time>2026-04-11T14:03:05Z</time></trkpt><trkpt lat="40.21710407502937" lon="9.552273868513025"><ele>701.3333333333334</ele><time>2026-04-11T14:03:06Z</time></trkpt><trkpt lat="40.216902058822534" lon="9.552198999358586"><ele>706.6666666666667</ele><time>2026-04-11T14:03:07Z</time></trkpt><trkpt lat="40.2166904649039" lon="9.552170208636587"><ele>712.0</ele><time>2026-04-11T14:03:08Z</time></trkpt><trkpt lat="40.216472030336305" lon="9.55219262787339"><ele>720.0</ele><time>2026-04-11T14:03:09Z</time></trkpt><trkpt lat="40.2162374426082" lon="9.552210629501403"><ele>728.0</ele><time>2026-04-11T14:03:10Z</time></trkpt><trkpt lat="40.21600843169201" lon="9.552187550829762"><ele>728.0</ele><time>2026-04-11T14:03:11Z</time></trkpt><trkpt lat="40.21578877620669" lon="9.552128544766552"><ele>728.0</ele><time>2026-04-11T14:03:12Z</time></trkpt><trkpt lat="40.215571255917666" lon="9.552065677500046"><ele>728.0</ele><time>2026-04-11T14:03:13Z</time></trkpt><trkpt lat="40.215370633366554" lon="9.551972110696319"><ele>719.3333333333333</ele><time>2026-04-11T14:03:14Z</time></trkpt><trkpt lat="40.215203469763416" lon="9.551849762135307"><ele>710.6666666666666</ele><time>2026-04-11T14:03:15Z</time></trkpt><trkpt lat="40.21504866833033" lon="9.551761113115944"><ele>702.0</ele><time>2026-04-11T14:03:16Z</time></trkpt><trkpt lat="40.21487037137718" lon="9.551744422882495"><ele>706.3333333333334</ele><time>2026-04-11T14:03:17Z</time></trkpt><trkpt lat="40.21467432775791" lon="9.551773671778909"><ele>710.6666666666667</ele><time>2026-04-11T14:03:18Z</time></trkpt><trkpt lat="40.21447092165697" lon="9.551799055562121"><ele>715.0</ele><time>2026-04-11T14:03:19Z</time></trkpt><trkpt lat="40.214269635711375" lon="9.551783284022587"><ele>715.0</ele><time>2026-04-11T14:03:20Z</time></trkpt><trkpt lat="40.214067294331166" lon="9.551719234332873"><ele>715.0</ele><time>2026-04-11T14:03:21Z</time></trkpt><trkpt lat="40.21386348059618" lon="9.551609265502261"><ele>715.0</ele><time>2026-04-11T14:03:22Z</time></trkpt><trkpt lat="40.21365537660813" lon="9.55146780724904"><ele>709.0</ele><time>2026-04-11T14:03:23Z</time></trkpt><trkpt lat="40.21344065773261" lon="9.551330216260887"><ele>703.0</ele><time>2026-04-11T14:03:24Z</time></trkpt><trkpt lat="40.213224646201986" lon="9.551204994743411"><ele>719.0</ele><time>2026-04-11T14:03:25Z</time></trkpt><trkpt lat="40.21302046095197" lon="9.551073098726226"><ele>735.0</ele><time>2026-04-11T14:03:26Z</time></trkpt><trkpt lat="40.21282504346885" lon="9.550921624634848"><ele>735.0</ele><time>2026-04-11T14:03:27Z</time></trkpt><trkpt lat="40.2126371391335" lon="9.550733670775053"><ele>735.0</ele><time>2026-04-11T14:03:28Z</time></trkpt><trkpt lat="40.21245327495741" lon="9.55051914589391"><ele>744.5</ele><time>2026-04-11T14:03:29Z</time></trkpt><trkpt lat="40.21226710598425" lon="9.550292944212245"><ele>754.0</ele><time>2026-04-11T14:03:30Z</time></trkpt><trkpt lat="40.21207908405722" lon="9.550083367940024"><ele>754.0</ele><time>2026-04-11T14:03:31Z</time></trkpt><trkpt lat="40.21190313151372" lon="9.549903966145733"><ele>754.0</ele><time>2026-04-11T14:03:32Z</time></trkpt><trkpt lat="40.211741889208085" lon="9.54971373606676"><ele>754.0</ele><time>2026-04-11T14:03:33Z</time></trkpt><trkpt lat="40.21159494363882" lon="9.549479783504992"><ele>760.0</ele><time>2026-04-11T14:03:34Z</time></trkpt><trkpt lat="40.21145544166319" lon="9.549240581089887"><ele>766.0</ele><time>2026-04-11T14:03:35Z</time></trkpt><trkpt lat="40.211299767551985" lon="9.54902107729599"><ele>766.0</ele><time>2026-04-11T14:03:36Z</time></trkpt><trkpt lat="40.21113136333505" lon="9.548823362250323"><ele>766.0</ele><time>2026-04-11T14:03:37Z</time></trkpt><trkpt lat="40.21093837673116" lon="9.54865140214039"><ele>766.0</ele><time>2026-04-11T14:03:38Z</time></trkpt><trkpt lat="40.210739670986726" lon="9.548504818149079"><ele>766.0</ele><time>2026-04-11T14:03:39Z</time></trkpt><trkpt lat="40.21055166684387" lon="9.548369601825872"><ele>766.0</ele><time>2026-04-11T14:03:40Z</time></trkpt><trkpt lat="40.21037104245234" lon="9.54823428565261"><ele>766.0</ele><time>2026-04-11T14:03:41Z</time></trkpt><trkpt lat="40.21020702528593" lon="9.548087768227155"><ele>766.0</ele><time>2026-04-11T14:03:42Z</time></trkpt><trkpt lat="40.21009286753766" lon="9.547901572605845"><ele>766.0</ele><time>2026-04-11T14:03:43Z</time></trkpt><trkpt lat="40.209990892182596" lon="9.547709574179008"><ele>770.3333333333334</ele><time>2026-04-11T14:03:44Z</time></trkpt><trkpt lat="40.20985515200268" lon="9.547509678353869"><ele>774.6666666666667</ele><time>2026-04-11T14:03:45Z</time></trkpt><trkpt lat="40.209684880277045" lon="9.547343954121201"><ele>779.0</ele><time>2026-04-11T14:03:46Z</time></trkpt><trkpt lat="40.20951918852575" lon="9.547146503024388"><ele>766.5</ele><time>2026-04-11T14:03:47Z</time></trkpt><trkpt lat="40.209357037162384" lon="9.546923105607945"><ele>754.0</ele><time>2026-04-11T14:03:48Z</time></trkpt><trkpt lat="40.20920083673488" lon="9.546667480906978"><ele>754.0</ele><time>2026-04-11T14:03:49Z</time></trkpt><trkpt lat="40.20905490968258" lon="9.546390846513697"><ele>754.0</ele><time>2026-04-11T14:03:50Z</time></trkpt><trkpt lat="40.208913052098666" lon="9.546104361528542"><ele>768.5</ele><time>2026-04-11T14:03:51Z</time></trkpt><trkpt lat="40.20877624715458" lon="9.545838298050725"><ele>783.0</ele><time>2026-04-11T14:03:52Z</time></trkpt><trkpt lat="40.20865004098901" lon="9.545594984010894"><ele>774.0</ele><time>2026-04-11T14:03:53Z</time></trkpt><trkpt lat="40.20853559425147" lon="9.545367016599677"><ele>765.0</ele><time>2026-04-11T14:03:54Z</time></trkpt><trkpt lat="40.20842880644867" lon="9.545155877000884"><ele>756.0</ele><time>2026-04-11T14:03:55Z</time></trkpt><trkpt lat="40.20831653855436" lon="9.544987178188016"><ele>756.0</ele><time>2026-04-11T14:03:56Z</time></trkpt><trkpt lat="40.20816950121371" lon="9.544879857156076"><ele>756.0</ele><time>2026-04-11T14:03:57Z</time></trkpt><trkpt lat="40.20798186797699" lon="9.544818513313833"><ele>756.0</ele><time>2026-04-11T14:03:58Z</time></trkpt><trkpt lat="40.20778100732431" lon="9.544762000969994"><ele>769.5</ele><time>2026-04-11T14:03:59Z</time></trkpt><trkpt lat="40.207567645777374" lon="9.544696297947393"><ele>783.0</ele><time>2026-04-11T14:04:00Z</time></trkpt><trkpt lat="40.20733847281373" lon="9.54464132913563"><ele>791.5</ele><time>2026-04-11T14:04:01Z</time></trkpt><trkpt lat="40.20709636926168" lon="9.544588717794431"><ele>800.0</ele><time>2026-04-11T14:04:02Z</time></trkpt><trkpt lat="40.2068521599127" lon="9.544510966901727"><ele>784.5</ele><time>2026-04-11T14:04:03Z</time></trkpt><trkpt lat="40.20661670888583" lon="9.544422122320775"><ele>769.0</ele><time>2026-04-11T14:04:04Z</time></trkpt><trkpt lat="40.20638336708679" lon="9.54435874677848"><ele>769.0</ele><time>2026-04-11T14:04:05Z</time></trkpt><trkpt lat="40.20614189222433" lon="9.544339575455714"><ele>769.0</ele><time>2026-04-11T14:04:06Z</time></trkpt><trkpt lat="40.205903707533004" lon="9.544341529115147"><ele>769.0</ele><time>2026-04-11T14:04:07Z</time></trkpt><trkpt lat="40.20568705874493" lon="9.544369233198365"><ele>769.0</ele><time>2026-04-11T14:04:08Z</time></trkpt><trkpt lat="40.205493233335595" lon="9.544394146825418"><ele>769.0</ele><time>2026-04-11T14:04:09Z</time></trkpt><trkpt lat="40.205326598486714" lon="9.544331730729464"><ele>776.6666666666666</ele><time>2026-04-11T14:04:10Z</time></trkpt><trkpt lat="40.20519251157755" lon="9.544213586183352"><ele>784.3333333333333</ele><time>2026-04-11T14:04:11Z</time></trkpt><trkpt lat="40.2050689041311" lon="9.54404671825151"><ele>792.0</ele><time>2026-04-11T14:04:12Z</time></trkpt><trkpt lat="40.20490760300737" lon="9.54389977449851"><ele>787.3333333333333</ele><time>2026-04-11T14:04:13Z</time></trkpt><trkpt lat="40.20476248443521" lon="9.543775822418821"><ele>782.6666666666666</ele><time>2026-04-11T14:04:14Z</time></trkpt><trkpt lat="40.204580193089186" lon="9.543731077712392"><ele>778.0</ele><time>2026-04-11T14:04:15Z</time></trkpt><trkpt lat="40.20440042177183" lon="9.543664420510183"><ele>778.0</ele><time>2026-04-11T14:04:16Z</time></trkpt><trkpt lat="40.2042522677488" lon="9.543516555123489"><ele>778.0</ele><time>2026-04-11T14:04:17Z</time></trkpt><trkpt lat="40.20405072723606" lon="9.543389005771337"><ele>778.0</ele><time>2026-04-11T14:04:18Z</time></trkpt><trkpt lat="40.203849410598515" lon="9.54325726587219"><ele>779.6666666666666</ele><time>2026-04-11T14:04:19Z</time></trkpt><trkpt lat="40.203653733733816" lon="9.54315256046357"><ele>781.3333333333333</ele><time>2026-04-11T14:04:20Z</time></trkpt><trkpt lat="40.20348149542988" lon="9.54301134066887"><ele>783.0</ele><time>2026-04-11T14:04:21Z</time></trkpt><trkpt lat="40.20333037244938" lon="9.542808204157405"><ele>783.0</ele><time>2026-04-11T14:04:22Z</time></trkpt><trkpt lat="40.203176335171555" lon="9.54259100585"><ele>783.0</ele><time>2026-04-11T14:04:23Z</time></trkpt><trkpt lat="40.20302052144442" lon="9.542390745215572"><ele>783.0</ele><time>2026-04-11T14:04:24Z</time></trkpt><trkpt lat="40.20288936885738" lon="9.542201743947267"><ele>786.6666666666667</ele><time>2026-04-11T14:04:25Z</time></trkpt><trkpt lat="40.20279650886087" lon="9.541985208152784"><ele>790.3333333333334</ele><time>2026-04-11T14:04:26Z</time></trkpt><trkpt lat="40.202727288317064" lon="9.541776982406843"><ele>794.0</ele><time>2026-04-11T14:04:27Z</time></trkpt><trkpt lat="40.20263879654505" lon="9.541625961161994"><ele>794.0</ele><time>2026-04-11T14:04:28Z</time></trkpt><trkpt lat="40.20251144349416" lon="9.541537455867683"><ele>794.0</ele><time>2026-04-11T14:04:29Z</time></trkpt><trkpt lat="40.20235038834988" lon="9.541526410872097"><ele>794.0</ele><time>2026-04-11T14:04:30Z</time></trkpt><trkpt lat="40.20216946661719" lon="9.541561561349004"><ele>800.6666666666667</ele><time>2026-04-11T14:04:31Z</time></trkpt><trkpt lat="40.20197135650837" lon="9.541571496021366"><ele>807.3333333333333</ele><time>2026-04-11T14:04:32Z</time></trkpt><trkpt lat="40.20178493352062" lon="9.541549343677302"><ele>814.0</ele><time>2026-04-11T14:04:33Z</time></trkpt><trkpt lat="40.201608061147596" lon="9.541514414917707"><ele>812.3333333333333</ele><time>2026-04-11T14:04:34Z</time></trkpt><trkpt lat="40.201450983819136" lon="9.54143903427042"><ele>810.6666666666667</ele><time>2026-04-11T14:04:35Z</time></trkpt><trkpt lat="40.201332295574076" lon="9.541296078437105"><ele>809.0</ele><time>2026-04-11T14:04:36Z</time></trkpt><trkpt lat="40.2012904262596" lon="9.54107988112029"><ele>809.0</ele><time>2026-04-11T14:04:37Z</time></trkpt><trkpt lat="40.201238420618374" lon="9.54088093793121"><ele>809.0</ele><time>2026-04-11T14:04:38Z</time></trkpt><trkpt lat="40.20114395882969" lon="9.540742996060512"><ele>809.0</ele><time>2026-04-11T14:04:39Z</time></trkpt><trkpt lat="40.20100023369792" lon="9.540656433551321"><ele>809.0</ele><time>2026-04-11T14:04:40Z</time></trkpt><trkpt lat="40.20085355562463" lon="9.54062293881479"><ele>809.0</ele><time>2026-04-11T14:04:41Z</time></trkpt><trkpt lat="40.2007134048508" lon="9.540652694607703"><ele>809.0</ele><time>2026-04-11T14:04:42Z</time></trkpt><trkpt lat="40.20058081627575" lon="9.540752286110646"><ele>809.0</ele><time>2026-04-11T14:04:43Z</time></trkpt><trkpt lat="40.2004659899139" lon="9.540858364208612"><ele>811.25</ele><time>2026-04-11T14:04:44Z</time></trkpt><trkpt lat="40.20034441488085" lon="9.54092079833215"><ele>813.5</ele><time>2026-04-11T14:04:45Z</time></trkpt><trkpt lat="40.2002163226036" lon="9.540921517520271"><ele>815.75</ele><time>2026-04-11T14:04:46Z</time></trkpt><trkpt lat="40.20008518408487" lon="9.540865470851733"><ele>818.0</ele><time>2026-04-11T14:04:47Z</time></trkpt><trkpt lat="40.19996254602757" lon="9.540762269641112"><ele>818.0</ele><time>2026-04-11T14:04:48Z</time></trkpt><trkpt lat="40.199859022415495" lon="9.540628760585879"><ele>818.0</ele><time>2026-04-11T14:04:49Z</time></trkpt><trkpt lat="40.199760384032615" lon="9.540510947835237"><ele>818.0</ele><time>2026-04-11T14:04:50Z</time></trkpt><trkpt lat="40.19964609942653" lon="9.540437449017748"><ele>818.0</ele><time>2026-04-11T14:04:51Z</time></trkpt><trkpt lat="40.199527956480416" lon="9.540393060608654"><ele>820.25</ele><time>2026-04-11T14:04:52Z</time></trkpt><trkpt lat="40.19942479132056" lon="9.540313304326894"><ele>822.5</ele><time>2026-04-11T14:04:53Z</time></trkpt><trkpt lat="40.19936479573084" lon="9.540174689126227"><ele>824.75</ele><time>2026-04-11T14:04:54Z</time></trkpt><trkpt lat="40.19936451521995" lon="9.540001783010311"><ele>827.0</ele><time>2026-04-11T14:04:55Z</time></trkpt><trkpt lat="40.1994139513362" lon="9.539825650351322"><ele>827.0</ele><time>2026-04-11T14:04:56Z</time></trkpt><trkpt lat="40.19944996299849" lon="9.539651918975606"><ele>827.0</ele><time>2026-04-11T14:04:57Z</time></trkpt><trkpt lat="40.19941319972345" lon="9.539477612121706"><ele>827.0</ele><time>2026-04-11T14:04:58Z</time></trkpt><trkpt lat="40.199317238190496" lon="9.53932567384413"><ele>827.0</ele><time>2026-04-11T14:04:59Z</time></trkpt><trkpt lat="40.19919473977969" lon="9.539201406746058"><ele>823.6666666666667</ele><time>2026-04-11T14:05:00Z</time></trkpt><trkpt lat="40.19905148494992" lon="9.53912910979048"><ele>820.3333333333333</ele><time>2026-04-11T14:05:01Z</time></trkpt><trkpt lat="40.198888451988005" lon="9.539114424636468"><ele>817.0</ele><time>2026-04-11T14:05:02Z</time></trkpt><trkpt lat="40.198741941175115" lon="9.539166591818447"><ele>817.0</ele><time>2026-04-11T14:05:03Z</time></trkpt><trkpt lat="40.19860434699149" lon="9.539254236168576"><ele>817.0</ele><time>2026-04-11T14:05:04Z</time></trkpt><trkpt lat="40.198481123753616" lon="9.539330300647746"><ele>817.0</ele><time>2026-04-11T14:05:05Z</time></trkpt><trkpt lat="40.19836479572458" lon="9.539347483230975"><ele>817.0</ele><time>2026-04-11T14:05:06Z</time></trkpt><trkpt lat="40.19825483542348" lon="9.539288924017228"><ele>819.75</ele><time>2026-04-11T14:05:07Z</time></trkpt><trkpt lat="40.19816286481137" lon="9.539161416528263"><ele>822.5</ele><time>2026-04-11T14:05:08Z</time></trkpt><trkpt lat="40.19808497620748" lon="9.539006797415926"><ele>825.25</ele><time>2026-04-11T14:05:09Z</time></trkpt><trkpt lat="40.19801287996011" lon="9.538850649333758"><ele>828.0</ele><time>2026-04-11T14:05:10Z</time></trkpt><trkpt lat="40.197928277229394" lon="9.538711398847362"><ele>828.0</ele><time>2026-04-11T14:05:11Z</time></trkpt><trkpt lat="40.197821396304505" lon="9.538602351979133"><ele>828.0</ele><time>2026-04-11T14:05:12Z</time></trkpt><trkpt lat="40.19769799983462" lon="9.538532114340798"><ele>828.0</ele><time>2026-04-11T14:05:13Z</time></trkpt><trkpt lat="40.19757174534046" lon="9.538486701010367"><ele>828.0</ele><time>2026-04-11T14:05:14Z</time></trkpt><trkpt lat="40.19746200301697" lon="9.538420602720198"><ele>828.0</ele><time>2026-04-11T14:05:15Z</time></trkpt><trkpt lat="40.19738161251956" lon="9.538297138069767"><ele>828.0</ele><time>2026-04-11T14:05:16Z</time></trkpt><trkpt lat="40.19734007375884" lon="9.538130014670669"><ele>828.0</ele><time>2026-04-11T14:05:17Z</time></trkpt><trkpt lat="40.19734938492465" lon="9.53794207203178"><ele>828.0</ele><time>2026-04-11T14:05:18Z</time></trkpt><trkpt lat="40.197393525582626" lon="9.537751364483453"><ele>825.6666666666667</ele><time>2026-04-11T14:05:19Z</time></trkpt><trkpt lat="40.19742707253455" lon="9.537553267886466"><ele>823.3333333333334</ele><time>2026-04-11T14:05:20Z</time></trkpt><trkpt lat="40.197412070038816" lon="9.537334665593113"><ele>821.0</ele><time>2026-04-11T14:05:21Z</time></trkpt><trkpt lat="40.197384390878604" lon="9.537100496780104"><ele>821.3333333333334</ele><time>2026-04-11T14:05:22Z</time></trkpt><trkpt lat="40.197361262157315" lon="9.536868898183416"><ele>821.6666666666667</ele><time>2026-04-11T14:05:23Z</time></trkpt><trkpt lat="40.197350216044256" lon="9.536645279797444"><ele>822.0</ele><time>2026-04-11T14:05:24Z</time></trkpt><trkpt lat="40.197355045912566" lon="9.536433618829111"><ele>822.0</ele><time>2026-04-11T14:05:25Z</time></trkpt><trkpt lat="40.19736186076975" lon="9.536243715619323"><ele>822.0</ele><time>2026-04-11T14:05:26Z</time></trkpt><trkpt lat="40.19735574503999" lon="9.53608154016291"><ele>822.0</ele><time>2026-04-11T14:05:27Z</time></trkpt><trkpt lat="40.19730190438852" lon="9.535952026261137"><ele>822.0</ele><time>2026-04-11T14:05:28Z</time></trkpt><trkpt lat="40.197195550900766" lon="9.535866316301457"><ele>819.75</ele><time>2026-04-11T14:05:29Z</time></trkpt><trkpt lat="40.19706657101376" lon="9.535855669769898"><ele>817.5</ele><time>2026-04-11T14:05:30Z</time></trkpt><trkpt lat="40.196927505552296" lon="9.535918381266045"><ele>815.25</ele><time>2026-04-11T14:05:31Z</time></trkpt><trkpt lat="40.1967788275199" lon="9.53600502409601"><ele>813.0</ele><time>2026-04-11T14:05:32Z</time></trkpt><trkpt lat="40.1966235256844" lon="9.536080263536238"><ele>816.3333333333333</ele><time>2026-04-11T14:05:33Z</time></trkpt><trkpt lat="40.19646217082678" lon="9.53616788829228"><ele>819.6666666666666</ele><time>2026-04-11T14:05:34Z</time></trkpt><trkpt lat="40.19630690050254" lon="9.536264504203091"><ele>823.0</ele><time>2026-04-11T14:05:35Z</time></trkpt><trkpt lat="40.196159145886504" lon="9.536357732767465"><ele>823.0</ele><time>2026-04-11T14:05:36Z</time></trkpt><trkpt lat="40.196021788092274" lon="9.536458025890536"><ele>823.0</ele><time>2026-04-11T14:05:37Z</time></trkpt><trkpt lat="40.195899474000356" lon="9.536605813860831"><ele>823.0</ele><time>2026-04-11T14:05:38Z</time></trkpt><trkpt lat="40.19579651481359" lon="9.536792067763216"><ele>823.0</ele><time>2026-04-11T14:05:39Z</time></trkpt><trkpt lat="40.195702047304245" lon="9.536986974526332"><ele>823.0</ele><time>2026-04-11T14:05:40Z</time></trkpt><trkpt lat="40.19560713844502" lon="9.537161842105892"><ele>823.0</ele><time>2026-04-11T14:05:41Z</time></trkpt><trkpt lat="40.1955033231543" lon="9.537308621333139"><ele>827.5</ele><time>2026-04-11T14:05:42Z</time></trkpt><trkpt lat="40.19537119089309" lon="9.53738394302205"><ele>832.0</ele><time>2026-04-11T14:05:43Z</time></trkpt><trkpt lat="40.195256965885996" lon="9.53747367173437"><ele>836.5</ele><time>2026-04-11T14:05:44Z</time></trkpt><trkpt lat="40.19514745073684" lon="9.537513211120348"><ele>841.0</ele><time>2026-04-11T14:05:45Z</time></trkpt><trkpt lat="40.19504487159917" lon="9.537498852121491"><ele>841.0</ele><time>2026-04-11T14:05:46Z</time></trkpt><trkpt lat="40.19495558964525" lon="9.537404526809931"><ele>841.0</ele><time>2026-04-11T14:05:47Z</time></trkpt><trkpt lat="40.19490407846293" lon="9.537231722433633"><ele>841.0</ele><time>2026-04-11T14:05:48Z</time></trkpt><trkpt lat="40.19481043918271" lon="9.537121750517413"><ele>841.0</ele><time>2026-04-11T14:05:49Z</time></trkpt><trkpt lat="40.19470783226869" lon="9.537029738194125"><ele>832.25</ele><time>2026-04-11T14:05:50Z</time></trkpt><trkpt lat="40.19457332671312" lon="9.537000601547586"><ele>823.5</ele><time>2026-04-11T14:05:51Z</time></trkpt><trkpt lat="40.19443466508091" lon="9.536990298222165"><ele>814.75</ele><time>2026-04-11T14:05:52Z</time></trkpt><trkpt lat="40.19431147132539" lon="9.536985602163332"><ele>806.0</ele><time>2026-04-11T14:05:53Z</time></trkpt><trkpt lat="40.19419836271245" lon="9.537018825996654"><ele>816.25</ele><time>2026-04-11T14:05:54Z</time></trkpt><trkpt lat="40.19409922402402" lon="9.537118973190756"><ele>826.5</ele><time>2026-04-11T14:05:55Z</time></trkpt><trkpt lat="40.19401816605557" lon="9.537261100726312"><ele>836.75</ele><time>2026-04-11T14:05:56Z</time></trkpt><trkpt lat="40.19392637284262" lon="9.53737237730493"><ele>847.0</ele><time>2026-04-11T14:05:57Z</time></trkpt><trkpt lat="40.19380680072483" lon="9.537373381713001"><ele>849.0</ele><time>2026-04-11T14:05:58Z</time></trkpt><trkpt lat="40.19370211607763" lon="9.537304253289015"><ele>851.0</ele><time>2026-04-11T14:05:59Z</time></trkpt><trkpt lat="40.193615238094885" lon="9.53716472106109"><ele>853.0</ele><time>2026-04-11T14:06:00Z</time></trkpt><trkpt lat="40.193489448393" lon="9.537021649439602"><ele>855.0</ele><time>2026-04-11T14:06:01Z</time></trkpt><trkpt lat="40.193345440293506" lon="9.536858204338591"><ele>855.3333333333333</ele><time>2026-04-11T14:06:02Z</time></trkpt><trkpt lat="40.19318379784496" lon="9.536676702590718"><ele>855.6666666666666</ele><time>2026-04-11T14:06:03Z</time></trkpt><trkpt lat="40.19301754852688" lon="9.536488753327353"><ele>856.0</ele><time>2026-04-11T14:06:04Z</time></trkpt><trkpt lat="40.192863105100095" lon="9.536338210155618"><ele>847.5</ele><time>2026-04-11T14:06:05Z</time></trkpt><trkpt lat="40.19275600084274" lon="9.536193994188586"><ele>839.0</ele><time>2026-04-11T14:06:06Z</time></trkpt><trkpt lat="40.19277907398217" lon="9.536016340341154"><ele>830.5</ele><time>2026-04-11T14:06:07Z</time></trkpt><trkpt lat="40.19274861715288" lon="9.53585597892507"><ele>822.0</ele><time>2026-04-11T14:06:08Z</time></trkpt><trkpt lat="40.19270229771216" lon="9.535714291284522"><ele>822.0</ele><time>2026-04-11T14:06:09Z</time></trkpt><trkpt lat="40.19262821332096" lon="9.535614857403008"><ele>822.0</ele><time>2026-04-11T14:06:10Z</time></trkpt><trkpt lat="40.19252645382738" lon="9.535573310440183"><ele>822.0</ele><time>2026-04-11T14:06:11Z</time></trkpt><trkpt lat="40.192434015512944" lon="9.53559016501986"><ele>822.0</ele><time>2026-04-11T14:06:12Z</time></trkpt><trkpt lat="40.19234590019014" lon="9.535614775951007"><ele>822.0</ele><time>2026-04-11T14:06:13Z</time></trkpt><trkpt lat="40.19224833427621" lon="9.535625571945294"><ele>821.0</ele><time>2026-04-11T14:06:14Z</time></trkpt><trkpt lat="40.19214094840769" lon="9.535636644911413"><ele>820.0</ele><time>2026-04-11T14:06:15Z</time></trkpt><trkpt lat="40.19202158549679" lon="9.535688349396745"><ele>819.0</ele><time>2026-04-11T14:06:16Z</time></trkpt><trkpt lat="40.19187144622593" lon="9.535777548504043"><ele>818.0</ele><time>2026-04-11T14:06:17Z</time></trkpt><trkpt lat="40.191698310130036" lon="9.53586672151562"><ele>818.0</ele><time>2026-04-11T14:06:18Z</time></trkpt><trkpt lat="40.191518337864956" lon="9.535949782192349"><ele>818.0</ele><time>2026-04-11T14:06:19Z</time></trkpt><trkpt lat="40.1913309126293" lon="9.536040400945364"><ele>818.0</ele><time>2026-04-11T14:06:20Z</time></trkpt><trkpt lat="40.19115141013962" lon="9.536140677510462"><ele>826.3333333333334</ele><time>2026-04-11T14:06:21Z</time></trkpt><trkpt lat="40.190987521741924" lon="9.536243651979868"><ele>834.6666666666667</ele><time>2026-04-11T14:06:22Z</time></trkpt><trkpt lat="40.19085189759843" lon="9.536364751808442"><ele>843.0</ele><time>2026-04-11T14:06:23Z</time></trkpt><trkpt lat="40.19072487459334" lon="9.536479545515757"><ele>842.5</ele><time>2026-04-11T14:06:24Z</time></trkpt><trkpt lat="40.190578152765084" lon="9.53647690493868"><ele>842.0</ele><time>2026-04-11T14:06:25Z</time></trkpt><trkpt lat="40.19042001273328" lon="9.5364935991341"><ele>841.5</ele><time>2026-04-11T14:06:26Z</time></trkpt><trkpt lat="40.190279358233646" lon="9.536527423865675"><ele>841.0</ele><time>2026-04-11T14:06:27Z</time></trkpt><trkpt lat="40.190170986768656" lon="9.536600274959456"><ele>841.0</ele><time>2026-04-11T14:06:28Z</time></trkpt><trkpt lat="40.19006166359306" lon="9.53658802315872"><ele>841.0</ele><time>2026-04-11T14:06:29Z</time></trkpt><trkpt lat="40.18999707160321" lon="9.536455130224443"><ele>841.0</ele><time>2026-04-11T14:06:30Z</time></trkpt><trkpt lat="40.18993416574436" lon="9.536308381624389"><ele>841.0</ele><time>2026-04-11T14:06:31Z</time></trkpt><trkpt lat="40.18987273092505" lon="9.53612802638421"><ele>837.0</ele><time>2026-04-11T14:06:32Z</time></trkpt><trkpt lat="40.18978802100533" lon="9.535955722995576"><ele>833.0</ele><time>2026-04-11T14:06:33Z</time></trkpt><trkpt lat="40.189683252719256" lon="9.53583110075232"><ele>829.0</ele><time>2026-04-11T14:06:34Z</time></trkpt><trkpt lat="40.18952942330893" lon="9.535769166018243"><ele>829.0</ele><time>2026-04-11T14:06:35Z</time></trkpt><trkpt lat="40.189353639211085" lon="9.53570234781456"><ele>829.0</ele><time>2026-04-11T14:06:36Z</time></trkpt><trkpt lat="40.18918242410295" lon="9.535617503352292"><ele>829.0</ele><time>2026-04-11T14:06:37Z</time></trkpt><trkpt lat="40.18902689760867" lon="9.53554025381057"><ele>827.6666666666666</ele><time>2026-04-11T14:06:38Z</time></trkpt><trkpt lat="40.18887841026195" lon="9.53553152854794"><ele>826.3333333333333</ele><time>2026-04-11T14:06:39Z</time></trkpt><trkpt lat="40.18872155748376" lon="9.535596930737002"><ele>825.0</ele><time>2026-04-11T14:06:40Z</time></trkpt><trkpt lat="40.18856083597967" lon="9.5357145809902"><ele>825.0</ele><time>2026-04-11T14:06:41Z</time></trkpt><trkpt lat="40.188409943869765" lon="9.535862800829229"><ele>825.0</ele><time>2026-04-11T14:06:42Z</time></trkpt><trkpt lat="40.18827864772876" lon="9.536008825760476"><ele>825.0</ele><time>2026-04-11T14:06:43Z</time></trkpt><trkpt lat="40.18814803065419" lon="9.536105360008325"><ele>827.0</ele><time>2026-04-11T14:06:44Z</time></trkpt><trkpt lat="40.188002341965316" lon="9.536090977389614"><ele>829.0</ele><time>2026-04-11T14:06:45Z</time></trkpt><trkpt lat="40.18786803068528" lon="9.53600037674419"><ele>831.0</ele><time>2026-04-11T14:06:46Z</time></trkpt><trkpt lat="40.187709133220956" lon="9.535883136314151"><ele>831.0</ele><time>2026-04-11T14:06:47Z</time></trkpt><trkpt lat="40.18755200800714" lon="9.535732273789986"><ele>831.0</ele><time>2026-04-11T14:06:48Z</time></trkpt><trkpt lat="40.18742192714681" lon="9.535586463079943"><ele>831.0</ele><time>2026-04-11T14:06:49Z</time></trkpt><trkpt lat="40.18729675084271" lon="9.53549226596479"><ele>830.5</ele><time>2026-04-11T14:06:50Z</time></trkpt><trkpt lat="40.187160345664" lon="9.535487636869213"><ele>830.0</ele><time>2026-04-11T14:06:51Z</time></trkpt><trkpt lat="40.187037498982654" lon="9.535560825153576"><ele>829.5</ele><time>2026-04-11T14:06:52Z</time></trkpt><trkpt lat="40.18691876087264" lon="9.535687321342113"><ele>829.0</ele><time>2026-04-11T14:06:53Z</time></trkpt><trkpt lat="40.18677946487883" lon="9.535801714071894"><ele>829.0</ele><time>2026-04-11T14:06:54Z</time></trkpt><trkpt lat="40.18663148952815" lon="9.535922916797412"><ele>829.0</ele><time>2026-04-11T14:06:55Z</time></trkpt><trkpt lat="40.18649823315185" lon="9.536072003142305"><ele>829.0</ele><time>2026-04-11T14:06:56Z</time></trkpt><trkpt lat="40.186382681179296" lon="9.53621989359186"><ele>832.25</ele><time>2026-04-11T14:06:57Z</time></trkpt><trkpt lat="40.18625950802403" lon="9.536305764715033"><ele>835.5</ele><time>2026-04-11T14:06:58Z</time></trkpt><trkpt lat="40.18612467482837" lon="9.536316448863776"><ele>838.75</ele><time>2026-04-11T14:06:59Z</time></trkpt><trkpt lat="40.18601162849381" lon="9.536261175352458"><ele>842.0</ele><time>2026-04-11T14:07:00Z</time></trkpt><trkpt lat="40.18595049053138" lon="9.53609422379166"><ele>842.0</ele><time>2026-04-11T14:07:01Z</time></trkpt><trkpt lat="40.18582961740401" lon="9.53597843279222"><ele>842.0</ele><time>2026-04-11T14:07:02Z</time></trkpt><trkpt lat="40.185719427798105" lon="9.535874312229776"><ele>842.0</ele><time>2026-04-11T14:07:03Z</time></trkpt><trkpt lat="40.185644776847376" lon="9.5357473797584"><ele>842.0</ele><time>2026-04-11T14:07:04Z</time></trkpt><trkpt lat="40.185654221535046" lon="9.535571777365247"><ele>850.3333333333334</ele><time>2026-04-11T14:07:05Z</time></trkpt><trkpt lat="40.1856614293549" lon="9.535376769773437"><ele>858.6666666666667</ele><time>2026-04-11T14:07:06Z</time></trkpt><trkpt lat="40.185651393228994" lon="9.53516421619106"><ele>867.0</ele><time>2026-04-11T14:07:07Z</time></trkpt><trkpt lat="40.1856250812067" lon="9.534943716351819"><ele>867.0</ele><time>2026-04-11T14:07:08Z</time></trkpt><trkpt lat="40.18554975500224" lon="9.534723516153422"><ele>867.0</ele><time>2026-04-11T14:07:09Z</time></trkpt><trkpt lat="40.18548696340289" lon="9.534518039751989"><ele>867.0</ele><time>2026-04-11T14:07:10Z</time></trkpt><trkpt lat="40.1854221978451" lon="9.534363706044031"><ele>859.75</ele><time>2026-04-11T14:07:11Z</time></trkpt><trkpt lat="40.18532160936006" lon="9.534271837692641"><ele>852.5</ele><time>2026-04-11T14:07:12Z</time></trkpt><trkpt lat="40.18517966448702" lon="9.534247405535481"><ele>845.25</ele><time>2026-04-11T14:07:13Z</time></trkpt><trkpt lat="40.185019796440905" lon="9.534281563346495"><ele>838.0</ele><time>2026-04-11T14:07:14Z</time></trkpt><trkpt lat="40.18486167813054" lon="9.534334840583496"><ele>845.25</ele><time>2026-04-11T14:07:15Z</time></trkpt><trkpt lat="40.18471875593372" lon="9.534364634380054"><ele>852.5</ele><time>2026-04-11T14:07:16Z</time></trkpt><trkpt lat="40.18459696481428" lon="9.534345409624985"><ele>859.75</ele><time>2026-04-11T14:07:17Z</time></trkpt><trkpt lat="40.18450676273487" lon="9.534257720538964"><ele>867.0</ele><time>2026-04-11T14:07:18Z</time></trkpt><trkpt lat="40.184475503375324" lon="9.534094266127548"><ele>867.0</ele><time>2026-04-11T14:07:19Z</time></trkpt><trkpt lat="40.18443211212918" lon="9.533925985638867"><ele>867.0</ele><time>2026-04-11T14:07:20Z</time></trkpt><trkpt lat="40.18436441902399" lon="9.533745046105096"><ele>867.0</ele><time>2026-04-11T14:07:21Z</time></trkpt><trkpt lat="40.184251928967605" lon="9.533597608445731"><ele>867.0</ele><time>2026-04-11T14:07:22Z</time></trkpt><trkpt lat="40.1840937125994" lon="9.533485143498448"><ele>862.6666666666667</ele><time>2026-04-11T14:07:23Z</time></trkpt><trkpt lat="40.183914771285636" lon="9.533404941802118"><ele>858.3333333333334</ele><time>2026-04-11T14:07:24Z</time></trkpt><trkpt lat="40.183723693458994" lon="9.533336077272386"><ele>854.0</ele><time>2026-04-11T14:07:25Z</time></trkpt><trkpt lat="40.183517138387536" lon="9.533284359202911"><ele>854.0</ele><time>2026-04-11T14:07:26Z</time></trkpt><trkpt lat="40.18329528931438" lon="9.533255780691084"><ele>854.0</ele><time>2026-04-11T14:07:27Z</time></trkpt><trkpt lat="40.18306573777086" lon="9.533243579160489"><ele>859.0</ele><time>2026-04-11T14:07:28Z</time></trkpt><trkpt lat="40.18284273084561" lon="9.533219572383814"><ele>864.0</ele><time>2026-04-11T14:07:29Z</time></trkpt><trkpt lat="40.18264108186121" lon="9.533173011624836"><ele>869.0</ele><time>2026-04-11T14:07:30Z</time></trkpt><trkpt lat="40.18244845582634" lon="9.533099490049361"><ele>871.3333333333334</ele><time>2026-04-11T14:07:31Z</time></trkpt><trkpt lat="40.18227168557317" lon="9.53300443171066"><ele>873.6666666666667</ele><time>2026-04-11T14:07:32Z</time></trkpt><trkpt lat="40.182104595820064" lon="9.532916748698883"><ele>876.0</ele><time>2026-04-11T14:07:33Z</time></trkpt><trkpt lat="40.18195528789992" lon="9.532839684510762"><ele>862.3333333333333</ele><time>2026-04-11T14:07:34Z</time></trkpt><trkpt lat="40.18181250313593" lon="9.532779647327862"><ele>848.6666666666666</ele><time>2026-04-11T14:07:35Z</time></trkpt><trkpt lat="40.181659576807235" lon="9.532772375640063"><ele>835.0</ele><time>2026-04-11T14:07:36Z</time></trkpt><trkpt lat="40.1815074102053" lon="9.532841376238386"><ele>851.6666666666666</ele><time>2026-04-11T14:07:37Z</time></trkpt><trkpt lat="40.18135440480176" lon="9.53293606337083"><ele>868.3333333333333</ele><time>2026-04-11T14:07:38Z</time></trkpt><trkpt lat="40.18119428795958" lon="9.532984838547438"><ele>885.0</ele><time>2026-04-11T14:07:39Z</time></trkpt><trkpt lat="40.18102079235702" lon="9.532966578714959"><ele>885.0</ele><time>2026-04-11T14:07:40Z</time></trkpt><trkpt lat="40.18084192232586" lon="9.532890136144948"><ele>885.0</ele><time>2026-04-11T14:07:41Z</time></trkpt><trkpt lat="40.18065190581834" lon="9.532819032015121"><ele>885.0</ele><time>2026-04-11T14:07:42Z</time></trkpt><trkpt lat="40.18046214012318" lon="9.53276708417131"><ele>871.3333333333333</ele><time>2026-04-11T14:07:43Z</time></trkpt><trkpt lat="40.18028538315328" lon="9.532741550834457"><ele>857.6666666666666</ele><time>2026-04-11T14:07:44Z</time></trkpt><trkpt lat="40.18009957071878" lon="9.532769219168133"><ele>844.0</ele><time>2026-04-11T14:07:45Z</time></trkpt><trkpt lat="40.17990315793438" lon="9.532814828491361"><ele>850.6666666666666</ele><time>2026-04-11T14:07:46Z</time></trkpt><trkpt lat="40.179709055936264" lon="9.532821514831461"><ele>857.3333333333333</ele><time>2026-04-11T14:07:47Z</time></trkpt><trkpt lat="40.1795254364984" lon="9.532798537133825"><ele>864.0</ele><time>2026-04-11T14:07:48Z</time></trkpt><trkpt lat="40.179357920546686" lon="9.532765109021234"><ele>864.0</ele><time>2026-04-11T14:07:49Z</time></trkpt><trkpt lat="40.179218478120646" lon="9.53271337122623"><ele>864.0</ele><time>2026-04-11T14:07:50Z</time></trkpt><trkpt lat="40.179107239488715" lon="9.53261346794748"><ele>864.0</ele><time>2026-04-11T14:07:51Z</time></trkpt><trkpt lat="40.17902569870856" lon="9.532474050181019"><ele>864.0</ele><time>2026-04-11T14:07:52Z</time></trkpt><trkpt lat="40.1789980640416" lon="9.532309539027727"><ele>864.0</ele><time>2026-04-11T14:07:53Z</time></trkpt><trkpt lat="40.179051724069815" lon="9.53212163892768"><ele>864.0</ele><time>2026-04-11T14:07:54Z</time></trkpt><trkpt lat="40.17907711034614" lon="9.53191543811834"><ele>864.0</ele><time>2026-04-11T14:07:55Z</time></trkpt><trkpt lat="40.17905279875961" lon="9.531686957177026"><ele>865.0</ele><time>2026-04-11T14:07:56Z</time></trkpt><trkpt lat="40.17902121576178" lon="9.531446916775305"><ele>866.0</ele><time>2026-04-11T14:07:57Z</time></trkpt><trkpt lat="40.17906079545104" lon="9.531206990410473"><ele>867.0</ele><time>2026-04-11T14:07:58Z</time></trkpt><trkpt lat="40.17909735137186" lon="9.5309423180674"><ele>867.0</ele><time>2026-04-11T14:07:59Z</time></trkpt><trkpt lat="40.179166887807135" lon="9.530701471401148"><ele>867.0</ele><time>2026-04-11T14:08:00Z</time></trkpt><trkpt lat="40.17924908007774" lon="9.53048801306202"><ele>867.0</ele><time>2026-04-11T14:08:01Z</time></trkpt><trkpt lat="40.179306147580554" lon="9.5302916149639"><ele>867.25</ele><time>2026-04-11T14:08:02Z</time></trkpt><trkpt lat="40.179308618028685" lon="9.53011052871846"><ele>867.5</ele><time>2026-04-11T14:08:03Z</time></trkpt><trkpt lat="40.179250171924686" lon="9.529948347195633"><ele>867.75</ele><time>2026-04-11T14:08:04Z</time></trkpt><trkpt lat="40.179147653106455" lon="9.529788603493023"><ele>868.0</ele><time>2026-04-11T14:08:05Z</time></trkpt><trkpt lat="40.17904936895822" lon="9.529599945461358"><ele>871.6666666666666</ele><time>2026-04-11T14:08:06Z</time></trkpt><trkpt lat="40.17897675456764" lon="9.529391896717254"><ele>875.3333333333333</ele><time>2026-04-11T14:08:07Z</time></trkpt><trkpt lat="40.17890339397163" lon="9.529217776145003"><ele>879.0</ele><time>2026-04-11T14:08:08Z</time></trkpt><trkpt lat="40.178789450844164" lon="9.529101918422713"><ele>879.0</ele><time>2026-04-11T14:08:09Z</time></trkpt><trkpt lat="40.17863040109852" lon="9.529043275244655"><ele>879.0</ele><time>2026-04-11T14:08:10Z</time></trkpt><trkpt lat="40.178447856629326" lon="9.529026598086611"><ele>879.0</ele><time>2026-04-11T14:08:11Z</time></trkpt><trkpt lat="40.178280310491026" lon="9.528935362923121"><ele>881.0</ele><time>2026-04-11T14:08:12Z</time></trkpt><trkpt lat="40.17810827934828" lon="9.528800867587094"><ele>883.0</ele><time>2026-04-11T14:08:13Z</time></trkpt><trkpt lat="40.17794550154341" lon="9.528631629406446"><ele>885.0</ele><time>2026-04-11T14:08:14Z</time></trkpt><trkpt lat="40.177791970584565" lon="9.52845978162845"><ele>885.0</ele><time>2026-04-11T14:08:15Z</time></trkpt><trkpt lat="40.177658930944126" lon="9.528238338951667"><ele>885.0</ele><time>2026-04-11T14:08:16Z</time></trkpt><trkpt lat="40.17752215835416" lon="9.52800273845954"><ele>885.0</ele><time>2026-04-11T14:08:17Z</time></trkpt><trkpt lat="40.17738222409699" lon="9.527779940773733"><ele>888.6666666666667</ele><time>2026-04-11T14:08:18Z</time></trkpt><trkpt lat="40.177246028207975" lon="9.527585300006535"><ele>892.3333333333334</ele><time>2026-04-11T14:08:19Z</time></trkpt><trkpt lat="40.177085942578465" lon="9.527428498292075"><ele>896.0</ele><time>2026-04-11T14:08:20Z</time></trkpt><trkpt lat="40.176887376131866" lon="9.527305907409604"><ele>896.0</ele><time>2026-04-11T14:08:21Z</time></trkpt><trkpt lat="40.176685531513066" lon="9.527181036393358"><ele>896.0</ele><time>2026-04-11T14:08:22Z</time></trkpt><trkpt lat="40.17650275036871" lon="9.527078121536508"><ele>896.0</ele><time>2026-04-11T14:08:23Z</time></trkpt><trkpt lat="40.176322962720725" lon="9.52702128564892"><ele>899.6666666666667</ele><time>2026-04-11T14:08:24Z</time></trkpt><trkpt lat="40.176148481101286" lon="9.527007535700411"><ele>903.3333333333333</ele><time>2026-04-11T14:08:25Z</time></trkpt><trkpt lat="40.17599705833492" lon="9.527055575864452"><ele>907.0</ele><time>2026-04-11T14:08:26Z</time></trkpt><trkpt lat="40.175857037496364" lon="9.527169018083661"><ele>907.0</ele><time>2026-04-11T14:08:27Z</time></trkpt><trkpt lat="40.17571401130107" lon="9.52728250694134"><ele>907.0</ele><time>2026-04-11T14:08:28Z</time></trkpt><trkpt lat="40.17557284843973" lon="9.527308775271953"><ele>907.0</ele><time>2026-04-11T14:08:29Z</time></trkpt><trkpt lat="40.175429895185516" lon="9.527215822713488"><ele>908.0</ele><time>2026-04-11T14:08:30Z</time></trkpt><trkpt lat="40.17525660460682" lon="9.527219660594328"><ele>909.0</ele><time>2026-04-11T14:08:31Z</time></trkpt><trkpt lat="40.17507535518595" lon="9.527223094396552"><ele>910.0</ele><time>2026-04-11T14:08:32Z</time></trkpt><trkpt lat="40.174885018447405" lon="9.527193468854422"><ele>912.0</ele><time>2026-04-11T14:08:33Z</time></trkpt><trkpt lat="40.17468844095942" lon="9.527135327210118"><ele>914.0</ele><time>2026-04-11T14:08:34Z</time></trkpt><trkpt lat="40.174481906631804" lon="9.527081552782622"><ele>916.0</ele><time>2026-04-11T14:08:35Z</time></trkpt><trkpt lat="40.17426180340225" lon="9.527031476775282"><ele>907.6666666666666</ele><time>2026-04-11T14:08:36Z</time></trkpt><trkpt lat="40.17403622081773" lon="9.526975371727211"><ele>899.3333333333333</ele><time>2026-04-11T14:08:37Z</time></trkpt><trkpt lat="40.17382228350292" lon="9.526911669842518"><ele>891.0</ele><time>2026-04-11T14:08:38Z</time></trkpt><trkpt lat="40.17362412704627" lon="9.526855208631082"><ele>891.0</ele><time>2026-04-11T14:08:39Z</time></trkpt><trkpt lat="40.17344016869307" lon="9.526811217177395"><ele>891.0</ele><time>2026-04-11T14:08:40Z</time></trkpt><trkpt lat="40.17325256113006" lon="9.526797931161923"><ele>891.0</ele><time>2026-04-11T14:08:41Z</time></trkpt><trkpt lat="40.1730482048463" lon="9.526838409774367"><ele>895.6666666666667</ele><time>2026-04-11T14:08:42Z</time></trkpt><trkpt lat="40.172836715549316" lon="9.526895551496983"><ele>900.3333333333334</ele><time>2026-04-11T14:08:43Z</time></trkpt><trkpt lat="40.17262345474205" lon="9.526940475242137"><ele>905.0</ele><time>2026-04-11T14:08:44Z</time></trkpt><trkpt lat="40.172414710882755" lon="9.526982754906653"><ele>904.6666666666667</ele><time>2026-04-11T14:08:45Z</time></trkpt><trkpt lat="40.17220857864398" lon="9.52703114130888"><ele>904.3333333333333</ele><time>2026-04-11T14:08:46Z</time></trkpt><trkpt lat="40.171999558498534" lon="9.527078883744801"><ele>904.0</ele><time>2026-04-11T14:08:47Z</time></trkpt><trkpt lat="40.17178510670793" lon="9.527113406923812"><ele>904.0</ele><time>2026-04-11T14:08:48Z</time></trkpt><trkpt lat="40.17156169428702" lon="9.527111034300766"><ele>904.0</ele><time>2026-04-11T14:08:49Z</time></trkpt><trkpt lat="40.17134476060064" lon="9.527059866773474"><ele>904.0</ele><time>2026-04-11T14:08:50Z</time></trkpt><trkpt lat="40.1711174957079" lon="9.526981502609951"><ele>903.6666666666666</ele><time>2026-04-11T14:08:51Z</time></trkpt><trkpt lat="40.170909661586656" lon="9.526901504075228"><ele>903.3333333333333</ele><time>2026-04-11T14:08:52Z</time></trkpt><trkpt lat="40.17072009194919" lon="9.526806801820975"><ele>903.0</ele><time>2026-04-11T14:08:53Z</time></trkpt><trkpt lat="40.170560073755055" lon="9.526670485732636"><ele>903.0</ele><time>2026-04-11T14:08:54Z</time></trkpt><trkpt lat="40.170452421922754" lon="9.526461037140262"><ele>903.0</ele><time>2026-04-11T14:08:55Z</time></trkpt><trkpt lat="40.17036170428515" lon="9.526231945247021"><ele>903.0</ele><time>2026-04-11T14:08:56Z</time></trkpt><trkpt lat="40.17028358667502" lon="9.52602536036422"><ele>905.5</ele><time>2026-04-11T14:08:57Z</time></trkpt><trkpt lat="40.17020741826987" lon="9.525846446124476"><ele>908.0</ele><time>2026-04-11T14:08:58Z</time></trkpt><trkpt lat="40.17010339836277" lon="9.525736928324875"><ele>910.5</ele><time>2026-04-11T14:08:59Z</time></trkpt><trkpt lat="40.16997771471743" lon="9.52570907125949"><ele>913.0</ele><time>2026-04-11T14:09:00Z</time></trkpt><trkpt lat="40.16985284394673" lon="9.525765608285193"><ele>916.6666666666666</ele><time>2026-04-11T14:09:01Z</time></trkpt><trkpt lat="40.16975975736683" lon="9.525902942510998"><ele>920.3333333333333</ele><time>2026-04-11T14:09:02Z</time></trkpt><trkpt lat="40.1696970946044" lon="9.526099338599181"><ele>924.0</ele><time>2026-04-11T14:09:03Z</time></trkpt><trkpt lat="40.169643705604" lon="9.526310227884338"><ele>924.0</ele><time>2026-04-11T14:09:04Z</time></trkpt><trkpt lat="40.16955490654491" lon="9.52651384952975"><ele>924.0</ele><time>2026-04-11T14:09:05Z</time></trkpt><trkpt lat="40.16942060369627" lon="9.526698103278733"><ele>924.0</ele><time>2026-04-11T14:09:06Z</time></trkpt><trkpt lat="40.16925458210382" lon="9.526859946859645"><ele>924.0</ele><time>2026-04-11T14:09:07Z</time></trkpt><trkpt lat="40.16907303307317" lon="9.527018299337774"><ele>924.0</ele><time>2026-04-11T14:09:08Z</time></trkpt><trkpt lat="40.16889394872237" lon="9.52717836423532"><ele>924.0</ele><time>2026-04-11T14:09:09Z</time></trkpt><trkpt lat="40.168702952821725" lon="9.527350388289184"><ele>925.5</ele><time>2026-04-11T14:09:10Z</time></trkpt><trkpt lat="40.168501219623856" lon="9.527522292652577"><ele>927.0</ele><time>2026-04-11T14:09:11Z</time></trkpt><trkpt lat="40.16829717043306" lon="9.5276924787707"><ele>927.5</ele><time>2026-04-11T14:09:12Z</time></trkpt><trkpt lat="40.16808874377923" lon="9.527855980396977"><ele>928.0</ele><time>2026-04-11T14:09:13Z</time></trkpt><trkpt lat="40.16785776415663" lon="9.527993776588636"><ele>928.0</ele><time>2026-04-11T14:09:14Z</time></trkpt><trkpt lat="40.16760832552579" lon="9.528101304999405"><ele>928.0</ele><time>2026-04-11T14:09:15Z</time></trkpt><trkpt lat="40.16737482738454" lon="9.528201390134388"><ele>931.5</ele><time>2026-04-11T14:09:16Z</time></trkpt><trkpt lat="40.16715361627834" lon="9.528299705762024"><ele>935.0</ele><time>2026-04-11T14:09:17Z</time></trkpt><trkpt lat="40.16693344495716" lon="9.52837414340126"><ele>935.0</ele><time>2026-04-11T14:09:18Z</time></trkpt><trkpt lat="40.16670107621759" lon="9.528410285341954"><ele>935.0</ele><time>2026-04-11T14:09:19Z</time></trkpt><trkpt lat="40.16646611021328" lon="9.528404016346393"><ele>936.3333333333334</ele><time>2026-04-11T14:09:20Z</time></trkpt><trkpt lat="40.16624653311476" lon="9.528399030461001"><ele>937.6666666666667</ele><time>2026-04-11T14:09:21Z</time></trkpt><trkpt lat="40.166044504912776" lon="9.528447870590599"><ele>939.0</ele><time>2026-04-11T14:09:22Z</time></trkpt><trkpt lat="40.16583988400301" lon="9.528551263001821"><ele>941.6666666666667</ele><time>2026-04-11T14:09:23Z</time></trkpt><trkpt lat="40.16564835795296" lon="9.528687893625978"><ele>944.3333333333334</ele><time>2026-04-11T14:09:24Z</time></trkpt><trkpt lat="40.16545715444708" lon="9.528800642896725"><ele>947.0</ele><time>2026-04-11T14:09:25Z</time></trkpt><trkpt lat="40.16523986419966" lon="9.528865408609056"><ele>940.0</ele><time>2026-04-11T14:09:26Z</time></trkpt><trkpt lat="40.165002193190794" lon="9.528877958913217"><ele>933.0</ele><time>2026-04-11T14:09:27Z</time></trkpt><trkpt lat="40.164755461954684" lon="9.52887913947363"><ele>933.0</ele><time>2026-04-11T14:09:28Z</time></trkpt><trkpt lat="40.16451082417792" lon="9.528886479089177"><ele>933.0</ele><time>2026-04-11T14:09:29Z</time></trkpt><trkpt lat="40.16428503286869" lon="9.528887168144864"><ele>933.0</ele><time>2026-04-11T14:09:30Z</time></trkpt><trkpt lat="40.164065539607684" lon="9.528860193942998"><ele>933.0</ele><time>2026-04-11T14:09:31Z</time></trkpt><trkpt lat="40.16385360327483" lon="9.528783338069552"><ele>933.0</ele><time>2026-04-11T14:09:32Z</time></trkpt><trkpt lat="40.16367114028574" lon="9.528667051148538"><ele>935.3333333333333</ele><time>2026-04-11T14:09:33Z</time></trkpt><trkpt lat="40.16355068530554" lon="9.528482492650795"><ele>937.6666666666666</ele><time>2026-04-11T14:09:34Z</time></trkpt><trkpt lat="40.16348066459592" lon="9.52827316310736"><ele>940.0</ele><time>2026-04-11T14:09:35Z</time></trkpt><trkpt lat="40.16344415609411" lon="9.528054256623635"><ele>938.0</ele><time>2026-04-11T14:09:36Z</time></trkpt><trkpt lat="40.16339743561035" lon="9.527809899590025"><ele>936.0</ele><time>2026-04-11T14:09:37Z</time></trkpt><trkpt lat="40.16330660435166" lon="9.527605953005192"><ele>934.0</ele><time>2026-04-11T14:09:38Z</time></trkpt><trkpt lat="40.163169919197266" lon="9.527445889775503"><ele>934.0</ele><time>2026-04-11T14:09:39Z</time></trkpt><trkpt lat="40.16299618032226" lon="9.527304118940707"><ele>934.0</ele><time>2026-04-11T14:09:40Z</time></trkpt><trkpt lat="40.16283708487968" lon="9.527167754886657"><ele>934.0</ele><time>2026-04-11T14:09:41Z</time></trkpt><trkpt lat="40.16271355864018" lon="9.527006135182472"><ele>937.0</ele><time>2026-04-11T14:09:42Z</time></trkpt><trkpt lat="40.16263013319008" lon="9.526808995951194"><ele>940.0</ele><time>2026-04-11T14:09:43Z</time></trkpt><trkpt lat="40.162632058514355" lon="9.526590790838679"><ele>943.0</ele><time>2026-04-11T14:09:44Z</time></trkpt><trkpt lat="40.16267789160698" lon="9.526388348850539"><ele>940.3333333333333</ele><time>2026-04-11T14:09:45Z</time></trkpt><trkpt lat="40.162763563062725" lon="9.526180146616367"><ele>937.6666666666667</ele><time>2026-04-11T14:09:46Z</time></trkpt><trkpt lat="40.16284854351528" lon="9.52594599133481"><ele>935.0</ele><time>2026-04-11T14:09:47Z</time></trkpt><trkpt lat="40.16294704162522" lon="9.525714031631066"><ele>935.0</ele><time>2026-04-11T14:09:48Z</time></trkpt><trkpt lat="40.16302538043562" lon="9.525502463925083"><ele>935.0</ele><time>2026-04-11T14:09:49Z</time></trkpt><trkpt lat="40.16306404991042" lon="9.5253201657722"><ele>935.0</ele><time>2026-04-11T14:09:50Z</time></trkpt><trkpt lat="40.163039807020176" lon="9.525154947067593"><ele>936.5</ele><time>2026-04-11T14:09:51Z</time></trkpt><trkpt lat="40.16296415872371" lon="9.525004822848365"><ele>938.0</ele><time>2026-04-11T14:09:52Z</time></trkpt><trkpt lat="40.16290041914801" lon="9.524864134287986"><ele>939.5</ele><time>2026-04-11T14:09:53Z</time></trkpt><trkpt lat="40.16283908622358" lon="9.524728757782919"><ele>941.0</ele><time>2026-04-11T14:09:54Z</time></trkpt><trkpt lat="40.162758310095484" lon="9.524571457337812"><ele>933.5</ele><time>2026-04-11T14:09:55Z</time></trkpt><trkpt lat="40.16233321257118" lon="9.524627829163576"><ele>926.0</ele><time>2026-04-11T14:09:56Z</time></trkpt><trkpt lat="40.16219802052416" lon="9.52445734744281"><ele>926.0</ele><time>2026-04-11T14:09:57Z</time></trkpt><trkpt lat="40.162091901836824" lon="9.524272122996425"><ele>926.0</ele><time>2026-04-11T14:09:58Z</time></trkpt><trkpt lat="40.16203022327179" lon="9.524055845821286"><ele>926.0</ele><time>2026-04-11T14:09:59Z</time></trkpt><trkpt lat="40.161990837387975" lon="9.523814755998039"><ele>929.3333333333334</ele><time>2026-04-11T14:10:00Z</time></trkpt><trkpt lat="40.161917750258894" lon="9.523586458841418"><ele>932.6666666666667</ele><time>2026-04-11T14:10:01Z</time></trkpt><trkpt lat="40.16183871463051" lon="9.52336209686287"><ele>936.0</ele><time>2026-04-11T14:10:02Z</time></trkpt><trkpt lat="40.161819266790914" lon="9.523133458800197"><ele>936.0</ele><time>2026-04-11T14:10:03Z</time></trkpt><trkpt lat="40.16186118579037" lon="9.522917899415427"><ele>936.0</ele><time>2026-04-11T14:10:04Z</time></trkpt><trkpt lat="40.161952243797224" lon="9.522705493334028"><ele>936.0</ele><time>2026-04-11T14:10:05Z</time></trkpt><trkpt lat="40.16205460484613" lon="9.522480618602502"><ele>933.6666666666667</ele><time>2026-04-11T14:10:06Z</time></trkpt><trkpt lat="40.162125603664464" lon="9.522243304764565"><ele>931.3333333333334</ele><time>2026-04-11T14:10:07Z</time></trkpt><trkpt lat="40.1621333440384" lon="9.522024322752943"><ele>929.0</ele><time>2026-04-11T14:10:08Z</time></trkpt><trkpt lat="40.16208645613334" lon="9.521811530620358"><ele>928.6666666666667</ele><time>2026-04-11T14:10:09Z</time></trkpt><trkpt lat="40.16203962520762" lon="9.521591444946687"><ele>928.3333333333333</ele><time>2026-04-11T14:10:10Z</time></trkpt><trkpt lat="40.16205374644865" lon="9.521369840011545"><ele>928.0</ele><time>2026-04-11T14:10:11Z</time></trkpt><trkpt lat="40.1621248074895" lon="9.521144870094938"><ele>927.6666666666666</ele><time>2026-04-11T14:10:12Z</time></trkpt><trkpt lat="40.16223723481989" lon="9.520924112314429"><ele>927.3333333333333</ele><time>2026-04-11T14:10:13Z</time></trkpt><trkpt lat="40.162345632726705" lon="9.520684573393924"><ele>927.0</ele><time>2026-04-11T14:10:14Z</time></trkpt><trkpt lat="40.16243890870641" lon="9.520417892932102"><ele>937.6666666666667</ele><time>2026-04-11T14:10:15Z</time></trkpt><trkpt lat="40.16251956357665" lon="9.52017655966664"><ele>948.3333333333334</ele><time>2026-04-11T14:10:16Z</time></trkpt><trkpt lat="40.16257043594383" lon="9.519969265710664"><ele>959.0</ele><time>2026-04-11T14:10:17Z</time></trkpt><trkpt lat="40.1625705966642" lon="9.519772986954152"><ele>959.0</ele><time>2026-04-11T14:10:18Z</time></trkpt><trkpt lat="40.162507707075164" lon="9.519597578321092"><ele>959.0</ele><time>2026-04-11T14:10:19Z</time></trkpt><trkpt lat="40.162388645814886" lon="9.519461747707705"><ele>959.0</ele><time>2026-04-11T14:10:20Z</time></trkpt><trkpt lat="40.162231648100416" lon="9.519375478149557"><ele>963.3333333333334</ele><time>2026-04-11T14:10:21Z</time></trkpt><trkpt lat="40.16204652742585" lon="9.519339768924157"><ele>967.6666666666667</ele><time>2026-04-11T14:10:22Z</time></trkpt><trkpt lat="40.16184636177157" lon="9.519346677304581"><ele>972.0</ele><time>2026-04-11T14:10:23Z</time></trkpt><trkpt lat="40.16163123699714" lon="9.519365523974617"><ele>975.0</ele><time>2026-04-11T14:10:24Z</time></trkpt><trkpt lat="40.161401966343014" lon="9.519379832179974"><ele>978.0</ele><time>2026-04-11T14:10:25Z</time></trkpt><trkpt lat="40.16115775511694" lon="9.519389363659755"><ele>978.0</ele><time>2026-04-11T14:10:26Z</time></trkpt><trkpt lat="40.160902948638515" lon="9.519402284787407"><ele>978.0</ele><time>2026-04-11T14:10:27Z</time></trkpt><trkpt lat="40.160639443093096" lon="9.519416273561681"><ele>979.0</ele><time>2026-04-11T14:10:28Z</time></trkpt><trkpt lat="40.160387226970876" lon="9.519427626492195"><ele>980.0</ele><time>2026-04-11T14:10:29Z</time></trkpt><trkpt lat="40.16015599500988" lon="9.51943786657048"><ele>980.0</ele><time>2026-04-11T14:10:30Z</time></trkpt><trkpt lat="40.15993811642358" lon="9.519446472942814"><ele>980.0</ele><time>2026-04-11T14:10:31Z</time></trkpt><trkpt lat="40.159724498554134" lon="9.519437766444874"><ele>980.0</ele><time>2026-04-11T14:10:32Z</time></trkpt><trkpt lat="40.159515302619575" lon="9.519386890968343"><ele>972.5</ele><time>2026-04-11T14:10:33Z</time></trkpt><trkpt lat="40.15931277658173" lon="9.519269824004075"><ele>965.0</ele><time>2026-04-11T14:10:34Z</time></trkpt><trkpt lat="40.159113145897344" lon="9.519101371943037"><ele>961.6666666666667</ele><time>2026-04-11T14:10:35Z</time></trkpt><trkpt lat="40.15892143871625" lon="9.518925916326864"><ele>958.3333333333333</ele><time>2026-04-11T14:10:36Z</time></trkpt><trkpt lat="40.158748872831495" lon="9.518759805623612"><ele>955.0</ele><time>2026-04-11T14:10:37Z</time></trkpt><trkpt lat="40.15861654101338" lon="9.518568196878087"><ele>955.0</ele><time>2026-04-11T14:10:38Z</time></trkpt><trkpt lat="40.1585276347356" lon="9.518332633221188"><ele>955.0</ele><time>2026-04-11T14:10:39Z</time></trkpt><trkpt lat="40.158461947016264" lon="9.518061120852733"><ele>955.0</ele><time>2026-04-11T14:10:40Z</time></trkpt><trkpt lat="40.158395542831755" lon="9.51777561203463"><ele>959.0</ele><time>2026-04-11T14:10:41Z</time></trkpt><trkpt lat="40.15833984039482" lon="9.517499692681286"><ele>963.0</ele><time>2026-04-11T14:10:42Z</time></trkpt><trkpt lat="40.15829588896623" lon="9.517233125612279"><ele>967.0</ele><time>2026-04-11T14:10:43Z</time></trkpt><trkpt lat="40.158270348517355" lon="9.516991870974286"><ele>967.3333333333333</ele><time>2026-04-11T14:10:44Z</time></trkpt><trkpt lat="40.158276898108774" lon="9.516765594796293"><ele>967.6666666666667</ele><time>2026-04-11T14:10:45Z</time></trkpt><trkpt lat="40.158333322588504" lon="9.51653779762947"><ele>968.0</ele><time>2026-04-11T14:10:46Z</time></trkpt><trkpt lat="40.158416689576555" lon="9.516308139817035"><ele>962.0</ele><time>2026-04-11T14:10:47Z</time></trkpt><trkpt lat="40.158509602620775" lon="9.516111729828546"><ele>956.0</ele><time>2026-04-11T14:10:48Z</time></trkpt><trkpt lat="40.15863599034404" lon="9.515961708833844"><ele>950.0</ele><time>2026-04-11T14:10:49Z</time></trkpt><trkpt lat="40.15880612711798" lon="9.515841700198058"><ele>950.0</ele><time>2026-04-11T14:10:50Z</time></trkpt><trkpt lat="40.159003796045184" lon="9.515738088510957"><ele>950.0</ele><time>2026-04-11T14:10:51Z</time></trkpt><trkpt lat="40.15921293924593" lon="9.515637096901058"><ele>950.0</ele><time>2026-04-11T14:10:52Z</time></trkpt><trkpt lat="40.15943419914299" lon="9.515538329390026"><ele>951.5</ele><time>2026-04-11T14:10:53Z</time></trkpt><trkpt lat="40.15963878634224" lon="9.515372445563766"><ele>953.0</ele><time>2026-04-11T14:10:54Z</time></trkpt><trkpt lat="40.15981424258522" lon="9.515135887972493"><ele>965.0</ele><time>2026-04-11T14:10:55Z</time></trkpt><trkpt lat="40.160002440461454" lon="9.514903564674517"><ele>977.0</ele><time>2026-04-11T14:10:56Z</time></trkpt><trkpt lat="40.16019850440425" lon="9.514683251214862"><ele>966.5</ele><time>2026-04-11T14:10:57Z</time></trkpt><trkpt lat="40.16040131253758" lon="9.514496962246747"><ele>956.0</ele><time>2026-04-11T14:10:58Z</time></trkpt><trkpt lat="40.160621711021655" lon="9.514379853549775"><ele>966.5</ele><time>2026-04-11T14:10:59Z</time></trkpt><trkpt lat="40.1608299674577" lon="9.514246789122659"><ele>977.0</ele><time>2026-04-11T14:11:00Z</time></trkpt><trkpt lat="40.16100372803255" lon="9.514032050882527"><ele>977.0</ele><time>2026-04-11T14:11:01Z</time></trkpt><trkpt lat="40.16117380333773" lon="9.513791227515851"><ele>977.0</ele><time>2026-04-11T14:11:02Z</time></trkpt><trkpt lat="40.16134130076288" lon="9.513534169160787"><ele>981.5</ele><time>2026-04-11T14:11:03Z</time></trkpt><trkpt lat="40.161524239906186" lon="9.51330098919688"><ele>986.0</ele><time>2026-04-11T14:11:04Z</time></trkpt><trkpt lat="40.16167351659112" lon="9.513056975646975"><ele>982.3333333333334</ele><time>2026-04-11T14:11:05Z</time></trkpt><trkpt lat="40.161824050646985" lon="9.512845035824153"><ele>978.6666666666667</ele><time>2026-04-11T14:11:06Z</time></trkpt><trkpt lat="40.16196906320876" lon="9.512664976689702"><ele>975.0</ele><time>2026-04-11T14:11:07Z</time></trkpt><trkpt lat="40.16207824484062" lon="9.512474713522641"><ele>975.0</ele><time>2026-04-11T14:11:08Z</time></trkpt><trkpt lat="40.16212997996202" lon="9.51226438148129"><ele>975.0</ele><time>2026-04-11T14:11:09Z</time></trkpt><trkpt lat="40.162139178787214" lon="9.512042683739717"><ele>975.0</ele><time>2026-04-11T14:11:10Z</time></trkpt><trkpt lat="40.16209821208212" lon="9.511794830378832"><ele>976.3333333333333</ele><time>2026-04-11T14:11:11Z</time></trkpt><trkpt lat="40.162036311981645" lon="9.511540178634256"><ele>977.6666666666666</ele><time>2026-04-11T14:11:12Z</time></trkpt><trkpt lat="40.16197119643517" lon="9.511272684377058"><ele>979.0</ele><time>2026-04-11T14:11:13Z</time></trkpt><trkpt lat="40.161907980311085" lon="9.51098379700361"><ele>983.0</ele><time>2026-04-11T14:11:14Z</time></trkpt><trkpt lat="40.161841882534304" lon="9.510679796300266"><ele>987.0</ele><time>2026-04-11T14:11:15Z</time></trkpt><trkpt lat="40.16177676723656" lon="9.510390462178568"><ele>987.0</ele><time>2026-04-11T14:11:16Z</time></trkpt><trkpt lat="40.16170998010222" lon="9.510132338971422"><ele>987.0</ele><time>2026-04-11T14:11:17Z</time></trkpt><trkpt lat="40.16162698830944" lon="9.509901928162881"><ele>987.0</ele><time>2026-04-11T14:11:18Z</time></trkpt><trkpt lat="40.161522725864295" lon="9.5097017964921"><ele>987.6666666666667</ele><time>2026-04-11T14:11:19Z</time></trkpt><trkpt lat="40.16140762885616" lon="9.509549178690841"><ele>988.3333333333334</ele><time>2026-04-11T14:11:20Z</time></trkpt><trkpt lat="40.16126012384473" lon="9.509452133883052"><ele>989.0</ele><time>2026-04-11T14:11:21Z</time></trkpt><trkpt lat="40.161078093888776" lon="9.509412825711177"><ele>989.0</ele><time>2026-04-11T14:11:22Z</time></trkpt><trkpt lat="40.160883606746204" lon="9.509401787622528"><ele>989.0</ele><time>2026-04-11T14:11:23Z</time></trkpt><trkpt lat="40.160697179550866" lon="9.509353603332249"><ele>989.0</ele><time>2026-04-11T14:11:24Z</time></trkpt><trkpt lat="40.16052753576894" lon="9.509249596555502"><ele>995.6666666666667</ele><time>2026-04-11T14:11:25Z</time></trkpt><trkpt lat="40.160378282421796" lon="9.509105106898852"><ele>1002.3333333333333</ele><time>2026-04-11T14:11:26Z</time></trkpt><trkpt lat="40.16025577712596" lon="9.508957224714651"><ele>1009.0</ele><time>2026-04-11T14:11:27Z</time></trkpt><trkpt lat="40.16013436019571" lon="9.508837792512276"><ele>1009.0</ele><time>2026-04-11T14:11:28Z</time></trkpt><trkpt lat="40.160006216631395" lon="9.508746611316456"><ele>1009.0</ele><time>2026-04-11T14:11:29Z</time></trkpt><trkpt lat="40.15986866408875" lon="9.50868978360554"><ele>1009.0</ele><time>2026-04-11T14:11:30Z</time></trkpt><trkpt lat="40.15973107735248" lon="9.508645372400526"><ele>1009.0</ele><time>2026-04-11T14:11:31Z</time></trkpt><trkpt lat="40.159596968542765" lon="9.508604343593579"><ele>1007.75</ele><time>2026-04-11T14:11:32Z</time></trkpt><trkpt lat="40.159463680105084" lon="9.508570419856614"><ele>1006.5</ele><time>2026-04-11T14:11:33Z</time></trkpt><trkpt lat="40.159333932857194" lon="9.508538073607768"><ele>1005.25</ele><time>2026-04-11T14:11:34Z</time></trkpt><trkpt lat="40.15921228919453" lon="9.508492231372456"><ele>1004.0</ele><time>2026-04-11T14:11:35Z</time></trkpt><trkpt lat="40.15910479540161" lon="9.508422280947997"><ele>1004.3333333333334</ele><time>2026-04-11T14:11:36Z</time></trkpt><trkpt lat="40.159016758671704" lon="9.508332863465963"><ele>1004.6666666666667</ele><time>2026-04-11T14:11:37Z</time></trkpt><trkpt lat="40.15894330724385" lon="9.50824043811111"><ele>1005.0</ele><time>2026-04-11T14:11:38Z</time></trkpt><trkpt lat="40.15887680414092" lon="9.508158293487828"><ele>1005.3333333333333</ele><time>2026-04-11T14:11:39Z</time></trkpt><trkpt lat="40.15882136622826" lon="9.508084769850115"><ele>1005.6666666666666</ele><time>2026-04-11T14:11:40Z</time></trkpt><trkpt lat="40.15878337710284" lon="9.508018296051201"><ele>1006.0</ele><time>2026-04-11T14:11:41Z</time></trkpt><trkpt lat="40.15873304092313" lon="9.507934559063903"><ele>1005.9999999999999</ele><time>2026-04-11T14:11:43Z</time></trkpt><trkpt lat="40.15865447783229" lon="9.507916573911887"><ele>1006.0</ele><time>2026-04-11T14:17:13Z</time></trkpt><trkpt lat="40.158562836450244" lon="9.50783148005512"><ele>1006.0</ele><time>2026-04-11T14:17:15Z</time></trkpt><trkpt lat="40.15850732750608" lon="9.507776358984556"><ele>1006.0</ele><time>2026-04-11T14:17:16Z</time></trkpt><trkpt lat="40.15843597296608" lon="9.507702154679006"><ele>1005.9999999999999</ele><time>2026-04-11T14:17:17Z</time></trkpt><trkpt lat="40.158361682367214" lon="9.507627420609639"><ele>1006.0</ele><time>2026-04-11T14:17:18Z</time></trkpt><trkpt lat="40.15827522363664" lon="9.507542363852819"><ele>1005.75</ele><time>2026-04-11T14:17:19Z</time></trkpt><trkpt lat="40.15818128301271" lon="9.507454054551241"><ele>1005.5</ele><time>2026-04-11T14:17:20Z</time></trkpt><trkpt lat="40.158074853879995" lon="9.507367638043313"><ele>1005.25</ele><time>2026-04-11T14:17:21Z</time></trkpt><trkpt lat="40.157962145437764" lon="9.507293700844997"><ele>1005.0</ele><time>2026-04-11T14:17:22Z</time></trkpt><trkpt lat="40.15783585940364" lon="9.50722763342757"><ele>1005.0</ele><time>2026-04-11T14:17:23Z</time></trkpt><trkpt lat="40.15769906807116" lon="9.50716869951624"><ele>1005.0</ele><time>2026-04-11T14:17:24Z</time></trkpt><trkpt lat="40.15755205858452" lon="9.507112736652509"><ele>1005.0</ele><time>2026-04-11T14:17:25Z</time></trkpt><trkpt lat="40.157402733585485" lon="9.507061073774674"><ele>1013.3333333333333</ele><time>2026-04-11T14:17:26Z</time></trkpt><trkpt lat="40.15724761620046" lon="9.507005807335632"><ele>1021.6666666666666</ele><time>2026-04-11T14:17:27Z</time></trkpt><trkpt lat="40.15708212404883" lon="9.506951503327235"><ele>1030.0</ele><time>2026-04-11T14:17:28Z</time></trkpt><trkpt lat="40.15691042776293" lon="9.50692052681933"><ele>1030.0</ele><time>2026-04-11T14:17:29Z</time></trkpt><trkpt lat="40.15672450525327" lon="9.506920679841809"><ele>1030.0</ele><time>2026-04-11T14:17:30Z</time></trkpt><trkpt lat="40.15653817172043" lon="9.506954922765178"><ele>1030.0</ele><time>2026-04-11T14:17:31Z</time></trkpt><trkpt lat="40.15634679922635" lon="9.507014203621251"><ele>1022.6666666666666</ele><time>2026-04-11T14:17:32Z</time></trkpt><trkpt lat="40.156151592299395" lon="9.507082913214905"><ele>1015.3333333333333</ele><time>2026-04-11T14:17:33Z</time></trkpt><trkpt lat="40.15596135154048" lon="9.507132501890009"><ele>1008.0</ele><time>2026-04-11T14:17:34Z</time></trkpt><trkpt lat="40.155766050197066" lon="9.507153795696162"><ele>1010.0</ele><time>2026-04-11T14:17:35Z</time></trkpt><trkpt lat="40.15556670241882" lon="9.50715926791817"><ele>1012.0</ele><time>2026-04-11T14:17:36Z</time></trkpt><trkpt lat="40.15536573290242" lon="9.507172107288875"><ele>1014.0</ele><time>2026-04-11T14:17:37Z</time></trkpt><trkpt lat="40.15516371689063" lon="9.507207581125146"><ele>1014.0</ele><time>2026-04-11T14:17:38Z</time></trkpt><trkpt lat="40.154960236226195" lon="9.507263686619865"><ele>1014.0</ele><time>2026-04-11T14:17:39Z</time></trkpt><trkpt lat="40.15475902774107" lon="9.507335768517038"><ele>1014.0</ele><time>2026-04-11T14:17:40Z</time></trkpt><trkpt lat="40.15455821946142" lon="9.507415406303972"><ele>1017.6666666666667</ele><time>2026-04-11T14:17:41Z</time></trkpt><trkpt lat="40.15435616344851" lon="9.507491661736372"><ele>1021.3333333333334</ele><time>2026-04-11T14:17:42Z</time></trkpt><trkpt lat="40.154154535043894" lon="9.507562089349364"><ele>1025.0</ele><time>2026-04-11T14:17:43Z</time></trkpt><trkpt lat="40.15395745072783" lon="9.507632708617736"><ele>1025.0</ele><time>2026-04-11T14:17:44Z</time></trkpt><trkpt lat="40.153764537942045" lon="9.50769084079372"><ele>1025.0</ele><time>2026-04-11T14:17:45Z</time></trkpt><trkpt lat="40.15357226582463" lon="9.50772193979121"><ele>1025.0</ele><time>2026-04-11T14:17:46Z</time></trkpt><trkpt lat="40.153383232706204" lon="9.507720938749816"><ele>1022.6666666666667</ele><time>2026-04-11T14:17:47Z</time></trkpt><trkpt lat="40.153192919295456" lon="9.507696006958634"><ele>1020.3333333333333</ele><time>2026-04-11T14:17:48Z</time></trkpt><trkpt lat="40.15299784541022" lon="9.507648370331617"><ele>1018.0</ele><time>2026-04-11T14:17:49Z</time></trkpt><trkpt lat="40.15279950963498" lon="9.507581588962976"><ele>1018.0</ele><time>2026-04-11T14:17:50Z</time></trkpt><trkpt lat="40.15259070461675" lon="9.507512111098098"><ele>1018.0</ele><time>2026-04-11T14:17:51Z</time></trkpt><trkpt lat="40.15237220519916" lon="9.507438456515246"><ele>1018.0</ele><time>2026-04-11T14:17:52Z</time></trkpt><trkpt lat="40.152137141777075" lon="9.507405819335476"><ele>1014.5</ele><time>2026-04-11T14:17:53Z</time></trkpt><trkpt lat="40.15189520033304" lon="9.507417414950982"><ele>1011.0</ele><time>2026-04-11T14:17:54Z</time></trkpt><trkpt lat="40.15165817049317" lon="9.507415324680885"><ele>1008.5</ele><time>2026-04-11T14:17:55Z</time></trkpt><trkpt lat="40.151426673818" lon="9.507417146197177"><ele>1006.0</ele><time>2026-04-11T14:17:56Z</time></trkpt><trkpt lat="40.15119350928533" lon="9.507416993081234"><ele>1006.0</ele><time>2026-04-11T14:17:57Z</time></trkpt><trkpt lat="40.150965458908146" lon="9.507393425570395"><ele>1006.0</ele><time>2026-04-11T14:17:58Z</time></trkpt><trkpt lat="40.15073667880976" lon="9.507326438788768"><ele>1000.0</ele><time>2026-04-11T14:17:59Z</time></trkpt><trkpt lat="40.15050809791068" lon="9.507228634730973"><ele>994.0</ele><time>2026-04-11T14:18:00Z</time></trkpt><trkpt lat="40.15028030074256" lon="9.507120047708003"><ele>1003.5</ele><time>2026-04-11T14:18:01Z</time></trkpt><trkpt lat="40.15005394666005" lon="9.507011024655151"><ele>1013.0</ele><time>2026-04-11T14:18:02Z</time></trkpt><trkpt lat="40.14982367611598" lon="9.50690855456103"><ele>1013.0</ele><time>2026-04-11T14:18:03Z</time></trkpt><trkpt lat="40.1495869217601" lon="9.506834588946504"><ele>1013.0</ele><time>2026-04-11T14:18:04Z</time></trkpt><trkpt lat="40.1493457406232" lon="9.50678886990886"><ele>1013.0</ele><time>2026-04-11T14:18:05Z</time></trkpt><trkpt lat="40.14910713571656" lon="9.506757912026742"><ele>1013.0</ele><time>2026-04-11T14:18:06Z</time></trkpt><trkpt lat="40.148869935317784" lon="9.506726202792183"><ele>1005.0</ele><time>2026-04-11T14:18:07Z</time></trkpt><trkpt lat="40.14863661715068" lon="9.50668143309714"><ele>997.0</ele><time>2026-04-11T14:18:08Z</time></trkpt><trkpt lat="40.14840382776613" lon="9.506624534759302"><ele>989.5</ele><time>2026-04-11T14:18:09Z</time></trkpt><trkpt lat="40.14816709880748" lon="9.506560871799717"><ele>982.0</ele><time>2026-04-11T14:18:10Z</time></trkpt><trkpt lat="40.147929300442" lon="9.506492381230004"><ele>982.0</ele><time>2026-04-11T14:18:11Z</time></trkpt><trkpt lat="40.14769070576443" lon="9.506413663825041"><ele>982.0</ele><time>2026-04-11T14:18:12Z</time></trkpt><trkpt lat="40.14745123593544" lon="9.50632382570749"><ele>997.0</ele><time>2026-04-11T14:18:13Z</time></trkpt><trkpt lat="40.14720961759419" lon="9.50623695746911"><ele>1012.0</ele><time>2026-04-11T14:18:14Z</time></trkpt><trkpt lat="40.146960505356056" lon="9.506170419088782"><ele>1012.0</ele><time>2026-04-11T14:18:15Z</time></trkpt><trkpt lat="40.14670420419667" lon="9.506140271313242"><ele>1012.0</ele><time>2026-04-11T14:18:16Z</time></trkpt><trkpt lat="40.14644278125552" lon="9.506138547008666"><ele>1006.5</ele><time>2026-04-11T14:18:17Z</time></trkpt><trkpt lat="40.146181120167704" lon="9.50615079396369"><ele>1001.0</ele><time>2026-04-11T14:18:18Z</time></trkpt><trkpt lat="40.145925780461894" lon="9.50616536147386"><ele>995.0</ele><time>2026-04-11T14:18:19Z</time></trkpt><trkpt lat="40.14568200642608" lon="9.50615963562578"><ele>989.0</ele><time>2026-04-11T14:18:20Z</time></trkpt><trkpt lat="40.14544467597066" lon="9.506142411515073"><ele>989.0</ele><time>2026-04-11T14:18:21Z</time></trkpt><trkpt lat="40.145218302005865" lon="9.506095743095226"><ele>989.0</ele><time>2026-04-11T14:18:22Z</time></trkpt><trkpt lat="40.14500777583408" lon="9.506002311866936"><ele>982.3333333333334</ele><time>2026-04-11T14:18:23Z</time></trkpt><trkpt lat="40.14480958881708" lon="9.50591894223239"><ele>975.6666666666667</ele><time>2026-04-11T14:18:24Z</time></trkpt><trkpt lat="40.144610181162484" lon="9.505864669368595"><ele>969.0</ele><time>2026-04-11T14:18:25Z</time></trkpt><trkpt lat="40.1444248491463" lon="9.505664137772568"><ele>969.0</ele><time>2026-04-11T14:18:26Z</time></trkpt><trkpt lat="40.14419884304236" lon="9.50562036765982"><ele>969.0</ele><time>2026-04-11T14:18:27Z</time></trkpt><trkpt lat="40.14396189061566" lon="9.505621027915513"><ele>967.5</ele><time>2026-04-11T14:18:28Z</time></trkpt><trkpt lat="40.14372067572641" lon="9.50565993737682"><ele>966.0</ele><time>2026-04-11T14:18:29Z</time></trkpt><trkpt lat="40.14348077333393" lon="9.505696665920263"><ele>966.0</ele><time>2026-04-11T14:18:30Z</time></trkpt><trkpt lat="40.14324295775359" lon="9.505690533711707"><ele>966.0</ele><time>2026-04-11T14:18:31Z</time></trkpt><trkpt lat="40.14300153725581" lon="9.505664853653585"><ele>959.0</ele><time>2026-04-11T14:18:32Z</time></trkpt><trkpt lat="40.14275222607834" lon="9.505666591773078"><ele>952.0</ele><time>2026-04-11T14:18:33Z</time></trkpt><trkpt lat="40.142491194497886" lon="9.505695731654978"><ele>957.5</ele><time>2026-04-11T14:18:34Z</time></trkpt><trkpt lat="40.14223003878766" lon="9.50573915518308"><ele>963.0</ele><time>2026-04-11T14:18:35Z</time></trkpt><trkpt lat="40.14197809203711" lon="9.505794312701974"><ele>963.0</ele><time>2026-04-11T14:18:36Z</time></trkpt><trkpt lat="40.14173287958381" lon="9.505847483292197"><ele>963.0</ele><time>2026-04-11T14:18:37Z</time></trkpt><trkpt lat="40.141492289747816" lon="9.505888228908866"><ele>960.5</ele><time>2026-04-11T14:18:38Z</time></trkpt><trkpt lat="40.14125190186378" lon="9.505892795810157"><ele>958.0</ele><time>2026-04-11T14:18:39Z</time></trkpt><trkpt lat="40.14100935332565" lon="9.505857770506344"><ele>958.0</ele><time>2026-04-11T14:18:40Z</time></trkpt><trkpt lat="40.140762995799214" lon="9.505817062095955"><ele>958.0</ele><time>2026-04-11T14:18:41Z</time></trkpt><trkpt lat="40.14050414546325" lon="9.505781651305732"><ele>955.0</ele><time>2026-04-11T14:18:42Z</time></trkpt><trkpt lat="40.140236130436755" lon="9.50575436713503"><ele>952.0</ele><time>2026-04-11T14:18:43Z</time></trkpt><trkpt lat="40.13996740191545" lon="9.505740731788519"><ele>948.5</ele><time>2026-04-11T14:18:44Z</time></trkpt><trkpt lat="40.139702950091795" lon="9.50573551633725"><ele>945.0</ele><time>2026-04-11T14:18:45Z</time></trkpt><trkpt lat="40.13944672292152" lon="9.505723986674822"><ele>945.0</ele><time>2026-04-11T14:18:46Z</time></trkpt><trkpt lat="40.13919874816621" lon="9.505700173068398"><ele>945.0</ele><time>2026-04-11T14:18:47Z</time></trkpt><trkpt lat="40.13895371392192" lon="9.505688682095386"><ele>947.5</ele><time>2026-04-11T14:18:48Z</time></trkpt><trkpt lat="40.13870602051128" lon="9.505718172045707"><ele>950.0</ele><time>2026-04-11T14:18:49Z</time></trkpt><trkpt lat="40.13844904654173" lon="9.505793870909098"><ele>961.5</ele><time>2026-04-11T14:18:50Z</time></trkpt><trkpt lat="40.13819109605571" lon="9.505899900245831"><ele>973.0</ele><time>2026-04-11T14:18:51Z</time></trkpt><trkpt lat="40.137935896672445" lon="9.506007950975128"><ele>973.0</ele><time>2026-04-11T14:18:52Z</time></trkpt><trkpt lat="40.13767523706265" lon="9.506104791187669"><ele>973.0</ele><time>2026-04-11T14:18:53Z</time></trkpt><trkpt lat="40.13741449501568" lon="9.506192805947489"><ele>954.0</ele><time>2026-04-11T14:18:54Z</time></trkpt><trkpt lat="40.137150810986384" lon="9.50628256958143"><ele>935.0</ele><time>2026-04-11T14:18:55Z</time></trkpt><trkpt lat="40.136888433951356" lon="9.506374626502748"><ele>935.0</ele><time>2026-04-11T14:18:56Z</time></trkpt><trkpt lat="40.13663257107006" lon="9.50647225559264"><ele>935.0</ele><time>2026-04-11T14:18:57Z</time></trkpt><trkpt lat="40.13636552334982" lon="9.506563126173829"><ele>939.5</ele><time>2026-04-11T14:18:58Z</time></trkpt><trkpt lat="40.13610896941589" lon="9.506642460994883"><ele>944.0</ele><time>2026-04-11T14:18:59Z</time></trkpt><trkpt lat="40.135855461304594" lon="9.506697003507696"><ele>951.5</ele><time>2026-04-11T14:19:00Z</time></trkpt><trkpt lat="40.13561317717857" lon="9.506746021466991"><ele>959.0</ele><time>2026-04-11T14:19:01Z</time></trkpt><trkpt lat="40.1353720455312" lon="9.506792955378398"><ele>959.0</ele><time>2026-04-11T14:19:02Z</time></trkpt><trkpt lat="40.13513110341117" lon="9.506835405043795"><ele>959.0</ele><time>2026-04-11T14:19:03Z</time></trkpt><trkpt lat="40.13490004860556" lon="9.506886758479528"><ele>959.5</ele><time>2026-04-11T14:19:04Z</time></trkpt><trkpt lat="40.134663843793184" lon="9.50688923413394"><ele>960.0</ele><time>2026-04-11T14:19:05Z</time></trkpt><trkpt lat="40.13442985188231" lon="9.506843673853115"><ele>960.0</ele><time>2026-04-11T14:19:06Z</time></trkpt><trkpt lat="40.13420406229813" lon="9.506780666895558"><ele>960.0</ele><time>2026-04-11T14:19:07Z</time></trkpt><trkpt lat="40.13397389411045" lon="9.506711998912456"><ele>957.0</ele><time>2026-04-11T14:19:08Z</time></trkpt><trkpt lat="40.13373589407888" lon="9.506675528137254"><ele>954.0</ele><time>2026-04-11T14:19:09Z</time></trkpt><trkpt lat="40.13349053834391" lon="9.506672558331243"><ele>954.0</ele><time>2026-04-11T14:19:10Z</time></trkpt><trkpt lat="40.13323668954948" lon="9.506689248984133"><ele>954.0</ele><time>2026-04-11T14:19:11Z</time></trkpt><trkpt lat="40.13298248417745" lon="9.50671434145768"><ele>964.0</ele><time>2026-04-11T14:19:12Z</time></trkpt><trkpt lat="40.13272451853195" lon="9.506739494068233"><ele>974.0</ele><time>2026-04-11T14:19:13Z</time></trkpt><trkpt lat="40.13246536944927" lon="9.506769610430949"><ele>980.5</ele><time>2026-04-11T14:19:14Z</time></trkpt><trkpt lat="40.13221537724313" lon="9.506816742141837"><ele>987.0</ele><time>2026-04-11T14:19:15Z</time></trkpt><trkpt lat="40.13197928835587" lon="9.50688849489542"><ele>987.0</ele><time>2026-04-11T14:19:16Z</time></trkpt><trkpt lat="40.131752360919464" lon="9.506980059688837"><ele>987.0</ele><time>2026-04-11T14:19:17Z</time></trkpt><trkpt lat="40.13153403525216" lon="9.5070630240268"><ele>957.5</ele><time>2026-04-11T14:19:18Z</time></trkpt><trkpt lat="40.13130937090565" lon="9.507100811557146"><ele>928.0</ele><time>2026-04-11T14:19:19Z</time></trkpt><trkpt lat="40.13107469057441" lon="9.507097670691927"><ele>959.5</ele><time>2026-04-11T14:19:20Z</time></trkpt><trkpt lat="40.13083674431805" lon="9.507070055419963"><ele>991.0</ele><time>2026-04-11T14:19:21Z</time></trkpt><trkpt lat="40.13060414686642" lon="9.507053358167168"><ele>966.5</ele><time>2026-04-11T14:19:22Z</time></trkpt><trkpt lat="40.130371006988135" lon="9.507088512475656"><ele>942.0</ele><time>2026-04-11T14:19:23Z</time></trkpt><trkpt lat="40.13013112525276" lon="9.50717133611505"><ele>949.0</ele><time>2026-04-11T14:19:24Z</time></trkpt><trkpt lat="40.1298806129739" lon="9.507236667365389"><ele>956.0</ele><time>2026-04-11T14:19:25Z</time></trkpt><trkpt lat="40.129640983460796" lon="9.507325494080737"><ele>956.0</ele><time>2026-04-11T14:19:26Z</time></trkpt><trkpt lat="40.129408514046254" lon="9.507404442851158"><ele>956.0</ele><time>2026-04-11T14:19:27Z</time></trkpt><trkpt lat="40.12918314174835" lon="9.507448978362794"><ele>961.3333333333334</ele><time>2026-04-11T14:19:28Z</time></trkpt><trkpt lat="40.12897845467927" lon="9.507509911824929"><ele>966.6666666666667</ele><time>2026-04-11T14:19:29Z</time></trkpt><trkpt lat="40.12880315486187" lon="9.507605737958073"><ele>972.0</ele><time>2026-04-11T14:19:30Z</time></trkpt><trkpt lat="40.128637092495204" lon="9.50768958848993"><ele>972.0</ele><time>2026-04-11T14:19:31Z</time></trkpt><trkpt lat="40.12845987724469" lon="9.50771867566092"><ele>972.0</ele><time>2026-04-11T14:19:32Z</time></trkpt><trkpt lat="40.128279411842605" lon="9.507733195174522"><ele>972.0</ele><time>2026-04-11T14:19:33Z</time></trkpt><trkpt lat="40.12808953123226" lon="9.507779491231073"><ele>977.6666666666667</ele><time>2026-04-11T14:19:34Z</time></trkpt><trkpt lat="40.12789133231147" lon="9.50785270571955"><ele>983.3333333333334</ele><time>2026-04-11T14:19:35Z</time></trkpt><trkpt lat="40.127684284432966" lon="9.507921732382867"><ele>989.0</ele><time>2026-04-11T14:19:36Z</time></trkpt><trkpt lat="40.12746712597009" lon="9.507981304641337"><ele>977.3333333333334</ele><time>2026-04-11T14:19:37Z</time></trkpt><trkpt lat="40.12725024409472" lon="9.508040715316305"><ele>965.6666666666667</ele><time>2026-04-11T14:19:38Z</time></trkpt><trkpt lat="40.12703836560199" lon="9.508116579092306"><ele>954.0</ele><time>2026-04-11T14:19:39Z</time></trkpt><trkpt lat="40.12683137293001" lon="9.508217746597253"><ele>954.0</ele><time>2026-04-11T14:19:40Z</time></trkpt><trkpt lat="40.12662133379167" lon="9.508327114399718"><ele>954.0</ele><time>2026-04-11T14:19:41Z</time></trkpt><trkpt lat="40.126407637162146" lon="9.508407106856568"><ele>954.0</ele><time>2026-04-11T14:19:42Z</time></trkpt><trkpt lat="40.12618793645678" lon="9.508475572615133"><ele>958.6666666666667</ele><time>2026-04-11T14:19:43Z</time></trkpt><trkpt lat="40.12597257178418" lon="9.508556203232205"><ele>963.3333333333334</ele><time>2026-04-11T14:19:44Z</time></trkpt><trkpt lat="40.125768234116485" lon="9.50863500294438"><ele>968.0</ele><time>2026-04-11T14:19:45Z</time></trkpt><trkpt lat="40.12557880328095" lon="9.508701087589168"><ele>973.0</ele><time>2026-04-11T14:19:46Z</time></trkpt><trkpt lat="40.125406067247816" lon="9.508740096181096"><ele>978.0</ele><time>2026-04-11T14:19:47Z</time></trkpt><trkpt lat="40.125234871788855" lon="9.508726846423809"><ele>983.0</ele><time>2026-04-11T14:19:48Z</time></trkpt><trkpt lat="40.12506288764408" lon="9.508744072120702"><ele>970.0</ele><time>2026-04-11T14:19:49Z</time></trkpt><trkpt lat="40.12488544891194" lon="9.508820353625694"><ele>957.0</ele><time>2026-04-11T14:19:50Z</time></trkpt><trkpt lat="40.12470926147389" lon="9.508924832096266"><ele>944.0</ele><time>2026-04-11T14:19:51Z</time></trkpt><trkpt lat="40.12453111353999" lon="9.509034670195932"><ele>944.0</ele><time>2026-04-11T14:19:52Z</time></trkpt><trkpt lat="40.124340291863085" lon="9.509127617953864"><ele>944.0</ele><time>2026-04-11T14:19:53Z</time></trkpt><trkpt lat="40.12413015381087" lon="9.50919161517486"><ele>944.0</ele><time>2026-04-11T14:19:54Z</time></trkpt><trkpt lat="40.12390999169164" lon="9.509241341070142"><ele>949.0</ele><time>2026-04-11T14:19:55Z</time></trkpt><trkpt lat="40.12368574170201" lon="9.509289087853336"><ele>954.0</ele><time>2026-04-11T14:19:56Z</time></trkpt><trkpt lat="40.12345301845462" lon="9.509334884427926"><ele>959.0</ele><time>2026-04-11T14:19:57Z</time></trkpt><trkpt lat="40.12321485707061" lon="9.509375927553336"><ele>964.0</ele><time>2026-04-11T14:19:58Z</time></trkpt><trkpt lat="40.122983762502734" lon="9.509402235639332"><ele>964.0</ele><time>2026-04-11T14:19:59Z</time></trkpt><trkpt lat="40.12276432277443" lon="9.509434420332056"><ele>964.0</ele><time>2026-04-11T14:20:00Z</time></trkpt><trkpt lat="40.12255089746358" lon="9.509481511644434"><ele>964.0</ele><time>2026-04-11T14:20:01Z</time></trkpt><trkpt lat="40.12233265107231" lon="9.50951461203804"><ele>966.5</ele><time>2026-04-11T14:20:02Z</time></trkpt><trkpt lat="40.12210710372318" lon="9.509520098888531"><ele>969.0</ele><time>2026-04-11T14:20:03Z</time></trkpt><trkpt lat="40.121876018343336" lon="9.509516862152323"><ele>969.0</ele><time>2026-04-11T14:20:04Z</time></trkpt><trkpt lat="40.12164238051904" lon="9.509520350970652"><ele>969.0</ele><time>2026-04-11T14:20:05Z</time></trkpt><trkpt lat="40.12140507808151" lon="9.509535632090968"><ele>968.5</ele><time>2026-04-11T14:20:06Z</time></trkpt><trkpt lat="40.1211673991947" lon="9.509559154984228"><ele>968.0</ele><time>2026-04-11T14:20:07Z</time></trkpt><trkpt lat="40.12092907490065" lon="9.509588044307014"><ele>939.5</ele><time>2026-04-11T14:20:08Z</time></trkpt><trkpt lat="40.120694007290275" lon="9.50961590234013"><ele>911.0</ele><time>2026-04-11T14:20:09Z</time></trkpt><trkpt lat="40.120469435741335" lon="9.509649277399843"><ele>911.0</ele><time>2026-04-11T14:20:10Z</time></trkpt><trkpt lat="40.12025456807661" lon="9.509696727164455"><ele>911.0</ele><time>2026-04-11T14:20:11Z</time></trkpt><trkpt lat="40.12005076415269" lon="9.509744400117327"><ele>911.0</ele><time>2026-04-11T14:20:12Z</time></trkpt><trkpt lat="40.119854532139236" lon="9.509759835205355"><ele>915.6666666666667</ele><time>2026-04-11T14:20:13Z</time></trkpt><trkpt lat="40.119673849616575" lon="9.509731564843904"><ele>920.3333333333333</ele><time>2026-04-11T14:20:14Z</time></trkpt><trkpt lat="40.119513053583596" lon="9.50971753584678"><ele>925.0</ele><time>2026-04-11T14:20:15Z</time></trkpt><trkpt lat="40.119363315746696" lon="9.50977763660219"><ele>925.0</ele><time>2026-04-11T14:20:16Z</time></trkpt><trkpt lat="40.11921611295083" lon="9.509903840551083"><ele>925.0</ele><time>2026-04-11T14:20:17Z</time></trkpt><trkpt lat="40.1190636950185" lon="9.510047998341806"><ele>925.0</ele><time>2026-04-11T14:20:18Z</time></trkpt><trkpt lat="40.118894429317606" lon="9.510194578314152"><ele>925.3333333333333</ele><time>2026-04-11T14:20:19Z</time></trkpt><trkpt lat="40.118716748471016" lon="9.510342053223308"><ele>925.6666666666667</ele><time>2026-04-11T14:20:20Z</time></trkpt><trkpt lat="40.11855015931243" lon="9.510511507820103"><ele>926.0</ele><time>2026-04-11T14:20:21Z</time></trkpt><trkpt lat="40.11840070340962" lon="9.51070826978691"><ele>926.0</ele><time>2026-04-11T14:20:22Z</time></trkpt><trkpt lat="40.11825063990646" lon="9.510904429421974"><ele>926.0</ele><time>2026-04-11T14:20:23Z</time></trkpt><trkpt lat="40.11808359475629" lon="9.5110807873348"><ele>926.0</ele><time>2026-04-11T14:20:24Z</time></trkpt><trkpt lat="40.11789290323071" lon="9.511226792922791"><ele>923.3333333333334</ele><time>2026-04-11T14:20:25Z</time></trkpt><trkpt lat="40.117698013026924" lon="9.511368676803023"><ele>920.6666666666667</ele><time>2026-04-11T14:20:26Z</time></trkpt><trkpt lat="40.11750785111809" lon="9.511508718781107"><ele>918.0</ele><time>2026-04-11T14:20:27Z</time></trkpt><trkpt lat="40.11732003019603" lon="9.51164386239853"><ele>924.3333333333333</ele><time>2026-04-11T14:20:28Z</time></trkpt><trkpt lat="40.11712307191442" lon="9.511755104011874"><ele>930.6666666666666</ele><time>2026-04-11T14:20:29Z</time></trkpt><trkpt lat="40.11691582232522" lon="9.511841145643707"><ele>937.0</ele><time>2026-04-11T14:20:30Z</time></trkpt><trkpt lat="40.116712944378556" lon="9.511877511467873"><ele>943.3333333333333</ele><time>2026-04-11T14:20:31Z</time></trkpt><trkpt lat="40.11651805535214" lon="9.511906997763367"><ele>949.6666666666667</ele><time>2026-04-11T14:20:32Z</time></trkpt><trkpt lat="40.11633555974092" lon="9.511994415658707"><ele>956.0</ele><time>2026-04-11T14:20:33Z</time></trkpt><trkpt lat="40.11613287386245" lon="9.51213853779726"><ele>941.0</ele><time>2026-04-11T14:20:34Z</time></trkpt><trkpt lat="40.115925267736756" lon="9.512234660717848"><ele>926.0</ele><time>2026-04-11T14:20:35Z</time></trkpt><trkpt lat="40.11569926327848" lon="9.512298082871249"><ele>926.0</ele><time>2026-04-11T14:20:36Z</time></trkpt><trkpt lat="40.115468637329535" lon="9.512372946815578"><ele>926.0</ele><time>2026-04-11T14:20:37Z</time></trkpt><trkpt lat="40.115237193704374" lon="9.512475444827148"><ele>926.0</ele><time>2026-04-11T14:20:38Z</time></trkpt><trkpt lat="40.115006938340116" lon="9.512606361625464"><ele>926.0</ele><time>2026-04-11T14:20:39Z</time></trkpt><trkpt lat="40.11477345513614" lon="9.512738008189618"><ele>933.5</ele><time>2026-04-11T14:20:40Z</time></trkpt><trkpt lat="40.114533854346014" lon="9.512862722689597"><ele>941.0</ele><time>2026-04-11T14:20:41Z</time></trkpt><trkpt lat="40.114291553364154" lon="9.512997361600798"><ele>932.5</ele><time>2026-04-11T14:20:42Z</time></trkpt><trkpt lat="40.11404928509803" lon="9.513145293959115"><ele>924.0</ele><time>2026-04-11T14:20:43Z</time></trkpt><trkpt lat="40.11381433641218" lon="9.51329369191509"><ele>924.0</ele><time>2026-04-11T14:20:44Z</time></trkpt><trkpt lat="40.113588276063155" lon="9.513438297566758"><ele>924.0</ele><time>2026-04-11T14:20:45Z</time></trkpt><trkpt lat="40.11337307372387" lon="9.513596763023564"><ele>919.0</ele><time>2026-04-11T14:20:46Z</time></trkpt><trkpt lat="40.11316843150471" lon="9.513792476692691"><ele>914.0</ele><time>2026-04-11T14:20:47Z</time></trkpt><trkpt lat="40.112969348759954" lon="9.514006555236552"><ele>914.0</ele><time>2026-04-11T14:20:48Z</time></trkpt><trkpt lat="40.11277334407942" lon="9.514209874460931"><ele>914.0</ele><time>2026-04-11T14:20:49Z</time></trkpt><trkpt lat="40.11257781863667" lon="9.51439966585633"><ele>906.0</ele><time>2026-04-11T14:20:50Z</time></trkpt><trkpt lat="40.112393117880615" lon="9.514579634357307"><ele>898.0</ele><time>2026-04-11T14:20:51Z</time></trkpt><trkpt lat="40.11222286535114" lon="9.514760718584647"><ele>898.0</ele><time>2026-04-11T14:20:52Z</time></trkpt><trkpt lat="40.11206181554129" lon="9.514961065304215"><ele>898.0</ele><time>2026-04-11T14:20:53Z</time></trkpt><trkpt lat="40.11190714751286" lon="9.515183049051158"><ele>900.5</ele><time>2026-04-11T14:20:54Z</time></trkpt><trkpt lat="40.11175588376448" lon="9.515417330292141"><ele>903.0</ele><time>2026-04-11T14:20:55Z</time></trkpt><trkpt lat="40.11160858304043" lon="9.515661868020485"><ele>885.5</ele><time>2026-04-11T14:20:56Z</time></trkpt><trkpt lat="40.1114770770084" lon="9.51591272319825"><ele>868.0</ele><time>2026-04-11T14:20:57Z</time></trkpt><trkpt lat="40.11138157548104" lon="9.516170743243679"><ele>870.6666666666666</ele><time>2026-04-11T14:20:58Z</time></trkpt><trkpt lat="40.111309552398886" lon="9.516424816322909"><ele>873.3333333333333</ele><time>2026-04-11T14:20:59Z</time></trkpt><trkpt lat="40.11123335460727" lon="9.516655584568138"><ele>876.0</ele><time>2026-04-11T14:21:00Z</time></trkpt><trkpt lat="40.1111297936923" lon="9.516844337772342"><ele>876.0</ele><time>2026-04-11T14:21:01Z</time></trkpt><trkpt lat="40.110992922413864" lon="9.516978988887429"><ele>876.0</ele><time>2026-04-11T14:21:02Z</time></trkpt><trkpt lat="40.11087095423009" lon="9.517120849456344"><ele>876.0</ele><time>2026-04-11T14:21:03Z</time></trkpt><trkpt lat="40.11078347369555" lon="9.517345816910685"><ele>873.0</ele><time>2026-04-11T14:21:04Z</time></trkpt><trkpt lat="40.1107252049298" lon="9.517598365651223"><ele>870.0</ele><time>2026-04-11T14:21:05Z</time></trkpt><trkpt lat="40.11067802966678" lon="9.517850580141236"><ele>867.0</ele><time>2026-04-11T14:21:06Z</time></trkpt><trkpt lat="40.11061373832842" lon="9.518070951971325"><ele>867.0</ele><time>2026-04-11T14:21:07Z</time></trkpt><trkpt lat="40.11052091119881" lon="9.518259371228568"><ele>867.0</ele><time>2026-04-11T14:21:08Z</time></trkpt><trkpt lat="40.110378666084756" lon="9.518415025911969"><ele>867.0</ele><time>2026-04-11T14:21:09Z</time></trkpt><trkpt lat="40.1102163659846" lon="9.518571906405871"><ele>866.3333333333333</ele><time>2026-04-11T14:21:10Z</time></trkpt><trkpt lat="40.11004429499088" lon="9.518740456306926"><ele>865.6666666666666</ele><time>2026-04-11T14:21:11Z</time></trkpt><trkpt lat="40.109856091118175" lon="9.51888575038861"><ele>865.0</ele><time>2026-04-11T14:21:12Z</time></trkpt><trkpt lat="40.10965134854409" lon="9.51898748536679"><ele>865.0</ele><time>2026-04-11T14:21:13Z</time></trkpt><trkpt lat="40.10944863840996" lon="9.519096868581274"><ele>865.0</ele><time>2026-04-11T14:21:14Z</time></trkpt><trkpt lat="40.10925463127046" lon="9.519251383502388"><ele>865.0</ele><time>2026-04-11T14:21:15Z</time></trkpt><trkpt lat="40.10906501487997" lon="9.51943858611774"><ele>859.5</ele><time>2026-04-11T14:21:16Z</time></trkpt><trkpt lat="40.108876673386256" lon="9.519655460181788"><ele>854.0</ele><time>2026-04-11T14:21:17Z</time></trkpt><trkpt lat="40.108697069320264" lon="9.519882064264388"><ele>854.0</ele><time>2026-04-11T14:21:18Z</time></trkpt><trkpt lat="40.10853292651726" lon="9.520097826349847"><ele>854.0</ele><time>2026-04-11T14:21:19Z</time></trkpt><trkpt lat="40.108379830853806" lon="9.520289206874441"><ele>854.0</ele><time>2026-04-11T14:21:20Z</time></trkpt><trkpt lat="40.10821878870292" lon="9.52044733650035"><ele>856.3333333333334</ele><time>2026-04-11T14:21:21Z</time></trkpt><trkpt lat="40.10803948352668" lon="9.52056392303714"><ele>858.6666666666667</ele><time>2026-04-11T14:21:22Z</time></trkpt><trkpt lat="40.10783479992287" lon="9.520640489354738"><ele>861.0</ele><time>2026-04-11T14:21:23Z</time></trkpt><trkpt lat="40.10762898325659" lon="9.520702633044328"><ele>861.0</ele><time>2026-04-11T14:21:24Z</time></trkpt><trkpt lat="40.10744717962712" lon="9.520787077282138"><ele>861.0</ele><time>2026-04-11T14:21:25Z</time></trkpt><trkpt lat="40.107280276788316" lon="9.520921666210574"><ele>861.0</ele><time>2026-04-11T14:21:26Z</time></trkpt><trkpt lat="40.10711848709787" lon="9.521116100300336"><ele>857.5</ele><time>2026-04-11T14:21:27Z</time></trkpt><trkpt lat="40.106958448095114" lon="9.521340656402193"><ele>854.0</ele><time>2026-04-11T14:21:28Z</time></trkpt><trkpt lat="40.10679229435883" lon="9.521552454568624"><ele>854.0</ele><time>2026-04-11T14:21:29Z</time></trkpt><trkpt lat="40.1066388340631" lon="9.52175612133136"><ele>854.0</ele><time>2026-04-11T14:21:30Z</time></trkpt><trkpt lat="40.10650846630235" lon="9.521978403361787"><ele>854.0</ele><time>2026-04-11T14:21:31Z</time></trkpt><trkpt lat="40.10640898156966" lon="9.52223094446826"><ele>852.6666666666667</ele><time>2026-04-11T14:21:32Z</time></trkpt><trkpt lat="40.1063180703537" lon="9.522487763744019"><ele>851.3333333333333</ele><time>2026-04-11T14:21:33Z</time></trkpt><trkpt lat="40.10619356448744" lon="9.522724386073637"><ele>850.0</ele><time>2026-04-11T14:21:34Z</time></trkpt><trkpt lat="40.10603353978677" lon="9.522938821111861"><ele>850.0</ele><time>2026-04-11T14:21:35Z</time></trkpt><trkpt lat="40.10585173780219" lon="9.523138649496019"><ele>850.0</ele><time>2026-04-11T14:21:36Z</time></trkpt><trkpt lat="40.105664279752865" lon="9.523306368138313"><ele>841.3333333333333</ele><time>2026-04-11T14:21:37Z</time></trkpt><trkpt lat="40.10547491965369" lon="9.523443761248204"><ele>832.6666666666667</ele><time>2026-04-11T14:21:38Z</time></trkpt><trkpt lat="40.10528793053139" lon="9.523574417186444"><ele>824.0</ele><time>2026-04-11T14:21:39Z</time></trkpt><trkpt lat="40.10511834319183" lon="9.523703711038896"><ele>819.6666666666667</ele><time>2026-04-11T14:21:40Z</time></trkpt><trkpt lat="40.104973199033424" lon="9.523852900793353"><ele>815.3333333333333</ele><time>2026-04-11T14:21:41Z</time></trkpt><trkpt lat="40.10486550287637" lon="9.524051154338013"><ele>811.0</ele><time>2026-04-11T14:21:42Z</time></trkpt><trkpt lat="40.104790462884964" lon="9.524265685115274"><ele>811.0</ele><time>2026-04-11T14:21:43Z</time></trkpt><trkpt lat="40.104762636665576" lon="9.524460002129848"><ele>811.0</ele><time>2026-04-11T14:21:44Z</time></trkpt><trkpt lat="40.10478851425549" lon="9.524642927515776"><ele>811.0</ele><time>2026-04-11T14:21:45Z</time></trkpt><trkpt lat="40.10486608833322" lon="9.524794349580013"><ele>811.0</ele><time>2026-04-11T14:21:46Z</time></trkpt><trkpt lat="40.104988785537834" lon="9.52488668504319"><ele>817.6666666666666</ele><time>2026-04-11T14:21:47Z</time></trkpt><trkpt lat="40.10514779587608" lon="9.524911586407638"><ele>824.3333333333333</ele><time>2026-04-11T14:21:48Z</time></trkpt><trkpt lat="40.105319484381575" lon="9.524900138348356"><ele>831.0</ele><time>2026-04-11T14:21:49Z</time></trkpt><trkpt lat="40.105504804580725" lon="9.524927617139623"><ele>831.0</ele><time>2026-04-11T14:21:50Z</time></trkpt><trkpt lat="40.10569366606609" lon="9.52492589691058"><ele>831.0</ele><time>2026-04-11T14:21:51Z</time></trkpt><trkpt lat="40.10586866115924" lon="9.524954314616856"><ele>831.0</ele><time>2026-04-11T14:21:52Z</time></trkpt><trkpt lat="40.10602519496093" lon="9.525000671128652"><ele>831.6666666666667</ele><time>2026-04-11T14:21:53Z</time></trkpt><trkpt lat="40.10615596556062" lon="9.52511045879719"><ele>832.3333333333334</ele><time>2026-04-11T14:21:54Z</time></trkpt><trkpt lat="40.10625925306947" lon="9.52528087883194"><ele>833.0</ele><time>2026-04-11T14:21:55Z</time></trkpt><trkpt lat="40.10635477164281" lon="9.525477426472326"><ele>826.0</ele><time>2026-04-11T14:21:56Z</time></trkpt><trkpt lat="40.106442547599386" lon="9.525687666075095"><ele>819.0</ele><time>2026-04-11T14:21:57Z</time></trkpt><trkpt lat="40.106483123793865" lon="9.525905794702396"><ele>812.0</ele><time>2026-04-11T14:21:58Z</time></trkpt><trkpt lat="40.10647792319971" lon="9.526130130008218"><ele>813.6666666666667</ele><time>2026-04-11T14:21:59Z</time></trkpt><trkpt lat="40.106431169753165" lon="9.526349611008712"><ele>815.3333333333333</ele><time>2026-04-11T14:22:00Z</time></trkpt><trkpt lat="40.10633769233085" lon="9.52654699027914"><ele>817.0</ele><time>2026-04-11T14:22:01Z</time></trkpt><trkpt lat="40.10620376573044" lon="9.52671621963435"><ele>817.0</ele><time>2026-04-11T14:22:02Z</time></trkpt><trkpt lat="40.10604605099254" lon="9.526842096548686"><ele>817.0</ele><time>2026-04-11T14:22:03Z</time></trkpt><trkpt lat="40.105862849114395" lon="9.526902636479264"><ele>817.0</ele><time>2026-04-11T14:22:04Z</time></trkpt><trkpt lat="40.10567028401343" lon="9.526926026962322"><ele>817.3333333333333</ele><time>2026-04-11T14:22:05Z</time></trkpt><trkpt lat="40.105465811188374" lon="9.526959286810573"><ele>817.6666666666667</ele><time>2026-04-11T14:22:06Z</time></trkpt><trkpt lat="40.10526024859692" lon="9.527034738105993"><ele>818.0</ele><time>2026-04-11T14:22:07Z</time></trkpt><trkpt lat="40.10505502634913" lon="9.52715913738124"><ele>808.6666666666667</ele><time>2026-04-11T14:22:08Z</time></trkpt><trkpt lat="40.10486987399591" lon="9.527310113716302"><ele>799.3333333333333</ele><time>2026-04-11T14:22:09Z</time></trkpt><trkpt lat="40.1047129602808" lon="9.527479661766261"><ele>790.0</ele><time>2026-04-11T14:22:10Z</time></trkpt><trkpt lat="40.104589062778366" lon="9.527680137104745"><ele>791.6666666666666</ele><time>2026-04-11T14:22:11Z</time></trkpt><trkpt lat="40.104499650032906" lon="9.52792465502482"><ele>793.3333333333333</ele><time>2026-04-11T14:22:12Z</time></trkpt><trkpt lat="40.10443726508174" lon="9.528183532144686"><ele>795.0</ele><time>2026-04-11T14:22:13Z</time></trkpt><trkpt lat="40.1044024738758" lon="9.528432578427651"><ele>795.0</ele><time>2026-04-11T14:22:14Z</time></trkpt><trkpt lat="40.104419007294794" lon="9.52868657965221"><ele>795.0</ele><time>2026-04-11T14:22:15Z</time></trkpt><trkpt lat="40.10447939959015" lon="9.528958806061656"><ele>795.0</ele><time>2026-04-11T14:22:16Z</time></trkpt><trkpt lat="40.104548525083885" lon="9.529239595316684"><ele>794.3333333333333</ele><time>2026-04-11T14:22:17Z</time></trkpt><trkpt lat="40.10460351093124" lon="9.529516928154282"><ele>793.6666666666666</ele><time>2026-04-11T14:22:18Z</time></trkpt><trkpt lat="40.10465145565068" lon="9.52978157288929"><ele>793.0</ele><time>2026-04-11T14:22:19Z</time></trkpt><trkpt lat="40.10469940851954" lon="9.530021630154543"><ele>792.5</ele><time>2026-04-11T14:22:20Z</time></trkpt><trkpt lat="40.104730774817746" lon="9.5302234423798"><ele>792.0</ele><time>2026-04-11T14:22:21Z</time></trkpt><trkpt lat="40.10472393802736" lon="9.530399412611542"><ele>791.5</ele><time>2026-04-11T14:22:22Z</time></trkpt><trkpt lat="40.10466621924142" lon="9.530530172160095"><ele>791.0</ele><time>2026-04-11T14:22:23Z</time></trkpt><trkpt lat="40.104569521125704" lon="9.530595565007687"><ele>791.0</ele><time>2026-04-11T14:22:24Z</time></trkpt><trkpt lat="40.10445561031121" lon="9.530590672323985"><ele>791.0</ele><time>2026-04-11T14:22:25Z</time></trkpt><trkpt lat="40.10434119607484" lon="9.530506529578917"><ele>791.0</ele><time>2026-04-11T14:22:26Z</time></trkpt><trkpt lat="40.10427228998869" lon="9.530356504568404"><ele>791.0</ele><time>2026-04-11T14:22:27Z</time></trkpt><trkpt lat="40.10427394981992" lon="9.530162692436344"><ele>791.0</ele><time>2026-04-11T14:22:28Z</time></trkpt><trkpt lat="40.104301315172165" lon="9.529955537135022"><ele>791.0</ele><time>2026-04-11T14:22:29Z</time></trkpt><trkpt lat="40.104322880344675" lon="9.529745029038452"><ele>791.0</ele><time>2026-04-11T14:22:30Z</time></trkpt><trkpt lat="40.10431358448139" lon="9.52958317616511"><ele>791.0</ele><time>2026-04-11T14:22:31Z</time></trkpt><trkpt lat="40.10425416253567" lon="9.52946551223236"><ele>791.5</ele><time>2026-04-11T14:22:32Z</time></trkpt><trkpt lat="40.104150133703676" lon="9.529406545467886"><ele>792.0</ele><time>2026-04-11T14:22:33Z</time></trkpt><trkpt lat="40.104034251886944" lon="9.529408752227445"><ele>792.5</ele><time>2026-04-11T14:22:34Z</time></trkpt><trkpt lat="40.10392906572432" lon="9.529504375674856"><ele>793.0</ele><time>2026-04-11T14:22:35Z</time></trkpt><trkpt lat="40.10386847019445" lon="9.5296678800532"><ele>789.3333333333333</ele><time>2026-04-11T14:22:36Z</time></trkpt><trkpt lat="40.1038529888973" lon="9.529878240955036"><ele>785.6666666666667</ele><time>2026-04-11T14:22:37Z</time></trkpt><trkpt lat="40.10380751525552" lon="9.53007034330898"><ele>782.0</ele><time>2026-04-11T14:22:38Z</time></trkpt><trkpt lat="40.10371639731346" lon="9.530219685664123"><ele>782.0</ele><time>2026-04-11T14:22:39Z</time></trkpt><trkpt lat="40.10359846233258" lon="9.530287173707881"><ele>782.0</ele><time>2026-04-11T14:22:40Z</time></trkpt><trkpt lat="40.10344939384807" lon="9.530284717967222"><ele>782.0</ele><time>2026-04-11T14:22:41Z</time></trkpt><trkpt lat="40.103280493228795" lon="9.53022855845052"><ele>780.3333333333334</ele><time>2026-04-11T14:22:42Z</time></trkpt><trkpt lat="40.10309279296465" lon="9.530169131722284"><ele>778.6666666666667</ele><time>2026-04-11T14:22:43Z</time></trkpt><trkpt lat="40.1028953061134" lon="9.530144467556797"><ele>777.0</ele><time>2026-04-11T14:22:44Z</time></trkpt><trkpt lat="40.102680432925794" lon="9.53009764859536"><ele>777.0</ele><time>2026-04-11T14:22:45Z</time></trkpt><trkpt lat="40.1024809120388" lon="9.53004430862468"><ele>777.0</ele><time>2026-04-11T14:22:46Z</time></trkpt><trkpt lat="40.10229776871276" lon="9.529999096544461"><ele>777.0</ele><time>2026-04-11T14:22:47Z</time></trkpt><trkpt lat="40.10214537876221" lon="9.529958674271523"><ele>776.5</ele><time>2026-04-11T14:22:48Z</time></trkpt><trkpt lat="40.102015055095684" lon="9.529885233888034"><ele>776.0</ele><time>2026-04-11T14:22:49Z</time></trkpt><trkpt lat="40.101916272356064" lon="9.529760754979886"><ele>775.5</ele><time>2026-04-11T14:22:50Z</time></trkpt><trkpt lat="40.101878904434685" lon="9.529579175174922"><ele>775.0</ele><time>2026-04-11T14:22:51Z</time></trkpt><trkpt lat="40.10187920353449" lon="9.529365130904823"><ele>773.0</ele><time>2026-04-11T14:22:52Z</time></trkpt><trkpt lat="40.101873005385755" lon="9.529135589078363"><ele>771.0</ele><time>2026-04-11T14:22:53Z</time></trkpt><trkpt lat="40.10186189120547" lon="9.528937302902701"><ele>769.0</ele><time>2026-04-11T14:22:54Z</time></trkpt><trkpt lat="40.10180245392736" lon="9.528772500101626"><ele>765.25</ele><time>2026-04-11T14:22:55Z</time></trkpt><trkpt lat="40.10170513979299" lon="9.52864737769095"><ele>761.5</ele><time>2026-04-11T14:22:56Z</time></trkpt><trkpt lat="40.10157873554001" lon="9.528587196804597"><ele>757.75</ele><time>2026-04-11T14:22:57Z</time></trkpt><trkpt lat="40.10141934526582" lon="9.528594949599677"><ele>754.0</ele><time>2026-04-11T14:22:58Z</time></trkpt><trkpt lat="40.10124448471841" lon="9.52864939163182"><ele>754.3333333333334</ele><time>2026-04-11T14:22:59Z</time></trkpt><trkpt lat="40.10105096898579" lon="9.528714242757115"><ele>754.6666666666666</ele><time>2026-04-11T14:23:00Z</time></trkpt><trkpt lat="40.100838260880096" lon="9.528785752616049"><ele>755.0</ele><time>2026-04-11T14:23:01Z</time></trkpt><trkpt lat="40.10060556297741" lon="9.528857281014243"><ele>755.0</ele><time>2026-04-11T14:23:02Z</time></trkpt><trkpt lat="40.10035629715148" lon="9.528920584943233"><ele>755.0</ele><time>2026-04-11T14:23:03Z</time></trkpt><trkpt lat="40.1000986462667" lon="9.528976893632036"><ele>749.5</ele><time>2026-04-11T14:23:04Z</time></trkpt><trkpt lat="40.099843324568035" lon="9.529036061722335"><ele>744.0</ele><time>2026-04-11T14:23:05Z</time></trkpt><trkpt lat="40.099595075307725" lon="9.529122346994425"><ele>744.0</ele><time>2026-04-11T14:23:06Z</time></trkpt><trkpt lat="40.0993502912745" lon="9.529255056416037"><ele>744.0</ele><time>2026-04-11T14:23:07Z</time></trkpt><trkpt lat="40.0991094238199" lon="9.529418125337102"><ele>742.0</ele><time>2026-04-11T14:23:08Z</time></trkpt><trkpt lat="40.098875620702174" lon="9.529573339094306"><ele>740.0</ele><time>2026-04-11T14:23:09Z</time></trkpt><trkpt lat="40.098642104410956" lon="9.529717153815598"><ele>740.0</ele><time>2026-04-11T14:23:10Z</time></trkpt><trkpt lat="40.09840492821908" lon="9.529858531874318"><ele>740.0</ele><time>2026-04-11T14:23:11Z</time></trkpt><trkpt lat="40.098164446745265" lon="9.529986957979647"><ele>739.5</ele><time>2026-04-11T14:23:12Z</time></trkpt><trkpt lat="40.09792969593182" lon="9.530084271616085"><ele>739.0</ele><time>2026-04-11T14:23:13Z</time></trkpt><trkpt lat="40.09769331026535" lon="9.530147439612488"><ele>739.0</ele><time>2026-04-11T14:23:14Z</time></trkpt><trkpt lat="40.09746632560013" lon="9.530175493087482"><ele>739.0</ele><time>2026-04-11T14:23:15Z</time></trkpt><trkpt lat="40.09726068538261" lon="9.530180437141608"><ele>739.0</ele><time>2026-04-11T14:23:16Z</time></trkpt><trkpt lat="40.09706399221292" lon="9.530174657032454"><ele>736.6666666666667</ele><time>2026-04-11T14:23:17Z</time></trkpt><trkpt lat="40.09687156220912" lon="9.530176728782394"><ele>734.3333333333334</ele><time>2026-04-11T14:23:18Z</time></trkpt><trkpt lat="40.09669418160424" lon="9.530199737053803"><ele>732.0</ele><time>2026-04-11T14:23:19Z</time></trkpt><trkpt lat="40.09653971564275" lon="9.530254099252005"><ele>729.6666666666666</ele><time>2026-04-11T14:23:20Z</time></trkpt><trkpt lat="40.09640975867865" lon="9.53036711069602"><ele>727.3333333333333</ele><time>2026-04-11T14:23:21Z</time></trkpt><trkpt lat="40.09630233706635" lon="9.530532900865081"><ele>725.0</ele><time>2026-04-11T14:23:22Z</time></trkpt><trkpt lat="40.09622973423866" lon="9.53073630204886"><ele>725.0</ele><time>2026-04-11T14:23:23Z</time></trkpt><trkpt lat="40.09619898556661" lon="9.530980294286698"><ele>725.0</ele><time>2026-04-11T14:23:24Z</time></trkpt><trkpt lat="40.09620531839888" lon="9.531255711619458"><ele>725.0</ele><time>2026-04-11T14:23:25Z</time></trkpt><trkpt lat="40.09621270638788" lon="9.5315518847525"><ele>725.0</ele><time>2026-04-11T14:23:26Z</time></trkpt><trkpt lat="40.09621419111094" lon="9.53186906503143"><ele>725.0</ele><time>2026-04-11T14:23:27Z</time></trkpt><trkpt lat="40.09621104137207" lon="9.532204897085382"><ele>724.5</ele><time>2026-04-11T14:23:28Z</time></trkpt><trkpt lat="40.09620589801425" lon="9.532554498023995"><ele>724.0</ele><time>2026-04-11T14:23:29Z</time></trkpt><trkpt lat="40.09620046240574" lon="9.532892854460943"><ele>725.0</ele><time>2026-04-11T14:23:30Z</time></trkpt><trkpt lat="40.09619367939622" lon="9.533193874716028"><ele>726.0</ele><time>2026-04-11T14:23:31Z</time></trkpt><trkpt lat="40.09616803163346" lon="9.533453888596636"><ele>727.0</ele><time>2026-04-11T14:23:32Z</time></trkpt><trkpt lat="40.096105483259905" lon="9.53366358278807"><ele>726.6666666666667</ele><time>2026-04-11T14:23:33Z</time></trkpt><trkpt lat="40.09599323574122" lon="9.533845575071293"><ele>726.3333333333334</ele><time>2026-04-11T14:23:34Z</time></trkpt><trkpt lat="40.09582639858695" lon="9.533967636283368"><ele>726.0</ele><time>2026-04-11T14:23:35Z</time></trkpt><trkpt lat="40.09565439276815" lon="9.53410196946968"><ele>726.0</ele><time>2026-04-11T14:23:36Z</time></trkpt><trkpt lat="40.095460039615055" lon="9.534235459439916"><ele>726.0</ele><time>2026-04-11T14:23:37Z</time></trkpt><trkpt lat="40.09528623651572" lon="9.534383187394287"><ele>726.0</ele><time>2026-04-11T14:23:38Z</time></trkpt><trkpt lat="40.095150732086495" lon="9.534549925801132"><ele>725.6666666666666</ele><time>2026-04-11T14:23:39Z</time></trkpt><trkpt lat="40.09506891788988" lon="9.534760936963018"><ele>725.3333333333333</ele><time>2026-04-11T14:23:40Z</time></trkpt><trkpt lat="40.09494220017902" lon="9.534956186024063"><ele>725.0</ele><time>2026-04-11T14:23:41Z</time></trkpt><trkpt lat="40.09482663083119" lon="9.535176014278832"><ele>723.0</ele><time>2026-04-11T14:23:42Z</time></trkpt><trkpt lat="40.09488531919272" lon="9.535596732198146"><ele>721.0</ele><time>2026-04-11T14:23:43Z</time></trkpt><trkpt lat="40.09480620443154" lon="9.535906651041337"><ele>721.0</ele><time>2026-04-11T14:23:44Z</time></trkpt><trkpt lat="40.09472685147736" lon="9.53622534458936"><ele>721.0</ele><time>2026-04-11T14:23:45Z</time></trkpt><trkpt lat="40.09464887238541" lon="9.536531601673815"><ele>721.0</ele><time>2026-04-11T14:23:46Z</time></trkpt><trkpt lat="40.09457884154824" lon="9.53682166401854"><ele>721.0</ele><time>2026-04-11T14:23:47Z</time></trkpt><trkpt lat="40.09453914521138" lon="9.537097774603337"><ele>721.0</ele><time>2026-04-11T14:23:48Z</time></trkpt><trkpt lat="40.094548744158885" lon="9.537374902813498"><ele>721.0</ele><time>2026-04-11T14:23:49Z</time></trkpt><trkpt lat="40.09459764825521" lon="9.537662167670591"><ele>721.0</ele><time>2026-04-11T14:23:50Z</time></trkpt><trkpt lat="40.094690228953304" lon="9.537939954497636"><ele>721.5</ele><time>2026-04-11T14:23:51Z</time></trkpt><trkpt lat="40.094823548998455" lon="9.538198574479509"><ele>722.0</ele><time>2026-04-11T14:23:52Z</time></trkpt><trkpt lat="40.095000674918296" lon="9.538432568242902"><ele>722.5</ele><time>2026-04-11T14:23:53Z</time></trkpt><trkpt lat="40.09520242384077" lon="9.538664102597854"><ele>723.0</ele><time>2026-04-11T14:23:54Z</time></trkpt><trkpt lat="40.09539485969757" lon="9.538901223513557"><ele>722.0</ele><time>2026-04-11T14:23:55Z</time></trkpt><trkpt lat="40.09556595358878" lon="9.539125453100887"><ele>721.0</ele><time>2026-04-11T14:23:56Z</time></trkpt><trkpt lat="40.09571946807443" lon="9.5393278609015"><ele>720.6666666666667</ele><time>2026-04-11T14:23:57Z</time></trkpt><trkpt lat="40.0958576317421" lon="9.539503450541643"><ele>720.3333333333334</ele><time>2026-04-11T14:23:58Z</time></trkpt><trkpt lat="40.09599411669198" lon="9.539637407371702"><ele>720.0</ele><time>2026-04-11T14:23:59Z</time></trkpt><trkpt lat="40.09613682713109" lon="9.539686742394382"><ele>720.0</ele><time>2026-04-11T14:24:00Z</time></trkpt><trkpt lat="40.09629512925171" lon="9.539656637682816"><ele>720.0</ele><time>2026-04-11T14:24:01Z</time></trkpt><trkpt lat="40.09646153136304" lon="9.539584924264574"><ele>720.0</ele><time>2026-04-11T14:24:02Z</time></trkpt><trkpt lat="40.096631632129686" lon="9.539530167315595"><ele>719.3333333333334</ele><time>2026-04-11T14:24:03Z</time></trkpt><trkpt lat="40.096795716029355" lon="9.539531322790257"><ele>718.6666666666667</ele><time>2026-04-11T14:24:04Z</time></trkpt><trkpt lat="40.09694799540965" lon="9.539597298478835"><ele>718.0</ele><time>2026-04-11T14:24:05Z</time></trkpt><trkpt lat="40.09706982654223" lon="9.539728658028574"><ele>719.6666666666667</ele><time>2026-04-11T14:24:06Z</time></trkpt><trkpt lat="40.097157322816074" lon="9.539913818883619"><ele>721.3333333333334</ele><time>2026-04-11T14:24:07Z</time></trkpt><trkpt lat="40.09719617386318" lon="9.540117235396028"><ele>723.0</ele><time>2026-04-11T14:24:08Z</time></trkpt><trkpt lat="40.09718010397131" lon="9.540363221146732"><ele>723.3333333333334</ele><time>2026-04-11T14:24:09Z</time></trkpt><trkpt lat="40.097151256355076" lon="9.540618643122679"><ele>723.6666666666667</ele><time>2026-04-11T14:24:10Z</time></trkpt><trkpt lat="40.09711165647751" lon="9.540888221224211"><ele>724.0</ele><time>2026-04-11T14:24:11Z</time></trkpt><trkpt lat="40.097033426204696" lon="9.541158865472946"><ele>724.6666666666667</ele><time>2026-04-11T14:24:12Z</time></trkpt><trkpt lat="40.096940982495994" lon="9.541427946232009"><ele>725.3333333333334</ele><time>2026-04-11T14:24:13Z</time></trkpt><trkpt lat="40.096884502430605" lon="9.54170940515226"><ele>726.0</ele><time>2026-04-11T14:24:14Z</time></trkpt><trkpt lat="40.09688330229006" lon="9.542021222207163"><ele>726.5</ele><time>2026-04-11T14:24:15Z</time></trkpt><trkpt lat="40.09690066312647" lon="9.542352635495147"><ele>727.0</ele><time>2026-04-11T14:24:16Z</time></trkpt><trkpt lat="40.096923250661625" lon="9.54268465712916"><ele>727.0</ele><time>2026-04-11T14:24:17Z</time></trkpt><trkpt lat="40.09693926372359" lon="9.54300448284432"><ele>727.0</ele><time>2026-04-11T14:24:18Z</time></trkpt><trkpt lat="40.09694964386328" lon="9.54330704665917"><ele>727.0</ele><time>2026-04-11T14:24:19Z</time></trkpt><trkpt lat="40.096954745541616" lon="9.543596523371605"><ele>727.0</ele><time>2026-04-11T14:24:20Z</time></trkpt><trkpt lat="40.09693970168914" lon="9.543876893096158"><ele>727.0</ele><time>2026-04-11T14:24:21Z</time></trkpt><trkpt lat="40.09688165179293" lon="9.544137400232579"><ele>724.6666666666667</ele><time>2026-04-11T14:24:22Z</time></trkpt><trkpt lat="40.09681347111569" lon="9.544362910257732"><ele>722.3333333333334</ele><time>2026-04-11T14:24:23Z</time></trkpt><trkpt lat="40.09676993123645" lon="9.544571959943168"><ele>720.0</ele><time>2026-04-11T14:24:24Z</time></trkpt><trkpt lat="40.09678577268905" lon="9.544764354075438"><ele>719.0</ele><time>2026-04-11T14:24:25Z</time></trkpt><trkpt lat="40.096870062614876" lon="9.544922214208459"><ele>718.0</ele><time>2026-04-11T14:24:26Z</time></trkpt><trkpt lat="40.097004741240966" lon="9.545055055994185"><ele>717.0</ele><time>2026-04-11T14:24:27Z</time></trkpt><trkpt lat="40.097141228819844" lon="9.5451807590318"><ele>717.0</ele><time>2026-04-11T14:24:28Z</time></trkpt><trkpt lat="40.09723077516479" lon="9.545333513754674"><ele>717.0</ele><time>2026-04-11T14:24:29Z</time></trkpt><trkpt lat="40.09725481766334" lon="9.54552559616093"><ele>717.0</ele><time>2026-04-11T14:24:30Z</time></trkpt><trkpt lat="40.097229487571084" lon="9.545744352362336"><ele>717.6666666666666</ele><time>2026-04-11T14:24:31Z</time></trkpt><trkpt lat="40.097190522860444" lon="9.545984326522854"><ele>718.3333333333333</ele><time>2026-04-11T14:24:32Z</time></trkpt><trkpt lat="40.097168728075346" lon="9.546251288728328"><ele>719.0</ele><time>2026-04-11T14:24:33Z</time></trkpt><trkpt lat="40.09714512162575" lon="9.546543055030686"><ele>716.0</ele><time>2026-04-11T14:24:34Z</time></trkpt><trkpt lat="40.09711692022825" lon="9.546853297998855"><ele>713.0</ele><time>2026-04-11T14:24:35Z</time></trkpt><trkpt lat="40.09708373891617" lon="9.547178396954592"><ele>712.0</ele><time>2026-04-11T14:24:36Z</time></trkpt><trkpt lat="40.097050373922535" lon="9.54751425136255"><ele>711.0</ele><time>2026-04-11T14:24:37Z</time></trkpt><trkpt lat="40.09701942038699" lon="9.547837348615042"><ele>709.0</ele><time>2026-04-11T14:24:38Z</time></trkpt><trkpt lat="40.09698719173193" lon="9.548145907027779"><ele>707.0</ele><time>2026-04-11T14:24:39Z</time></trkpt><trkpt lat="40.09693715631819" lon="9.548449998868843"><ele>703.0</ele><time>2026-04-11T14:24:40Z</time></trkpt><trkpt lat="40.09685417657677" lon="9.548757026531641"><ele>699.0</ele><time>2026-04-11T14:24:41Z</time></trkpt><trkpt lat="40.096758102357114" lon="9.549069010896476"><ele>699.0</ele><time>2026-04-11T14:24:42Z</time></trkpt><trkpt lat="40.09666953454617" lon="9.549371008204691"><ele>699.0</ele><time>2026-04-11T14:24:43Z</time></trkpt><trkpt lat="40.09658868415542" lon="9.549655388678891"><ele>699.6666666666666</ele><time>2026-04-11T14:24:44Z</time></trkpt><trkpt lat="40.09651208847523" lon="9.54993079808392"><ele>700.3333333333333</ele><time>2026-04-11T14:24:45Z</time></trkpt><trkpt lat="40.096440641968414" lon="9.550179450882998"><ele>701.0</ele><time>2026-04-11T14:24:46Z</time></trkpt><trkpt lat="40.09637174821496" lon="9.55038486020855"><ele>698.75</ele><time>2026-04-11T14:24:47Z</time></trkpt><trkpt lat="40.09628554416132" lon="9.550527937759158"><ele>696.5</ele><time>2026-04-11T14:24:48Z</time></trkpt><trkpt lat="40.09616604725904" lon="9.550608482730693"><ele>694.25</ele><time>2026-04-11T14:24:49Z</time></trkpt><trkpt lat="40.09601504844949" lon="9.550621698495785"><ele>692.0</ele><time>2026-04-11T14:24:50Z</time></trkpt><trkpt lat="40.095851900618165" lon="9.550618121626236"><ele>692.0</ele><time>2026-04-11T14:24:51Z</time></trkpt><trkpt lat="40.09569297096236" lon="9.550624948359502"><ele>692.0</ele><time>2026-04-11T14:24:52Z</time></trkpt><trkpt lat="40.09555778071254" lon="9.550673199222025"><ele>692.0</ele><time>2026-04-11T14:24:53Z</time></trkpt><trkpt lat="40.095459129330614" lon="9.550780099516516"><ele>692.0</ele><time>2026-04-11T14:24:54Z</time></trkpt><trkpt lat="40.09539115159331" lon="9.550947782925848"><ele>692.0</ele><time>2026-04-11T14:24:55Z</time></trkpt><trkpt lat="40.095367173967304" lon="9.551162891028627"><ele>692.0</ele><time>2026-04-11T14:24:56Z</time></trkpt><trkpt lat="40.09536213712104" lon="9.5514007082079"><ele>692.0</ele><time>2026-04-11T14:24:57Z</time></trkpt><trkpt lat="40.09534780244735" lon="9.551663475875467"><ele>692.3333333333333</ele><time>2026-04-11T14:24:58Z</time></trkpt><trkpt lat="40.095328491489845" lon="9.551942083780155"><ele>692.6666666666666</ele><time>2026-04-11T14:24:59Z</time></trkpt><trkpt lat="40.09530723993834" lon="9.552234012531187"><ele>693.0</ele><time>2026-04-11T14:25:00Z</time></trkpt><trkpt lat="40.09527982502815" lon="9.552531116958088"><ele>693.0</ele><time>2026-04-11T14:25:01Z</time></trkpt><trkpt lat="40.095258067789544" lon="9.552788742047754"><ele>693.0</ele><time>2026-04-11T14:25:02Z</time></trkpt><trkpt lat="40.09526187357925" lon="9.553006418581104"><ele>693.0</ele><time>2026-04-11T14:25:03Z</time></trkpt><trkpt lat="40.09531645047856" lon="9.553170608351756"><ele>695.3333333333334</ele><time>2026-04-11T14:25:04Z</time></trkpt><trkpt lat="40.09542175338962" lon="9.553286475493644"><ele>697.6666666666667</ele><time>2026-04-11T14:25:05Z</time></trkpt><trkpt lat="40.09557359335357" lon="9.553353989861007"><ele>700.0</ele><time>2026-04-11T14:25:06Z</time></trkpt><trkpt lat="40.09574790159434" lon="9.55337126933281"><ele>699.3333333333334</ele><time>2026-04-11T14:25:07Z</time></trkpt><trkpt lat="40.09592555130573" lon="9.553414248165288"><ele>698.6666666666666</ele><time>2026-04-11T14:25:08Z</time></trkpt><trkpt lat="40.096093965591216" lon="9.55348491914502"><ele>698.0</ele><time>2026-04-11T14:25:09Z</time></trkpt><trkpt lat="40.09623316728625" lon="9.553590036802134"><ele>701.0</ele><time>2026-04-11T14:25:10Z</time></trkpt><trkpt lat="40.09634959443805" lon="9.553756495960702"><ele>704.0</ele><time>2026-04-11T14:25:11Z</time></trkpt><trkpt lat="40.09646075559189" lon="9.553957154205655"><ele>707.0</ele><time>2026-04-11T14:25:12Z</time></trkpt><trkpt lat="40.09658039785533" lon="9.55416496828402"><ele>707.3333333333333</ele><time>2026-04-11T14:25:13Z</time></trkpt><trkpt lat="40.09671534526077" lon="9.554381640297311"><ele>707.6666666666666</ele><time>2026-04-11T14:25:14Z</time></trkpt><trkpt lat="40.09685555346678" lon="9.554609112985323"><ele>708.0</ele><time>2026-04-11T14:25:15Z</time></trkpt><trkpt lat="40.09699201377513" lon="9.554850573066224"><ele>708.0</ele><time>2026-04-11T14:25:16Z</time></trkpt><trkpt lat="40.09710529381026" lon="9.55509384316514"><ele>708.0</ele><time>2026-04-11T14:25:17Z</time></trkpt><trkpt lat="40.09718123369811" lon="9.555341540370492"><ele>708.0</ele><time>2026-04-11T14:25:18Z</time></trkpt><trkpt lat="40.09721815486977" lon="9.55561628629105"><ele>710.5</ele><time>2026-04-11T14:25:19Z</time></trkpt><trkpt lat="40.097239387363814" lon="9.555924579217665"><ele>713.0</ele><time>2026-04-11T14:25:20Z</time></trkpt><trkpt lat="40.09725819157735" lon="9.556229288308607"><ele>715.5</ele><time>2026-04-11T14:25:21Z</time></trkpt><trkpt lat="40.09728884910141" lon="9.556546952441687"><ele>718.0</ele><time>2026-04-11T14:25:22Z</time></trkpt><trkpt lat="40.09731379702337" lon="9.556852693369693"><ele>717.6666666666667</ele><time>2026-04-11T14:25:23Z</time></trkpt><trkpt lat="40.097326775547785" lon="9.55714976921258"><ele>717.3333333333334</ele><time>2026-04-11T14:25:24Z</time></trkpt><trkpt lat="40.097309655648736" lon="9.557432023062642"><ele>717.0</ele><time>2026-04-11T14:25:25Z</time></trkpt><trkpt lat="40.09724830147533" lon="9.557714095015879"><ele>715.6666666666666</ele><time>2026-04-11T14:25:26Z</time></trkpt><trkpt lat="40.097147209138676" lon="9.557982887246862"><ele>714.3333333333333</ele><time>2026-04-11T14:25:27Z</time></trkpt><trkpt lat="40.09704470794301" lon="9.558230141884628"><ele>713.0</ele><time>2026-04-11T14:25:28Z</time></trkpt><trkpt lat="40.09696272186142" lon="9.558474507321916"><ele>713.6666666666666</ele><time>2026-04-11T14:25:29Z</time></trkpt><trkpt lat="40.096916141938756" lon="9.558707568339178"><ele>714.3333333333334</ele><time>2026-04-11T14:25:30Z</time></trkpt><trkpt lat="40.09693194228377" lon="9.558912717096995"><ele>715.0</ele><time>2026-04-11T14:25:31Z</time></trkpt><trkpt lat="40.097008880621544" lon="9.55911764547477"><ele>715.0</ele><time>2026-04-11T14:25:32Z</time></trkpt><trkpt lat="40.09711790797952" lon="9.559330399773724"><ele>715.0</ele><time>2026-04-11T14:25:33Z</time></trkpt><trkpt lat="40.097218086650116" lon="9.559553858333382"><ele>715.0</ele><time>2026-04-11T14:25:34Z</time></trkpt><trkpt lat="40.09729015831232" lon="9.559764597928705"><ele>717.0</ele><time>2026-04-11T14:25:35Z</time></trkpt><trkpt lat="40.09732209094557" lon="9.559982327674398"><ele>719.0</ele><time>2026-04-11T14:25:36Z</time></trkpt><trkpt lat="40.097303206209034" lon="9.560207693743305"><ele>721.0</ele><time>2026-04-11T14:25:37Z</time></trkpt><trkpt lat="40.09725717569751" lon="9.560422965940816"><ele>721.3333333333334</ele><time>2026-04-11T14:25:38Z</time></trkpt><trkpt lat="40.09725056008342" lon="9.560619407632373"><ele>721.6666666666666</ele><time>2026-04-11T14:25:39Z</time></trkpt><trkpt lat="40.09731130715164" lon="9.560802071905382"><ele>722.0</ele><time>2026-04-11T14:25:40Z</time></trkpt><trkpt lat="40.097421144600915" lon="9.56094034196877"><ele>720.3333333333333</ele><time>2026-04-11T14:25:41Z</time></trkpt><trkpt lat="40.09757130486293" lon="9.561007670776064"><ele>718.6666666666666</ele><time>2026-04-11T14:25:42Z</time></trkpt><trkpt lat="40.09775046402767" lon="9.561032477784615"><ele>717.0</ele><time>2026-04-11T14:25:43Z</time></trkpt><trkpt lat="40.097929595285" lon="9.561073071584014"><ele>717.0</ele><time>2026-04-11T14:25:44Z</time></trkpt><trkpt lat="40.09810573700589" lon="9.561129506141876"><ele>717.0</ele><time>2026-04-11T14:25:45Z</time></trkpt><trkpt lat="40.09825072069204" lon="9.561207148526307"><ele>717.0</ele><time>2026-04-11T14:25:46Z</time></trkpt><trkpt lat="40.09835749850793" lon="9.561332972522484"><ele>720.0</ele><time>2026-04-11T14:25:47Z</time></trkpt><trkpt lat="40.09841940090612" lon="9.561504399994108"><ele>723.0</ele><time>2026-04-11T14:25:48Z</time></trkpt><trkpt lat="40.09846085555047" lon="9.561716234174725"><ele>726.0</ele><time>2026-04-11T14:25:49Z</time></trkpt><trkpt lat="40.09851865486252" lon="9.561933007246884"><ele>727.3333333333334</ele><time>2026-04-11T14:25:50Z</time></trkpt><trkpt lat="40.09858656385245" lon="9.562145990177571"><ele>728.6666666666667</ele><time>2026-04-11T14:25:51Z</time></trkpt><trkpt lat="40.09862158879451" lon="9.5623353180584"><ele>730.0</ele><time>2026-04-11T14:25:52Z</time></trkpt><trkpt lat="40.09859858501473" lon="9.562514536039448"><ele>730.0</ele><time>2026-04-11T14:25:53Z</time></trkpt><trkpt lat="40.09852323604076" lon="9.562701203882186"><ele>730.0</ele><time>2026-04-11T14:25:54Z</time></trkpt><trkpt lat="40.09843987550714" lon="9.562898234962455"><ele>730.0</ele><time>2026-04-11T14:25:55Z</time></trkpt><trkpt lat="40.09836076195412" lon="9.563117633844971"><ele>729.0</ele><time>2026-04-11T14:25:56Z</time></trkpt><trkpt lat="40.098278038308486" lon="9.563354050900022"><ele>728.0</ele><time>2026-04-11T14:25:57Z</time></trkpt><trkpt lat="40.09818844811562" lon="9.563601885896668"><ele>727.0</ele><time>2026-04-11T14:25:58Z</time></trkpt><trkpt lat="40.09808994507992" lon="9.563852572499899"><ele>730.3333333333334</ele><time>2026-04-11T14:25:59Z</time></trkpt><trkpt lat="40.09799515813607" lon="9.564080377411395"><ele>733.6666666666666</ele><time>2026-04-11T14:26:00Z</time></trkpt><trkpt lat="40.097939323206305" lon="9.56427156946131"><ele>737.0</ele><time>2026-04-11T14:26:01Z</time></trkpt><trkpt lat="40.0979309111753" lon="9.564453237080919"><ele>736.5</ele><time>2026-04-11T14:26:02Z</time></trkpt><trkpt lat="40.09798556938007" lon="9.56460208805674"><ele>736.0</ele><time>2026-04-11T14:26:03Z</time></trkpt><trkpt lat="40.09810262826477" lon="9.564729797319863"><ele>735.5</ele><time>2026-04-11T14:26:04Z</time></trkpt><trkpt lat="40.0982560583566" lon="9.564825842593574"><ele>735.0</ele><time>2026-04-11T14:26:05Z</time></trkpt><trkpt lat="40.09841163162722" lon="9.564952337124552"><ele>735.0</ele><time>2026-04-11T14:26:06Z</time></trkpt><trkpt lat="40.098568192308434" lon="9.565114067888615"><ele>735.0</ele><time>2026-04-11T14:26:07Z</time></trkpt><trkpt lat="40.09871031217773" lon="9.565304167038295"><ele>735.0</ele><time>2026-04-11T14:26:08Z</time></trkpt><trkpt lat="40.098816632111145" lon="9.565528081077204"><ele>738.3333333333334</ele><time>2026-04-11T14:26:09Z</time></trkpt><trkpt lat="40.09889002518598" lon="9.56578129603706"><ele>741.6666666666667</ele><time>2026-04-11T14:26:10Z</time></trkpt><trkpt lat="40.09895752949031" lon="9.566019435688741"><ele>745.0</ele><time>2026-04-11T14:26:11Z</time></trkpt><trkpt lat="40.09904832786465" lon="9.566224715190073"><ele>744.3333333333334</ele><time>2026-04-11T14:26:12Z</time></trkpt><trkpt lat="40.099177348549375" lon="9.566374954867184"><ele>743.6666666666666</ele><time>2026-04-11T14:26:13Z</time></trkpt><trkpt lat="40.09934604450885" lon="9.56648295376209"><ele>743.0</ele><time>2026-04-11T14:26:14Z</time></trkpt><trkpt lat="40.0995108285241" lon="9.566600992615854"><ele>743.0</ele><time>2026-04-11T14:26:15Z</time></trkpt><trkpt lat="40.09963631326786" lon="9.566766328839947"><ele>743.0</ele><time>2026-04-11T14:26:16Z</time></trkpt><trkpt lat="40.0997270112368" lon="9.56698382597641"><ele>743.0</ele><time>2026-04-11T14:26:17Z</time></trkpt><trkpt lat="40.0997938235521" lon="9.567234076811062"><ele>745.3333333333333</ele><time>2026-04-11T14:26:18Z</time></trkpt><trkpt lat="40.09982647851373" lon="9.567486605732265"><ele>747.6666666666666</ele><time>2026-04-11T14:26:19Z</time></trkpt><trkpt lat="40.09982223714797" lon="9.567713886132708"><ele>750.0</ele><time>2026-04-11T14:26:20Z</time></trkpt><trkpt lat="40.09977225534945" lon="9.567914427788097"><ele>750.0</ele><time>2026-04-11T14:26:21Z</time></trkpt><trkpt lat="40.09967243245109" lon="9.56808762000397"><ele>750.0</ele><time>2026-04-11T14:26:22Z</time></trkpt><trkpt lat="40.099530907270456" lon="9.568218542548646"><ele>750.0</ele><time>2026-04-11T14:26:23Z</time></trkpt><trkpt lat="40.099364600430164" lon="9.568332793777136"><ele>750.0</ele><time>2026-04-11T14:26:24Z</time></trkpt><trkpt lat="40.09918907925622" lon="9.568465151471537"><ele>750.0</ele><time>2026-04-11T14:26:25Z</time></trkpt><trkpt lat="40.099008981041884" lon="9.568612448082654"><ele>750.0</ele><time>2026-04-11T14:26:26Z</time></trkpt><trkpt lat="40.09882125423658" lon="9.568754853694694"><ele>752.3333333333334</ele><time>2026-04-11T14:26:27Z</time></trkpt><trkpt lat="40.09864209629791" lon="9.568896862666445"><ele>754.6666666666667</ele><time>2026-04-11T14:26:28Z</time></trkpt><trkpt lat="40.09847104370776" lon="9.569068738046727"><ele>757.0</ele><time>2026-04-11T14:26:29Z</time></trkpt><trkpt lat="40.09832515954295" lon="9.569283524053382"><ele>762.0</ele><time>2026-04-11T14:26:30Z</time></trkpt><trkpt lat="40.098176628133345" lon="9.569537059297321"><ele>767.0</ele><time>2026-04-11T14:26:31Z</time></trkpt><trkpt lat="40.09803899132038" lon="9.569790168491288"><ele>767.0</ele><time>2026-04-11T14:26:32Z</time></trkpt><trkpt lat="40.0979041478205" lon="9.57003920081628"><ele>767.0</ele><time>2026-04-11T14:26:33Z</time></trkpt><trkpt lat="40.09778502764336" lon="9.570295651719912"><ele>760.0</ele><time>2026-04-11T14:26:34Z</time></trkpt><trkpt lat="40.09769954346248" lon="9.570572721929215"><ele>753.0</ele><time>2026-04-11T14:26:35Z</time></trkpt><trkpt lat="40.09763422805408" lon="9.570861269046793"><ele>753.0</ele><time>2026-04-11T14:26:36Z</time></trkpt><trkpt lat="40.09757072436446" lon="9.571135261697554"><ele>753.0</ele><time>2026-04-11T14:26:37Z</time></trkpt><trkpt lat="40.0975245990288" lon="9.57139350869303"><ele>753.0</ele><time>2026-04-11T14:26:38Z</time></trkpt><trkpt lat="40.09751014392886" lon="9.571641388542005"><ele>752.0</ele><time>2026-04-11T14:26:39Z</time></trkpt><trkpt lat="40.09753769726671" lon="9.571874320998273"><ele>751.0</ele><time>2026-04-11T14:26:40Z</time></trkpt><trkpt lat="40.09760692211712" lon="9.572076336443807"><ele>750.0</ele><time>2026-04-11T14:26:41Z</time></trkpt><trkpt lat="40.097677126363386" lon="9.57226132376146"><ele>750.0</ele><time>2026-04-11T14:26:42Z</time></trkpt><trkpt lat="40.09770502490067" lon="9.572461589458156"><ele>750.0</ele><time>2026-04-11T14:26:43Z</time></trkpt><trkpt lat="40.09769158114913" lon="9.572696921042336"><ele>750.0</ele><time>2026-04-11T14:26:44Z</time></trkpt><trkpt lat="40.09766076688502" lon="9.57294486461627"><ele>752.0</ele><time>2026-04-11T14:26:45Z</time></trkpt><trkpt lat="40.09762789008805" lon="9.573187227213795"><ele>754.0</ele><time>2026-04-11T14:26:46Z</time></trkpt><trkpt lat="40.097564177579585" lon="9.573399967286058"><ele>756.0</ele><time>2026-04-11T14:26:47Z</time></trkpt><trkpt lat="40.09745635613" lon="9.57358635828917"><ele>752.3333333333334</ele><time>2026-04-11T14:26:48Z</time></trkpt><trkpt lat="40.097323970999156" lon="9.573752609602558"><ele>748.6666666666667</ele><time>2026-04-11T14:26:49Z</time></trkpt><trkpt lat="40.09720719299311" lon="9.573902990528682"><ele>745.0</ele><time>2026-04-11T14:26:50Z</time></trkpt><trkpt lat="40.097139604071295" lon="9.574060271451604"><ele>745.0</ele><time>2026-04-11T14:26:51Z</time></trkpt><trkpt lat="40.097130814394305" lon="9.574215018245683"><ele>745.0</ele><time>2026-04-11T14:26:52Z</time></trkpt><trkpt lat="40.097186099646024" lon="9.574352329054026"><ele>745.0</ele><time>2026-04-11T14:26:53Z</time></trkpt><trkpt lat="40.09729550763156" lon="9.574452624383039"><ele>745.0</ele><time>2026-04-11T14:26:54Z</time></trkpt><trkpt lat="40.097435634447464" lon="9.574537793078516"><ele>746.6666666666667</ele><time>2026-04-11T14:26:55Z</time></trkpt><trkpt lat="40.0975959611944" lon="9.574618695286894"><ele>748.3333333333334</ele><time>2026-04-11T14:26:56Z</time></trkpt><trkpt lat="40.09776403003542" lon="9.574687718587763"><ele>750.0</ele><time>2026-04-11T14:26:57Z</time></trkpt><trkpt lat="40.09793767231349" lon="9.574747139094312"><ele>750.0</ele><time>2026-04-11T14:26:58Z</time></trkpt><trkpt lat="40.09811623396154" lon="9.574822226316808"><ele>750.0</ele><time>2026-04-11T14:26:59Z</time></trkpt><trkpt lat="40.09829221056731" lon="9.574921447835596"><ele>750.0</ele><time>2026-04-11T14:27:00Z</time></trkpt><trkpt lat="40.09846737379934" lon="9.575030376133201"><ele>752.0</ele><time>2026-04-11T14:27:01Z</time></trkpt><trkpt lat="40.0986262635731" lon="9.575132986333221"><ele>754.0</ele><time>2026-04-11T14:27:02Z</time></trkpt><trkpt lat="40.09876781111957" lon="9.575252244305265"><ele>756.0</ele><time>2026-04-11T14:27:03Z</time></trkpt><trkpt lat="40.09889294365456" lon="9.575416904996805"><ele>756.0</ele><time>2026-04-11T14:27:04Z</time></trkpt><trkpt lat="40.09899672606226" lon="9.575617524078568"><ele>756.0</ele><time>2026-04-11T14:27:05Z</time></trkpt><trkpt lat="40.09908525206841" lon="9.575821511385953"><ele>756.0</ele><time>2026-04-11T14:27:06Z</time></trkpt><trkpt lat="40.09917622244384" lon="9.575990558241177"><ele>760.0</ele><time>2026-04-11T14:27:07Z</time></trkpt><trkpt lat="40.099304906369134" lon="9.576130214365898"><ele>764.0</ele><time>2026-04-11T14:27:08Z</time></trkpt><trkpt lat="40.099455000866485" lon="9.576233441230924"><ele>768.0</ele><time>2026-04-11T14:27:09Z</time></trkpt><trkpt lat="40.099611371734895" lon="9.576290984028024"><ele>769.6666666666667</ele><time>2026-04-11T14:27:10Z</time></trkpt><trkpt lat="40.099781511418264" lon="9.576281758644464"><ele>771.3333333333334</ele><time>2026-04-11T14:27:11Z</time></trkpt><trkpt lat="40.09996040842515" lon="9.576219105866825"><ele>773.0</ele><time>2026-04-11T14:27:12Z</time></trkpt><trkpt lat="40.10014865409282" lon="9.57617574261056"><ele>773.0</ele><time>2026-04-11T14:27:13Z</time></trkpt><trkpt lat="40.10034658615448" lon="9.576122729462378"><ele>773.0</ele><time>2026-04-11T14:27:14Z</time></trkpt><trkpt lat="40.10054337592129" lon="9.576099326222678"><ele>773.0</ele><time>2026-04-11T14:27:15Z</time></trkpt><trkpt lat="40.10072051832075" lon="9.576080670909587"><ele>772.4</ele><time>2026-04-11T14:27:16Z</time></trkpt><trkpt lat="40.10087464864523" lon="9.576065008322406"><ele>771.8</ele><time>2026-04-11T14:27:17Z</time></trkpt><trkpt lat="40.100990921628984" lon="9.576040681095447"><ele>771.2</ele><time>2026-04-11T14:27:18Z</time></trkpt><trkpt lat="40.10107434102175" lon="9.576080728245575"><ele>770.6</ele><time>2026-04-11T14:27:19Z</time></trkpt><trkpt lat="40.1011179166629" lon="9.57617130761684"><ele>770.0</ele><time>2026-04-11T14:27:20Z</time></trkpt><trkpt lat="40.101106671567464" lon="9.576299965687262"><ele>766.75</ele><time>2026-04-11T14:27:21Z</time></trkpt><trkpt lat="40.10104479340309" lon="9.576441442172115"><ele>763.5</ele><time>2026-04-11T14:27:22Z</time></trkpt><trkpt lat="40.10097597544862" lon="9.57658458561585"><ele>760.25</ele><time>2026-04-11T14:27:23Z</time></trkpt><trkpt lat="40.10093195609555" lon="9.57675995376963"><ele>757.0</ele><time>2026-04-11T14:27:24Z</time></trkpt><trkpt lat="40.10092371463164" lon="9.576963695126276"><ele>752.0</ele><time>2026-04-11T14:27:25Z</time></trkpt><trkpt lat="40.100945849830865" lon="9.577173106439897"><ele>747.0</ele><time>2026-04-11T14:27:26Z</time></trkpt><trkpt lat="40.10098808202788" lon="9.577367117319596"><ele>742.0</ele><time>2026-04-11T14:27:27Z</time></trkpt><trkpt lat="40.101069826689454" lon="9.577532130763725"><ele>742.0</ele><time>2026-04-11T14:27:28Z</time></trkpt><trkpt lat="40.10119555775934" lon="9.577665224009335"><ele>742.0</ele><time>2026-04-11T14:27:29Z</time></trkpt><trkpt lat="40.10133811399064" lon="9.577767562001306"><ele>742.0</ele><time>2026-04-11T14:27:30Z</time></trkpt><trkpt lat="40.10148895580718" lon="9.577845835697081"><ele>742.5</ele><time>2026-04-11T14:27:31Z</time></trkpt><trkpt lat="40.10163577823284" lon="9.57791035574577"><ele>743.0</ele><time>2026-04-11T14:27:32Z</time></trkpt><trkpt lat="40.101767004681165" lon="9.577995394067068"><ele>743.5</ele><time>2026-04-11T14:27:33Z</time></trkpt><trkpt lat="40.10186400686294" lon="9.578125711685068"><ele>744.0</ele><time>2026-04-11T14:27:34Z</time></trkpt><trkpt lat="40.101921736644336" lon="9.578292451189578"><ele>744.0</ele><time>2026-04-11T14:27:35Z</time></trkpt><trkpt lat="40.10194320852584" lon="9.578494267486724"><ele>744.0</ele><time>2026-04-11T14:27:36Z</time></trkpt><trkpt lat="40.101928587665725" lon="9.578722703809287"><ele>744.0</ele><time>2026-04-11T14:27:37Z</time></trkpt><trkpt lat="40.10187930721562" lon="9.57893537793561"><ele>740.6666666666666</ele><time>2026-04-11T14:27:38Z</time></trkpt><trkpt lat="40.101826695748755" lon="9.579152893484874"><ele>737.3333333333333</ele><time>2026-04-11T14:27:39Z</time></trkpt><trkpt lat="40.10180097865106" lon="9.579372297704749"><ele>734.0</ele><time>2026-04-11T14:27:40Z</time></trkpt><trkpt lat="40.10181774070074" lon="9.579605249440522"><ele>731.0</ele><time>2026-04-11T14:27:41Z</time></trkpt><trkpt lat="40.10186840112902" lon="9.579832282087665"><ele>728.0</ele><time>2026-04-11T14:27:42Z</time></trkpt><trkpt lat="40.10193989983605" lon="9.580015354052966"><ele>725.0</ele><time>2026-04-11T14:27:43Z</time></trkpt><trkpt lat="40.102017624833834" lon="9.580135307988874"><ele>725.0</ele><time>2026-04-11T14:27:44Z</time></trkpt><trkpt lat="40.102114709909266" lon="9.580196906869409"><ele>725.0</ele><time>2026-04-11T14:27:45Z</time></trkpt><trkpt lat="40.102237149500326" lon="9.580190540146102"><ele>725.0</ele><time>2026-04-11T14:27:46Z</time></trkpt><trkpt lat="40.10236997707526" lon="9.58012699741969"><ele>725.0</ele><time>2026-04-11T14:27:47Z</time></trkpt><trkpt lat="40.1025168335205" lon="9.58006560001385"><ele>731.3333333333333</ele><time>2026-04-11T14:27:48Z</time></trkpt><trkpt lat="40.10268102269097" lon="9.58003897423898"><ele>737.6666666666666</ele><time>2026-04-11T14:27:49Z</time></trkpt><trkpt lat="40.10285980400538" lon="9.580021688673455"><ele>744.0</ele><time>2026-04-11T14:27:50Z</time></trkpt><trkpt lat="40.10304520631946" lon="9.579987151188623"><ele>744.0</ele><time>2026-04-11T14:27:51Z</time></trkpt><trkpt lat="40.103233194823034" lon="9.579935062577675"><ele>744.0</ele><time>2026-04-11T14:27:52Z</time></trkpt><trkpt lat="40.10342342151278" lon="9.57993859129975"><ele>744.0</ele><time>2026-04-11T14:27:53Z</time></trkpt><trkpt lat="40.103613212692004" lon="9.579949245233113"><ele>742.3333333333334</ele><time>2026-04-11T14:27:54Z</time></trkpt><trkpt lat="40.103792092685765" lon="9.579985692384108"><ele>740.6666666666667</ele><time>2026-04-11T14:27:55Z</time></trkpt><trkpt lat="40.10395590061709" lon="9.580057125042822"><ele>739.0</ele><time>2026-04-11T14:27:56Z</time></trkpt><trkpt lat="40.10411670026984" lon="9.580123835305233"><ele>741.75</ele><time>2026-04-11T14:27:57Z</time></trkpt><trkpt lat="40.10423496759921" lon="9.58024575734422"><ele>744.5</ele><time>2026-04-11T14:27:58Z</time></trkpt><trkpt lat="40.104315139883" lon="9.580412163187649"><ele>747.25</ele><time>2026-04-11T14:27:59Z</time></trkpt><trkpt lat="40.10437677601453" lon="9.580581424051227"><ele>750.0</ele><time>2026-04-11T14:28:00Z</time></trkpt><trkpt lat="40.10447092272905" lon="9.580718822532274"><ele>741.3333333333334</ele><time>2026-04-11T14:28:01Z</time></trkpt><trkpt lat="40.1046103563258" lon="9.58080932616267"><ele>732.6666666666667</ele><time>2026-04-11T14:28:02Z</time></trkpt><trkpt lat="40.104759992014756" lon="9.580869779903573"><ele>724.0</ele><time>2026-04-11T14:28:03Z</time></trkpt><trkpt lat="40.1049005268106" lon="9.58092771780576"><ele>725.0</ele><time>2026-04-11T14:28:04Z</time></trkpt><trkpt lat="40.10503430827614" lon="9.580973665924986"><ele>726.0</ele><time>2026-04-11T14:28:05Z</time></trkpt><trkpt lat="40.10515180830453" lon="9.58101231432554"><ele>727.0</ele><time>2026-04-11T14:28:06Z</time></trkpt><trkpt lat="40.105226960833285" lon="9.581109799231614"><ele>728.0</ele><time>2026-04-11T14:28:07Z</time></trkpt><trkpt lat="40.105246218248936" lon="9.581249943682922"><ele>728.0</ele><time>2026-04-11T14:28:08Z</time></trkpt><trkpt lat="40.10522029359369" lon="9.581418201544276"><ele>728.0</ele><time>2026-04-11T14:28:09Z</time></trkpt><trkpt lat="40.105175282537246" lon="9.58160674495376"><ele>728.0</ele><time>2026-04-11T14:28:10Z</time></trkpt><trkpt lat="40.10513607309302" lon="9.581817744820578"><ele>728.0</ele><time>2026-04-11T14:28:11Z</time></trkpt><trkpt lat="40.105077177066846" lon="9.58201966578538"><ele>732.0</ele><time>2026-04-11T14:28:12Z</time></trkpt><trkpt lat="40.10496489134052" lon="9.582187964593441"><ele>736.0</ele><time>2026-04-11T14:28:13Z</time></trkpt><trkpt lat="40.10482995057309" lon="9.582353729488215"><ele>740.0</ele><time>2026-04-11T14:28:14Z</time></trkpt><trkpt lat="40.10471151681059" lon="9.582503056136467"><ele>733.0</ele><time>2026-04-11T14:28:15Z</time></trkpt><trkpt lat="40.10458853521131" lon="9.582584846788768"><ele>726.0</ele><time>2026-04-11T14:28:16Z</time></trkpt><trkpt lat="40.10445401717083" lon="9.582550268670229"><ele>719.0</ele><time>2026-04-11T14:28:17Z</time></trkpt><trkpt lat="40.10433917283881" lon="9.582594955373027"><ele>712.0</ele><time>2026-04-11T14:28:18Z</time></trkpt><trkpt lat="40.104220025034174" lon="9.582701912281829"><ele>712.0</ele><time>2026-04-11T14:28:19Z</time></trkpt><trkpt lat="40.10409580290479" lon="9.582844098684243"><ele>712.0</ele><time>2026-04-11T14:28:20Z</time></trkpt><trkpt lat="40.1039603100993" lon="9.582988291093764"><ele>712.0</ele><time>2026-04-11T14:28:21Z</time></trkpt><trkpt lat="40.103813642811815" lon="9.583137498122284"><ele>711.0</ele><time>2026-04-11T14:28:22Z</time></trkpt><trkpt lat="40.10365631462591" lon="9.58328858165478"><ele>710.0</ele><time>2026-04-11T14:28:23Z</time></trkpt><trkpt lat="40.10349703738306" lon="9.583427237913025"><ele>709.0</ele><time>2026-04-11T14:28:24Z</time></trkpt><trkpt lat="40.103347694210946" lon="9.583551174227686"><ele>702.0</ele><time>2026-04-11T14:28:25Z</time></trkpt><trkpt lat="40.10322191301044" lon="9.583667892441001"><ele>695.0</ele><time>2026-04-11T14:28:26Z</time></trkpt><trkpt lat="40.10313531677678" lon="9.583803086858191"><ele>688.0</ele><time>2026-04-11T14:28:27Z</time></trkpt><trkpt lat="40.10310214668503" lon="9.583972169163541"><ele>681.0</ele><time>2026-04-11T14:28:28Z</time></trkpt><trkpt lat="40.10312445687558" lon="9.584144765902018"><ele>681.0</ele><time>2026-04-11T14:28:29Z</time></trkpt><trkpt lat="40.10320140855194" lon="9.584301891264493"><ele>681.0</ele><time>2026-04-11T14:28:30Z</time></trkpt><trkpt lat="40.10331990251887" lon="9.584442169512622"><ele>681.0</ele><time>2026-04-11T14:28:31Z</time></trkpt><trkpt lat="40.103465111482755" lon="9.584541102083705"><ele>683.6666666666666</ele><time>2026-04-11T14:28:32Z</time></trkpt><trkpt lat="40.10360559014773" lon="9.584652188032315"><ele>686.3333333333333</ele><time>2026-04-11T14:28:33Z</time></trkpt><trkpt lat="40.10372393776668" lon="9.584802984338353"><ele>689.0</ele><time>2026-04-11T14:28:34Z</time></trkpt><trkpt lat="40.10381440640284" lon="9.584967032717483"><ele>689.0</ele><time>2026-04-11T14:28:35Z</time></trkpt><trkpt lat="40.103869388242295" lon="9.585172295878067"><ele>689.0</ele><time>2026-04-11T14:28:36Z</time></trkpt><trkpt lat="40.1039013058284" lon="9.585394559210409"><ele>689.0</ele><time>2026-04-11T14:28:37Z</time></trkpt><trkpt lat="40.103899992238134" lon="9.58559198375861"><ele>685.25</ele><time>2026-04-11T14:28:38Z</time></trkpt><trkpt lat="40.10384615039326" lon="9.585750774563932"><ele>681.5</ele><time>2026-04-11T14:28:39Z</time></trkpt><trkpt lat="40.103758259273256" lon="9.585870143527771"><ele>677.75</ele><time>2026-04-11T14:28:40Z</time></trkpt><trkpt lat="40.103692708571046" lon="9.585990027904199"><ele>674.0</ele><time>2026-04-11T14:28:41Z</time></trkpt><trkpt lat="40.10369882558663" lon="9.586131268737573"><ele>673.75</ele><time>2026-04-11T14:28:42Z</time></trkpt><trkpt lat="40.10376694946414" lon="9.586283562286008"><ele>673.5</ele><time>2026-04-11T14:28:43Z</time></trkpt><trkpt lat="40.103841497790185" lon="9.586443054791703"><ele>673.25</ele><time>2026-04-11T14:28:44Z</time></trkpt><trkpt lat="40.1038628217666" lon="9.58664407284893"><ele>673.0</ele><time>2026-04-11T14:28:45Z</time></trkpt><trkpt lat="40.1038350097997" lon="9.586853810855544"><ele>674.0</ele><time>2026-04-11T14:28:46Z</time></trkpt><trkpt lat="40.10375641144935" lon="9.587046573470378"><ele>675.0</ele><time>2026-04-11T14:28:47Z</time></trkpt><trkpt lat="40.103672428698005" lon="9.587219034037087"><ele>676.0</ele><time>2026-04-11T14:28:48Z</time></trkpt><trkpt lat="40.10362713640721" lon="9.58739723576537"><ele>676.0</ele><time>2026-04-11T14:28:49Z</time></trkpt><trkpt lat="40.10364108818838" lon="9.587573980908681"><ele>676.0</ele><time>2026-04-11T14:28:50Z</time></trkpt><trkpt lat="40.10371126919984" lon="9.587745756783388"><ele>676.0</ele><time>2026-04-11T14:28:51Z</time></trkpt><trkpt lat="40.10378770791537" lon="9.58790432058892"><ele>676.0</ele><time>2026-04-11T14:28:52Z</time></trkpt><trkpt lat="40.103804332592496" lon="9.588073531798283"><ele>675.3333333333334</ele><time>2026-04-11T14:28:53Z</time></trkpt><trkpt lat="40.103760649557515" lon="9.58826391373414"><ele>674.6666666666666</ele><time>2026-04-11T14:28:54Z</time></trkpt><trkpt lat="40.1036877830042" lon="9.588460717419538"><ele>674.0</ele><time>2026-04-11T14:28:55Z</time></trkpt><trkpt lat="40.1036335518028" lon="9.588678418102933"><ele>676.3333333333333</ele><time>2026-04-11T14:28:56Z</time></trkpt><trkpt lat="40.10363811606324" lon="9.58890429112936"><ele>678.6666666666666</ele><time>2026-04-11T14:28:57Z</time></trkpt><trkpt lat="40.10366393884713" lon="9.589111800214715"><ele>681.0</ele><time>2026-04-11T14:28:58Z</time></trkpt><trkpt lat="40.103650531600834" lon="9.589310108053029"><ele>681.0</ele><time>2026-04-11T14:28:59Z</time></trkpt><trkpt lat="40.10357648342788" lon="9.589494557697435"><ele>681.0</ele><time>2026-04-11T14:29:00Z</time></trkpt><trkpt lat="40.10345887979529" lon="9.589679209411477"><ele>681.0</ele><time>2026-04-11T14:29:01Z</time></trkpt><trkpt lat="40.10332644222655" lon="9.58987264673276"><ele>682.0</ele><time>2026-04-11T14:29:02Z</time></trkpt><trkpt lat="40.10319216841541" lon="9.59008765155107"><ele>683.0</ele><time>2026-04-11T14:29:03Z</time></trkpt><trkpt lat="40.10306332886285" lon="9.590314586298064"><ele>684.0</ele><time>2026-04-11T14:29:04Z</time></trkpt><trkpt lat="40.10293148450012" lon="9.590543768978273"><ele>684.0</ele><time>2026-04-11T14:29:05Z</time></trkpt><trkpt lat="40.10279199269306" lon="9.590761896406105"><ele>684.0</ele><time>2026-04-11T14:29:06Z</time></trkpt><trkpt lat="40.102645632788914" lon="9.5909496251316"><ele>684.0</ele><time>2026-04-11T14:29:07Z</time></trkpt><trkpt lat="40.10250663102078" lon="9.591118542111358"><ele>680.0</ele><time>2026-04-11T14:29:08Z</time></trkpt><trkpt lat="40.10240389023257" lon="9.59129531906297"><ele>676.0</ele><time>2026-04-11T14:29:09Z</time></trkpt><trkpt lat="40.10234262892292" lon="9.591487628077507"><ele>672.0</ele><time>2026-04-11T14:29:10Z</time></trkpt><trkpt lat="40.102262174518344" lon="9.591642982184684"><ele>672.0</ele><time>2026-04-11T14:29:11Z</time></trkpt><trkpt lat="40.1021313125816" lon="9.591763416203325"><ele>672.0</ele><time>2026-04-11T14:29:12Z</time></trkpt><trkpt lat="40.10197092862443" lon="9.591857293466996"><ele>672.0</ele><time>2026-04-11T14:29:13Z</time></trkpt><trkpt lat="40.101817747465006" lon="9.59199692394797"><ele>669.0</ele><time>2026-04-11T14:29:14Z</time></trkpt><trkpt lat="40.101689035307885" lon="9.592200111536144"><ele>666.0</ele><time>2026-04-11T14:29:15Z</time></trkpt><trkpt lat="40.10155566152447" lon="9.59242214217484"><ele>663.0</ele><time>2026-04-11T14:29:16Z</time></trkpt><trkpt lat="40.10141470909954" lon="9.592649249270012"><ele>678.0</ele><time>2026-04-11T14:29:17Z</time></trkpt><trkpt lat="40.10126372231206" lon="9.59288009169232"><ele>693.0</ele><time>2026-04-11T14:29:18Z</time></trkpt><trkpt lat="40.10110872427968" lon="9.593116477055482"><ele>693.0</ele><time>2026-04-11T14:29:19Z</time></trkpt><trkpt lat="40.10095488534666" lon="9.59334772546605"><ele>693.0</ele><time>2026-04-11T14:29:20Z</time></trkpt><trkpt lat="40.10079608220646" lon="9.59356527512207"><ele>693.5</ele><time>2026-04-11T14:29:21Z</time></trkpt><trkpt lat="40.10061492940282" lon="9.593763087389506"><ele>694.0</ele><time>2026-04-11T14:29:22Z</time></trkpt><trkpt lat="40.100411742222754" lon="9.593932821959246"><ele>694.0</ele><time>2026-04-11T14:29:23Z</time></trkpt><trkpt lat="40.10020152423415" lon="9.594077512703485"><ele>694.0</ele><time>2026-04-11T14:29:24Z</time></trkpt><trkpt lat="40.099998898289925" lon="9.59422954341531"><ele>700.0</ele><time>2026-04-11T14:29:25Z</time></trkpt><trkpt lat="40.09977157905557" lon="9.594379267506577"><ele>706.0</ele><time>2026-04-11T14:29:26Z</time></trkpt><trkpt lat="40.099536451056295" lon="9.594527513181461"><ele>706.0</ele><time>2026-04-11T14:29:27Z</time></trkpt><trkpt lat="40.09931146461745" lon="9.594674641385811"><ele>706.0</ele><time>2026-04-11T14:29:28Z</time></trkpt><trkpt lat="40.099110443166666" lon="9.59483173164303"><ele>700.6666666666667</ele><time>2026-04-11T14:29:29Z</time></trkpt><trkpt lat="40.098929405400476" lon="9.59499251829907"><ele>695.3333333333334</ele><time>2026-04-11T14:29:30Z</time></trkpt><trkpt lat="40.09877601703292" lon="9.595180456588672"><ele>690.0</ele><time>2026-04-11T14:29:31Z</time></trkpt><trkpt lat="40.09864090124856" lon="9.595408869596307"><ele>690.0</ele><time>2026-04-11T14:29:32Z</time></trkpt><trkpt lat="40.0985347680429" lon="9.595663807341907"><ele>690.0</ele><time>2026-04-11T14:29:33Z</time></trkpt><trkpt lat="40.09844432678239" lon="9.595903812649022"><ele>690.0</ele><time>2026-04-11T14:29:34Z</time></trkpt><trkpt lat="40.098350752043544" lon="9.596113699896195"><ele>695.0</ele><time>2026-04-11T14:29:35Z</time></trkpt><trkpt lat="40.09823921334229" lon="9.596281717083913"><ele>700.0</ele><time>2026-04-11T14:29:36Z</time></trkpt><trkpt lat="40.098118327977765" lon="9.59639670214861"><ele>705.0</ele><time>2026-04-11T14:29:37Z</time></trkpt><trkpt lat="40.09795412476999" lon="9.596444733090763"><ele>705.0</ele><time>2026-04-11T14:29:38Z</time></trkpt><trkpt lat="40.097770873683416" lon="9.596442920174137"><ele>705.0</ele><time>2026-04-11T14:29:39Z</time></trkpt><trkpt lat="40.097560875441665" lon="9.596417153038718"><ele>705.0</ele><time>2026-04-11T14:29:40Z</time></trkpt><trkpt lat="40.09734383585498" lon="9.5964130093335"><ele>707.0</ele><time>2026-04-11T14:29:41Z</time></trkpt><trkpt lat="40.097122465127384" lon="9.596425594810013"><ele>709.0</ele><time>2026-04-11T14:29:42Z</time></trkpt><trkpt lat="40.09688013264595" lon="9.596424904999983"><ele>709.0</ele><time>2026-04-11T14:29:43Z</time></trkpt><trkpt lat="40.096627139259226" lon="9.596417653080916"><ele>709.0</ele><time>2026-04-11T14:29:44Z</time></trkpt><trkpt lat="40.09636491349046" lon="9.59641134348894"><ele>710.0</ele><time>2026-04-11T14:29:45Z</time></trkpt><trkpt lat="40.096113514372135" lon="9.596391281348668"><ele>711.0</ele><time>2026-04-11T14:29:46Z</time></trkpt><trkpt lat="40.09587330090768" lon="9.59635259859251"><ele>710.5</ele><time>2026-04-11T14:29:47Z</time></trkpt><trkpt lat="40.09564620935829" lon="9.596315083089973"><ele>710.0</ele><time>2026-04-11T14:29:48Z</time></trkpt><trkpt lat="40.09542112080494" lon="9.596308176414"><ele>710.0</ele><time>2026-04-11T14:29:49Z</time></trkpt><trkpt lat="40.09517691407849" lon="9.596339188091079"><ele>710.0</ele><time>2026-04-11T14:29:50Z</time></trkpt><trkpt lat="40.094920853761316" lon="9.596407616788486"><ele>701.0</ele><time>2026-04-11T14:29:51Z</time></trkpt><trkpt lat="40.09465599800215" lon="9.596488649688258"><ele>692.0</ele><time>2026-04-11T14:29:52Z</time></trkpt><trkpt lat="40.0944014228259" lon="9.596563602395657"><ele>692.0</ele><time>2026-04-11T14:29:53Z</time></trkpt><trkpt lat="40.09416903190757" lon="9.596642203982352"><ele>692.0</ele><time>2026-04-11T14:29:54Z</time></trkpt><trkpt lat="40.09396418445765" lon="9.596721895199247"><ele>694.0</ele><time>2026-04-11T14:29:55Z</time></trkpt><trkpt lat="40.093765853653785" lon="9.5968567061221"><ele>696.0</ele><time>2026-04-11T14:29:56Z</time></trkpt><trkpt lat="40.093578084953535" lon="9.597040604303556"><ele>696.0</ele><time>2026-04-11T14:29:57Z</time></trkpt><trkpt lat="40.0933939873032" lon="9.597272274418906"><ele>696.0</ele><time>2026-04-11T14:29:58Z</time></trkpt><trkpt lat="40.09321833213595" lon="9.597500581333108"><ele>697.0</ele><time>2026-04-11T14:29:59Z</time></trkpt><trkpt lat="40.09305029668899" lon="9.597698746451945"><ele>698.0</ele><time>2026-04-11T14:30:00Z</time></trkpt><trkpt lat="40.09287580163124" lon="9.597878763229623"><ele>699.0</ele><time>2026-04-11T14:30:01Z</time></trkpt><trkpt lat="40.09267309991318" lon="9.598037738594854"><ele>699.0</ele><time>2026-04-11T14:30:02Z</time></trkpt><trkpt lat="40.092448356175524" lon="9.598166669823277"><ele>699.0</ele><time>2026-04-11T14:30:03Z</time></trkpt><trkpt lat="40.092214161797926" lon="9.598310824464667"><ele>685.0</ele><time>2026-04-11T14:30:04Z</time></trkpt><trkpt lat="40.09198393798402" lon="9.598467670365725"><ele>671.0</ele><time>2026-04-11T14:30:05Z</time></trkpt><trkpt lat="40.091764298477706" lon="9.598620627030268"><ele>682.5</ele><time>2026-04-11T14:30:06Z</time></trkpt><trkpt lat="40.09155031709898" lon="9.598768076270941"><ele>694.0</ele><time>2026-04-11T14:30:07Z</time></trkpt><trkpt lat="40.09133660927426" lon="9.598911138468816"><ele>694.0</ele><time>2026-04-11T14:30:08Z</time></trkpt><trkpt lat="40.09111855223227" lon="9.599040730443066"><ele>694.0</ele><time>2026-04-11T14:30:09Z</time></trkpt><trkpt lat="40.090897401539344" lon="9.599131534279167"><ele>684.0</ele><time>2026-04-11T14:30:10Z</time></trkpt><trkpt lat="40.09066241907318" lon="9.59917827138787"><ele>674.0</ele><time>2026-04-11T14:30:11Z</time></trkpt><trkpt lat="40.09044038141511" lon="9.599235083619297"><ele>674.0</ele><time>2026-04-11T14:30:12Z</time></trkpt><trkpt lat="40.090239008397006" lon="9.599345163553755"><ele>674.0</ele><time>2026-04-11T14:30:13Z</time></trkpt><trkpt lat="40.09004335417021" lon="9.599524353779199"><ele>670.5</ele><time>2026-04-11T14:30:14Z</time></trkpt><trkpt lat="40.08986234252307" lon="9.599744733907807"><ele>667.0</ele><time>2026-04-11T14:30:15Z</time></trkpt><trkpt lat="40.08969246766434" lon="9.600004819803893"><ele>667.0</ele><time>2026-04-11T14:30:16Z</time></trkpt><trkpt lat="40.08950901538196" lon="9.600243700960808"><ele>667.0</ele><time>2026-04-11T14:30:17Z</time></trkpt><trkpt lat="40.089301106219665" lon="9.60045860973673"><ele>667.0</ele><time>2026-04-11T14:30:18Z</time></trkpt><trkpt lat="40.08907650794981" lon="9.600651056811797"><ele>667.0</ele><time>2026-04-11T14:30:19Z</time></trkpt><trkpt lat="40.08885080931579" lon="9.600869470749513"><ele>667.0</ele><time>2026-04-11T14:30:20Z</time></trkpt><trkpt lat="40.088624079644894" lon="9.601088435611485"><ele>667.0</ele><time>2026-04-11T14:30:21Z</time></trkpt><trkpt lat="40.08840252996848" lon="9.601306826553207"><ele>663.5</ele><time>2026-04-11T14:30:22Z</time></trkpt><trkpt lat="40.08818389337588" lon="9.601520954960671"><ele>660.0</ele><time>2026-04-11T14:30:23Z</time></trkpt><trkpt lat="40.08796856727378" lon="9.601731692456"><ele>660.0</ele><time>2026-04-11T14:30:24Z</time></trkpt><trkpt lat="40.08775838898919" lon="9.601944084539454"><ele>660.0</ele><time>2026-04-11T14:30:25Z</time></trkpt><trkpt lat="40.08755929889172" lon="9.60214590337145"><ele>661.5</ele><time>2026-04-11T14:30:26Z</time></trkpt><trkpt lat="40.0873683341339" lon="9.602325981744325"><ele>663.0</ele><time>2026-04-11T14:30:27Z</time></trkpt><trkpt lat="40.087199501173025" lon="9.602505294342418"><ele>663.0</ele><time>2026-04-11T14:30:28Z</time></trkpt><trkpt lat="40.08702199704387" lon="9.602666499490132"><ele>663.0</ele><time>2026-04-11T14:30:29Z</time></trkpt><trkpt lat="40.086844494845394" lon="9.602822014385847"><ele>663.0</ele><time>2026-04-11T14:30:30Z</time></trkpt><trkpt lat="40.086664308074944" lon="9.602922418919768"><ele>662.2</ele><time>2026-04-11T14:30:31Z</time></trkpt><trkpt lat="40.08651877584415" lon="9.602986921994324"><ele>661.4</ele><time>2026-04-11T14:30:32Z</time></trkpt><trkpt lat="40.08641722576878" lon="9.603002767672939"><ele>660.6</ele><time>2026-04-11T14:30:33Z</time></trkpt><trkpt lat="40.086354513292314" lon="9.60294498417141"><ele>659.8000000000001</ele><time>2026-04-11T14:30:34Z</time></trkpt><trkpt lat="40.08629161867969" lon="9.602839571830774"><ele>659.0</ele><time>2026-04-11T14:30:35Z</time></trkpt><trkpt lat="40.08620159228362" lon="9.602745674977777"><ele>659.0</ele><time>2026-04-11T14:30:36Z</time></trkpt><trkpt lat="40.086073855803235" lon="9.602700121355008"><ele>659.0</ele><time>2026-04-11T14:30:37Z</time></trkpt><trkpt lat="40.08592436581866" lon="9.602693204006563"><ele>659.0</ele><time>2026-04-11T14:30:38Z</time></trkpt><trkpt lat="40.085778853348174" lon="9.602750647231282"><ele>659.0</ele><time>2026-04-11T14:30:39Z</time></trkpt><trkpt lat="40.085634596926916" lon="9.60286655961576"><ele>671.0</ele><time>2026-04-11T14:30:40Z</time></trkpt><trkpt lat="40.08547640954695" lon="9.602952868094237"><ele>683.0</ele><time>2026-04-11T14:30:41Z</time></trkpt><trkpt lat="40.085312314321364" lon="9.602975728844378"><ele>695.0</ele><time>2026-04-11T14:30:42Z</time></trkpt><trkpt lat="40.08515553385798" lon="9.60293798845858"><ele>695.0</ele><time>2026-04-11T14:30:43Z</time></trkpt><trkpt lat="40.08500106135044" lon="9.602842130285786"><ele>695.0</ele><time>2026-04-11T14:30:44Z</time></trkpt><trkpt lat="40.084831896266614" lon="9.6027322818636"><ele>695.0</ele><time>2026-04-11T14:30:45Z</time></trkpt><trkpt lat="40.08464580745477" lon="9.60262291916776"><ele>688.0</ele><time>2026-04-11T14:30:46Z</time></trkpt><trkpt lat="40.08446274071985" lon="9.602529397737033"><ele>681.0</ele><time>2026-04-11T14:30:47Z</time></trkpt><trkpt lat="40.0842974279596" lon="9.602459897949817"><ele>674.0</ele><time>2026-04-11T14:30:48Z</time></trkpt><trkpt lat="40.084160108138605" lon="9.602397515977561"><ele>671.0</ele><time>2026-04-11T14:30:49Z</time></trkpt><trkpt lat="40.08405405048613" lon="9.602286168321386"><ele>668.0</ele><time>2026-04-11T14:30:50Z</time></trkpt><trkpt lat="40.08396940367111" lon="9.60211364513924"><ele>665.0</ele><time>2026-04-11T14:30:51Z</time></trkpt><trkpt lat="40.083883181776905" lon="9.601936171551245"><ele>662.5</ele><time>2026-04-11T14:30:52Z</time></trkpt><trkpt lat="40.08379483573242" lon="9.601788661062804"><ele>660.0</ele><time>2026-04-11T14:30:53Z</time></trkpt><trkpt lat="40.08368320063921" lon="9.601694789173719"><ele>657.5</ele><time>2026-04-11T14:30:54Z</time></trkpt><trkpt lat="40.08354317202352" lon="9.60165239874343"><ele>655.0</ele><time>2026-04-11T14:30:55Z</time></trkpt><trkpt lat="40.083400691946515" lon="9.601673161924692"><ele>655.0</ele><time>2026-04-11T14:30:56Z</time></trkpt><trkpt lat="40.08327213955691" lon="9.601773823929271"><ele>655.0</ele><time>2026-04-11T14:30:57Z</time></trkpt><trkpt lat="40.08314805736705" lon="9.601886392363218"><ele>655.0</ele><time>2026-04-11T14:30:58Z</time></trkpt><trkpt lat="40.08300825821249" lon="9.60195381251819"><ele>656.0</ele><time>2026-04-11T14:30:59Z</time></trkpt><trkpt lat="40.08284738305041" lon="9.601951570102953"><ele>657.0</ele><time>2026-04-11T14:31:00Z</time></trkpt><trkpt lat="40.08267663521522" lon="9.601896285999247"><ele>658.0</ele><time>2026-04-11T14:31:01Z</time></trkpt><trkpt lat="40.08249284446291" lon="9.60184035151385"><ele>662.3333333333334</ele><time>2026-04-11T14:31:02Z</time></trkpt><trkpt lat="40.08230391825535" lon="9.601829702717597"><ele>666.6666666666666</ele><time>2026-04-11T14:31:03Z</time></trkpt><trkpt lat="40.08211943432997" lon="9.601890269009996"><ele>671.0</ele><time>2026-04-11T14:31:04Z</time></trkpt><trkpt lat="40.08194955761795" lon="9.601997604603659"><ele>668.6666666666666</ele><time>2026-04-11T14:31:05Z</time></trkpt><trkpt lat="40.08179251592087" lon="9.602110268393918"><ele>666.3333333333334</ele><time>2026-04-11T14:31:06Z</time></trkpt><trkpt lat="40.08164880225345" lon="9.602197807482495"><ele>664.0</ele><time>2026-04-11T14:31:07Z</time></trkpt><trkpt lat="40.081499798076194" lon="9.602208195496603"><ele>664.0</ele><time>2026-04-11T14:31:08Z</time></trkpt><trkpt lat="40.08138196420031" lon="9.60214696840218"><ele>664.0</ele><time>2026-04-11T14:31:09Z</time></trkpt><trkpt lat="40.08126069565635" lon="9.602057582630184"><ele>664.0</ele><time>2026-04-11T14:31:10Z</time></trkpt><trkpt lat="40.081115385879976" lon="9.602018061700969"><ele>664.0</ele><time>2026-04-11T14:31:11Z</time></trkpt><trkpt lat="40.0809523718159" lon="9.602060813409521"><ele>664.0</ele><time>2026-04-11T14:31:12Z</time></trkpt><trkpt lat="40.080785372480996" lon="9.602135270009043"><ele>664.0</ele><time>2026-04-11T14:31:13Z</time></trkpt><trkpt lat="40.080612325330925" lon="9.602203238313836"><ele>664.0</ele><time>2026-04-11T14:31:14Z</time></trkpt><trkpt lat="40.0804472453832" lon="9.602226484219436"><ele>667.6666666666667</ele><time>2026-04-11T14:31:15Z</time></trkpt><trkpt lat="40.080276084931306" lon="9.602188743781946"><ele>671.3333333333334</ele><time>2026-04-11T14:31:16Z</time></trkpt><trkpt lat="40.08010063906288" lon="9.602128760215164"><ele>675.0</ele><time>2026-04-11T14:31:17Z</time></trkpt><trkpt lat="40.07990811309234" lon="9.602126323499041"><ele>678.3333333333334</ele><time>2026-04-11T14:31:18Z</time></trkpt><trkpt lat="40.0797057715225" lon="9.602160769609261"><ele>681.6666666666667</ele><time>2026-04-11T14:31:19Z</time></trkpt><trkpt lat="40.079501332980925" lon="9.602213294161812"><ele>685.0</ele><time>2026-04-11T14:31:20Z</time></trkpt><trkpt lat="40.07930602424686" lon="9.602283982926902"><ele>685.0</ele><time>2026-04-11T14:31:21Z</time></trkpt><trkpt lat="40.079111837099006" lon="9.602385038453622"><ele>685.0</ele><time>2026-04-11T14:31:22Z</time></trkpt><trkpt lat="40.078925373658684" lon="9.602496511236946"><ele>685.0</ele><time>2026-04-11T14:31:23Z</time></trkpt><trkpt lat="40.07876395973075" lon="9.602612306353905"><ele>688.0</ele><time>2026-04-11T14:31:24Z</time></trkpt><trkpt lat="40.07863129645246" lon="9.602768221664476"><ele>691.0</ele><time>2026-04-11T14:31:25Z</time></trkpt><trkpt lat="40.07852806563691" lon="9.602979709902"><ele>694.0</ele><time>2026-04-11T14:31:26Z</time></trkpt><trkpt lat="40.07844453945169" lon="9.603223934432823"><ele>694.0</ele><time>2026-04-11T14:31:27Z</time></trkpt><trkpt lat="40.0783782456789" lon="9.603486942350273"><ele>694.0</ele><time>2026-04-11T14:31:28Z</time></trkpt><trkpt lat="40.0783108271072" lon="9.603752310022582"><ele>694.0</ele><time>2026-04-11T14:31:29Z</time></trkpt><trkpt lat="40.078248516511216" lon="9.603995307139453"><ele>700.0</ele><time>2026-04-11T14:31:30Z</time></trkpt><trkpt lat="40.07820467817805" lon="9.604222194663636"><ele>706.0</ele><time>2026-04-11T14:31:31Z</time></trkpt><trkpt lat="40.07817053919812" lon="9.6044395020292"><ele>712.0</ele><time>2026-04-11T14:31:32Z</time></trkpt><trkpt lat="40.07810997917003" lon="9.604622357376734"><ele>712.0</ele><time>2026-04-11T14:31:33Z</time></trkpt><trkpt lat="40.07803155847913" lon="9.604717639174716"><ele>712.0</ele><time>2026-04-11T14:31:34Z</time></trkpt><trkpt lat="40.07794599595798" lon="9.604729701103844"><ele>712.0</ele><time>2026-04-11T14:31:35Z</time></trkpt><trkpt lat="40.07786086121004" lon="9.604672068595606"><ele>712.0</ele><time>2026-04-11T14:31:36Z</time></trkpt><trkpt lat="40.07780275425348" lon="9.604548013355128"><ele>712.0</ele><time>2026-04-11T14:31:37Z</time></trkpt><trkpt lat="40.07780392454571" lon="9.604390893703632"><ele>712.0</ele><time>2026-04-11T14:31:38Z</time></trkpt><trkpt lat="40.07786479777462" lon="9.604229918785649"><ele>712.0</ele><time>2026-04-11T14:31:39Z</time></trkpt><trkpt lat="40.07793432909435" lon="9.604057198430649"><ele>712.0</ele><time>2026-04-11T14:31:40Z</time></trkpt><trkpt lat="40.077991281216164" lon="9.60387482249382"><ele>712.0</ele><time>2026-04-11T14:31:41Z</time></trkpt><trkpt lat="40.0780163098977" lon="9.603703002955843"><ele>712.0</ele><time>2026-04-11T14:31:42Z</time></trkpt><trkpt lat="40.077992314592144" lon="9.60352604346864"><ele>712.0</ele><time>2026-04-11T14:31:43Z</time></trkpt><trkpt lat="40.077932680487166" lon="9.60332703695909"><ele>712.0</ele><time>2026-04-11T14:31:44Z</time></trkpt><trkpt lat="40.07786613637039" lon="9.603119756995163"><ele>712.0</ele><time>2026-04-11T14:31:45Z</time></trkpt><trkpt lat="40.077808008237184" lon="9.602899951086819"><ele>712.0</ele><time>2026-04-11T14:31:46Z</time></trkpt><trkpt lat="40.077758875949" lon="9.602707248813777"><ele>712.0</ele><time>2026-04-11T14:31:47Z</time></trkpt><trkpt lat="40.0777061287927" lon="9.602548603951362"><ele>712.0</ele><time>2026-04-11T14:31:48Z</time></trkpt><trkpt lat="40.077630441878014" lon="9.602426367000932"><ele>712.0</ele><time>2026-04-11T14:31:49Z</time></trkpt><trkpt lat="40.07752678345954" lon="9.602349724909061"><ele>712.0</ele><time>2026-04-11T14:31:50Z</time></trkpt><trkpt lat="40.07740871684698" lon="9.602341805456225"><ele>712.0</ele><time>2026-04-11T14:31:51Z</time></trkpt><trkpt lat="40.07729436063875" lon="9.602396919615344"><ele>709.6666666666667</ele><time>2026-04-11T14:31:52Z</time></trkpt><trkpt lat="40.077204609598496" lon="9.602518466092606"><ele>707.3333333333334</ele><time>2026-04-11T14:31:53Z</time></trkpt><trkpt lat="40.07714073115155" lon="9.602707277029424"><ele>705.0</ele><time>2026-04-11T14:31:54Z</time></trkpt><trkpt lat="40.07709741053121" lon="9.602930790584784"><ele>705.0</ele><time>2026-04-11T14:31:55Z</time></trkpt><trkpt lat="40.07705665276028" lon="9.60313860614218"><ele>705.0</ele><time>2026-04-11T14:31:56Z</time></trkpt><trkpt lat="40.07698311281588" lon="9.603325147437184"><ele>705.0</ele><time>2026-04-11T14:31:57Z</time></trkpt><trkpt lat="40.076866862017376" lon="9.603488765319476"><ele>705.0</ele><time>2026-04-11T14:31:58Z</time></trkpt><trkpt lat="40.07670613694388" lon="9.603632796040193"><ele>705.0</ele><time>2026-04-11T14:31:59Z</time></trkpt><trkpt lat="40.076518994456286" lon="9.603758568939986"><ele>705.0</ele><time>2026-04-11T14:32:00Z</time></trkpt><trkpt lat="40.0763156334988" lon="9.60390492147368"><ele>706.5</ele><time>2026-04-11T14:32:01Z</time></trkpt><trkpt lat="40.07611724286261" lon="9.604080330643312"><ele>708.0</ele><time>2026-04-11T14:32:02Z</time></trkpt><trkpt lat="40.07593591822613" lon="9.60427393727905"><ele>709.6666666666666</ele><time>2026-04-11T14:32:03Z</time></trkpt><trkpt lat="40.07576848364965" lon="9.60446724170964"><ele>711.3333333333333</ele><time>2026-04-11T14:32:04Z</time></trkpt><trkpt lat="40.075587260506445" lon="9.604616573097779"><ele>713.0</ele><time>2026-04-11T14:32:05Z</time></trkpt><trkpt lat="40.07537854842889" lon="9.604721506623326"><ele>713.0</ele><time>2026-04-11T14:32:06Z</time></trkpt><trkpt lat="40.075176810918016" lon="9.60481298909947"><ele>713.0</ele><time>2026-04-11T14:32:07Z</time></trkpt><trkpt lat="40.0749959271606" lon="9.604918448254615"><ele>713.0</ele><time>2026-04-11T14:32:08Z</time></trkpt><trkpt lat="40.07483957916385" lon="9.605068304674877"><ele>709.5</ele><time>2026-04-11T14:32:09Z</time></trkpt><trkpt lat="40.07469095907179" lon="9.605285464305531"><ele>706.0</ele><time>2026-04-11T14:32:10Z</time></trkpt><trkpt lat="40.0745490417455" lon="9.605521905443302"><ele>706.0</ele><time>2026-04-11T14:32:11Z</time></trkpt><trkpt lat="40.07440845632186" lon="9.605754245596987"><ele>706.0</ele><time>2026-04-11T14:32:12Z</time></trkpt><trkpt lat="40.07427375887961" lon="9.6059697853813"><ele>706.0</ele><time>2026-04-11T14:32:13Z</time></trkpt><trkpt lat="40.07416497411331" lon="9.606185690766871"><ele>702.0</ele><time>2026-04-11T14:32:14Z</time></trkpt><trkpt lat="40.0740953587536" lon="9.606427070144628"><ele>698.0</ele><time>2026-04-11T14:32:15Z</time></trkpt><trkpt lat="40.074062922592866" lon="9.606711195057477"><ele>694.0</ele><time>2026-04-11T14:32:16Z</time></trkpt><trkpt lat="40.07404969693558" lon="9.607001180596072"><ele>694.0</ele><time>2026-04-11T14:32:17Z</time></trkpt><trkpt lat="40.07402455956668" lon="9.607271555339869"><ele>694.0</ele><time>2026-04-11T14:32:18Z</time></trkpt><trkpt lat="40.07397443257429" lon="9.607509398744599"><ele>694.0</ele><time>2026-04-11T14:32:19Z</time></trkpt><trkpt lat="40.07389296691165" lon="9.607715206595826"><ele>699.6666666666667</ele><time>2026-04-11T14:32:20Z</time></trkpt><trkpt lat="40.07376612409911" lon="9.607892709015486"><ele>705.3333333333334</ele><time>2026-04-11T14:32:21Z</time></trkpt><trkpt lat="40.07360954732557" lon="9.608067201625827"><ele>711.0</ele><time>2026-04-11T14:32:22Z</time></trkpt><trkpt lat="40.07343772211886" lon="9.608217494468908"><ele>711.0</ele><time>2026-04-11T14:32:23Z</time></trkpt><trkpt lat="40.073289859793256" lon="9.608352257946589"><ele>711.0</ele><time>2026-04-11T14:32:24Z</time></trkpt><trkpt lat="40.07319056753458" lon="9.608520667778746"><ele>711.0</ele><time>2026-04-11T14:32:25Z</time></trkpt><trkpt lat="40.07313482911755" lon="9.608721137635309"><ele>710.0</ele><time>2026-04-11T14:32:26Z</time></trkpt><trkpt lat="40.073117883964926" lon="9.60893410955379"><ele>709.0</ele><time>2026-04-11T14:32:27Z</time></trkpt><trkpt lat="40.0731006144771" lon="9.609129760314055"><ele>708.0</ele><time>2026-04-11T14:32:28Z</time></trkpt><trkpt lat="40.073029125354466" lon="9.609296927712094"><ele>708.0</ele><time>2026-04-11T14:32:29Z</time></trkpt><trkpt lat="40.07292560733862" lon="9.60943622359213"><ele>708.0</ele><time>2026-04-11T14:32:30Z</time></trkpt><trkpt lat="40.072797714851475" lon="9.609518342567181"><ele>708.0</ele><time>2026-04-11T14:32:31Z</time></trkpt><trkpt lat="40.072644530812035" lon="9.609522449697566"><ele>708.0</ele><time>2026-04-11T14:32:32Z</time></trkpt><trkpt lat="40.072478050639106" lon="9.609472430617846"><ele>707.6666666666666</ele><time>2026-04-11T14:32:33Z</time></trkpt><trkpt lat="40.07230056570568" lon="9.609430514860696"><ele>707.3333333333333</ele><time>2026-04-11T14:32:34Z</time></trkpt><trkpt lat="40.072104242372575" lon="9.609452294681498"><ele>707.0</ele><time>2026-04-11T14:32:35Z</time></trkpt><trkpt lat="40.07190147843777" lon="9.609534691937338"><ele>713.3333333333333</ele><time>2026-04-11T14:32:36Z</time></trkpt><trkpt lat="40.07169788022755" lon="9.609619927495219"><ele>719.6666666666666</ele><time>2026-04-11T14:32:37Z</time></trkpt><trkpt lat="40.071497593285" lon="9.609663417341785"><ele>726.0</ele><time>2026-04-11T14:32:38Z</time></trkpt><trkpt lat="40.07129470464593" lon="9.609650566756786"><ele>726.0</ele><time>2026-04-11T14:32:39Z</time></trkpt><trkpt lat="40.07109842782864" lon="9.609561521233838"><ele>726.0</ele><time>2026-04-11T14:32:40Z</time></trkpt><trkpt lat="40.07091086498112" lon="9.609478064809046"><ele>726.0</ele><time>2026-04-11T14:32:41Z</time></trkpt><trkpt lat="40.07073130059766" lon="9.609401751905393"><ele>725.6666666666666</ele><time>2026-04-11T14:32:42Z</time></trkpt><trkpt lat="40.07053941604029" lon="9.609385030004049"><ele>725.3333333333333</ele><time>2026-04-11T14:32:43Z</time></trkpt><trkpt lat="40.070345628527534" lon="9.609430584835222"><ele>725.0</ele><time>2026-04-11T14:32:44Z</time></trkpt><trkpt lat="40.07014190647967" lon="9.60953276846121"><ele>718.5</ele><time>2026-04-11T14:32:45Z</time></trkpt><trkpt lat="40.06993021604844" lon="9.609662740213015"><ele>712.0</ele><time>2026-04-11T14:32:46Z</time></trkpt><trkpt lat="40.069722138152706" lon="9.609776653727314"><ele>712.0</ele><time>2026-04-11T14:32:47Z</time></trkpt><trkpt lat="40.06952791746275" lon="9.609868004058939"><ele>712.0</ele><time>2026-04-11T14:32:48Z</time></trkpt><trkpt lat="40.06935583750026" lon="9.60994685339889"><ele>712.0</ele><time>2026-04-11T14:32:49Z</time></trkpt><trkpt lat="40.06921842707698" lon="9.610048367631512"><ele>712.0</ele><time>2026-04-11T14:32:50Z</time></trkpt><trkpt lat="40.06911606149302" lon="9.610213134667108"><ele>712.0</ele><time>2026-04-11T14:32:51Z</time></trkpt><trkpt lat="40.06902589518087" lon="9.61038650468955"><ele>712.0</ele><time>2026-04-11T14:32:52Z</time></trkpt><trkpt lat="40.06889117883113" lon="9.610509859513979"><ele>712.0</ele><time>2026-04-11T14:32:53Z</time></trkpt><trkpt lat="40.068728924660284" lon="9.610598819330633"><ele>712.0</ele><time>2026-04-11T14:32:54Z</time></trkpt><trkpt lat="40.06859788120867" lon="9.61068110224213"><ele>712.0</ele><time>2026-04-11T14:32:55Z</time></trkpt><trkpt lat="40.06850491087969" lon="9.610823704450175"><ele>712.0</ele><time>2026-04-11T14:32:56Z</time></trkpt><trkpt lat="40.068438466652744" lon="9.61101110104757"><ele>712.0</ele><time>2026-04-11T14:32:57Z</time></trkpt><trkpt lat="40.068351094136084" lon="9.611184206341099"><ele>712.0</ele><time>2026-04-11T14:32:58Z</time></trkpt><trkpt lat="40.068225628996764" lon="9.61132958964291"><ele>713.0</ele><time>2026-04-11T14:32:59Z</time></trkpt><trkpt lat="40.0680685175553" lon="9.611436061883"><ele>714.0</ele><time>2026-04-11T14:33:00Z</time></trkpt><trkpt lat="40.06788741832277" lon="9.611505895731025"><ele>715.0</ele><time>2026-04-11T14:33:01Z</time></trkpt><trkpt lat="40.06769756056081" lon="9.611569731628167"><ele>715.0</ele><time>2026-04-11T14:33:02Z</time></trkpt><trkpt lat="40.067510532101444" lon="9.611652140697034"><ele>715.0</ele><time>2026-04-11T14:33:03Z</time></trkpt><trkpt lat="40.06734822011712" lon="9.611755837181024"><ele>715.0</ele><time>2026-04-11T14:33:04Z</time></trkpt><trkpt lat="40.06720250893578" lon="9.611847529214838"><ele>711.3333333333334</ele><time>2026-04-11T14:33:05Z</time></trkpt><trkpt lat="40.067050639524346" lon="9.611865576062815"><ele>707.6666666666666</ele><time>2026-04-11T14:33:06Z</time></trkpt><trkpt lat="40.06689024437887" lon="9.61185615113861"><ele>704.0</ele><time>2026-04-11T14:33:07Z</time></trkpt><trkpt lat="40.066729927101484" lon="9.61190452253233"><ele>709.6666666666666</ele><time>2026-04-11T14:33:08Z</time></trkpt><trkpt lat="40.06656979909469" lon="9.612002867286595"><ele>715.3333333333334</ele><time>2026-04-11T14:33:09Z</time></trkpt><trkpt lat="40.066401751404435" lon="9.612105092708337"><ele>721.0</ele><time>2026-04-11T14:33:10Z</time></trkpt><trkpt lat="40.06622320078063" lon="9.61217992495505"><ele>721.0</ele><time>2026-04-11T14:33:11Z</time></trkpt><trkpt lat="40.0660354674573" lon="9.61223026239131"><ele>721.0</ele><time>2026-04-11T14:33:12Z</time></trkpt><trkpt lat="40.06585441819421" lon="9.612291610815308"><ele>721.0</ele><time>2026-04-11T14:33:13Z</time></trkpt><trkpt lat="40.06568643720116" lon="9.612380850826321"><ele>720.5</ele><time>2026-04-11T14:33:14Z</time></trkpt><trkpt lat="40.06553194001327" lon="9.612465188236861"><ele>720.0</ele><time>2026-04-11T14:33:15Z</time></trkpt><trkpt lat="40.06539105077466" lon="9.612500243190729"><ele>719.5</ele><time>2026-04-11T14:33:16Z</time></trkpt><trkpt lat="40.065270747076696" lon="9.612429193327873"><ele>719.0</ele><time>2026-04-11T14:33:17Z</time></trkpt><trkpt lat="40.06513217384139" lon="9.61238698181474"><ele>719.0</ele><time>2026-04-11T14:33:18Z</time></trkpt><trkpt lat="40.064991141325976" lon="9.612353668689956"><ele>719.0</ele><time>2026-04-11T14:33:19Z</time></trkpt><trkpt lat="40.064825895008276" lon="9.612368701556328"><ele>719.0</ele><time>2026-04-11T14:33:20Z</time></trkpt><trkpt lat="40.06465915561895" lon="9.612403210461347"><ele>720.0</ele><time>2026-04-11T14:33:21Z</time></trkpt><trkpt lat="40.064485702943976" lon="9.61243881864386"><ele>721.0</ele><time>2026-04-11T14:33:22Z</time></trkpt><trkpt lat="40.06430542400049" lon="9.6124689555491"><ele>722.0</ele><time>2026-04-11T14:33:23Z</time></trkpt><trkpt lat="40.064121257562135" lon="9.612499205089216"><ele>722.6666666666666</ele><time>2026-04-11T14:33:24Z</time></trkpt><trkpt lat="40.06394420990161" lon="9.61252782329588"><ele>723.3333333333334</ele><time>2026-04-11T14:33:25Z</time></trkpt><trkpt lat="40.06376990783195" lon="9.61256055738974"><ele>724.0</ele><time>2026-04-11T14:33:26Z</time></trkpt><trkpt lat="40.063605614241816" lon="9.61262367693565"><ele>724.0</ele><time>2026-04-11T14:33:27Z</time></trkpt><trkpt lat="40.063451518961855" lon="9.612727950090441"><ele>724.0</ele><time>2026-04-11T14:33:28Z</time></trkpt><trkpt lat="40.06330478236082" lon="9.61286387068512"><ele>724.0</ele><time>2026-04-11T14:33:29Z</time></trkpt><trkpt lat="40.063167091053764" lon="9.613007630340881"><ele>719.3333333333334</ele><time>2026-04-11T14:33:30Z</time></trkpt><trkpt lat="40.0630269705529" lon="9.613133670619352"><ele>714.6666666666666</ele><time>2026-04-11T14:33:31Z</time></trkpt><trkpt lat="40.06286763506944" lon="9.613223897407204"><ele>710.0</ele><time>2026-04-11T14:33:32Z</time></trkpt><trkpt lat="40.06269055046306" lon="9.613290491477587"><ele>710.0</ele><time>2026-04-11T14:33:33Z</time></trkpt><trkpt lat="40.06250783586339" lon="9.613340595725084"><ele>710.0</ele><time>2026-04-11T14:33:34Z</time></trkpt><trkpt lat="40.06231320323177" lon="9.613362873690736"><ele>710.0</ele><time>2026-04-11T14:33:35Z</time></trkpt><trkpt lat="40.06211213006267" lon="9.61335717697742"><ele>710.0</ele><time>2026-04-11T14:33:36Z</time></trkpt><trkpt lat="40.061914929525486" lon="9.613336913651683"><ele>710.0</ele><time>2026-04-11T14:33:37Z</time></trkpt><trkpt lat="40.06172761848818" lon="9.613302866756918"><ele>710.0</ele><time>2026-04-11T14:33:38Z</time></trkpt><trkpt lat="40.061547051125366" lon="9.613260357589908"><ele>710.0</ele><time>2026-04-11T14:33:39Z</time></trkpt><trkpt lat="40.061382069188745" lon="9.61321437747513"><ele>710.0</ele><time>2026-04-11T14:33:40Z</time></trkpt><trkpt lat="40.06123977325006" lon="9.613200378130443"><ele>710.0</ele><time>2026-04-11T14:33:41Z</time></trkpt><trkpt lat="40.06111183372825" lon="9.613261872088646"><ele>710.0</ele><time>2026-04-11T14:33:42Z</time></trkpt><trkpt lat="40.061001651506054" lon="9.613398824587234"><ele>710.0</ele><time>2026-04-11T14:33:43Z</time></trkpt><trkpt lat="40.06089606763632" lon="9.613576503434018"><ele>710.0</ele><time>2026-04-11T14:33:44Z</time></trkpt><trkpt lat="40.06077931807774" lon="9.613722967621541"><ele>710.0</ele><time>2026-04-11T14:33:45Z</time></trkpt><trkpt lat="40.06065355239849" lon="9.613847282290061"><ele>705.0</ele><time>2026-04-11T14:33:46Z</time></trkpt><trkpt lat="40.060530265007046" lon="9.613962770208685"><ele>700.0</ele><time>2026-04-11T14:33:47Z</time></trkpt><trkpt lat="40.06039853559613" lon="9.614053227988595"><ele>695.0</ele><time>2026-04-11T14:33:48Z</time></trkpt><trkpt lat="40.060250827762474" lon="9.61409023271655"><ele>695.0</ele><time>2026-04-11T14:33:49Z</time></trkpt><trkpt lat="40.060092039636814" lon="9.614091922235584"><ele>695.0</ele><time>2026-04-11T14:33:50Z</time></trkpt><trkpt lat="40.05995404102091" lon="9.614130033525571"><ele>695.0</ele><time>2026-04-11T14:33:51Z</time></trkpt><trkpt lat="40.059846905000406" lon="9.614240159385126"><ele>695.0</ele><time>2026-04-11T14:33:52Z</time></trkpt><trkpt lat="40.05975789370156" lon="9.614403510782067"><ele>692.3333333333333</ele><time>2026-04-11T14:33:53Z</time></trkpt><trkpt lat="40.05965987146675" lon="9.614572216164037"><ele>689.6666666666666</ele><time>2026-04-11T14:33:54Z</time></trkpt><trkpt lat="40.05952800564531" lon="9.614702208286124"><ele>687.0</ele><time>2026-04-11T14:33:55Z</time></trkpt><trkpt lat="40.0593722854087" lon="9.614810119900792"><ele>687.0</ele><time>2026-04-11T14:33:56Z</time></trkpt><trkpt lat="40.059220914195" lon="9.614909870954241"><ele>687.0</ele><time>2026-04-11T14:33:57Z</time></trkpt><trkpt lat="40.0590496825342" lon="9.614977898616072"><ele>687.0</ele><time>2026-04-11T14:33:58Z</time></trkpt><trkpt lat="40.058865496838614" lon="9.615010665230194"><ele>686.3333333333334</ele><time>2026-04-11T14:33:59Z</time></trkpt><trkpt lat="40.05867613764247" lon="9.615028624181368"><ele>685.6666666666667</ele><time>2026-04-11T14:34:00Z</time></trkpt><trkpt lat="40.05849014080703" lon="9.6150510363497"><ele>685.0</ele><time>2026-04-11T14:34:01Z</time></trkpt><trkpt lat="40.058320137946176" lon="9.615064091981818"><ele>679.6666666666667</ele><time>2026-04-11T14:34:02Z</time></trkpt><trkpt lat="40.05815962306768" lon="9.615027958436984"><ele>674.3333333333334</ele><time>2026-04-11T14:34:03Z</time></trkpt><trkpt lat="40.05800767232123" lon="9.614936352836512"><ele>669.0</ele><time>2026-04-11T14:34:04Z</time></trkpt><trkpt lat="40.05786379568367" lon="9.61481205853985"><ele>669.0</ele><time>2026-04-11T14:34:05Z</time></trkpt><trkpt lat="40.05774058171006" lon="9.614691847017042"><ele>669.0</ele><time>2026-04-11T14:34:06Z</time></trkpt><trkpt lat="40.057623430369354" lon="9.614622027616623"><ele>669.0</ele><time>2026-04-11T14:34:07Z</time></trkpt><trkpt lat="40.057497831655866" lon="9.61463748879964"><ele>669.0</ele><time>2026-04-11T14:34:08Z</time></trkpt><trkpt lat="40.05736106630518" lon="9.614716589719238"><ele>666.3333333333334</ele><time>2026-04-11T14:34:09Z</time></trkpt><trkpt lat="40.05721025465694" lon="9.61477244455888"><ele>663.6666666666667</ele><time>2026-04-11T14:34:10Z</time></trkpt><trkpt lat="40.057055601485075" lon="9.614813814845133"><ele>661.0</ele><time>2026-04-11T14:34:11Z</time></trkpt><trkpt lat="40.05689430466928" lon="9.614752720971047"><ele>661.0</ele><time>2026-04-11T14:34:12Z</time></trkpt><trkpt lat="40.056726659678674" lon="9.614676657208122"><ele>661.0</ele><time>2026-04-11T14:34:13Z</time></trkpt><trkpt lat="40.05656200047244" lon="9.614607477157637"><ele>661.0</ele><time>2026-04-11T14:34:14Z</time></trkpt><trkpt lat="40.05640644250195" lon="9.614553720320764"><ele>662.0</ele><time>2026-04-11T14:34:15Z</time></trkpt><trkpt lat="40.05625387932422" lon="9.614553676144645"><ele>663.0</ele><time>2026-04-11T14:34:16Z</time></trkpt><trkpt lat="40.056100432096734" lon="9.614625614445906"><ele>664.0</ele><time>2026-04-11T14:34:17Z</time></trkpt><trkpt lat="40.05594531555706" lon="9.61473795311746"><ele>668.0</ele><time>2026-04-11T14:34:18Z</time></trkpt><trkpt lat="40.05577746064093" lon="9.614839469637575"><ele>672.0</ele><time>2026-04-11T14:34:19Z</time></trkpt><trkpt lat="40.05560145398301" lon="9.614955815965152"><ele>676.0</ele><time>2026-04-11T14:34:20Z</time></trkpt><trkpt lat="40.05543994345237" lon="9.615090983184613"><ele>676.0</ele><time>2026-04-11T14:34:21Z</time></trkpt><trkpt lat="40.05528784444217" lon="9.615214744853198"><ele>676.0</ele><time>2026-04-11T14:34:22Z</time></trkpt><trkpt lat="40.055160601106984" lon="9.615310147335776"><ele>676.0</ele><time>2026-04-11T14:34:23Z</time></trkpt><trkpt lat="40.05507110060271" lon="9.61541221982763"><ele>676.0</ele><time>2026-04-11T14:34:24Z</time></trkpt><trkpt lat="40.05503449629727" lon="9.615541744994037"><ele>673.5</ele><time>2026-04-11T14:34:25Z</time></trkpt><trkpt lat="40.05506109455155" lon="9.615675352136401"><ele>671.0</ele><time>2026-04-11T14:34:26Z</time></trkpt><trkpt lat="40.055153053346494" lon="9.615790043856403"><ele>668.5</ele><time>2026-04-11T14:34:27Z</time></trkpt><trkpt lat="40.05528702728171" lon="9.615872873169447"><ele>666.0</ele><time>2026-04-11T14:34:28Z</time></trkpt><trkpt lat="40.055424824177905" lon="9.615960735493925"><ele>666.0</ele><time>2026-04-11T14:34:29Z</time></trkpt><trkpt lat="40.05553779352786" lon="9.616097950658192"><ele>666.0</ele><time>2026-04-11T14:34:30Z</time></trkpt><trkpt lat="40.055598545393906" lon="9.616295971407627"><ele>666.0</ele><time>2026-04-11T14:34:31Z</time></trkpt><trkpt lat="40.055658543661835" lon="9.616522454110115"><ele>669.0</ele><time>2026-04-11T14:34:32Z</time></trkpt><trkpt lat="40.05574987409429" lon="9.616747005459292"><ele>672.0</ele><time>2026-04-11T14:34:33Z</time></trkpt><trkpt lat="40.05584240671665" lon="9.616959171322264"><ele>675.0</ele><time>2026-04-11T14:34:34Z</time></trkpt><trkpt lat="40.05590029442265" lon="9.617180958867248"><ele>667.0</ele><time>2026-04-11T14:34:35Z</time></trkpt><trkpt lat="40.0559180211304" lon="9.617420886065998"><ele>659.0</ele><time>2026-04-11T14:34:36Z</time></trkpt><trkpt lat="40.055895881904796" lon="9.617665274726864"><ele>651.0</ele><time>2026-04-11T14:34:37Z</time></trkpt><trkpt lat="40.05584490537592" lon="9.61790621185305"><ele>648.0</ele><time>2026-04-11T14:34:38Z</time></trkpt><trkpt lat="40.05579553936914" lon="9.618155528673208"><ele>645.0</ele><time>2026-04-11T14:34:39Z</time></trkpt><trkpt lat="40.05573584152001" lon="9.618401711791442"><ele>642.0</ele><time>2026-04-11T14:34:40Z</time></trkpt><trkpt lat="40.0557064390052" lon="9.618649181257743"><ele>641.0</ele><time>2026-04-11T14:34:41Z</time></trkpt><trkpt lat="40.055717113656776" lon="9.618878932583995"><ele>640.0</ele><time>2026-04-11T14:34:42Z</time></trkpt><trkpt lat="40.05577738666379" lon="9.619089517022713"><ele>639.0</ele><time>2026-04-11T14:34:43Z</time></trkpt><trkpt lat="40.05588012035186" lon="9.619283539963494"><ele>640.3333333333334</ele><time>2026-04-11T14:34:44Z</time></trkpt><trkpt lat="40.05597010139806" lon="9.619500182169546"><ele>641.6666666666667</ele><time>2026-04-11T14:34:45Z</time></trkpt><trkpt lat="40.056039246336454" lon="9.619730903120562"><ele>643.0</ele><time>2026-04-11T14:34:46Z</time></trkpt><trkpt lat="40.05611333531136" lon="9.619978647659206"><ele>643.0</ele><time>2026-04-11T14:34:47Z</time></trkpt><trkpt lat="40.056155746845704" lon="9.620248722304549"><ele>643.0</ele><time>2026-04-11T14:34:48Z</time></trkpt><trkpt lat="40.056197806907264" lon="9.620535123126269"><ele>643.0</ele><time>2026-04-11T14:34:49Z</time></trkpt><trkpt lat="40.05623895704122" lon="9.620832411142231"><ele>643.0</ele><time>2026-04-11T14:34:50Z</time></trkpt><trkpt lat="40.05630147373568" lon="9.62111705698367"><ele>643.0</ele><time>2026-04-11T14:34:51Z</time></trkpt><trkpt lat="40.05638160946405" lon="9.621382442971152"><ele>643.0</ele><time>2026-04-11T14:34:52Z</time></trkpt><trkpt lat="40.05646034498546" lon="9.621622427879634"><ele>645.6666666666667</ele><time>2026-04-11T14:34:53Z</time></trkpt><trkpt lat="40.05654438907746" lon="9.621834780644537"><ele>648.3333333333334</ele><time>2026-04-11T14:34:54Z</time></trkpt><trkpt lat="40.0566543364266" lon="9.621986196708942"><ele>651.0</ele><time>2026-04-11T14:34:55Z</time></trkpt><trkpt lat="40.056779921753744" lon="9.622102872774356"><ele>643.0</ele><time>2026-04-11T14:34:56Z</time></trkpt><trkpt lat="40.05687506963558" lon="9.622253048124552"><ele>635.0</ele><time>2026-04-11T14:34:57Z</time></trkpt><trkpt lat="40.05692941980159" lon="9.622456239306272"><ele>627.0</ele><time>2026-04-11T14:34:58Z</time></trkpt><trkpt lat="40.05692672414403" lon="9.622669212155678"><ele>624.6666666666666</ele><time>2026-04-11T14:34:59Z</time></trkpt><trkpt lat="40.05688568002766" lon="9.622903831350648"><ele>622.3333333333333</ele><time>2026-04-11T14:35:00Z</time></trkpt><trkpt lat="40.05682541298607" lon="9.623141836375527"><ele>620.0</ele><time>2026-04-11T14:35:01Z</time></trkpt><trkpt lat="40.05676408138339" lon="9.623372803925323"><ele>620.0</ele><time>2026-04-11T14:35:02Z</time></trkpt><trkpt lat="40.05675221345916" lon="9.623617247390847"><ele>620.0</ele><time>2026-04-11T14:35:03Z</time></trkpt><trkpt lat="40.056753171105655" lon="9.623861915198026"><ele>620.0</ele><time>2026-04-11T14:35:04Z</time></trkpt><trkpt lat="40.056744563378864" lon="9.62410494975118"><ele>617.3333333333333</ele><time>2026-04-11T14:35:05Z</time></trkpt><trkpt lat="40.056670361429106" lon="9.624334616103468"><ele>614.6666666666666</ele><time>2026-04-11T14:35:06Z</time></trkpt><trkpt lat="40.05661127820377" lon="9.624556714631197"><ele>612.0</ele><time>2026-04-11T14:35:07Z</time></trkpt><trkpt lat="40.056589353342986" lon="9.624736242041282"><ele>607.6666666666666</ele><time>2026-04-11T14:35:08Z</time></trkpt><trkpt lat="40.05631911951604" lon="9.624843046832725"><ele>603.3333333333333</ele><time>2026-04-11T14:35:09Z</time></trkpt><trkpt lat="40.056172555927404" lon="9.62493447566045"><ele>599.0</ele><time>2026-04-11T14:35:10Z</time></trkpt><trkpt lat="40.05601266648626" lon="9.624973907293029"><ele>599.0</ele><time>2026-04-11T14:35:11Z</time></trkpt><trkpt lat="40.05583674622803" lon="9.624974631827412"><ele>599.0</ele><time>2026-04-11T14:35:12Z</time></trkpt><trkpt lat="40.05567677520504" lon="9.624940739875312"><ele>599.0</ele><time>2026-04-11T14:35:13Z</time></trkpt><trkpt lat="40.05554487078113" lon="9.62484861304564"><ele>597.3333333333333</ele><time>2026-04-11T14:35:14Z</time></trkpt><trkpt lat="40.0554183371119" lon="9.624729072100887"><ele>595.6666666666666</ele><time>2026-04-11T14:35:15Z</time></trkpt><trkpt lat="40.055271370784105" lon="9.624690207140087"><ele>594.0</ele><time>2026-04-11T14:35:16Z</time></trkpt><trkpt lat="40.055110704259505" lon="9.624724446287185"><ele>594.0</ele><time>2026-04-11T14:35:17Z</time></trkpt><trkpt lat="40.054969538387915" lon="9.62481580035402"><ele>594.0</ele><time>2026-04-11T14:35:18Z</time></trkpt><trkpt lat="40.054842911565935" lon="9.624989468023127"><ele>594.0</ele><time>2026-04-11T14:35:19Z</time></trkpt><trkpt lat="40.05472630244378" lon="9.62517591885863"><ele>587.0</ele><time>2026-04-11T14:35:20Z</time></trkpt><trkpt lat="40.054616440421576" lon="9.625344312287293"><ele>580.0</ele><time>2026-04-11T14:35:21Z</time></trkpt><trkpt lat="40.054535196818534" lon="9.625553258132548"><ele>573.0</ele><time>2026-04-11T14:35:22Z</time></trkpt><trkpt lat="40.05447793749069" lon="9.625791431636916"><ele>573.0</ele><time>2026-04-11T14:35:23Z</time></trkpt><trkpt lat="40.05441475363301" lon="9.626019952277668"><ele>573.0</ele><time>2026-04-11T14:35:24Z</time></trkpt><trkpt lat="40.054352925343416" lon="9.626234749459162"><ele>573.0</ele><time>2026-04-11T14:35:25Z</time></trkpt><trkpt lat="40.0543099151359" lon="9.626443267196372"><ele>572.75</ele><time>2026-04-11T14:35:26Z</time></trkpt><trkpt lat="40.054311865208824" lon="9.626637672039463"><ele>572.5</ele><time>2026-04-11T14:35:27Z</time></trkpt><trkpt lat="40.05435617869609" lon="9.626827163119597"><ele>572.25</ele><time>2026-04-11T14:35:28Z</time></trkpt><trkpt lat="40.054404714238466" lon="9.62699890926298"><ele>572.0</ele><time>2026-04-11T14:35:29Z</time></trkpt><trkpt lat="40.05441055635889" lon="9.62717515509108"><ele>572.0</ele><time>2026-04-11T14:35:30Z</time></trkpt><trkpt lat="40.05436382840757" lon="9.627363815410591"><ele>572.0</ele><time>2026-04-11T14:35:31Z</time></trkpt><trkpt lat="40.05429865967322" lon="9.627560231509149"><ele>572.0</ele><time>2026-04-11T14:35:32Z</time></trkpt><trkpt lat="40.05422391537274" lon="9.627760943143047"><ele>565.3333333333333</ele><time>2026-04-11T14:35:33Z</time></trkpt><trkpt lat="40.05411362473304" lon="9.62794062581118"><ele>558.6666666666666</ele><time>2026-04-11T14:35:34Z</time></trkpt><trkpt lat="40.05397424509994" lon="9.628083497183322"><ele>552.0</ele><time>2026-04-11T14:35:35Z</time></trkpt><trkpt lat="40.05382513438132" lon="9.628179236780165"><ele>552.0</ele><time>2026-04-11T14:35:36Z</time></trkpt><trkpt lat="40.05370252353522" lon="9.62825735524918"><ele>552.0</ele><time>2026-04-11T14:35:37Z</time></trkpt><trkpt lat="40.05362290635593" lon="9.628374356838801"><ele>552.0</ele><time>2026-04-11T14:35:38Z</time></trkpt><trkpt lat="40.05359094004795" lon="9.62854020914171"><ele>552.0</ele><time>2026-04-11T14:35:39Z</time></trkpt><trkpt lat="40.053620295550054" lon="9.628724881339929"><ele>552.0</ele><time>2026-04-11T14:35:40Z</time></trkpt><trkpt lat="40.0536873403677" lon="9.62891167572044"><ele>552.0</ele><time>2026-04-11T14:35:41Z</time></trkpt><trkpt lat="40.05372658266524" lon="9.629113627382068"><ele>552.0</ele><time>2026-04-11T14:35:42Z</time></trkpt><trkpt lat="40.05371807318835" lon="9.629348978129466"><ele>552.6666666666666</ele><time>2026-04-11T14:35:43Z</time></trkpt><trkpt lat="40.053678017155065" lon="9.629595150151578"><ele>553.3333333333333</ele><time>2026-04-11T14:35:44Z</time></trkpt><trkpt lat="40.05361426818367" lon="9.629846286278209"><ele>554.0</ele><time>2026-04-11T14:35:45Z</time></trkpt><trkpt lat="40.05355684662503" lon="9.630101157319952"><ele>557.3333333333333</ele><time>2026-04-11T14:35:46Z</time></trkpt><trkpt lat="40.0535337808541" lon="9.630343800348477"><ele>560.6666666666666</ele><time>2026-04-11T14:35:47Z</time></trkpt><trkpt lat="40.05350526032572" lon="9.630571187310624"><ele>564.0</ele><time>2026-04-11T14:35:48Z</time></trkpt><trkpt lat="40.05343013320462" lon="9.630774145955128"><ele>564.0</ele><time>2026-04-11T14:35:49Z</time></trkpt><trkpt lat="40.05329818999655" lon="9.63093662888254"><ele>564.0</ele><time>2026-04-11T14:35:50Z</time></trkpt><trkpt lat="40.0531868756002" lon="9.63112046268842"><ele>564.0</ele><time>2026-04-11T14:35:51Z</time></trkpt><trkpt lat="40.05310617039183" lon="9.63132488200338"><ele>554.3333333333334</ele><time>2026-04-11T14:35:52Z</time></trkpt><trkpt lat="40.053043264672894" lon="9.631552248590316"><ele>544.6666666666667</ele><time>2026-04-11T14:35:53Z</time></trkpt><trkpt lat="40.052979103211555" lon="9.63176427271445"><ele>535.0</ele><time>2026-04-11T14:35:54Z</time></trkpt><trkpt lat="40.052909553774455" lon="9.631963600045896"><ele>544.0</ele><time>2026-04-11T14:35:55Z</time></trkpt><trkpt lat="40.052793316672776" lon="9.63212214771335"><ele>553.0</ele><time>2026-04-11T14:35:56Z</time></trkpt><trkpt lat="40.052667505010014" lon="9.632301534507821"><ele>562.0</ele><time>2026-04-11T14:35:57Z</time></trkpt><trkpt lat="40.05252598483538" lon="9.632473303319806"><ele>558.0</ele><time>2026-04-11T14:35:58Z</time></trkpt><trkpt lat="40.052384749148004" lon="9.632650479781029"><ele>554.0</ele><time>2026-04-11T14:35:59Z</time></trkpt><trkpt lat="40.05224908494548" lon="9.63282366996637"><ele>550.0</ele><time>2026-04-11T14:36:00Z</time></trkpt><trkpt lat="40.05212925287666" lon="9.632994857068647"><ele>550.0</ele><time>2026-04-11T14:36:01Z</time></trkpt><trkpt lat="40.05203977278043" lon="9.633198273661542"><ele>550.0</ele><time>2026-04-11T14:36:02Z</time></trkpt><trkpt lat="40.051975605938885" lon="9.633433276671715"><ele>550.0</ele><time>2026-04-11T14:36:03Z</time></trkpt><trkpt lat="40.051924773867164" lon="9.633678086016783"><ele>550.0</ele><time>2026-04-11T14:36:04Z</time></trkpt><trkpt lat="40.05189491416176" lon="9.633924130131977"><ele>550.0</ele><time>2026-04-11T14:36:05Z</time></trkpt><trkpt lat="40.051909887633535" lon="9.634170071875321"><ele>550.0</ele><time>2026-04-11T14:36:06Z</time></trkpt><trkpt lat="40.05197580823068" lon="9.634402931304052"><ele>547.0</ele><time>2026-04-11T14:36:07Z</time></trkpt><trkpt lat="40.05206674350935" lon="9.634586122707065"><ele>544.0</ele><time>2026-04-11T14:36:08Z</time></trkpt><trkpt lat="40.05214672413717" lon="9.634736924181844"><ele>541.0</ele><time>2026-04-11T14:36:09Z</time></trkpt><trkpt lat="40.05217762404645" lon="9.634879999341925"><ele>538.0</ele><time>2026-04-11T14:36:10Z</time></trkpt><trkpt lat="40.0521470405854" lon="9.635002436196975"><ele>538.0</ele><time>2026-04-11T14:36:11Z</time></trkpt><trkpt lat="40.05206094552598" lon="9.635087849521504"><ele>538.0</ele><time>2026-04-11T14:36:12Z</time></trkpt><trkpt lat="40.051941445784884" lon="9.63515187368798"><ele>538.0</ele><time>2026-04-11T14:36:13Z</time></trkpt><trkpt lat="40.05186355416981" lon="9.635250484855806"><ele>538.0</ele><time>2026-04-11T14:36:14Z</time></trkpt><trkpt lat="40.05182992975402" lon="9.635388083464239"><ele>537.25</ele><time>2026-04-11T14:36:15Z</time></trkpt><trkpt lat="40.05185553004692" lon="9.635550956673498"><ele>536.5</ele><time>2026-04-11T14:36:16Z</time></trkpt><trkpt lat="40.05193704060427" lon="9.635707158670348"><ele>535.75</ele><time>2026-04-11T14:36:17Z</time></trkpt><trkpt lat="40.052037404864286" lon="9.635857237684547"><ele>535.0</ele><time>2026-04-11T14:36:18Z</time></trkpt><trkpt lat="40.052110102272124" lon="9.635999760898889"><ele>535.0</ele><time>2026-04-11T14:36:19Z</time></trkpt><trkpt lat="40.052132901814055" lon="9.636135042659202"><ele>535.0</ele><time>2026-04-11T14:36:20Z</time></trkpt><trkpt lat="40.05209144557507" lon="9.63624836300187"><ele>535.0</ele><time>2026-04-11T14:36:21Z</time></trkpt><trkpt lat="40.05199864986681" lon="9.636350697821456"><ele>535.0</ele><time>2026-04-11T14:36:22Z</time></trkpt><trkpt lat="40.051908681298634" lon="9.636489134386528"><ele>536.6666666666667</ele><time>2026-04-11T14:36:23Z</time></trkpt><trkpt lat="40.05182558786895" lon="9.636668959959652"><ele>538.3333333333334</ele><time>2026-04-11T14:36:24Z</time></trkpt><trkpt lat="40.051758787743125" lon="9.636866974807228"><ele>540.0</ele><time>2026-04-11T14:36:25Z</time></trkpt><trkpt lat="40.05171999258058" lon="9.637068329164284"><ele>544.0</ele><time>2026-04-11T14:36:26Z</time></trkpt><trkpt lat="40.05170587630362" lon="9.637277070434523"><ele>548.0</ele><time>2026-04-11T14:36:27Z</time></trkpt><trkpt lat="40.0516731115744" lon="9.637481503018362"><ele>552.0</ele><time>2026-04-11T14:36:28Z</time></trkpt><trkpt lat="40.051584351472535" lon="9.637661194877435"><ele>540.3333333333334</ele><time>2026-04-11T14:36:29Z</time></trkpt><trkpt lat="40.051462221585226" lon="9.637815252536834"><ele>528.6666666666667</ele><time>2026-04-11T14:36:30Z</time></trkpt><trkpt lat="40.05134164524559" lon="9.637947954631452"><ele>517.0</ele><time>2026-04-11T14:36:31Z</time></trkpt><trkpt lat="40.051227940011934" lon="9.638078135665001"><ele>517.0</ele><time>2026-04-11T14:36:32Z</time></trkpt><trkpt lat="40.051149651184524" lon="9.638265011742877"><ele>517.0</ele><time>2026-04-11T14:36:33Z</time></trkpt><trkpt lat="40.05108012672842" lon="9.63847832117828"><ele>517.0</ele><time>2026-04-11T14:36:34Z</time></trkpt><trkpt lat="40.051001945126316" lon="9.638694458555923"><ele>525.3333333333334</ele><time>2026-04-11T14:36:35Z</time></trkpt><trkpt lat="40.05091643455264" lon="9.63891745136058"><ele>533.6666666666666</ele><time>2026-04-11T14:36:36Z</time></trkpt><trkpt lat="40.050829805883886" lon="9.639133101840175"><ele>542.0</ele><time>2026-04-11T14:36:37Z</time></trkpt><trkpt lat="40.050757999795465" lon="9.639335227390557"><ele>525.3333333333333</ele><time>2026-04-11T14:36:38Z</time></trkpt><trkpt lat="40.05071579770083" lon="9.639547186663082"><ele>508.66666666666663</ele><time>2026-04-11T14:36:39Z</time></trkpt><trkpt lat="40.05070415051605" lon="9.639787473474314"><ele>492.0</ele><time>2026-04-11T14:36:40Z</time></trkpt><trkpt lat="40.05070345115082" lon="9.640041145980009"><ele>492.33333333333337</ele><time>2026-04-11T14:36:41Z</time></trkpt><trkpt lat="40.05069918514694" lon="9.640308528493302"><ele>492.6666666666667</ele><time>2026-04-11T14:36:42Z</time></trkpt><trkpt lat="40.050684700357735" lon="9.640583676564777"><ele>493.0</ele><time>2026-04-11T14:36:43Z</time></trkpt><trkpt lat="40.05066332360889" lon="9.640855318699698"><ele>495.0</ele><time>2026-04-11T14:36:44Z</time></trkpt><trkpt lat="40.050642564839265" lon="9.641134141748335"><ele>497.0</ele><time>2026-04-11T14:36:45Z</time></trkpt><trkpt lat="40.05062704783576" lon="9.641427603814822"><ele>499.0</ele><time>2026-04-11T14:36:46Z</time></trkpt><trkpt lat="40.050619132462884" lon="9.641711087499441"><ele>501.6666666666667</ele><time>2026-04-11T14:36:47Z</time></trkpt><trkpt lat="40.05060852978273" lon="9.641977052594287"><ele>504.33333333333337</ele><time>2026-04-11T14:36:48Z</time></trkpt><trkpt lat="40.0505763023562" lon="9.642230421707392"><ele>507.0</ele><time>2026-04-11T14:36:49Z</time></trkpt><trkpt lat="40.05051047988031" lon="9.642488112157501"><ele>507.0</ele><time>2026-04-11T14:36:50Z</time></trkpt><trkpt lat="40.05042848457488" lon="9.642747001071553"><ele>507.0</ele><time>2026-04-11T14:36:51Z</time></trkpt><trkpt lat="40.05035360242471" lon="9.643005414527584"><ele>507.0</ele><time>2026-04-11T14:36:52Z</time></trkpt><trkpt lat="40.050290849577" lon="9.643256167063717"><ele>512.3333333333334</ele><time>2026-04-11T14:36:53Z</time></trkpt><trkpt lat="40.05022926519608" lon="9.64349317383795"><ele>517.6666666666667</ele><time>2026-04-11T14:36:54Z</time></trkpt><trkpt lat="40.05014778881051" lon="9.643709506122013"><ele>523.0</ele><time>2026-04-11T14:36:55Z</time></trkpt><trkpt lat="40.05003247793807" lon="9.643900470566052"><ele>520.3333333333334</ele><time>2026-04-11T14:36:56Z</time></trkpt><trkpt lat="40.049899394083084" lon="9.644089333950713"><ele>517.6666666666666</ele><time>2026-04-11T14:36:57Z</time></trkpt><trkpt lat="40.04977580610977" lon="9.644293049655227"><ele>515.0</ele><time>2026-04-11T14:36:58Z</time></trkpt><trkpt lat="40.049656952084796" lon="9.644511129242547"><ele>515.0</ele><time>2026-04-11T14:36:59Z</time></trkpt><trkpt lat="40.04953866914686" lon="9.644732378358917"><ele>515.0</ele><time>2026-04-11T14:37:00Z</time></trkpt><trkpt lat="40.04941323926412" lon="9.644957432230973"><ele>515.0</ele><time>2026-04-11T14:37:01Z</time></trkpt><trkpt lat="40.0492831895517" lon="9.64518597831064"><ele>507.3333333333333</ele><time>2026-04-11T14:37:02Z</time></trkpt><trkpt lat="40.049148038860146" lon="9.6454144003394"><ele>499.66666666666663</ele><time>2026-04-11T14:37:03Z</time></trkpt><trkpt lat="40.04901553902954" lon="9.64564741537711"><ele>492.0</ele><time>2026-04-11T14:37:04Z</time></trkpt><trkpt lat="40.04888509447343" lon="9.645884923760383"><ele>492.0</ele><time>2026-04-11T14:37:05Z</time></trkpt><trkpt lat="40.04875338184484" lon="9.646120181041733"><ele>492.0</ele><time>2026-04-11T14:37:06Z</time></trkpt><trkpt lat="40.04862640851416" lon="9.646361671490421"><ele>492.0</ele><time>2026-04-11T14:37:07Z</time></trkpt><trkpt lat="40.04850500549844" lon="9.646596614658824"><ele>486.33333333333337</ele><time>2026-04-11T14:37:08Z</time></trkpt><trkpt lat="40.048384937985475" lon="9.646823462550836"><ele>480.6666666666667</ele><time>2026-04-11T14:37:09Z</time></trkpt><trkpt lat="40.04826719810728" lon="9.647030656194106"><ele>475.0</ele><time>2026-04-11T14:37:10Z</time></trkpt><trkpt lat="40.04815614640833" lon="9.647224700564731"><ele>475.0</ele><time>2026-04-11T14:37:11Z</time></trkpt><trkpt lat="40.04806184779231" lon="9.647425355033894"><ele>475.0</ele><time>2026-04-11T14:37:12Z</time></trkpt><trkpt lat="40.047994607382655" lon="9.647663236856845"><ele>475.0</ele><time>2026-04-11T14:37:13Z</time></trkpt><trkpt lat="40.04794581433212" lon="9.64792794102792"><ele>481.0</ele><time>2026-04-11T14:37:14Z</time></trkpt><trkpt lat="40.047900443061934" lon="9.648192870921353"><ele>487.0</ele><time>2026-04-11T14:37:15Z</time></trkpt><trkpt lat="40.04784296279546" lon="9.648433212095085"><ele>493.0</ele><time>2026-04-11T14:37:16Z</time></trkpt><trkpt lat="40.0477587869797" lon="9.648654705376263"><ele>490.6666666666667</ele><time>2026-04-11T14:37:17Z</time></trkpt><trkpt lat="40.04764683938148" lon="9.64884147778941"><ele>488.33333333333337</ele><time>2026-04-11T14:37:18Z</time></trkpt><trkpt lat="40.047525446167214" lon="9.648981644200271"><ele>486.0</ele><time>2026-04-11T14:37:19Z</time></trkpt><trkpt lat="40.047370012777165" lon="9.649070622576332"><ele>486.0</ele><time>2026-04-11T14:37:20Z</time></trkpt><trkpt lat="40.047198223477885" lon="9.64914948211428"><ele>486.0</ele><time>2026-04-11T14:37:21Z</time></trkpt><trkpt lat="40.04704546934491" lon="9.6492846347782"><ele>486.0</ele><time>2026-04-11T14:37:22Z</time></trkpt><trkpt lat="40.046906956486104" lon="9.649488106282703"><ele>480.0</ele><time>2026-04-11T14:37:23Z</time></trkpt><trkpt lat="40.04675815966955" lon="9.64970766194742"><ele>474.0</ele><time>2026-04-11T14:37:24Z</time></trkpt><trkpt lat="40.0466062314274" lon="9.649939050647163"><ele>474.0</ele><time>2026-04-11T14:37:25Z</time></trkpt><trkpt lat="40.04644768157223" lon="9.650177474245028"><ele>474.0</ele><time>2026-04-11T14:37:26Z</time></trkpt><trkpt lat="40.046278641319425" lon="9.650412549340405"><ele>484.0</ele><time>2026-04-11T14:37:27Z</time></trkpt><trkpt lat="40.04611185726935" lon="9.650638437254372"><ele>494.0</ele><time>2026-04-11T14:37:28Z</time></trkpt><trkpt lat="40.04594980252442" lon="9.65086588279354"><ele>484.0</ele><time>2026-04-11T14:37:29Z</time></trkpt><trkpt lat="40.04579090379129" lon="9.6511040119337"><ele>474.0</ele><time>2026-04-11T14:37:30Z</time></trkpt><trkpt lat="40.0456363907449" lon="9.651353547923353"><ele>474.0</ele><time>2026-04-11T14:37:31Z</time></trkpt><trkpt lat="40.04549640101352" lon="9.651618754326496"><ele>474.0</ele><time>2026-04-11T14:37:32Z</time></trkpt><trkpt lat="40.04537740800627" lon="9.651906056581979"><ele>482.5</ele><time>2026-04-11T14:37:33Z</time></trkpt><trkpt lat="40.04526338512504" lon="9.652199578529647"><ele>491.0</ele><time>2026-04-11T14:37:34Z</time></trkpt><trkpt lat="40.045142992943525" lon="9.65248109898664"><ele>491.0</ele><time>2026-04-11T14:37:35Z</time></trkpt><trkpt lat="40.04502036914167" lon="9.652745339711592"><ele>491.0</ele><time>2026-04-11T14:37:36Z</time></trkpt><trkpt lat="40.04489200576022" lon="9.653006672121654"><ele>483.0</ele><time>2026-04-11T14:37:37Z</time></trkpt><trkpt lat="40.044764610382195" lon="9.653268019018268"><ele>475.0</ele><time>2026-04-11T14:37:38Z</time></trkpt><trkpt lat="40.0446422061585" lon="9.653519644431512"><ele>484.0</ele><time>2026-04-11T14:37:39Z</time></trkpt><trkpt lat="40.04452014423441" lon="9.653758366106043"><ele>493.0</ele><time>2026-04-11T14:37:40Z</time></trkpt><trkpt lat="40.04438975559411" lon="9.653980053636493"><ele>502.0</ele><time>2026-04-11T14:37:41Z</time></trkpt><trkpt lat="40.04424892279081" lon="9.654176715499846"><ele>500.6666666666667</ele><time>2026-04-11T14:37:42Z</time></trkpt><trkpt lat="40.04409481022527" lon="9.654348063556164"><ele>499.33333333333337</ele><time>2026-04-11T14:37:43Z</time></trkpt><trkpt lat="40.04393196003094" lon="9.654499198891523"><ele>498.0</ele><time>2026-04-11T14:37:44Z</time></trkpt><trkpt lat="40.04375844080501" lon="9.654637133315406"><ele>498.0</ele><time>2026-04-11T14:37:45Z</time></trkpt><trkpt lat="40.043590865133986" lon="9.654754851257119"><ele>498.0</ele><time>2026-04-11T14:37:46Z</time></trkpt><trkpt lat="40.043430177301815" lon="9.654868605069764"><ele>498.0</ele><time>2026-04-11T14:37:47Z</time></trkpt><trkpt lat="40.04327769112643" lon="9.654981071474015"><ele>490.0</ele><time>2026-04-11T14:37:48Z</time></trkpt><trkpt lat="40.0431330950224" lon="9.65508460502723"><ele>482.0</ele><time>2026-04-11T14:37:49Z</time></trkpt><trkpt lat="40.04299555593004" lon="9.655180314490513"><ele>474.0</ele><time>2026-04-11T14:37:50Z</time></trkpt><trkpt lat="40.042865675228526" lon="9.655269789121864"><ele>480.75</ele><time>2026-04-11T14:37:51Z</time></trkpt><trkpt lat="40.042743966240046" lon="9.655359858094277"><ele>487.5</ele><time>2026-04-11T14:37:52Z</time></trkpt><trkpt lat="40.04263843411168" lon="9.655461458630088"><ele>494.25</ele><time>2026-04-11T14:37:53Z</time></trkpt><trkpt lat="40.04255369916478" lon="9.655581396032604"><ele>501.0</ele><time>2026-04-11T14:37:54Z</time></trkpt><trkpt lat="40.042490548343196" lon="9.65571387781768"><ele>501.5</ele><time>2026-04-11T14:37:55Z</time></trkpt><trkpt lat="40.04242943813989" lon="9.65583846004346"><ele>502.0</ele><time>2026-04-11T14:37:56Z</time></trkpt><trkpt lat="40.042353380973616" lon="9.655948384379293"><ele>502.5</ele><time>2026-04-11T14:37:57Z</time></trkpt><trkpt lat="40.042258067728405" lon="9.656043656465384"><ele>503.0</ele><time>2026-04-11T14:37:58Z</time></trkpt><trkpt lat="40.042157369810425" lon="9.656129835467402"><ele>503.0</ele><time>2026-04-11T14:37:59Z</time></trkpt><trkpt lat="40.04205035051298" lon="9.656211080379663"><ele>503.0</ele><time>2026-04-11T14:38:00Z</time></trkpt><trkpt lat="40.04193213329293" lon="9.656262185829078"><ele>503.0</ele><time>2026-04-11T14:38:01Z</time></trkpt><trkpt lat="40.041810196423185" lon="9.656294712210995"><ele>503.0</ele><time>2026-04-11T14:38:02Z</time></trkpt><trkpt lat="40.04167933103037" lon="9.656336389160773"><ele>498.3333333333333</ele><time>2026-04-11T14:38:03Z</time></trkpt><trkpt lat="40.041539846118894" lon="9.656414060125204"><ele>493.66666666666663</ele><time>2026-04-11T14:38:04Z</time></trkpt><trkpt lat="40.04139912879157" lon="9.656518439687948"><ele>489.0</ele><time>2026-04-11T14:38:05Z</time></trkpt><trkpt lat="40.04124739604579" lon="9.656636118634289"><ele>489.0</ele><time>2026-04-11T14:38:06Z</time></trkpt><trkpt lat="40.04108378326152" lon="9.656764123298808"><ele>489.0</ele><time>2026-04-11T14:38:07Z</time></trkpt><trkpt lat="40.040901068710134" lon="9.656910807686522"><ele>489.0</ele><time>2026-04-11T14:38:08Z</time></trkpt><trkpt lat="40.040708565068535" lon="9.657058131564693"><ele>492.0</ele><time>2026-04-11T14:38:09Z</time></trkpt><trkpt lat="40.04051621421249" lon="9.657195768037868"><ele>495.0</ele><time>2026-04-11T14:38:10Z</time></trkpt><trkpt lat="40.0403350450963" lon="9.657328462357336"><ele>498.0</ele><time>2026-04-11T14:38:11Z</time></trkpt><trkpt lat="40.040161170541396" lon="9.65744909975945"><ele>498.0</ele><time>2026-04-11T14:38:12Z</time></trkpt><trkpt lat="40.039989543452926" lon="9.657541568037763"><ele>498.0</ele><time>2026-04-11T14:38:13Z</time></trkpt><trkpt lat="40.03980886769763" lon="9.657610756469904"><ele>498.0</ele><time>2026-04-11T14:38:14Z</time></trkpt><trkpt lat="40.03962590998883" lon="9.657670673671477"><ele>502.66666666666663</ele><time>2026-04-11T14:38:15Z</time></trkpt><trkpt lat="40.03944804002804" lon="9.65774059131502"><ele>507.3333333333333</ele><time>2026-04-11T14:38:16Z</time></trkpt><trkpt lat="40.03927488292129" lon="9.657813316705974"><ele>512.0</ele><time>2026-04-11T14:38:17Z</time></trkpt><trkpt lat="40.03911376295698" lon="9.657888425574109"><ele>512.0</ele><time>2026-04-11T14:38:18Z</time></trkpt><trkpt lat="40.038958064488824" lon="9.657960701047141"><ele>512.0</ele><time>2026-04-11T14:38:19Z</time></trkpt><trkpt lat="40.038757614835305" lon="9.658043725084159"><ele>512.0</ele><time>2026-04-11T14:38:20Z</time></trkpt><trkpt lat="40.03859494149382" lon="9.658078499756003"><ele>512.0</ele><time>2026-04-11T14:38:21Z</time></trkpt><trkpt lat="40.038434629102255" lon="9.658083622028725"><ele>512.0</ele><time>2026-04-11T14:38:22Z</time></trkpt><trkpt lat="40.03828549225306" lon="9.658085841002267"><ele>512.0</ele><time>2026-04-11T14:38:23Z</time></trkpt><trkpt lat="40.03814638261594" lon="9.658097757359458"><ele>512.0</ele><time>2026-04-11T14:38:24Z</time></trkpt><trkpt lat="40.03801105327165" lon="9.658121225331342"><ele>508.5</ele><time>2026-04-11T14:38:25Z</time></trkpt><trkpt lat="40.03787865655438" lon="9.658146752285845"><ele>505.0</ele><time>2026-04-11T14:38:26Z</time></trkpt><trkpt lat="40.037751871474455" lon="9.65815682182932"><ele>501.5</ele><time>2026-04-11T14:38:27Z</time></trkpt><trkpt lat="40.03763500723917" lon="9.658113081097184"><ele>498.0</ele><time>2026-04-11T14:38:28Z</time></trkpt><trkpt lat="40.03751069943676" lon="9.65810333660157"><ele>497.5</ele><time>2026-04-11T14:38:29Z</time></trkpt><trkpt lat="40.03738265604108" lon="9.65814061045939"><ele>497.0</ele><time>2026-04-11T14:38:30Z</time></trkpt><trkpt lat="40.03725687716671" lon="9.65817065644075"><ele>496.5</ele><time>2026-04-11T14:38:31Z</time></trkpt><trkpt lat="40.037132659376546" lon="9.658203197976391"><ele>496.0</ele><time>2026-04-11T14:38:32Z</time></trkpt><trkpt lat="40.03701037856917" lon="9.65818776619598"><ele>496.0</ele><time>2026-04-11T14:38:33Z</time></trkpt><trkpt lat="40.036898030021455" lon="9.6581507847897"><ele>496.0</ele><time>2026-04-11T14:38:34Z</time></trkpt><trkpt lat="40.03677511351199" lon="9.658111424741792"><ele>496.0</ele><time>2026-04-11T14:38:35Z</time></trkpt><trkpt lat="40.03665477036265" lon="9.658084198320417"><ele>496.0</ele><time>2026-04-11T14:38:36Z</time></trkpt><trkpt lat="40.03652190006049" lon="9.658078933038018"><ele>493.0</ele><time>2026-04-11T14:38:37Z</time></trkpt><trkpt lat="40.036402701564604" lon="9.658126483319826"><ele>490.0</ele><time>2026-04-11T14:38:38Z</time></trkpt><trkpt lat="40.03629403806747" lon="9.658167914251468"><ele>487.0</ele><time>2026-04-11T14:38:39Z</time></trkpt><trkpt lat="40.03619481835786" lon="9.658247140030442"><ele>484.0</ele><time>2026-04-11T14:38:40Z</time></trkpt><trkpt lat="40.036102526482935" lon="9.658316404635178"><ele>484.0</ele><time>2026-04-11T14:38:41Z</time></trkpt><trkpt lat="40.03601290222171" lon="9.658373564849859"><ele>484.0</ele><time>2026-04-11T14:38:42Z</time></trkpt><trkpt lat="40.035919720251286" lon="9.658429880360568"><ele>484.0</ele><time>2026-04-11T14:38:43Z</time></trkpt><trkpt lat="40.03583516420034" lon="9.658511785981577"><ele>484.0</ele><time>2026-04-11T14:38:44Z</time></trkpt><trkpt lat="40.0357772447563" lon="9.658635310383925"><ele>484.0</ele><time>2026-04-11T14:38:45Z</time></trkpt><trkpt lat="40.035741679850545" lon="9.658782107453957"><ele>478.75</ele><time>2026-04-11T14:38:46Z</time></trkpt><trkpt lat="40.03570744180469" lon="9.658935746010787"><ele>473.5</ele><time>2026-04-11T14:38:47Z</time></trkpt><trkpt lat="40.03565774591885" lon="9.659075379363601"><ele>468.25</ele><time>2026-04-11T14:38:48Z</time></trkpt><trkpt lat="40.03560701983205" lon="9.659219967397311"><ele>463.0</ele><time>2026-04-11T14:38:49Z</time></trkpt><trkpt lat="40.035561394837366" lon="9.659366624565566"><ele>467.5</ele><time>2026-04-11T14:38:50Z</time></trkpt><trkpt lat="40.035512235635984" lon="9.659500331518544"><ele>472.0</ele><time>2026-04-11T14:38:51Z</time></trkpt><trkpt lat="40.03544980070265" lon="9.659635287136473"><ele>476.5</ele><time>2026-04-11T14:38:52Z</time></trkpt><trkpt lat="40.0353910799313" lon="9.659753978884229"><ele>481.0</ele><time>2026-04-11T14:38:53Z</time></trkpt><trkpt lat="40.03529966018441" lon="9.65984007614299"><ele>481.0</ele><time>2026-04-11T14:38:54Z</time></trkpt><trkpt lat="40.035223008891656" lon="9.659932697521105"><ele>481.0</ele><time>2026-04-11T14:38:55Z</time></trkpt><trkpt lat="40.035150185535166" lon="9.660032519890015"><ele>481.0</ele><time>2026-04-11T14:38:56Z</time></trkpt><trkpt lat="40.03508010085058" lon="9.660119704702868"><ele>481.0</ele><time>2026-04-11T14:38:57Z</time></trkpt><trkpt lat="40.03500900013992" lon="9.66020465995622"><ele>481.0</ele><time>2026-04-11T14:38:58Z</time></trkpt><trkpt lat="40.03494351482093" lon="9.660290264556663"><ele>481.1666666666667</ele><time>2026-04-11T14:38:59Z</time></trkpt><trkpt lat="40.03487486043203" lon="9.660366208490114"><ele>481.33333333333337</ele><time>2026-04-11T14:39:00Z</time></trkpt><trkpt lat="40.03481085530607" lon="9.660445247273543"><ele>481.5</ele><time>2026-04-11T14:39:01Z</time></trkpt><trkpt lat="40.034743939556556" lon="9.660517087923743"><ele>481.66666666666663</ele><time>2026-04-11T14:39:02Z</time></trkpt><trkpt lat="40.03467956950295" lon="9.660582817929074"><ele>481.8333333333333</ele><time>2026-04-11T14:39:03Z</time></trkpt><trkpt lat="40.03461040069976" lon="9.66064391602848"><ele>482.0</ele><time>2026-04-11T14:39:04Z</time></trkpt><trkpt lat="40.03454362386401" lon="9.66070034195626"><ele>481.99999999999994</ele><time>2026-04-11T14:39:05Z</time></trkpt><trkpt lat="40.03447580312374" lon="9.660747766527484"><ele>482.0</ele><time>2026-04-11T14:39:06Z</time></trkpt><trkpt lat="40.03440392830918" lon="9.660785669813318"><ele>482.0</ele><time>2026-04-11T14:39:07Z</time></trkpt><trkpt lat="40.0343292490971" lon="9.660817873402907"><ele>482.0</ele><time>2026-04-11T14:39:08Z</time></trkpt><trkpt lat="40.034252784417994" lon="9.660840831375193"><ele>481.99999999999994</ele><time>2026-04-11T14:39:09Z</time></trkpt><trkpt lat="40.03417414722714" lon="9.660850987347517"><ele>482.0</ele><time>2026-04-11T14:39:10Z</time></trkpt><trkpt lat="40.03409703643626" lon="9.660861424441267"><ele>483.20000000000005</ele><time>2026-04-11T14:39:11Z</time></trkpt><trkpt lat="40.03401924224564" lon="9.66086887102187"><ele>484.40000000000003</ele><time>2026-04-11T14:39:12Z</time></trkpt><trkpt lat="40.0339338102909" lon="9.660906262756372"><ele>485.59999999999997</ele><time>2026-04-11T14:39:13Z</time></trkpt><trkpt lat="40.03382008482974" lon="9.660975550959272"><ele>486.79999999999995</ele><time>2026-04-11T14:39:14Z</time></trkpt><trkpt lat="40.03369216600016" lon="9.661068875497989"><ele>488.0</ele><time>2026-04-11T14:39:15Z</time></trkpt><trkpt lat="40.033564966986816" lon="9.661170203270906"><ele>488.0</ele><time>2026-04-11T14:39:16Z</time></trkpt><trkpt lat="40.03343495142476" lon="9.661273518177834"><ele>488.0</ele><time>2026-04-11T14:39:17Z</time></trkpt><trkpt lat="40.033305153506994" lon="9.661374818293426"><ele>488.0</ele><time>2026-04-11T14:39:18Z</time></trkpt><trkpt lat="40.03318031883922" lon="9.661465561762341"><ele>488.0</ele><time>2026-04-11T14:39:19Z</time></trkpt><trkpt lat="40.03306300547096" lon="9.661555323117113"><ele>487.25</ele><time>2026-04-11T14:39:20Z</time></trkpt><trkpt lat="40.032963412523955" lon="9.661652724862707"><ele>486.5</ele><time>2026-04-11T14:39:21Z</time></trkpt><trkpt lat="40.032864876197195" lon="9.661782754753208"><ele>485.75</ele><time>2026-04-11T14:39:22Z</time></trkpt><trkpt lat="40.0327915803344" lon="9.66193034068508"><ele>485.0</ele><time>2026-04-11T14:39:23Z</time></trkpt><trkpt lat="40.03272038396045" lon="9.66207360415831"><ele>485.0</ele><time>2026-04-11T14:39:24Z</time></trkpt><trkpt lat="40.03264171328731" lon="9.662209343854064"><ele>485.0</ele><time>2026-04-11T14:39:25Z</time></trkpt><trkpt lat="40.03254277471716" lon="9.662317834234493"><ele>485.0</ele><time>2026-04-11T14:39:26Z</time></trkpt><trkpt lat="40.03245294633183" lon="9.662435857497092"><ele>485.0</ele><time>2026-04-11T14:39:27Z</time></trkpt><trkpt lat="40.03237336006008" lon="9.662561290861968"><ele>484.25</ele><time>2026-04-11T14:39:28Z</time></trkpt><trkpt lat="40.03227015606424" lon="9.662660034863308"><ele>483.5</ele><time>2026-04-11T14:39:29Z</time></trkpt><trkpt lat="40.03218345040029" lon="9.662764596712439"><ele>482.75</ele><time>2026-04-11T14:39:30Z</time></trkpt><trkpt lat="40.03210657120897" lon="9.662868869826939"><ele>482.0</ele><time>2026-04-11T14:39:31Z</time></trkpt><trkpt lat="40.03202385184879" lon="9.662967281013927"><ele>482.0</ele><time>2026-04-11T14:39:32Z</time></trkpt><trkpt lat="40.031947623117965" lon="9.663066577226326"><ele>482.00000000000006</ele><time>2026-04-11T14:39:33Z</time></trkpt><trkpt lat="40.03185645331645" lon="9.663130534980633"><ele>482.00000000000006</ele><time>2026-04-11T14:39:34Z</time></trkpt><trkpt lat="40.03176313387017" lon="9.663180699878943"><ele>482.0</ele><time>2026-04-11T14:39:35Z</time></trkpt><trkpt lat="40.03166157421284" lon="9.663252045326292"><ele>482.0</ele><time>2026-04-11T14:39:36Z</time></trkpt><trkpt lat="40.03156518572768" lon="9.66334825610698"><ele>481.8</ele><time>2026-04-11T14:39:37Z</time></trkpt><trkpt lat="40.03148944736189" lon="9.663454321180854"><ele>481.6</ele><time>2026-04-11T14:39:38Z</time></trkpt><trkpt lat="40.031419578722534" lon="9.663559432900056"><ele>481.40000000000003</ele><time>2026-04-11T14:39:39Z</time></trkpt><trkpt lat="40.03135499488953" lon="9.663667113751298"><ele>481.20000000000005</ele><time>2026-04-11T14:39:40Z</time></trkpt><trkpt lat="40.03129201192907" lon="9.66377475705184"><ele>481.0</ele><time>2026-04-11T14:39:41Z</time></trkpt><trkpt lat="40.031225865572694" lon="9.66389449311455"><ele>481.0</ele><time>2026-04-11T14:39:42Z</time></trkpt><trkpt lat="40.03115958615319" lon="9.664007212462183"><ele>481.0</ele><time>2026-04-11T14:39:43Z</time></trkpt><trkpt lat="40.03108653179994" lon="9.664106432985687"><ele>481.0</ele><time>2026-04-11T14:39:44Z</time></trkpt><trkpt lat="40.03100962784089" lon="9.66417109576626"><ele>481.0</ele><time>2026-04-11T14:39:45Z</time></trkpt><trkpt lat="40.0309257720181" lon="9.664220847090744"><ele>481.0</ele><time>2026-04-11T14:39:46Z</time></trkpt><trkpt lat="40.030838039859766" lon="9.664263645052248"><ele>481.1666666666667</ele><time>2026-04-11T14:39:47Z</time></trkpt><trkpt lat="40.03075575544851" lon="9.664295127706325"><ele>481.33333333333337</ele><time>2026-04-11T14:39:48Z</time></trkpt><trkpt lat="40.030670273156844" lon="9.664328535765733"><ele>481.5</ele><time>2026-04-11T14:39:49Z</time></trkpt><trkpt lat="40.030591816546014" lon="9.664367812992499"><ele>481.66666666666663</ele><time>2026-04-11T14:39:50Z</time></trkpt><trkpt lat="40.030516107024376" lon="9.66441213180441"><ele>481.8333333333333</ele><time>2026-04-11T14:39:51Z</time></trkpt><trkpt lat="40.030440591595536" lon="9.664461551762752"><ele>482.0</ele><time>2026-04-11T14:39:52Z</time></trkpt><trkpt lat="40.030375169719086" lon="9.664506937652435"><ele>481.99999999999994</ele><time>2026-04-11T14:39:53Z</time></trkpt><trkpt lat="40.03031125647859" lon="9.664551276889405"><ele>482.0</ele><time>2026-04-11T14:39:54Z</time></trkpt><trkpt lat="40.03025065661444" lon="9.66459331752514"><ele>482.0</ele><time>2026-04-11T14:39:55Z</time></trkpt><trkpt lat="40.03018915488382" lon="9.664635983813104"><ele>482.0</ele><time>2026-04-11T14:39:56Z</time></trkpt><trkpt lat="40.030120710329534" lon="9.664683466621558"><ele>481.99999999999994</ele><time>2026-04-11T14:39:57Z</time></trkpt><trkpt lat="40.030051543471096" lon="9.66473145034362"><ele>482.0</ele><time>2026-04-11T14:39:58Z</time></trkpt><trkpt lat="40.02998073448962" lon="9.664798097474936"><ele>480.20000000000005</ele><time>2026-04-11T14:39:59Z</time></trkpt><trkpt lat="40.029908784729784" lon="9.664874726610929"><ele>478.40000000000003</ele><time>2026-04-11T14:40:00Z</time></trkpt><trkpt lat="40.02984384368653" lon="9.664979836263747"><ele>476.59999999999997</ele><time>2026-04-11T14:40:01Z</time></trkpt><trkpt lat="40.029784652502514" lon="9.665085494717923"><ele>474.79999999999995</ele><time>2026-04-11T14:40:02Z</time></trkpt><trkpt lat="40.02975983338148" lon="9.665233123079402"><ele>473.0</ele><time>2026-04-11T14:40:03Z</time></trkpt><trkpt lat="40.029700789206075" lon="9.665347498049737"><ele>472.99999999999994</ele><time>2026-04-11T14:40:04Z</time></trkpt><trkpt lat="40.029646771736964" lon="9.665450592619665"><ele>473.0</ele><time>2026-04-11T14:40:05Z</time></trkpt><trkpt lat="40.02959170808377" lon="9.665547497396986"><ele>473.0</ele><time>2026-04-11T14:40:06Z</time></trkpt><trkpt lat="40.02954269658776" lon="9.665636091598495"><ele>473.0</ele><time>2026-04-11T14:40:07Z</time></trkpt><trkpt lat="40.02949614189278" lon="9.66572061552957"><ele>472.99999999999994</ele><time>2026-04-11T14:40:08Z</time></trkpt><trkpt lat="40.02941211873273" lon="9.665763981698657"><ele>473.0</ele><time>2026-04-11T14:40:09Z</time></trkpt><trkpt lat="40.029352977048774" lon="9.665844908864177"><ele>473.0</ele><time>2026-04-11T14:40:10Z</time></trkpt><trkpt lat="40.02928247897041" lon="9.665926370562227"><ele>472.99999999999994</ele><time>2026-04-11T14:40:11Z</time></trkpt><trkpt lat="40.029203196045195" lon="9.665987916821628"><ele>472.99999999999994</ele><time>2026-04-11T14:40:12Z</time></trkpt><trkpt lat="40.02913570680334" lon="9.66608977001265"><ele>473.0</ele><time>2026-04-11T14:40:13Z</time></trkpt><trkpt lat="40.02904524304598" lon="9.666137437297309"><ele>473.0</ele><time>2026-04-11T14:40:14Z</time></trkpt><trkpt lat="40.028964898169704" lon="9.66619111691292"><ele>472.0</ele><time>2026-04-11T14:40:15Z</time></trkpt><trkpt lat="40.02888818897803" lon="9.666252973477206"><ele>470.99999999999994</ele><time>2026-04-11T14:40:16Z</time></trkpt><trkpt lat="40.02881166893495" lon="9.666342896651145"><ele>469.99999999999994</ele><time>2026-04-11T14:40:17Z</time></trkpt><trkpt lat="40.02873290372936" lon="9.666430603384821"><ele>469.0</ele><time>2026-04-11T14:40:18Z</time></trkpt><trkpt lat="40.02865907115582" lon="9.666532617229052"><ele>468.0</ele><time>2026-04-11T14:40:19Z</time></trkpt><trkpt lat="40.028578689823604" lon="9.666609914521933"><ele>468.0</ele><time>2026-04-11T14:40:20Z</time></trkpt><trkpt lat="40.028493108683215" lon="9.666666440303446"><ele>467.99999999999994</ele><time>2026-04-11T14:40:21Z</time></trkpt><trkpt lat="40.02839832844829" lon="9.666703377936614"><ele>467.99999999999994</ele><time>2026-04-11T14:40:22Z</time></trkpt><trkpt lat="40.02830080192297" lon="9.666736186862984"><ele>468.0</ele><time>2026-04-11T14:40:23Z</time></trkpt><trkpt lat="40.02819634707767" lon="9.666761265498717"><ele>468.0</ele><time>2026-04-11T14:40:24Z</time></trkpt><trkpt lat="40.028086834731276" lon="9.666782455153154"><ele>463.2</ele><time>2026-04-11T14:40:25Z</time></trkpt><trkpt lat="40.02797617765709" lon="9.666813786976896"><ele>458.4</ele><time>2026-04-11T14:40:26Z</time></trkpt><trkpt lat="40.02786888234508" lon="9.66684057453387"><ele>453.59999999999997</ele><time>2026-04-11T14:40:27Z</time></trkpt><trkpt lat="40.02776485181813" lon="9.666855334596688"><ele>448.79999999999995</ele><time>2026-04-11T14:40:28Z</time></trkpt><trkpt lat="40.02766960495207" lon="9.666879438592021"><ele>444.0</ele><time>2026-04-11T14:40:29Z</time></trkpt><trkpt lat="40.02757063395969" lon="9.666933380413958"><ele>443.0</ele><time>2026-04-11T14:40:30Z</time></trkpt><trkpt lat="40.0274813011968" lon="9.66702761412326"><ele>442.0</ele><time>2026-04-11T14:40:31Z</time></trkpt><trkpt lat="40.027405193677666" lon="9.667148076878203"><ele>441.0</ele><time>2026-04-11T14:40:32Z</time></trkpt><trkpt lat="40.02732093964022" lon="9.667269449688968"><ele>440.0</ele><time>2026-04-11T14:40:33Z</time></trkpt><trkpt lat="40.02722490551368" lon="9.667374465258476"><ele>440.0</ele><time>2026-04-11T14:40:34Z</time></trkpt><trkpt lat="40.027125035494265" lon="9.6674778988125"><ele>440.0</ele><time>2026-04-11T14:40:35Z</time></trkpt><trkpt lat="40.02702521603818" lon="9.667594052955126"><ele>440.0</ele><time>2026-04-11T14:40:36Z</time></trkpt><trkpt lat="40.02692730680547" lon="9.667724612364168"><ele>440.0</ele><time>2026-04-11T14:40:37Z</time></trkpt><trkpt lat="40.0268341503916" lon="9.667865296784074"><ele>438.5</ele><time>2026-04-11T14:40:38Z</time></trkpt><trkpt lat="40.02673744331172" lon="9.668009555082755"><ele>437.0</ele><time>2026-04-11T14:40:39Z</time></trkpt><trkpt lat="40.02664071766286" lon="9.668149911250513"><ele>435.5</ele><time>2026-04-11T14:40:40Z</time></trkpt><trkpt lat="40.02654551442997" lon="9.668286040410736"><ele>434.0</ele><time>2026-04-11T14:40:41Z</time></trkpt><trkpt lat="40.026450731261136" lon="9.66842347011751"><ele>434.0</ele><time>2026-04-11T14:40:42Z</time></trkpt><trkpt lat="40.026364000281504" lon="9.668569328732172"><ele>434.0</ele><time>2026-04-11T14:40:43Z</time></trkpt><trkpt lat="40.02628882236114" lon="9.668731577700441"><ele>434.0</ele><time>2026-04-11T14:40:44Z</time></trkpt><trkpt lat="40.026215886627504" lon="9.668900495124694"><ele>434.0</ele><time>2026-04-11T14:40:45Z</time></trkpt><trkpt lat="40.026134250748335" lon="9.669061935223114"><ele>435.25</ele><time>2026-04-11T14:40:46Z</time></trkpt><trkpt lat="40.026039802899675" lon="9.669210270003417"><ele>436.5</ele><time>2026-04-11T14:40:47Z</time></trkpt><trkpt lat="40.02593409313256" lon="9.669342270572134"><ele>437.75</ele><time>2026-04-11T14:40:48Z</time></trkpt><trkpt lat="40.02581650107198" lon="9.669455305961602"><ele>439.0</ele><time>2026-04-11T14:40:49Z</time></trkpt><trkpt lat="40.02567916637599" lon="9.669529694306751"><ele>439.0</ele><time>2026-04-11T14:40:50Z</time></trkpt><trkpt lat="40.02553900804791" lon="9.6695532740049"><ele>439.0</ele><time>2026-04-11T14:40:51Z</time></trkpt><trkpt lat="40.02540216396133" lon="9.669610987632053"><ele>439.0</ele><time>2026-04-11T14:40:52Z</time></trkpt><trkpt lat="40.025284099279865" lon="9.669719964152995"><ele>439.0</ele><time>2026-04-11T14:40:53Z</time></trkpt><trkpt lat="40.02517110519439" lon="9.669835730947593"><ele>439.0</ele><time>2026-04-11T14:40:54Z</time></trkpt><trkpt lat="40.02508065117554" lon="9.66999465021983"><ele>439.0</ele><time>2026-04-11T14:40:55Z</time></trkpt><trkpt lat="40.02500207780335" lon="9.670168020971754"><ele>439.0</ele><time>2026-04-11T14:40:56Z</time></trkpt><trkpt lat="40.02492644045286" lon="9.670347401320802"><ele>438.0</ele><time>2026-04-11T14:40:57Z</time></trkpt><trkpt lat="40.02484182201434" lon="9.670517977471217"><ele>437.0</ele><time>2026-04-11T14:40:58Z</time></trkpt><trkpt lat="40.024732773412865" lon="9.670664972360278"><ele>436.0</ele><time>2026-04-11T14:40:59Z</time></trkpt><trkpt lat="40.02459783407848" lon="9.67075804373476"><ele>436.0</ele><time>2026-04-11T14:41:00Z</time></trkpt><trkpt lat="40.02445068630577" lon="9.670811535170586"><ele>436.0</ele><time>2026-04-11T14:41:01Z</time></trkpt><trkpt lat="40.024294094405754" lon="9.670823770580682"><ele>436.0</ele><time>2026-04-11T14:41:02Z</time></trkpt><trkpt lat="40.024139083553344" lon="9.670817624028883"><ele>428.33333333333337</ele><time>2026-04-11T14:41:03Z</time></trkpt><trkpt lat="40.02398828203888" lon="9.670829502078812"><ele>420.66666666666663</ele><time>2026-04-11T14:41:04Z</time></trkpt><trkpt lat="40.023832710195805" lon="9.670890310613444"><ele>413.0</ele><time>2026-04-11T14:41:05Z</time></trkpt><trkpt lat="40.02368594294748" lon="9.67098878202875"><ele>408.66666666666663</ele><time>2026-04-11T14:41:06Z</time></trkpt><trkpt lat="40.023544639722026" lon="9.67111937213579"><ele>404.33333333333337</ele><time>2026-04-11T14:41:07Z</time></trkpt><trkpt lat="40.023410026494936" lon="9.671266266850651"><ele>400.0</ele><time>2026-04-11T14:41:08Z</time></trkpt><trkpt lat="40.02327613589397" lon="9.671418335332476"><ele>400.0</ele><time>2026-04-11T14:41:09Z</time></trkpt><trkpt lat="40.023153312994005" lon="9.671590576701629"><ele>400.0</ele><time>2026-04-11T14:41:10Z</time></trkpt><trkpt lat="40.02304435525611" lon="9.671782707923683"><ele>400.0</ele><time>2026-04-11T14:41:11Z</time></trkpt><trkpt lat="40.0229420758843" lon="9.671987770601936"><ele>408.6666666666667</ele><time>2026-04-11T14:41:12Z</time></trkpt><trkpt lat="40.02283346720597" lon="9.672184719268696"><ele>417.33333333333337</ele><time>2026-04-11T14:41:13Z</time></trkpt><trkpt lat="40.0227074049017" lon="9.672359161816784"><ele>426.0</ele><time>2026-04-11T14:41:14Z</time></trkpt><trkpt lat="40.022556481712" lon="9.67250597817818"><ele>419.66666666666663</ele><time>2026-04-11T14:41:15Z</time></trkpt><trkpt lat="40.02240861350152" lon="9.672647696247461"><ele>413.3333333333333</ele><time>2026-04-11T14:41:16Z</time></trkpt><trkpt lat="40.022260706988675" lon="9.672803114513716"><ele>407.0</ele><time>2026-04-11T14:41:17Z</time></trkpt><trkpt lat="40.02211941739301" lon="9.672976280696469"><ele>407.0</ele><time>2026-04-11T14:41:18Z</time></trkpt><trkpt lat="40.02199859754247" lon="9.673173925501157"><ele>407.0</ele><time>2026-04-11T14:41:19Z</time></trkpt><trkpt lat="40.021891868902436" lon="9.673382665781226"><ele>407.0</ele><time>2026-04-11T14:41:20Z</time></trkpt><trkpt lat="40.02176576216011" lon="9.6735751414325"><ele>405.3333333333333</ele><time>2026-04-11T14:41:21Z</time></trkpt><trkpt lat="40.02161150161109" lon="9.673755225673426"><ele>403.66666666666663</ele><time>2026-04-11T14:41:22Z</time></trkpt><trkpt lat="40.0214842757928" lon="9.673906782299538"><ele>402.0</ele><time>2026-04-11T14:41:23Z</time></trkpt><trkpt lat="40.02134806552463" lon="9.674087895103478"><ele>402.0</ele><time>2026-04-11T14:41:24Z</time></trkpt><trkpt lat="40.02121608509381" lon="9.674267064301503"><ele>402.0</ele><time>2026-04-11T14:41:25Z</time></trkpt><trkpt lat="40.0210897729962" lon="9.674447225531779"><ele>402.0</ele><time>2026-04-11T14:41:26Z</time></trkpt><trkpt lat="40.020973855051764" lon="9.67464248757021"><ele>407.0</ele><time>2026-04-11T14:41:27Z</time></trkpt><trkpt lat="40.020870512056284" lon="9.674852062012926"><ele>412.0</ele><time>2026-04-11T14:41:28Z</time></trkpt><trkpt lat="40.020780893218976" lon="9.675079849974178"><ele>417.0</ele><time>2026-04-11T14:41:29Z</time></trkpt><trkpt lat="40.02069840472884" lon="9.675315605377794"><ele>404.0</ele><time>2026-04-11T14:41:30Z</time></trkpt><trkpt lat="40.02064196256648" lon="9.675568479041965"><ele>391.0</ele><time>2026-04-11T14:41:31Z</time></trkpt><trkpt lat="40.02060067446449" lon="9.67582797150481"><ele>378.0</ele><time>2026-04-11T14:41:32Z</time></trkpt><trkpt lat="40.02055973538898" lon="9.676084709428563"><ele>379.3333333333333</ele><time>2026-04-11T14:41:33Z</time></trkpt><trkpt lat="40.02051178082888" lon="9.676329345181061"><ele>380.66666666666663</ele><time>2026-04-11T14:41:34Z</time></trkpt><trkpt lat="40.02045404337748" lon="9.676553085580888"><ele>382.0</ele><time>2026-04-11T14:41:35Z</time></trkpt><trkpt lat="40.02037123600037" lon="9.676744325406458"><ele>382.0</ele><time>2026-04-11T14:41:36Z</time></trkpt><trkpt lat="40.02032140291563" lon="9.676907747220218"><ele>382.0</ele><time>2026-04-11T14:41:37Z</time></trkpt><trkpt lat="40.02031851094251" lon="9.677093849534703"><ele>382.0</ele><time>2026-04-11T14:41:38Z</time></trkpt><trkpt lat="40.020312701306736" lon="9.677294889128339"><ele>382.0</ele><time>2026-04-11T14:41:39Z</time></trkpt><trkpt lat="40.02027548471934" lon="9.677477647004288"><ele>385.75</ele><time>2026-04-11T14:41:40Z</time></trkpt><trkpt lat="40.02020372330528" lon="9.677623668891522"><ele>389.5</ele><time>2026-04-11T14:41:41Z</time></trkpt><trkpt lat="40.02009202643515" lon="9.67773793946795"><ele>393.25</ele><time>2026-04-11T14:41:42Z</time></trkpt><trkpt lat="40.01996166604445" lon="9.677841427634283"><ele>397.0</ele><time>2026-04-11T14:41:43Z</time></trkpt><trkpt lat="40.01985344017876" lon="9.67798963198144"><ele>399.5</ele><time>2026-04-11T14:41:44Z</time></trkpt><trkpt lat="40.019773165040434" lon="9.678162240895059"><ele>402.0</ele><time>2026-04-11T14:41:45Z</time></trkpt><trkpt lat="40.01969863858229" lon="9.678306167475105"><ele>404.5</ele><time>2026-04-11T14:41:46Z</time></trkpt><trkpt lat="40.01961027189309" lon="9.678403166199345"><ele>407.0</ele><time>2026-04-11T14:41:47Z</time></trkpt><trkpt lat="40.01950372805225" lon="9.67843095915878"><ele>407.0</ele><time>2026-04-11T14:41:48Z</time></trkpt><trkpt lat="40.01939020569263" lon="9.678388810646641"><ele>407.0</ele><time>2026-04-11T14:41:49Z</time></trkpt><trkpt lat="40.01926046209033" lon="9.67832763938797"><ele>407.0</ele><time>2026-04-11T14:41:50Z</time></trkpt><trkpt lat="40.01911062620394" lon="9.678281739244742"><ele>407.0</ele><time>2026-04-11T14:41:51Z</time></trkpt><trkpt lat="40.01895278942531" lon="9.67824995755986"><ele>405.66666666666663</ele><time>2026-04-11T14:41:52Z</time></trkpt><trkpt lat="40.01878503331244" lon="9.678219590955363"><ele>404.33333333333337</ele><time>2026-04-11T14:41:53Z</time></trkpt><trkpt lat="40.018607843489384" lon="9.678192798060289"><ele>403.0</ele><time>2026-04-11T14:41:54Z</time></trkpt><trkpt lat="40.01842201720831" lon="9.678187373868548"><ele>402.0</ele><time>2026-04-11T14:41:55Z</time></trkpt><trkpt lat="40.01823743772232" lon="9.678200556223125"><ele>401.0</ele><time>2026-04-11T14:41:56Z</time></trkpt><trkpt lat="40.01805653546291" lon="9.678221722144253"><ele>400.0</ele><time>2026-04-11T14:41:57Z</time></trkpt><trkpt lat="40.017885068986274" lon="9.678242877872073"><ele>400.0</ele><time>2026-04-11T14:41:58Z</time></trkpt><trkpt lat="40.01773765157248" lon="9.67825049992795"><ele>400.0</ele><time>2026-04-11T14:41:59Z</time></trkpt><trkpt lat="40.01761475461549" lon="9.678203974771074"><ele>400.0</ele><time>2026-04-11T14:42:00Z</time></trkpt><trkpt lat="40.017510412289816" lon="9.678104781665017"><ele>400.0</ele><time>2026-04-11T14:42:01Z</time></trkpt><trkpt lat="40.01741476527444" lon="9.678011841751385"><ele>395.25</ele><time>2026-04-11T14:42:02Z</time></trkpt><trkpt lat="40.017312816515656" lon="9.677973080689727"><ele>390.5</ele><time>2026-04-11T14:42:03Z</time></trkpt><trkpt lat="40.01721367269981" lon="9.677987981479657"><ele>385.75</ele><time>2026-04-11T14:42:04Z</time></trkpt><trkpt lat="40.01711590427725" lon="9.678062550257184"><ele>381.0</ele><time>2026-04-11T14:42:05Z</time></trkpt><trkpt lat="40.0169949100733" lon="9.67818275610393"><ele>381.0</ele><time>2026-04-11T14:42:06Z</time></trkpt><trkpt lat="40.01685686253326" lon="9.678332396759378"><ele>381.0</ele><time>2026-04-11T14:42:07Z</time></trkpt><trkpt lat="40.01672835597815" lon="9.678495944032182"><ele>381.0</ele><time>2026-04-11T14:42:08Z</time></trkpt><trkpt lat="40.01658756114483" lon="9.678603217007359"><ele>394.0</ele><time>2026-04-11T14:42:09Z</time></trkpt><trkpt lat="40.01642199998497" lon="9.678647005136645"><ele>407.0</ele><time>2026-04-11T14:42:10Z</time></trkpt><trkpt lat="40.01623932503262" lon="9.678644903583175"><ele>420.0</ele><time>2026-04-11T14:42:11Z</time></trkpt><trkpt lat="40.01604838707476" lon="9.678632774019034"><ele>420.0</ele><time>2026-04-11T14:42:12Z</time></trkpt><trkpt lat="40.015868246952756" lon="9.678603083276526"><ele>420.0</ele><time>2026-04-11T14:42:13Z</time></trkpt><trkpt lat="40.01570295373169" lon="9.67855186026159"><ele>420.0</ele><time>2026-04-11T14:42:14Z</time></trkpt><trkpt lat="40.0155491080664" lon="9.678551284768037"><ele>414.33333333333337</ele><time>2026-04-11T14:42:15Z</time></trkpt><trkpt lat="40.0154003189677" lon="9.678604631548165"><ele>408.6666666666667</ele><time>2026-04-11T14:42:16Z</time></trkpt><trkpt lat="40.015252175401265" lon="9.67862832135802"><ele>403.0</ele><time>2026-04-11T14:42:17Z</time></trkpt><trkpt lat="40.01511065293322" lon="9.67857951569077"><ele>393.5</ele><time>2026-04-11T14:42:18Z</time></trkpt><trkpt lat="40.014976392840026" lon="9.678482849457053"><ele>384.0</ele><time>2026-04-11T14:42:19Z</time></trkpt><trkpt lat="40.01485667370695" lon="9.678421018676456"><ele>374.5</ele><time>2026-04-11T14:42:20Z</time></trkpt><trkpt lat="40.01473109645601" lon="9.678406708080335"><ele>365.0</ele><time>2026-04-11T14:42:21Z</time></trkpt><trkpt lat="40.01460253981978" lon="9.67841071984449"><ele>365.0</ele><time>2026-04-11T14:42:22Z</time></trkpt><trkpt lat="40.014458869977425" lon="9.678478226707442"><ele>365.0</ele><time>2026-04-11T14:42:23Z</time></trkpt><trkpt lat="40.01431668719093" lon="9.678554447922142"><ele>365.0</ele><time>2026-04-11T14:42:24Z</time></trkpt><trkpt lat="40.01419982608079" lon="9.678592935805673"><ele>365.0</ele><time>2026-04-11T14:42:25Z</time></trkpt><trkpt lat="40.01408946510849" lon="9.678595673455968"><ele>373.25</ele><time>2026-04-11T14:42:26Z</time></trkpt><trkpt lat="40.01399315264525" lon="9.678534919181667"><ele>381.5</ele><time>2026-04-11T14:42:27Z</time></trkpt><trkpt lat="40.01395865879786" lon="9.678366671706495"><ele>389.75</ele><time>2026-04-11T14:42:28Z</time></trkpt><trkpt lat="40.013962346111306" lon="9.67819784142057"><ele>398.0</ele><time>2026-04-11T14:42:29Z</time></trkpt><trkpt lat="40.013943565346224" lon="9.677976794747835"><ele>398.0</ele><time>2026-04-11T14:42:30Z</time></trkpt><trkpt lat="40.013882262673874" lon="9.677781226451783"><ele>398.0</ele><time>2026-04-11T14:42:31Z</time></trkpt><trkpt lat="40.013803385433654" lon="9.677580949028853"><ele>398.0</ele><time>2026-04-11T14:42:32Z</time></trkpt><trkpt lat="40.01368186077292" lon="9.67742130468294"><ele>391.75</ele><time>2026-04-11T14:42:33Z</time></trkpt><trkpt lat="40.0135411610518" lon="9.677293485544954"><ele>385.5</ele><time>2026-04-11T14:42:34Z</time></trkpt><trkpt lat="40.013415338368205" lon="9.67719381473602"><ele>379.25</ele><time>2026-04-11T14:42:35Z</time></trkpt><trkpt lat="40.01333080222474" lon="9.67706505436548"><ele>373.0</ele><time>2026-04-11T14:42:36Z</time></trkpt><trkpt lat="40.01332632281871" lon="9.676907450063094"><ele>371.5</ele><time>2026-04-11T14:42:37Z</time></trkpt><trkpt lat="40.01334426049514" lon="9.676772394831906"><ele>370.0</ele><time>2026-04-11T14:42:38Z</time></trkpt><trkpt lat="40.013451238811555" lon="9.676702949613619"><ele>368.5</ele><time>2026-04-11T14:42:39Z</time></trkpt><trkpt lat="40.013554295337656" lon="9.676569086810229"><ele>367.0</ele><time>2026-04-11T14:42:40Z</time></trkpt><trkpt lat="40.013667690249385" lon="9.676405479660431"><ele>367.0</ele><time>2026-04-11T14:42:41Z</time></trkpt><trkpt lat="40.01375572479626" lon="9.676198045949686"><ele>367.0</ele><time>2026-04-11T14:42:42Z</time></trkpt><trkpt lat="40.01383459168185" lon="9.675982250502862"><ele>367.0</ele><time>2026-04-11T14:42:43Z</time></trkpt><trkpt lat="40.01387145048983" lon="9.675756656924689"><ele>366.25</ele><time>2026-04-11T14:42:44Z</time></trkpt><trkpt lat="40.01387069542349" lon="9.675557248836466"><ele>365.5</ele><time>2026-04-11T14:42:45Z</time></trkpt><trkpt lat="40.01381842509808" lon="9.675388944598078"><ele>364.75</ele><time>2026-04-11T14:42:46Z</time></trkpt><trkpt lat="40.01372219283294" lon="9.675241498422336"><ele>364.0</ele><time>2026-04-11T14:42:47Z</time></trkpt><trkpt lat="40.01360197817558" lon="9.675125121444655"><ele>361.5</ele><time>2026-04-11T14:42:48Z</time></trkpt><trkpt lat="40.01351408762913" lon="9.675023390337778"><ele>359.0</ele><time>2026-04-11T14:42:49Z</time></trkpt><trkpt lat="40.01350858518232" lon="9.674892733428383"><ele>356.5</ele><time>2026-04-11T14:42:50Z</time></trkpt><trkpt lat="40.01357328748764" lon="9.67476985636952"><ele>354.0</ele><time>2026-04-11T14:42:51Z</time></trkpt><trkpt lat="40.01362428501266" lon="9.674599230876385"><ele>351.25</ele><time>2026-04-11T14:42:52Z</time></trkpt><trkpt lat="40.0136565948534" lon="9.674410690977913"><ele>348.5</ele><time>2026-04-11T14:42:53Z</time></trkpt><trkpt lat="40.0136441183801" lon="9.674236995490714"><ele>345.75</ele><time>2026-04-11T14:42:54Z</time></trkpt><trkpt lat="40.013572240169324" lon="9.67407781764944"><ele>343.0</ele><time>2026-04-11T14:42:55Z</time></trkpt><trkpt lat="40.01344826537706" lon="9.673950010303207"><ele>343.0</ele><time>2026-04-11T14:42:56Z</time></trkpt><trkpt lat="40.013324534086514" lon="9.67380694629355"><ele>343.0</ele><time>2026-04-11T14:42:57Z</time></trkpt><trkpt lat="40.013283034776556" lon="9.673613527376242"><ele>343.0</ele><time>2026-04-11T14:42:58Z</time></trkpt><trkpt lat="40.01321793772501" lon="9.673430335897965"><ele>342.66666666666663</ele><time>2026-04-11T14:42:59Z</time></trkpt><trkpt lat="40.013139113399404" lon="9.673264183539642"><ele>342.3333333333333</ele><time>2026-04-11T14:43:00Z</time></trkpt><trkpt lat="40.01300389257628" lon="9.673115078436295"><ele>342.0</ele><time>2026-04-11T14:43:01Z</time></trkpt><trkpt lat="40.012872572858136" lon="9.672960630812629"><ele>342.0</ele><time>2026-04-11T14:43:02Z</time></trkpt><trkpt lat="40.01276588208887" lon="9.672820271399278"><ele>342.0</ele><time>2026-04-11T14:43:03Z</time></trkpt><trkpt lat="40.01265745315892" lon="9.672714304530952"><ele>342.0</ele><time>2026-04-11T14:43:04Z</time></trkpt><trkpt lat="40.012529121487134" lon="9.672662624423769"><ele>342.0</ele><time>2026-04-11T14:43:05Z</time></trkpt><trkpt lat="40.0123787123157" lon="9.67267195454774"><ele>341.25</ele><time>2026-04-11T14:43:06Z</time></trkpt><trkpt lat="40.012238304393925" lon="9.67276440944984"><ele>340.5</ele><time>2026-04-11T14:43:07Z</time></trkpt><trkpt lat="40.012132081066916" lon="9.672909065371808"><ele>339.75</ele><time>2026-04-11T14:43:08Z</time></trkpt><trkpt lat="40.01206538623967" lon="9.67303540079019"><ele>339.0</ele><time>2026-04-11T14:43:09Z</time></trkpt><trkpt lat="40.011973803818236" lon="9.673069934180958"><ele>339.0</ele><time>2026-04-11T14:43:10Z</time></trkpt><trkpt lat="40.01185829140837" lon="9.673059311262515"><ele>339.0</ele><time>2026-04-11T14:43:11Z</time></trkpt><trkpt lat="40.01178253837949" lon="9.672910444262834"><ele>339.0</ele><time>2026-04-11T14:43:12Z</time></trkpt><trkpt lat="40.011652274078585" lon="9.672816623792043"><ele>339.0</ele><time>2026-04-11T14:43:13Z</time></trkpt><trkpt lat="40.011517370980606" lon="9.67267881797681"><ele>337.3333333333333</ele><time>2026-04-11T14:43:14Z</time></trkpt><trkpt lat="40.01136273222684" lon="9.672558236700429"><ele>335.66666666666663</ele><time>2026-04-11T14:43:15Z</time></trkpt><trkpt lat="40.01121388849651" lon="9.672435826960141"><ele>334.0</ele><time>2026-04-11T14:43:16Z</time></trkpt><trkpt lat="40.011116730536756" lon="9.672285811785498"><ele>334.0</ele><time>2026-04-11T14:43:17Z</time></trkpt><trkpt lat="40.011050514116306" lon="9.672112284430517"><ele>334.0</ele><time>2026-04-11T14:43:18Z</time></trkpt><trkpt lat="40.01097442273182" lon="9.671919675578467"><ele>334.0</ele><time>2026-04-11T14:43:19Z</time></trkpt><trkpt lat="40.01092531593637" lon="9.671722982589715"><ele>329.0</ele><time>2026-04-11T14:43:20Z</time></trkpt><trkpt lat="40.01093242970243" lon="9.671517909686354"><ele>324.0</ele><time>2026-04-11T14:43:21Z</time></trkpt><trkpt lat="40.01096558632174" lon="9.671302818193292"><ele>319.0</ele><time>2026-04-11T14:43:22Z</time></trkpt><trkpt lat="40.01102702752558" lon="9.671071504667164"><ele>319.0</ele><time>2026-04-11T14:43:23Z</time></trkpt><trkpt lat="40.011107011960505" lon="9.67082093324415"><ele>319.0</ele><time>2026-04-11T14:43:24Z</time></trkpt><trkpt lat="40.01119830990774" lon="9.67058685409723"><ele>319.0</ele><time>2026-04-11T14:43:25Z</time></trkpt><trkpt lat="40.01127117133065" lon="9.670370778232687"><ele>316.3333333333333</ele><time>2026-04-11T14:43:26Z</time></trkpt><trkpt lat="40.011342160517884" lon="9.670179986552487"><ele>313.6666666666667</ele><time>2026-04-11T14:43:27Z</time></trkpt><trkpt lat="40.0113776198507" lon="9.669984008654964"><ele>311.0</ele><time>2026-04-11T14:43:28Z</time></trkpt><trkpt lat="40.011357421092306" lon="9.669798102770438"><ele>311.0</ele><time>2026-04-11T14:43:29Z</time></trkpt><trkpt lat="40.011278968032165" lon="9.669628927760826"><ele>311.0</ele><time>2026-04-11T14:43:30Z</time></trkpt><trkpt lat="40.011144050683406" lon="9.669508000696826"><ele>311.0</ele><time>2026-04-11T14:43:31Z</time></trkpt><trkpt lat="40.010988858258386" lon="9.66940440289803"><ele>304.33333333333337</ele><time>2026-04-11T14:43:32Z</time></trkpt><trkpt lat="40.01086495802698" lon="9.669248677863324"><ele>297.6666666666667</ele><time>2026-04-11T14:43:33Z</time></trkpt><trkpt lat="40.010784028220165" lon="9.669022967646125"><ele>291.0</ele><time>2026-04-11T14:43:34Z</time></trkpt><trkpt lat="40.01071077235446" lon="9.66879063814278"><ele>285.3333333333333</ele><time>2026-04-11T14:43:35Z</time></trkpt><trkpt lat="40.010638899421984" lon="9.668579624375225"><ele>279.66666666666663</ele><time>2026-04-11T14:43:36Z</time></trkpt><trkpt lat="40.01056204207185" lon="9.6684018205875"><ele>274.0</ele><time>2026-04-11T14:43:37Z</time></trkpt><trkpt lat="40.01045351008985" lon="9.66826620066059"><ele>274.0</ele><time>2026-04-11T14:43:38Z</time></trkpt><trkpt lat="40.01030254147447" lon="9.668175703053386"><ele>274.0</ele><time>2026-04-11T14:43:39Z</time></trkpt><trkpt lat="40.01015574322594" lon="9.668130453585448"><ele>274.0</ele><time>2026-04-11T14:43:40Z</time></trkpt><trkpt lat="40.01003840255922" lon="9.668136437417044"><ele>274.0</ele><time>2026-04-11T14:43:41Z</time></trkpt><trkpt lat="40.009939873641265" lon="9.668215110107402"><ele>264.75</ele><time>2026-04-11T14:43:42Z</time></trkpt><trkpt lat="40.00987878656594" lon="9.668363654153188"><ele>255.5</ele><time>2026-04-11T14:43:43Z</time></trkpt><trkpt lat="40.0098747618155" lon="9.668560271129472"><ele>246.25</ele><time>2026-04-11T14:43:44Z</time></trkpt><trkpt lat="40.009924119534496" lon="9.668758487932926"><ele>237.0</ele><time>2026-04-11T14:43:45Z</time></trkpt><trkpt lat="40.0099481741063" lon="9.668947887865784"><ele>237.0</ele><time>2026-04-11T14:43:46Z</time></trkpt><trkpt lat="40.009911651054715" lon="9.669130950150409"><ele>237.0</ele><time>2026-04-11T14:43:47Z</time></trkpt><trkpt lat="40.00979362395957" lon="9.669256280937539"><ele>237.0</ele><time>2026-04-11T14:43:48Z</time></trkpt><trkpt lat="40.00970115632156" lon="9.669459048499116"><ele>244.0</ele><time>2026-04-11T14:43:49Z</time></trkpt><trkpt lat="40.00962506384176" lon="9.66968233468199"><ele>251.0</ele><time>2026-04-11T14:43:50Z</time></trkpt><trkpt lat="40.00958342559114" lon="9.669925911509154"><ele>258.0</ele><time>2026-04-11T14:43:51Z</time></trkpt><trkpt lat="40.00953832477304" lon="9.6701504612084"><ele>263.75</ele><time>2026-04-11T14:43:52Z</time></trkpt><trkpt lat="40.00948516721464" lon="9.670345852101613"><ele>269.5</ele><time>2026-04-11T14:43:53Z</time></trkpt><trkpt lat="40.00941858827973" lon="9.670490248016705"><ele>275.25</ele><time>2026-04-11T14:43:54Z</time></trkpt><trkpt lat="40.00931993905683" lon="9.670568959687044"><ele>281.0</ele><time>2026-04-11T14:43:55Z</time></trkpt><trkpt lat="40.00919791295005" lon="9.670597058747449"><ele>277.0</ele><time>2026-04-11T14:43:56Z</time></trkpt><trkpt lat="40.00904395755938" lon="9.67065631922576"><ele>273.0</ele><time>2026-04-11T14:43:57Z</time></trkpt><trkpt lat="40.00887390301152" lon="9.670734074311195"><ele>269.0</ele><time>2026-04-11T14:43:58Z</time></trkpt><trkpt lat="40.008697148611596" lon="9.670806857128868"><ele>269.0</ele><time>2026-04-11T14:43:59Z</time></trkpt><trkpt lat="40.00852898781089" lon="9.670868924523724"><ele>269.0</ele><time>2026-04-11T14:44:00Z</time></trkpt><trkpt lat="40.00836354595699" lon="9.67085716078887"><ele>269.0</ele><time>2026-04-11T14:44:01Z</time></trkpt><trkpt lat="40.008192539994475" lon="9.670814023885002"><ele>272.75</ele><time>2026-04-11T14:44:02Z</time></trkpt><trkpt lat="40.00803346006264" lon="9.6708265820476"><ele>276.5</ele><time>2026-04-11T14:44:03Z</time></trkpt><trkpt lat="40.007912638213575" lon="9.670828736303966"><ele>280.25</ele><time>2026-04-11T14:44:04Z</time></trkpt><trkpt lat="40.00780842663429" lon="9.670767476404952"><ele>284.0</ele><time>2026-04-11T14:44:05Z</time></trkpt><trkpt lat="40.0077397740982" lon="9.670591722300436"><ele>284.0</ele><time>2026-04-11T14:44:06Z</time></trkpt><trkpt lat="40.00763009581807" lon="9.67042092499446"><ele>284.0</ele><time>2026-04-11T14:44:07Z</time></trkpt><trkpt lat="40.007513466348875" lon="9.670222853281679"><ele>284.0</ele><time>2026-04-11T14:44:08Z</time></trkpt><trkpt lat="40.007369160983" lon="9.670030252563322"><ele>282.0</ele><time>2026-04-11T14:44:09Z</time></trkpt><trkpt lat="40.007205582650656" lon="9.669858695790246"><ele>280.0</ele><time>2026-04-11T14:44:10Z</time></trkpt><trkpt lat="40.0070282972594" lon="9.669669483803855"><ele>278.0</ele><time>2026-04-11T14:44:11Z</time></trkpt><trkpt lat="40.00685771321885" lon="9.669450267502501"><ele>267.0</ele><time>2026-04-11T14:44:12Z</time></trkpt><trkpt lat="40.00669148198311" lon="9.669211390050528"><ele>256.0</ele><time>2026-04-11T14:44:13Z</time></trkpt><trkpt lat="40.006523141800095" lon="9.668982098091421"><ele>256.0</ele><time>2026-04-11T14:44:14Z</time></trkpt><trkpt lat="40.00635672344279" lon="9.668772026422866"><ele>256.0</ele><time>2026-04-11T14:44:15Z</time></trkpt><trkpt lat="40.00619461139551" lon="9.668581300561144"><ele>249.33333333333331</ele><time>2026-04-11T14:44:16Z</time></trkpt><trkpt lat="40.00604030006059" lon="9.668417113839926"><ele>242.66666666666669</ele><time>2026-04-11T14:44:17Z</time></trkpt><trkpt lat="40.00590605435166" lon="9.668276488144192"><ele>236.0</ele><time>2026-04-11T14:44:18Z</time></trkpt><trkpt lat="40.005822761762026" lon="9.668106336588767"><ele>230.66666666666669</ele><time>2026-04-11T14:44:19Z</time></trkpt><trkpt lat="40.005756671277865" lon="9.667923525820152"><ele>225.33333333333331</ele><time>2026-04-11T14:44:20Z</time></trkpt><trkpt lat="40.00572437006184" lon="9.667700150533765"><ele>220.0</ele><time>2026-04-11T14:44:21Z</time></trkpt><trkpt lat="40.00570951612824" lon="9.667462426444098"><ele>219.75</ele><time>2026-04-11T14:44:22Z</time></trkpt><trkpt lat="40.005681105633265" lon="9.667254293524422"><ele>219.5</ele><time>2026-04-11T14:44:23Z</time></trkpt><trkpt lat="40.00563003011804" lon="9.667087755261074"><ele>219.25</ele><time>2026-04-11T14:44:24Z</time></trkpt><trkpt lat="40.0055214986046" lon="9.666970638711588"><ele>219.0</ele><time>2026-04-11T14:44:25Z</time></trkpt><trkpt lat="40.00537237778259" lon="9.666911453918413"><ele>219.0</ele><time>2026-04-11T14:44:26Z</time></trkpt><trkpt lat="40.005202580168785" lon="9.666913930746933"><ele>219.0</ele><time>2026-04-11T14:44:27Z</time></trkpt><trkpt lat="40.00506256648413" lon="9.666963618072074"><ele>219.0</ele><time>2026-04-11T14:44:28Z</time></trkpt><trkpt lat="40.00497601685937" lon="9.66705685394496"><ele>219.0</ele><time>2026-04-11T14:44:29Z</time></trkpt><trkpt lat="40.004945095177035" lon="9.667191030091873"><ele>219.0</ele><time>2026-04-11T14:44:30Z</time></trkpt><trkpt lat="40.00497677462765" lon="9.667338165408466"><ele>219.0</ele><time>2026-04-11T14:44:31Z</time></trkpt><trkpt lat="40.00505080513966" lon="9.66747502877746"><ele>219.0</ele><time>2026-04-11T14:44:32Z</time></trkpt><trkpt lat="40.00512574615633" lon="9.667575432538284"><ele>219.0</ele><time>2026-04-11T14:44:33Z</time></trkpt><trkpt lat="40.00520476194992" lon="9.667658516354408"><ele>219.0</ele><time>2026-04-11T14:44:34Z</time></trkpt><trkpt lat="40.005282216955294" lon="9.66775188465575"><ele>218.99999999999997</ele><time>2026-04-11T14:44:35Z</time></trkpt><trkpt lat="40.00533559488469" lon="9.667885246353533"><ele>218.99999999999997</ele><time>2026-04-11T14:44:36Z</time></trkpt><trkpt lat="40.005378855270024" lon="9.66800981887128"><ele>219.0</ele><time>2026-04-11T14:44:37Z</time></trkpt><trkpt lat="40.00540383079729" lon="9.66815804755733"><ele>219.0</ele><time>2026-04-11T14:44:38Z</time></trkpt><trkpt lat="40.00542197473106" lon="9.668296201627141"><ele>219.2</ele><time>2026-04-11T14:44:39Z</time></trkpt><trkpt lat="40.00543864042884" lon="9.66841554146677"><ele>219.39999999999998</ele><time>2026-04-11T14:44:40Z</time></trkpt><trkpt lat="40.00543609030972" lon="9.668519792771624"><ele>219.6</ele><time>2026-04-11T14:44:41Z</time></trkpt><trkpt lat="40.00538816958751" lon="9.668604936657712"><ele>219.8</ele><time>2026-04-11T14:44:42Z</time></trkpt><trkpt lat="40.00530947490585" lon="9.668657371869982"><ele>220.0</ele><time>2026-04-11T14:44:43Z</time></trkpt><trkpt lat="40.00520628389808" lon="9.668614950564288"><ele>220.0</ele><time>2026-04-11T14:44:44Z</time></trkpt><trkpt lat="40.00507954305569" lon="9.66860390784096"><ele>220.0</ele><time>2026-04-11T14:44:45Z</time></trkpt><trkpt lat="40.00492586326994" lon="9.66860846353146"><ele>220.0</ele><time>2026-04-11T14:44:46Z</time></trkpt><trkpt lat="40.004747728195156" lon="9.668592296812141"><ele>213.0</ele><time>2026-04-11T14:44:47Z</time></trkpt><trkpt lat="40.004568385902154" lon="9.66856296306653"><ele>206.0</ele><time>2026-04-11T14:44:48Z</time></trkpt><trkpt lat="40.00440502046003" lon="9.66853324740798"><ele>199.0</ele><time>2026-04-11T14:44:49Z</time></trkpt><trkpt lat="40.004253163971" lon="9.668524665667224"><ele>194.33333333333331</ele><time>2026-04-11T14:44:50Z</time></trkpt><trkpt lat="40.00411677346316" lon="9.668571189896277"><ele>189.66666666666666</ele><time>2026-04-11T14:44:51Z</time></trkpt><trkpt lat="40.003985679645155" lon="9.668681703955235"><ele>185.0</ele><time>2026-04-11T14:44:52Z</time></trkpt><trkpt lat="40.00384930131428" lon="9.668828415399169"><ele>195.66666666666666</ele><time>2026-04-11T14:44:53Z</time></trkpt><trkpt lat="40.00371007561706" lon="9.668952711175594"><ele>206.33333333333331</ele><time>2026-04-11T14:44:54Z</time></trkpt><trkpt lat="40.00356913392673" lon="9.66903233702857"><ele>217.0</ele><time>2026-04-11T14:44:55Z</time></trkpt><trkpt lat="40.00342417205086" lon="9.669075718918556"><ele>215.66666666666666</ele><time>2026-04-11T14:44:56Z</time></trkpt><trkpt lat="40.00328533860386" lon="9.669008382409839"><ele>214.33333333333331</ele><time>2026-04-11T14:44:57Z</time></trkpt><trkpt lat="40.00313211798957" lon="9.668927976613226"><ele>213.0</ele><time>2026-04-11T14:44:58Z</time></trkpt><trkpt lat="40.002977637648776" lon="9.668856539497135"><ele>213.0</ele><time>2026-04-11T14:44:59Z</time></trkpt><trkpt lat="40.00282384617497" lon="9.668766951573744"><ele>213.0</ele><time>2026-04-11T14:45:00Z</time></trkpt><trkpt lat="40.002678433714465" lon="9.668705298764323"><ele>213.0</ele><time>2026-04-11T14:45:01Z</time></trkpt><trkpt lat="40.00255134726835" lon="9.668689601398757"><ele>213.0</ele><time>2026-04-11T14:45:02Z</time></trkpt><trkpt lat="40.00242176664249" lon="9.668770508975808"><ele>210.66666666666669</ele><time>2026-04-11T14:45:03Z</time></trkpt><trkpt lat="40.00229326097672" lon="9.668898980646556"><ele>208.33333333333334</ele><time>2026-04-11T14:45:04Z</time></trkpt><trkpt lat="40.00216831889523" lon="9.669030439812003"><ele>206.0</ele><time>2026-04-11T14:45:05Z</time></trkpt><trkpt lat="40.00202382250345" lon="9.669087109289892"><ele>206.0</ele><time>2026-04-11T14:45:06Z</time></trkpt><trkpt lat="40.00188349420331" lon="9.66909390957088"><ele>206.0</ele><time>2026-04-11T14:45:07Z</time></trkpt><trkpt lat="40.00174871796088" lon="9.669000825709006"><ele>206.0</ele><time>2026-04-11T14:45:08Z</time></trkpt><trkpt lat="40.001577181928724" lon="9.668937414486926"><ele>208.66666666666669</ele><time>2026-04-11T14:45:09Z</time></trkpt><trkpt lat="40.001413082363555" lon="9.66882523332445"><ele>211.33333333333331</ele><time>2026-04-11T14:45:10Z</time></trkpt><trkpt lat="40.00124783813866" lon="9.668706511783286"><ele>214.0</ele><time>2026-04-11T14:45:11Z</time></trkpt><trkpt lat="40.00111813248008" lon="9.668541246846074"><ele>206.66666666666666</ele><time>2026-04-11T14:45:12Z</time></trkpt><trkpt lat="40.00101881890155" lon="9.668361991641929"><ele>199.33333333333331</ele><time>2026-04-11T14:45:13Z</time></trkpt><trkpt lat="40.00094177208247" lon="9.66817034386004"><ele>192.0</ele><time>2026-04-11T14:45:14Z</time></trkpt><trkpt lat="40.00086200360571" lon="9.667995593090263"><ele>191.0</ele><time>2026-04-11T14:45:15Z</time></trkpt><trkpt lat="40.000790532398305" lon="9.667829786018762"><ele>190.0</ele><time>2026-04-11T14:45:16Z</time></trkpt><trkpt lat="40.00067702167596" lon="9.667705257133468"><ele>189.0</ele><time>2026-04-11T14:45:17Z</time></trkpt><trkpt lat="40.00051941640719" lon="9.667629211227883"><ele>186.75</ele><time>2026-04-11T14:45:18Z</time></trkpt><trkpt lat="40.00036719963403" lon="9.667578497792455"><ele>184.5</ele><time>2026-04-11T14:45:19Z</time></trkpt><trkpt lat="40.00027370073109" lon="9.667454649745103"><ele>182.25</ele><time>2026-04-11T14:45:20Z</time></trkpt><trkpt lat="40.00022110285208" lon="9.667294269240777"><ele>180.0</ele><time>2026-04-11T14:45:21Z</time></trkpt><trkpt lat="40.00013768490002" lon="9.667133242170122"><ele>180.0</ele><time>2026-04-11T14:45:22Z</time></trkpt><trkpt lat="40.00002976413647" lon="9.66698675345782"><ele>180.0</ele><time>2026-04-11T14:45:23Z</time></trkpt><trkpt lat="39.99987867943514" lon="9.666902861441969"><ele>180.0</ele><time>2026-04-11T14:45:24Z</time></trkpt><trkpt lat="39.999708809988256" lon="9.666866381381661"><ele>175.0</ele><time>2026-04-11T14:45:25Z</time></trkpt><trkpt lat="39.999533998012865" lon="9.66682153424074"><ele>170.0</ele><time>2026-04-11T14:45:26Z</time></trkpt><trkpt lat="39.99937018595583" lon="9.666757916637236"><ele>165.0</ele><time>2026-04-11T14:45:27Z</time></trkpt><trkpt lat="39.999208050046796" lon="9.666685686006977"><ele>166.33333333333334</ele><time>2026-04-11T14:45:28Z</time></trkpt><trkpt lat="39.999049149731384" lon="9.66662120538016"><ele>167.66666666666669</ele><time>2026-04-11T14:45:29Z</time></trkpt><trkpt lat="39.99889441176161" lon="9.666567574038144"><ele>169.0</ele><time>2026-04-11T14:45:30Z</time></trkpt><trkpt lat="39.99873547740069" lon="9.6665429855798"><ele>169.0</ele><time>2026-04-11T14:45:31Z</time></trkpt><trkpt lat="39.99857415483943" lon="9.666546030896438"><ele>169.0</ele><time>2026-04-11T14:45:32Z</time></trkpt><trkpt lat="39.99841344554102" lon="9.666539559751193"><ele>169.0</ele><time>2026-04-11T14:45:33Z</time></trkpt><trkpt lat="39.99826246967534" lon="9.666510403759414"><ele>168.33333333333334</ele><time>2026-04-11T14:45:34Z</time></trkpt><trkpt lat="39.99811269011918" lon="9.666470782934494"><ele>167.66666666666666</ele><time>2026-04-11T14:45:35Z</time></trkpt><trkpt lat="39.99795377129714" lon="9.66645690432021"><ele>167.0</ele><time>2026-04-11T14:45:36Z</time></trkpt><trkpt lat="39.997791205476695" lon="9.666467553175197"><ele>167.0</ele><time>2026-04-11T14:45:37Z</time></trkpt><trkpt lat="39.997632896672386" lon="9.666490645563945"><ele>167.0</ele><time>2026-04-11T14:45:38Z</time></trkpt><trkpt lat="39.99747985224875" lon="9.666505081821773"><ele>167.0</ele><time>2026-04-11T14:45:39Z</time></trkpt><trkpt lat="39.997331763503695" lon="9.666512344219969"><ele>165.33333333333331</ele><time>2026-04-11T14:45:40Z</time></trkpt><trkpt lat="39.9971904667423" lon="9.66654245271802"><ele>163.66666666666666</ele><time>2026-04-11T14:45:41Z</time></trkpt><trkpt lat="39.99705118867805" lon="9.666618625210189"><ele>162.0</ele><time>2026-04-11T14:45:42Z</time></trkpt><trkpt lat="39.99692049316979" lon="9.666742872407573"><ele>162.0</ele><time>2026-04-11T14:45:43Z</time></trkpt><trkpt lat="39.99680092590416" lon="9.66689392197566"><ele>162.0</ele><time>2026-04-11T14:45:44Z</time></trkpt><trkpt lat="39.99668546194913" lon="9.66703661801471"><ele>162.0</ele><time>2026-04-11T14:45:45Z</time></trkpt><trkpt lat="39.9964582420805" lon="9.667268585438261"><ele>158.0</ele><time>2026-04-11T14:45:47Z</time></trkpt><trkpt lat="39.99633880083394" lon="9.667305012696197"><ele>154.0</ele><time>2026-04-11T14:45:48Z</time></trkpt><trkpt lat="39.996231608085616" lon="9.667309129132223"><ele>150.0</ele><time>2026-04-11T14:45:49Z</time></trkpt><trkpt lat="39.99612819118606" lon="9.667280933560495"><ele>146.0</ele><time>2026-04-11T14:45:50Z</time></trkpt><trkpt lat="39.996059670052816" lon="9.667150960687513"><ele>146.0</ele><time>2026-04-11T14:45:51Z</time></trkpt><trkpt lat="39.99598715625198" lon="9.667012162491574"><ele>146.0</ele><time>2026-04-11T14:45:52Z</time></trkpt><trkpt lat="39.99589960995473" lon="9.666875335547845"><ele>146.0</ele><time>2026-04-11T14:45:53Z</time></trkpt><trkpt lat="39.995832897064666" lon="9.666735234381484"><ele>146.0</ele><time>2026-04-11T14:45:54Z</time></trkpt><trkpt lat="39.995789939777346" lon="9.666586870768027"><ele>147.25</ele><time>2026-04-11T14:45:55Z</time></trkpt><trkpt lat="39.99581257107798" lon="9.666408594480528"><ele>148.5</ele><time>2026-04-11T14:45:56Z</time></trkpt><trkpt lat="39.99582133803496" lon="9.666213238793723"><ele>149.75</ele><time>2026-04-11T14:45:57Z</time></trkpt><trkpt lat="39.995848314265174" lon="9.666011092821622"><ele>151.0</ele><time>2026-04-11T14:45:58Z</time></trkpt><trkpt lat="39.99585799574499" lon="9.665823764808549"><ele>151.5</ele><time>2026-04-11T14:45:59Z</time></trkpt><trkpt lat="39.995877376452725" lon="9.665651957545927"><ele>152.0</ele><time>2026-04-11T14:46:00Z</time></trkpt><trkpt lat="39.99593053862502" lon="9.665481687865595"><ele>152.5</ele><time>2026-04-11T14:46:01Z</time></trkpt><trkpt lat="39.99602428633312" lon="9.665316584677784"><ele>153.0</ele><time>2026-04-11T14:46:02Z</time></trkpt><trkpt lat="39.996095320747564" lon="9.665128541815731"><ele>153.0</ele><time>2026-04-11T14:46:03Z</time></trkpt><trkpt lat="39.99614421007368" lon="9.66493769994108"><ele>153.0</ele><time>2026-04-11T14:46:04Z</time></trkpt><trkpt lat="39.99619380297042" lon="9.664758617240704"><ele>153.0</ele><time>2026-04-11T14:46:05Z</time></trkpt><trkpt lat="39.996254498738985" lon="9.664594956129049"><ele>153.0</ele><time>2026-04-11T14:46:06Z</time></trkpt><trkpt lat="39.99633783432945" lon="9.664470729557943"><ele>150.75</ele><time>2026-04-11T14:46:07Z</time></trkpt><trkpt lat="39.99644564537769" lon="9.664404386546552"><ele>148.5</ele><time>2026-04-11T14:46:08Z</time></trkpt><trkpt lat="39.99656971004098" lon="9.66441041249152"><ele>146.25</ele><time>2026-04-11T14:46:09Z</time></trkpt><trkpt lat="39.99669074053236" lon="9.66436884712399"><ele>144.0</ele><time>2026-04-11T14:46:10Z</time></trkpt><trkpt lat="39.99679174608259" lon="9.664357733802696"><ele>144.0</ele><time>2026-04-11T14:46:11Z</time></trkpt><trkpt lat="39.996903225356114" lon="9.664284700346082"><ele>144.0</ele><time>2026-04-11T14:46:12Z</time></trkpt><trkpt lat="39.997017655215124" lon="9.664146177491046"><ele>144.0</ele><time>2026-04-11T14:46:13Z</time></trkpt><trkpt lat="39.99699182789522" lon="9.663914617343993"><ele>144.0</ele><time>2026-04-11T14:46:14Z</time></trkpt><trkpt lat="39.99698015845097" lon="9.663719844484751"><ele>144.0</ele><time>2026-04-11T14:46:15Z</time></trkpt><trkpt lat="39.996821974866435" lon="9.663347254938904"><ele>140.0</ele><time>2026-04-11T14:46:17Z</time></trkpt><trkpt lat="39.99670052696708" lon="9.663198741015968"><ele>136.0</ele><time>2026-04-11T14:46:18Z</time></trkpt><trkpt lat="39.996568558624624" lon="9.663062082701869"><ele>132.0</ele><time>2026-04-11T14:46:19Z</time></trkpt><trkpt lat="39.996448360997086" lon="9.662920367270338"><ele>132.66666666666666</ele><time>2026-04-11T14:46:20Z</time></trkpt><trkpt lat="39.996336857030094" lon="9.662777078815736"><ele>133.33333333333331</ele><time>2026-04-11T14:46:21Z</time></trkpt><trkpt lat="39.99621387105042" lon="9.66266718765301"><ele>134.0</ele><time>2026-04-11T14:46:22Z</time></trkpt><trkpt lat="39.99606188300805" lon="9.662607453105522"><ele>134.0</ele><time>2026-04-11T14:46:23Z</time></trkpt><trkpt lat="39.995893950631896" lon="9.662579916533828"><ele>134.0</ele><time>2026-04-11T14:46:24Z</time></trkpt><trkpt lat="39.99572436669373" lon="9.66255097413639"><ele>134.0</ele><time>2026-04-11T14:46:25Z</time></trkpt><trkpt lat="39.99556128026622" lon="9.662523139038457"><ele>132.66666666666666</ele><time>2026-04-11T14:46:26Z</time></trkpt><trkpt lat="39.99540443241403" lon="9.662492452187271"><ele>131.33333333333334</ele><time>2026-04-11T14:46:27Z</time></trkpt><trkpt lat="39.99525413689634" lon="9.66245709671896"><ele>130.0</ele><time>2026-04-11T14:46:28Z</time></trkpt><trkpt lat="39.995128426050464" lon="9.662380005391938"><ele>130.0</ele><time>2026-04-11T14:46:29Z</time></trkpt><trkpt lat="39.99500939423056" lon="9.662239506709803"><ele>130.0</ele><time>2026-04-11T14:46:30Z</time></trkpt><trkpt lat="39.994875408836215" lon="9.662096750803244"><ele>130.0</ele><time>2026-04-11T14:46:31Z</time></trkpt><trkpt lat="39.99474738520125" lon="9.661960347037244"><ele>128.25</ele><time>2026-04-11T14:46:32Z</time></trkpt><trkpt lat="39.99464498617852" lon="9.66184052176161"><ele>126.5</ele><time>2026-04-11T14:46:33Z</time></trkpt><trkpt lat="39.99458587440614" lon="9.661705486345447"><ele>124.75</ele><time>2026-04-11T14:46:34Z</time></trkpt><trkpt lat="39.994547779914505" lon="9.661564132534478"><ele>123.0</ele><time>2026-04-11T14:46:35Z</time></trkpt><trkpt lat="39.994583656898584" lon="9.661410035152713"><ele>123.0</ele><time>2026-04-11T14:46:36Z</time></trkpt><trkpt lat="39.994566636642524" lon="9.661270968537583"><ele>123.0</ele><time>2026-04-11T14:46:37Z</time></trkpt><trkpt lat="39.994471823903005" lon="9.661148523735411"><ele>123.0</ele><time>2026-04-11T14:46:38Z</time></trkpt><trkpt lat="39.994361149185785" lon="9.661065955645375"><ele>123.0</ele><time>2026-04-11T14:46:39Z</time></trkpt><trkpt lat="39.99423378740047" lon="9.661003114587853"><ele>118.33333333333334</ele><time>2026-04-11T14:46:40Z</time></trkpt><trkpt lat="39.99409828447261" lon="9.660930386118435"><ele>113.66666666666667</ele><time>2026-04-11T14:46:41Z</time></trkpt><trkpt lat="39.99395902310623" lon="9.660798015103518"><ele>109.0</ele><time>2026-04-11T14:46:42Z</time></trkpt><trkpt lat="39.993814879717014" lon="9.660620391250765"><ele>109.0</ele><time>2026-04-11T14:46:43Z</time></trkpt><trkpt lat="39.993658263395204" lon="9.660416294855995"><ele>109.0</ele><time>2026-04-11T14:46:44Z</time></trkpt><trkpt lat="39.99347613344309" lon="9.660207104817001"><ele>106.66666666666667</ele><time>2026-04-11T14:46:45Z</time></trkpt><trkpt lat="39.99332413529679" lon="9.65999591263318"><ele>104.33333333333334</ele><time>2026-04-11T14:46:46Z</time></trkpt><trkpt lat="39.99312864317505" lon="9.659848369614295"><ele>102.0</ele><time>2026-04-11T14:46:47Z</time></trkpt><trkpt lat="39.99292320148835" lon="9.65970611397794"><ele>102.0</ele><time>2026-04-11T14:46:48Z</time></trkpt><trkpt lat="39.992708184481465" lon="9.65960720507949"><ele>102.0</ele><time>2026-04-11T14:46:49Z</time></trkpt><trkpt lat="39.992481461034494" lon="9.659518670477905"><ele>101.5</ele><time>2026-04-11T14:46:50Z</time></trkpt><trkpt lat="39.992266020382615" lon="9.659376022521036"><ele>101.0</ele><time>2026-04-11T14:46:51Z</time></trkpt><trkpt lat="39.99205601310788" lon="9.65922690780514"><ele>101.0</ele><time>2026-04-11T14:46:52Z</time></trkpt><trkpt lat="39.99185350019131" lon="9.65910266660346"><ele>101.0</ele><time>2026-04-11T14:46:53Z</time></trkpt><trkpt lat="39.99166945818182" lon="9.658966777166011"><ele>101.0</ele><time>2026-04-11T14:46:54Z</time></trkpt><trkpt lat="39.99149516748553" lon="9.658846426084615"><ele>99.0</ele><time>2026-04-11T14:46:55Z</time></trkpt><trkpt lat="39.99135214655621" lon="9.658721127241185"><ele>97.0</ele><time>2026-04-11T14:46:56Z</time></trkpt><trkpt lat="39.991239974570355" lon="9.65860688566349"><ele>95.0</ele><time>2026-04-11T14:46:57Z</time></trkpt><trkpt lat="39.991177057263755" lon="9.658466364555252"><ele>93.0</ele><time>2026-04-11T14:46:58Z</time></trkpt><trkpt lat="39.99117187656061" lon="9.658318991156632"><ele>93.0</ele><time>2026-04-11T14:46:59Z</time></trkpt><trkpt lat="39.991193462184974" lon="9.65813094818533"><ele>93.0</ele><time>2026-04-11T14:47:00Z</time></trkpt><trkpt lat="39.99121698197359" lon="9.657894674583757"><ele>93.0</ele><time>2026-04-11T14:47:01Z</time></trkpt><trkpt lat="39.9912439683484" lon="9.65763468218288"><ele>89.25</ele><time>2026-04-11T14:47:02Z</time></trkpt><trkpt lat="39.99125462436448" lon="9.657393229133852"><ele>85.5</ele><time>2026-04-11T14:47:03Z</time></trkpt><trkpt lat="39.99125749003588" lon="9.657201421885171"><ele>81.75</ele><time>2026-04-11T14:47:04Z</time></trkpt><trkpt lat="39.99121127895217" lon="9.657066954643822"><ele>78.0</ele><time>2026-04-11T14:47:05Z</time></trkpt><trkpt lat="39.991101804914535" lon="9.656984054483054"><ele>78.0</ele><time>2026-04-11T14:47:06Z</time></trkpt><trkpt lat="39.99095085561465" lon="9.656970984631682"><ele>78.0</ele><time>2026-04-11T14:47:07Z</time></trkpt><trkpt lat="39.99079199270849" lon="9.657011591152903"><ele>78.0</ele><time>2026-04-11T14:47:08Z</time></trkpt><trkpt lat="39.9905885020737" lon="9.657110597643724"><ele>80.0</ele><time>2026-04-11T14:47:09Z</time></trkpt><trkpt lat="39.99038603761358" lon="9.6571272902125"><ele>82.0</ele><time>2026-04-11T14:47:10Z</time></trkpt><trkpt lat="39.990162134395796" lon="9.657053554470826"><ele>84.0</ele><time>2026-04-11T14:47:11Z</time></trkpt><trkpt lat="39.98994879145457" lon="9.656976176883763"><ele>81.0</ele><time>2026-04-11T14:47:12Z</time></trkpt><trkpt lat="39.98971525911749" lon="9.656898925278014"><ele>78.0</ele><time>2026-04-11T14:47:13Z</time></trkpt><trkpt lat="39.989484609494774" lon="9.656855645815435"><ele>78.0</ele><time>2026-04-11T14:47:14Z</time></trkpt><trkpt lat="39.98923409860858" lon="9.656887144215293"><ele>78.0</ele><time>2026-04-11T14:47:15Z</time></trkpt><trkpt lat="39.98899807478076" lon="9.656928820824435"><ele>79.33333333333333</ele><time>2026-04-11T14:47:16Z</time></trkpt><trkpt lat="39.988773565642404" lon="9.656919786873882"><ele>80.66666666666666</ele><time>2026-04-11T14:47:17Z</time></trkpt><trkpt lat="39.98856249702019" lon="9.656926403768008"><ele>82.0</ele><time>2026-04-11T14:47:18Z</time></trkpt><trkpt lat="39.98835463255955" lon="9.65685686676952"><ele>75.5</ele><time>2026-04-11T14:47:19Z</time></trkpt><trkpt lat="39.98816584488333" lon="9.657064244567614"><ele>69.0</ele><time>2026-04-11T14:47:20Z</time></trkpt><trkpt lat="39.98795925112977" lon="9.657230125380554"><ele>69.0</ele><time>2026-04-11T14:47:21Z</time></trkpt><trkpt lat="39.987741942142875" lon="9.657402272025932"><ele>69.0</ele><time>2026-04-11T14:47:22Z</time></trkpt><trkpt lat="39.987523507973144" lon="9.65755807077463"><ele>70.66666666666667</ele><time>2026-04-11T14:47:23Z</time></trkpt><trkpt lat="39.98732022734075" lon="9.65768601432015"><ele>72.33333333333334</ele><time>2026-04-11T14:47:24Z</time></trkpt><trkpt lat="39.987123648106945" lon="9.65779636572351"><ele>74.0</ele><time>2026-04-11T14:47:25Z</time></trkpt><trkpt lat="39.98692042067674" lon="9.657875885964843"><ele>71.33333333333334</ele><time>2026-04-11T14:47:26Z</time></trkpt><trkpt lat="39.98670785997713" lon="9.657936343859841"><ele>68.66666666666667</ele><time>2026-04-11T14:47:27Z</time></trkpt><trkpt lat="39.986520552217485" lon="9.657995674596762"><ele>66.0</ele><time>2026-04-11T14:47:28Z</time></trkpt><trkpt lat="39.98636242095688" lon="9.658094125491896"><ele>66.0</ele><time>2026-04-11T14:47:29Z</time></trkpt><trkpt lat="39.9862203199866" lon="9.65826320899998"><ele>66.0</ele><time>2026-04-11T14:47:30Z</time></trkpt><trkpt lat="39.98608718860092" lon="9.658501757963002"><ele>66.0</ele><time>2026-04-11T14:47:31Z</time></trkpt><trkpt lat="39.98594649986686" lon="9.658763632620685"><ele>65.5</ele><time>2026-04-11T14:47:32Z</time></trkpt><trkpt lat="39.98580022340666" lon="9.659015368173444"><ele>65.0</ele><time>2026-04-11T14:47:33Z</time></trkpt><trkpt lat="39.985655456000856" lon="9.659238269847053"><ele>65.0</ele><time>2026-04-11T14:47:34Z</time></trkpt><trkpt lat="39.9855306787313" lon="9.659429907236628"><ele>65.0</ele><time>2026-04-11T14:47:35Z</time></trkpt><trkpt lat="39.98541837574741" lon="9.659590197417046"><ele>65.0</ele><time>2026-04-11T14:47:36Z</time></trkpt><trkpt lat="39.98526647533404" lon="9.659690077022436"><ele>64.0</ele><time>2026-04-11T14:47:37Z</time></trkpt><trkpt lat="39.985081461967695" lon="9.659794286820546"><ele>63.0</ele><time>2026-04-11T14:47:38Z</time></trkpt><trkpt lat="39.98488215350129" lon="9.659925933580988"><ele>62.0</ele><time>2026-04-11T14:47:39Z</time></trkpt><trkpt lat="39.98468185858257" lon="9.660034986633518"><ele>62.0</ele><time>2026-04-11T14:47:40Z</time></trkpt><trkpt lat="39.984506668904196" lon="9.660178681546078"><ele>62.0</ele><time>2026-04-11T14:47:41Z</time></trkpt><trkpt lat="39.98435353421371" lon="9.66038513783787"><ele>62.0</ele><time>2026-04-11T14:47:42Z</time></trkpt><trkpt lat="39.984223222847746" lon="9.660628734333894"><ele>62.0</ele><time>2026-04-11T14:47:43Z</time></trkpt><trkpt lat="39.98412278108714" lon="9.660858746079255"><ele>62.0</ele><time>2026-04-11T14:47:44Z</time></trkpt><trkpt lat="39.98403679089086" lon="9.66104855776006"><ele>62.0</ele><time>2026-04-11T14:47:45Z</time></trkpt><trkpt lat="39.98392038767817" lon="9.661163425094612"><ele>62.0</ele><time>2026-04-11T14:47:46Z</time></trkpt><trkpt lat="39.98377757015208" lon="9.661247183855348"><ele>62.0</ele><time>2026-04-11T14:47:47Z</time></trkpt><trkpt lat="39.98358823024931" lon="9.661319180919556"><ele>62.0</ele><time>2026-04-11T14:47:48Z</time></trkpt><trkpt lat="39.983381677321034" lon="9.661415847339976"><ele>59.5</ele><time>2026-04-11T14:47:49Z</time></trkpt><trkpt lat="39.98315651514637" lon="9.6615235066699"><ele>57.0</ele><time>2026-04-11T14:47:50Z</time></trkpt><trkpt lat="39.98290496370966" lon="9.661614867977184"><ele>57.0</ele><time>2026-04-11T14:47:51Z</time></trkpt><trkpt lat="39.98264810757972" lon="9.661724899983032"><ele>57.0</ele><time>2026-04-11T14:47:52Z</time></trkpt><trkpt lat="39.982407867936764" lon="9.66184234390493"><ele>55.5</ele><time>2026-04-11T14:47:53Z</time></trkpt><trkpt lat="39.982178349718076" lon="9.661927217769621"><ele>54.0</ele><time>2026-04-11T14:47:54Z</time></trkpt><trkpt lat="39.9819718740613" lon="9.662030424470688"><ele>53.0</ele><time>2026-04-11T14:47:55Z</time></trkpt><trkpt lat="39.981789897572725" lon="9.662142498063016"><ele>52.0</ele><time>2026-04-11T14:47:56Z</time></trkpt><trkpt lat="39.98162314510841" lon="9.66224306312711"><ele>51.0</ele><time>2026-04-11T14:47:57Z</time></trkpt><trkpt lat="39.98145823033461" lon="9.662243020947177"><ele>51.0</ele><time>2026-04-11T14:47:58Z</time></trkpt><trkpt lat="39.98129535522042" lon="9.66221585905244"><ele>51.0</ele><time>2026-04-11T14:47:59Z</time></trkpt><trkpt lat="39.981122766848486" lon="9.662172748124977"><ele>51.0</ele><time>2026-04-11T14:48:00Z</time></trkpt><trkpt lat="39.980982965231604" lon="9.662119933443206"><ele>49.0</ele><time>2026-04-11T14:48:01Z</time></trkpt><trkpt lat="39.980838250529814" lon="9.662147106714917"><ele>47.0</ele><time>2026-04-11T14:48:02Z</time></trkpt><trkpt lat="39.980703649960546" lon="9.662278790644697"><ele>45.0</ele><time>2026-04-11T14:48:03Z</time></trkpt><trkpt lat="39.98056919869587" lon="9.662470355164201"><ele>45.0</ele><time>2026-04-11T14:48:04Z</time></trkpt><trkpt lat="39.98041207313735" lon="9.662658439503979"><ele>45.0</ele><time>2026-04-11T14:48:05Z</time></trkpt><trkpt lat="39.9802385677893" lon="9.662825145322298"><ele>45.0</ele><time>2026-04-11T14:48:06Z</time></trkpt><trkpt lat="39.98006474208096" lon="9.66298621605072"><ele>38.0</ele><time>2026-04-11T14:48:07Z</time></trkpt><trkpt lat="39.979866765493895" lon="9.66312163905883"><ele>31.0</ele><time>2026-04-11T14:48:08Z</time></trkpt><trkpt lat="39.97966841510285" lon="9.663268535888603"><ele>31.0</ele><time>2026-04-11T14:48:09Z</time></trkpt><trkpt lat="39.979469340537555" lon="9.663382492695526"><ele>31.0</ele><time>2026-04-11T14:48:10Z</time></trkpt><trkpt lat="39.979267335653596" lon="9.663413836723858"><ele>31.0</ele><time>2026-04-11T14:48:11Z</time></trkpt><trkpt lat="39.979053955331764" lon="9.663448256006202"><ele>27.0</ele><time>2026-04-11T14:48:12Z</time></trkpt><trkpt lat="39.97883439200981" lon="9.663493289455962"><ele>23.0</ele><time>2026-04-11T14:48:13Z</time></trkpt><trkpt lat="39.97863439710712" lon="9.663566246659181"><ele>19.0</ele><time>2026-04-11T14:48:14Z</time></trkpt><trkpt lat="39.978443709415444" lon="9.663618973497"><ele>18.666666666666664</ele><time>2026-04-11T14:48:15Z</time></trkpt><trkpt lat="39.97825791067984" lon="9.663612080184627"><ele>18.333333333333332</ele><time>2026-04-11T14:48:16Z</time></trkpt><trkpt lat="39.978098217787924" lon="9.663645154534963"><ele>18.0</ele><time>2026-04-11T14:48:17Z</time></trkpt><trkpt lat="39.9779535833029" lon="9.663707732395007"><ele>18.0</ele><time>2026-04-11T14:48:18Z</time></trkpt><trkpt lat="39.977820620312755" lon="9.663843610558931"><ele>18.0</ele><time>2026-04-11T14:48:19Z</time></trkpt><trkpt lat="39.977708432043386" lon="9.664044015827907"><ele>18.0</ele><time>2026-04-11T14:48:20Z</time></trkpt><trkpt lat="39.977618861685144" lon="9.664283178496362"><ele>17.333333333333332</ele><time>2026-04-11T14:48:21Z</time></trkpt><trkpt lat="39.977539863020674" lon="9.664522694305278"><ele>16.666666666666664</ele><time>2026-04-11T14:48:22Z</time></trkpt><trkpt lat="39.97742060487112" lon="9.66472590106354"><ele>16.0</ele><time>2026-04-11T14:48:23Z</time></trkpt><trkpt lat="39.97730398634341" lon="9.664913315543417"><ele>16.0</ele><time>2026-04-11T14:48:24Z</time></trkpt><trkpt lat="39.977184157722114" lon="9.665070746039525"><ele>16.0</ele><time>2026-04-11T14:48:25Z</time></trkpt><trkpt lat="39.977065587065304" lon="9.665166580983659"><ele>16.0</ele><time>2026-04-11T14:48:26Z</time></trkpt><trkpt lat="39.97693963803576" lon="9.665215831098653"><ele>16.0</ele><time>2026-04-11T14:48:27Z</time></trkpt><trkpt lat="39.976818737553685" lon="9.665147994595284"><ele>17.0</ele><time>2026-04-11T14:48:28Z</time></trkpt><trkpt lat="39.97665858780719" lon="9.665103170475904"><ele>18.0</ele><time>2026-04-11T14:48:29Z</time></trkpt><trkpt lat="39.97648992408438" lon="9.66506173617858"><ele>19.0</ele><time>2026-04-11T14:48:30Z</time></trkpt><trkpt lat="39.976311519515754" lon="9.66501000562354"><ele>19.0</ele><time>2026-04-11T14:48:31Z</time></trkpt><trkpt lat="39.97613599650353" lon="9.664948763031617"><ele>19.0</ele><time>2026-04-11T14:48:32Z</time></trkpt><trkpt lat="39.97596041726289" lon="9.664856102890612"><ele>19.0</ele><time>2026-04-11T14:48:33Z</time></trkpt><trkpt lat="39.97578810022968" lon="9.664711462103874"><ele>15.666666666666666</ele><time>2026-04-11T14:48:34Z</time></trkpt><trkpt lat="39.97561696256318" lon="9.664551746902665"><ele>12.333333333333332</ele><time>2026-04-11T14:48:35Z</time></trkpt><trkpt lat="39.97544301434885" lon="9.664392766643699"><ele>9.0</ele><time>2026-04-11T14:48:36Z</time></trkpt><trkpt lat="39.97526317424654" lon="9.664229782427581"><ele>8.5</ele><time>2026-04-11T14:48:37Z</time></trkpt><trkpt lat="39.97507940013171" lon="9.664065684022932"><ele>8.0</ele><time>2026-04-11T14:48:38Z</time></trkpt><trkpt lat="39.9748892742536" lon="9.663903415384226"><ele>7.5</ele><time>2026-04-11T14:48:39Z</time></trkpt><trkpt lat="39.97468972996022" lon="9.66375714475574"><ele>7.0</ele><time>2026-04-11T14:48:40Z</time></trkpt><trkpt lat="39.9744766861015" lon="9.663636789930859"><ele>7.0</ele><time>2026-04-11T14:48:41Z</time></trkpt><trkpt lat="39.97425511855589" lon="9.663545305222616"><ele>7.0</ele><time>2026-04-11T14:48:42Z</time></trkpt><trkpt lat="39.97403907327827" lon="9.663483147883642"><ele>7.333333333333334</ele><time>2026-04-11T14:48:43Z</time></trkpt><trkpt lat="39.97383319340685" lon="9.6634544158929"><ele>7.666666666666666</ele><time>2026-04-11T14:48:44Z</time></trkpt><trkpt lat="39.97364090291991" lon="9.663457519986395"><ele>8.0</ele><time>2026-04-11T14:48:45Z</time></trkpt><trkpt lat="39.973457187720946" lon="9.663474525788939"><ele>7.666666666666666</ele><time>2026-04-11T14:48:46Z</time></trkpt><trkpt lat="39.97328759488095" lon="9.663506887734062"><ele>7.333333333333334</ele><time>2026-04-11T14:48:47Z</time></trkpt><trkpt lat="39.97312230202672" lon="9.663554580664186"><ele>7.0</ele><time>2026-04-11T14:48:48Z</time></trkpt><trkpt lat="39.97295415298557" lon="9.6636163255569"><ele>7.0</ele><time>2026-04-11T14:48:49Z</time></trkpt><trkpt lat="39.972786577874835" lon="9.663682830073665"><ele>7.0</ele><time>2026-04-11T14:48:50Z</time></trkpt><trkpt lat="39.97261566989932" lon="9.663747733443072"><ele>7.0</ele><time>2026-04-11T14:48:51Z</time></trkpt><trkpt lat="39.97244736316447" lon="9.663812258645997"><ele>6.666666666666667</ele><time>2026-04-11T14:48:52Z</time></trkpt><trkpt lat="39.97229353111344" lon="9.66387368516493"><ele>6.333333333333334</ele><time>2026-04-11T14:48:53Z</time></trkpt><trkpt lat="39.97214566810717" lon="9.663934700023033"><ele>6.0</ele><time>2026-04-11T14:48:54Z</time></trkpt><trkpt lat="39.97200445847221" lon="9.663992422329294"><ele>6.0</ele><time>2026-04-11T14:48:55Z</time></trkpt><trkpt lat="39.971862314873796" lon="9.664042469935918"><ele>6.0</ele><time>2026-04-11T14:48:56Z</time></trkpt><trkpt lat="39.97172039359083" lon="9.664080588458868"><ele>6.0</ele><time>2026-04-11T14:48:57Z</time></trkpt><trkpt lat="39.97158068489681" lon="9.66409692349975"><ele>6.0</ele><time>2026-04-11T14:48:58Z</time></trkpt><trkpt lat="39.971451685572305" lon="9.664038639423874"><ele>7.75</ele><time>2026-04-11T14:48:59Z</time></trkpt><trkpt lat="39.971328309895156" lon="9.663966825384982"><ele>9.5</ele><time>2026-04-11T14:49:00Z</time></trkpt><trkpt lat="39.971228161216445" lon="9.663890306261832"><ele>11.25</ele><time>2026-04-11T14:49:01Z</time></trkpt><trkpt lat="39.97114720825844" lon="9.663789699627374"><ele>13.0</ele><time>2026-04-11T14:49:02Z</time></trkpt><trkpt lat="39.97107637949349" lon="9.663700156145579"><ele>12.999999999999998</ele><time>2026-04-11T14:49:03Z</time></trkpt><trkpt lat="39.97100885718856" lon="9.663623936784717"><ele>13.0</ele><time>2026-04-11T14:49:04Z</time></trkpt><trkpt lat="39.97094653822859" lon="9.663550845316202"><ele>13.0</ele><time>2026-04-11T14:49:05Z</time></trkpt><trkpt lat="39.97088058674692" lon="9.66347610063755"><ele>13.0</ele><time>2026-04-11T14:49:06Z</time></trkpt><trkpt lat="39.97081813086582" lon="9.663402671561863"><ele>12.999999999999998</ele><time>2026-04-11T14:49:07Z</time></trkpt><trkpt lat="39.97075537091823" lon="9.663327033807606"><ele>13.0</ele><time>2026-04-11T14:49:08Z</time></trkpt><trkpt lat="39.970687773632356" lon="9.663252623485972"><ele>13.8</ele><time>2026-04-11T14:49:09Z</time></trkpt><trkpt lat="39.97062279206738" lon="9.663173412784536"><ele>14.600000000000001</ele><time>2026-04-11T14:49:10Z</time></trkpt><trkpt lat="39.97055743930284" lon="9.663091749119783"><ele>15.399999999999999</ele><time>2026-04-11T14:49:11Z</time></trkpt><trkpt lat="39.970489810029704" lon="9.66300642571265"><ele>16.2</ele><time>2026-04-11T14:49:12Z</time></trkpt><trkpt lat="39.970429074322126" lon="9.66290513691119"><ele>17.0</ele><time>2026-04-11T14:49:13Z</time></trkpt><trkpt lat="39.97037606050944" lon="9.662790941123344"><ele>17.0</ele><time>2026-04-11T14:49:14Z</time></trkpt><trkpt lat="39.97033510948175" lon="9.662662120452655"><ele>17.0</ele><time>2026-04-11T14:49:15Z</time></trkpt><trkpt lat="39.97030173351442" lon="9.662525621704184"><ele>17.0</ele><time>2026-04-11T14:49:16Z</time></trkpt><trkpt lat="39.97027613869518" lon="9.662382692951622"><ele>17.0</ele><time>2026-04-11T14:49:17Z</time></trkpt><trkpt lat="39.97026676856671" lon="9.662245193636156"><ele>17.0</ele><time>2026-04-11T14:49:18Z</time></trkpt><trkpt lat="39.97026331358194" lon="9.662119877652122"><ele>17.0</ele><time>2026-04-11T14:49:19Z</time></trkpt><trkpt lat="39.97026029332729" lon="9.662024342534954"><ele>17.0</ele><time>2026-04-11T14:49:20Z</time></trkpt><trkpt lat="39.97024717589028" lon="9.661884050997456"><ele>17.0</ele><time>2026-04-11T14:49:22Z</time></trkpt><trkpt lat="39.97024099243914" lon="9.661791877094716"><ele>17.0</ele><time>2026-04-11T14:49:24Z</time></trkpt><trkpt lat="39.97021590481985" lon="9.661680615803945"><ele>17.0</ele><time>2026-04-11T14:49:28Z</time></trkpt><trkpt lat="39.97017332647001" lon="9.661605743327712"><ele>17.0</ele><time>2026-04-11T14:49:31Z</time></trkpt><trkpt lat="39.970124670775796" lon="9.661546793620001"><ele>16.0</ele><time>2026-04-11T14:49:33Z</time></trkpt><trkpt lat="39.97002478294175" lon="9.661486504405476"><ele>15.0</ele><time>2026-04-11T14:49:35Z</time></trkpt><trkpt lat="39.96993907111271" lon="9.6614246662146"><ele>14.0</ele><time>2026-04-11T14:49:37Z</time></trkpt><trkpt lat="39.96985609832626" lon="9.661339750742686"><ele>13.0</ele><time>2026-04-11T14:49:39Z</time></trkpt><trkpt lat="39.969793482669495" lon="9.661295282757612"><ele>12.0</ele><time>2026-04-11T14:49:40Z</time></trkpt><trkpt lat="39.96972603752527" lon="9.661246727908782"><ele>12.0</ele><time>2026-04-11T14:49:41Z</time></trkpt><trkpt lat="39.969641874677286" lon="9.661206678948512"><ele>12.0</ele><time>2026-04-11T14:49:42Z</time></trkpt><trkpt lat="39.9695555104606" lon="9.661135401148082"><ele>12.0</ele><time>2026-04-11T14:49:43Z</time></trkpt><trkpt lat="39.969456873472986" lon="9.661069884634795"><ele>12.0</ele><time>2026-04-11T14:49:44Z</time></trkpt><trkpt lat="39.96935314504064" lon="9.66099334208042"><ele>12.0</ele><time>2026-04-11T14:49:45Z</time></trkpt><trkpt lat="39.96924220503972" lon="9.660915466341885"><ele>11.0</ele><time>2026-04-11T14:49:46Z</time></trkpt><trkpt lat="39.96912782997569" lon="9.660835399398819"><ele>10.0</ele><time>2026-04-11T14:49:47Z</time></trkpt><trkpt lat="39.96901387965797" lon="9.660751594191549"><ele>9.0</ele><time>2026-04-11T14:49:48Z</time></trkpt><trkpt lat="39.968898634177926" lon="9.66067018561746"><ele>8.0</ele><time>2026-04-11T14:49:49Z</time></trkpt><trkpt lat="39.96878436362316" lon="9.660590611600155"><ele>8.0</ele><time>2026-04-11T14:49:50Z</time></trkpt><trkpt lat="39.9686756207684" lon="9.660511048593666"><ele>8.0</ele><time>2026-04-11T14:49:51Z</time></trkpt><trkpt lat="39.9685669518636" lon="9.660435313491302"><ele>8.0</ele><time>2026-04-11T14:49:52Z</time></trkpt><trkpt lat="39.968456972052614" lon="9.660362151396733"><ele>8.0</ele><time>2026-04-11T14:49:53Z</time></trkpt><trkpt lat="39.96834878449997" lon="9.660285098737113"><ele>8.0</ele><time>2026-04-11T14:49:54Z</time></trkpt><trkpt lat="39.968243257593926" lon="9.660205579851533"><ele>8.0</ele><time>2026-04-11T14:49:55Z</time></trkpt><trkpt lat="39.968143786128245" lon="9.660132930624027"><ele>8.0</ele><time>2026-04-11T14:49:56Z</time></trkpt><trkpt lat="39.96804672939272" lon="9.660068035467093"><ele>8.0</ele><time>2026-04-11T14:49:57Z</time></trkpt><trkpt lat="39.96794521247145" lon="9.660000497123333"><ele>8.0</ele><time>2026-04-11T14:49:58Z</time></trkpt><trkpt lat="39.967840903333055" lon="9.659932456748843"><ele>8.0</ele><time>2026-04-11T14:49:59Z</time></trkpt><trkpt lat="39.96773284116232" lon="9.659858076024493"><ele>8.0</ele><time>2026-04-11T14:50:00Z</time></trkpt><trkpt lat="39.96762225469193" lon="9.659778113659328"><ele>8.0</ele><time>2026-04-11T14:50:01Z</time></trkpt><trkpt lat="39.9675150424571" lon="9.65970335306424"><ele>8.25</ele><time>2026-04-11T14:50:02Z</time></trkpt><trkpt lat="39.96740181170489" lon="9.659624090286652"><ele>8.5</ele><time>2026-04-11T14:50:03Z</time></trkpt><trkpt lat="39.96728254278458" lon="9.659541149510043"><ele>8.75</ele><time>2026-04-11T14:50:04Z</time></trkpt><trkpt lat="39.967158761775515" lon="9.659452451540126"><ele>9.0</ele><time>2026-04-11T14:50:05Z</time></trkpt><trkpt lat="39.967029624835064" lon="9.659361278888113"><ele>8.333333333333334</ele><time>2026-04-11T14:50:06Z</time></trkpt><trkpt lat="39.96689595278708" lon="9.659266253325782"><ele>7.666666666666667</ele><time>2026-04-11T14:50:07Z</time></trkpt><trkpt lat="39.96675656057729" lon="9.659169636047453"><ele>7.0</ele><time>2026-04-11T14:50:08Z</time></trkpt><trkpt lat="39.9666119576171" lon="9.659071197673446"><ele>6.333333333333334</ele><time>2026-04-11T14:50:09Z</time></trkpt><trkpt lat="39.966464195413394" lon="9.65897364518567"><ele>5.666666666666667</ele><time>2026-04-11T14:50:10Z</time></trkpt><trkpt lat="39.966315715901665" lon="9.658873860749008"><ele>5.0</ele><time>2026-04-11T14:50:11Z</time></trkpt><trkpt lat="39.96617678799444" lon="9.658776818707516"><ele>5.0</ele><time>2026-04-11T14:50:12Z</time></trkpt><trkpt lat="39.966039851317" lon="9.658679208796242"><ele>5.0</ele><time>2026-04-11T14:50:13Z</time></trkpt><trkpt lat="39.96591187881621" lon="9.658589931954504"><ele>5.0</ele><time>2026-04-11T14:50:14Z</time></trkpt><trkpt lat="39.96578895345735" lon="9.658506494711473"><ele>5.0</ele><time>2026-04-11T14:50:15Z</time></trkpt><trkpt lat="39.96566547202311" lon="9.658419230466514"><ele>5.25</ele><time>2026-04-11T14:50:16Z</time></trkpt><trkpt lat="39.96553956317424" lon="9.658331039787472"><ele>5.5</ele><time>2026-04-11T14:50:17Z</time></trkpt><trkpt lat="39.96541128836386" lon="9.658239305344587"><ele>5.75</ele><time>2026-04-11T14:50:18Z</time></trkpt><trkpt lat="39.96528101903016" lon="9.658147826581699"><ele>6.0</ele><time>2026-04-11T14:50:19Z</time></trkpt><trkpt lat="39.96514698734333" lon="9.658055577713277"><ele>7.0</ele><time>2026-04-11T14:50:20Z</time></trkpt><trkpt lat="39.965014689317314" lon="9.657963279759086"><ele>8.0</ele><time>2026-04-11T14:50:21Z</time></trkpt><trkpt lat="39.96488273975723" lon="9.657871723866437"><ele>9.0</ele><time>2026-04-11T14:50:22Z</time></trkpt><trkpt lat="39.964755849865824" lon="9.657785399653038"><ele>10.0</ele><time>2026-04-11T14:50:23Z</time></trkpt><trkpt lat="39.96463514968675" lon="9.657700548989315"><ele>10.75</ele><time>2026-04-11T14:50:24Z</time></trkpt><trkpt lat="39.964516575961575" lon="9.657616848958003"><ele>11.5</ele><time>2026-04-11T14:50:25Z</time></trkpt><trkpt lat="39.96439116119915" lon="9.657539269924634"><ele>12.25</ele><time>2026-04-11T14:50:26Z</time></trkpt><trkpt lat="39.964253528421736" lon="9.657479999419325"><ele>13.0</ele><time>2026-04-11T14:50:27Z</time></trkpt><trkpt lat="39.96410430664429" lon="9.657438551902851"><ele>13.666666666666666</ele><time>2026-04-11T14:50:28Z</time></trkpt><trkpt lat="39.9639499890126" lon="9.657414312993652"><ele>14.333333333333332</ele><time>2026-04-11T14:50:29Z</time></trkpt><trkpt lat="39.96378952250464" lon="9.657413904890147"><ele>15.0</ele><time>2026-04-11T14:50:30Z</time></trkpt><trkpt lat="39.9636209161303" lon="9.657428882789938"><ele>15.0</ele><time>2026-04-11T14:50:31Z</time></trkpt><trkpt lat="39.96345543640635" lon="9.657443978472447"><ele>15.0</ele><time>2026-04-11T14:50:32Z</time></trkpt><trkpt lat="39.963282908472436" lon="9.65745241860899"><ele>15.0</ele><time>2026-04-11T14:50:33Z</time></trkpt><trkpt lat="39.96311184598151" lon="9.657461240303048"><ele>13.0</ele><time>2026-04-11T14:50:34Z</time></trkpt><trkpt lat="39.96294080604163" lon="9.657469300425833"><ele>11.0</ele><time>2026-04-11T14:50:35Z</time></trkpt><trkpt lat="39.9627687556158" lon="9.657469866740156"><ele>9.0</ele><time>2026-04-11T14:50:36Z</time></trkpt><trkpt lat="39.96259683295122" lon="9.657456319472654"><ele>9.333333333333334</ele><time>2026-04-11T14:50:37Z</time></trkpt><trkpt lat="39.962425733019" lon="9.657436316700416"><ele>9.666666666666668</ele><time>2026-04-11T14:50:38Z</time></trkpt><trkpt lat="39.962253222195926" lon="9.65741643434188"><ele>10.0</ele><time>2026-04-11T14:50:39Z</time></trkpt><trkpt lat="39.96207958242507" lon="9.657385682204794"><ele>10.0</ele><time>2026-04-11T14:50:40Z</time></trkpt><trkpt lat="39.961904735060585" lon="9.657337409957039"><ele>10.0</ele><time>2026-04-11T14:50:41Z</time></trkpt><trkpt lat="39.961731329723385" lon="9.657278008005065"><ele>10.0</ele><time>2026-04-11T14:50:42Z</time></trkpt><trkpt lat="39.96155127077663" lon="9.657204937281824"><ele>9.333333333333334</ele><time>2026-04-11T14:50:43Z</time></trkpt><trkpt lat="39.961369928542844" lon="9.657115816489764"><ele>8.666666666666666</ele><time>2026-04-11T14:50:44Z</time></trkpt><trkpt lat="39.961185550639975" lon="9.657011794042525"><ele>8.0</ele><time>2026-04-11T14:50:45Z</time></trkpt><trkpt lat="39.96099887468004" lon="9.656892081135044"><ele>8.333333333333332</ele><time>2026-04-11T14:50:46Z</time></trkpt><trkpt lat="39.96080862643842" lon="9.6567605569716"><ele>8.666666666666666</ele><time>2026-04-11T14:50:47Z</time></trkpt><trkpt lat="39.960607653032035" lon="9.656624568710734"><ele>9.0</ele><time>2026-04-11T14:50:48Z</time></trkpt><trkpt lat="39.96038972786823" lon="9.656485471123673"><ele>9.0</ele><time>2026-04-11T14:50:49Z</time></trkpt><trkpt lat="39.96016706966105" lon="9.656315344156901"><ele>9.0</ele><time>2026-04-11T14:50:50Z</time></trkpt><trkpt lat="39.959933298447204" lon="9.656149707722594"><ele>9.0</ele><time>2026-04-11T14:50:51Z</time></trkpt><trkpt lat="39.95969416436503" lon="9.65599897321174"><ele>9.0</ele><time>2026-04-11T14:50:52Z</time></trkpt><trkpt lat="39.959463572232096" lon="9.655831650423135"><ele>9.0</ele><time>2026-04-11T14:50:53Z</time></trkpt><trkpt lat="39.95922649693019" lon="9.655668562045367"><ele>9.0</ele><time>2026-04-11T14:50:54Z</time></trkpt><trkpt lat="39.95899024336422" lon="9.655510286241535"><ele>8.0</ele><time>2026-04-11T14:50:55Z</time></trkpt><trkpt lat="39.95875928200086" lon="9.655351851365026"><ele>7.0</ele><time>2026-04-11T14:50:56Z</time></trkpt><trkpt lat="39.95853133420129" lon="9.655192208030074"><ele>7.5</ele><time>2026-04-11T14:50:57Z</time></trkpt><trkpt lat="39.95830452743949" lon="9.655036222542796"><ele>8.0</ele><time>2026-04-11T14:50:58Z</time></trkpt><trkpt lat="39.95807753242243" lon="9.654879975196659"><ele>8.0</ele><time>2026-04-11T14:50:59Z</time></trkpt><trkpt lat="39.95785185238834" lon="9.654725246724702"><ele>8.0</ele><time>2026-04-11T14:51:00Z</time></trkpt><trkpt lat="39.95762533504762" lon="9.654573807328209"><ele>8.0</ele><time>2026-04-11T14:51:01Z</time></trkpt><trkpt lat="39.95740093963121" lon="9.65442321734311"><ele>8.0</ele><time>2026-04-11T14:51:02Z</time></trkpt><trkpt lat="39.95717997855681" lon="9.654270819796004"><ele>8.0</ele><time>2026-04-11T14:51:03Z</time></trkpt><trkpt lat="39.95696370580749" lon="9.65411905615242"><ele>8.0</ele><time>2026-04-11T14:51:04Z</time></trkpt><trkpt lat="39.95675016572174" lon="9.65396988037936"><ele>8.0</ele><time>2026-04-11T14:51:05Z</time></trkpt><trkpt lat="39.95654007794197" lon="9.653824188139684"><ele>8.0</ele><time>2026-04-11T14:51:06Z</time></trkpt><trkpt lat="39.9563291867404" lon="9.65368124105206"><ele>7.5</ele><time>2026-04-11T14:51:07Z</time></trkpt><trkpt lat="39.956117236073325" lon="9.653538978441045"><ele>7.0</ele><time>2026-04-11T14:51:08Z</time></trkpt><trkpt lat="39.95590590867185" lon="9.653397034229146"><ele>7.0</ele><time>2026-04-11T14:51:09Z</time></trkpt><trkpt lat="39.955693722019994" lon="9.653251593634145"><ele>7.0</ele><time>2026-04-11T14:51:10Z</time></trkpt><trkpt lat="39.95548197068964" lon="9.653105577286803"><ele>7.0</ele><time>2026-04-11T14:51:11Z</time></trkpt><trkpt lat="39.95527163232741" lon="9.652958696655935"><ele>7.0</ele><time>2026-04-11T14:51:12Z</time></trkpt><trkpt lat="39.95506038552557" lon="9.65281021664871"><ele>8.0</ele><time>2026-04-11T14:51:13Z</time></trkpt><trkpt lat="39.95484940418523" lon="9.652662748754473"><ele>9.0</ele><time>2026-04-11T14:51:14Z</time></trkpt><trkpt lat="39.954637807762396" lon="9.652516227122561"><ele>9.0</ele><time>2026-04-11T14:51:15Z</time></trkpt><trkpt lat="39.95442575552288" lon="9.652369154773979"><ele>9.0</ele><time>2026-04-11T14:51:16Z</time></trkpt><trkpt lat="39.954212565423596" lon="9.652224067615615"><ele>9.0</ele><time>2026-04-11T14:51:17Z</time></trkpt><trkpt lat="39.95399749322703" lon="9.652080105005917"><ele>9.0</ele><time>2026-04-11T14:51:18Z</time></trkpt><trkpt lat="39.95378374551684" lon="9.651935824518722"><ele>9.0</ele><time>2026-04-11T14:51:19Z</time></trkpt><trkpt lat="39.953569794249226" lon="9.651790600416074"><ele>9.0</ele><time>2026-04-11T14:51:20Z</time></trkpt><trkpt lat="39.953355569882504" lon="9.651642766909005"><ele>12.0</ele><time>2026-04-11T14:51:21Z</time></trkpt><trkpt lat="39.953142375098864" lon="9.651493561263832"><ele>15.0</ele><time>2026-04-11T14:51:22Z</time></trkpt><trkpt lat="39.95292650798" lon="9.651341675045146"><ele>15.0</ele><time>2026-04-11T14:51:23Z</time></trkpt><trkpt lat="39.952708920711" lon="9.651190190795687"><ele>15.0</ele><time>2026-04-11T14:51:24Z</time></trkpt><trkpt lat="39.95248963674535" lon="9.651040653255674"><ele>15.0</ele><time>2026-04-11T14:51:25Z</time></trkpt><trkpt lat="39.95227147770495" lon="9.650890853691331"><ele>15.0</ele><time>2026-04-11T14:51:26Z</time></trkpt><trkpt lat="39.95205109794277" lon="9.650739668366427"><ele>15.0</ele><time>2026-04-11T14:51:27Z</time></trkpt><trkpt lat="39.95182901127772" lon="9.65058558777134"><ele>15.0</ele><time>2026-04-11T14:51:28Z</time></trkpt><trkpt lat="39.95160839895624" lon="9.650431610520709"><ele>16.5</ele><time>2026-04-11T14:51:29Z</time></trkpt><trkpt lat="39.95138696680447" lon="9.650275732707428"><ele>18.0</ele><time>2026-04-11T14:51:30Z</time></trkpt><trkpt lat="39.951163951468864" lon="9.650120619675961"><ele>18.0</ele><time>2026-04-11T14:51:31Z</time></trkpt><trkpt lat="39.95094117590327" lon="9.649966461839487"><ele>18.0</ele><time>2026-04-11T14:51:32Z</time></trkpt><trkpt lat="39.950717937992735" lon="9.649814155182344"><ele>18.5</ele><time>2026-04-11T14:51:33Z</time></trkpt><trkpt lat="39.95049330489895" lon="9.649661794530052"><ele>19.0</ele><time>2026-04-11T14:51:34Z</time></trkpt><trkpt lat="39.950268870355096" lon="9.649511782206998"><ele>19.5</ele><time>2026-04-11T14:51:35Z</time></trkpt><trkpt lat="39.950042582533776" lon="9.649367822920501"><ele>20.0</ele><time>2026-04-11T14:51:36Z</time></trkpt><trkpt lat="39.949812194687865" lon="9.6492355995959"><ele>20.5</ele><time>2026-04-11T14:51:37Z</time></trkpt><trkpt lat="39.94957818741502" lon="9.649122239164912"><ele>21.0</ele><time>2026-04-11T14:51:38Z</time></trkpt><trkpt lat="39.949339501813675" lon="9.649023610992899"><ele>20.0</ele><time>2026-04-11T14:51:39Z</time></trkpt><trkpt lat="39.94909830289502" lon="9.64893678182343"><ele>19.0</ele><time>2026-04-11T14:51:40Z</time></trkpt><trkpt lat="39.94885436185499" lon="9.648862862354003"><ele>19.0</ele><time>2026-04-11T14:51:41Z</time></trkpt><trkpt lat="39.94860882701934" lon="9.648804610364436"><ele>19.0</ele><time>2026-04-11T14:51:42Z</time></trkpt><trkpt lat="39.94836138172481" lon="9.648758999462531"><ele>20.0</ele><time>2026-04-11T14:51:43Z</time></trkpt><trkpt lat="39.948114621981226" lon="9.648721513686842"><ele>21.0</ele><time>2026-04-11T14:51:44Z</time></trkpt><trkpt lat="39.9478637856181" lon="9.648683409582123"><ele>21.0</ele><time>2026-04-11T14:51:45Z</time></trkpt><trkpt lat="39.94761212380366" lon="9.648642696945084"><ele>21.0</ele><time>2026-04-11T14:51:46Z</time></trkpt><trkpt lat="39.94736145107095" lon="9.648601027721002"><ele>22.5</ele><time>2026-04-11T14:51:47Z</time></trkpt><trkpt lat="39.947110992207975" lon="9.648562242017322"><ele>24.0</ele><time>2026-04-11T14:51:48Z</time></trkpt><trkpt lat="39.946859053966385" lon="9.648528297101118"><ele>22.0</ele><time>2026-04-11T14:51:49Z</time></trkpt><trkpt lat="39.946608164132044" lon="9.648497860794851"><ele>20.0</ele><time>2026-04-11T14:51:50Z</time></trkpt><trkpt lat="39.94635806795442" lon="9.648463711668674"><ele>20.0</ele><time>2026-04-11T14:51:51Z</time></trkpt><trkpt lat="39.946108598008024" lon="9.64842881085626"><ele>20.0</ele><time>2026-04-11T14:51:52Z</time></trkpt><trkpt lat="39.94586063150726" lon="9.648393779227149"><ele>19.0</ele><time>2026-04-11T14:51:53Z</time></trkpt><trkpt lat="39.94561384877732" lon="9.648360851568325"><ele>18.0</ele><time>2026-04-11T14:51:54Z</time></trkpt><trkpt lat="39.94536987613371" lon="9.64832870846923"><ele>18.0</ele><time>2026-04-11T14:51:55Z</time></trkpt><trkpt lat="39.945126828421664" lon="9.648294635634096"><ele>18.0</ele><time>2026-04-11T14:51:56Z</time></trkpt><trkpt lat="39.94488688803999" lon="9.648259019325156"><ele>19.0</ele><time>2026-04-11T14:51:57Z</time></trkpt><trkpt lat="39.94465019169062" lon="9.648222422460723"><ele>20.0</ele><time>2026-04-11T14:51:58Z</time></trkpt><trkpt lat="39.944413784342466" lon="9.648187622872724"><ele>20.5</ele><time>2026-04-11T14:51:59Z</time></trkpt><trkpt lat="39.94417600610304" lon="9.648155184118263"><ele>21.0</ele><time>2026-04-11T14:52:00Z</time></trkpt><trkpt lat="39.943939711091275" lon="9.648123754503056"><ele>21.0</ele><time>2026-04-11T14:52:01Z</time></trkpt><trkpt lat="39.94370537722357" lon="9.648091761371022"><ele>21.0</ele><time>2026-04-11T14:52:02Z</time></trkpt><trkpt lat="39.94347187880224" lon="9.648058387670497"><ele>22.5</ele><time>2026-04-11T14:52:03Z</time></trkpt><trkpt lat="39.94323998179331" lon="9.648026206417052"><ele>24.0</ele><time>2026-04-11T14:52:04Z</time></trkpt><trkpt lat="39.94301108104149" lon="9.647995809621534"><ele>24.0</ele><time>2026-04-11T14:52:05Z</time></trkpt><trkpt lat="39.94278055824751" lon="9.647964067704617"><ele>24.0</ele><time>2026-04-11T14:52:06Z</time></trkpt><trkpt lat="39.942552475363215" lon="9.647929323681483"><ele>24.0</ele><time>2026-04-11T14:52:07Z</time></trkpt><trkpt lat="39.94232556093199" lon="9.647895790458128"><ele>24.0</ele><time>2026-04-11T14:52:08Z</time></trkpt><trkpt lat="39.942097302324996" lon="9.647861441077536"><ele>24.0</ele><time>2026-04-11T14:52:09Z</time></trkpt><trkpt lat="39.94186974840497" lon="9.647828389517986"><ele>24.0</ele><time>2026-04-11T14:52:10Z</time></trkpt><trkpt lat="39.941641219503666" lon="9.647797744458302"><ele>24.5</ele><time>2026-04-11T14:52:11Z</time></trkpt><trkpt lat="39.941414013514624" lon="9.647766517568808"><ele>25.0</ele><time>2026-04-11T14:52:12Z</time></trkpt><trkpt lat="39.941185303113635" lon="9.647734682248352"><ele>25.0</ele><time>2026-04-11T14:52:13Z</time></trkpt><trkpt lat="39.94095520100628" lon="9.647700786688183"><ele>25.0</ele><time>2026-04-11T14:52:14Z</time></trkpt><trkpt lat="39.940726008051385" lon="9.647668534715914"><ele>25.5</ele><time>2026-04-11T14:52:15Z</time></trkpt><trkpt lat="39.940498841005805" lon="9.647638663948708"><ele>26.0</ele><time>2026-04-11T14:52:16Z</time></trkpt><trkpt lat="39.940272209538634" lon="9.647609608705531"><ele>27.0</ele><time>2026-04-11T14:52:17Z</time></trkpt><trkpt lat="39.94004467489826" lon="9.647582524197553"><ele>28.0</ele><time>2026-04-11T14:52:18Z</time></trkpt><trkpt lat="39.93981549983009" lon="9.647555302037956"><ele>28.0</ele><time>2026-04-11T14:52:19Z</time></trkpt><trkpt lat="39.93958625794045" lon="9.647526340078617"><ele>28.0</ele><time>2026-04-11T14:52:20Z</time></trkpt><trkpt lat="39.93935803369019" lon="9.647496568181486"><ele>27.0</ele><time>2026-04-11T14:52:21Z</time></trkpt><trkpt lat="39.93912711864088" lon="9.647464437262213"><ele>26.0</ele><time>2026-04-11T14:52:22Z</time></trkpt><trkpt lat="39.93889709750082" lon="9.647428292855915"><ele>26.0</ele><time>2026-04-11T14:52:23Z</time></trkpt><trkpt lat="39.93866833954744" lon="9.647385463575425"><ele>26.0</ele><time>2026-04-11T14:52:24Z</time></trkpt><trkpt lat="39.9384396051639" lon="9.647344837943676"><ele>26.0</ele><time>2026-04-11T14:52:25Z</time></trkpt><trkpt lat="39.938210001102405" lon="9.647313328385595"><ele>26.0</ele><time>2026-04-11T14:52:26Z</time></trkpt><trkpt lat="39.93797834465007" lon="9.647283627667218"><ele>26.0</ele><time>2026-04-11T14:52:27Z</time></trkpt><trkpt lat="39.937747205561664" lon="9.647250831741978"><ele>26.0</ele><time>2026-04-11T14:52:28Z</time></trkpt><trkpt lat="39.937515451948045" lon="9.647216371271071"><ele>25.5</ele><time>2026-04-11T14:52:29Z</time></trkpt><trkpt lat="39.93728275942142" lon="9.64718259048292"><ele>25.0</ele><time>2026-04-11T14:52:30Z</time></trkpt><trkpt lat="39.93704889411746" lon="9.647148925857369"><ele>25.0</ele><time>2026-04-11T14:52:31Z</time></trkpt><trkpt lat="39.936815295560486" lon="9.647114164259024"><ele>25.0</ele><time>2026-04-11T14:52:32Z</time></trkpt><trkpt lat="39.93658195001377" lon="9.647078558478452"><ele>24.5</ele><time>2026-04-11T14:52:33Z</time></trkpt><trkpt lat="39.936345866307654" lon="9.647045819906305"><ele>24.0</ele><time>2026-04-11T14:52:34Z</time></trkpt><trkpt lat="39.936108144065024" lon="9.647014663649198"><ele>24.5</ele><time>2026-04-11T14:52:35Z</time></trkpt><trkpt lat="39.93587002395288" lon="9.646985863157056"><ele>25.0</ele><time>2026-04-11T14:52:36Z</time></trkpt><trkpt lat="39.93564035546177" lon="9.64695906950185"><ele>27.5</ele><time>2026-04-11T14:52:37Z</time></trkpt><trkpt lat="39.935406945466646" lon="9.646929266298793"><ele>30.0</ele><time>2026-04-11T14:52:38Z</time></trkpt><trkpt lat="39.93517452555061" lon="9.64689564509528"><ele>29.5</ele><time>2026-04-11T14:52:39Z</time></trkpt><trkpt lat="39.93493350691667" lon="9.646858517502583"><ele>29.0</ele><time>2026-04-11T14:52:40Z</time></trkpt><trkpt lat="39.93469692415194" lon="9.646824474692737"><ele>29.0</ele><time>2026-04-11T14:52:41Z</time></trkpt><trkpt lat="39.93445881418364" lon="9.646791783571192"><ele>29.0</ele><time>2026-04-11T14:52:42Z</time></trkpt><trkpt lat="39.934222805384465" lon="9.646759267837172"><ele>28.5</ele><time>2026-04-11T14:52:43Z</time></trkpt><trkpt lat="39.933986815827616" lon="9.646726451363227"><ele>28.0</ele><time>2026-04-11T14:52:44Z</time></trkpt><trkpt lat="39.93375079733739" lon="9.64669500591491"><ele>28.0</ele><time>2026-04-11T14:52:45Z</time></trkpt><trkpt lat="39.93351298558219" lon="9.646660389201937"><ele>28.0</ele><time>2026-04-11T14:52:46Z</time></trkpt><trkpt lat="39.93327658867436" lon="9.646625506400973"><ele>27.5</ele><time>2026-04-11T14:52:47Z</time></trkpt><trkpt lat="39.933040285938134" lon="9.646591743635959"><ele>27.0</ele><time>2026-04-11T14:52:48Z</time></trkpt><trkpt lat="39.93280394773057" lon="9.646559160184372"><ele>27.0</ele><time>2026-04-11T14:52:49Z</time></trkpt><trkpt lat="39.93256716759898" lon="9.646525787029944"><ele>27.0</ele><time>2026-04-11T14:52:50Z</time></trkpt><trkpt lat="39.93232604274199" lon="9.646490464096646"><ele>27.0</ele><time>2026-04-11T14:52:51Z</time></trkpt><trkpt lat="39.93208201965631" lon="9.646453462355788"><ele>27.0</ele><time>2026-04-11T14:52:52Z</time></trkpt><trkpt lat="39.93183275817082" lon="9.646412840257632"><ele>28.5</ele><time>2026-04-11T14:52:53Z</time></trkpt><trkpt lat="39.93158150055104" lon="9.646371608469279"><ele>30.0</ele><time>2026-04-11T14:52:54Z</time></trkpt><trkpt lat="39.93135751988677" lon="9.646338485123163"><ele>30.0</ele><time>2026-04-11T14:52:55Z</time></trkpt><trkpt lat="39.93111348486668" lon="9.646302642733666"><ele>30.0</ele><time>2026-04-11T14:52:56Z</time></trkpt><trkpt lat="39.93086695679625" lon="9.64626898906594"><ele>30.0</ele><time>2026-04-11T14:52:57Z</time></trkpt><trkpt lat="39.93061994765751" lon="9.646233396809022"><ele>30.0</ele><time>2026-04-11T14:52:58Z</time></trkpt><trkpt lat="39.93037038925455" lon="9.646199711153509"><ele>30.0</ele><time>2026-04-11T14:52:59Z</time></trkpt><trkpt lat="39.93012366131333" lon="9.646167901811468"><ele>30.0</ele><time>2026-04-11T14:53:00Z</time></trkpt><trkpt lat="39.92987571545069" lon="9.646139695142493"><ele>30.5</ele><time>2026-04-11T14:53:01Z</time></trkpt><trkpt lat="39.92962545372246" lon="9.646122156008468"><ele>31.0</ele><time>2026-04-11T14:53:02Z</time></trkpt><trkpt lat="39.929374166412984" lon="9.646127094906896"><ele>30.0</ele><time>2026-04-11T14:53:03Z</time></trkpt><trkpt lat="39.92912218441522" lon="9.64615671620343"><ele>29.0</ele><time>2026-04-11T14:53:04Z</time></trkpt><trkpt lat="39.92887374902308" lon="9.646192096195678"><ele>29.0</ele><time>2026-04-11T14:53:05Z</time></trkpt><trkpt lat="39.92862678549006" lon="9.646236481347207"><ele>29.0</ele><time>2026-04-11T14:53:06Z</time></trkpt><trkpt lat="39.92838583095466" lon="9.646302944404155"><ele>28.5</ele><time>2026-04-11T14:53:07Z</time></trkpt><trkpt lat="39.928144459783745" lon="9.646380939490214"><ele>28.0</ele><time>2026-04-11T14:53:08Z</time></trkpt><trkpt lat="39.9279069799594" lon="9.646454947713773"><ele>28.0</ele><time>2026-04-11T14:53:09Z</time></trkpt><trkpt lat="39.92766617014953" lon="9.646532688770161"><ele>28.0</ele><time>2026-04-11T14:53:10Z</time></trkpt><trkpt lat="39.92742879902661" lon="9.646607925514086"><ele>28.0</ele><time>2026-04-11T14:53:11Z</time></trkpt><trkpt lat="39.92718573545703" lon="9.646689176965024"><ele>28.0</ele><time>2026-04-11T14:53:12Z</time></trkpt><trkpt lat="39.926938536787574" lon="9.646772776597594"><ele>27.5</ele><time>2026-04-11T14:53:13Z</time></trkpt><trkpt lat="39.92670130644657" lon="9.646856441115675"><ele>27.0</ele><time>2026-04-11T14:53:14Z</time></trkpt><trkpt lat="39.926459850309456" lon="9.646938728095952"><ele>25.5</ele><time>2026-04-11T14:53:15Z</time></trkpt><trkpt lat="39.926220796380406" lon="9.64701875959411"><ele>24.0</ele><time>2026-04-11T14:53:16Z</time></trkpt><trkpt lat="39.925974652926755" lon="9.647094409578546"><ele>24.0</ele><time>2026-04-11T14:53:17Z</time></trkpt><trkpt lat="39.92573131920843" lon="9.647171653654892"><ele>24.0</ele><time>2026-04-11T14:53:18Z</time></trkpt><trkpt lat="39.92548944870993" lon="9.647248020137598"><ele>24.0</ele><time>2026-04-11T14:53:19Z</time></trkpt><trkpt lat="39.92524336610936" lon="9.647325482510679"><ele>24.0</ele><time>2026-04-11T14:53:20Z</time></trkpt><trkpt lat="39.92500359846333" lon="9.647397392019206"><ele>24.0</ele><time>2026-04-11T14:53:21Z</time></trkpt><trkpt lat="39.924762194316" lon="9.647473627627628"><ele>24.0</ele><time>2026-04-11T14:53:22Z</time></trkpt><trkpt lat="39.924516594875776" lon="9.647551974281999"><ele>24.0</ele><time>2026-04-11T14:53:23Z</time></trkpt><trkpt lat="39.92427017123042" lon="9.64763064023502"><ele>24.0</ele><time>2026-04-11T14:53:24Z</time></trkpt><trkpt lat="39.92401993688871" lon="9.647706966159621"><ele>22.5</ele><time>2026-04-11T14:53:25Z</time></trkpt><trkpt lat="39.92376734968497" lon="9.647788344314737"><ele>21.0</ele><time>2026-04-11T14:53:26Z</time></trkpt><trkpt lat="39.923511635489206" lon="9.647873555721828"><ele>20.0</ele><time>2026-04-11T14:53:27Z</time></trkpt><trkpt lat="39.92325215204178" lon="9.647956614954165"><ele>19.0</ele><time>2026-04-11T14:53:28Z</time></trkpt><trkpt lat="39.922985526592264" lon="9.648040755172376"><ele>19.0</ele><time>2026-04-11T14:53:29Z</time></trkpt><trkpt lat="39.922720724469" lon="9.648123692064194"><ele>19.0</ele><time>2026-04-11T14:53:30Z</time></trkpt><trkpt lat="39.922451751074966" lon="9.648212738987775"><ele>18.5</ele><time>2026-04-11T14:53:31Z</time></trkpt><trkpt lat="39.92217667802932" lon="9.648308660688723"><ele>18.0</ele><time>2026-04-11T14:53:32Z</time></trkpt><trkpt lat="39.92189855143744" lon="9.648391650810396"><ele>18.5</ele><time>2026-04-11T14:53:33Z</time></trkpt><trkpt lat="39.92162234377939" lon="9.648474743236793"><ele>19.0</ele><time>2026-04-11T14:53:34Z</time></trkpt><trkpt lat="39.92134887705332" lon="9.648560886288813"><ele>19.0</ele><time>2026-04-11T14:53:35Z</time></trkpt><trkpt lat="39.92107663280518" lon="9.648651514437118"><ele>19.0</ele><time>2026-04-11T14:53:36Z</time></trkpt><trkpt lat="39.9208032637219" lon="9.648742345826992"><ele>19.0</ele><time>2026-04-11T14:53:37Z</time></trkpt><trkpt lat="39.92053025688839" lon="9.64883099656177"><ele>19.0</ele><time>2026-04-11T14:53:38Z</time></trkpt><trkpt lat="39.92025682435711" lon="9.648915459068068"><ele>18.5</ele><time>2026-04-11T14:53:39Z</time></trkpt><trkpt lat="39.91997977232969" lon="9.649001320833591"><ele>18.0</ele><time>2026-04-11T14:53:40Z</time></trkpt><trkpt lat="39.919710484159786" lon="9.649086653620866"><ele>18.0</ele><time>2026-04-11T14:53:41Z</time></trkpt><trkpt lat="39.91943813792255" lon="9.649168091884468"><ele>18.0</ele><time>2026-04-11T14:53:42Z</time></trkpt><trkpt lat="39.9191645857841" lon="9.649249648523847"><ele>20.0</ele><time>2026-04-11T14:53:43Z</time></trkpt><trkpt lat="39.918888212099894" lon="9.649340715296821"><ele>22.0</ele><time>2026-04-11T14:53:44Z</time></trkpt><trkpt lat="39.91860800001357" lon="9.649436188795084"><ele>21.0</ele><time>2026-04-11T14:53:45Z</time></trkpt><trkpt lat="39.91832607783697" lon="9.649531512084176"><ele>20.0</ele><time>2026-04-11T14:53:46Z</time></trkpt><trkpt lat="39.91804929333108" lon="9.649623627274377"><ele>20.0</ele><time>2026-04-11T14:53:47Z</time></trkpt><trkpt lat="39.91779431380984" lon="9.64971762040998"><ele>20.0</ele><time>2026-04-11T14:53:48Z</time></trkpt><trkpt lat="39.91756062607251" lon="9.649813429425528"><ele>19.333333333333336</ele><time>2026-04-11T14:53:49Z</time></trkpt><trkpt lat="39.91734266042538" lon="9.649911652650045"><ele>18.666666666666668</ele><time>2026-04-11T14:53:50Z</time></trkpt><trkpt lat="39.917153480986045" lon="9.650006800644302"><ele>18.0</ele><time>2026-04-11T14:53:51Z</time></trkpt><trkpt lat="39.91698823453604" lon="9.650078998933632"><ele>18.0</ele><time>2026-04-11T14:53:52Z</time></trkpt><trkpt lat="39.91684115051353" lon="9.65010949756875"><ele>18.0</ele><time>2026-04-11T14:53:53Z</time></trkpt><trkpt lat="39.9167135391908" lon="9.65009344771061"><ele>18.0</ele><time>2026-04-11T14:53:54Z</time></trkpt><trkpt lat="39.91660170088939" lon="9.650050556858497"><ele>18.0</ele><time>2026-04-11T14:53:55Z</time></trkpt><trkpt lat="39.916499910469305" lon="9.650048076008513"><ele>18.5</ele><time>2026-04-11T14:53:56Z</time></trkpt><trkpt lat="39.91639841173666" lon="9.650109813521652"><ele>19.0</ele><time>2026-04-11T14:53:57Z</time></trkpt><trkpt lat="39.916267683452574" lon="9.650217266898029"><ele>19.5</ele><time>2026-04-11T14:53:58Z</time></trkpt><trkpt lat="39.91610127203817" lon="9.650264086963873"><ele>20.0</ele><time>2026-04-11T14:53:59Z</time></trkpt><trkpt lat="39.915918102023795" lon="9.650250311367799"><ele>20.333333333333336</ele><time>2026-04-11T14:54:00Z</time></trkpt><trkpt lat="39.91571840334077" lon="9.650221320588578"><ele>20.666666666666668</ele><time>2026-04-11T14:54:01Z</time></trkpt><trkpt lat="39.91550369132951" lon="9.650214642171699"><ele>21.0</ele><time>2026-04-11T14:54:02Z</time></trkpt><trkpt lat="39.91526855853003" lon="9.650212901979536"><ele>23.0</ele><time>2026-04-11T14:54:03Z</time></trkpt><trkpt lat="39.915016654599256" lon="9.650205704392025"><ele>25.0</ele><time>2026-04-11T14:54:04Z</time></trkpt><trkpt lat="39.91475001212198" lon="9.650197313906363"><ele>25.0</ele><time>2026-04-11T14:54:05Z</time></trkpt><trkpt lat="39.91446547792772" lon="9.650187816759543"><ele>25.0</ele><time>2026-04-11T14:54:06Z</time></trkpt><trkpt lat="39.91417004159955" lon="9.650170837378372"><ele>25.0</ele><time>2026-04-11T14:54:07Z</time></trkpt><trkpt lat="39.91388152513529" lon="9.650144602722579"><ele>25.0</ele><time>2026-04-11T14:54:08Z</time></trkpt><trkpt lat="39.9135994933128" lon="9.65012646124504"><ele>24.0</ele><time>2026-04-11T14:54:09Z</time></trkpt><trkpt lat="39.91331959421753" lon="9.650105590617938"><ele>23.0</ele><time>2026-04-11T14:54:10Z</time></trkpt><trkpt lat="39.91303838999322" lon="9.650076861084624"><ele>23.0</ele><time>2026-04-11T14:54:11Z</time></trkpt><trkpt lat="39.91275752881829" lon="9.650036365180439"><ele>23.0</ele><time>2026-04-11T14:54:12Z</time></trkpt><trkpt lat="39.91247336852197" lon="9.649989376780958"><ele>22.5</ele><time>2026-04-11T14:54:13Z</time></trkpt><trkpt lat="39.912185507773415" lon="9.649941564642866"><ele>22.0</ele><time>2026-04-11T14:54:14Z</time></trkpt><trkpt lat="39.91189210443783" lon="9.649890628045204"><ele>21.5</ele><time>2026-04-11T14:54:15Z</time></trkpt><trkpt lat="39.91159907495856" lon="9.649835753459115"><ele>21.0</ele><time>2026-04-11T14:54:16Z</time></trkpt><trkpt lat="39.91131332688995" lon="9.649772692158002"><ele>21.0</ele><time>2026-04-11T14:54:17Z</time></trkpt><trkpt lat="39.9110331248401" lon="9.649708067576276"><ele>21.0</ele><time>2026-04-11T14:54:18Z</time></trkpt><trkpt lat="39.910754283890554" lon="9.649649408439931"><ele>21.5</ele><time>2026-04-11T14:54:19Z</time></trkpt><trkpt lat="39.9104791137706" lon="9.64959773005083"><ele>22.0</ele><time>2026-04-11T14:54:20Z</time></trkpt><trkpt lat="39.91020840761622" lon="9.649552635681083"><ele>22.0</ele><time>2026-04-11T14:54:21Z</time></trkpt><trkpt lat="39.90994068270689" lon="9.6495137560493"><ele>22.0</ele><time>2026-04-11T14:54:22Z</time></trkpt><trkpt lat="39.909676613142054" lon="9.649480898033765"><ele>24.5</ele><time>2026-04-11T14:54:23Z</time></trkpt><trkpt lat="39.90941311157548" lon="9.64945393153655"><ele>27.0</ele><time>2026-04-11T14:54:24Z</time></trkpt><trkpt lat="39.9091495349778" lon="9.649433629503035"><ele>27.0</ele><time>2026-04-11T14:54:25Z</time></trkpt><trkpt lat="39.908886053677826" lon="9.649417983346009"><ele>27.0</ele><time>2026-04-11T14:54:26Z</time></trkpt><trkpt lat="39.908620720153095" lon="9.649404935004489"><ele>29.0</ele><time>2026-04-11T14:54:27Z</time></trkpt><trkpt lat="39.90835287989977" lon="9.649392770630996"><ele>31.0</ele><time>2026-04-11T14:54:28Z</time></trkpt><trkpt lat="39.90808600144449" lon="9.649381221954922"><ele>31.0</ele><time>2026-04-11T14:54:29Z</time></trkpt><trkpt lat="39.90782174996748" lon="9.649371883925133"><ele>31.0</ele><time>2026-04-11T14:54:30Z</time></trkpt><trkpt lat="39.907556139365205" lon="9.6493619805715"><ele>31.5</ele><time>2026-04-11T14:54:31Z</time></trkpt><trkpt lat="39.9072880142702" lon="9.649349443349902"><ele>32.0</ele><time>2026-04-11T14:54:32Z</time></trkpt><trkpt lat="39.90702032342991" lon="9.64933535346918"><ele>32.0</ele><time>2026-04-11T14:54:33Z</time></trkpt><trkpt lat="39.90674972895968" lon="9.649326303836899"><ele>32.0</ele><time>2026-04-11T14:54:34Z</time></trkpt><trkpt lat="39.906478892401374" lon="9.649325204074124"><ele>31.0</ele><time>2026-04-11T14:54:35Z</time></trkpt><trkpt lat="39.90620745939769" lon="9.649324989318195"><ele>30.0</ele><time>2026-04-11T14:54:36Z</time></trkpt><trkpt lat="39.905936251083375" lon="9.649320752510565"><ele>31.5</ele><time>2026-04-11T14:54:37Z</time></trkpt><trkpt lat="39.905666224189055" lon="9.649310937788968"><ele>33.0</ele><time>2026-04-11T14:54:38Z</time></trkpt><trkpt lat="39.90539858619056" lon="9.649294603826487"><ele>33.0</ele><time>2026-04-11T14:54:39Z</time></trkpt><trkpt lat="39.90512832096462" lon="9.64927470358158"><ele>33.0</ele><time>2026-04-11T14:54:40Z</time></trkpt><trkpt lat="39.90485839494025" lon="9.649251525932156"><ele>32.5</ele><time>2026-04-11T14:54:41Z</time></trkpt><trkpt lat="39.9045841150848" lon="9.649224665240693"><ele>32.0</ele><time>2026-04-11T14:54:42Z</time></trkpt><trkpt lat="39.904309740044255" lon="9.649200672080676"><ele>32.0</ele><time>2026-04-11T14:54:43Z</time></trkpt><trkpt lat="39.90403142475501" lon="9.64917974198668"><ele>32.0</ele><time>2026-04-11T14:54:44Z</time></trkpt><trkpt lat="39.90375231312356" lon="9.649164887729142"><ele>32.0</ele><time>2026-04-11T14:54:45Z</time></trkpt><trkpt lat="39.903467835528346" lon="9.649145106910707"><ele>32.0</ele><time>2026-04-11T14:54:46Z</time></trkpt><trkpt lat="39.90318477378279" lon="9.64912111597237"><ele>32.5</ele><time>2026-04-11T14:54:47Z</time></trkpt><trkpt lat="39.902896471121295" lon="9.649091603536744"><ele>33.0</ele><time>2026-04-11T14:54:48Z</time></trkpt><trkpt lat="39.90261046515088" lon="9.64905990174749"><ele>34.0</ele><time>2026-04-11T14:54:49Z</time></trkpt><trkpt lat="39.9023210550754" lon="9.649024716123646"><ele>35.0</ele><time>2026-04-11T14:54:50Z</time></trkpt><trkpt lat="39.9020332092278" lon="9.648986785856712"><ele>36.5</ele><time>2026-04-11T14:54:51Z</time></trkpt><trkpt lat="39.90174258063843" lon="9.648955751793785"><ele>38.0</ele><time>2026-04-11T14:54:52Z</time></trkpt><trkpt lat="39.901451021099426" lon="9.648927045779988"><ele>38.0</ele><time>2026-04-11T14:54:53Z</time></trkpt><trkpt lat="39.90116917834772" lon="9.648878030876741"><ele>38.0</ele><time>2026-04-11T14:54:54Z</time></trkpt><trkpt lat="39.90086008995302" lon="9.648868689072819"><ele>38.5</ele><time>2026-04-11T14:54:55Z</time></trkpt><trkpt lat="39.900564825920675" lon="9.648834629798397"><ele>39.0</ele><time>2026-04-11T14:54:56Z</time></trkpt><trkpt lat="39.90026940941372" lon="9.648808657278224"><ele>39.0</ele><time>2026-04-11T14:54:57Z</time></trkpt><trkpt lat="39.899966883972425" lon="9.648773604551382"><ele>39.0</ele><time>2026-04-11T14:54:58Z</time></trkpt><trkpt lat="39.899664813800875" lon="9.648743370474012"><ele>39.0</ele><time>2026-04-11T14:54:59Z</time></trkpt><trkpt lat="39.89935923142779" lon="9.648710582552592"><ele>39.0</ele><time>2026-04-11T14:55:00Z</time></trkpt><trkpt lat="39.899058998547964" lon="9.64868042811698"><ele>40.5</ele><time>2026-04-11T14:55:01Z</time></trkpt><trkpt lat="39.898758995204545" lon="9.648649216466415"><ele>42.0</ele><time>2026-04-11T14:55:02Z</time></trkpt><trkpt lat="39.898455843534684" lon="9.648620901734539"><ele>44.5</ele><time>2026-04-11T14:55:03Z</time></trkpt><trkpt lat="39.8981477943664" lon="9.648593386703723"><ele>47.0</ele><time>2026-04-11T14:55:04Z</time></trkpt><trkpt lat="39.8978354930723" lon="9.648564412822253"><ele>48.0</ele><time>2026-04-11T14:55:05Z</time></trkpt><trkpt lat="39.89751686905859" lon="9.648538113869725"><ele>49.0</ele><time>2026-04-11T14:55:06Z</time></trkpt><trkpt lat="39.89719986365045" lon="9.648514534622397"><ele>49.0</ele><time>2026-04-11T14:55:07Z</time></trkpt><trkpt lat="39.89688755447152" lon="9.648505820405367"><ele>49.0</ele><time>2026-04-11T14:55:08Z</time></trkpt><trkpt lat="39.896572824881495" lon="9.648517924027592"><ele>51.0</ele><time>2026-04-11T14:55:09Z</time></trkpt><trkpt lat="39.89625986159278" lon="9.648559154335961"><ele>53.0</ele><time>2026-04-11T14:55:10Z</time></trkpt><trkpt lat="39.89594938635063" lon="9.648623319663479"><ele>51.5</ele><time>2026-04-11T14:55:11Z</time></trkpt><trkpt lat="39.895639343911924" lon="9.648707435514654"><ele>50.0</ele><time>2026-04-11T14:55:12Z</time></trkpt><trkpt lat="39.89532658557858" lon="9.648808408138397"><ele>49.5</ele><time>2026-04-11T14:55:13Z</time></trkpt><trkpt lat="39.89501037077433" lon="9.648925101793568"><ele>49.0</ele><time>2026-04-11T14:55:14Z</time></trkpt><trkpt lat="39.8946926017398" lon="9.649049598139367"><ele>49.0</ele><time>2026-04-11T14:55:15Z</time></trkpt><trkpt lat="39.89438051000048" lon="9.649174218623424"><ele>49.0</ele><time>2026-04-11T14:55:16Z</time></trkpt><trkpt lat="39.89407366666831" lon="9.649294830817263"><ele>50.5</ele><time>2026-04-11T14:55:17Z</time></trkpt><trkpt lat="39.893774299374606" lon="9.649411253879286"><ele>52.0</ele><time>2026-04-11T14:55:18Z</time></trkpt><trkpt lat="39.893485593692546" lon="9.649523147847129"><ele>48.0</ele><time>2026-04-11T14:55:19Z</time></trkpt><trkpt lat="39.89320976237273" lon="9.64962902971736"><ele>44.0</ele><time>2026-04-11T14:55:20Z</time></trkpt><trkpt lat="39.89294584553533" lon="9.649731643854436"><ele>44.0</ele><time>2026-04-11T14:55:21Z</time></trkpt><trkpt lat="39.892690300776444" lon="9.649829548453415"><ele>44.0</ele><time>2026-04-11T14:55:22Z</time></trkpt><trkpt lat="39.892441799315" lon="9.649927411845226"><ele>44.0</ele><time>2026-04-11T14:55:23Z</time></trkpt><trkpt lat="39.892195061224825" lon="9.650023190816041"><ele>44.0</ele><time>2026-04-11T14:55:24Z</time></trkpt><trkpt lat="39.89194864294043" lon="9.650113203419785"><ele>47.0</ele><time>2026-04-11T14:55:25Z</time></trkpt><trkpt lat="39.89170003521295" lon="9.65019681163834"><ele>50.0</ele><time>2026-04-11T14:55:26Z</time></trkpt><trkpt lat="39.891442752465274" lon="9.650273410417116"><ele>45.5</ele><time>2026-04-11T14:55:27Z</time></trkpt><trkpt lat="39.891181307929216" lon="9.650340559062087"><ele>41.0</ele><time>2026-04-11T14:55:28Z</time></trkpt><trkpt lat="39.89091422088794" lon="9.65040321798941"><ele>40.5</ele><time>2026-04-11T14:55:29Z</time></trkpt><trkpt lat="39.890646344630866" lon="9.650460770142555"><ele>40.0</ele><time>2026-04-11T14:55:30Z</time></trkpt><trkpt lat="39.8903693600392" lon="9.65051334250162"><ele>38.5</ele><time>2026-04-11T14:55:31Z</time></trkpt><trkpt lat="39.89008318437832" lon="9.650558096411459"><ele>37.0</ele><time>2026-04-11T14:55:32Z</time></trkpt><trkpt lat="39.88979163462596" lon="9.650600104630751"><ele>37.0</ele><time>2026-04-11T14:55:33Z</time></trkpt><trkpt lat="39.889493681208904" lon="9.65063961256197"><ele>37.0</ele><time>2026-04-11T14:55:34Z</time></trkpt><trkpt lat="39.88919630686664" lon="9.65067695988983"><ele>37.0</ele><time>2026-04-11T14:55:35Z</time></trkpt><trkpt lat="39.88890111381372" lon="9.650713050046898"><ele>37.0</ele><time>2026-04-11T14:55:36Z</time></trkpt><trkpt lat="39.88861057584357" lon="9.650750272799264"><ele>36.5</ele><time>2026-04-11T14:55:37Z</time></trkpt><trkpt lat="39.88832024615593" lon="9.650791086829749"><ele>36.0</ele><time>2026-04-11T14:55:38Z</time></trkpt><trkpt lat="39.888026130695856" lon="9.650839469874132"><ele>36.0</ele><time>2026-04-11T14:55:39Z</time></trkpt><trkpt lat="39.88772870882789" lon="9.650894518240808"><ele>36.0</ele><time>2026-04-11T14:55:40Z</time></trkpt><trkpt lat="39.88741827942059" lon="9.650952538838563"><ele>36.0</ele><time>2026-04-11T14:55:41Z</time></trkpt><trkpt lat="39.88710738310733" lon="9.65099593515531"><ele>36.0</ele><time>2026-04-11T14:55:42Z</time></trkpt><trkpt lat="39.88679764769343" lon="9.651027834288334"><ele>37.5</ele><time>2026-04-11T14:55:43Z</time></trkpt><trkpt lat="39.88648881150097" lon="9.651054717704298"><ele>39.0</ele><time>2026-04-11T14:55:44Z</time></trkpt><trkpt lat="39.886180911644246" lon="9.651079759258655"><ele>40.0</ele><time>2026-04-11T14:55:45Z</time></trkpt><trkpt lat="39.88587291846684" lon="9.651100040249865"><ele>41.0</ele><time>2026-04-11T14:55:46Z</time></trkpt><trkpt lat="39.885565151586974" lon="9.651105834187932"><ele>41.0</ele><time>2026-04-11T14:55:47Z</time></trkpt><trkpt lat="39.88525966410897" lon="9.651091449470558"><ele>41.0</ele><time>2026-04-11T14:55:48Z</time></trkpt><trkpt lat="39.88495186382851" lon="9.651056145536467"><ele>35.5</ele><time>2026-04-11T14:55:49Z</time></trkpt><trkpt lat="39.88464675863203" lon="9.651004697990322"><ele>30.0</ele><time>2026-04-11T14:55:50Z</time></trkpt><trkpt lat="39.88434224899731" lon="9.650948588809207"><ele>29.0</ele><time>2026-04-11T14:55:51Z</time></trkpt><trkpt lat="39.88403518250207" lon="9.650896962255253"><ele>28.0</ele><time>2026-04-11T14:55:52Z</time></trkpt><trkpt lat="39.883721767937104" lon="9.650852741951438"><ele>29.0</ele><time>2026-04-11T14:55:53Z</time></trkpt><trkpt lat="39.883423329957466" lon="9.650810488937049"><ele>30.0</ele><time>2026-04-11T14:55:54Z</time></trkpt><trkpt lat="39.88311013787186" lon="9.650767098614228"><ele>30.0</ele><time>2026-04-11T14:55:55Z</time></trkpt><trkpt lat="39.88279753354233" lon="9.65071904788996"><ele>30.0</ele><time>2026-04-11T14:55:56Z</time></trkpt><trkpt lat="39.88248436034425" lon="9.650667894586867"><ele>30.5</ele><time>2026-04-11T14:55:57Z</time></trkpt><trkpt lat="39.8821695522462" lon="9.650616001123579"><ele>31.0</ele><time>2026-04-11T14:55:58Z</time></trkpt><trkpt lat="39.88185710077109" lon="9.650566445831082"><ele>32.0</ele><time>2026-04-11T14:55:59Z</time></trkpt><trkpt lat="39.88155745984554" lon="9.650520094369742"><ele>33.0</ele><time>2026-04-11T14:56:00Z</time></trkpt><trkpt lat="39.88126527737172" lon="9.650477251741098"><ele>33.0</ele><time>2026-04-11T14:56:01Z</time></trkpt><trkpt lat="39.880979756521015" lon="9.65043468962505"><ele>33.0</ele><time>2026-04-11T14:56:02Z</time></trkpt><trkpt lat="39.88069180357475" lon="9.650397078131993"><ele>33.0</ele><time>2026-04-11T14:56:03Z</time></trkpt><trkpt lat="39.88040476042065" lon="9.650357407397543"><ele>33.0</ele><time>2026-04-11T14:56:04Z</time></trkpt><trkpt lat="39.88011097863661" lon="9.6503150746253"><ele>39.5</ele><time>2026-04-11T14:56:05Z</time></trkpt><trkpt lat="39.8798226743321" lon="9.650251042872075"><ele>46.0</ele><time>2026-04-11T14:56:06Z</time></trkpt><trkpt lat="39.87953950594702" lon="9.650167656232155"><ele>45.0</ele><time>2026-04-11T14:56:07Z</time></trkpt><trkpt lat="39.87925832827336" lon="9.650078250638792"><ele>44.0</ele><time>2026-04-11T14:56:08Z</time></trkpt><trkpt lat="39.87897472028246" lon="9.649981050518662"><ele>44.0</ele><time>2026-04-11T14:56:09Z</time></trkpt><trkpt lat="39.878691773833765" lon="9.649871260628048"><ele>44.0</ele><time>2026-04-11T14:56:10Z</time></trkpt><trkpt lat="39.87840916356996" lon="9.649754886796456"><ele>42.0</ele><time>2026-04-11T14:56:11Z</time></trkpt><trkpt lat="39.87812345227967" lon="9.649636296810797"><ele>40.0</ele><time>2026-04-11T14:56:12Z</time></trkpt><trkpt lat="39.87783764300347" lon="9.64951557036548"><ele>43.0</ele><time>2026-04-11T14:56:13Z</time></trkpt><trkpt lat="39.87755068704136" lon="9.649394568741965"><ele>46.0</ele><time>2026-04-11T14:56:14Z</time></trkpt><trkpt lat="39.87726054884016" lon="9.649273624108798"><ele>46.0</ele><time>2026-04-11T14:56:15Z</time></trkpt><trkpt lat="39.876966385655855" lon="9.649151707165556"><ele>46.0</ele><time>2026-04-11T14:56:16Z</time></trkpt><trkpt lat="39.87666991839367" lon="9.649028546682063"><ele>45.0</ele><time>2026-04-11T14:56:17Z</time></trkpt><trkpt lat="39.87637139465696" lon="9.648903623183356"><ele>44.0</ele><time>2026-04-11T14:56:18Z</time></trkpt><trkpt lat="39.876071428867164" lon="9.648777037950955"><ele>42.5</ele><time>2026-04-11T14:56:19Z</time></trkpt><trkpt lat="39.875773150507385" lon="9.648650775287077"><ele>41.0</ele><time>2026-04-11T14:56:20Z</time></trkpt><trkpt lat="39.87547837880341" lon="9.6485292448254"><ele>42.0</ele><time>2026-04-11T14:56:21Z</time></trkpt><trkpt lat="39.875185390538924" lon="9.648415695485522"><ele>43.0</ele><time>2026-04-11T14:56:22Z</time></trkpt><trkpt lat="39.874890117070464" lon="9.64832056876042"><ele>43.0</ele><time>2026-04-11T14:56:23Z</time></trkpt><trkpt lat="39.87459371613948" lon="9.648247036644795"><ele>43.0</ele><time>2026-04-11T14:56:24Z</time></trkpt><trkpt lat="39.87429522546415" lon="9.64819927425347"><ele>42.0</ele><time>2026-04-11T14:56:25Z</time></trkpt><trkpt lat="39.87399629444251" lon="9.648181877576041"><ele>41.0</ele><time>2026-04-11T14:56:26Z</time></trkpt><trkpt lat="39.87369573743166" lon="9.648193409391904"><ele>42.5</ele><time>2026-04-11T14:56:27Z</time></trkpt><trkpt lat="39.87339602431758" lon="9.648230003285969"><ele>44.0</ele><time>2026-04-11T14:56:28Z</time></trkpt><trkpt lat="39.87309758004878" lon="9.648288720678856"><ele>44.0</ele><time>2026-04-11T14:56:29Z</time></trkpt><trkpt lat="39.87280033435018" lon="9.64836965825361"><ele>44.0</ele><time>2026-04-11T14:56:30Z</time></trkpt><trkpt lat="39.872503355844614" lon="9.648470375207783"><ele>47.0</ele><time>2026-04-11T14:56:31Z</time></trkpt><trkpt lat="39.87220655667106" lon="9.64857944147179"><ele>50.0</ele><time>2026-04-11T14:56:32Z</time></trkpt><trkpt lat="39.87191701781563" lon="9.648682048377864"><ele>54.0</ele><time>2026-04-11T14:56:33Z</time></trkpt><trkpt lat="39.871635878437715" lon="9.648783838493665"><ele>58.0</ele><time>2026-04-11T14:56:34Z</time></trkpt><trkpt lat="39.87135795960526" lon="9.648885322479293"><ele>58.0</ele><time>2026-04-11T14:56:35Z</time></trkpt><trkpt lat="39.87107839210806" lon="9.64897306969866"><ele>58.0</ele><time>2026-04-11T14:56:36Z</time></trkpt><trkpt lat="39.870794107207274" lon="9.649034505578502"><ele>63.0</ele><time>2026-04-11T14:56:37Z</time></trkpt><trkpt lat="39.87050587507048" lon="9.649074260299335"><ele>68.0</ele><time>2026-04-11T14:56:38Z</time></trkpt><trkpt lat="39.870216147514796" lon="9.649099452238062"><ele>67.0</ele><time>2026-04-11T14:56:39Z</time></trkpt><trkpt lat="39.869924733612315" lon="9.64910611769825"><ele>66.0</ele><time>2026-04-11T14:56:40Z</time></trkpt><trkpt lat="39.869630091251565" lon="9.649085698767053"><ele>66.0</ele><time>2026-04-11T14:56:41Z</time></trkpt><trkpt lat="39.86933461688022" lon="9.64903725367703"><ele>66.0</ele><time>2026-04-11T14:56:42Z</time></trkpt><trkpt lat="39.869038025137044" lon="9.64896327458078"><ele>65.0</ele><time>2026-04-11T14:56:43Z</time></trkpt><trkpt lat="39.86874018301502" lon="9.648864877116132"><ele>64.0</ele><time>2026-04-11T14:56:44Z</time></trkpt><trkpt lat="39.86844508791881" lon="9.648744091275468"><ele>68.0</ele><time>2026-04-11T14:56:45Z</time></trkpt><trkpt lat="39.86815842588176" lon="9.648594179235454"><ele>72.0</ele><time>2026-04-11T14:56:46Z</time></trkpt><trkpt lat="39.86787793675019" lon="9.648419449302317"><ele>69.5</ele><time>2026-04-11T14:56:47Z</time></trkpt><trkpt lat="39.86760313054177" lon="9.64822758096854"><ele>67.0</ele><time>2026-04-11T14:56:48Z</time></trkpt><trkpt lat="39.867332724014645" lon="9.64803355691481"><ele>67.0</ele><time>2026-04-11T14:56:49Z</time></trkpt><trkpt lat="39.867070862042056" lon="9.647839815431155"><ele>67.0</ele><time>2026-04-11T14:56:50Z</time></trkpt><trkpt lat="39.866812633830754" lon="9.64764968093758"><ele>66.5</ele><time>2026-04-11T14:56:51Z</time></trkpt><trkpt lat="39.86655615374202" lon="9.647465373086773"><ele>66.0</ele><time>2026-04-11T14:56:52Z</time></trkpt><trkpt lat="39.86630149682197" lon="9.647281229647016"><ele>66.0</ele><time>2026-04-11T14:56:53Z</time></trkpt><trkpt lat="39.86605109786372" lon="9.64709824222472"><ele>66.0</ele><time>2026-04-11T14:56:54Z</time></trkpt><trkpt lat="39.86579802448777" lon="9.646919109362035"><ele>69.5</ele><time>2026-04-11T14:56:55Z</time></trkpt><trkpt lat="39.86553868558213" lon="9.64675412219199"><ele>73.0</ele><time>2026-04-11T14:56:56Z</time></trkpt><trkpt lat="39.86526800515791" lon="9.646610293466077"><ele>75.0</ele><time>2026-04-11T14:56:57Z</time></trkpt><trkpt lat="39.86498660563283" lon="9.646490258690674"><ele>77.0</ele><time>2026-04-11T14:56:58Z</time></trkpt><trkpt lat="39.864693762746995" lon="9.64639278858571"><ele>77.0</ele><time>2026-04-11T14:56:59Z</time></trkpt><trkpt lat="39.86439390947508" lon="9.646318624198424"><ele>77.0</ele><time>2026-04-11T14:57:00Z</time></trkpt><trkpt lat="39.86408497557429" lon="9.646269646501782"><ele>81.0</ele><time>2026-04-11T14:57:01Z</time></trkpt><trkpt lat="39.86377342013784" lon="9.646246039827142"><ele>85.0</ele><time>2026-04-11T14:57:02Z</time></trkpt><trkpt lat="39.86346040280219" lon="9.646246828444593"><ele>87.0</ele><time>2026-04-11T14:57:03Z</time></trkpt><trkpt lat="39.86314537647296" lon="9.646269800572963"><ele>89.0</ele><time>2026-04-11T14:57:04Z</time></trkpt><trkpt lat="39.86283089534865" lon="9.64631250141766"><ele>90.5</ele><time>2026-04-11T14:57:05Z</time></trkpt><trkpt lat="39.86251570557547" lon="9.64636456568016"><ele>92.0</ele><time>2026-04-11T14:57:06Z</time></trkpt><trkpt lat="39.86220436989884" lon="9.64638002278062"><ele>92.0</ele><time>2026-04-11T14:57:07Z</time></trkpt><trkpt lat="39.861896324100805" lon="9.646418321087245"><ele>92.0</ele><time>2026-04-11T14:57:08Z</time></trkpt><trkpt lat="39.86158707608057" lon="9.646411793798892"><ele>91.0</ele><time>2026-04-11T14:57:09Z</time></trkpt><trkpt lat="39.86127918539705" lon="9.646392001650774"><ele>90.0</ele><time>2026-04-11T14:57:10Z</time></trkpt><trkpt lat="39.86097937848261" lon="9.64635617826105"><ele>85.5</ele><time>2026-04-11T14:57:11Z</time></trkpt><trkpt lat="39.86068403982072" lon="9.646295091426731"><ele>81.0</ele><time>2026-04-11T14:57:12Z</time></trkpt><trkpt lat="39.86039366504604" lon="9.646209481596616"><ele>75.0</ele><time>2026-04-11T14:57:13Z</time></trkpt><trkpt lat="39.86011087779464" lon="9.646091749260433"><ele>69.0</ele><time>2026-04-11T14:57:14Z</time></trkpt><trkpt lat="39.85982986969381" lon="9.645945319900614"><ele>69.0</ele><time>2026-04-11T14:57:15Z</time></trkpt><trkpt lat="39.85955284856211" lon="9.645774338310583"><ele>69.0</ele><time>2026-04-11T14:57:16Z</time></trkpt><trkpt lat="39.859279995203735" lon="9.645581779324488"><ele>67.0</ele><time>2026-04-11T14:57:17Z</time></trkpt><trkpt lat="39.85901519061048" lon="9.645362983070715"><ele>65.0</ele><time>2026-04-11T14:57:18Z</time></trkpt><trkpt lat="39.85876109453385" lon="9.645115115166043"><ele>64.0</ele><time>2026-04-11T14:57:19Z</time></trkpt><trkpt lat="39.85851959641603" lon="9.644838471518263"><ele>63.0</ele><time>2026-04-11T14:57:20Z</time></trkpt><trkpt lat="39.85829197684123" lon="9.64453932525926"><ele>62.5</ele><time>2026-04-11T14:57:21Z</time></trkpt><trkpt lat="39.858070639337626" lon="9.644221175659073"><ele>62.0</ele><time>2026-04-11T14:57:22Z</time></trkpt><trkpt lat="39.857850287869674" lon="9.643913876754915"><ele>62.5</ele><time>2026-04-11T14:57:23Z</time></trkpt><trkpt lat="39.85763274827742" lon="9.64359408823369"><ele>63.0</ele><time>2026-04-11T14:57:24Z</time></trkpt><trkpt lat="39.85741210269275" lon="9.643276718810693"><ele>63.0</ele><time>2026-04-11T14:57:25Z</time></trkpt><trkpt lat="39.85719066915532" lon="9.642963962537117"><ele>63.0</ele><time>2026-04-11T14:57:26Z</time></trkpt><trkpt lat="39.85697120979678" lon="9.64264762292891"><ele>61.5</ele><time>2026-04-11T14:57:27Z</time></trkpt><trkpt lat="39.85675560616893" lon="9.642328939857858"><ele>60.0</ele><time>2026-04-11T14:57:28Z</time></trkpt><trkpt lat="39.85654344745842" lon="9.642015509945244"><ele>56.5</ele><time>2026-04-11T14:57:29Z</time></trkpt><trkpt lat="39.85632913984216" lon="9.641710311915679"><ele>53.0</ele><time>2026-04-11T14:57:30Z</time></trkpt><trkpt lat="39.85610718326773" lon="9.641416829374206"><ele>48.5</ele><time>2026-04-11T14:57:31Z</time></trkpt><trkpt lat="39.85587635156187" lon="9.64112638646121"><ele>44.0</ele><time>2026-04-11T14:57:32Z</time></trkpt><trkpt lat="39.85564081696558" lon="9.640858857463352"><ele>44.0</ele><time>2026-04-11T14:57:33Z</time></trkpt><trkpt lat="39.85538551813162" lon="9.64060141071542"><ele>44.0</ele><time>2026-04-11T14:57:34Z</time></trkpt><trkpt lat="39.855123402892715" lon="9.64034410692942"><ele>40.0</ele><time>2026-04-11T14:57:35Z</time></trkpt><trkpt lat="39.85485358051287" lon="9.640094056702617"><ele>36.0</ele><time>2026-04-11T14:57:36Z</time></trkpt><trkpt lat="39.854581687735475" lon="9.639827593019383"><ele>36.0</ele><time>2026-04-11T14:57:37Z</time></trkpt><trkpt lat="39.854317291151204" lon="9.639567382564099"><ele>36.0</ele><time>2026-04-11T14:57:38Z</time></trkpt><trkpt lat="39.85404794580121" lon="9.639297859682397"><ele>34.5</ele><time>2026-04-11T14:57:39Z</time></trkpt><trkpt lat="39.853775631678296" lon="9.639027501553945"><ele>33.0</ele><time>2026-04-11T14:57:40Z</time></trkpt><trkpt lat="39.853500756125165" lon="9.638756634464784"><ele>31.5</ele><time>2026-04-11T14:57:41Z</time></trkpt><trkpt lat="39.85322219313103" lon="9.638485473590018"><ele>30.0</ele><time>2026-04-11T14:57:42Z</time></trkpt><trkpt lat="39.85294420379659" lon="9.638214359124964"><ele>30.0</ele><time>2026-04-11T14:57:43Z</time></trkpt><trkpt lat="39.85266423917541" lon="9.637939229453858"><ele>30.0</ele><time>2026-04-11T14:57:44Z</time></trkpt><trkpt lat="39.85238242944642" lon="9.637663248266515"><ele>32.5</ele><time>2026-04-11T14:57:45Z</time></trkpt><trkpt lat="39.852104558007994" lon="9.637384921038434"><ele>35.0</ele><time>2026-04-11T14:57:46Z</time></trkpt><trkpt lat="39.85181705425888" lon="9.637100773607893"><ele>39.5</ele><time>2026-04-11T14:57:47Z</time></trkpt><trkpt lat="39.851531261547095" lon="9.636814533101335"><ele>44.0</ele><time>2026-04-11T14:57:48Z</time></trkpt><trkpt lat="39.85124094556363" lon="9.636527569541085"><ele>44.0</ele><time>2026-04-11T14:57:49Z</time></trkpt><trkpt lat="39.85095365467542" lon="9.636244876334155"><ele>44.0</ele><time>2026-04-11T14:57:50Z</time></trkpt><trkpt lat="39.85066367730017" lon="9.635965594756241"><ele>45.5</ele><time>2026-04-11T14:57:51Z</time></trkpt><trkpt lat="39.85037407163388" lon="9.635696961496308"><ele>47.0</ele><time>2026-04-11T14:57:52Z</time></trkpt><trkpt lat="39.85008190744575" lon="9.635455882333124"><ele>40.0</ele><time>2026-04-11T14:57:53Z</time></trkpt><trkpt lat="39.849781571172" lon="9.635241416301737"><ele>33.0</ele><time>2026-04-11T14:57:54Z</time></trkpt><trkpt lat="39.84947792630601" lon="9.635064697725724"><ele>34.0</ele><time>2026-04-11T14:57:55Z</time></trkpt><trkpt lat="39.84917380108684" lon="9.634905920162982"><ele>35.0</ele><time>2026-04-11T14:57:56Z</time></trkpt><trkpt lat="39.84886231679332" lon="9.634774197814993"><ele>35.0</ele><time>2026-04-11T14:57:57Z</time></trkpt><trkpt lat="39.84854536871833" lon="9.63466889953241"><ele>35.0</ele><time>2026-04-11T14:57:58Z</time></trkpt><trkpt lat="39.848227121201" lon="9.634592322281879"><ele>39.0</ele><time>2026-04-11T14:57:59Z</time></trkpt><trkpt lat="39.847901357252205" lon="9.634540641900452"><ele>43.0</ele><time>2026-04-11T14:58:00Z</time></trkpt><trkpt lat="39.847578587158885" lon="9.634507539265977"><ele>48.0</ele><time>2026-04-11T14:58:01Z</time></trkpt><trkpt lat="39.847266062516496" lon="9.634502764500537"><ele>53.0</ele><time>2026-04-11T14:58:02Z</time></trkpt><trkpt lat="39.84696172830865" lon="9.634521356325694"><ele>60.0</ele><time>2026-04-11T14:58:03Z</time></trkpt><trkpt lat="39.84666558337005" lon="9.634559962077716"><ele>67.0</ele><time>2026-04-11T14:58:04Z</time></trkpt><trkpt lat="39.846376687809965" lon="9.634612340239885"><ele>67.0</ele><time>2026-04-11T14:58:05Z</time></trkpt><trkpt lat="39.84609014180654" lon="9.634668984569862"><ele>67.0</ele><time>2026-04-11T14:58:06Z</time></trkpt><trkpt lat="39.84580771475032" lon="9.634722626215998"><ele>69.0</ele><time>2026-04-11T14:58:07Z</time></trkpt><trkpt lat="39.84552593190412" lon="9.63477614729756"><ele>71.0</ele><time>2026-04-11T14:58:08Z</time></trkpt><trkpt lat="39.84524723531629" lon="9.634829757439148"><ele>73.0</ele><time>2026-04-11T14:58:09Z</time></trkpt><trkpt lat="39.844970020623975" lon="9.634877139819631"><ele>75.0</ele><time>2026-04-11T14:58:10Z</time></trkpt><trkpt lat="39.84469440255536" lon="9.634927216008217"><ele>75.0</ele><time>2026-04-11T14:58:11Z</time></trkpt><trkpt lat="39.844423523663465" lon="9.634988980127646"><ele>75.0</ele><time>2026-04-11T14:58:12Z</time></trkpt><trkpt lat="39.8441555426378" lon="9.63506230797745"><ele>78.0</ele><time>2026-04-11T14:58:13Z</time></trkpt><trkpt lat="39.84388865693195" lon="9.635144139072185"><ele>81.0</ele><time>2026-04-11T14:58:14Z</time></trkpt><trkpt lat="39.84363234031808" lon="9.635242760688516"><ele>77.5</ele><time>2026-04-11T14:58:15Z</time></trkpt><trkpt lat="39.84338149691587" lon="9.635358884442788"><ele>74.0</ele><time>2026-04-11T14:58:16Z</time></trkpt><trkpt lat="39.84313509444269" lon="9.635499039341145"><ele>74.0</ele><time>2026-04-11T14:58:17Z</time></trkpt><trkpt lat="39.84289772047369" lon="9.6356576273766"><ele>74.0</ele><time>2026-04-11T14:58:18Z</time></trkpt><trkpt lat="39.84266836763559" lon="9.635835443374969"><ele>74.5</ele><time>2026-04-11T14:58:19Z</time></trkpt><trkpt lat="39.84244935628948" lon="9.636032157878333"><ele>75.0</ele><time>2026-04-11T14:58:20Z</time></trkpt><trkpt lat="39.84223552643089" lon="9.636251114356181"><ele>75.0</ele><time>2026-04-11T14:58:21Z</time></trkpt><trkpt lat="39.84202951921847" lon="9.636481049101816"><ele>75.0</ele><time>2026-04-11T14:58:22Z</time></trkpt><trkpt lat="39.841827965797634" lon="9.63672299073178"><ele>77.0</ele><time>2026-04-11T14:58:23Z</time></trkpt><trkpt lat="39.84162975644316" lon="9.636972110385223"><ele>79.0</ele><time>2026-04-11T14:58:24Z</time></trkpt><trkpt lat="39.84143387450617" lon="9.637219749132704"><ele>79.0</ele><time>2026-04-11T14:58:25Z</time></trkpt><trkpt lat="39.84123937716246" lon="9.6374621697507"><ele>79.0</ele><time>2026-04-11T14:58:26Z</time></trkpt><trkpt lat="39.841049231179355" lon="9.637700746605798"><ele>85.5</ele><time>2026-04-11T14:58:27Z</time></trkpt><trkpt lat="39.84085893737" lon="9.637940515039768"><ele>92.0</ele><time>2026-04-11T14:58:28Z</time></trkpt><trkpt lat="39.84065632696391" lon="9.638164987163753"><ele>92.0</ele><time>2026-04-11T14:58:29Z</time></trkpt><trkpt lat="39.840463880276246" lon="9.63840716805228"><ele>92.0</ele><time>2026-04-11T14:58:30Z</time></trkpt><trkpt lat="39.84027920250118" lon="9.638669015466537"><ele>94.5</ele><time>2026-04-11T14:58:31Z</time></trkpt><trkpt lat="39.84007897035514" lon="9.638915775047396"><ele>97.0</ele><time>2026-04-11T14:58:32Z</time></trkpt><trkpt lat="39.83987764944356" lon="9.639162899961143"><ele>97.0</ele><time>2026-04-11T14:58:33Z</time></trkpt><trkpt lat="39.83966663076014" lon="9.63942131586231"><ele>97.0</ele><time>2026-04-11T14:58:34Z</time></trkpt><trkpt lat="39.839457646782535" lon="9.639691397300538"><ele>88.5</ele><time>2026-04-11T14:58:35Z</time></trkpt><trkpt lat="39.83924605646724" lon="9.639957048429192"><ele>80.0</ele><time>2026-04-11T14:58:36Z</time></trkpt><trkpt lat="39.83902967901521" lon="9.640226603113863"><ele>75.0</ele><time>2026-04-11T14:58:37Z</time></trkpt><trkpt lat="39.83881568788751" lon="9.64049773922123"><ele>70.0</ele><time>2026-04-11T14:58:38Z</time></trkpt><trkpt lat="39.83859541193111" lon="9.640770499410555"><ele>73.5</ele><time>2026-04-11T14:58:39Z</time></trkpt><trkpt lat="39.838373490973495" lon="9.641047181368302"><ele>77.0</ele><time>2026-04-11T14:58:40Z</time></trkpt><trkpt lat="39.838150549243316" lon="9.641326385271473"><ele>77.0</ele><time>2026-04-11T14:58:41Z</time></trkpt><trkpt lat="39.837924468941495" lon="9.641608596791686"><ele>77.0</ele><time>2026-04-11T14:58:42Z</time></trkpt><trkpt lat="39.83770128179554" lon="9.641885337017857"><ele>82.0</ele><time>2026-04-11T14:58:43Z</time></trkpt><trkpt lat="39.83748122836698" lon="9.64215656304147"><ele>87.0</ele><time>2026-04-11T14:58:44Z</time></trkpt><trkpt lat="39.8372621632375" lon="9.64242285341482"><ele>87.0</ele><time>2026-04-11T14:58:45Z</time></trkpt><trkpt lat="39.83704182963609" lon="9.642686809776643"><ele>87.0</ele><time>2026-04-11T14:58:46Z</time></trkpt><trkpt lat="39.8368207839111" lon="9.642943950923803"><ele>90.5</ele><time>2026-04-11T14:58:47Z</time></trkpt><trkpt lat="39.83658061437007" lon="9.643168116845242"><ele>94.0</ele><time>2026-04-11T14:58:48Z</time></trkpt><trkpt lat="39.83633627783197" lon="9.643394620214869"><ele>94.0</ele><time>2026-04-11T14:58:49Z</time></trkpt><trkpt lat="39.83608890485419" lon="9.64359379177505"><ele>94.0</ele><time>2026-04-11T14:58:50Z</time></trkpt><trkpt lat="39.83582636882924" lon="9.643780231338454"><ele>86.0</ele><time>2026-04-11T14:58:51Z</time></trkpt><trkpt lat="39.83554239116075" lon="9.643956907706992"><ele>78.0</ele><time>2026-04-11T14:58:52Z</time></trkpt><trkpt lat="39.83526536333299" lon="9.64410560650893"><ele>79.5</ele><time>2026-04-11T14:58:53Z</time></trkpt><trkpt lat="39.83498146662309" lon="9.644237849410775"><ele>81.0</ele><time>2026-04-11T14:58:54Z</time></trkpt><trkpt lat="39.83470314459088" lon="9.64437930863384"><ele>72.0</ele><time>2026-04-11T14:58:55Z</time></trkpt><trkpt lat="39.83441267755324" lon="9.64448541300142"><ele>63.0</ele><time>2026-04-11T14:58:56Z</time></trkpt><trkpt lat="39.83411724806169" lon="9.644594678272849"><ele>63.0</ele><time>2026-04-11T14:58:57Z</time></trkpt><trkpt lat="39.833824283970024" lon="9.644708617915015"><ele>63.0</ele><time>2026-04-11T14:58:58Z</time></trkpt><trkpt lat="39.83352994223298" lon="9.644817222507312"><ele>67.5</ele><time>2026-04-11T14:58:59Z</time></trkpt><trkpt lat="39.833236255282465" lon="9.64491123036761"><ele>72.0</ele><time>2026-04-11T14:59:00Z</time></trkpt><trkpt lat="39.832938836866504" lon="9.644950173025745"><ele>72.0</ele><time>2026-04-11T14:59:01Z</time></trkpt><trkpt lat="39.83264112220332" lon="9.644977970533954"><ele>72.0</ele><time>2026-04-11T14:59:02Z</time></trkpt><trkpt lat="39.83234502041773" lon="9.644998649645355"><ele>74.5</ele><time>2026-04-11T14:59:03Z</time></trkpt><trkpt lat="39.83204637748066" lon="9.64497449071409"><ele>77.0</ele><time>2026-04-11T14:59:04Z</time></trkpt><trkpt lat="39.83174774791786" lon="9.64493337583935"><ele>77.0</ele><time>2026-04-11T14:59:05Z</time></trkpt><trkpt lat="39.83145512307268" lon="9.644845159074153"><ele>77.0</ele><time>2026-04-11T14:59:06Z</time></trkpt><trkpt lat="39.831167759944485" lon="9.644750063308617"><ele>70.0</ele><time>2026-04-11T14:59:07Z</time></trkpt><trkpt lat="39.83088047432461" lon="9.644631172802978"><ele>63.0</ele><time>2026-04-11T14:59:08Z</time></trkpt><trkpt lat="39.83059135988734" lon="9.644508062503935"><ele>64.5</ele><time>2026-04-11T14:59:09Z</time></trkpt><trkpt lat="39.83031286314015" lon="9.644334105597965"><ele>66.0</ele><time>2026-04-11T14:59:10Z</time></trkpt><trkpt lat="39.83003420698334" lon="9.644170458187208"><ele>58.0</ele><time>2026-04-11T14:59:11Z</time></trkpt><trkpt lat="39.82975068077711" lon="9.64401013995169"><ele>50.0</ele><time>2026-04-11T14:59:12Z</time></trkpt><trkpt lat="39.829462386793566" lon="9.643852348818651"><ele>48.0</ele><time>2026-04-11T14:59:13Z</time></trkpt><trkpt lat="39.829180125448076" lon="9.643690000871919"><ele>46.0</ele><time>2026-04-11T14:59:14Z</time></trkpt><trkpt lat="39.82889600993299" lon="9.643528940649235"><ele>46.0</ele><time>2026-04-11T14:59:15Z</time></trkpt><trkpt lat="39.828609339699184" lon="9.643367850408227"><ele>46.0</ele><time>2026-04-11T14:59:16Z</time></trkpt><trkpt lat="39.828322015552416" lon="9.643204189969142"><ele>45.0</ele><time>2026-04-11T14:59:17Z</time></trkpt><trkpt lat="39.82803311235393" lon="9.643037159233332"><ele>44.0</ele><time>2026-04-11T14:59:18Z</time></trkpt><trkpt lat="39.82774324072464" lon="9.642866876328277"><ele>41.5</ele><time>2026-04-11T14:59:19Z</time></trkpt><trkpt lat="39.82745222193579" lon="9.642697111626214"><ele>39.0</ele><time>2026-04-11T14:59:20Z</time></trkpt><trkpt lat="39.82715738211765" lon="9.642527380791662"><ele>39.0</ele><time>2026-04-11T14:59:21Z</time></trkpt><trkpt lat="39.826857542138164" lon="9.642359832324761"><ele>39.0</ele><time>2026-04-11T14:59:22Z</time></trkpt><trkpt lat="39.82656034919989" lon="9.642193518623547"><ele>36.0</ele><time>2026-04-11T14:59:23Z</time></trkpt><trkpt lat="39.82626392596031" lon="9.642027116029512"><ele>33.0</ele><time>2026-04-11T14:59:24Z</time></trkpt><trkpt lat="39.82596818134917" lon="9.641859901276893"><ele>33.0</ele><time>2026-04-11T14:59:25Z</time></trkpt><trkpt lat="39.82567489356087" lon="9.64168881245463"><ele>33.0</ele><time>2026-04-11T14:59:26Z</time></trkpt><trkpt lat="39.825386692531346" lon="9.641515916276354"><ele>33.5</ele><time>2026-04-11T14:59:27Z</time></trkpt><trkpt lat="39.825094043276664" lon="9.641344491060483"><ele>34.0</ele><time>2026-04-11T14:59:28Z</time></trkpt><trkpt lat="39.824799473866655" lon="9.641177277678576"><ele>36.0</ele><time>2026-04-11T14:59:29Z</time></trkpt><trkpt lat="39.82450395105339" lon="9.641007703060659"><ele>38.0</ele><time>2026-04-11T14:59:30Z</time></trkpt><trkpt lat="39.82421309895379" lon="9.640830922029673"><ele>40.0</ele><time>2026-04-11T14:59:31Z</time></trkpt><trkpt lat="39.82393103180618" lon="9.64063597480657"><ele>42.0</ele><time>2026-04-11T14:59:32Z</time></trkpt><trkpt lat="39.82366129619988" lon="9.6404177767006"><ele>45.0</ele><time>2026-04-11T14:59:33Z</time></trkpt><trkpt lat="39.8234028611172" lon="9.640177712591912"><ele>48.0</ele><time>2026-04-11T14:59:34Z</time></trkpt><trkpt lat="39.82315119786934" lon="9.639923364492459"><ele>48.0</ele><time>2026-04-11T14:59:35Z</time></trkpt><trkpt lat="39.82289621709751" lon="9.639660746271646"><ele>48.0</ele><time>2026-04-11T14:59:36Z</time></trkpt><trkpt lat="39.82264075734136" lon="9.639394514431538"><ele>45.5</ele><time>2026-04-11T14:59:37Z</time></trkpt><trkpt lat="39.822385357407235" lon="9.639127036851555"><ele>43.0</ele><time>2026-04-11T14:59:38Z</time></trkpt><trkpt lat="39.82213004594549" lon="9.638863402207619"><ele>45.5</ele><time>2026-04-11T14:59:39Z</time></trkpt><trkpt lat="39.821874889688985" lon="9.638604071441353"><ele>48.0</ele><time>2026-04-11T14:59:40Z</time></trkpt><trkpt lat="39.82161894929636" lon="9.63834416843975"><ele>49.0</ele><time>2026-04-11T14:59:41Z</time></trkpt><trkpt lat="39.82136546514549" lon="9.63808286227635"><ele>50.0</ele><time>2026-04-11T14:59:42Z</time></trkpt><trkpt lat="39.8211127535944" lon="9.637822735475677"><ele>51.5</ele><time>2026-04-11T14:59:43Z</time></trkpt><trkpt lat="39.820861833029085" lon="9.63756523826632"><ele>53.0</ele><time>2026-04-11T14:59:44Z</time></trkpt><trkpt lat="39.82061155748324" lon="9.63730847071148"><ele>53.0</ele><time>2026-04-11T14:59:45Z</time></trkpt><trkpt lat="39.82036129631349" lon="9.637049773629355"><ele>53.0</ele><time>2026-04-11T14:59:46Z</time></trkpt><trkpt lat="39.82011105075673" lon="9.63679120831643"><ele>50.5</ele><time>2026-04-11T14:59:47Z</time></trkpt><trkpt lat="39.819861221162505" lon="9.636535118560122"><ele>48.0</ele><time>2026-04-11T14:59:48Z</time></trkpt><trkpt lat="39.81961083580752" lon="9.63628104442587"><ele>48.5</ele><time>2026-04-11T14:59:49Z</time></trkpt><trkpt lat="39.819365397103475" lon="9.636028228664992"><ele>49.0</ele><time>2026-04-11T14:59:50Z</time></trkpt><trkpt lat="39.81912011656999" lon="9.635774236016877"><ele>49.0</ele><time>2026-04-11T14:59:51Z</time></trkpt><trkpt lat="39.81887583070529" lon="9.635522303374987"><ele>49.0</ele><time>2026-04-11T14:59:52Z</time></trkpt><trkpt lat="39.81863399718981" lon="9.63527541873691"><ele>47.0</ele><time>2026-04-11T14:59:53Z</time></trkpt><trkpt lat="39.81839837663623" lon="9.635035023390706"><ele>45.0</ele><time>2026-04-11T14:59:54Z</time></trkpt><trkpt lat="39.818170459395084" lon="9.63479844672876"><ele>45.0</ele><time>2026-04-11T14:59:55Z</time></trkpt><trkpt lat="39.81794219718551" lon="9.634563196577945"><ele>45.0</ele><time>2026-04-11T14:59:56Z</time></trkpt><trkpt lat="39.81771145027518" lon="9.634328166025893"><ele>46.5</ele><time>2026-04-11T14:59:57Z</time></trkpt><trkpt lat="39.81748182731087" lon="9.634092764894602"><ele>48.0</ele><time>2026-04-11T14:59:58Z</time></trkpt><trkpt lat="39.81725205205298" lon="9.633856482919109"><ele>49.0</ele><time>2026-04-11T14:59:59Z</time></trkpt><trkpt lat="39.81701857847859" lon="9.633621102610567"><ele>50.0</ele><time>2026-04-11T15:00:00Z</time></trkpt><trkpt lat="39.816781840387804" lon="9.633387817521804"><ele>48.0</ele><time>2026-04-11T15:00:01Z</time></trkpt><trkpt lat="39.81654085553087" lon="9.633164389668188"><ele>46.0</ele><time>2026-04-11T15:00:02Z</time></trkpt><trkpt lat="39.816286211682076" lon="9.632955971604773"><ele>46.5</ele><time>2026-04-11T15:00:03Z</time></trkpt><trkpt lat="39.81602040999671" lon="9.632769187695647"><ele>47.0</ele><time>2026-04-11T15:00:04Z</time></trkpt><trkpt lat="39.8157409604543" lon="9.63260143881238"><ele>48.0</ele><time>2026-04-11T15:00:05Z</time></trkpt><trkpt lat="39.81546369317477" lon="9.63243410366914"><ele>49.0</ele><time>2026-04-11T15:00:06Z</time></trkpt><trkpt lat="39.81518510547439" lon="9.632268050297638"><ele>51.0</ele><time>2026-04-11T15:00:07Z</time></trkpt><trkpt lat="39.81491373026407" lon="9.632100018861513"><ele>53.0</ele><time>2026-04-11T15:00:08Z</time></trkpt><trkpt lat="39.81463838026752" lon="9.631929656778633"><ele>56.5</ele><time>2026-04-11T15:00:09Z</time></trkpt><trkpt lat="39.81437082935365" lon="9.631762015327352"><ele>60.0</ele><time>2026-04-11T15:00:10Z</time></trkpt><trkpt lat="39.81410412347973" lon="9.631587400914498"><ele>62.0</ele><time>2026-04-11T15:00:11Z</time></trkpt><trkpt lat="39.813844755391386" lon="9.631400874076874"><ele>64.0</ele><time>2026-04-11T15:00:12Z</time></trkpt><trkpt lat="39.813587653688415" lon="9.63119795154771"><ele>64.5</ele><time>2026-04-11T15:00:13Z</time></trkpt><trkpt lat="39.813336391203094" lon="9.630976382011953"><ele>65.0</ele><time>2026-04-11T15:00:14Z</time></trkpt><trkpt lat="39.813094499822355" lon="9.630739205490073"><ele>65.0</ele><time>2026-04-11T15:00:15Z</time></trkpt><trkpt lat="39.812861197774" lon="9.630486138488621"><ele>65.0</ele><time>2026-04-11T15:00:16Z</time></trkpt><trkpt lat="39.812633074307755" lon="9.630219605505017"><ele>65.0</ele><time>2026-04-11T15:00:17Z</time></trkpt><trkpt lat="39.812413171345405" lon="9.629949540699448"><ele>65.0</ele><time>2026-04-11T15:00:18Z</time></trkpt><trkpt lat="39.81219584080738" lon="9.629672966713182"><ele>66.0</ele><time>2026-04-11T15:00:19Z</time></trkpt><trkpt lat="39.81198176406353" lon="9.62939157080344"><ele>67.0</ele><time>2026-04-11T15:00:20Z</time></trkpt><trkpt lat="39.8117696523253" lon="9.629108573235051"><ele>69.0</ele><time>2026-04-11T15:00:21Z</time></trkpt><trkpt lat="39.811562155962484" lon="9.628830884907327"><ele>71.0</ele><time>2026-04-11T15:00:22Z</time></trkpt><trkpt lat="39.81136052855791" lon="9.628562312423414"><ele>80.5</ele><time>2026-04-11T15:00:23Z</time></trkpt><trkpt lat="39.811164663469384" lon="9.628301553445137"><ele>90.0</ele><time>2026-04-11T15:00:24Z</time></trkpt><trkpt lat="39.81097385150449" lon="9.62804607542267"><ele>98.5</ele><time>2026-04-11T15:00:25Z</time></trkpt><trkpt lat="39.810787810995016" lon="9.627796281288248"><ele>107.0</ele><time>2026-04-11T15:00:26Z</time></trkpt><trkpt lat="39.810604544183334" lon="9.627548056291891"><ele>107.0</ele><time>2026-04-11T15:00:27Z</time></trkpt><trkpt lat="39.810418412951414" lon="9.627290606519892"><ele>107.0</ele><time>2026-04-11T15:00:28.026Z</time></trkpt><trkpt lat="39.810236780847745" lon="9.627040899024392"><ele>103.5</ele><time>2026-04-11T15:00:29.026Z</time></trkpt><trkpt lat="39.810054260268004" lon="9.626795721392984"><ele>100.0</ele><time>2026-04-11T15:00:30.025Z</time></trkpt><trkpt lat="39.80987247530601" lon="9.626551583300534"><ele>100.0</ele><time>2026-04-11T15:00:31.025Z</time></trkpt><trkpt lat="39.80970082017693" lon="9.626320301268377"><ele>100.0</ele><time>2026-04-11T15:00:31.975Z</time></trkpt><trkpt lat="39.80029139320209" lon="9.615180124025034"><ele>79.5</ele><time>2026-04-11T15:01:21.5Z</time></trkpt><trkpt lat="39.80008926949825" lon="9.615041264276186"><ele>59.0</ele><time>2026-04-11T15:01:22.45Z</time></trkpt><trkpt lat="39.79988241112982" lon="9.61491008592918"><ele>59.0</ele><time>2026-04-11T15:01:23.4Z</time></trkpt><trkpt lat="39.79967944815316" lon="9.614779573242386"><ele>59.0</ele><time>2026-04-11T15:01:24.35Z</time></trkpt><trkpt lat="39.799470713382114" lon="9.614648178765183"><ele>57.5</ele><time>2026-04-11T15:01:25.3Z</time></trkpt><trkpt lat="39.799262528916515" lon="9.6145171901063"><ele>56.0</ele><time>2026-04-11T15:01:26.25Z</time></trkpt><trkpt lat="39.799053306573995" lon="9.614381615250885"><ele>56.0</ele><time>2026-04-11T15:01:27.2Z</time></trkpt><trkpt lat="39.79884510532104" lon="9.614245113750826"><ele>56.0</ele><time>2026-04-11T15:01:28.15Z</time></trkpt><trkpt lat="39.79863398081041" lon="9.614106705512942"><ele>54.5</ele><time>2026-04-11T15:01:29.1Z</time></trkpt><trkpt lat="39.79842337898608" lon="9.613966832471236"><ele>53.0</ele><time>2026-04-11T15:01:30.05Z</time></trkpt><trkpt lat="39.79821599449771" lon="9.61382280440976"><ele>53.0</ele><time>2026-04-11T15:01:31Z</time></trkpt><trkpt lat="39.79799661188526" lon="9.613662645723258"><ele>53.0</ele><time>2026-04-11T15:01:32Z</time></trkpt><trkpt lat="39.797778664637285" lon="9.613494511243617"><ele>50.5</ele><time>2026-04-11T15:01:33Z</time></trkpt><trkpt lat="39.79756421390501" lon="9.613319096655221"><ele>48.0</ele><time>2026-04-11T15:01:34Z</time></trkpt><trkpt lat="39.79735105935503" lon="9.61313507479052"><ele>48.0</ele><time>2026-04-11T15:01:35Z</time></trkpt><trkpt lat="39.797141992090275" lon="9.612936292930998"><ele>48.0</ele><time>2026-04-11T15:01:36Z</time></trkpt><trkpt lat="39.79693533756924" lon="9.61272846597059"><ele>44.5</ele><time>2026-04-11T15:01:37Z</time></trkpt><trkpt lat="39.79672898525286" lon="9.612516199723029"><ele>41.0</ele><time>2026-04-11T15:01:38Z</time></trkpt><trkpt lat="39.79652494461371" lon="9.612307615291728"><ele>41.0</ele><time>2026-04-11T15:01:39Z</time></trkpt><trkpt lat="39.796304301542435" lon="9.612089722438673"><ele>41.0</ele><time>2026-04-11T15:01:40Z</time></trkpt><trkpt lat="39.79609525175303" lon="9.611877351621175"><ele>36.5</ele><time>2026-04-11T15:01:41Z</time></trkpt><trkpt lat="39.79588384705044" lon="9.611661890767412"><ele>32.0</ele><time>2026-04-11T15:01:42Z</time></trkpt><trkpt lat="39.79567486664951" lon="9.611445790842208"><ele>32.0</ele><time>2026-04-11T15:01:43Z</time></trkpt><trkpt lat="39.79546948917701" lon="9.611234285919043"><ele>32.0</ele><time>2026-04-11T15:01:44Z</time></trkpt><trkpt lat="39.79525862880039" lon="9.611027484085303"><ele>31.0</ele><time>2026-04-11T15:01:45Z</time></trkpt><trkpt lat="39.79504906974779" lon="9.610818668758947"><ele>30.0</ele><time>2026-04-11T15:01:46Z</time></trkpt><trkpt lat="39.79483991346151" lon="9.610607688475868"><ele>30.0</ele><time>2026-04-11T15:01:47Z</time></trkpt><trkpt lat="39.79463691903655" lon="9.61040384771074"><ele>30.0</ele><time>2026-04-11T15:01:48Z</time></trkpt><trkpt lat="39.79442567890758" lon="9.61019927548775"><ele>31.0</ele><time>2026-04-11T15:01:49Z</time></trkpt><trkpt lat="39.794204387863516" lon="9.610013648002685"><ele>32.0</ele><time>2026-04-11T15:01:50Z</time></trkpt><trkpt lat="39.793979908602715" lon="9.609839498419127"><ele>32.0</ele><time>2026-04-11T15:01:51Z</time></trkpt><trkpt lat="39.79375695527331" lon="9.609679348798364"><ele>32.0</ele><time>2026-04-11T15:01:52Z</time></trkpt><trkpt lat="39.793531076739605" lon="9.609539844215094"><ele>33.5</ele><time>2026-04-11T15:01:53Z</time></trkpt><trkpt lat="39.79330206000646" lon="9.609416211332638"><ele>35.0</ele><time>2026-04-11T15:01:54Z</time></trkpt><trkpt lat="39.79307368871912" lon="9.609309574328549"><ele>35.0</ele><time>2026-04-11T15:01:55Z</time></trkpt><trkpt lat="39.792845380984524" lon="9.609216150355516"><ele>35.0</ele><time>2026-04-11T15:01:56Z</time></trkpt><trkpt lat="39.7926124520394" lon="9.609139443342627"><ele>36.5</ele><time>2026-04-11T15:01:57Z</time></trkpt><trkpt lat="39.792384795191836" lon="9.609074526749756"><ele>38.0</ele><time>2026-04-11T15:01:58Z</time></trkpt><trkpt lat="39.792171072367736" lon="9.60902714957174"><ele>38.0</ele><time>2026-04-11T15:01:59Z</time></trkpt><trkpt lat="39.79196943632134" lon="9.608992969724914"><ele>38.0</ele><time>2026-04-11T15:02:00Z</time></trkpt><trkpt lat="39.79177754070257" lon="9.608967304118405"><ele>38.0</ele><time>2026-04-11T15:02:01Z</time></trkpt><trkpt lat="39.79159632958638" lon="9.608946804186159"><ele>40.0</ele><time>2026-04-11T15:02:02Z</time></trkpt><trkpt lat="39.7914279243944" lon="9.608927539319495"><ele>42.0</ele><time>2026-04-11T15:02:03Z</time></trkpt><trkpt lat="39.79126596362521" lon="9.608907091454753"><ele>44.0</ele><time>2026-04-11T15:02:04Z</time></trkpt><trkpt lat="39.791114047665786" lon="9.608885574895496"><ele>44.0</ele><time>2026-04-11T15:02:05Z</time></trkpt><trkpt lat="39.79097322594784" lon="9.60887434577733"><ele>44.0</ele><time>2026-04-11T15:02:06Z</time></trkpt><trkpt lat="39.79083646856075" lon="9.60887846395353"><ele>44.0</ele><time>2026-04-11T15:02:07Z</time></trkpt><trkpt lat="39.79072329612047" lon="9.60886459274372"><ele>44.0</ele><time>2026-04-11T15:02:08Z</time></trkpt><trkpt lat="39.79064106781302" lon="9.608820146021088"><ele>44.0</ele><time>2026-04-11T15:02:09Z</time></trkpt><trkpt lat="39.79062080610997" lon="9.608726826234559"><ele>44.0</ele><time>2026-04-11T15:02:10Z</time></trkpt><trkpt lat="39.79062940597326" lon="9.608626969539966"><ele>44.0</ele><time>2026-04-11T15:02:11Z</time></trkpt><trkpt lat="39.79065188445402" lon="9.608537778515785"><ele>44.0</ele><time>2026-04-11T15:02:12Z</time></trkpt><trkpt lat="39.790641297445504" lon="9.608385171772827"><ele>44.0</ele><time>2026-04-11T15:02:14Z</time></trkpt><trkpt lat="39.790587565568536" lon="9.60828348672058"><ele>44.0</ele><time>2026-04-11T15:02:16Z</time></trkpt><trkpt lat="39.79055515893945" lon="9.608201949112948"><ele>43.166666666666664</ele><time>2026-04-11T15:02:18Z</time></trkpt><trkpt lat="39.79052551035803" lon="9.608124863001125"><ele>42.33333333333333</ele><time>2026-04-11T15:02:22Z</time></trkpt><trkpt lat="39.79045257659801" lon="9.608101802963933"><ele>41.5</ele><time>2026-04-11T15:17:48Z</time></trkpt><trkpt lat="39.790359217124774" lon="9.608099627527235"><ele>40.666666666666664</ele><time>2026-04-11T15:17:50Z</time></trkpt><trkpt lat="39.79031543578821" lon="9.608169022330904"><ele>39.833333333333336</ele><time>2026-04-11T15:17:51Z</time></trkpt><trkpt lat="39.79026910094968" lon="9.608330013039167"><ele>39.0</ele><time>2026-04-11T15:17:53Z</time></trkpt><trkpt lat="39.79020864506482" lon="9.608411852209596"><ele>39.0</ele><time>2026-04-11T15:17:54Z</time></trkpt><trkpt lat="39.79017898172177" lon="9.608522265147517"><ele>39.0</ele><time>2026-04-11T15:17:55Z</time></trkpt><trkpt lat="39.790195816075496" lon="9.608655273943045"><ele>39.0</ele><time>2026-04-11T15:17:56Z</time></trkpt><trkpt lat="39.79018217209677" lon="9.608789205027767"><ele>39.0</ele><time>2026-04-11T15:17:57Z</time></trkpt><trkpt lat="39.790136521648115" lon="9.608875818645974"><ele>39.0</ele><time>2026-04-11T15:17:58Z</time></trkpt><trkpt lat="39.79005519261695" lon="9.608875267467468"><ele>40.0</ele><time>2026-04-11T15:17:59Z</time></trkpt><trkpt lat="39.78998084069827" lon="9.608886574918781"><ele>41.0</ele><time>2026-04-11T15:18:00Z</time></trkpt><trkpt lat="39.789872653297586" lon="9.608881364697508"><ele>42.0</ele><time>2026-04-11T15:18:01Z</time></trkpt><trkpt lat="39.7897288132516" lon="9.608868143133167"><ele>43.0</ele><time>2026-04-11T15:18:02Z</time></trkpt><trkpt lat="39.78957480996805" lon="9.608871376569269"><ele>43.0</ele><time>2026-04-11T15:18:03Z</time></trkpt><trkpt lat="39.78939248096057" lon="9.608890522719973"><ele>43.0</ele><time>2026-04-11T15:18:04Z</time></trkpt><trkpt lat="39.789200465187974" lon="9.608864870829834"><ele>43.0</ele><time>2026-04-11T15:18:05Z</time></trkpt><trkpt lat="39.78898480768167" lon="9.608859549013538"><ele>45.0</ele><time>2026-04-11T15:18:06Z</time></trkpt><trkpt lat="39.78878240595906" lon="9.608860329001336"><ele>47.0</ele><time>2026-04-11T15:18:07Z</time></trkpt><trkpt lat="39.788567261162626" lon="9.608880018026838"><ele>49.0</ele><time>2026-04-11T15:18:08Z</time></trkpt><trkpt lat="39.788352175873754" lon="9.608884207507744"><ele>50.33333333333333</ele><time>2026-04-11T15:18:09Z</time></trkpt><trkpt lat="39.788134982537294" lon="9.60890152158976"><ele>51.66666666666667</ele><time>2026-04-11T15:18:10Z</time></trkpt><trkpt lat="39.78791629847491" lon="9.608937496311505"><ele>53.0</ele><time>2026-04-11T15:18:11Z</time></trkpt><trkpt lat="39.78769998356062" lon="9.608984411436184"><ele>54.333333333333336</ele><time>2026-04-11T15:18:12Z</time></trkpt><trkpt lat="39.78748877980616" lon="9.609042605792556"><ele>55.66666666666667</ele><time>2026-04-11T15:18:13Z</time></trkpt><trkpt lat="39.78727468655538" lon="9.609113018812572"><ele>57.0</ele><time>2026-04-11T15:18:14Z</time></trkpt><trkpt lat="39.78705753846338" lon="9.609197043304878"><ele>57.0</ele><time>2026-04-11T15:18:15Z</time></trkpt><trkpt lat="39.786845039873214" lon="9.60929186427173"><ele>57.0</ele><time>2026-04-11T15:18:16Z</time></trkpt><trkpt lat="39.78663605615243" lon="9.609399719400532"><ele>57.0</ele><time>2026-04-11T15:18:17Z</time></trkpt><trkpt lat="39.78643020527549" lon="9.60952200163638"><ele>61.5</ele><time>2026-04-11T15:18:18Z</time></trkpt><trkpt lat="39.78622506064068" lon="9.6096544340558"><ele>66.0</ele><time>2026-04-11T15:18:19Z</time></trkpt><trkpt lat="39.78602470562688" lon="9.609793278026215"><ele>64.5</ele><time>2026-04-11T15:18:20Z</time></trkpt><trkpt lat="39.785826896685776" lon="9.60994616730524"><ele>63.0</ele><time>2026-04-11T15:18:21Z</time></trkpt><trkpt lat="39.785635074112555" lon="9.610111527479958"><ele>63.0</ele><time>2026-04-11T15:18:22Z</time></trkpt><trkpt lat="39.78544608597829" lon="9.610289020725865"><ele>63.0</ele><time>2026-04-11T15:18:23Z</time></trkpt><trkpt lat="39.78526263673866" lon="9.610476368726012"><ele>70.0</ele><time>2026-04-11T15:18:24Z</time></trkpt><trkpt lat="39.78508429534666" lon="9.610676100587998"><ele>77.0</ele><time>2026-04-11T15:18:25Z</time></trkpt><trkpt lat="39.78490877163824" lon="9.610888497166174"><ele>77.0</ele><time>2026-04-11T15:18:26Z</time></trkpt><trkpt lat="39.78473547024497" lon="9.611108258362636"><ele>77.0</ele><time>2026-04-11T15:18:27Z</time></trkpt><trkpt lat="39.78456463707941" lon="9.61133023120446"><ele>74.5</ele><time>2026-04-11T15:18:28Z</time></trkpt><trkpt lat="39.78439219641476" lon="9.61155900369293"><ele>72.0</ele><time>2026-04-11T15:18:29Z</time></trkpt><trkpt lat="39.78421887984211" lon="9.611789632271078"><ele>77.5</ele><time>2026-04-11T15:18:30Z</time></trkpt><trkpt lat="39.784043419089876" lon="9.612020139346807"><ele>83.0</ele><time>2026-04-11T15:18:31Z</time></trkpt><trkpt lat="39.78386768647925" lon="9.612250474145256"><ele>83.0</ele><time>2026-04-11T15:18:32Z</time></trkpt><trkpt lat="39.78368888507002" lon="9.6124828520278"><ele>83.0</ele><time>2026-04-11T15:18:33Z</time></trkpt><trkpt lat="39.783508770372805" lon="9.612712719522703"><ele>78.0</ele><time>2026-04-11T15:18:34Z</time></trkpt><trkpt lat="39.78332669836664" lon="9.612937240189073"><ele>73.0</ele><time>2026-04-11T15:18:35Z</time></trkpt><trkpt lat="39.78313553556786" lon="9.613153597662317"><ele>73.0</ele><time>2026-04-11T15:18:36Z</time></trkpt><trkpt lat="39.782934381626774" lon="9.613353224695713"><ele>73.0</ele><time>2026-04-11T15:18:37Z</time></trkpt><trkpt lat="39.782724737982136" lon="9.613546020014503"><ele>65.5</ele><time>2026-04-11T15:18:38Z</time></trkpt><trkpt lat="39.78251116412633" lon="9.613724622965757"><ele>58.0</ele><time>2026-04-11T15:18:39Z</time></trkpt><trkpt lat="39.78228816759712" lon="9.613890742583465"><ele>58.0</ele><time>2026-04-11T15:18:40Z</time></trkpt><trkpt lat="39.78205942715589" lon="9.614043514741073"><ele>58.0</ele><time>2026-04-11T15:18:41Z</time></trkpt><trkpt lat="39.78182394675799" lon="9.614180019914157"><ele>55.0</ele><time>2026-04-11T15:18:42Z</time></trkpt><trkpt lat="39.78158635622357" lon="9.614308476137785"><ele>52.0</ele><time>2026-04-11T15:18:43Z</time></trkpt><trkpt lat="39.78133395295682" lon="9.614436042585222"><ele>52.5</ele><time>2026-04-11T15:18:44Z</time></trkpt><trkpt lat="39.78108110388661" lon="9.614535515050258"><ele>53.0</ele><time>2026-04-11T15:18:45Z</time></trkpt><trkpt lat="39.7808228053318" lon="9.614618758690757"><ele>49.5</ele><time>2026-04-11T15:18:46Z</time></trkpt><trkpt lat="39.78056174337599" lon="9.61468715921832"><ele>46.0</ele><time>2026-04-11T15:18:47Z</time></trkpt><trkpt lat="39.78029874259702" lon="9.614736001573647"><ele>48.0</ele><time>2026-04-11T15:18:48Z</time></trkpt><trkpt lat="39.780030438545424" lon="9.614766559905263"><ele>50.0</ele><time>2026-04-11T15:18:49Z</time></trkpt><trkpt lat="39.779764859642135" lon="9.61478240490799"><ele>50.0</ele><time>2026-04-11T15:18:50Z</time></trkpt><trkpt lat="39.77949339380994" lon="9.614787799996009"><ele>50.0</ele><time>2026-04-11T15:18:51Z</time></trkpt><trkpt lat="39.77922201624416" lon="9.61479070671585"><ele>50.0</ele><time>2026-04-11T15:18:52Z</time></trkpt><trkpt lat="39.778951384035494" lon="9.614792889184274"><ele>50.0</ele><time>2026-04-11T15:18:53Z</time></trkpt><trkpt lat="39.77867814121044" lon="9.614794118244994"><ele>47.5</ele><time>2026-04-11T15:18:54Z</time></trkpt><trkpt lat="39.77840719593646" lon="9.614798854228544"><ele>45.0</ele><time>2026-04-11T15:18:55Z</time></trkpt><trkpt lat="39.77813372016671" lon="9.61479865479567"><ele>45.0</ele><time>2026-04-11T15:18:56Z</time></trkpt><trkpt lat="39.777864750403225" lon="9.61479795439145"><ele>45.0</ele><time>2026-04-11T15:18:57Z</time></trkpt><trkpt lat="39.77759928694341" lon="9.614798267049563"><ele>41.5</ele><time>2026-04-11T15:18:58Z</time></trkpt><trkpt lat="39.77733455289996" lon="9.614801566871547"><ele>38.0</ele><time>2026-04-11T15:18:59Z</time></trkpt><trkpt lat="39.77707153489723" lon="9.614798412870247"><ele>38.5</ele><time>2026-04-11T15:19:00Z</time></trkpt><trkpt lat="39.776810980970964" lon="9.614794682959518"><ele>39.0</ele><time>2026-04-11T15:19:01Z</time></trkpt><trkpt lat="39.7765490497805" lon="9.61478661397227"><ele>39.0</ele><time>2026-04-11T15:19:02Z</time></trkpt><trkpt lat="39.7762846760601" lon="9.614769590513026"><ele>39.0</ele><time>2026-04-11T15:19:03Z</time></trkpt><trkpt lat="39.776023853218014" lon="9.614709127988116"><ele>42.0</ele><time>2026-04-11T15:19:04Z</time></trkpt><trkpt lat="39.77575917782577" lon="9.61467318981345"><ele>45.0</ele><time>2026-04-11T15:19:05Z</time></trkpt><trkpt lat="39.77550344958845" lon="9.61458700234422"><ele>45.0</ele><time>2026-04-11T15:19:06Z</time></trkpt><trkpt lat="39.77524477158764" lon="9.614517000280363"><ele>45.0</ele><time>2026-04-11T15:19:07Z</time></trkpt><trkpt lat="39.77499137185543" lon="9.61444183156208"><ele>46.0</ele><time>2026-04-11T15:19:08Z</time></trkpt><trkpt lat="39.77473827649574" lon="9.614367563702903"><ele>47.0</ele><time>2026-04-11T15:19:09Z</time></trkpt><trkpt lat="39.77448650252614" lon="9.614292153518765"><ele>47.5</ele><time>2026-04-11T15:19:10Z</time></trkpt><trkpt lat="39.774235857755826" lon="9.614216301653576"><ele>48.0</ele><time>2026-04-11T15:19:11Z</time></trkpt><trkpt lat="39.77398627480018" lon="9.614142461304692"><ele>48.0</ele><time>2026-04-11T15:19:12Z</time></trkpt><trkpt lat="39.77373618166649" lon="9.614069829830177"><ele>48.0</ele><time>2026-04-11T15:19:13Z</time></trkpt><trkpt lat="39.77348584281971" lon="9.613996552080964"><ele>49.5</ele><time>2026-04-11T15:19:14Z</time></trkpt><trkpt lat="39.773234442198074" lon="9.613923298501659"><ele>51.0</ele><time>2026-04-11T15:19:15Z</time></trkpt><trkpt lat="39.77298273867137" lon="9.613850550345157"><ele>51.0</ele><time>2026-04-11T15:19:16Z</time></trkpt><trkpt lat="39.77273040331476" lon="9.61377859461471"><ele>51.0</ele><time>2026-04-11T15:19:17Z</time></trkpt><trkpt lat="39.772477202199525" lon="9.613706572115076"><ele>51.5</ele><time>2026-04-11T15:19:18Z</time></trkpt><trkpt lat="39.772226357131345" lon="9.61362794805769"><ele>52.0</ele><time>2026-04-11T15:19:19Z</time></trkpt><trkpt lat="39.77197624968477" lon="9.613548462228762"><ele>54.0</ele><time>2026-04-11T15:19:20Z</time></trkpt><trkpt lat="39.77172038722988" lon="9.613484564172458"><ele>56.0</ele><time>2026-04-11T15:19:21Z</time></trkpt><trkpt lat="39.77146264237961" lon="9.61343803638"><ele>56.0</ele><time>2026-04-11T15:19:22Z</time></trkpt><trkpt lat="39.77120662177248" lon="9.61341749960834"><ele>56.0</ele><time>2026-04-11T15:19:23Z</time></trkpt><trkpt lat="39.77094530188658" lon="9.613418052553746"><ele>57.0</ele><time>2026-04-11T15:19:24Z</time></trkpt><trkpt lat="39.77068795469688" lon="9.61343847076463"><ele>58.0</ele><time>2026-04-11T15:19:25Z</time></trkpt><trkpt lat="39.770428571921336" lon="9.613471778743486"><ele>58.5</ele><time>2026-04-11T15:19:26Z</time></trkpt><trkpt lat="39.77017189699448" lon="9.613511452178333"><ele>59.0</ele><time>2026-04-11T15:19:27Z</time></trkpt><trkpt lat="39.76991368723309" lon="9.613550784666224"><ele>59.0</ele><time>2026-04-11T15:19:28Z</time></trkpt><trkpt lat="39.76965642093348" lon="9.613587907405467"><ele>59.0</ele><time>2026-04-11T15:19:29Z</time></trkpt><trkpt lat="39.76939960962873" lon="9.613621484157505"><ele>59.0</ele><time>2026-04-11T15:19:30Z</time></trkpt><trkpt lat="39.769143295543564" lon="9.61365379124107"><ele>59.0</ele><time>2026-04-11T15:19:31Z</time></trkpt><trkpt lat="39.76889157892173" lon="9.613679050208134"><ele>59.0</ele><time>2026-04-11T15:19:32Z</time></trkpt><trkpt lat="39.7686384205899" lon="9.61370438967551"><ele>59.0</ele><time>2026-04-11T15:19:33Z</time></trkpt><trkpt lat="39.768385254637636" lon="9.613724088566888"><ele>61.5</ele><time>2026-04-11T15:19:34Z</time></trkpt><trkpt lat="39.768134990017074" lon="9.613733685713294"><ele>64.0</ele><time>2026-04-11T15:19:35Z</time></trkpt><trkpt lat="39.76788543996544" lon="9.613733607707994"><ele>65.5</ele><time>2026-04-11T15:19:36Z</time></trkpt><trkpt lat="39.76763850975336" lon="9.613717826878533"><ele>67.0</ele><time>2026-04-11T15:19:37Z</time></trkpt><trkpt lat="39.76739406729274" lon="9.613685720445147"><ele>67.0</ele><time>2026-04-11T15:19:38Z</time></trkpt><trkpt lat="39.767151226639044" lon="9.613634773667615"><ele>67.0</ele><time>2026-04-11T15:19:39Z</time></trkpt><trkpt lat="39.76691606725418" lon="9.61356563385947"><ele>67.5</ele><time>2026-04-11T15:19:40Z</time></trkpt><trkpt lat="39.76668039209369" lon="9.613483669565621"><ele>68.0</ele><time>2026-04-11T15:19:41Z</time></trkpt><trkpt lat="39.76645191670485" lon="9.61339404666963"><ele>75.0</ele><time>2026-04-11T15:19:42Z</time></trkpt><trkpt lat="39.76601466197762" lon="9.61317498876168"><ele>75.0</ele><time>2026-04-11T15:19:44Z</time></trkpt><trkpt lat="39.76580638272633" lon="9.613045679918287"><ele>75.0</ele><time>2026-04-11T15:19:45Z</time></trkpt><trkpt lat="39.765605265426345" lon="9.612902816276188"><ele>74.0</ele><time>2026-04-11T15:19:46Z</time></trkpt><trkpt lat="39.765407340030414" lon="9.612749518062163"><ele>73.0</ele><time>2026-04-11T15:19:47Z</time></trkpt><trkpt lat="39.765212962886885" lon="9.612578202238902"><ele>75.5</ele><time>2026-04-11T15:19:48Z</time></trkpt><trkpt lat="39.76502780190915" lon="9.612386568736595"><ele>78.0</ele><time>2026-04-11T15:19:49Z</time></trkpt><trkpt lat="39.76484828775234" lon="9.612182529083428"><ele>76.5</ele><time>2026-04-11T15:19:50Z</time></trkpt><trkpt lat="39.764673636283355" lon="9.611966566959758"><ele>75.0</ele><time>2026-04-11T15:19:51Z</time></trkpt><trkpt lat="39.764511782178595" lon="9.611746966174808"><ele>75.0</ele><time>2026-04-11T15:19:52Z</time></trkpt><trkpt lat="39.764356445249014" lon="9.611505567996351"><ele>75.0</ele><time>2026-04-11T15:19:53Z</time></trkpt><trkpt lat="39.76421592193094" lon="9.611258299189009"><ele>75.5</ele><time>2026-04-11T15:19:54Z</time></trkpt><trkpt lat="39.764087503900214" lon="9.610998891431848"><ele>76.0</ele><time>2026-04-11T15:19:55Z</time></trkpt><trkpt lat="39.763965123963025" lon="9.610733451216712"><ele>76.0</ele><time>2026-04-11T15:19:56Z</time></trkpt><trkpt lat="39.7638550778007" lon="9.610462127961853"><ele>76.0</ele><time>2026-04-11T15:19:57Z</time></trkpt><trkpt lat="39.76375810470985" lon="9.610186931529018"><ele>78.0</ele><time>2026-04-11T15:19:58Z</time></trkpt><trkpt lat="39.76366945488003" lon="9.60990394036352"><ele>80.0</ele><time>2026-04-11T15:19:59Z</time></trkpt><trkpt lat="39.76359356229429" lon="9.609622803835721"><ele>82.0</ele><time>2026-04-11T15:20:00Z</time></trkpt><trkpt lat="39.7635340405145" lon="9.609331458637161"><ele>84.0</ele><time>2026-04-11T15:20:01Z</time></trkpt><trkpt lat="39.76347621120592" lon="9.60904152190188"><ele>86.5</ele><time>2026-04-11T15:20:02Z</time></trkpt><trkpt lat="39.76342769430377" lon="9.60875045600309"><ele>89.0</ele><time>2026-04-11T15:20:03Z</time></trkpt><trkpt lat="39.763385027382334" lon="9.608456631226073"><ele>92.5</ele><time>2026-04-11T15:20:04Z</time></trkpt><trkpt lat="39.76335585676763" lon="9.608159126638052"><ele>96.0</ele><time>2026-04-11T15:20:05Z</time></trkpt><trkpt lat="39.76333633970472" lon="9.607862065359543"><ele>95.0</ele><time>2026-04-11T15:20:06Z</time></trkpt><trkpt lat="39.76331304149551" lon="9.607557098993876"><ele>94.0</ele><time>2026-04-11T15:20:07Z</time></trkpt><trkpt lat="39.76329643316689" lon="9.607251755501236"><ele>94.5</ele><time>2026-04-11T15:20:08Z</time></trkpt><trkpt lat="39.76328646875089" lon="9.606945048812653"><ele>95.0</ele><time>2026-04-11T15:20:09Z</time></trkpt><trkpt lat="39.76327823761605" lon="9.606636601920982"><ele>95.0</ele><time>2026-04-11T15:20:10Z</time></trkpt><trkpt lat="39.763269053152996" lon="9.606327990038105"><ele>95.0</ele><time>2026-04-11T15:20:11Z</time></trkpt><trkpt lat="39.763260341481065" lon="9.606018010785226"><ele>95.5</ele><time>2026-04-11T15:20:12Z</time></trkpt><trkpt lat="39.763251086105875" lon="9.605707453255828"><ele>96.0</ele><time>2026-04-11T15:20:13Z</time></trkpt><trkpt lat="39.76324149371964" lon="9.605398685245978"><ele>97.0</ele><time>2026-04-11T15:20:14Z</time></trkpt><trkpt lat="39.763231258892645" lon="9.605091204551181"><ele>98.0</ele><time>2026-04-11T15:20:15Z</time></trkpt><trkpt lat="39.76322018063677" lon="9.60478635425108"><ele>98.0</ele><time>2026-04-11T15:20:16Z</time></trkpt><trkpt lat="39.763209009136624" lon="9.604483637223087"><ele>98.0</ele><time>2026-04-11T15:20:17Z</time></trkpt><trkpt lat="39.76319977235972" lon="9.6041833644887"><ele>98.0</ele><time>2026-04-11T15:20:18Z</time></trkpt><trkpt lat="39.76318564907743" lon="9.603884795112155"><ele>98.0</ele><time>2026-04-11T15:20:19Z</time></trkpt><trkpt lat="39.76316724770492" lon="9.603587493144868"><ele>100.0</ele><time>2026-04-11T15:20:20Z</time></trkpt><trkpt lat="39.763137602934194" lon="9.603294692241668"><ele>102.0</ele><time>2026-04-11T15:20:21Z</time></trkpt><trkpt lat="39.76309368215212" lon="9.603006998414063"><ele>105.0</ele><time>2026-04-11T15:20:22Z</time></trkpt><trkpt lat="39.763036096139885" lon="9.602720143963813"><ele>108.0</ele><time>2026-04-11T15:20:23Z</time></trkpt><trkpt lat="39.76297833571472" lon="9.602444033820586"><ele>111.0</ele><time>2026-04-11T15:20:24Z</time></trkpt><trkpt lat="39.762902501447485" lon="9.602157315157893"><ele>111.0</ele><time>2026-04-11T15:20:25Z</time></trkpt><trkpt lat="39.76282045796118" lon="9.601870087737543"><ele>111.0</ele><time>2026-04-11T15:20:26Z</time></trkpt><trkpt lat="39.76273089880142" lon="9.601582755392046"><ele>116.5</ele><time>2026-04-11T15:20:27Z</time></trkpt><trkpt lat="39.76263394005281" lon="9.601293694238457"><ele>122.0</ele><time>2026-04-11T15:20:28Z</time></trkpt><trkpt lat="39.76253477804773" lon="9.601003728579837"><ele>122.0</ele><time>2026-04-11T15:20:29Z</time></trkpt><trkpt lat="39.76243925942668" lon="9.600713737127151"><ele>122.0</ele><time>2026-04-11T15:20:30Z</time></trkpt><trkpt lat="39.76233040737946" lon="9.600434876896246"><ele>117.0</ele><time>2026-04-11T15:20:31Z</time></trkpt><trkpt lat="39.76222705856929" lon="9.600147950766209"><ele>112.0</ele><time>2026-04-11T15:20:32Z</time></trkpt><trkpt lat="39.76212988472311" lon="9.59986277888135"><ele>112.0</ele><time>2026-04-11T15:20:33Z</time></trkpt><trkpt lat="39.76203133271672" lon="9.59958096307404"><ele>112.0</ele><time>2026-04-11T15:20:34Z</time></trkpt><trkpt lat="39.761930440397265" lon="9.599298516214184"><ele>116.0</ele><time>2026-04-11T15:20:35Z</time></trkpt><trkpt lat="39.76182675258246" lon="9.599016152600992"><ele>120.0</ele><time>2026-04-11T15:20:36Z</time></trkpt><trkpt lat="39.76172635039737" lon="9.598739522952581"><ele>121.0</ele><time>2026-04-11T15:20:37Z</time></trkpt><trkpt lat="39.761622812882386" lon="9.59845422802347"><ele>122.0</ele><time>2026-04-11T15:20:38Z</time></trkpt><trkpt lat="39.7615222557146" lon="9.598174564401413"><ele>122.0</ele><time>2026-04-11T15:20:39Z</time></trkpt><trkpt lat="39.76141780048651" lon="9.597893552433964"><ele>122.0</ele><time>2026-04-11T15:20:40Z</time></trkpt><trkpt lat="39.761313873050206" lon="9.597611062267468"><ele>127.0</ele><time>2026-04-11T15:20:41Z</time></trkpt><trkpt lat="39.76121366253981" lon="9.59733141942824"><ele>132.0</ele><time>2026-04-11T15:20:42Z</time></trkpt><trkpt lat="39.76111411689767" lon="9.597050911367004"><ele>139.0</ele><time>2026-04-11T15:20:43Z</time></trkpt><trkpt lat="39.76101302199986" lon="9.596771685599736"><ele>146.0</ele><time>2026-04-11T15:20:44Z</time></trkpt><trkpt lat="39.7609150892879" lon="9.596493328560037"><ele>146.0</ele><time>2026-04-11T15:20:45Z</time></trkpt><trkpt lat="39.76081823071272" lon="9.59621582323758"><ele>146.0</ele><time>2026-04-11T15:20:46Z</time></trkpt><trkpt lat="39.76072016888768" lon="9.595943440565913"><ele>144.5</ele><time>2026-04-11T15:20:47Z</time></trkpt><trkpt lat="39.76062645219391" lon="9.595672095400884"><ele>143.0</ele><time>2026-04-11T15:20:48Z</time></trkpt><trkpt lat="39.76053735106046" lon="9.595396105198414"><ele>142.5</ele><time>2026-04-11T15:20:49Z</time></trkpt><trkpt lat="39.7604567174143" lon="9.595117512352457"><ele>142.0</ele><time>2026-04-11T15:20:50Z</time></trkpt><trkpt lat="39.7603814568727" lon="9.59483241847469"><ele>142.0</ele><time>2026-04-11T15:20:51Z</time></trkpt><trkpt lat="39.7603143579029" lon="9.5945462155454"><ele>142.0</ele><time>2026-04-11T15:20:52Z</time></trkpt><trkpt lat="39.760253776532686" lon="9.594257584755633"><ele>141.5</ele><time>2026-04-11T15:20:53Z</time></trkpt><trkpt lat="39.76020252079" lon="9.593961132801336"><ele>141.0</ele><time>2026-04-11T15:20:54Z</time></trkpt><trkpt lat="39.76016506701418" lon="9.593666010738342"><ele>155.5</ele><time>2026-04-11T15:20:55Z</time></trkpt><trkpt lat="39.760128840310905" lon="9.593364757902284"><ele>170.0</ele><time>2026-04-11T15:20:56Z</time></trkpt><trkpt lat="39.76009362740973" lon="9.593063439732333"><ele>169.5</ele><time>2026-04-11T15:20:57Z</time></trkpt><trkpt lat="39.76007985570642" lon="9.592758065014506"><ele>169.0</ele><time>2026-04-11T15:20:58Z</time></trkpt><trkpt lat="39.76005194077876" lon="9.592452073906198"><ele>169.0</ele><time>2026-04-11T15:20:59Z</time></trkpt><trkpt lat="39.759996212273215" lon="9.592149563862653"><ele>169.0</ele><time>2026-04-11T15:21:00Z</time></trkpt><trkpt lat="39.75996733602617" lon="9.591832744573084"><ele>168.0</ele><time>2026-04-11T15:21:01.026Z</time></trkpt><trkpt lat="39.75993787610273" lon="9.591526989504748"><ele>167.0</ele><time>2026-04-11T15:21:02.026Z</time></trkpt><trkpt lat="39.759994714077386" lon="9.590882040419855"><ele>167.0</ele><time>2026-04-11T15:21:04Z</time></trkpt><trkpt lat="39.75997762632241" lon="9.590572545019434"><ele>167.0</ele><time>2026-04-11T15:21:05Z</time></trkpt><trkpt lat="39.759947038212346" lon="9.590269558609355"><ele>178.0</ele><time>2026-04-11T15:21:06Z</time></trkpt><trkpt lat="39.75993009132929" lon="9.589975099823306"><ele>189.0</ele><time>2026-04-11T15:21:07Z</time></trkpt><trkpt lat="39.75990938887418" lon="9.589672239966516"><ele>207.0</ele><time>2026-04-11T15:21:08Z</time></trkpt><trkpt lat="39.759888685644846" lon="9.589369380532737"><ele>225.0</ele><time>2026-04-11T15:21:09Z</time></trkpt><trkpt lat="39.759867981619465" lon="9.589066521207961"><ele>225.0</ele><time>2026-04-11T15:21:10Z</time></trkpt><trkpt lat="39.75984676232031" lon="9.588756136640155"><ele>225.0</ele><time>2026-04-11T15:21:11.025Z</time></trkpt><trkpt lat="39.75241789643367" lon="9.578715184600119"><ele>198.5</ele><time>2026-04-11T15:21:52.6Z</time></trkpt><trkpt lat="39.75218053536909" lon="9.578542881751801"><ele>172.0</ele><time>2026-04-11T15:21:53.55Z</time></trkpt><trkpt lat="39.75193368347901" lon="9.578387912482858"><ele>169.5</ele><time>2026-04-11T15:21:54.5Z</time></trkpt><trkpt lat="39.75168645915771" lon="9.578240199682062"><ele>167.0</ele><time>2026-04-11T15:21:55.45Z</time></trkpt><trkpt lat="39.75142712623855" lon="9.578113699891256"><ele>167.0</ele><time>2026-04-11T15:21:56.4Z</time></trkpt><trkpt lat="39.7511674570629" lon="9.57799648776158"><ele>167.0</ele><time>2026-04-11T15:21:57.35Z</time></trkpt><trkpt lat="39.750900337519035" lon="9.577907418540661"><ele>165.0</ele><time>2026-04-11T15:21:58.3Z</time></trkpt><trkpt lat="39.75063105578479" lon="9.577837516076348"><ele>163.0</ele><time>2026-04-11T15:21:59.25Z</time></trkpt><trkpt lat="39.750360289023746" lon="9.57779421313771"><ele>164.0</ele><time>2026-04-11T15:22:00.2Z</time></trkpt><trkpt lat="39.75009074163529" lon="9.57777409091775"><ele>165.0</ele><time>2026-04-11T15:22:01.15Z</time></trkpt><trkpt lat="39.74982057578838" lon="9.57777812323356"><ele>165.0</ele><time>2026-04-11T15:22:02.1Z</time></trkpt><trkpt lat="39.74955289835015" lon="9.577802905755545"><ele>165.0</ele><time>2026-04-11T15:22:03.05Z</time></trkpt><trkpt lat="39.74928554376038" lon="9.577883046212714"><ele>166.5</ele><time>2026-04-11T15:22:04Z</time></trkpt><trkpt lat="39.74900457417273" lon="9.577957207920754"><ele>168.0</ele><time>2026-04-11T15:22:05Z</time></trkpt><trkpt lat="39.748721894106794" lon="9.578053049210697"><ele>166.0</ele><time>2026-04-11T15:22:06Z</time></trkpt><trkpt lat="39.748440001285246" lon="9.578163475832929"><ele>164.0</ele><time>2026-04-11T15:22:07Z</time></trkpt><trkpt lat="39.748161527721685" lon="9.578286074082886"><ele>164.0</ele><time>2026-04-11T15:22:08Z</time></trkpt><trkpt lat="39.74788701894623" lon="9.578418119824628"><ele>164.0</ele><time>2026-04-11T15:22:09Z</time></trkpt><trkpt lat="39.74761479394245" lon="9.578558446440852"><ele>164.5</ele><time>2026-04-11T15:22:10Z</time></trkpt><trkpt lat="39.747344034393734" lon="9.578704019845494"><ele>165.0</ele><time>2026-04-11T15:22:11Z</time></trkpt><trkpt lat="39.747072284923306" lon="9.578853446567335"><ele>164.0</ele><time>2026-04-11T15:22:12Z</time></trkpt><trkpt lat="39.746802935187" lon="9.578997282790949"><ele>163.0</ele><time>2026-04-11T15:22:13Z</time></trkpt><trkpt lat="39.74653246875782" lon="9.57913019089252"><ele>163.0</ele><time>2026-04-11T15:22:14Z</time></trkpt><trkpt lat="39.74625829308172" lon="9.579248047277598"><ele>163.0</ele><time>2026-04-11T15:22:15Z</time></trkpt><trkpt lat="39.74598079384214" lon="9.579346420866273"><ele>161.0</ele><time>2026-04-11T15:22:16Z</time></trkpt><trkpt lat="39.74570038923693" lon="9.57942749144216"><ele>159.0</ele><time>2026-04-11T15:22:17Z</time></trkpt><trkpt lat="39.74541582219154" lon="9.579487711469428"><ele>160.0</ele><time>2026-04-11T15:22:18Z</time></trkpt><trkpt lat="39.74512317346888" lon="9.579522430101207"><ele>161.0</ele><time>2026-04-11T15:22:19Z</time></trkpt><trkpt lat="39.74483168698109" lon="9.57953125357334"><ele>159.5</ele><time>2026-04-11T15:22:20Z</time></trkpt><trkpt lat="39.744541315720035" lon="9.57951585230521"><ele>158.0</ele><time>2026-04-11T15:22:21Z</time></trkpt><trkpt lat="39.74425119527481" lon="9.579472386698606"><ele>156.5</ele><time>2026-04-11T15:22:22Z</time></trkpt><trkpt lat="39.74396358447957" lon="9.579407424508396"><ele>155.0</ele><time>2026-04-11T15:22:23Z</time></trkpt><trkpt lat="39.74368208423383" lon="9.579329233854349"><ele>154.0</ele><time>2026-04-11T15:22:24Z</time></trkpt><trkpt lat="39.74340104738724" lon="9.579246184464946"><ele>153.0</ele><time>2026-04-11T15:22:25Z</time></trkpt><trkpt lat="39.74312300509751" lon="9.579162390100539"><ele>153.0</ele><time>2026-04-11T15:22:26Z</time></trkpt><trkpt lat="39.742844143427845" lon="9.579080959214858"><ele>153.0</ele><time>2026-04-11T15:22:27Z</time></trkpt><trkpt lat="39.74256549543496" lon="9.57899962996051"><ele>152.0</ele><time>2026-04-11T15:22:28Z</time></trkpt><trkpt lat="39.74228597545605" lon="9.578919249470346"><ele>151.0</ele><time>2026-04-11T15:22:29Z</time></trkpt><trkpt lat="39.74200621688771" lon="9.57883986197256"><ele>150.5</ele><time>2026-04-11T15:22:30Z</time></trkpt><trkpt lat="39.74172832596354" lon="9.578757825115307"><ele>150.0</ele><time>2026-04-11T15:22:31Z</time></trkpt><trkpt lat="39.741450765184844" lon="9.578675868192203"><ele>150.0</ele><time>2026-04-11T15:22:32Z</time></trkpt><trkpt lat="39.74117224448923" lon="9.578591789857473"><ele>150.0</ele><time>2026-04-11T15:22:33Z</time></trkpt><trkpt lat="39.740895707255625" lon="9.578508729340305"><ele>148.5</ele><time>2026-04-11T15:22:34Z</time></trkpt><trkpt lat="39.740617967329634" lon="9.578426716373812"><ele>147.0</ele><time>2026-04-11T15:22:35Z</time></trkpt><trkpt lat="39.74033876783748" lon="9.578347340301356"><ele>146.5</ele><time>2026-04-11T15:22:36Z</time></trkpt><trkpt lat="39.74005783514675" lon="9.578268884561558"><ele>146.0</ele><time>2026-04-11T15:22:37Z</time></trkpt><trkpt lat="39.73977883192326" lon="9.578195934871014"><ele>146.0</ele><time>2026-04-11T15:22:38Z</time></trkpt><trkpt lat="39.739499255573314" lon="9.578133294202912"><ele>146.0</ele><time>2026-04-11T15:22:39Z</time></trkpt><trkpt lat="39.73921460056522" lon="9.578079472649213"><ele>145.0</ele><time>2026-04-11T15:22:40Z</time></trkpt><trkpt lat="39.73892814871596" lon="9.578032407027793"><ele>144.0</ele><time>2026-04-11T15:22:41Z</time></trkpt><trkpt lat="39.738640912191286" lon="9.577991890262565"><ele>144.5</ele><time>2026-04-11T15:22:42Z</time></trkpt><trkpt lat="39.73835354640347" lon="9.57795533191029"><ele>145.0</ele><time>2026-04-11T15:22:43Z</time></trkpt><trkpt lat="39.738066667173335" lon="9.577924898627884"><ele>145.0</ele><time>2026-04-11T15:22:44Z</time></trkpt><trkpt lat="39.737772096561876" lon="9.577898055592097"><ele>145.0</ele><time>2026-04-11T15:22:45Z</time></trkpt><trkpt lat="39.73748172619479" lon="9.577875775784078"><ele>144.5</ele><time>2026-04-11T15:22:46Z</time></trkpt><trkpt lat="39.73719073095878" lon="9.577857645048107"><ele>144.0</ele><time>2026-04-11T15:22:47Z</time></trkpt><trkpt lat="39.736899569997306" lon="9.57783761703613"><ele>144.0</ele><time>2026-04-11T15:22:48Z</time></trkpt><trkpt lat="39.73660936520443" lon="9.577820194136049"><ele>144.0</ele><time>2026-04-11T15:22:49Z</time></trkpt><trkpt lat="39.736317692789314" lon="9.577806146596043"><ele>143.0</ele><time>2026-04-11T15:22:50Z</time></trkpt><trkpt lat="39.73602583274283" lon="9.577800172301496"><ele>142.0</ele><time>2026-04-11T15:22:51Z</time></trkpt><trkpt lat="39.73573224678551" lon="9.57779759997828"><ele>142.0</ele><time>2026-04-11T15:22:52Z</time></trkpt><trkpt lat="39.73544032983066" lon="9.577798403568734"><ele>142.0</ele><time>2026-04-11T15:22:53Z</time></trkpt><trkpt lat="39.735142489290844" lon="9.57780617170969"><ele>142.0</ele><time>2026-04-11T15:22:54Z</time></trkpt><trkpt lat="39.734844608373926" lon="9.577818807476648"><ele>142.0</ele><time>2026-04-11T15:22:55Z</time></trkpt><trkpt lat="39.73454540747716" lon="9.57783332179054"><ele>140.5</ele><time>2026-04-11T15:22:56Z</time></trkpt><trkpt lat="39.73424653148739" lon="9.577854225524595"><ele>139.0</ele><time>2026-04-11T15:22:57Z</time></trkpt><trkpt lat="39.73394871165943" lon="9.577883892209142"><ele>139.0</ele><time>2026-04-11T15:22:58Z</time></trkpt><trkpt lat="39.733652223213184" lon="9.577925811564764"><ele>139.0</ele><time>2026-04-11T15:22:59Z</time></trkpt><trkpt lat="39.733357036750036" lon="9.577974950053486"><ele>139.0</ele><time>2026-04-11T15:23:00Z</time></trkpt><trkpt lat="39.73306263694334" lon="9.578030106239085"><ele>139.0</ele><time>2026-04-11T15:23:01Z</time></trkpt><trkpt lat="39.73277044776877" lon="9.578091665652401"><ele>139.5</ele><time>2026-04-11T15:23:02Z</time></trkpt><trkpt lat="39.73247763547356" lon="9.578156930943356"><ele>140.0</ele><time>2026-04-11T15:23:03Z</time></trkpt><trkpt lat="39.732185726254606" lon="9.578227548693935"><ele>140.0</ele><time>2026-04-11T15:23:04Z</time></trkpt><trkpt lat="39.73189156144249" lon="9.578303967145722"><ele>140.0</ele><time>2026-04-11T15:23:05Z</time></trkpt><trkpt lat="39.73159910740686" lon="9.578383646940727"><ele>139.5</ele><time>2026-04-11T15:23:06Z</time></trkpt><trkpt lat="39.73130645908483" lon="9.578465125302749"><ele>139.0</ele><time>2026-04-11T15:23:07Z</time></trkpt><trkpt lat="39.7310134787442" lon="9.578545389302214"><ele>137.5</ele><time>2026-04-11T15:23:08Z</time></trkpt><trkpt lat="39.730721120996456" lon="9.578628310094496"><ele>136.0</ele><time>2026-04-11T15:23:09Z</time></trkpt><trkpt lat="39.730428684629764" lon="9.578710944639331"><ele>135.0</ele><time>2026-04-11T15:23:10Z</time></trkpt><trkpt lat="39.73013470143397" lon="9.578794021559252"><ele>134.0</ele><time>2026-04-11T15:23:11Z</time></trkpt><trkpt lat="39.72983772433731" lon="9.578877062515446"><ele>134.0</ele><time>2026-04-11T15:23:12Z</time></trkpt><trkpt lat="39.729542494991875" lon="9.578960635961796"><ele>134.0</ele><time>2026-04-11T15:23:13Z</time></trkpt><trkpt lat="39.729245428357" lon="9.579045755319404"><ele>135.5</ele><time>2026-04-11T15:23:14Z</time></trkpt><trkpt lat="39.72894962120623" lon="9.579131078504648"><ele>137.0</ele><time>2026-04-11T15:23:15Z</time></trkpt><trkpt lat="39.728651633202944" lon="9.57921586684491"><ele>138.5</ele><time>2026-04-11T15:23:16Z</time></trkpt><trkpt lat="39.72835347132475" lon="9.57930025935115"><ele>140.0</ele><time>2026-04-11T15:23:17Z</time></trkpt><trkpt lat="39.728056552015204" lon="9.579385547542346"><ele>140.0</ele><time>2026-04-11T15:23:18Z</time></trkpt><trkpt lat="39.72775769552064" lon="9.579473029336272"><ele>140.0</ele><time>2026-04-11T15:23:19Z</time></trkpt><trkpt lat="39.727460767652545" lon="9.579563775119924"><ele>137.5</ele><time>2026-04-11T15:23:20Z</time></trkpt><trkpt lat="39.727163128254865" lon="9.579661649153486"><ele>135.0</ele><time>2026-04-11T15:23:21Z</time></trkpt><trkpt lat="39.72686520831568" lon="9.579766063736438"><ele>135.0</ele><time>2026-04-11T15:23:22Z</time></trkpt><trkpt lat="39.72656738222144" lon="9.579877905595717"><ele>135.0</ele><time>2026-04-11T15:23:23Z</time></trkpt><trkpt lat="39.72627049389784" lon="9.57999495106551"><ele>135.5</ele><time>2026-04-11T15:23:24Z</time></trkpt><trkpt lat="39.72597349521885" lon="9.580113227943917"><ele>136.0</ele><time>2026-04-11T15:23:25Z</time></trkpt><trkpt lat="39.725679525883926" lon="9.58023758585984"><ele>135.0</ele><time>2026-04-11T15:23:26Z</time></trkpt><trkpt lat="39.72538656053251" lon="9.580370647270597"><ele>134.0</ele><time>2026-04-11T15:23:27Z</time></trkpt><trkpt lat="39.72509630734141" lon="9.580508121444238"><ele>133.0</ele><time>2026-04-11T15:23:28Z</time></trkpt><trkpt lat="39.724805712323736" lon="9.580647403518014"><ele>132.0</ele><time>2026-04-11T15:23:29Z</time></trkpt><trkpt lat="39.72451526491768" lon="9.580787700918009"><ele>131.0</ele><time>2026-04-11T15:23:30Z</time></trkpt><trkpt lat="39.724226557116474" lon="9.58092437931275"><ele>130.0</ele><time>2026-04-11T15:23:31Z</time></trkpt><trkpt lat="39.723935267459716" lon="9.581058523003529"><ele>129.5</ele><time>2026-04-11T15:23:32Z</time></trkpt><trkpt lat="39.72364281863007" lon="9.58118733725135"><ele>129.0</ele><time>2026-04-11T15:23:33Z</time></trkpt><trkpt lat="39.72334689418747" lon="9.58130413563268"><ele>128.5</ele><time>2026-04-11T15:23:34Z</time></trkpt><trkpt lat="39.7230522863854" lon="9.581403223998766"><ele>128.0</ele><time>2026-04-11T15:23:35Z</time></trkpt><trkpt lat="39.72275312021445" lon="9.581487336854337"><ele>128.0</ele><time>2026-04-11T15:23:36Z</time></trkpt><trkpt lat="39.72245254934714" lon="9.581548694786703"><ele>128.0</ele><time>2026-04-11T15:23:37Z</time></trkpt><trkpt lat="39.722149299001394" lon="9.58158271046709"><ele>128.0</ele><time>2026-04-11T15:23:38Z</time></trkpt><trkpt lat="39.72184693470605" lon="9.581603751780545"><ele>128.0</ele><time>2026-04-11T15:23:39Z</time></trkpt><trkpt lat="39.721545788369" lon="9.581624582122314"><ele>128.0</ele><time>2026-04-11T15:23:40Z</time></trkpt><trkpt lat="39.72125116132148" lon="9.5816484598477"><ele>128.0</ele><time>2026-04-11T15:23:41Z</time></trkpt><trkpt lat="39.72095649478003" lon="9.581678306200942"><ele>127.0</ele><time>2026-04-11T15:23:42Z</time></trkpt><trkpt lat="39.720662590251386" lon="9.58171798970308"><ele>126.0</ele><time>2026-04-11T15:23:43Z</time></trkpt><trkpt lat="39.72037254487245" lon="9.581774865677842"><ele>126.0</ele><time>2026-04-11T15:23:44Z</time></trkpt><trkpt lat="39.72008540867837" lon="9.581856774306317"><ele>126.0</ele><time>2026-04-11T15:23:45Z</time></trkpt><trkpt lat="39.71980311113178" lon="9.581964498882963"><ele>126.0</ele><time>2026-04-11T15:23:46Z</time></trkpt><trkpt lat="39.719527511365634" lon="9.582100226375758"><ele>126.0</ele><time>2026-04-11T15:23:47Z</time></trkpt><trkpt lat="39.71925695139889" lon="9.582262496784097"><ele>126.0</ele><time>2026-04-11T15:23:48Z</time></trkpt><trkpt lat="39.71899594028895" lon="9.58244048381254"><ele>126.0</ele><time>2026-04-11T15:23:49Z</time></trkpt><trkpt lat="39.71874011940049" lon="9.582636809479549"><ele>125.0</ele><time>2026-04-11T15:23:50Z</time></trkpt><trkpt lat="39.71849560516531" lon="9.582850788731134"><ele>124.0</ele><time>2026-04-11T15:23:51Z</time></trkpt><trkpt lat="39.71825971809671" lon="9.583076518375734"><ele>124.0</ele><time>2026-04-11T15:23:52Z</time></trkpt><trkpt lat="39.71802813911647" lon="9.583306129070651"><ele>124.0</ele><time>2026-04-11T15:23:53Z</time></trkpt><trkpt lat="39.71779914727376" lon="9.583534626976611"><ele>124.0</ele><time>2026-04-11T15:23:54Z</time></trkpt><trkpt lat="39.717570183662446" lon="9.583761195868107"><ele>124.0</ele><time>2026-04-11T15:23:55Z</time></trkpt><trkpt lat="39.71734095118252" lon="9.58398337206584"><ele>124.0</ele><time>2026-04-11T15:23:56Z</time></trkpt><trkpt lat="39.71711179456583" lon="9.584203278234453"><ele>124.0</ele><time>2026-04-11T15:23:57Z</time></trkpt><trkpt lat="39.71688797265128" lon="9.584420822874625"><ele>123.5</ele><time>2026-04-11T15:23:58Z</time></trkpt><trkpt lat="39.7166630004524" lon="9.584640612939424"><ele>123.0</ele><time>2026-04-11T15:23:59Z</time></trkpt><trkpt lat="39.71643759658824" lon="9.584859300747402"><ele>123.0</ele><time>2026-04-11T15:24:00Z</time></trkpt><trkpt lat="39.716212063826916" lon="9.585076785846496"><ele>123.0</ele><time>2026-04-11T15:24:01Z</time></trkpt><trkpt lat="39.715984581832146" lon="9.58528757434375"><ele>124.0</ele><time>2026-04-11T15:24:02Z</time></trkpt><trkpt lat="39.71575462388114" lon="9.585487836298087"><ele>125.0</ele><time>2026-04-11T15:24:03Z</time></trkpt><trkpt lat="39.71551763286173" lon="9.585670177058917"><ele>125.0</ele><time>2026-04-11T15:24:04Z</time></trkpt><trkpt lat="39.71527074594151" lon="9.585835692496362"><ele>125.0</ele><time>2026-04-11T15:24:05Z</time></trkpt><trkpt lat="39.71501875711813" lon="9.585987794001117"><ele>124.5</ele><time>2026-04-11T15:24:06Z</time></trkpt><trkpt lat="39.71476084943392" lon="9.586128748743365"><ele>124.0</ele><time>2026-04-11T15:24:07Z</time></trkpt><trkpt lat="39.71449614824343" lon="9.586256718319156"><ele>125.0</ele><time>2026-04-11T15:24:08Z</time></trkpt><trkpt lat="39.714224682557884" lon="9.586368416800408"><ele>126.0</ele><time>2026-04-11T15:24:09Z</time></trkpt><trkpt lat="39.71394701892682" lon="9.58646695796566"><ele>126.0</ele><time>2026-04-11T15:24:10Z</time></trkpt><trkpt lat="39.71366543791127" lon="9.586550734068357"><ele>126.0</ele><time>2026-04-11T15:24:11Z</time></trkpt><trkpt lat="39.71338017503267" lon="9.586621452031304"><ele>125.5</ele><time>2026-04-11T15:24:12Z</time></trkpt><trkpt lat="39.713092889205846" lon="9.586675590907507"><ele>125.0</ele><time>2026-04-11T15:24:13Z</time></trkpt><trkpt lat="39.71279971681081" lon="9.586711779193209"><ele>125.0</ele><time>2026-04-11T15:24:14Z</time></trkpt><trkpt lat="39.712506319710016" lon="9.586729285193728"><ele>125.0</ele><time>2026-04-11T15:24:15Z</time></trkpt><trkpt lat="39.71221136967243" lon="9.586732694203663"><ele>125.0</ele><time>2026-04-11T15:24:16Z</time></trkpt><trkpt lat="39.711914060512655" lon="9.586732155409429"><ele>125.0</ele><time>2026-04-11T15:24:17Z</time></trkpt><trkpt lat="39.71161957237842" lon="9.586733137315084"><ele>125.5</ele><time>2026-04-11T15:24:18Z</time></trkpt><trkpt lat="39.711323352715" lon="9.586738070378528"><ele>126.0</ele><time>2026-04-11T15:24:19Z</time></trkpt><trkpt lat="39.711029569922815" lon="9.586744644570123"><ele>125.0</ele><time>2026-04-11T15:24:20Z</time></trkpt><trkpt lat="39.71073530540264" lon="9.586751261578595"><ele>124.0</ele><time>2026-04-11T15:24:21Z</time></trkpt><trkpt lat="39.71043765966981" lon="9.586756342074723"><ele>123.0</ele><time>2026-04-11T15:24:22Z</time></trkpt><trkpt lat="39.71013973005422" lon="9.586760953406664"><ele>122.0</ele><time>2026-04-11T15:24:23Z</time></trkpt><trkpt lat="39.70984175587631" lon="9.5867635208937"><ele>122.0</ele><time>2026-04-11T15:24:24Z</time></trkpt><trkpt lat="39.70954289793272" lon="9.586763866449186"><ele>122.0</ele><time>2026-04-11T15:24:25Z</time></trkpt><trkpt lat="39.70924477546918" lon="9.586765980186946"><ele>120.0</ele><time>2026-04-11T15:24:26Z</time></trkpt><trkpt lat="39.708946785959135" lon="9.586772195224611"><ele>118.0</ele><time>2026-04-11T15:24:27Z</time></trkpt><trkpt lat="39.70864996673152" lon="9.586778001577391"><ele>117.5</ele><time>2026-04-11T15:24:28Z</time></trkpt><trkpt lat="39.70835197188171" lon="9.586781690648658"><ele>117.0</ele><time>2026-04-11T15:24:29Z</time></trkpt><trkpt lat="39.70805073420931" lon="9.586783071763053"><ele>117.0</ele><time>2026-04-11T15:24:30Z</time></trkpt><trkpt lat="39.707751427818266" lon="9.586781608228947"><ele>117.0</ele><time>2026-04-11T15:24:31Z</time></trkpt><trkpt lat="39.707451532250225" lon="9.586779895392237"><ele>117.5</ele><time>2026-04-11T15:24:32Z</time></trkpt><trkpt lat="39.70715086228369" lon="9.586781852605363"><ele>118.0</ele><time>2026-04-11T15:24:33Z</time></trkpt><trkpt lat="39.706850316324065" lon="9.586789254753338"><ele>118.5</ele><time>2026-04-11T15:24:34Z</time></trkpt><trkpt lat="39.7065514404178" lon="9.586796955991288"><ele>119.0</ele><time>2026-04-11T15:24:35Z</time></trkpt><trkpt lat="39.70625357900843" lon="9.586801365479603"><ele>121.0</ele><time>2026-04-11T15:24:36Z</time></trkpt><trkpt lat="39.70595622184979" lon="9.58680090001848"><ele>123.0</ele><time>2026-04-11T15:24:37Z</time></trkpt><trkpt lat="39.70566218780536" lon="9.586800901952056"><ele>123.0</ele><time>2026-04-11T15:24:38Z</time></trkpt><trkpt lat="39.70536942712826" lon="9.586804913449322"><ele>123.0</ele><time>2026-04-11T15:24:39Z</time></trkpt><trkpt lat="39.70507727292114" lon="9.586810541614048"><ele>121.5</ele><time>2026-04-11T15:24:40Z</time></trkpt><trkpt lat="39.704787979172195" lon="9.58681621536184"><ele>120.0</ele><time>2026-04-11T15:24:41Z</time></trkpt><trkpt lat="39.70449840627809" lon="9.586821738945094"><ele>119.0</ele><time>2026-04-11T15:24:42Z</time></trkpt><trkpt lat="39.70420907144338" lon="9.586822345785544"><ele>118.0</ele><time>2026-04-11T15:24:43Z</time></trkpt><trkpt lat="39.703922092400894" lon="9.58682370081571"><ele>118.0</ele><time>2026-04-11T15:24:44Z</time></trkpt><trkpt lat="39.703635190654744" lon="9.58682760584345"><ele>118.0</ele><time>2026-04-11T15:24:45Z</time></trkpt><trkpt lat="39.70334896035678" lon="9.586832136103288"><ele>117.5</ele><time>2026-04-11T15:24:46Z</time></trkpt><trkpt lat="39.703065374263154" lon="9.586837444306543"><ele>117.0</ele><time>2026-04-11T15:24:47Z</time></trkpt><trkpt lat="39.70278088105049" lon="9.586842572833888"><ele>116.0</ele><time>2026-04-11T15:24:48Z</time></trkpt><trkpt lat="39.7024955347421" lon="9.586845181099243"><ele>115.0</ele><time>2026-04-11T15:24:49Z</time></trkpt><trkpt lat="39.70221197820574" lon="9.586848400120184"><ele>115.0</ele><time>2026-04-11T15:24:50Z</time></trkpt><trkpt lat="39.70193098839184" lon="9.586851125069934"><ele>115.0</ele><time>2026-04-11T15:24:51Z</time></trkpt><trkpt lat="39.70164729862102" lon="9.586854432716184"><ele>113.0</ele><time>2026-04-11T15:24:52Z</time></trkpt><trkpt lat="39.7013658658078" lon="9.586858581706576"><ele>111.0</ele><time>2026-04-11T15:24:53Z</time></trkpt><trkpt lat="39.70108700121092" lon="9.586861447486966"><ele>114.0</ele><time>2026-04-11T15:24:54Z</time></trkpt><trkpt lat="39.70080549744832" lon="9.58686182451149"><ele>117.0</ele><time>2026-04-11T15:24:55Z</time></trkpt><trkpt lat="39.700527106347245" lon="9.58686035020017"><ele>117.0</ele><time>2026-04-11T15:24:56Z</time></trkpt><trkpt lat="39.70025070032429" lon="9.586862547414395"><ele>117.0</ele><time>2026-04-11T15:24:57Z</time></trkpt><trkpt lat="39.6999726056699" lon="9.586869107581864"><ele>118.5</ele><time>2026-04-11T15:24:58Z</time></trkpt><trkpt lat="39.699696913470035" lon="9.586873109521411"><ele>120.0</ele><time>2026-04-11T15:24:59Z</time></trkpt><trkpt lat="39.699421474840086" lon="9.586881123473425"><ele>119.5</ele><time>2026-04-11T15:25:00Z</time></trkpt><trkpt lat="39.69914937178575" lon="9.586886538484409"><ele>119.0</ele><time>2026-04-11T15:25:01Z</time></trkpt><trkpt lat="39.69887568439045" lon="9.586890826918449"><ele>119.0</ele><time>2026-04-11T15:25:02Z</time></trkpt><trkpt lat="39.69860376820418" lon="9.586895968974515"><ele>119.0</ele><time>2026-04-11T15:25:03Z</time></trkpt><trkpt lat="39.698332313365555" lon="9.586900967464143"><ele>119.0</ele><time>2026-04-11T15:25:04Z</time></trkpt><trkpt lat="39.69806111016925" lon="9.586902253274081"><ele>119.0</ele><time>2026-04-11T15:25:05Z</time></trkpt><trkpt lat="39.6977911708879" lon="9.58690424555032"><ele>119.0</ele><time>2026-04-11T15:25:06Z</time></trkpt><trkpt lat="39.69751933952336" lon="9.586906605340047"><ele>119.0</ele><time>2026-04-11T15:25:07Z</time></trkpt><trkpt lat="39.69725001650371" lon="9.586907369258938"><ele>119.0</ele><time>2026-04-11T15:25:08Z</time></trkpt><trkpt lat="39.69697824607408" lon="9.586915667514539"><ele>119.0</ele><time>2026-04-11T15:25:09Z</time></trkpt><trkpt lat="39.6967086956749" lon="9.586927675923082"><ele>118.5</ele><time>2026-04-11T15:25:10Z</time></trkpt><trkpt lat="39.69643522088122" lon="9.586950422276912"><ele>118.0</ele><time>2026-04-11T15:25:11Z</time></trkpt><trkpt lat="39.69616267256414" lon="9.586986261306958"><ele>122.5</ele><time>2026-04-11T15:25:12Z</time></trkpt><trkpt lat="39.695888277561835" lon="9.587037841493725"><ele>127.0</ele><time>2026-04-11T15:25:13Z</time></trkpt><trkpt lat="39.69560684073019" lon="9.58706133343964"><ele>127.0</ele><time>2026-04-11T15:25:14Z</time></trkpt><trkpt lat="39.69532661811238" lon="9.587099887667007"><ele>127.0</ele><time>2026-04-11T15:25:15Z</time></trkpt><trkpt lat="39.695046418621374" lon="9.587159158170914"><ele>122.5</ele><time>2026-04-11T15:25:16Z</time></trkpt><trkpt lat="39.69476429115191" lon="9.587194229952644"><ele>118.0</ele><time>2026-04-11T15:25:17Z</time></trkpt><trkpt lat="39.69446831472891" lon="9.587241291933584"><ele>115.5</ele><time>2026-04-11T15:25:18Z</time></trkpt><trkpt lat="39.6941524360473" lon="9.587268477788221"><ele>113.0</ele><time>2026-04-11T15:25:19Z</time></trkpt><trkpt lat="39.69383373849055" lon="9.587327733553147"><ele>112.5</ele><time>2026-04-11T15:25:20Z</time></trkpt><trkpt lat="39.69352298300811" lon="9.587357514171835"><ele>112.0</ele><time>2026-04-11T15:25:21Z</time></trkpt><trkpt lat="39.69321416527042" lon="9.587397392406537"><ele>112.0</ele><time>2026-04-11T15:25:22Z</time></trkpt><trkpt lat="39.69290750829765" lon="9.587444454523048"><ele>112.0</ele><time>2026-04-11T15:25:23Z</time></trkpt><trkpt lat="39.69260288294638" lon="9.587491895817115"><ele>112.5</ele><time>2026-04-11T15:25:24Z</time></trkpt><trkpt lat="39.6922994334271" lon="9.587540844137159"><ele>113.0</ele><time>2026-04-11T15:25:25Z</time></trkpt><trkpt lat="39.69199331666195" lon="9.587583685066157"><ele>111.5</ele><time>2026-04-11T15:25:26Z</time></trkpt><trkpt lat="39.691686441230644" lon="9.58762463072096"><ele>110.0</ele><time>2026-04-11T15:25:27Z</time></trkpt><trkpt lat="39.69137843395242" lon="9.587668973941472"><ele>106.5</ele><time>2026-04-11T15:25:28Z</time></trkpt><trkpt lat="39.69106678441947" lon="9.587717259963922"><ele>103.0</ele><time>2026-04-11T15:25:29Z</time></trkpt><trkpt lat="39.69075325409921" lon="9.587764886225168"><ele>103.0</ele><time>2026-04-11T15:25:30Z</time></trkpt><trkpt lat="39.690438929643804" lon="9.587809986953877"><ele>103.0</ele><time>2026-04-11T15:25:31Z</time></trkpt><trkpt lat="39.69012675501516" lon="9.587855782487493"><ele>101.5</ele><time>2026-04-11T15:25:32Z</time></trkpt><trkpt lat="39.68981499857993" lon="9.587903687602395"><ele>100.0</ele><time>2026-04-11T15:25:33Z</time></trkpt><trkpt lat="39.68950291436445" lon="9.587949302969722"><ele>100.5</ele><time>2026-04-11T15:25:34Z</time></trkpt><trkpt lat="39.68919328846234" lon="9.58798916557784"><ele>101.0</ele><time>2026-04-11T15:25:35Z</time></trkpt><trkpt lat="39.688882662426586" lon="9.588027177353696"><ele>106.0</ele><time>2026-04-11T15:25:36Z</time></trkpt><trkpt lat="39.68857168997344" lon="9.588063205252768"><ele>111.0</ele><time>2026-04-11T15:25:37Z</time></trkpt><trkpt lat="39.688262519492916" lon="9.588086635688201"><ele>111.0</ele><time>2026-04-11T15:25:38Z</time></trkpt><trkpt lat="39.68795085689397" lon="9.5880797567245"><ele>111.0</ele><time>2026-04-11T15:25:39Z</time></trkpt><trkpt lat="39.68764292805756" lon="9.588052039441088"><ele>112.5</ele><time>2026-04-11T15:25:40Z</time></trkpt><trkpt lat="39.68733503173517" lon="9.588015756690929"><ele>114.0</ele><time>2026-04-11T15:25:41Z</time></trkpt><trkpt lat="39.687027909431784" lon="9.587975169142716"><ele>115.5</ele><time>2026-04-11T15:25:42Z</time></trkpt><trkpt lat="39.68671908283072" lon="9.587922457532555"><ele>117.0</ele><time>2026-04-11T15:25:43Z</time></trkpt><trkpt lat="39.68640812596617" lon="9.587852050514805"><ele>113.0</ele><time>2026-04-11T15:25:44Z</time></trkpt><trkpt lat="39.68610020702532" lon="9.587769460835757"><ele>109.0</ele><time>2026-04-11T15:25:45Z</time></trkpt><trkpt lat="39.685786655072576" lon="9.587664821068543"><ele>109.0</ele><time>2026-04-11T15:25:46Z</time></trkpt><trkpt lat="39.68546657866724" lon="9.587550966764473"><ele>109.0</ele><time>2026-04-11T15:25:47Z</time></trkpt><trkpt lat="39.68518324611742" lon="9.587412648205996"><ele>108.5</ele><time>2026-04-11T15:25:48Z</time></trkpt><trkpt lat="39.6848781771273" lon="9.587268212961796"><ele>108.0</ele><time>2026-04-11T15:25:49Z</time></trkpt><trkpt lat="39.68457783247154" lon="9.58710972196982"><ele>106.5</ele><time>2026-04-11T15:25:50Z</time></trkpt><trkpt lat="39.68428325149158" lon="9.586935278835634"><ele>105.0</ele><time>2026-04-11T15:25:51Z</time></trkpt><trkpt lat="39.683990836159595" lon="9.586751828576483"><ele>105.0</ele><time>2026-04-11T15:25:52Z</time></trkpt><trkpt lat="39.68369635206058" lon="9.586578528788058"><ele>105.0</ele><time>2026-04-11T15:25:53Z</time></trkpt><trkpt lat="39.68341974829152" lon="9.586367186948353"><ele>103.5</ele><time>2026-04-11T15:25:54Z</time></trkpt><trkpt lat="39.68314945242437" lon="9.586142486507418"><ele>102.0</ele><time>2026-04-11T15:25:55Z</time></trkpt><trkpt lat="39.682884798234305" lon="9.585905302381443"><ele>100.0</ele><time>2026-04-11T15:25:56Z</time></trkpt><trkpt lat="39.68262826830217" lon="9.585662128370544"><ele>98.0</ele><time>2026-04-11T15:25:57Z</time></trkpt><trkpt lat="39.68238088050271" lon="9.585410535701705"><ele>96.5</ele><time>2026-04-11T15:25:58Z</time></trkpt><trkpt lat="39.68213812968663" lon="9.585149308806097"><ele>95.0</ele><time>2026-04-11T15:25:59Z</time></trkpt><trkpt lat="39.6819123078694" lon="9.584859330297952"><ele>95.0</ele><time>2026-04-11T15:26:00Z</time></trkpt><trkpt lat="39.68166715547144" lon="9.584593658713324"><ele>95.0</ele><time>2026-04-11T15:26:01Z</time></trkpt><trkpt lat="39.68140770802752" lon="9.584340554128179"><ele>94.0</ele><time>2026-04-11T15:26:02Z</time></trkpt><trkpt lat="39.68116253055035" lon="9.584065508907607"><ele>93.0</ele><time>2026-04-11T15:26:03Z</time></trkpt><trkpt lat="39.68092165249185" lon="9.583787866700822"><ele>93.0</ele><time>2026-04-11T15:26:04Z</time></trkpt><trkpt lat="39.68067656119592" lon="9.583511511504907"><ele>93.0</ele><time>2026-04-11T15:26:05Z</time></trkpt><trkpt lat="39.68043161626875" lon="9.583236353538643"><ele>92.5</ele><time>2026-04-11T15:26:06Z</time></trkpt><trkpt lat="39.680184298341494" lon="9.582962969733824"><ele>92.0</ele><time>2026-04-11T15:26:07Z</time></trkpt><trkpt lat="39.67993524258415" lon="9.582688804369788"><ele>92.0</ele><time>2026-04-11T15:26:08Z</time></trkpt><trkpt lat="39.679684461900806" lon="9.582412817990487"><ele>92.0</ele><time>2026-04-11T15:26:09Z</time></trkpt><trkpt lat="39.67943529199729" lon="9.582136260204964"><ele>92.5</ele><time>2026-04-11T15:26:10Z</time></trkpt><trkpt lat="39.67919022349653" lon="9.581860401902418"><ele>93.0</ele><time>2026-04-11T15:26:11Z</time></trkpt><trkpt lat="39.67894759212134" lon="9.581590402824299"><ele>93.0</ele><time>2026-04-11T15:26:12Z</time></trkpt><trkpt lat="39.67870522709072" lon="9.581320433181297"><ele>93.0</ele><time>2026-04-11T15:26:13Z</time></trkpt><trkpt lat="39.67846263504185" lon="9.581054518163917"><ele>93.0</ele><time>2026-04-11T15:26:14Z</time></trkpt><trkpt lat="39.678222581923706" lon="9.580788543307747"><ele>93.0</ele><time>2026-04-11T15:26:15Z</time></trkpt><trkpt lat="39.67797807549569" lon="9.580521754944375"><ele>93.0</ele><time>2026-04-11T15:26:16Z</time></trkpt><trkpt lat="39.6777323048251" lon="9.580251491688458"><ele>93.0</ele><time>2026-04-11T15:26:17Z</time></trkpt><trkpt lat="39.677486466211576" lon="9.579982169449647"><ele>93.0</ele><time>2026-04-11T15:26:18Z</time></trkpt><trkpt lat="39.67724114842568" lon="9.579712877124066"><ele>93.0</ele><time>2026-04-11T15:26:19Z</time></trkpt><trkpt lat="39.67699750068024" lon="9.579447835070692"><ele>95.0</ele><time>2026-04-11T15:26:20Z</time></trkpt><trkpt lat="39.67674870344574" lon="9.579183636979376"><ele>97.0</ele><time>2026-04-11T15:26:21Z</time></trkpt><trkpt lat="39.67649527808854" lon="9.578914053144535"><ele>97.5</ele><time>2026-04-11T15:26:22Z</time></trkpt><trkpt lat="39.67624044208112" lon="9.578640573144087"><ele>98.0</ele><time>2026-04-11T15:26:23Z</time></trkpt><trkpt lat="39.675980364624394" lon="9.578364180741012"><ele>98.0</ele><time>2026-04-11T15:26:24Z</time></trkpt><trkpt lat="39.67572673429203" lon="9.578076246240865"><ele>98.0</ele><time>2026-04-11T15:26:25Z</time></trkpt><trkpt lat="39.675474495256054" lon="9.57778849868977"><ele>97.5</ele><time>2026-04-11T15:26:26Z</time></trkpt><trkpt lat="39.67523344956686" lon="9.577517594852893"><ele>97.0</ele><time>2026-04-11T15:26:27Z</time></trkpt><trkpt lat="39.67499809367859" lon="9.577257379594256"><ele>99.0</ele><time>2026-04-11T15:26:28Z</time></trkpt><trkpt lat="39.67476034000162" lon="9.577015649778405"><ele>101.0</ele><time>2026-04-11T15:26:29Z</time></trkpt><trkpt lat="39.67451718397803" lon="9.576799055583999"><ele>100.0</ele><time>2026-04-11T15:26:30Z</time></trkpt><trkpt lat="39.674269002594215" lon="9.576603424293086"><ele>99.0</ele><time>2026-04-11T15:26:31Z</time></trkpt><trkpt lat="39.67402172186462" lon="9.576423234528093"><ele>99.0</ele><time>2026-04-11T15:26:32Z</time></trkpt><trkpt lat="39.67377602398624" lon="9.5762580424468"><ele>99.0</ele><time>2026-04-11T15:26:33Z</time></trkpt><trkpt lat="39.67353181024066" lon="9.576102235235123"><ele>104.0</ele><time>2026-04-11T15:26:34Z</time></trkpt><trkpt lat="39.67328876151966" lon="9.575955197255205"><ele>109.0</ele><time>2026-04-11T15:26:35Z</time></trkpt><trkpt lat="39.673046113661115" lon="9.575817150357318"><ele>109.0</ele><time>2026-04-11T15:26:36Z</time></trkpt><trkpt lat="39.67280317002732" lon="9.57569383911416"><ele>109.0</ele><time>2026-04-11T15:26:37Z</time></trkpt><trkpt lat="39.672558539424195" lon="9.57559286100261"><ele>108.5</ele><time>2026-04-11T15:26:38Z</time></trkpt><trkpt lat="39.672309141436585" lon="9.57551310791019"><ele>108.0</ele><time>2026-04-11T15:26:39Z</time></trkpt><trkpt lat="39.67206295813804" lon="9.575448106898039"><ele>108.0</ele><time>2026-04-11T15:26:40Z</time></trkpt><trkpt lat="39.67181722649559" lon="9.575395202678333"><ele>108.0</ele><time>2026-04-11T15:26:41Z</time></trkpt><trkpt lat="39.67156976845651" lon="9.575355519753645"><ele>111.0</ele><time>2026-04-11T15:26:42Z</time></trkpt><trkpt lat="39.6713211548296" lon="9.575333750437386"><ele>114.0</ele><time>2026-04-11T15:26:43Z</time></trkpt><trkpt lat="39.67107601254045" lon="9.575330045522664"><ele>114.0</ele><time>2026-04-11T15:26:44Z</time></trkpt><trkpt lat="39.67083011827031" lon="9.575336674520633"><ele>114.0</ele><time>2026-04-11T15:26:45Z</time></trkpt><trkpt lat="39.670584979043326" lon="9.575356580312931"><ele>112.5</ele><time>2026-04-11T15:26:46Z</time></trkpt><trkpt lat="39.67033882473256" lon="9.575386069153634"><ele>111.0</ele><time>2026-04-11T15:26:47Z</time></trkpt><trkpt lat="39.67009422933309" lon="9.575427586015433"><ele>111.0</ele><time>2026-04-11T15:26:48Z</time></trkpt><trkpt lat="39.66985106923116" lon="9.575484751300158"><ele>111.0</ele><time>2026-04-11T15:26:49Z</time></trkpt><trkpt lat="39.669609122888076" lon="9.575559767537692"><ele>111.0</ele><time>2026-04-11T15:26:50Z</time></trkpt><trkpt lat="39.66936511369575" lon="9.575647969436991"><ele>111.0</ele><time>2026-04-11T15:26:51Z</time></trkpt><trkpt lat="39.66911845285211" lon="9.575741792140924"><ele>111.0</ele><time>2026-04-11T15:26:52Z</time></trkpt><trkpt lat="39.66886999852395" lon="9.575828542012855"><ele>111.0</ele><time>2026-04-11T15:26:53Z</time></trkpt><trkpt lat="39.66861677219467" lon="9.575910269504769"><ele>108.0</ele><time>2026-04-11T15:26:54Z</time></trkpt><trkpt lat="39.6683625201563" lon="9.575991092993807"><ele>105.0</ele><time>2026-04-11T15:26:55Z</time></trkpt><trkpt lat="39.66810630193717" lon="9.57607553018746"><ele>105.0</ele><time>2026-04-11T15:26:56Z</time></trkpt><trkpt lat="39.66784979829258" lon="9.576166309425531"><ele>105.0</ele><time>2026-04-11T15:26:57Z</time></trkpt><trkpt lat="39.66759248011018" lon="9.576259664783056"><ele>101.0</ele><time>2026-04-11T15:26:58Z</time></trkpt><trkpt lat="39.66733447260334" lon="9.576349552573204"><ele>97.0</ele><time>2026-04-11T15:26:59Z</time></trkpt><trkpt lat="39.66707541174177" lon="9.576435365371044"><ele>99.5</ele><time>2026-04-11T15:27:00Z</time></trkpt><trkpt lat="39.66681321322563" lon="9.576518392390309"><ele>102.0</ele><time>2026-04-11T15:27:01Z</time></trkpt><trkpt lat="39.6665475088304" lon="9.576601720270796"><ele>102.0</ele><time>2026-04-11T15:27:02Z</time></trkpt><trkpt lat="39.66627893149178" lon="9.576688071851624"><ele>102.0</ele><time>2026-04-11T15:27:03Z</time></trkpt><trkpt lat="39.666008528823745" lon="9.576781549982215"><ele>100.5</ele><time>2026-04-11T15:27:04Z</time></trkpt><trkpt lat="39.66573524244386" lon="9.576879863273446"><ele>99.0</ele><time>2026-04-11T15:27:05Z</time></trkpt><trkpt lat="39.6654620137831" lon="9.576974878654683"><ele>96.0</ele><time>2026-04-11T15:27:06Z</time></trkpt><trkpt lat="39.66518524160655" lon="9.577065667438669"><ele>93.0</ele><time>2026-04-11T15:27:07Z</time></trkpt><trkpt lat="39.66490732682068" lon="9.577151916670852"><ele>93.0</ele><time>2026-04-11T15:27:08Z</time></trkpt><trkpt lat="39.66462742625176" lon="9.57723119780262"><ele>93.0</ele><time>2026-04-11T15:27:09Z</time></trkpt><trkpt lat="39.66434545469416" lon="9.57729655510715"><ele>92.5</ele><time>2026-04-11T15:27:10Z</time></trkpt><trkpt lat="39.66406098297727" lon="9.577347793350619"><ele>92.0</ele><time>2026-04-11T15:27:11Z</time></trkpt><trkpt lat="39.66377383732942" lon="9.577388795396772"><ele>90.0</ele><time>2026-04-11T15:27:12Z</time></trkpt><trkpt lat="39.66348663722923" lon="9.577420829507345"><ele>88.0</ele><time>2026-04-11T15:27:13Z</time></trkpt><trkpt lat="39.66319737360206" lon="9.577440655158448"><ele>88.0</ele><time>2026-04-11T15:27:14Z</time></trkpt><trkpt lat="39.66290796117348" lon="9.577447502010106"><ele>88.0</ele><time>2026-04-11T15:27:15Z</time></trkpt><trkpt lat="39.662615990432286" lon="9.577441223930625"><ele>87.5</ele><time>2026-04-11T15:27:16Z</time></trkpt><trkpt lat="39.66232298978343" lon="9.577418854676834"><ele>87.0</ele><time>2026-04-11T15:27:17Z</time></trkpt><trkpt lat="39.66203056201123" lon="9.577378500408686"><ele>87.0</ele><time>2026-04-11T15:27:18Z</time></trkpt><trkpt lat="39.661741441533984" lon="9.57731628396586"><ele>87.0</ele><time>2026-04-11T15:27:19Z</time></trkpt><trkpt lat="39.66145324083437" lon="9.577240895364111"><ele>87.0</ele><time>2026-04-11T15:27:20Z</time></trkpt><trkpt lat="39.66116191686357" lon="9.577171490479452"><ele>87.0</ele><time>2026-04-11T15:27:21Z</time></trkpt><trkpt lat="39.66086897809451" lon="9.577119995816766"><ele>87.5</ele><time>2026-04-11T15:27:22Z</time></trkpt><trkpt lat="39.66057349155311" lon="9.577089431682776"><ele>88.0</ele><time>2026-04-11T15:27:23Z</time></trkpt><trkpt lat="39.66027663828919" lon="9.577081712769532"><ele>89.0</ele><time>2026-04-11T15:27:24Z</time></trkpt><trkpt lat="39.65997807720891" lon="9.577103188278759"><ele>90.0</ele><time>2026-04-11T15:27:25Z</time></trkpt><trkpt lat="39.65968055503002" lon="9.57716011555994"><ele>87.5</ele><time>2026-04-11T15:27:26Z</time></trkpt><trkpt lat="39.659386283706596" lon="9.57725416288211"><ele>85.0</ele><time>2026-04-11T15:27:27Z</time></trkpt><trkpt lat="39.65909406071402" lon="9.577372489676472"><ele>85.0</ele><time>2026-04-11T15:27:28Z</time></trkpt><trkpt lat="39.658797459761544" lon="9.577472648309877"><ele>85.0</ele><time>2026-04-11T15:27:29Z</time></trkpt><trkpt lat="39.658499399707765" lon="9.577581851584204"><ele>92.5</ele><time>2026-04-11T15:27:30Z</time></trkpt><trkpt lat="39.658198444597" lon="9.577690925580246"><ele>100.0</ele><time>2026-04-11T15:27:31Z</time></trkpt><trkpt lat="39.65789915481962" lon="9.577798120883807"><ele>93.5</ele><time>2026-04-11T15:27:32Z</time></trkpt><trkpt lat="39.65760181338187" lon="9.577904618367667"><ele>87.0</ele><time>2026-04-11T15:27:33Z</time></trkpt><trkpt lat="39.657309103830556" lon="9.578009466783609"><ele>87.0</ele><time>2026-04-11T15:27:34Z</time></trkpt><trkpt lat="39.65702654947722" lon="9.57813996227187"><ele>87.0</ele><time>2026-04-11T15:27:35Z</time></trkpt><trkpt lat="39.65673458770143" lon="9.57822126259142"><ele>84.5</ele><time>2026-04-11T15:27:36Z</time></trkpt><trkpt lat="39.656441269345" lon="9.578296124863925"><ele>82.0</ele><time>2026-04-11T15:27:37Z</time></trkpt><trkpt lat="39.65614272269282" lon="9.578338476024651"><ele>85.5</ele><time>2026-04-11T15:27:38Z</time></trkpt><trkpt lat="39.655841581100745" lon="9.578376157168528"><ele>89.0</ele><time>2026-04-11T15:27:39Z</time></trkpt><trkpt lat="39.65554020047665" lon="9.578404255354842"><ele>86.5</ele><time>2026-04-11T15:27:40Z</time></trkpt><trkpt lat="39.65523432152206" lon="9.578420623261676"><ele>84.0</ele><time>2026-04-11T15:27:41Z</time></trkpt><trkpt lat="39.65492659574367" lon="9.57842554394683"><ele>84.0</ele><time>2026-04-11T15:27:42Z</time></trkpt><trkpt lat="39.654619143521494" lon="9.578417526513155"><ele>84.0</ele><time>2026-04-11T15:27:43Z</time></trkpt><trkpt lat="39.654311006760075" lon="9.578415818661073"><ele>86.5</ele><time>2026-04-11T15:27:44Z</time></trkpt><trkpt lat="39.65400373156715" lon="9.578362237595067"><ele>89.0</ele><time>2026-04-11T15:27:45Z</time></trkpt><trkpt lat="39.65369753492284" lon="9.578312296801368"><ele>88.0</ele><time>2026-04-11T15:27:46Z</time></trkpt><trkpt lat="39.65338798485186" lon="9.578264326344014"><ele>87.0</ele><time>2026-04-11T15:27:47Z</time></trkpt><trkpt lat="39.65308256490889" lon="9.578238143799208"><ele>85.0</ele><time>2026-04-11T15:27:48Z</time></trkpt><trkpt lat="39.652777435394604" lon="9.578194592730279"><ele>83.0</ele><time>2026-04-11T15:27:49Z</time></trkpt><trkpt lat="39.65247200180819" lon="9.578162811260494"><ele>83.0</ele><time>2026-04-11T15:27:50Z</time></trkpt><trkpt lat="39.652166823771324" lon="9.57814691872335"><ele>83.0</ele><time>2026-04-11T15:27:51Z</time></trkpt><trkpt lat="39.65185940921971" lon="9.5781484268785"><ele>80.0</ele><time>2026-04-11T15:27:52Z</time></trkpt><trkpt lat="39.65155383126404" lon="9.578162329314273"><ele>77.0</ele><time>2026-04-11T15:27:53Z</time></trkpt><trkpt lat="39.6512469673251" lon="9.57818297093491"><ele>73.0</ele><time>2026-04-11T15:27:54Z</time></trkpt><trkpt lat="39.65093997295067" lon="9.578214802521986"><ele>69.0</ele><time>2026-04-11T15:27:55Z</time></trkpt><trkpt lat="39.650633508802365" lon="9.578260787964542"><ele>69.0</ele><time>2026-04-11T15:27:56Z</time></trkpt><trkpt lat="39.65032753489747" lon="9.5783239192939"><ele>69.0</ele><time>2026-04-11T15:27:57Z</time></trkpt><trkpt lat="39.65002504192069" lon="9.578405048268976"><ele>71.5</ele><time>2026-04-11T15:27:58Z</time></trkpt><trkpt lat="39.649724206429944" lon="9.578500693071081"><ele>74.0</ele><time>2026-04-11T15:27:59Z</time></trkpt><trkpt lat="39.64942558680256" lon="9.57861075688253"><ele>77.0</ele><time>2026-04-11T15:28:00Z</time></trkpt><trkpt lat="39.649127995358384" lon="9.578725569153141"><ele>80.0</ele><time>2026-04-11T15:28:01Z</time></trkpt><trkpt lat="39.64883201684102" lon="9.578858745761563"><ele>86.5</ele><time>2026-04-11T15:28:02Z</time></trkpt><trkpt lat="39.64853692740334" lon="9.578998645183429"><ele>93.0</ele><time>2026-04-11T15:28:03Z</time></trkpt><trkpt lat="39.64823365593669" lon="9.579118476518293"><ele>93.0</ele><time>2026-04-11T15:28:04Z</time></trkpt><trkpt lat="39.64794373563992" lon="9.579305007617297"><ele>93.0</ele><time>2026-04-11T15:28:05Z</time></trkpt><trkpt lat="39.64763738638131" lon="9.57945989954423"><ele>90.5</ele><time>2026-04-11T15:28:06Z</time></trkpt><trkpt lat="39.64732620336417" lon="9.57961239323313"><ele>88.0</ele><time>2026-04-11T15:28:07Z</time></trkpt><trkpt lat="39.647011512244184" lon="9.579769795799068"><ele>87.5</ele><time>2026-04-11T15:28:08Z</time></trkpt><trkpt lat="39.64670195672264" lon="9.579923347347275"><ele>87.0</ele><time>2026-04-11T15:28:09Z</time></trkpt><trkpt lat="39.646399644306925" lon="9.580080841285195"><ele>90.0</ele><time>2026-04-11T15:28:10Z</time></trkpt><trkpt lat="39.64610917243546" lon="9.580194877832376"><ele>93.0</ele><time>2026-04-11T15:28:11Z</time></trkpt><trkpt lat="39.64580852129479" lon="9.580302243642993"><ele>85.5</ele><time>2026-04-11T15:28:12Z</time></trkpt><trkpt lat="39.645493608169794" lon="9.580390417613165"><ele>78.0</ele><time>2026-04-11T15:28:13Z</time></trkpt><trkpt lat="39.645176502568944" lon="9.5804493608744"><ele>78.0</ele><time>2026-04-11T15:28:14Z</time></trkpt><trkpt lat="39.64485132778589" lon="9.580481657993"><ele>78.0</ele><time>2026-04-11T15:28:15Z</time></trkpt><trkpt lat="39.64452211240371" lon="9.580487399680555"><ele>81.0</ele><time>2026-04-11T15:28:16Z</time></trkpt><trkpt lat="39.64418811661161" lon="9.58046563093152"><ele>84.0</ele><time>2026-04-11T15:28:17Z</time></trkpt><trkpt lat="39.6438565708757" lon="9.580421006581222"><ele>84.5</ele><time>2026-04-11T15:28:18Z</time></trkpt><trkpt lat="39.64352739695043" lon="9.580356698284529"><ele>85.0</ele><time>2026-04-11T15:28:19Z</time></trkpt><trkpt lat="39.64320359865094" lon="9.580258481252447"><ele>84.5</ele><time>2026-04-11T15:28:20Z</time></trkpt><trkpt lat="39.64288442175624" lon="9.580136832894691"><ele>84.0</ele><time>2026-04-11T15:28:21Z</time></trkpt><trkpt lat="39.642564682998106" lon="9.580003203110552"><ele>84.0</ele><time>2026-04-11T15:28:22Z</time></trkpt><trkpt lat="39.64224564618912" lon="9.57986895253097"><ele>84.0</ele><time>2026-04-11T15:28:23Z</time></trkpt><trkpt lat="39.6419202939277" lon="9.579752148286513"><ele>81.5</ele><time>2026-04-11T15:28:24Z</time></trkpt><trkpt lat="39.64158695139046" lon="9.579670077377356"><ele>79.0</ele><time>2026-04-11T15:28:25Z</time></trkpt><trkpt lat="39.64124702760221" lon="9.579617885835455"><ele>79.5</ele><time>2026-04-11T15:28:26Z</time></trkpt><trkpt lat="39.64090535808256" lon="9.579589720529258"><ele>80.0</ele><time>2026-04-11T15:28:27Z</time></trkpt><trkpt lat="39.64057013985065" lon="9.579596434186504"><ele>76.5</ele><time>2026-04-11T15:28:28Z</time></trkpt><trkpt lat="39.640242748359924" lon="9.579649933264854"><ele>73.0</ele><time>2026-04-11T15:28:29Z</time></trkpt><trkpt lat="39.639921571534515" lon="9.579743191166644"><ele>73.0</ele><time>2026-04-11T15:28:30Z</time></trkpt><trkpt lat="39.63960973192065" lon="9.579867066197929"><ele>73.0</ele><time>2026-04-11T15:28:31Z</time></trkpt><trkpt lat="39.63930717480236" lon="9.580023180038978"><ele>74.5</ele><time>2026-04-11T15:28:32Z</time></trkpt><trkpt lat="39.63900930844229" lon="9.580209755449594"><ele>76.0</ele><time>2026-04-11T15:28:33Z</time></trkpt><trkpt lat="39.63871998696128" lon="9.580423678466463"><ele>78.5</ele><time>2026-04-11T15:28:34Z</time></trkpt><trkpt lat="39.63844449398962" lon="9.58066474117523"><ele>81.0</ele><time>2026-04-11T15:28:35Z</time></trkpt><trkpt lat="39.63818543145106" lon="9.580932177175457"><ele>74.5</ele><time>2026-04-11T15:28:36Z</time></trkpt><trkpt lat="39.637943975860296" lon="9.581222752771689"><ele>68.0</ele><time>2026-04-11T15:28:37Z</time></trkpt><trkpt lat="39.637720574295" lon="9.581521778695846"><ele>68.0</ele><time>2026-04-11T15:28:38Z</time></trkpt><trkpt lat="39.63748530661927" lon="9.581824003736303"><ele>68.0</ele><time>2026-04-11T15:28:39Z</time></trkpt><trkpt lat="39.63723069965266" lon="9.582108969972998"><ele>72.0</ele><time>2026-04-11T15:28:40Z</time></trkpt><trkpt lat="39.63695581435177" lon="9.582370264511184"><ele>76.0</ele><time>2026-04-11T15:28:41Z</time></trkpt><trkpt lat="39.636673808932024" lon="9.582615195565705"><ele>75.5</ele><time>2026-04-11T15:28:42Z</time></trkpt><trkpt lat="39.636386714274614" lon="9.582848395820019"><ele>75.0</ele><time>2026-04-11T15:28:43Z</time></trkpt><trkpt lat="39.636095557241184" lon="9.583064321369513"><ele>75.0</ele><time>2026-04-11T15:28:44Z</time></trkpt><trkpt lat="39.63579751442605" lon="9.583263983329319"><ele>75.0</ele><time>2026-04-11T15:28:45Z</time></trkpt><trkpt lat="39.635495697712386" lon="9.58344453003869"><ele>79.0</ele><time>2026-04-11T15:28:46Z</time></trkpt><trkpt lat="39.635189161808576" lon="9.583610731369951"><ele>83.0</ele><time>2026-04-11T15:28:47Z</time></trkpt><trkpt lat="39.634880262731635" lon="9.583764929874604"><ele>76.0</ele><time>2026-04-11T15:28:48Z</time></trkpt><trkpt lat="39.63456949497928" lon="9.58391042814032"><ele>69.0</ele><time>2026-04-11T15:28:49Z</time></trkpt><trkpt lat="39.634259371255574" lon="9.584054673371238"><ele>69.0</ele><time>2026-04-11T15:28:50Z</time></trkpt><trkpt lat="39.633950629447874" lon="9.584203732018011"><ele>69.0</ele><time>2026-04-11T15:28:51Z</time></trkpt><trkpt lat="39.63364155985659" lon="9.584358828464588"><ele>69.0</ele><time>2026-04-11T15:28:52Z</time></trkpt><trkpt lat="39.63333408680325" lon="9.584508941828066"><ele>69.0</ele><time>2026-04-11T15:28:53Z</time></trkpt><trkpt lat="39.63302241878733" lon="9.584652046140798"><ele>65.5</ele><time>2026-04-11T15:28:54Z</time></trkpt><trkpt lat="39.63271230730075" lon="9.584786506052254"><ele>62.0</ele><time>2026-04-11T15:28:55Z</time></trkpt><trkpt lat="39.63240870410589" lon="9.584909609797245"><ele>62.0</ele><time>2026-04-11T15:28:56Z</time></trkpt><trkpt lat="39.632108902144275" lon="9.585021178934717"><ele>62.0</ele><time>2026-04-11T15:28:57Z</time></trkpt><trkpt lat="39.631815935337" lon="9.585118202791712"><ele>64.0</ele><time>2026-04-11T15:28:58Z</time></trkpt><trkpt lat="39.6315307148624" lon="9.585206797876626"><ele>66.0</ele><time>2026-04-11T15:28:59Z</time></trkpt><trkpt lat="39.631262794828665" lon="9.58529116548828"><ele>66.0</ele><time>2026-04-11T15:29:00Z</time></trkpt><trkpt lat="39.63101783443428" lon="9.585385031895642"><ele>66.0</ele><time>2026-04-11T15:29:01Z</time></trkpt><trkpt lat="39.63079236368816" lon="9.585494668454485"><ele>66.0</ele><time>2026-04-11T15:29:02Z</time></trkpt><trkpt lat="39.63059343333472" lon="9.585629057701864"><ele>66.0</ele><time>2026-04-11T15:29:03Z</time></trkpt><trkpt lat="39.6304148699014" lon="9.585809930839837"><ele>66.0</ele><time>2026-04-11T15:29:04Z</time></trkpt><trkpt lat="39.63027405354855" lon="9.585991572871317"><ele>66.0</ele><time>2026-04-11T15:29:05Z</time></trkpt><trkpt lat="39.63016600388244" lon="9.586163664696711"><ele>66.0</ele><time>2026-04-11T15:29:06Z</time></trkpt><trkpt lat="39.63006100198984" lon="9.586304747841"><ele>64.25</ele><time>2026-04-11T15:29:07Z</time></trkpt><trkpt lat="39.62995040218959" lon="9.586389455953308"><ele>62.5</ele><time>2026-04-11T15:29:08Z</time></trkpt><trkpt lat="39.62983048141864" lon="9.586417502378994"><ele>60.75</ele><time>2026-04-11T15:29:09Z</time></trkpt><trkpt lat="39.62973360252965" lon="9.586482637466085"><ele>59.0</ele><time>2026-04-11T15:29:10Z</time></trkpt><trkpt lat="39.62967534263064" lon="9.586607821545346"><ele>59.0</ele><time>2026-04-11T15:29:11Z</time></trkpt><trkpt lat="39.629659053693715" lon="9.586758894212581"><ele>59.0</ele><time>2026-04-11T15:29:12Z</time></trkpt><trkpt lat="39.62963222202538" lon="9.586910780978814"><ele>59.0</ele><time>2026-04-11T15:29:13Z</time></trkpt><trkpt lat="39.629533572535486" lon="9.587027420142222"><ele>59.0</ele><time>2026-04-11T15:29:14Z</time></trkpt><trkpt lat="39.62938769185565" lon="9.587107875331078"><ele>57.333333333333336</ele><time>2026-04-11T15:29:15Z</time></trkpt><trkpt lat="39.62921114943009" lon="9.587193180828214"><ele>55.66666666666667</ele><time>2026-04-11T15:29:16Z</time></trkpt><trkpt lat="39.62901189095355" lon="9.587288852170582"><ele>54.0</ele><time>2026-04-11T15:29:17Z</time></trkpt><trkpt lat="39.628787749647735" lon="9.587387351758773"><ele>54.0</ele><time>2026-04-11T15:29:18Z</time></trkpt><trkpt lat="39.628543061547646" lon="9.587493990823951"><ele>54.0</ele><time>2026-04-11T15:29:19Z</time></trkpt><trkpt lat="39.628302804863964" lon="9.58759809998892"><ele>54.0</ele><time>2026-04-11T15:29:20Z</time></trkpt><trkpt lat="39.628054124007164" lon="9.587703645704055"><ele>54.0</ele><time>2026-04-11T15:29:21Z</time></trkpt><trkpt lat="39.62779750699632" lon="9.587815963553906"><ele>53.0</ele><time>2026-04-11T15:29:22Z</time></trkpt><trkpt lat="39.627535828048316" lon="9.587934050361858"><ele>52.0</ele><time>2026-04-11T15:29:23Z</time></trkpt><trkpt lat="39.6272720524314" lon="9.588049228617121"><ele>52.0</ele><time>2026-04-11T15:29:24Z</time></trkpt><trkpt lat="39.62700491362692" lon="9.588163321468206"><ele>52.0</ele><time>2026-04-11T15:29:25Z</time></trkpt><trkpt lat="39.626732698717035" lon="9.588278766568116"><ele>51.5</ele><time>2026-04-11T15:29:26Z</time></trkpt><trkpt lat="39.62645148400363" lon="9.588397381989404"><ele>51.0</ele><time>2026-04-11T15:29:27Z</time></trkpt><trkpt lat="39.62618777845928" lon="9.588511387333458"><ele>51.5</ele><time>2026-04-11T15:29:28Z</time></trkpt><trkpt lat="39.625909300657376" lon="9.588633096008278"><ele>52.0</ele><time>2026-04-11T15:29:29Z</time></trkpt><trkpt lat="39.62563602157659" lon="9.588754969841277"><ele>51.0</ele><time>2026-04-11T15:29:30Z</time></trkpt><trkpt lat="39.62536829989743" lon="9.588867201880575"><ele>50.0</ele><time>2026-04-11T15:29:31Z</time></trkpt><trkpt lat="39.625110437210125" lon="9.588981052248005"><ele>49.5</ele><time>2026-04-11T15:29:32Z</time></trkpt><trkpt lat="39.62485801036336" lon="9.589091857836259"><ele>49.0</ele><time>2026-04-11T15:29:33Z</time></trkpt><trkpt lat="39.62461133726255" lon="9.589197098964119"><ele>51.0</ele><time>2026-04-11T15:29:34Z</time></trkpt><trkpt lat="39.62437872399961" lon="9.589304339738417"><ele>53.0</ele><time>2026-04-11T15:29:35Z</time></trkpt><trkpt lat="39.62415048577922" lon="9.589439388652218"><ele>51.5</ele><time>2026-04-11T15:29:36Z</time></trkpt><trkpt lat="39.623929919941666" lon="9.589603449548237"><ele>50.0</ele><time>2026-04-11T15:29:37Z</time></trkpt><trkpt lat="39.62371179760449" lon="9.589797277984106"><ele>51.0</ele><time>2026-04-11T15:29:38Z</time></trkpt><trkpt lat="39.6235004030723" lon="9.589988963416914"><ele>52.0</ele><time>2026-04-11T15:29:39Z</time></trkpt><trkpt lat="39.623296331024356" lon="9.59015568475891"><ele>52.0</ele><time>2026-04-11T15:29:40Z</time></trkpt><trkpt lat="39.62307552499268" lon="9.590268396899875"><ele>52.0</ele><time>2026-04-11T15:29:41Z</time></trkpt><trkpt lat="39.62284687340791" lon="9.59035558855314"><ele>51.0</ele><time>2026-04-11T15:29:42Z</time></trkpt><trkpt lat="39.62261522469862" lon="9.590443924613433"><ele>50.0</ele><time>2026-04-11T15:29:43Z</time></trkpt><trkpt lat="39.62238658530253" lon="9.590531633995834"><ele>50.0</ele><time>2026-04-11T15:29:44Z</time></trkpt><trkpt lat="39.62218253275745" lon="9.59059879624355"><ele>50.0</ele><time>2026-04-11T15:29:45Z</time></trkpt><trkpt lat="39.6220062237401" lon="9.590617545944367"><ele>50.0</ele><time>2026-04-11T15:29:46Z</time></trkpt><trkpt lat="39.6218328804128" lon="9.590572324106718"><ele>49.66666666666667</ele><time>2026-04-11T15:29:47Z</time></trkpt><trkpt lat="39.62164992123827" lon="9.590470875443625"><ele>49.33333333333333</ele><time>2026-04-11T15:29:48Z</time></trkpt><trkpt lat="39.62145713179975" lon="9.590352060446873"><ele>49.0</ele><time>2026-04-11T15:29:49Z</time></trkpt><trkpt lat="39.62123819030161" lon="9.5902068635506"><ele>49.5</ele><time>2026-04-11T15:29:50Z</time></trkpt><trkpt lat="39.621025725116134" lon="9.590079325127764"><ele>50.0</ele><time>2026-04-11T15:29:51Z</time></trkpt><trkpt lat="39.620803421258465" lon="9.58997920183625"><ele>50.0</ele><time>2026-04-11T15:29:52Z</time></trkpt><trkpt lat="39.62056059969053" lon="9.589937545247617"><ele>50.0</ele><time>2026-04-11T15:29:53Z</time></trkpt><trkpt lat="39.62030229087498" lon="9.589943067662274"><ele>52.5</ele><time>2026-04-11T15:29:54Z</time></trkpt><trkpt lat="39.620035801309946" lon="9.589986231051679"><ele>55.0</ele><time>2026-04-11T15:29:55Z</time></trkpt><trkpt lat="39.61977623844947" lon="9.590054327140907"><ele>55.0</ele><time>2026-04-11T15:29:56Z</time></trkpt><trkpt lat="39.61953684775678" lon="9.590147074623681"><ele>55.0</ele><time>2026-04-11T15:29:57Z</time></trkpt><trkpt lat="39.61930894764029" lon="9.590205595716053"><ele>54.33333333333333</ele><time>2026-04-11T15:29:58Z</time></trkpt><trkpt lat="39.619090360956335" lon="9.590229028625142"><ele>53.66666666666667</ele><time>2026-04-11T15:29:59Z</time></trkpt><trkpt lat="39.618861009925055" lon="9.590208652609896"><ele>53.0</ele><time>2026-04-11T15:30:00Z</time></trkpt><trkpt lat="39.61862323727157" lon="9.590137966751298"><ele>53.0</ele><time>2026-04-11T15:30:01Z</time></trkpt><trkpt lat="39.61838670762431" lon="9.590063729691183"><ele>53.0</ele><time>2026-04-11T15:30:02Z</time></trkpt><trkpt lat="39.61815375388345" lon="9.590032219990714"><ele>53.0</ele><time>2026-04-11T15:30:03Z</time></trkpt><trkpt lat="39.617909919130085" lon="9.59005447455355"><ele>53.0</ele><time>2026-04-11T15:30:04Z</time></trkpt><trkpt lat="39.6176512114987" lon="9.590120296444404"><ele>55.5</ele><time>2026-04-11T15:30:05Z</time></trkpt><trkpt lat="39.617385434548765" lon="9.590180946778986"><ele>58.0</ele><time>2026-04-11T15:30:06Z</time></trkpt><trkpt lat="39.61712258704618" lon="9.590226363694457"><ele>56.5</ele><time>2026-04-11T15:30:07Z</time></trkpt><trkpt lat="39.616857619173906" lon="9.590284522284104"><ele>55.0</ele><time>2026-04-11T15:30:08Z</time></trkpt><trkpt lat="39.61658893858758" lon="9.59037336783137"><ele>50.0</ele><time>2026-04-11T15:30:09Z</time></trkpt><trkpt lat="39.616337468375846" lon="9.590484474595263"><ele>45.0</ele><time>2026-04-11T15:30:10Z</time></trkpt><trkpt lat="39.61610743510602" lon="9.590587014297201"><ele>45.0</ele><time>2026-04-11T15:30:11Z</time></trkpt><trkpt lat="39.61587650864856" lon="9.59064073614095"><ele>45.0</ele><time>2026-04-11T15:30:12Z</time></trkpt><trkpt lat="39.61565418137726" lon="9.590678886446588"><ele>45.0</ele><time>2026-04-11T15:30:13Z</time></trkpt><trkpt lat="39.61543202824107" lon="9.590714241976414"><ele>45.0</ele><time>2026-04-11T15:30:14Z</time></trkpt><trkpt lat="39.61520712915879" lon="9.590644048791255"><ele>44.5</ele><time>2026-04-11T15:30:15Z</time></trkpt><trkpt lat="39.61497001065393" lon="9.5905564784465"><ele>44.0</ele><time>2026-04-11T15:30:16Z</time></trkpt><trkpt lat="39.61471857632824" lon="9.590473083398214"><ele>43.5</ele><time>2026-04-11T15:30:17Z</time></trkpt><trkpt lat="39.61445769955443" lon="9.590370471241451"><ele>43.0</ele><time>2026-04-11T15:30:18Z</time></trkpt><trkpt lat="39.61418207639717" lon="9.590281997384555"><ele>45.5</ele><time>2026-04-11T15:30:19Z</time></trkpt><trkpt lat="39.61389712356257" lon="9.59019686361169"><ele>48.0</ele><time>2026-04-11T15:30:20Z</time></trkpt><trkpt lat="39.61361231130799" lon="9.590084200999815"><ele>48.0</ele><time>2026-04-11T15:30:21Z</time></trkpt><trkpt lat="39.61331769821053" lon="9.59002724733209"><ele>48.0</ele><time>2026-04-11T15:30:22Z</time></trkpt><trkpt lat="39.61303295408946" lon="9.589946060189854"><ele>46.0</ele><time>2026-04-11T15:30:23Z</time></trkpt><trkpt lat="39.61275522059181" lon="9.589865723848304"><ele>44.0</ele><time>2026-04-11T15:30:24Z</time></trkpt><trkpt lat="39.6124890169296" lon="9.589785666452928"><ele>44.0</ele><time>2026-04-11T15:30:25Z</time></trkpt><trkpt lat="39.61223326633256" lon="9.589704630694152"><ele>44.0</ele><time>2026-04-11T15:30:26Z</time></trkpt><trkpt lat="39.611981301761226" lon="9.589629488760378"><ele>43.0</ele><time>2026-04-11T15:30:27Z</time></trkpt><trkpt lat="39.611733218037756" lon="9.589575742999353"><ele>42.0</ele><time>2026-04-11T15:30:28Z</time></trkpt><trkpt lat="39.61148081635952" lon="9.589561364814399"><ele>42.0</ele><time>2026-04-11T15:30:29Z</time></trkpt><trkpt lat="39.61121232887623" lon="9.589598157932718"><ele>42.0</ele><time>2026-04-11T15:30:30Z</time></trkpt><trkpt lat="39.610932558054245" lon="9.589682744717024"><ele>43.0</ele><time>2026-04-11T15:30:31Z</time></trkpt><trkpt lat="39.61065678379657" lon="9.589790848559138"><ele>44.0</ele><time>2026-04-11T15:30:32Z</time></trkpt><trkpt lat="39.61038699016336" lon="9.589876101869121"><ele>44.0</ele><time>2026-04-11T15:30:33Z</time></trkpt><trkpt lat="39.61011462630521" lon="9.589907955836686"><ele>44.0</ele><time>2026-04-11T15:30:34Z</time></trkpt><trkpt lat="39.60982600252779" lon="9.58990713084987"><ele>44.0</ele><time>2026-04-11T15:30:35Z</time></trkpt><trkpt lat="39.609540351577344" lon="9.58988804845582"><ele>44.0</ele><time>2026-04-11T15:30:36Z</time></trkpt><trkpt lat="39.60926490296801" lon="9.58988136388395"><ele>42.5</ele><time>2026-04-11T15:30:37Z</time></trkpt><trkpt lat="39.60898707447778" lon="9.589909165011315"><ele>41.0</ele><time>2026-04-11T15:30:38Z</time></trkpt><trkpt lat="39.608698276314065" lon="9.589975858252846"><ele>41.5</ele><time>2026-04-11T15:30:39Z</time></trkpt><trkpt lat="39.60840060036847" lon="9.59006750723177"><ele>42.0</ele><time>2026-04-11T15:30:40Z</time></trkpt><trkpt lat="39.60810418129858" lon="9.590165652593004"><ele>44.0</ele><time>2026-04-11T15:30:41Z</time></trkpt><trkpt lat="39.60781989478246" lon="9.590253881138835"><ele>46.0</ele><time>2026-04-11T15:30:42Z</time></trkpt><trkpt lat="39.60755677028546" lon="9.590322819231224"><ele>42.0</ele><time>2026-04-11T15:30:43Z</time></trkpt><trkpt lat="39.607309826955586" lon="9.59037642817711"><ele>38.0</ele><time>2026-04-11T15:30:44Z</time></trkpt><trkpt lat="39.607074755915676" lon="9.590409447501642"><ele>38.0</ele><time>2026-04-11T15:30:45Z</time></trkpt><trkpt lat="39.60684583347412" lon="9.590400351375624"><ele>38.0</ele><time>2026-04-11T15:30:46Z</time></trkpt><trkpt lat="39.60661224521739" lon="9.59032594253353"><ele>40.5</ele><time>2026-04-11T15:30:47Z</time></trkpt><trkpt lat="39.60636943991488" lon="9.590206755364377"><ele>43.0</ele><time>2026-04-11T15:30:48Z</time></trkpt><trkpt lat="39.606121784958155" lon="9.590065140341506"><ele>43.0</ele><time>2026-04-11T15:30:49Z</time></trkpt><trkpt lat="39.60586351601242" lon="9.58991212679187"><ele>43.0</ele><time>2026-04-11T15:30:50Z</time></trkpt><trkpt lat="39.60559746371551" lon="9.58975405079719"><ele>44.5</ele><time>2026-04-11T15:30:51Z</time></trkpt><trkpt lat="39.605323003655755" lon="9.589593734473391"><ele>46.0</ele><time>2026-04-11T15:30:52Z</time></trkpt><trkpt lat="39.60504210192199" lon="9.589435311148584"><ele>46.0</ele><time>2026-04-11T15:30:53Z</time></trkpt><trkpt lat="39.604769432715614" lon="9.589274180434256"><ele>46.0</ele><time>2026-04-11T15:30:54Z</time></trkpt><trkpt lat="39.60451574981746" lon="9.589116439628606"><ele>41.5</ele><time>2026-04-11T15:30:55Z</time></trkpt><trkpt lat="39.6042816261808" lon="9.588970358177725"><ele>37.0</ele><time>2026-04-11T15:30:56Z</time></trkpt><trkpt lat="39.6040597949876" lon="9.588835024242584"><ele>37.0</ele><time>2026-04-11T15:30:57Z</time></trkpt><trkpt lat="39.603843921942115" lon="9.58870534561399"><ele>37.0</ele><time>2026-04-11T15:30:58Z</time></trkpt><trkpt lat="39.60363121181599" lon="9.588581594708453"><ele>38.5</ele><time>2026-04-11T15:30:59Z</time></trkpt><trkpt lat="39.603410704255325" lon="9.588484854048831"><ele>40.0</ele><time>2026-04-11T15:31:00Z</time></trkpt><trkpt lat="39.603175236905834" lon="9.588445652664497"><ele>40.0</ele><time>2026-04-11T15:31:01Z</time></trkpt><trkpt lat="39.60291371855012" lon="9.58846129608561"><ele>40.0</ele><time>2026-04-11T15:31:02Z</time></trkpt><trkpt lat="39.6026349525074" lon="9.588500623769766"><ele>39.0</ele><time>2026-04-11T15:31:03Z</time></trkpt><trkpt lat="39.60234502780377" lon="9.588538808921886"><ele>38.0</ele><time>2026-04-11T15:31:04Z</time></trkpt><trkpt lat="39.602045365070595" lon="9.588569730988105"><ele>38.5</ele><time>2026-04-11T15:31:05Z</time></trkpt><trkpt lat="39.60173391680502" lon="9.58859594155591"><ele>39.0</ele><time>2026-04-11T15:31:06Z</time></trkpt><trkpt lat="39.60141611741918" lon="9.588623941331083"><ele>38.5</ele><time>2026-04-11T15:31:07Z</time></trkpt><trkpt lat="39.601087603728345" lon="9.5886533768138"><ele>38.0</ele><time>2026-04-11T15:31:08Z</time></trkpt><trkpt lat="39.600753259072576" lon="9.588684438954708"><ele>37.5</ele><time>2026-04-11T15:31:09Z</time></trkpt><trkpt lat="39.60041210749106" lon="9.58871492121447"><ele>37.0</ele><time>2026-04-11T15:31:10Z</time></trkpt><trkpt lat="39.600064869568385" lon="9.58874262432858"><ele>37.0</ele><time>2026-04-11T15:31:11Z</time></trkpt><trkpt lat="39.599729712740725" lon="9.588770134548355"><ele>37.0</ele><time>2026-04-11T15:31:12Z</time></trkpt><trkpt lat="39.59941185736721" lon="9.588801121350114"><ele>36.5</ele><time>2026-04-11T15:31:13Z</time></trkpt><trkpt lat="39.599108294567316" lon="9.588832653992716"><ele>36.0</ele><time>2026-04-11T15:31:14Z</time></trkpt><trkpt lat="39.59882117398092" lon="9.588857742603453"><ele>36.0</ele><time>2026-04-11T15:31:15Z</time></trkpt><trkpt lat="39.59855816543669" lon="9.588877111271877"><ele>36.0</ele><time>2026-04-11T15:31:16Z</time></trkpt><trkpt lat="39.598315257339564" lon="9.58889341251105"><ele>36.0</ele><time>2026-04-11T15:31:17Z</time></trkpt><trkpt lat="39.59808971210256" lon="9.588914539706824"><ele>36.0</ele><time>2026-04-11T15:31:18Z</time></trkpt><trkpt lat="39.59789676509242" lon="9.588953877429656"><ele>36.0</ele><time>2026-04-11T15:31:19Z</time></trkpt><trkpt lat="39.59772371212033" lon="9.58904419822336"><ele>36.0</ele><time>2026-04-11T15:31:20Z</time></trkpt><trkpt lat="39.59756229519959" lon="9.589209638416623"><ele>36.0</ele><time>2026-04-11T15:31:21Z</time></trkpt><trkpt lat="39.59740733917075" lon="9.589421736471078"><ele>36.0</ele><time>2026-04-11T15:31:22Z</time></trkpt><trkpt lat="39.59725611582239" lon="9.589651125255678"><ele>36.0</ele><time>2026-04-11T15:31:23Z</time></trkpt><trkpt lat="39.597122586532954" lon="9.589891877837278"><ele>36.0</ele><time>2026-04-11T15:31:24Z</time></trkpt><trkpt lat="39.597038349776895" lon="9.59014990311591"><ele>36.0</ele><time>2026-04-11T15:31:25Z</time></trkpt><trkpt lat="39.59698615738143" lon="9.590418641965615"><ele>36.333333333333336</ele><time>2026-04-11T15:31:26Z</time></trkpt><trkpt lat="39.596941768974396" lon="9.59065126161453"><ele>36.66666666666667</ele><time>2026-04-11T15:31:27Z</time></trkpt><trkpt lat="39.59686597118235" lon="9.59082657897421"><ele>37.0</ele><time>2026-04-11T15:31:28Z</time></trkpt><trkpt lat="39.596772969793015" lon="9.590948766571339"><ele>37.0</ele><time>2026-04-11T15:31:29Z</time></trkpt><trkpt lat="39.59663119689855" lon="9.59102737914301"><ele>37.0</ele><time>2026-04-11T15:31:30Z</time></trkpt><trkpt lat="39.59644849104237" lon="9.591143632655045"><ele>37.0</ele><time>2026-04-11T15:31:31Z</time></trkpt><trkpt lat="39.59627258250668" lon="9.591276617554138"><ele>37.333333333333336</ele><time>2026-04-11T15:31:32Z</time></trkpt><trkpt lat="39.59609845609106" lon="9.591340225526725"><ele>37.666666666666664</ele><time>2026-04-11T15:31:33Z</time></trkpt><trkpt lat="39.595957112865726" lon="9.591331262734137"><ele>38.0</ele><time>2026-04-11T15:31:34Z</time></trkpt><trkpt lat="39.5958236262129" lon="9.59125981825826"><ele>38.0</ele><time>2026-04-11T15:31:35Z</time></trkpt><trkpt lat="39.595636583060404" lon="9.591179539193059"><ele>38.0</ele><time>2026-04-11T15:31:36Z</time></trkpt><trkpt lat="39.5954402675117" lon="9.591049393406593"><ele>38.0</ele><time>2026-04-11T15:31:37Z</time></trkpt><trkpt lat="39.595227719927145" lon="9.590935045513566"><ele>38.0</ele><time>2026-04-11T15:31:38Z</time></trkpt><trkpt lat="39.594999351209935" lon="9.590810578429515"><ele>38.0</ele><time>2026-04-11T15:31:39Z</time></trkpt><trkpt lat="39.59475503991398" lon="9.59066939653449"><ele>38.0</ele><time>2026-04-11T15:31:40Z</time></trkpt><trkpt lat="39.59451499696824" lon="9.590529402534441"><ele>38.0</ele><time>2026-04-11T15:31:41Z</time></trkpt><trkpt lat="39.594279587931155" lon="9.590390974555655"><ele>39.0</ele><time>2026-04-11T15:31:42Z</time></trkpt><trkpt lat="39.59403194184605" lon="9.59024190045436"><ele>40.0</ele><time>2026-04-11T15:31:43Z</time></trkpt><trkpt lat="39.59377516748737" lon="9.590088378611869"><ele>37.5</ele><time>2026-04-11T15:31:44Z</time></trkpt><trkpt lat="39.59351135600429" lon="9.589935099393363"><ele>35.0</ele><time>2026-04-11T15:31:45Z</time></trkpt><trkpt lat="39.59323690994623" lon="9.589778408532451"><ele>35.0</ele><time>2026-04-11T15:31:46Z</time></trkpt><trkpt lat="39.592956142072474" lon="9.589618740284038"><ele>35.0</ele><time>2026-04-11T15:31:47Z</time></trkpt><trkpt lat="39.59266767208977" lon="9.589454344349349"><ele>35.5</ele><time>2026-04-11T15:31:48Z</time></trkpt><trkpt lat="39.59238694462649" lon="9.589268954669844"><ele>36.0</ele><time>2026-04-11T15:31:49Z</time></trkpt><trkpt lat="39.592087892183606" lon="9.58911683453742"><ele>34.0</ele><time>2026-04-11T15:31:50Z</time></trkpt><trkpt lat="39.591798477861076" lon="9.588945557096272"><ele>32.0</ele><time>2026-04-11T15:31:51Z</time></trkpt><trkpt lat="39.59150797614544" lon="9.58877535277567"><ele>32.5</ele><time>2026-04-11T15:31:52Z</time></trkpt><trkpt lat="39.59121865928358" lon="9.588606715909465"><ele>33.0</ele><time>2026-04-11T15:31:53Z</time></trkpt><trkpt lat="39.590937676886206" lon="9.588441867079872"><ele>33.0</ele><time>2026-04-11T15:31:54Z</time></trkpt><trkpt lat="39.590657181567614" lon="9.588274669550616"><ele>33.0</ele><time>2026-04-11T15:31:55Z</time></trkpt><trkpt lat="39.590369466678894" lon="9.58810518709173"><ele>33.5</ele><time>2026-04-11T15:31:56Z</time></trkpt><trkpt lat="39.59009086106969" lon="9.587941817588247"><ele>34.0</ele><time>2026-04-11T15:31:57Z</time></trkpt><trkpt lat="39.589826199787886" lon="9.587787164608576"><ele>34.0</ele><time>2026-04-11T15:31:58Z</time></trkpt><trkpt lat="39.58957336656307" lon="9.587639332705235"><ele>34.0</ele><time>2026-04-11T15:31:59Z</time></trkpt><trkpt lat="39.58934144022033" lon="9.587503929944852"><ele>32.0</ele><time>2026-04-11T15:32:00Z</time></trkpt><trkpt lat="39.58911447861515" lon="9.587389265628927"><ele>30.0</ele><time>2026-04-11T15:32:01Z</time></trkpt><trkpt lat="39.58887569432268" lon="9.587298423505242"><ele>30.0</ele><time>2026-04-11T15:32:02Z</time></trkpt><trkpt lat="39.58862496477047" lon="9.587243515531375"><ele>30.0</ele><time>2026-04-11T15:32:03Z</time></trkpt><trkpt lat="39.58836142977395" lon="9.587223726228409"><ele>30.0</ele><time>2026-04-11T15:32:04Z</time></trkpt><trkpt lat="39.588097101365676" lon="9.58722303851734"><ele>30.0</ele><time>2026-04-11T15:32:05Z</time></trkpt><trkpt lat="39.58784039246138" lon="9.587237719030611"><ele>33.0</ele><time>2026-04-11T15:32:06Z</time></trkpt><trkpt lat="39.58758377278529" lon="9.587288839566359"><ele>36.0</ele><time>2026-04-11T15:32:07Z</time></trkpt><trkpt lat="39.58732096849195" lon="9.587385128726702"><ele>36.0</ele><time>2026-04-11T15:32:08Z</time></trkpt><trkpt lat="39.58706781786198" lon="9.587517944905711"><ele>36.0</ele><time>2026-04-11T15:32:09Z</time></trkpt><trkpt lat="39.586827540012635" lon="9.587697338255238"><ele>33.0</ele><time>2026-04-11T15:32:10Z</time></trkpt><trkpt lat="39.58659184044212" lon="9.58792398555588"><ele>30.0</ele><time>2026-04-11T15:32:11Z</time></trkpt><trkpt lat="39.58637347251651" lon="9.588180835173223"><ele>30.5</ele><time>2026-04-11T15:32:12Z</time></trkpt><trkpt lat="39.58616654945176" lon="9.588451323395265"><ele>31.0</ele><time>2026-04-11T15:32:13Z</time></trkpt><trkpt lat="39.58595176009663" lon="9.588729346604916"><ele>31.0</ele><time>2026-04-11T15:32:14Z</time></trkpt><trkpt lat="39.58573365375397" lon="9.588999138867694"><ele>31.0</ele><time>2026-04-11T15:32:15Z</time></trkpt><trkpt lat="39.5855102661662" lon="9.589262243042368"><ele>31.5</ele><time>2026-04-11T15:32:16Z</time></trkpt><trkpt lat="39.58529067439251" lon="9.589513733389607"><ele>32.0</ele><time>2026-04-11T15:32:17Z</time></trkpt><trkpt lat="39.58507761970715" lon="9.589756149017472"><ele>32.0</ele><time>2026-04-11T15:32:18Z</time></trkpt><trkpt lat="39.58487163130178" lon="9.589981906979805"><ele>32.0</ele><time>2026-04-11T15:32:19Z</time></trkpt><trkpt lat="39.58466074930881" lon="9.590178097721115"><ele>29.5</ele><time>2026-04-11T15:32:20Z</time></trkpt><trkpt lat="39.58444045213421" lon="9.590338521426789"><ele>27.0</ele><time>2026-04-11T15:32:21Z</time></trkpt><trkpt lat="39.58420399688581" lon="9.5904747199807"><ele>27.0</ele><time>2026-04-11T15:32:22Z</time></trkpt><trkpt lat="39.58395517357541" lon="9.590584059060784"><ele>27.0</ele><time>2026-04-11T15:32:23Z</time></trkpt><trkpt lat="39.58369739385107" lon="9.590661173118116"><ele>27.0</ele><time>2026-04-11T15:32:24Z</time></trkpt><trkpt lat="39.58342367351987" lon="9.590701879311444"><ele>27.0</ele><time>2026-04-11T15:32:25Z</time></trkpt><trkpt lat="39.583143787004815" lon="9.5907231128932"><ele>27.0</ele><time>2026-04-11T15:32:26Z</time></trkpt><trkpt lat="39.58285642342324" lon="9.590742534362615"><ele>27.0</ele><time>2026-04-11T15:32:27Z</time></trkpt><trkpt lat="39.582564345758605" lon="9.590772698676505"><ele>27.0</ele><time>2026-04-11T15:32:28Z</time></trkpt><trkpt lat="39.5822648275451" lon="9.59080751689786"><ele>27.0</ele><time>2026-04-11T15:32:29Z</time></trkpt><trkpt lat="39.58196453715539" lon="9.59083835272655"><ele>27.0</ele><time>2026-04-11T15:32:30Z</time></trkpt><trkpt lat="39.581667132754696" lon="9.590853592339094"><ele>27.0</ele><time>2026-04-11T15:32:31Z</time></trkpt><trkpt lat="39.58137138265378" lon="9.590808576724548"><ele>27.0</ele><time>2026-04-11T15:32:32Z</time></trkpt><trkpt lat="39.5810693467528" lon="9.590771899894655"><ele>27.0</ele><time>2026-04-11T15:32:33Z</time></trkpt><trkpt lat="39.58076890694678" lon="9.590732884802975"><ele>27.0</ele><time>2026-04-11T15:32:34Z</time></trkpt><trkpt lat="39.58046475193765" lon="9.59071146920422"><ele>27.0</ele><time>2026-04-11T15:32:35Z</time></trkpt><trkpt lat="39.580166809716076" lon="9.590673259451654"><ele>27.0</ele><time>2026-04-11T15:32:36Z</time></trkpt><trkpt lat="39.57987178357921" lon="9.590635651383126"><ele>27.0</ele><time>2026-04-11T15:32:37Z</time></trkpt><trkpt lat="39.57957463317281" lon="9.590596002956186"><ele>25.5</ele><time>2026-04-11T15:32:38Z</time></trkpt><trkpt lat="39.57927236116069" lon="9.590556844834785"><ele>24.0</ele><time>2026-04-11T15:32:39Z</time></trkpt><trkpt lat="39.57896251613672" lon="9.590519546119477"><ele>24.0</ele><time>2026-04-11T15:32:40Z</time></trkpt><trkpt lat="39.57865017388224" lon="9.590482237743812"><ele>24.0</ele><time>2026-04-11T15:32:41Z</time></trkpt><trkpt lat="39.57833446509663" lon="9.590441237224114"><ele>24.0</ele><time>2026-04-11T15:32:42Z</time></trkpt><trkpt lat="39.5780224275147" lon="9.590399455740382"><ele>24.0</ele><time>2026-04-11T15:32:43Z</time></trkpt><trkpt lat="39.577724795382544" lon="9.590361651001613"><ele>24.5</ele><time>2026-04-11T15:32:44Z</time></trkpt><trkpt lat="39.57742949752397" lon="9.590318763238137"><ele>25.0</ele><time>2026-04-11T15:32:45Z</time></trkpt><trkpt lat="39.57714724208155" lon="9.590283966033985"><ele>25.0</ele><time>2026-04-11T15:32:46Z</time></trkpt><trkpt lat="39.57688741372941" lon="9.590252423970519"><ele>25.0</ele><time>2026-04-11T15:32:47Z</time></trkpt><trkpt lat="39.57664688316004" lon="9.59020536043517"><ele>25.0</ele><time>2026-04-11T15:32:48Z</time></trkpt><trkpt lat="39.57642891372866" lon="9.590123259962075"><ele>25.0</ele><time>2026-04-11T15:32:49Z</time></trkpt><trkpt lat="39.57623743785066" lon="9.589993192454386"><ele>25.0</ele><time>2026-04-11T15:32:50Z</time></trkpt><trkpt lat="39.57607618388825" lon="9.589818882558438"><ele>24.5</ele><time>2026-04-11T15:32:51Z</time></trkpt><trkpt lat="39.575919512109344" lon="9.589604970161112"><ele>24.0</ele><time>2026-04-11T15:32:52Z</time></trkpt><trkpt lat="39.57576085334467" lon="9.589398602638301"><ele>23.666666666666668</ele><time>2026-04-11T15:32:53Z</time></trkpt><trkpt lat="39.57561023808585" lon="9.589224395691092"><ele>23.333333333333336</ele><time>2026-04-11T15:32:54Z</time></trkpt><trkpt lat="39.57546728907721" lon="9.589063488264626"><ele>23.0</ele><time>2026-04-11T15:32:55Z</time></trkpt><trkpt lat="39.57533538988294" lon="9.588909406288638"><ele>23.666666666666668</ele><time>2026-04-11T15:32:56Z</time></trkpt><trkpt lat="39.57521130666539" lon="9.588771132180154"><ele>24.333333333333336</ele><time>2026-04-11T15:32:57Z</time></trkpt><trkpt lat="39.575094026891676" lon="9.588632638974259"><ele>25.0</ele><time>2026-04-11T15:32:58Z</time></trkpt><trkpt lat="39.574978887754504" lon="9.58850153112111"><ele>25.0</ele><time>2026-04-11T15:32:59Z</time></trkpt><trkpt lat="39.574869125331325" lon="9.588379836722968"><ele>25.0</ele><time>2026-04-11T15:33:00Z</time></trkpt><trkpt lat="39.57474967934407" lon="9.58827743728285"><ele>25.0</ele><time>2026-04-11T15:33:01Z</time></trkpt><trkpt lat="39.57460422178312" lon="9.588226758101825"><ele>25.0</ele><time>2026-04-11T15:33:02Z</time></trkpt><trkpt lat="39.57444494845681" lon="9.588240048129656"><ele>26.666666666666668</ele><time>2026-04-11T15:33:03Z</time></trkpt><trkpt lat="39.57428719304791" lon="9.588302760164904"><ele>28.333333333333336</ele><time>2026-04-11T15:33:04Z</time></trkpt><trkpt lat="39.574147532006386" lon="9.588410347409432"><ele>30.0</ele><time>2026-04-11T15:33:05Z</time></trkpt><trkpt lat="39.57402666300653" lon="9.588571044058009"><ele>29.333333333333336</ele><time>2026-04-11T15:33:06Z</time></trkpt><trkpt lat="39.573900788771645" lon="9.588768108861451"><ele>28.666666666666668</ele><time>2026-04-11T15:33:07Z</time></trkpt><trkpt lat="39.573753153513216" lon="9.588918439010389"><ele>28.0</ele><time>2026-04-11T15:33:08Z</time></trkpt><trkpt lat="39.57359791150579" lon="9.589071530079034"><ele>28.0</ele><time>2026-04-11T15:33:09Z</time></trkpt><trkpt lat="39.573448391671754" lon="9.589220350682735"><ele>28.0</ele><time>2026-04-11T15:33:10Z</time></trkpt><trkpt lat="39.5733054008467" lon="9.589351474018937"><ele>28.0</ele><time>2026-04-11T15:33:11Z</time></trkpt><trkpt lat="39.57317211350876" lon="9.589472420803341"><ele>27.5</ele><time>2026-04-11T15:33:12Z</time></trkpt><trkpt lat="39.57305664015847" lon="9.589607403385799"><ele>27.0</ele><time>2026-04-11T15:33:13Z</time></trkpt><trkpt lat="39.57295404815817" lon="9.589742081537697"><ele>26.5</ele><time>2026-04-11T15:33:14Z</time></trkpt><trkpt lat="39.57284314323553" lon="9.5898546845006"><ele>26.0</ele><time>2026-04-11T15:33:15Z</time></trkpt><trkpt lat="39.57271376557641" lon="9.589928439077694"><ele>26.0</ele><time>2026-04-11T15:33:16Z</time></trkpt><trkpt lat="39.57256314571305" lon="9.589965615894057"><ele>26.0</ele><time>2026-04-11T15:33:17Z</time></trkpt><trkpt lat="39.5723995889912" lon="9.58996250296286"><ele>26.0</ele><time>2026-04-11T15:33:18Z</time></trkpt><trkpt lat="39.572237952853" lon="9.589921233226198"><ele>26.0</ele><time>2026-04-11T15:33:19Z</time></trkpt><trkpt lat="39.57208000362547" lon="9.589885865736147"><ele>26.0</ele><time>2026-04-11T15:33:20Z</time></trkpt><trkpt lat="39.571927044252064" lon="9.58989805716647"><ele>26.0</ele><time>2026-04-11T15:33:21Z</time></trkpt><trkpt lat="39.57177286866922" lon="9.589962970987502"><ele>25.333333333333332</ele><time>2026-04-11T15:33:22Z</time></trkpt><trkpt lat="39.57161447490016" lon="9.590043971641965"><ele>24.666666666666664</ele><time>2026-04-11T15:33:23Z</time></trkpt><trkpt lat="39.5714439410166" lon="9.590104697130846"><ele>24.0</ele><time>2026-04-11T15:33:24Z</time></trkpt><trkpt lat="39.571262675206384" lon="9.590142912678198"><ele>24.666666666666664</ele><time>2026-04-11T15:33:25Z</time></trkpt><trkpt lat="39.57107485218936" lon="9.590144776066746"><ele>25.333333333333332</ele><time>2026-04-11T15:33:26Z</time></trkpt><trkpt lat="39.57087869041072" lon="9.590124550085816"><ele>26.0</ele><time>2026-04-11T15:33:27Z</time></trkpt><trkpt lat="39.57065030554045" lon="9.59009926549623"><ele>26.0</ele><time>2026-04-11T15:33:28Z</time></trkpt><trkpt lat="39.5703976696108" lon="9.59006778874228"><ele>26.0</ele><time>2026-04-11T15:33:29Z</time></trkpt><trkpt lat="39.57012427817418" lon="9.590019912859402"><ele>24.5</ele><time>2026-04-11T15:33:30Z</time></trkpt><trkpt lat="39.56983613131377" lon="9.589965769643046"><ele>23.0</ele><time>2026-04-11T15:33:31Z</time></trkpt><trkpt lat="39.56953534194197" lon="9.589912110030394"><ele>21.5</ele><time>2026-04-11T15:33:32Z</time></trkpt><trkpt lat="39.569236536029656" lon="9.589863261730038"><ele>20.0</ele><time>2026-04-11T15:33:33Z</time></trkpt><trkpt lat="39.568943199689926" lon="9.589816285728137"><ele>21.5</ele><time>2026-04-11T15:33:34Z</time></trkpt><trkpt lat="39.56865373391375" lon="9.589771292171578"><ele>23.0</ele><time>2026-04-11T15:33:35Z</time></trkpt><trkpt lat="39.568374044218324" lon="9.589728718808674"><ele>23.0</ele><time>2026-04-11T15:33:36Z</time></trkpt><trkpt lat="39.568104073635396" lon="9.589689119025602"><ele>23.0</ele><time>2026-04-11T15:33:37Z</time></trkpt><trkpt lat="39.56785782716736" lon="9.58965114917903"><ele>23.5</ele><time>2026-04-11T15:33:38Z</time></trkpt><trkpt lat="39.567626481155045" lon="9.589612678019165"><ele>24.0</ele><time>2026-04-11T15:33:39Z</time></trkpt><trkpt lat="39.56739797102067" lon="9.589574904913183"><ele>24.0</ele><time>2026-04-11T15:33:40Z</time></trkpt><trkpt lat="39.5671732676055" lon="9.589544836883"><ele>24.0</ele><time>2026-04-11T15:33:41Z</time></trkpt><trkpt lat="39.56695354463411" lon="9.589517685793727"><ele>24.0</ele><time>2026-04-11T15:33:42Z</time></trkpt><trkpt lat="39.56673965754156" lon="9.589471601828821"><ele>23.5</ele><time>2026-04-11T15:33:43Z</time></trkpt><trkpt lat="39.56653698263663" lon="9.589355875831377"><ele>23.0</ele><time>2026-04-11T15:33:44Z</time></trkpt><trkpt lat="39.56632336785289" lon="9.589211763204892"><ele>22.5</ele><time>2026-04-11T15:33:45Z</time></trkpt><trkpt lat="39.56610283937454" lon="9.589044101369458"><ele>22.0</ele><time>2026-04-11T15:33:46Z</time></trkpt><trkpt lat="39.56586816018472" lon="9.588883404149879"><ele>22.0</ele><time>2026-04-11T15:33:47Z</time></trkpt><trkpt lat="39.565636469015715" lon="9.588696946521614"><ele>22.0</ele><time>2026-04-11T15:33:48Z</time></trkpt><trkpt lat="39.565392127275814" lon="9.588513277154266"><ele>21.0</ele><time>2026-04-11T15:33:49Z</time></trkpt><trkpt lat="39.56514468141988" lon="9.58832965114862"><ele>20.0</ele><time>2026-04-11T15:33:50Z</time></trkpt><trkpt lat="39.56490305768669" lon="9.588145554658041"><ele>20.0</ele><time>2026-04-11T15:33:51Z</time></trkpt><trkpt lat="39.56467187895807" lon="9.58796609399327"><ele>20.0</ele><time>2026-04-11T15:33:52Z</time></trkpt><trkpt lat="39.564453264649494" lon="9.58779468152025"><ele>20.0</ele><time>2026-04-11T15:33:53Z</time></trkpt><trkpt lat="39.56423997009929" lon="9.587631231549754"><ele>20.0</ele><time>2026-04-11T15:33:54Z</time></trkpt><trkpt lat="39.56404048498956" lon="9.587473748316928"><ele>20.0</ele><time>2026-04-11T15:33:55Z</time></trkpt><trkpt lat="39.563851593278365" lon="9.587329172434725"><ele>20.0</ele><time>2026-04-11T15:33:56Z</time></trkpt><trkpt lat="39.563672805681556" lon="9.58720349653787"><ele>20.0</ele><time>2026-04-11T15:33:57Z</time></trkpt><trkpt lat="39.56350199136844" lon="9.587113657831821"><ele>19.333333333333336</ele><time>2026-04-11T15:33:58Z</time></trkpt><trkpt lat="39.563330531365786" lon="9.587082829152354"><ele>18.666666666666668</ele><time>2026-04-11T15:33:59Z</time></trkpt><trkpt lat="39.563150890205584" lon="9.58711825775992"><ele>18.0</ele><time>2026-04-11T15:34:00Z</time></trkpt><trkpt lat="39.56297162640775" lon="9.587180636891883"><ele>18.333333333333332</ele><time>2026-04-11T15:34:01Z</time></trkpt><trkpt lat="39.56279845218522" lon="9.587221427340046"><ele>18.666666666666664</ele><time>2026-04-11T15:34:02Z</time></trkpt><trkpt lat="39.56264073474569" lon="9.587240622993122"><ele>19.0</ele><time>2026-04-11T15:34:03Z</time></trkpt><trkpt lat="39.56247609541941" lon="9.587242764566154"><ele>19.0</ele><time>2026-04-11T15:34:04Z</time></trkpt><trkpt lat="39.562306884394836" lon="9.587237301209495"><ele>19.0</ele><time>2026-04-11T15:34:05Z</time></trkpt><trkpt lat="39.56215141953386" lon="9.587220514555286"><ele>19.0</ele><time>2026-04-11T15:34:06Z</time></trkpt><trkpt lat="39.56204334380314" lon="9.587163545887053"><ele>19.0</ele><time>2026-04-11T15:34:07Z</time></trkpt><trkpt lat="39.56198636181374" lon="9.587071058895432"><ele>19.333333333333332</ele><time>2026-04-11T15:34:08Z</time></trkpt><trkpt lat="39.561956186519375" lon="9.586960709588798"><ele>19.666666666666664</ele><time>2026-04-11T15:34:09Z</time></trkpt><trkpt lat="39.561951013832505" lon="9.586865551250469"><ele>20.0</ele><time>2026-04-11T15:34:10Z</time></trkpt><trkpt lat="39.56196980119539" lon="9.586779307699517"><ele>20.333333333333332</ele><time>2026-04-11T15:34:11Z</time></trkpt><trkpt lat="39.561950277041646" lon="9.586701597880788"><ele>20.666666666666668</ele><time>2026-04-11T15:34:12Z</time></trkpt><trkpt lat="39.56193482647672" lon="9.586592580510764"><ele>21.0</ele><time>2026-04-11T15:34:13Z</time></trkpt><trkpt lat="39.561909749478325" lon="9.586439957887434"><ele>21.0</ele><time>2026-04-11T15:34:14Z</time></trkpt><trkpt lat="39.56188689995" lon="9.58625068894725"><ele>21.0</ele><time>2026-04-11T15:34:15Z</time></trkpt><trkpt lat="39.56186123263196" lon="9.586020989835596"><ele>21.0</ele><time>2026-04-11T15:34:16Z</time></trkpt><trkpt lat="39.56185588784699" lon="9.585754386527453"><ele>23.0</ele><time>2026-04-11T15:34:17Z</time></trkpt><trkpt lat="39.56187391520835" lon="9.585473277241151"><ele>25.0</ele><time>2026-04-11T15:34:18Z</time></trkpt><trkpt lat="39.56190119072903" lon="9.585208325111878"><ele>27.0</ele><time>2026-04-11T15:34:19Z</time></trkpt><trkpt lat="39.56194858460563" lon="9.584993778414141"><ele>26.666666666666664</ele><time>2026-04-11T15:34:20Z</time></trkpt><trkpt lat="39.56202728357482" lon="9.584810165078657"><ele>26.333333333333332</ele><time>2026-04-11T15:34:21Z</time></trkpt><trkpt lat="39.5621380256749" lon="9.584673707364736"><ele>26.0</ele><time>2026-04-11T15:34:22Z</time></trkpt><trkpt lat="39.5622706585344" lon="9.584584053519754"><ele>26.0</ele><time>2026-04-11T15:34:23Z</time></trkpt><trkpt lat="39.562416016320604" lon="9.584555007160464"><ele>26.0</ele><time>2026-04-11T15:34:24Z</time></trkpt><trkpt lat="39.56256651031669" lon="9.584594203580876"><ele>26.0</ele><time>2026-04-11T15:34:25Z</time></trkpt><trkpt lat="39.56270547052349" lon="9.584697942512392"><ele>26.0</ele><time>2026-04-11T15:34:26Z</time></trkpt><trkpt lat="39.56281601147848" lon="9.584839944003289"><ele>26.0</ele><time>2026-04-11T15:34:27Z</time></trkpt><trkpt lat="39.56287251165047" lon="9.585013367487477"><ele>26.0</ele><time>2026-04-11T15:34:28Z</time></trkpt><trkpt lat="39.56288109991794" lon="9.585194547793506"><ele>26.0</ele><time>2026-04-11T15:34:29Z</time></trkpt><trkpt lat="39.56284137030417" lon="9.585381392927584"><ele>24.666666666666664</ele><time>2026-04-11T15:34:30Z</time></trkpt><trkpt lat="39.56276715002641" lon="9.585563214191657"><ele>23.333333333333332</ele><time>2026-04-11T15:34:31Z</time></trkpt><trkpt lat="39.56265386821445" lon="9.585697060005153"><ele>22.0</ele><time>2026-04-11T15:34:32Z</time></trkpt><trkpt lat="39.56250842385288" lon="9.585781166840553"><ele>22.0</ele><time>2026-04-11T15:34:33Z</time></trkpt><trkpt lat="39.56234722856428" lon="9.585823708216243"><ele>22.0</ele><time>2026-04-11T15:34:34Z</time></trkpt><trkpt lat="39.56218477272708" lon="9.585804313875366"><ele>22.0</ele><time>2026-04-11T15:34:35Z</time></trkpt><trkpt lat="39.56200841944055" lon="9.585753725010793"><ele>23.666666666666664</ele><time>2026-04-11T15:34:36Z</time></trkpt><trkpt lat="39.56181545840937" lon="9.585717607419856"><ele>25.333333333333332</ele><time>2026-04-11T15:34:37Z</time></trkpt><trkpt lat="39.56161551732184" lon="9.585717993442424"><ele>27.0</ele><time>2026-04-11T15:34:38Z</time></trkpt><trkpt lat="39.56139481251569" lon="9.58572803923095"><ele>31.5</ele><time>2026-04-11T15:34:39Z</time></trkpt><trkpt lat="39.561163575655065" lon="9.585732657172853"><ele>36.0</ele><time>2026-04-11T15:34:40Z</time></trkpt><trkpt lat="39.560935538248074" lon="9.585738516953384"><ele>36.0</ele><time>2026-04-11T15:34:41Z</time></trkpt><trkpt lat="39.560701409357506" lon="9.585751635069423"><ele>36.0</ele><time>2026-04-11T15:34:42Z</time></trkpt><trkpt lat="39.5604614485541" lon="9.585774845183014"><ele>35.5</ele><time>2026-04-11T15:34:43Z</time></trkpt><trkpt lat="39.56021220510063" lon="9.585813519370756"><ele>35.0</ele><time>2026-04-11T15:34:44Z</time></trkpt><trkpt lat="39.55995289665984" lon="9.585869104487243"><ele>35.0</ele><time>2026-04-11T15:34:45Z</time></trkpt><trkpt lat="39.55970372048972" lon="9.585935444719642"><ele>35.0</ele><time>2026-04-11T15:34:46Z</time></trkpt><trkpt lat="39.5594593085869" lon="9.586013190282648"><ele>34.0</ele><time>2026-04-11T15:34:47Z</time></trkpt><trkpt lat="39.55921045693452" lon="9.586103318523875"><ele>33.0</ele><time>2026-04-11T15:34:48Z</time></trkpt><trkpt lat="39.55895431858751" lon="9.586200840644157"><ele>29.0</ele><time>2026-04-11T15:34:49Z</time></trkpt><trkpt lat="39.55869556589735" lon="9.58630293769674"><ele>25.0</ele><time>2026-04-11T15:34:50Z</time></trkpt><trkpt lat="39.55843186013665" lon="9.586409138594934"><ele>25.0</ele><time>2026-04-11T15:34:51Z</time></trkpt><trkpt lat="39.558168588554096" lon="9.586523203774822"><ele>25.0</ele><time>2026-04-11T15:34:52Z</time></trkpt><trkpt lat="39.55790456008847" lon="9.586642590596348"><ele>23.5</ele><time>2026-04-11T15:34:53Z</time></trkpt><trkpt lat="39.557640211750936" lon="9.586764106180967"><ele>22.0</ele><time>2026-04-11T15:34:54Z</time></trkpt><trkpt lat="39.557378088516494" lon="9.58688215610645"><ele>22.0</ele><time>2026-04-11T15:34:55Z</time></trkpt><trkpt lat="39.557114899736085" lon="9.586998478478616"><ele>22.0</ele><time>2026-04-11T15:34:56Z</time></trkpt><trkpt lat="39.556847396772675" lon="9.587115317607775"><ele>23.0</ele><time>2026-04-11T15:34:57Z</time></trkpt><trkpt lat="39.55657998460286" lon="9.587233452125405"><ele>24.0</ele><time>2026-04-11T15:34:58Z</time></trkpt><trkpt lat="39.55631474959649" lon="9.58735306995252"><ele>26.0</ele><time>2026-04-11T15:34:59Z</time></trkpt><trkpt lat="39.55605037780816" lon="9.58747524350547"><ele>28.0</ele><time>2026-04-11T15:35:00Z</time></trkpt><trkpt lat="39.55578478232166" lon="9.587598321193342"><ele>28.0</ele><time>2026-04-11T15:35:01Z</time></trkpt><trkpt lat="39.555515339772285" lon="9.58771844031742"><ele>28.0</ele><time>2026-04-11T15:35:02Z</time></trkpt><trkpt lat="39.55524488263592" lon="9.587831770912208"><ele>31.0</ele><time>2026-04-11T15:35:03Z</time></trkpt><trkpt lat="39.55497331132353" lon="9.587942306817787"><ele>34.0</ele><time>2026-04-11T15:35:04Z</time></trkpt><trkpt lat="39.55470180283321" lon="9.588058683210392"><ele>40.0</ele><time>2026-04-11T15:35:05Z</time></trkpt><trkpt lat="39.554428067726555" lon="9.588183206334888"><ele>46.0</ele><time>2026-04-11T15:35:06Z</time></trkpt><trkpt lat="39.55414899869015" lon="9.588309106291128"><ele>46.0</ele><time>2026-04-11T15:35:07Z</time></trkpt><trkpt lat="39.55386351066609" lon="9.58843533539877"><ele>46.0</ele><time>2026-04-11T15:35:08Z</time></trkpt><trkpt lat="39.553571313653876" lon="9.588563687116624"><ele>42.5</ele><time>2026-04-11T15:35:09Z</time></trkpt><trkpt lat="39.553276054199074" lon="9.588692020526743"><ele>39.0</ele><time>2026-04-11T15:35:10Z</time></trkpt><trkpt lat="39.55297716388426" lon="9.588826243235811"><ele>34.5</ele><time>2026-04-11T15:35:11Z</time></trkpt><trkpt lat="39.55267430444774" lon="9.588960482942463"><ele>30.0</ele><time>2026-04-11T15:35:12Z</time></trkpt><trkpt lat="39.55237099273608" lon="9.58909158165019"><ele>30.0</ele><time>2026-04-11T15:35:13Z</time></trkpt><trkpt lat="39.55206035271532" lon="9.589225384308907"><ele>30.0</ele><time>2026-04-11T15:35:14Z</time></trkpt><trkpt lat="39.551752062128095" lon="9.589361049706932"><ele>29.0</ele><time>2026-04-11T15:35:15Z</time></trkpt><trkpt lat="39.55144123375561" lon="9.589499457850879"><ele>28.0</ele><time>2026-04-11T15:35:16Z</time></trkpt><trkpt lat="39.55112791629342" lon="9.589639071739972"><ele>26.0</ele><time>2026-04-11T15:35:17Z</time></trkpt><trkpt lat="39.550816187532824" lon="9.589775538142609"><ele>24.0</ele><time>2026-04-11T15:35:18Z</time></trkpt><trkpt lat="39.5505059929059" lon="9.589913045375532"><ele>27.5</ele><time>2026-04-11T15:35:19Z</time></trkpt><trkpt lat="39.55019928833891" lon="9.590044607696715"><ele>31.0</ele><time>2026-04-11T15:35:20Z</time></trkpt><trkpt lat="39.54989252222814" lon="9.590180662448919"><ele>31.0</ele><time>2026-04-11T15:35:21Z</time></trkpt><trkpt lat="39.54958773236339" lon="9.590318746526727"><ele>31.0</ele><time>2026-04-11T15:35:22Z</time></trkpt><trkpt lat="39.549284138103836" lon="9.590456418219036"><ele>30.5</ele><time>2026-04-11T15:35:23Z</time></trkpt><trkpt lat="39.548976105426426" lon="9.590591813971486"><ele>30.0</ele><time>2026-04-11T15:35:24Z</time></trkpt><trkpt lat="39.54866884790003" lon="9.590723635508965"><ele>31.0</ele><time>2026-04-11T15:35:25Z</time></trkpt><trkpt lat="39.548359743812206" lon="9.590852463567185"><ele>32.0</ele><time>2026-04-11T15:35:26Z</time></trkpt><trkpt lat="39.54804952856111" lon="9.590976278635129"><ele>31.0</ele><time>2026-04-11T15:35:27Z</time></trkpt><trkpt lat="39.54773670477366" lon="9.591095281586474"><ele>30.0</ele><time>2026-04-11T15:35:28Z</time></trkpt><trkpt lat="39.54742062885601" lon="9.591209607616287"><ele>27.0</ele><time>2026-04-11T15:35:29Z</time></trkpt><trkpt lat="39.54709891197271" lon="9.591321012278785"><ele>24.0</ele><time>2026-04-11T15:35:30Z</time></trkpt><trkpt lat="39.546774431506236" lon="9.591429009156672"><ele>24.0</ele><time>2026-04-11T15:35:31Z</time></trkpt><trkpt lat="39.546447037022006" lon="9.591534143993009"><ele>24.0</ele><time>2026-04-11T15:35:32Z</time></trkpt><trkpt lat="39.54611624485514" lon="9.591632876430012"><ele>27.5</ele><time>2026-04-11T15:35:33Z</time></trkpt><trkpt lat="39.5457823606351" lon="9.591724219334054"><ele>31.0</ele><time>2026-04-11T15:35:34Z</time></trkpt><trkpt lat="39.54544640569553" lon="9.591806579207603"><ele>33.5</ele><time>2026-04-11T15:35:35Z</time></trkpt><trkpt lat="39.54510971982706" lon="9.591876816570164"><ele>36.0</ele><time>2026-04-11T15:35:36Z</time></trkpt><trkpt lat="39.544772486378946" lon="9.591932802865992"><ele>32.5</ele><time>2026-04-11T15:35:37Z</time></trkpt><trkpt lat="39.54443390201489" lon="9.591981248733898"><ele>29.0</ele><time>2026-04-11T15:35:38Z</time></trkpt><trkpt lat="39.54409437260516" lon="9.592021141024723"><ele>25.5</ele><time>2026-04-11T15:35:39Z</time></trkpt><trkpt lat="39.54375121819332" lon="9.592054189093654"><ele>22.0</ele><time>2026-04-11T15:35:40Z</time></trkpt><trkpt lat="39.543405595074056" lon="9.592082948358568"><ele>22.0</ele><time>2026-04-11T15:35:41Z</time></trkpt><trkpt lat="39.54305993766571" lon="9.592103860559655"><ele>22.0</ele><time>2026-04-11T15:35:42Z</time></trkpt><trkpt lat="39.542715086145726" lon="9.592113670517538"><ele>23.5</ele><time>2026-04-11T15:35:43Z</time></trkpt><trkpt lat="39.5423678678926" lon="9.592115881074484"><ele>25.0</ele><time>2026-04-11T15:35:44Z</time></trkpt><trkpt lat="39.5420205372023" lon="9.592110728154589"><ele>25.0</ele><time>2026-04-11T15:35:45Z</time></trkpt><trkpt lat="39.54167258938558" lon="9.59209904893985"><ele>25.0</ele><time>2026-04-11T15:35:46Z</time></trkpt><trkpt lat="39.54132671876865" lon="9.59208046159324"><ele>27.0</ele><time>2026-04-11T15:35:47Z</time></trkpt><trkpt lat="39.540985242382874" lon="9.59205473306185"><ele>29.0</ele><time>2026-04-11T15:35:48Z</time></trkpt><trkpt lat="39.54064668013156" lon="9.592026245874962"><ele>37.5</ele><time>2026-04-11T15:35:49Z</time></trkpt><trkpt lat="39.5403099224211" lon="9.591993062520775"><ele>46.0</ele><time>2026-04-11T15:35:50Z</time></trkpt><trkpt lat="39.53997693816489" lon="9.591955814066196"><ele>46.0</ele><time>2026-04-11T15:35:51Z</time></trkpt><trkpt lat="39.539644472980164" lon="9.591914405280601"><ele>46.0</ele><time>2026-04-11T15:35:52Z</time></trkpt><trkpt lat="39.53931790982201" lon="9.59187392005319"><ele>38.0</ele><time>2026-04-11T15:35:53Z</time></trkpt><trkpt lat="39.53898641488719" lon="9.591834998764838"><ele>30.0</ele><time>2026-04-11T15:35:54Z</time></trkpt><trkpt lat="39.53865567967165" lon="9.5917985302268"><ele>29.5</ele><time>2026-04-11T15:35:55Z</time></trkpt><trkpt lat="39.538320146302816" lon="9.591758657352393"><ele>29.0</ele><time>2026-04-11T15:35:56Z</time></trkpt><trkpt lat="39.5379845215261" lon="9.591717874734913"><ele>29.5</ele><time>2026-04-11T15:35:57Z</time></trkpt><trkpt lat="39.53764583188212" lon="9.591676810981408"><ele>30.0</ele><time>2026-04-11T15:35:58Z</time></trkpt><trkpt lat="39.53730478849367" lon="9.59163342338986"><ele>25.5</ele><time>2026-04-11T15:35:59Z</time></trkpt><trkpt lat="39.53696574795096" lon="9.591588808140706"><ele>21.0</ele><time>2026-04-11T15:36:00Z</time></trkpt><trkpt lat="39.53662520346993" lon="9.591543008791174"><ele>21.0</ele><time>2026-04-11T15:36:01Z</time></trkpt><trkpt lat="39.536284536371575" lon="9.591492542891908"><ele>21.0</ele><time>2026-04-11T15:36:02Z</time></trkpt><trkpt lat="39.535942868869554" lon="9.59142989827147"><ele>21.0</ele><time>2026-04-11T15:36:03Z</time></trkpt><trkpt lat="39.535600855662956" lon="9.591355342218916"><ele>21.0</ele><time>2026-04-11T15:36:04Z</time></trkpt><trkpt lat="39.53526137583219" lon="9.591271525017621"><ele>21.0</ele><time>2026-04-11T15:36:05Z</time></trkpt><trkpt lat="39.53491815771596" lon="9.591182263135861"><ele>21.0</ele><time>2026-04-11T15:36:06Z</time></trkpt><trkpt lat="39.53457943453774" lon="9.591086945756265"><ele>26.0</ele><time>2026-04-11T15:36:07Z</time></trkpt><trkpt lat="39.534241227636365" lon="9.590984244076509"><ele>31.0</ele><time>2026-04-11T15:36:08Z</time></trkpt><trkpt lat="39.53391046826127" lon="9.590876476749576"><ele>25.5</ele><time>2026-04-11T15:36:09Z</time></trkpt><trkpt lat="39.53358689106619" lon="9.590764683773893"><ele>20.0</ele><time>2026-04-11T15:36:10Z</time></trkpt><trkpt lat="39.53326516273526" lon="9.59064215353214"><ele>20.0</ele><time>2026-04-11T15:36:11Z</time></trkpt><trkpt lat="39.532945561452685" lon="9.590508596244746"><ele>20.0</ele><time>2026-04-11T15:36:12Z</time></trkpt><trkpt lat="39.532623845575266" lon="9.590367789306656"><ele>23.5</ele><time>2026-04-11T15:36:13Z</time></trkpt><trkpt lat="39.532301434069524" lon="9.590223403059195"><ele>27.0</ele><time>2026-04-11T15:36:14Z</time></trkpt><trkpt lat="39.531976948445866" lon="9.590073215999976"><ele>27.0</ele><time>2026-04-11T15:36:15Z</time></trkpt><trkpt lat="39.531653411681496" lon="9.58992134133907"><ele>27.0</ele><time>2026-04-11T15:36:16Z</time></trkpt><trkpt lat="39.53133056539187" lon="9.589772157260716"><ele>25.0</ele><time>2026-04-11T15:36:17Z</time></trkpt><trkpt lat="39.531006822351706" lon="9.589625576495015"><ele>23.0</ele><time>2026-04-11T15:36:18Z</time></trkpt><trkpt lat="39.530686962972815" lon="9.589478746967746"><ele>36.5</ele><time>2026-04-11T15:36:19Z</time></trkpt><trkpt lat="39.530377758678966" lon="9.589334678381881"><ele>50.0</ele><time>2026-04-11T15:36:20Z</time></trkpt><trkpt lat="39.5300786281584" lon="9.589194905114335"><ele>50.0</ele><time>2026-04-11T15:36:21Z</time></trkpt><trkpt lat="39.529799238287396" lon="9.589060310609078"><ele>50.0</ele><time>2026-04-11T15:36:22Z</time></trkpt><trkpt lat="39.529532490766044" lon="9.58892557188888"><ele>46.5</ele><time>2026-04-11T15:36:23Z</time></trkpt><trkpt lat="39.52927675744265" lon="9.58879521113547"><ele>43.0</ele><time>2026-04-11T15:36:24Z</time></trkpt><trkpt lat="39.529016124223176" lon="9.588664192152129"><ele>37.0</ele><time>2026-04-11T15:36:25Z</time></trkpt><trkpt lat="39.528732335893196" lon="9.58851332273857"><ele>31.0</ele><time>2026-04-11T15:36:26Z</time></trkpt><trkpt lat="39.52842668850073" lon="9.588349768256844"><ele>19.0</ele><time>2026-04-11T15:36:27.025Z</time></trkpt><trkpt lat="39.52790121696002" lon="9.588090040669965"><ele>16.5</ele><time>2026-04-11T15:36:29Z</time></trkpt><trkpt lat="39.527660103611815" lon="9.588012657406416"><ele>14.0</ele><time>2026-04-11T15:36:30Z</time></trkpt><trkpt lat="39.52739581092994" lon="9.587926927221526"><ele>12.0</ele><time>2026-04-11T15:36:31Z</time></trkpt><trkpt lat="39.52712207553913" lon="9.587827113694543"><ele>10.0</ele><time>2026-04-11T15:36:32Z</time></trkpt><trkpt lat="39.52683414848168" lon="9.587697600790412"><ele>9.5</ele><time>2026-04-11T15:36:33Z</time></trkpt><trkpt lat="39.52655523492709" lon="9.587584448746705"><ele>9.0</ele><time>2026-04-11T15:36:34Z</time></trkpt><trkpt lat="39.52626909158211" lon="9.58748208145344"><ele>10.0</ele><time>2026-04-11T15:36:35Z</time></trkpt><trkpt lat="39.525978257749415" lon="9.587390065469348"><ele>11.0</ele><time>2026-04-11T15:36:36Z</time></trkpt><trkpt lat="39.52568699357196" lon="9.58730691564015"><ele>12.0</ele><time>2026-04-11T15:36:37Z</time></trkpt><trkpt lat="39.52538929638218" lon="9.587233890121372"><ele>13.0</ele><time>2026-04-11T15:36:38Z</time></trkpt><trkpt lat="39.52508973004231" lon="9.587172024538646"><ele>13.0</ele><time>2026-04-11T15:36:39Z</time></trkpt><trkpt lat="39.524791293603556" lon="9.587119012980919"><ele>13.0</ele><time>2026-04-11T15:36:40Z</time></trkpt><trkpt lat="39.524494400740956" lon="9.587077946990863"><ele>13.0</ele><time>2026-04-11T15:36:41Z</time></trkpt><trkpt lat="39.52419773256031" lon="9.587053606291422"><ele>13.0</ele><time>2026-04-11T15:36:42Z</time></trkpt><trkpt lat="39.52389586287787" lon="9.587047573579852"><ele>19.0</ele><time>2026-04-11T15:36:43Z</time></trkpt><trkpt lat="39.523594543677284" lon="9.587051060430563"><ele>25.0</ele><time>2026-04-11T15:36:44Z</time></trkpt><trkpt lat="39.52329093908985" lon="9.587059727051457"><ele>25.0</ele><time>2026-04-11T15:36:45Z</time></trkpt><trkpt lat="39.52298676696881" lon="9.587081174994468"><ele>25.0</ele><time>2026-04-11T15:36:46Z</time></trkpt><trkpt lat="39.522680433278076" lon="9.587116508889434"><ele>34.5</ele><time>2026-04-11T15:36:47Z</time></trkpt><trkpt lat="39.52237381684059" lon="9.587156970544713"><ele>44.0</ele><time>2026-04-11T15:36:48Z</time></trkpt><trkpt lat="39.522064934327645" lon="9.58720329107262"><ele>50.0</ele><time>2026-04-11T15:36:49Z</time></trkpt><trkpt lat="39.52175392679044" lon="9.587253671591137"><ele>56.0</ele><time>2026-04-11T15:36:50Z</time></trkpt><trkpt lat="39.5214420753229" lon="9.587309871542807"><ele>48.5</ele><time>2026-04-11T15:36:51Z</time></trkpt><trkpt lat="39.521120255683215" lon="9.587374930132832"><ele>41.0</ele><time>2026-04-11T15:36:52.026Z</time></trkpt><trkpt lat="39.52081448974788" lon="9.587445048719227"><ele>27.0</ele><time>2026-04-11T15:36:53.025Z</time></trkpt><trkpt lat="39.519884235358916" lon="9.58764643919815"><ele>23.0</ele><time>2026-04-11T15:36:56Z</time></trkpt><trkpt lat="39.5195512175808" lon="9.587711489539522"><ele>19.0</ele><time>2026-04-11T15:36:57Z</time></trkpt><trkpt lat="39.519222253200724" lon="9.587791222958382"><ele>18.0</ele><time>2026-04-11T15:36:58Z</time></trkpt><trkpt lat="39.51888153017332" lon="9.587870482811558"><ele>17.0</ele><time>2026-04-11T15:36:59Z</time></trkpt><trkpt lat="39.518564424780934" lon="9.58794793784281"><ele>19.5</ele><time>2026-04-11T15:37:00Z</time></trkpt><trkpt lat="39.51824999713738" lon="9.588038835727076"><ele>22.0</ele><time>2026-04-11T15:37:01Z</time></trkpt><trkpt lat="39.51793526865929" lon="9.588142400539741"><ele>30.0</ele><time>2026-04-11T15:37:02Z</time></trkpt><trkpt lat="39.51762280990666" lon="9.588258093833483"><ele>38.0</ele><time>2026-04-11T15:37:03Z</time></trkpt><trkpt lat="39.51730849259822" lon="9.588387987038175"><ele>46.5</ele><time>2026-04-11T15:37:04Z</time></trkpt><trkpt lat="39.51699397081959" lon="9.588528725315685"><ele>55.0</ele><time>2026-04-11T15:37:05Z</time></trkpt><trkpt lat="39.51667805826799" lon="9.588679189273991"><ele>57.0</ele><time>2026-04-11T15:37:06Z</time></trkpt><trkpt lat="39.51636235964918" lon="9.588839775704384"><ele>59.0</ele><time>2026-04-11T15:37:07Z</time></trkpt><trkpt lat="39.51604826509135" lon="9.589013856988293"><ele>62.5</ele><time>2026-04-11T15:37:08Z</time></trkpt><trkpt lat="39.51573886432688" lon="9.58920063188413"><ele>66.0</ele><time>2026-04-11T15:37:09Z</time></trkpt><trkpt lat="39.51543549603546" lon="9.589394634354568"><ele>58.5</ele><time>2026-04-11T15:37:10Z</time></trkpt><trkpt lat="39.515142954462576" lon="9.589590742841295"><ele>51.0</ele><time>2026-04-11T15:37:11Z</time></trkpt><trkpt lat="39.51484885640491" lon="9.589796093831337"><ele>49.0</ele><time>2026-04-11T15:37:12.026Z</time></trkpt><trkpt lat="39.51433803422948" lon="9.590225610306211"><ele>45.5</ele><time>2026-04-11T15:37:14Z</time></trkpt><trkpt lat="39.51407340321083" lon="9.590442295872784"><ele>42.0</ele><time>2026-04-11T15:37:15Z</time></trkpt><trkpt lat="39.513826965387786" lon="9.590685545818763"><ele>47.0</ele><time>2026-04-11T15:37:16Z</time></trkpt><trkpt lat="39.51357793241806" lon="9.590929366095056"><ele>52.0</ele><time>2026-04-11T15:37:17Z</time></trkpt><trkpt lat="39.513323308337064" lon="9.591173699076228"><ele>49.5</ele><time>2026-04-11T15:37:18Z</time></trkpt><trkpt lat="39.51307250838243" lon="9.591423152541495"><ele>47.0</ele><time>2026-04-11T15:37:19Z</time></trkpt><trkpt lat="39.51282226983144" lon="9.591669686827023"><ele>47.0</ele><time>2026-04-11T15:37:20Z</time></trkpt><trkpt lat="39.51257257793682" lon="9.5919158849657"><ele>47.0</ele><time>2026-04-11T15:37:21Z</time></trkpt><trkpt lat="39.51233071939174" lon="9.592173411457411"><ele>42.0</ele><time>2026-04-11T15:37:22Z</time></trkpt><trkpt lat="39.51208738889525" lon="9.592429163734211"><ele>37.0</ele><time>2026-04-11T15:37:23Z</time></trkpt><trkpt lat="39.511845473678946" lon="9.592682357621166"><ele>36.5</ele><time>2026-04-11T15:37:24Z</time></trkpt><trkpt lat="39.51159936407198" lon="9.592928031346238"><ele>36.0</ele><time>2026-04-11T15:37:25Z</time></trkpt><trkpt lat="39.51135227024481" lon="9.593164803231366"><ele>44.5</ele><time>2026-04-11T15:37:26Z</time></trkpt><trkpt lat="39.511106272676166" lon="9.593408083511028"><ele>53.0</ele><time>2026-04-11T15:37:27Z</time></trkpt><trkpt lat="39.510871254167796" lon="9.59363202378723"><ele>47.5</ele><time>2026-04-11T15:37:28Z</time></trkpt><trkpt lat="39.51060972892015" lon="9.593868720318415"><ele>42.0</ele><time>2026-04-11T15:37:29Z</time></trkpt><trkpt lat="39.51034863238675" lon="9.59410047995609"><ele>42.0</ele><time>2026-04-11T15:37:30Z</time></trkpt><trkpt lat="39.51008308688189" lon="9.594320291099642"><ele>42.0</ele><time>2026-04-11T15:37:31Z</time></trkpt><trkpt lat="39.50981352475002" lon="9.594527798350816"><ele>33.0</ele><time>2026-04-11T15:37:32Z</time></trkpt><trkpt lat="39.50953720652414" lon="9.594726673761576"><ele>24.0</ele><time>2026-04-11T15:37:33Z</time></trkpt><trkpt lat="39.50925798057955" lon="9.594917375718321"><ele>24.0</ele><time>2026-04-11T15:37:34Z</time></trkpt><trkpt lat="39.508972861292044" lon="9.59509524621088"><ele>24.0</ele><time>2026-04-11T15:37:35Z</time></trkpt><trkpt lat="39.50868320952056" lon="9.595261399621227"><ele>23.5</ele><time>2026-04-11T15:37:36Z</time></trkpt><trkpt lat="39.50838613616233" lon="9.59541330319816"><ele>23.0</ele><time>2026-04-11T15:37:37Z</time></trkpt><trkpt lat="39.508081083611536" lon="9.595549939497309"><ele>27.0</ele><time>2026-04-11T15:37:38Z</time></trkpt><trkpt lat="39.507770188174" lon="9.595662058838123"><ele>31.0</ele><time>2026-04-11T15:37:39Z</time></trkpt><trkpt lat="39.50745267881784" lon="9.595738699993028"><ele>31.0</ele><time>2026-04-11T15:37:40Z</time></trkpt><trkpt lat="39.507136887741304" lon="9.595810035943368"><ele>31.0</ele><time>2026-04-11T15:37:41Z</time></trkpt><trkpt lat="39.506816003957056" lon="9.595859724323018"><ele>41.0</ele><time>2026-04-11T15:37:42Z</time></trkpt><trkpt lat="39.50649845595245" lon="9.595885052902066"><ele>51.0</ele><time>2026-04-11T15:37:43Z</time></trkpt><trkpt lat="39.50618178394301" lon="9.595887941567524"><ele>61.5</ele><time>2026-04-11T15:37:44Z</time></trkpt><trkpt lat="39.505860265259976" lon="9.595867305333336"><ele>72.0</ele><time>2026-04-11T15:37:45Z</time></trkpt><trkpt lat="39.50553362152418" lon="9.595827674986506"><ele>68.5</ele><time>2026-04-11T15:37:46Z</time></trkpt><trkpt lat="39.50520504100521" lon="9.595777850541426"><ele>65.0</ele><time>2026-04-11T15:37:47Z</time></trkpt><trkpt lat="39.5048767000445" lon="9.595689807988952"><ele>58.5</ele><time>2026-04-11T15:37:48Z</time></trkpt><trkpt lat="39.50454048434842" lon="9.595597518425004"><ele>52.0</ele><time>2026-04-11T15:37:49.026Z</time></trkpt><trkpt lat="39.50421879103197" lon="9.595500897590261"><ele>52.0</ele><time>2026-04-11T15:37:50Z</time></trkpt><trkpt lat="39.503976727287345" lon="9.595435363794897"><ele>52.0</ele><time>2026-04-11T15:37:51Z</time></trkpt><trkpt lat="39.503681580930625" lon="9.59533492964067"><ele>46.0</ele><time>2026-04-11T15:37:52Z</time></trkpt><trkpt lat="39.50338078307228" lon="9.595239846615174"><ele>40.0</ele><time>2026-04-11T15:37:53Z</time></trkpt><trkpt lat="39.503084008566034" lon="9.595147352275223"><ele>38.0</ele><time>2026-04-11T15:37:54Z</time></trkpt><trkpt lat="39.50278541683235" lon="9.595057406858515"><ele>36.0</ele><time>2026-04-11T15:37:55Z</time></trkpt><trkpt lat="39.502488234910444" lon="9.594981244216646"><ele>36.0</ele><time>2026-04-11T15:37:56Z</time></trkpt><trkpt lat="39.50218495841055" lon="9.594917429315764"><ele>36.0</ele><time>2026-04-11T15:37:57Z</time></trkpt><trkpt lat="39.50188010917241" lon="9.594864869091344"><ele>36.0</ele><time>2026-04-11T15:37:58Z</time></trkpt><trkpt lat="39.50157304916474" lon="9.594827307967412"><ele>36.0</ele><time>2026-04-11T15:37:59Z</time></trkpt><trkpt lat="39.50126502692064" lon="9.59480986040443"><ele>37.0</ele><time>2026-04-11T15:38:00Z</time></trkpt><trkpt lat="39.50095642526134" lon="9.594819107960177"><ele>38.0</ele><time>2026-04-11T15:38:01Z</time></trkpt><trkpt lat="39.500646825795016" lon="9.594854582911804"><ele>33.5</ele><time>2026-04-11T15:38:02Z</time></trkpt><trkpt lat="39.500339028673" lon="9.594910438328649"><ele>29.0</ele><time>2026-04-11T15:38:03Z</time></trkpt><trkpt lat="39.50003659758754" lon="9.59498911000287"><ele>29.0</ele><time>2026-04-11T15:38:04Z</time></trkpt><trkpt lat="39.499737208598724" lon="9.595090512831625"><ele>29.0</ele><time>2026-04-11T15:38:05Z</time></trkpt><trkpt lat="39.49944648345336" lon="9.595214909468716"><ele>28.0</ele><time>2026-04-11T15:38:06Z</time></trkpt><trkpt lat="39.499163496168876" lon="9.595362997758732"><ele>27.0</ele><time>2026-04-11T15:38:07Z</time></trkpt><trkpt lat="39.49889044323449" lon="9.595535793627734"><ele>35.0</ele><time>2026-04-11T15:38:08Z</time></trkpt><trkpt lat="39.4986227937129" lon="9.595728555569988"><ele>43.0</ele><time>2026-04-11T15:38:09Z</time></trkpt><trkpt lat="39.498365381401015" lon="9.595938475356943"><ele>43.0</ele><time>2026-04-11T15:38:10Z</time></trkpt><trkpt lat="39.49811814943078" lon="9.596164882456534"><ele>43.0</ele><time>2026-04-11T15:38:11Z</time></trkpt><trkpt lat="39.49788178489306" lon="9.59641033233071"><ele>53.0</ele><time>2026-04-11T15:38:12Z</time></trkpt><trkpt lat="39.497650831711354" lon="9.596672091537533"><ele>63.0</ele><time>2026-04-11T15:38:13Z</time></trkpt><trkpt lat="39.49742557830652" lon="9.596940301458112"><ele>59.0</ele><time>2026-04-11T15:38:14Z</time></trkpt><trkpt lat="39.497189713616116" lon="9.59719176129894"><ele>55.0</ele><time>2026-04-11T15:38:15Z</time></trkpt><trkpt lat="39.49696045504922" lon="9.597456471209238"><ele>66.0</ele><time>2026-04-11T15:38:16Z</time></trkpt><trkpt lat="39.4967695331893" lon="9.597781120394947"><ele>77.0</ele><time>2026-04-11T15:38:17Z</time></trkpt><trkpt lat="39.49655204831702" lon="9.598069264437026"><ele>77.0</ele><time>2026-04-11T15:38:18Z</time></trkpt><trkpt lat="39.49633600581979" lon="9.598360633409724"><ele>77.0</ele><time>2026-04-11T15:38:19Z</time></trkpt><trkpt lat="39.49612200514384" lon="9.598652825723454"><ele>91.0</ele><time>2026-04-11T15:38:20Z</time></trkpt><trkpt lat="39.49590959248161" lon="9.598941779858357"><ele>105.0</ele><time>2026-04-11T15:38:21Z</time></trkpt><trkpt lat="39.4956969577447" lon="9.599226644652369"><ele>99.5</ele><time>2026-04-11T15:38:22Z</time></trkpt><trkpt lat="39.49548547133355" lon="9.599506803679388"><ele>94.0</ele><time>2026-04-11T15:38:23Z</time></trkpt><trkpt lat="39.4952774112993" lon="9.59978091439186"><ele>87.5</ele><time>2026-04-11T15:38:24Z</time></trkpt><trkpt lat="39.49506506066404" lon="9.600059634324698"><ele>81.0</ele><time>2026-04-11T15:38:25.025Z</time></trkpt><trkpt lat="39.4944119100365" lon="9.600966161487497"><ele>73.0</ele><time>2026-04-11T15:38:28Z</time></trkpt><trkpt lat="39.494189627794384" lon="9.601270910364235"><ele>65.0</ele><time>2026-04-11T15:38:29Z</time></trkpt><trkpt lat="39.49397680289519" lon="9.601566630185538"><ele>65.0</ele><time>2026-04-11T15:38:30Z</time></trkpt><trkpt lat="39.49376301590187" lon="9.601859276600408"><ele>65.0</ele><time>2026-04-11T15:38:31Z</time></trkpt><trkpt lat="39.493547664726954" lon="9.602151736026782"><ele>60.0</ele><time>2026-04-11T15:38:32Z</time></trkpt><trkpt lat="39.49333145554375" lon="9.6024464762791"><ele>55.0</ele><time>2026-04-11T15:38:33Z</time></trkpt><trkpt lat="39.493113612740956" lon="9.602744749761426"><ele>54.5</ele><time>2026-04-11T15:38:34Z</time></trkpt><trkpt lat="39.492892191515764" lon="9.603042849390643"><ele>54.0</ele><time>2026-04-11T15:38:35Z</time></trkpt><trkpt lat="39.49266350575683" lon="9.603346660918245"><ele>54.0</ele><time>2026-04-11T15:38:36Z</time></trkpt><trkpt lat="39.492428303450026" lon="9.60365842908433"><ele>54.0</ele><time>2026-04-11T15:38:37Z</time></trkpt><trkpt lat="39.49223139120491" lon="9.603941761449226"><ele>63.0</ele><time>2026-04-11T15:38:38Z</time></trkpt><trkpt lat="39.49201626071422" lon="9.604238249883213"><ele>72.0</ele><time>2026-04-11T15:38:39Z</time></trkpt><trkpt lat="39.491799470601514" lon="9.604533366237044"><ele>72.0</ele><time>2026-04-11T15:38:40Z</time></trkpt><trkpt lat="39.491581042913836" lon="9.604826781156238"><ele>72.0</ele><time>2026-04-11T15:38:41Z</time></trkpt><trkpt lat="39.49135512671498" lon="9.605118150343444"><ele>75.0</ele><time>2026-04-11T15:38:42Z</time></trkpt><trkpt lat="39.49111870046481" lon="9.605410764072777"><ele>78.0</ele><time>2026-04-11T15:38:43Z</time></trkpt><trkpt lat="39.4908737519538" lon="9.605696837474177"><ele>78.0</ele><time>2026-04-11T15:38:44Z</time></trkpt><trkpt lat="39.49061848858334" lon="9.605977711858758"><ele>78.0</ele><time>2026-04-11T15:38:45Z</time></trkpt><trkpt lat="39.49034958750191" lon="9.606251414243717"><ele>65.0</ele><time>2026-04-11T15:38:46Z</time></trkpt><trkpt lat="39.49006622408468" lon="9.606507619013154"><ele>52.0</ele><time>2026-04-11T15:38:47Z</time></trkpt><trkpt lat="39.48977260053158" lon="9.606715509920852"><ele>55.5</ele><time>2026-04-11T15:38:48Z</time></trkpt><trkpt lat="39.48949799872828" lon="9.606848543556897"><ele>59.0</ele><time>2026-04-11T15:38:49Z</time></trkpt><trkpt lat="39.48925428005706" lon="9.606927540215294"><ele>56.5</ele><time>2026-04-11T15:38:50Z</time></trkpt><trkpt lat="39.488985319493864" lon="9.607017227221437"><ele>54.0</ele><time>2026-04-11T15:38:51Z</time></trkpt><trkpt lat="39.488693820162844" lon="9.607104975516663"><ele>54.0</ele><time>2026-04-11T15:38:52Z</time></trkpt><trkpt lat="39.48839491844254" lon="9.607165896036573"><ele>54.0</ele><time>2026-04-11T15:38:53Z</time></trkpt><trkpt lat="39.48809240495746" lon="9.60720056878829"><ele>59.5</ele><time>2026-04-11T15:38:54Z</time></trkpt><trkpt lat="39.48778644913914" lon="9.607206512706158"><ele>65.0</ele><time>2026-04-11T15:38:55Z</time></trkpt><trkpt lat="39.48748439803004" lon="9.607185766736057"><ele>65.0</ele><time>2026-04-11T15:38:56Z</time></trkpt><trkpt lat="39.487181539887395" lon="9.607144303049317"><ele>65.0</ele><time>2026-04-11T15:38:57Z</time></trkpt><trkpt lat="39.48688244050667" lon="9.607075683140419"><ele>74.5</ele><time>2026-04-11T15:38:58Z</time></trkpt><trkpt lat="39.48658902256746" lon="9.60697876595402"><ele>84.0</ele><time>2026-04-11T15:38:59Z</time></trkpt><trkpt lat="39.48630202744739" lon="9.606858956016717"><ele>74.5</ele><time>2026-04-11T15:39:00Z</time></trkpt><trkpt lat="39.48602005366371" lon="9.606714079371642"><ele>65.0</ele><time>2026-04-11T15:39:01Z</time></trkpt><trkpt lat="39.48572695872248" lon="9.606541169443371"><ele>65.0</ele><time>2026-04-11T15:39:02Z</time></trkpt><trkpt lat="39.485434322301955" lon="9.606336248695563"><ele>65.0</ele><time>2026-04-11T15:39:03Z</time></trkpt><trkpt lat="39.485150843188215" lon="9.606116215772225"><ele>61.5</ele><time>2026-04-11T15:39:04Z</time></trkpt><trkpt lat="39.48486201073175" lon="9.60587171739022"><ele>58.0</ele><time>2026-04-11T15:39:05Z</time></trkpt><trkpt lat="39.484602220077186" lon="9.605651317566004"><ele>56.5</ele><time>2026-04-11T15:39:06Z</time></trkpt><trkpt lat="39.48429936145288" lon="9.60542830494857"><ele>55.0</ele><time>2026-04-11T15:39:07Z</time></trkpt><trkpt lat="39.48402959256016" lon="9.605191388828537"><ele>53.5</ele><time>2026-04-11T15:39:08Z</time></trkpt><trkpt lat="39.48375650368937" lon="9.60495161261006"><ele>52.0</ele><time>2026-04-11T15:39:09Z</time></trkpt><trkpt lat="39.48348672514179" lon="9.604705074593458"><ele>60.0</ele><time>2026-04-11T15:39:10Z</time></trkpt><trkpt lat="39.48321975241568" lon="9.604457265192544"><ele>68.0</ele><time>2026-04-11T15:39:11Z</time></trkpt><trkpt lat="39.48295218815729" lon="9.604213113993366"><ele>65.0</ele><time>2026-04-11T15:39:12Z</time></trkpt><trkpt lat="39.48267995353783" lon="9.60397614674961"><ele>62.0</ele><time>2026-04-11T15:39:13Z</time></trkpt><trkpt lat="39.48240698753886" lon="9.60374004218905"><ele>63.5</ele><time>2026-04-11T15:39:14Z</time></trkpt><trkpt lat="39.482140214401376" lon="9.60350567256895"><ele>65.0</ele><time>2026-04-11T15:39:15Z</time></trkpt><trkpt lat="39.4818775651756" lon="9.603272402484007"><ele>65.0</ele><time>2026-04-11T15:39:16Z</time></trkpt><trkpt lat="39.48161648826623" lon="9.603041722777329"><ele>65.0</ele><time>2026-04-11T15:39:17Z</time></trkpt><trkpt lat="39.48135929622323" lon="9.602811780467155"><ele>69.5</ele><time>2026-04-11T15:39:18Z</time></trkpt><trkpt lat="39.48110701138385" lon="9.602590545067404"><ele>74.0</ele><time>2026-04-11T15:39:19Z</time></trkpt><trkpt lat="39.48086077042255" lon="9.60237507424098"><ele>74.0</ele><time>2026-04-11T15:39:20Z</time></trkpt><trkpt lat="39.480615693927945" lon="9.602161327699791"><ele>74.0</ele><time>2026-04-11T15:39:21Z</time></trkpt><trkpt lat="39.480372316249" lon="9.601947795897294"><ele>79.5</ele><time>2026-04-11T15:39:22Z</time></trkpt><trkpt lat="39.48012789058119" lon="9.601734243421934"><ele>85.0</ele><time>2026-04-11T15:39:23Z</time></trkpt><trkpt lat="39.4798801973641" lon="9.601522216769752"><ele>85.0</ele><time>2026-04-11T15:39:24Z</time></trkpt><trkpt lat="39.47963445729905" lon="9.60130517920479"><ele>85.0</ele><time>2026-04-11T15:39:25Z</time></trkpt><trkpt lat="39.479387691652065" lon="9.60108947699941"><ele>95.5</ele><time>2026-04-11T15:39:26Z</time></trkpt><trkpt lat="39.47914313936232" lon="9.600833741330216"><ele>106.0</ele><time>2026-04-11T15:39:27Z</time></trkpt><trkpt lat="39.478894621150914" lon="9.600658150784064"><ele>111.5</ele><time>2026-04-11T15:39:28Z</time></trkpt><trkpt lat="39.478613572457085" lon="9.60047326927116"><ele>117.0</ele><time>2026-04-11T15:39:29.025Z</time></trkpt><trkpt lat="39.47841111582251" lon="9.600324171237597"><ele>117.0</ele><time>2026-04-11T15:39:30.026Z</time></trkpt><trkpt lat="39.47816123936241" lon="9.600157584472857"><ele>117.0</ele><time>2026-04-11T15:39:31.025Z</time></trkpt><trkpt lat="39.47792914562856" lon="9.599977315752568"><ele>110.5</ele><time>2026-04-11T15:39:31.975Z</time></trkpt><trkpt lat="39.47770923865325" lon="9.599804387164816"><ele>104.0</ele><time>2026-04-11T15:39:32.874Z</time></trkpt><trkpt lat="39.4774955140542" lon="9.59960974607545"><ele>99.0</ele><time>2026-04-11T15:39:33.776Z</time></trkpt><trkpt lat="39.47728922048612" lon="9.599391293032118"><ele>94.0</ele><time>2026-04-11T15:39:34.676Z</time></trkpt><trkpt lat="39.4762823441282" lon="9.599495585145485"><ele>84.0</ele><time>2026-04-11T15:39:37.45Z</time></trkpt><trkpt lat="39.475891366423006" lon="9.59936406144915"><ele>74.0</ele><time>2026-04-11T15:39:38.4Z</time></trkpt><trkpt lat="39.47560589915734" lon="9.59933506177124"><ele>74.0</ele><time>2026-04-11T15:39:39.35Z</time></trkpt><trkpt lat="39.475332144265984" lon="9.599309610271321"><ele>74.0</ele><time>2026-04-11T15:39:40.3Z</time></trkpt><trkpt lat="39.47505254354421" lon="9.59929759700612"><ele>74.0</ele><time>2026-04-11T15:39:41.25Z</time></trkpt><trkpt lat="39.47477094793463" lon="9.599283057154642"><ele>74.0</ele><time>2026-04-11T15:39:42.2Z</time></trkpt><trkpt lat="39.474495085206065" lon="9.599256747590955"><ele>78.0</ele><time>2026-04-11T15:39:43.15Z</time></trkpt><trkpt lat="39.47422297024223" lon="9.599220021490051"><ele>82.0</ele><time>2026-04-11T15:39:44.1Z</time></trkpt><trkpt lat="39.47394772485491" lon="9.599195407931271"><ele>79.0</ele><time>2026-04-11T15:39:45.05Z</time></trkpt><trkpt lat="39.47367874082337" lon="9.59915935653481"><ele>76.0</ele><time>2026-04-11T15:39:46Z</time></trkpt><trkpt lat="39.4733985775975" lon="9.599110845858014"><ele>76.0</ele><time>2026-04-11T15:39:47Z</time></trkpt><trkpt lat="39.473120183637974" lon="9.599051837695509"><ele>76.0</ele><time>2026-04-11T15:39:48Z</time></trkpt><trkpt lat="39.4728461580016" lon="9.59897831753084"><ele>67.5</ele><time>2026-04-11T15:39:49Z</time></trkpt><trkpt lat="39.47257517768512" lon="9.598889882795472"><ele>59.0</ele><time>2026-04-11T15:39:50Z</time></trkpt><trkpt lat="39.47230824471237" lon="9.598790161717668"><ele>60.5</ele><time>2026-04-11T15:39:51Z</time></trkpt><trkpt lat="39.47204557036195" lon="9.598680988001627"><ele>62.0</ele><time>2026-04-11T15:39:52Z</time></trkpt><trkpt lat="39.471789099233014" lon="9.598559411472651"><ele>62.0</ele><time>2026-04-11T15:39:53Z</time></trkpt><trkpt lat="39.47153645634439" lon="9.598422904291846"><ele>62.0</ele><time>2026-04-11T15:39:54Z</time></trkpt><trkpt lat="39.47128703519752" lon="9.598281942944668"><ele>67.0</ele><time>2026-04-11T15:39:55Z</time></trkpt><trkpt lat="39.471042897590905" lon="9.598129121855036"><ele>72.0</ele><time>2026-04-11T15:39:56Z</time></trkpt><trkpt lat="39.47080294489944" lon="9.597967091862749"><ele>79.0</ele><time>2026-04-11T15:39:57Z</time></trkpt><trkpt lat="39.470567314539956" lon="9.597794319795353"><ele>86.0</ele><time>2026-04-11T15:39:58Z</time></trkpt><trkpt lat="39.47033547575125" lon="9.597612946761103"><ele>86.0</ele><time>2026-04-11T15:39:59Z</time></trkpt><trkpt lat="39.47011056915602" lon="9.59742115063699"><ele>86.0</ele><time>2026-04-11T15:40:00Z</time></trkpt><trkpt lat="39.46989072863296" lon="9.597219786046661"><ele>86.0</ele><time>2026-04-11T15:40:01Z</time></trkpt><trkpt lat="39.46967268424343" lon="9.597012181290221"><ele>86.0</ele><time>2026-04-11T15:40:02Z</time></trkpt><trkpt lat="39.46945878619244" lon="9.59680052009098"><ele>87.5</ele><time>2026-04-11T15:40:03Z</time></trkpt><trkpt lat="39.46924868597892" lon="9.596582470999875"><ele>89.0</ele><time>2026-04-11T15:40:04Z</time></trkpt><trkpt lat="39.469041899816716" lon="9.59635701494416"><ele>88.5</ele><time>2026-04-11T15:40:05Z</time></trkpt><trkpt lat="39.46884376227973" lon="9.596123657685526"><ele>88.0</ele><time>2026-04-11T15:40:06Z</time></trkpt><trkpt lat="39.468644702303095" lon="9.59589111384687"><ele>88.0</ele><time>2026-04-11T15:40:07Z</time></trkpt><trkpt lat="39.4684467032388" lon="9.595660462972484"><ele>88.0</ele><time>2026-04-11T15:40:08Z</time></trkpt><trkpt lat="39.4682507514667" lon="9.595435424481382"><ele>93.0</ele><time>2026-04-11T15:40:09Z</time></trkpt><trkpt lat="39.468056752974405" lon="9.595210130485619"><ele>98.0</ele><time>2026-04-11T15:40:10Z</time></trkpt><trkpt lat="39.467862310685824" lon="9.594986030592587"><ele>98.0</ele><time>2026-04-11T15:40:11Z</time></trkpt><trkpt lat="39.46767080410969" lon="9.59476155296873"><ele>98.0</ele><time>2026-04-11T15:40:12Z</time></trkpt><trkpt lat="39.46747916947514" lon="9.59453737726534"><ele>101.0</ele><time>2026-04-11T15:40:13Z</time></trkpt><trkpt lat="39.46728726699883" lon="9.594313708369041"><ele>104.0</ele><time>2026-04-11T15:40:14Z</time></trkpt><trkpt lat="39.46709067574316" lon="9.594091726681137"><ele>104.0</ele><time>2026-04-11T15:40:15Z</time></trkpt><trkpt lat="39.466894415587966" lon="9.593871852678504"><ele>104.0</ele><time>2026-04-11T15:40:16Z</time></trkpt><trkpt lat="39.466699812427734" lon="9.593647834349687"><ele>106.5</ele><time>2026-04-11T15:40:17Z</time></trkpt><trkpt lat="39.466505980971064" lon="9.593421601665572"><ele>109.0</ele><time>2026-04-11T15:40:18Z</time></trkpt><trkpt lat="39.46631355294868" lon="9.593188834915006"><ele>104.5</ele><time>2026-04-11T15:40:19Z</time></trkpt><trkpt lat="39.466117307653114" lon="9.592955848965943"><ele>100.0</ele><time>2026-04-11T15:40:20Z</time></trkpt><trkpt lat="39.46591977391311" lon="9.592726301701424"><ele>100.0</ele><time>2026-04-11T15:40:21Z</time></trkpt><trkpt lat="39.46572136538747" lon="9.592499788872942"><ele>100.0</ele><time>2026-04-11T15:40:22Z</time></trkpt><trkpt lat="39.46551939207761" lon="9.592276781624756"><ele>97.5</ele><time>2026-04-11T15:40:23Z</time></trkpt><trkpt lat="39.465311462020495" lon="9.592057051021769"><ele>95.0</ele><time>2026-04-11T15:40:24Z</time></trkpt><trkpt lat="39.46509995864221" lon="9.591846661559835"><ele>95.0</ele><time>2026-04-11T15:40:25Z</time></trkpt><trkpt lat="39.46487915481634" lon="9.59164377769105"><ele>95.0</ele><time>2026-04-11T15:40:26Z</time></trkpt><trkpt lat="39.464655904376926" lon="9.591435992359838"><ele>87.5</ele><time>2026-04-11T15:40:27Z</time></trkpt><trkpt lat="39.464443196627684" lon="9.591240595506294"><ele>80.0</ele><time>2026-04-11T15:40:28Z</time></trkpt><trkpt lat="39.464218956207965" lon="9.591050423763011"><ele>80.0</ele><time>2026-04-11T15:40:29Z</time></trkpt><trkpt lat="39.463990599348996" lon="9.590872567174078"><ele>80.0</ele><time>2026-04-11T15:40:30Z</time></trkpt><trkpt lat="39.46375845534306" lon="9.590703449165272"><ele>76.5</ele><time>2026-04-11T15:40:31Z</time></trkpt><trkpt lat="39.46352177092512" lon="9.590545550106615"><ele>73.0</ele><time>2026-04-11T15:40:32Z</time></trkpt><trkpt lat="39.46328355577451" lon="9.590393673990114"><ele>71.5</ele><time>2026-04-11T15:40:33Z</time></trkpt><trkpt lat="39.46304532788804" lon="9.590245698499873"><ele>70.0</ele><time>2026-04-11T15:40:34Z</time></trkpt><trkpt lat="39.46280619585142" lon="9.590097639675852"><ele>70.0</ele><time>2026-04-11T15:40:35Z</time></trkpt><trkpt lat="39.46256740852638" lon="9.589951109727636"><ele>70.0</ele><time>2026-04-11T15:40:36Z</time></trkpt><trkpt lat="39.46233108456971" lon="9.589801765260617"><ele>68.0</ele><time>2026-04-11T15:40:37Z</time></trkpt><trkpt lat="39.46209597406705" lon="9.589650497825797"><ele>66.0</ele><time>2026-04-11T15:40:38Z</time></trkpt><trkpt lat="39.46185961822836" lon="9.589494100724007"><ele>65.5</ele><time>2026-04-11T15:40:39Z</time></trkpt><trkpt lat="39.461625353921335" lon="9.589337565445158"><ele>65.0</ele><time>2026-04-11T15:40:40Z</time></trkpt><trkpt lat="39.461393719749246" lon="9.589176232448857"><ele>64.0</ele><time>2026-04-11T15:40:41Z</time></trkpt><trkpt lat="39.461169407129006" lon="9.588997392618698"><ele>63.0</ele><time>2026-04-11T15:40:42Z</time></trkpt><trkpt lat="39.460951740021194" lon="9.58880194545227"><ele>70.0</ele><time>2026-04-11T15:40:43Z</time></trkpt><trkpt lat="39.46073960714759" lon="9.588594063591279"><ele>77.0</ele><time>2026-04-11T15:40:44Z</time></trkpt><trkpt lat="39.46053512253084" lon="9.588373383790593"><ele>78.0</ele><time>2026-04-11T15:40:45Z</time></trkpt><trkpt lat="39.46033941625407" lon="9.588140499995111"><ele>79.0</ele><time>2026-04-11T15:40:46Z</time></trkpt><trkpt lat="39.4601529821812" lon="9.5878943581323"><ele>83.5</ele><time>2026-04-11T15:40:47Z</time></trkpt><trkpt lat="39.45997566871946" lon="9.587638903655568"><ele>88.0</ele><time>2026-04-11T15:40:48Z</time></trkpt><trkpt lat="39.45980534823711" lon="9.587375297802208"><ele>88.0</ele><time>2026-04-11T15:40:49Z</time></trkpt><trkpt lat="39.45964326050073" lon="9.587102604234968"><ele>88.0</ele><time>2026-04-11T15:40:50Z</time></trkpt><trkpt lat="39.45949352391951" lon="9.586818848571747"><ele>80.5</ele><time>2026-04-11T15:40:51Z</time></trkpt><trkpt lat="39.45935702630382" lon="9.586526242393797"><ele>73.0</ele><time>2026-04-11T15:40:52Z</time></trkpt><trkpt lat="39.45923653590118" lon="9.586222396774563"><ele>75.5</ele><time>2026-04-11T15:40:53Z</time></trkpt><trkpt lat="39.45912871059733" lon="9.585912764135141"><ele>78.0</ele><time>2026-04-11T15:40:54Z</time></trkpt><trkpt lat="39.459030377398925" lon="9.585600328315817"><ele>80.5</ele><time>2026-04-11T15:40:55Z</time></trkpt><trkpt lat="39.458939649725345" lon="9.585286922586109"><ele>83.0</ele><time>2026-04-11T15:40:56Z</time></trkpt><trkpt lat="39.458867567697105" lon="9.584971023289265"><ele>83.0</ele><time>2026-04-11T15:40:57Z</time></trkpt><trkpt lat="39.45879868374258" lon="9.584656173510384"><ele>83.0</ele><time>2026-04-11T15:40:58Z</time></trkpt><trkpt lat="39.45873222360206" lon="9.584342034209083"><ele>79.5</ele><time>2026-04-11T15:40:59Z</time></trkpt><trkpt lat="39.45866495454312" lon="9.584028116832426"><ele>76.0</ele><time>2026-04-11T15:41:00Z</time></trkpt><trkpt lat="39.45860086406579" lon="9.583715858032363"><ele>81.0</ele><time>2026-04-11T15:41:01Z</time></trkpt><trkpt lat="39.45854355541763" lon="9.583410287304693"><ele>86.0</ele><time>2026-04-11T15:41:02Z</time></trkpt><trkpt lat="39.45849864768259" lon="9.583105819453523"><ele>92.5</ele><time>2026-04-11T15:41:03Z</time></trkpt><trkpt lat="39.45842936914951" lon="9.582796995588334"><ele>99.0</ele><time>2026-04-11T15:41:04Z</time></trkpt><trkpt lat="39.458377045191675" lon="9.582493247458695"><ele>99.0</ele><time>2026-04-11T15:41:05Z</time></trkpt><trkpt lat="39.45831107155662" lon="9.582195488597726"><ele>99.0</ele><time>2026-04-11T15:41:06Z</time></trkpt><trkpt lat="39.45827163508564" lon="9.581895089958351"><ele>108.5</ele><time>2026-04-11T15:41:07Z</time></trkpt><trkpt lat="39.45821730168449" lon="9.581600010368213"><ele>118.0</ele><time>2026-04-11T15:41:08Z</time></trkpt><trkpt lat="39.45816290196868" lon="9.581304570496016"><ele>131.5</ele><time>2026-04-11T15:41:09Z</time></trkpt><trkpt lat="39.45810877396209" lon="9.581009736393629"><ele>145.0</ele><time>2026-04-11T15:41:10Z</time></trkpt><trkpt lat="39.458053844151415" lon="9.580710209020385"><ele>145.0</ele><time>2026-04-11T15:41:11.027Z</time></trkpt><trkpt lat="39.45800073600536" lon="9.580420615043975"><ele>145.0</ele><time>2026-04-11T15:41:12.026Z</time></trkpt><trkpt lat="39.45794851951554" lon="9.580135883179937"><ele>159.0</ele><time>2026-04-11T15:41:13.025Z</time></trkpt><trkpt lat="39.457881354988366" lon="9.579850138707725"><ele>173.0</ele><time>2026-04-11T15:41:14.026Z</time></trkpt><trkpt lat="39.4578732734221" lon="9.579557032534588"><ele>171.0</ele><time>2026-04-11T15:41:14.975Z</time></trkpt><trkpt lat="39.45783652155801" lon="9.57929413675209"><ele>169.0</ele><time>2026-04-11T15:41:15.875Z</time></trkpt><trkpt lat="39.45780026245121" lon="9.57902644719949"><ele>167.0</ele><time>2026-04-11T15:41:16.776Z</time></trkpt><trkpt lat="39.45698884388732" lon="9.575796012459925"><ele>123.0</ele><time>2026-04-11T15:41:26.35Z</time></trkpt><trkpt lat="39.45690538135318" lon="9.575497372215782"><ele>79.0</ele><time>2026-04-11T15:41:27.3Z</time></trkpt><trkpt lat="39.45682706125589" lon="9.575192284323414"><ele>74.0</ele><time>2026-04-11T15:41:28.25Z</time></trkpt><trkpt lat="39.45673751347737" lon="9.574894835441276"><ele>69.0</ele><time>2026-04-11T15:41:29.2Z</time></trkpt><trkpt lat="39.45663795984574" lon="9.574602415348421"><ele>71.0</ele><time>2026-04-11T15:41:30.15Z</time></trkpt><trkpt lat="39.456535258232535" lon="9.574312509034115"><ele>73.0</ele><time>2026-04-11T15:41:31.1Z</time></trkpt><trkpt lat="39.45642389865196" lon="9.574027442927973"><ele>73.0</ele><time>2026-04-11T15:41:32.05Z</time></trkpt><trkpt lat="39.45630480603856" lon="9.573746778030236"><ele>73.0</ele><time>2026-04-11T15:41:33Z</time></trkpt><trkpt lat="39.45617347362945" lon="9.573455825723071"><ele>70.5</ele><time>2026-04-11T15:41:34Z</time></trkpt><trkpt lat="39.4560379093692" lon="9.573167315109679"><ele>68.0</ele><time>2026-04-11T15:41:35Z</time></trkpt><trkpt lat="39.45589873804516" lon="9.572879989817059"><ele>71.0</ele><time>2026-04-11T15:41:36Z</time></trkpt><trkpt lat="39.45575457969159" lon="9.57259816080239"><ele>74.0</ele><time>2026-04-11T15:41:37Z</time></trkpt><trkpt lat="39.45558813120928" lon="9.572329940040122"><ele>70.5</ele><time>2026-04-11T15:41:38Z</time></trkpt><trkpt lat="39.4554327757849" lon="9.572055494137704"><ele>67.0</ele><time>2026-04-11T15:41:39Z</time></trkpt><trkpt lat="39.455275790630914" lon="9.5717902064726"><ele>67.0</ele><time>2026-04-11T15:41:40Z</time></trkpt><trkpt lat="39.45511108783193" lon="9.571528812068093"><ele>67.0</ele><time>2026-04-11T15:41:41Z</time></trkpt><trkpt lat="39.45493968983788" lon="9.571275937194217"><ele>62.5</ele><time>2026-04-11T15:41:42Z</time></trkpt><trkpt lat="39.454764604711485" lon="9.571036563412457"><ele>58.0</ele><time>2026-04-11T15:41:43Z</time></trkpt><trkpt lat="39.45458075819308" lon="9.570793481051078"><ele>58.0</ele><time>2026-04-11T15:41:44Z</time></trkpt><trkpt lat="39.45440042265028" lon="9.570557166246875"><ele>58.0</ele><time>2026-04-11T15:41:45Z</time></trkpt><trkpt lat="39.45421619741357" lon="9.570324556659964"><ele>61.0</ele><time>2026-04-11T15:41:46Z</time></trkpt><trkpt lat="39.45402844131252" lon="9.570097595022068"><ele>64.0</ele><time>2026-04-11T15:41:47Z</time></trkpt><trkpt lat="39.45383610680572" lon="9.569881629112245"><ele>60.0</ele><time>2026-04-11T15:41:48Z</time></trkpt><trkpt lat="39.45364086273596" lon="9.569669185069081"><ele>56.0</ele><time>2026-04-11T15:41:49Z</time></trkpt><trkpt lat="39.453446568946006" lon="9.569459106305592"><ele>56.0</ele><time>2026-04-11T15:41:50Z</time></trkpt><trkpt lat="39.45324058785929" lon="9.569262960373251"><ele>56.0</ele><time>2026-04-11T15:41:51Z</time></trkpt><trkpt lat="39.453030564515736" lon="9.569074414042614"><ele>50.5</ele><time>2026-04-11T15:41:52Z</time></trkpt><trkpt lat="39.45281929103557" lon="9.568889170844397"><ele>45.0</ele><time>2026-04-11T15:41:53Z</time></trkpt><trkpt lat="39.45260733449084" lon="9.568706880070106"><ele>48.5</ele><time>2026-04-11T15:41:54Z</time></trkpt><trkpt lat="39.45239598803955" lon="9.568526835532117"><ele>52.0</ele><time>2026-04-11T15:41:55Z</time></trkpt><trkpt lat="39.45218459175585" lon="9.568349695846981"><ele>47.5</ele><time>2026-04-11T15:41:56Z</time></trkpt><trkpt lat="39.451972127588505" lon="9.568181554127762"><ele>43.0</ele><time>2026-04-11T15:41:57Z</time></trkpt><trkpt lat="39.451757020025376" lon="9.568023619760668"><ele>43.0</ele><time>2026-04-11T15:41:58Z</time></trkpt><trkpt lat="39.45153906382949" lon="9.56787128447599"><ele>43.0</ele><time>2026-04-11T15:41:59Z</time></trkpt><trkpt lat="39.45132274407343" lon="9.567716568016332"><ele>42.0</ele><time>2026-04-11T15:42:00Z</time></trkpt><trkpt lat="39.451108097945884" lon="9.567560540428731"><ele>41.0</ele><time>2026-04-11T15:42:01Z</time></trkpt><trkpt lat="39.450896207582886" lon="9.567404419961365"><ele>41.0</ele><time>2026-04-11T15:42:02Z</time></trkpt><trkpt lat="39.45068473322209" lon="9.567249847401328"><ele>41.0</ele><time>2026-04-11T15:42:03Z</time></trkpt><trkpt lat="39.45047323765979" lon="9.567100007234712"><ele>41.5</ele><time>2026-04-11T15:42:04Z</time></trkpt><trkpt lat="39.450262265261784" lon="9.566955679397335"><ele>42.0</ele><time>2026-04-11T15:42:05Z</time></trkpt><trkpt lat="39.45005290165731" lon="9.566810208809695"><ele>42.0</ele><time>2026-04-11T15:42:06Z</time></trkpt><trkpt lat="39.449846242232304" lon="9.566666721451318"><ele>42.0</ele><time>2026-04-11T15:42:07Z</time></trkpt><trkpt lat="39.4496408685633" lon="9.56652301052477"><ele>39.5</ele><time>2026-04-11T15:42:08Z</time></trkpt><trkpt lat="39.44943595069883" lon="9.566380060625384"><ele>37.0</ele><time>2026-04-11T15:42:09Z</time></trkpt><trkpt lat="39.44923220782409" lon="9.56623756387065"><ele>41.0</ele><time>2026-04-11T15:42:10Z</time></trkpt><trkpt lat="39.44903240060811" lon="9.566096670726228"><ele>45.0</ele><time>2026-04-11T15:42:11Z</time></trkpt><trkpt lat="39.44883197667061" lon="9.565957876108598"><ele>40.5</ele><time>2026-04-11T15:42:12Z</time></trkpt><trkpt lat="39.44863178877462" lon="9.56581832552198"><ele>36.0</ele><time>2026-04-11T15:42:13Z</time></trkpt><trkpt lat="39.44843368333438" lon="9.565671162531329"><ele>36.0</ele><time>2026-04-11T15:42:14Z</time></trkpt><trkpt lat="39.44823684487095" lon="9.56552139763548"><ele>36.0</ele><time>2026-04-11T15:42:15Z</time></trkpt><trkpt lat="39.44804806688927" lon="9.565359534631446"><ele>34.5</ele><time>2026-04-11T15:42:16Z</time></trkpt><trkpt lat="39.447857644857976" lon="9.565197979469595"><ele>33.0</ele><time>2026-04-11T15:42:17Z</time></trkpt><trkpt lat="39.44767225157682" lon="9.565029273817068"><ele>33.0</ele><time>2026-04-11T15:42:18Z</time></trkpt><trkpt lat="39.447487245386185" lon="9.564858417389164"><ele>33.0</ele><time>2026-04-11T15:42:19Z</time></trkpt><trkpt lat="39.447305079268865" lon="9.564687608337898"><ele>32.5</ele><time>2026-04-11T15:42:20Z</time></trkpt><trkpt lat="39.447125313039415" lon="9.564507973518952"><ele>32.0</ele><time>2026-04-11T15:42:21Z</time></trkpt><trkpt lat="39.44694822648152" lon="9.56432276277843"><ele>32.0</ele><time>2026-04-11T15:42:22Z</time></trkpt><trkpt lat="39.44677630391697" lon="9.564133521921296"><ele>32.0</ele><time>2026-04-11T15:42:23Z</time></trkpt><trkpt lat="39.446601404501564" lon="9.56394340365815"><ele>32.0</ele><time>2026-04-11T15:42:24Z</time></trkpt><trkpt lat="39.44643242676714" lon="9.563748480833752"><ele>32.0</ele><time>2026-04-11T15:42:25Z</time></trkpt><trkpt lat="39.44626085877873" lon="9.56356096253532"><ele>28.666666666666664</ele><time>2026-04-11T15:42:26Z</time></trkpt><trkpt lat="39.44609099988868" lon="9.563371504293949"><ele>25.333333333333332</ele><time>2026-04-11T15:42:27Z</time></trkpt><trkpt lat="39.445920822908796" lon="9.56318049932863"><ele>22.0</ele><time>2026-04-11T15:42:28Z</time></trkpt><trkpt lat="39.445753939592905" lon="9.562986447369695"><ele>23.5</ele><time>2026-04-11T15:42:29Z</time></trkpt><trkpt lat="39.44559099450424" lon="9.562784675071402"><ele>25.0</ele><time>2026-04-11T15:42:30Z</time></trkpt><trkpt lat="39.44542747397038" lon="9.562581631808799"><ele>25.333333333333336</ele><time>2026-04-11T15:42:31Z</time></trkpt><trkpt lat="39.44526202597582" lon="9.562399592323352"><ele>25.666666666666664</ele><time>2026-04-11T15:42:32Z</time></trkpt><trkpt lat="39.44509096746217" lon="9.56221682537194"><ele>26.0</ele><time>2026-04-11T15:42:33Z</time></trkpt><trkpt lat="39.44492182531716" lon="9.562022600943152"><ele>26.0</ele><time>2026-04-11T15:42:34Z</time></trkpt><trkpt lat="39.44475850340837" lon="9.561826700612134"><ele>26.0</ele><time>2026-04-11T15:42:35Z</time></trkpt><trkpt lat="39.444594966502684" lon="9.56163157955707"><ele>26.0</ele><time>2026-04-11T15:42:36Z</time></trkpt><trkpt lat="39.444431711629946" lon="9.561436995642937"><ele>26.333333333333332</ele><time>2026-04-11T15:42:37Z</time></trkpt><trkpt lat="39.44426792643984" lon="9.56124926719759"><ele>26.666666666666664</ele><time>2026-04-11T15:42:38Z</time></trkpt><trkpt lat="39.44410098370511" lon="9.561064345293877"><ele>27.0</ele><time>2026-04-11T15:42:39Z</time></trkpt><trkpt lat="39.44393269285297" lon="9.560883189222096"><ele>26.666666666666664</ele><time>2026-04-11T15:42:40Z</time></trkpt><trkpt lat="39.44376219894564" lon="9.560706822312914"><ele>26.333333333333332</ele><time>2026-04-11T15:42:41Z</time></trkpt><trkpt lat="39.44359170077839" lon="9.560532258367656"><ele>26.0</ele><time>2026-04-11T15:42:42Z</time></trkpt><trkpt lat="39.44341897040697" lon="9.560353598349241"><ele>26.0</ele><time>2026-04-11T15:42:43Z</time></trkpt><trkpt lat="39.443244143105034" lon="9.560176849877477"><ele>26.0</ele><time>2026-04-11T15:42:44Z</time></trkpt><trkpt lat="39.44306324055641" lon="9.560006295616791"><ele>26.0</ele><time>2026-04-11T15:42:45Z</time></trkpt><trkpt lat="39.442877830932446" lon="9.559850329917841"><ele>22.666666666666664</ele><time>2026-04-11T15:42:46Z</time></trkpt><trkpt lat="39.442687906940456" lon="9.55969533566958"><ele>19.333333333333332</ele><time>2026-04-11T15:42:47Z</time></trkpt><trkpt lat="39.442496298238666" lon="9.559547946027767"><ele>16.0</ele><time>2026-04-11T15:42:48Z</time></trkpt><trkpt lat="39.44230066268457" lon="9.559404193504273"><ele>14.333333333333332</ele><time>2026-04-11T15:42:49Z</time></trkpt><trkpt lat="39.44210159403729" lon="9.559272701838797"><ele>12.666666666666666</ele><time>2026-04-11T15:42:50Z</time></trkpt><trkpt lat="39.44190057235487" lon="9.55915046064211"><ele>11.0</ele><time>2026-04-11T15:42:51Z</time></trkpt><trkpt lat="39.44169254225101" lon="9.55903201745728"><ele>11.0</ele><time>2026-04-11T15:42:52Z</time></trkpt><trkpt lat="39.441482976457586" lon="9.558923024385395"><ele>11.0</ele><time>2026-04-11T15:42:53Z</time></trkpt><trkpt lat="39.4412696162027" lon="9.558821125380257"><ele>10.0</ele><time>2026-04-11T15:42:54Z</time></trkpt><trkpt lat="39.441053243130476" lon="9.558730706010156"><ele>9.0</ele><time>2026-04-11T15:42:55Z</time></trkpt><trkpt lat="39.440834593188484" lon="9.558650715550261"><ele>8.5</ele><time>2026-04-11T15:42:56Z</time></trkpt><trkpt lat="39.440613892994065" lon="9.558579553192308"><ele>8.0</ele><time>2026-04-11T15:42:57Z</time></trkpt><trkpt lat="39.44039057299049" lon="9.558516932934527"><ele>7.0</ele><time>2026-04-11T15:42:58Z</time></trkpt><trkpt lat="39.440167800431006" lon="9.558460922644146"><ele>6.0</ele><time>2026-04-11T15:42:59Z</time></trkpt><trkpt lat="39.4399409688418" lon="9.558412154620166"><ele>6.0</ele><time>2026-04-11T15:43:00Z</time></trkpt><trkpt lat="39.43971497447339" lon="9.55837470087304"><ele>6.0</ele><time>2026-04-11T15:43:01Z</time></trkpt><trkpt lat="39.43948835549836" lon="9.558348161303952"><ele>7.0</ele><time>2026-04-11T15:43:02Z</time></trkpt><trkpt lat="39.439255596798766" lon="9.558329808244162"><ele>8.0</ele><time>2026-04-11T15:43:03Z</time></trkpt><trkpt lat="39.43902630094524" lon="9.558319723836693"><ele>8.5</ele><time>2026-04-11T15:43:04Z</time></trkpt><trkpt lat="39.43879505723719" lon="9.55831709834856"><ele>9.0</ele><time>2026-04-11T15:43:05Z</time></trkpt><trkpt lat="39.43856485938764" lon="9.55832387582766"><ele>9.0</ele><time>2026-04-11T15:43:06Z</time></trkpt><trkpt lat="39.43833591827818" lon="9.558333345427013"><ele>9.0</ele><time>2026-04-11T15:43:07Z</time></trkpt><trkpt lat="39.43810698343551" lon="9.558347826486763"><ele>9.0</ele><time>2026-04-11T15:43:08Z</time></trkpt><trkpt lat="39.43787957417819" lon="9.5583683325316"><ele>9.0</ele><time>2026-04-11T15:43:09Z</time></trkpt><trkpt lat="39.43765064818506" lon="9.558391623085495"><ele>9.0</ele><time>2026-04-11T15:43:10Z</time></trkpt><trkpt lat="39.43742162456203" lon="9.558414214424255"><ele>9.0</ele><time>2026-04-11T15:43:11Z</time></trkpt><trkpt lat="39.43719314109254" lon="9.558434869261404"><ele>8.5</ele><time>2026-04-11T15:43:12Z</time></trkpt><trkpt lat="39.436964921184845" lon="9.558455874073505"><ele>8.0</ele><time>2026-04-11T15:43:13Z</time></trkpt><trkpt lat="39.43673735718708" lon="9.558479089401386"><ele>8.0</ele><time>2026-04-11T15:43:14Z</time></trkpt><trkpt lat="39.43650957845813" lon="9.558502053150942"><ele>8.0</ele><time>2026-04-11T15:43:15Z</time></trkpt><trkpt lat="39.43628365744762" lon="9.55852297098014"><ele>8.0</ele><time>2026-04-11T15:43:16Z</time></trkpt><trkpt lat="39.43605804301971" lon="9.558546915904918"><ele>8.0</ele><time>2026-04-11T15:43:17Z</time></trkpt><trkpt lat="39.43583112376274" lon="9.558573084521838"><ele>8.0</ele><time>2026-04-11T15:43:18Z</time></trkpt><trkpt lat="39.43560290381863" lon="9.558598547056791"><ele>8.0</ele><time>2026-04-11T15:43:19Z</time></trkpt><trkpt lat="39.43537499587297" lon="9.558622647701412"><ele>8.0</ele><time>2026-04-11T15:43:20Z</time></trkpt><trkpt lat="39.43514555020464" lon="9.55864418302598"><ele>8.0</ele><time>2026-04-11T15:43:21Z</time></trkpt><trkpt lat="39.43491516781575" lon="9.558668127277183"><ele>8.0</ele><time>2026-04-11T15:43:22Z</time></trkpt><trkpt lat="39.43468275095773" lon="9.558697917232633"><ele>8.0</ele><time>2026-04-11T15:43:23Z</time></trkpt><trkpt lat="39.43445187088754" lon="9.558727737139654"><ele>8.0</ele><time>2026-04-11T15:43:24Z</time></trkpt><trkpt lat="39.43421801074197" lon="9.558756868786064"><ele>8.0</ele><time>2026-04-11T15:43:25Z</time></trkpt><trkpt lat="39.433984507319046" lon="9.558783879915376"><ele>7.5</ele><time>2026-04-11T15:43:26Z</time></trkpt><trkpt lat="39.433751353714726" lon="9.558806000124623"><ele>7.0</ele><time>2026-04-11T15:43:27Z</time></trkpt><trkpt lat="39.433515782623495" lon="9.558824232849348"><ele>7.0</ele><time>2026-04-11T15:43:28Z</time></trkpt><trkpt lat="39.43328336544707" lon="9.558846991109235"><ele>7.0</ele><time>2026-04-11T15:43:29Z</time></trkpt><trkpt lat="39.4330510355534" lon="9.558875219208906"><ele>7.0</ele><time>2026-04-11T15:43:30Z</time></trkpt><trkpt lat="39.43282107904695" lon="9.55889897598433"><ele>7.0</ele><time>2026-04-11T15:43:31Z</time></trkpt><trkpt lat="39.43259057678172" lon="9.558923150361979"><ele>7.0</ele><time>2026-04-11T15:43:32Z</time></trkpt><trkpt lat="39.43236419023624" lon="9.558945667004197"><ele>7.0</ele><time>2026-04-11T15:43:33Z</time></trkpt><trkpt lat="39.43213661920068" lon="9.558968871376115"><ele>7.0</ele><time>2026-04-11T15:43:34Z</time></trkpt><trkpt lat="39.431913025240696" lon="9.558991464824407"><ele>7.0</ele><time>2026-04-11T15:43:35Z</time></trkpt><trkpt lat="39.43169004548173" lon="9.559014648240085"><ele>7.0</ele><time>2026-04-11T15:43:36Z</time></trkpt><trkpt lat="39.43147162760262" lon="9.559036554889833"><ele>7.333333333333334</ele><time>2026-04-11T15:43:37Z</time></trkpt><trkpt lat="39.431269597876174" lon="9.559056486492828"><ele>7.666666666666666</ele><time>2026-04-11T15:43:38Z</time></trkpt><trkpt lat="39.431074475757164" lon="9.559073097107824"><ele>8.0</ele><time>2026-04-11T15:43:39Z</time></trkpt><trkpt lat="39.43088601525842" lon="9.559083739958307"><ele>8.0</ele><time>2026-04-11T15:43:40Z</time></trkpt><trkpt lat="39.43070930670806" lon="9.55910094257438"><ele>8.0</ele><time>2026-04-11T15:43:41Z</time></trkpt><trkpt lat="39.43053400266229" lon="9.559117467382906"><ele>8.0</ele><time>2026-04-11T15:43:42Z</time></trkpt><trkpt lat="39.430368675663594" lon="9.559127787301664"><ele>8.0</ele><time>2026-04-11T15:43:43Z</time></trkpt><trkpt lat="39.43021235654928" lon="9.559123204906886"><ele>8.0</ele><time>2026-04-11T15:43:44Z</time></trkpt><trkpt lat="39.430065274940354" lon="9.559083480742943"><ele>8.0</ele><time>2026-04-11T15:43:45Z</time></trkpt><trkpt lat="39.42994211891092" lon="9.558992655105806"><ele>8.0</ele><time>2026-04-11T15:43:46Z</time></trkpt><trkpt lat="39.429848746142106" lon="9.558854778909938"><ele>8.25</ele><time>2026-04-11T15:43:47Z</time></trkpt><trkpt lat="39.42978830574481" lon="9.558685062121683"><ele>8.5</ele><time>2026-04-11T15:43:48Z</time></trkpt><trkpt lat="39.42976172537679" lon="9.558495277489003"><ele>8.75</ele><time>2026-04-11T15:43:49Z</time></trkpt><trkpt lat="39.42977355677122" lon="9.558294809043081"><ele>9.0</ele><time>2026-04-11T15:43:50Z</time></trkpt><trkpt lat="39.42982732813731" lon="9.558106796792616"><ele>9.0</ele><time>2026-04-11T15:43:51Z</time></trkpt><trkpt lat="39.42991370313894" lon="9.55794691527847"><ele>9.0</ele><time>2026-04-11T15:43:52Z</time></trkpt><trkpt lat="39.43002045912845" lon="9.557813647774136"><ele>9.0</ele><time>2026-04-11T15:43:53Z</time></trkpt><trkpt lat="39.430115140008105" lon="9.557657444240874"><ele>9.333333333333334</ele><time>2026-04-11T15:43:54Z</time></trkpt><trkpt lat="39.43020095046052" lon="9.55748942484096"><ele>9.666666666666668</ele><time>2026-04-11T15:43:55Z</time></trkpt><trkpt lat="39.43029383408041" lon="9.557316107627695"><ele>10.0</ele><time>2026-04-11T15:43:56Z</time></trkpt><trkpt lat="39.43040448251773" lon="9.557149919214423"><ele>9.666666666666668</ele><time>2026-04-11T15:43:57Z</time></trkpt><trkpt lat="39.43051880027439" lon="9.556982382042202"><ele>9.333333333333334</ele><time>2026-04-11T15:43:58Z</time></trkpt><trkpt lat="39.430629838967945" lon="9.556813800221743"><ele>9.0</ele><time>2026-04-11T15:43:59Z</time></trkpt><trkpt lat="39.430739066702486" lon="9.5566481953658"><ele>9.0</ele><time>2026-04-11T15:44:00Z</time></trkpt><trkpt lat="39.430850227550415" lon="9.556481827262765"><ele>9.0</ele><time>2026-04-11T15:44:01Z</time></trkpt><trkpt lat="39.43096171348087" lon="9.556314348743303"><ele>9.0</ele><time>2026-04-11T15:44:02Z</time></trkpt><trkpt lat="39.431074965627104" lon="9.55614187590984"><ele>9.666666666666666</ele><time>2026-04-11T15:44:03Z</time></trkpt><trkpt lat="39.43118875031566" lon="9.555966225491696"><ele>10.333333333333332</ele><time>2026-04-11T15:44:04Z</time></trkpt><trkpt lat="39.43130391258064" lon="9.555790444229663"><ele>11.0</ele><time>2026-04-11T15:44:05Z</time></trkpt><trkpt lat="39.43142241508764" lon="9.5556129413907"><ele>11.0</ele><time>2026-04-11T15:44:06Z</time></trkpt><trkpt lat="39.43153951049584" lon="9.555434263467927"><ele>11.0</ele><time>2026-04-11T15:44:07Z</time></trkpt><trkpt lat="39.431655358442036" lon="9.55525091499103"><ele>11.0</ele><time>2026-04-11T15:44:08Z</time></trkpt><trkpt lat="39.43177217675011" lon="9.555068511274476"><ele>11.333333333333332</ele><time>2026-04-11T15:44:09Z</time></trkpt><trkpt lat="39.43189254934854" lon="9.554895013833294"><ele>11.666666666666666</ele><time>2026-04-11T15:44:10Z</time></trkpt><trkpt lat="39.43201552796857" lon="9.554723795699871"><ele>12.0</ele><time>2026-04-11T15:44:11Z</time></trkpt><trkpt lat="39.432138687170124" lon="9.554558166331386"><ele>12.0</ele><time>2026-04-11T15:44:12Z</time></trkpt><trkpt lat="39.432269884778606" lon="9.554397305920963"><ele>12.0</ele><time>2026-04-11T15:44:13Z</time></trkpt><trkpt lat="39.43240386259505" lon="9.55423754986994"><ele>12.0</ele><time>2026-04-11T15:44:14Z</time></trkpt><trkpt lat="39.432534161350866" lon="9.554072302678339"><ele>12.0</ele><time>2026-04-11T15:44:15Z</time></trkpt><trkpt lat="39.43266638709162" lon="9.553900085251735"><ele>12.0</ele><time>2026-04-11T15:44:16Z</time></trkpt><trkpt lat="39.43280163581303" lon="9.553731791109405"><ele>12.0</ele><time>2026-04-11T15:44:17Z</time></trkpt><trkpt lat="39.43293864712438" lon="9.553566645629243"><ele>12.0</ele><time>2026-04-11T15:44:18Z</time></trkpt><trkpt lat="39.43307829646608" lon="9.553399127835466"><ele>12.0</ele><time>2026-04-11T15:44:19Z</time></trkpt><trkpt lat="39.433216351849744" lon="9.553231433452721"><ele>12.0</ele><time>2026-04-11T15:44:20Z</time></trkpt><trkpt lat="39.43335027915604" lon="9.553063123481845"><ele>12.0</ele><time>2026-04-11T15:44:21Z</time></trkpt><trkpt lat="39.43348696558391" lon="9.552895583178277"><ele>12.0</ele><time>2026-04-11T15:44:22Z</time></trkpt><trkpt lat="39.43362545095603" lon="9.552729896411654"><ele>12.0</ele><time>2026-04-11T15:44:23Z</time></trkpt><trkpt lat="39.43376038097476" lon="9.552563234770853"><ele>12.333333333333332</ele><time>2026-04-11T15:44:24Z</time></trkpt><trkpt lat="39.43389499349624" lon="9.552400992265827"><ele>12.666666666666666</ele><time>2026-04-11T15:44:25Z</time></trkpt><trkpt lat="39.43402623461745" lon="9.552237978584184"><ele>13.0</ele><time>2026-04-11T15:44:26Z</time></trkpt><trkpt lat="39.434156085578245" lon="9.55207491944477"><ele>13.0</ele><time>2026-04-11T15:44:27Z</time></trkpt><trkpt lat="39.43428179714589" lon="9.551917577660443"><ele>13.0</ele><time>2026-04-11T15:44:28Z</time></trkpt><trkpt lat="39.4344012303739" lon="9.55177588302661"><ele>13.0</ele><time>2026-04-11T15:44:29Z</time></trkpt><trkpt lat="39.4345169294911" lon="9.551646217638927"><ele>13.0</ele><time>2026-04-11T15:44:30Z</time></trkpt><trkpt lat="39.43462104656461" lon="9.551526357510886"><ele>13.0</ele><time>2026-04-11T15:44:31Z</time></trkpt><trkpt lat="39.43471823757987" lon="9.55141786135904"><ele>13.0</ele><time>2026-04-11T15:44:32Z</time></trkpt><trkpt lat="39.43480649191044" lon="9.551316291311506"><ele>13.0</ele><time>2026-04-11T15:44:33Z</time></trkpt><trkpt lat="39.43488340642515" lon="9.551223196100656"><ele>12.833333333333332</ele><time>2026-04-11T15:44:34Z</time></trkpt><trkpt lat="39.43495207840981" lon="9.551138077526174"><ele>12.666666666666666</ele><time>2026-04-11T15:44:35Z</time></trkpt><trkpt lat="39.435002779539616" lon="9.551060849537873"><ele>12.5</ele><time>2026-04-11T15:44:36Z</time></trkpt><trkpt lat="39.435029117802124" lon="9.550980816664845"><ele>12.333333333333332</ele><time>2026-04-11T15:44:37Z</time></trkpt><trkpt lat="39.43501208522925" lon="9.55083650839771"><ele>12.166666666666666</ele><time>2026-04-11T15:44:39Z</time></trkpt><trkpt lat="39.4349508912244" lon="9.550782467212638"><ele>12.0</ele><time>2026-04-11T15:44:40Z</time></trkpt><trkpt lat="39.4348699317365" lon="9.550773142180816"><ele>12.0</ele><time>2026-04-11T15:44:41Z</time></trkpt><trkpt lat="39.434779856814664" lon="9.550796646610205"><ele>12.0</ele><time>2026-04-11T15:44:42Z</time></trkpt><trkpt lat="39.434683954364445" lon="9.550729215940116"><ele>12.0</ele><time>2026-04-11T15:44:43Z</time></trkpt><trkpt lat="39.434608126528744" lon="9.550661452382169"><ele>12.0</ele><time>2026-04-11T15:44:44Z</time></trkpt><trkpt lat="39.43454221482349" lon="9.550555885291963"><ele>12.0</ele><time>2026-04-11T15:44:45Z</time></trkpt><trkpt lat="39.434476686320195" lon="9.550441436165025"><ele>13.0</ele><time>2026-04-11T15:44:46Z</time></trkpt><trkpt lat="39.434399490511595" lon="9.550328394017678"><ele>14.0</ele><time>2026-04-11T15:44:47Z</time></trkpt><trkpt lat="39.43430992759689" lon="9.550217509945398"><ele>15.0</ele><time>2026-04-11T15:44:48Z</time></trkpt><trkpt lat="39.434215594930045" lon="9.550098175366534"><ele>16.0</ele><time>2026-04-11T15:44:49Z</time></trkpt><trkpt lat="39.43411945708353" lon="9.549970277493253"><ele>16.0</ele><time>2026-04-11T15:44:50Z</time></trkpt><trkpt lat="39.434024707243495" lon="9.549839145090575"><ele>16.0</ele><time>2026-04-11T15:44:51Z</time></trkpt><trkpt lat="39.43393247923159" lon="9.549712672937186"><ele>16.0</ele><time>2026-04-11T15:44:52Z</time></trkpt><trkpt lat="39.43383690572096" lon="9.549581385427347"><ele>16.0</ele><time>2026-04-11T15:44:53Z</time></trkpt><trkpt lat="39.433739388519406" lon="9.549448110358473"><ele>15.75</ele><time>2026-04-11T15:44:54Z</time></trkpt><trkpt lat="39.43363733811925" lon="9.549316124661772"><ele>15.5</ele><time>2026-04-11T15:44:55Z</time></trkpt><trkpt lat="39.4335351913714" lon="9.549182388670097"><ele>15.25</ele><time>2026-04-11T15:44:56Z</time></trkpt><trkpt lat="39.433443386513524" lon="9.54905428674955"><ele>15.0</ele><time>2026-04-11T15:44:57Z</time></trkpt><trkpt lat="39.433360933416814" lon="9.54894399277411"><ele>15.0</ele><time>2026-04-11T15:44:58Z</time></trkpt><trkpt lat="39.43328745472298" lon="9.548859617084064"><ele>15.0</ele><time>2026-04-11T15:44:59Z</time></trkpt><trkpt lat="39.43324083231549" lon="9.548773742313669"><ele>15.0</ele><time>2026-04-11T15:45:00Z</time></trkpt><trkpt lat="39.433176722742" lon="9.548718941476896"><ele>15.0</ele><time>2026-04-11T15:45:02Z</time></trkpt><trkpt lat="39.43304028733977" lon="9.548921119298342"><ele>15.0</ele><time>2026-04-11T15:45:03Z</time></trkpt><trkpt lat="39.433004872887004" lon="9.548988526190263"><ele>15.0</ele><time>2026-04-11T15:45:04Z</time></trkpt><trkpt lat="39.43296858230645" lon="9.549083514970393"><ele>17.0</ele><time>2026-04-11T15:45:06Z</time></trkpt><trkpt lat="39.43319685297182" lon="9.549123000309498"><ele>15.0</ele><time>2026-04-11T15:45:11Z</time></trkpt></trkseg></trk></gpx>